<?xml version="1.0" encoding="UTF-8" standalone="no" ?>
<gpx xmlns="http://www.topografix.com/GPX/1/1" xmlns:xsi="http://www.w3.org/2001/XMLSchema-instance" xsi:schemaLocation="http://www.topografix.com/GPX/1/1 http://www.topografix.com/GPX/1/1/gpx.xsd" version="1.1" creator="VisuGPX - https://www.visugpx.com">
  <metadata>
    <name>Villeneuve-Loubet Biot Le Rouret Roquefort</name>
    <desc><![CDATA[Boucle intéressante, mais encore des améliorations à apporter....]]></desc>
  </metadata>
  <trk>
    <name><![CDATA[Villeneuve-Loubet Cyclisme]]></name>
    <extensions>
      <line xmlns="http://www.topografix.com/GPX/gpx_style/0/2">
        <color>0000FF</color>
        <width>4</width>
      </line>
    </extensions>
    <trkseg>
      <trkpt lat="43.65186" lon="7.12898">
        <ele>10.199999809265</ele>
        <time>2022-04-12T07:27:11.000Z</time>
      </trkpt>
      <trkpt lat="43.65186" lon="7.12897">
        <ele>10</ele>
        <time>2022-04-12T07:27:17.000Z</time>
      </trkpt>
      <trkpt lat="43.65187" lon="7.12899">
        <ele>10.199999809265</ele>
        <time>2022-04-12T07:27:24.000Z</time>
      </trkpt>
      <trkpt lat="43.65189" lon="7.12905">
        <ele>9.8000001907349</ele>
        <time>2022-04-12T07:27:30.000Z</time>
      </trkpt>
      <trkpt lat="43.65192" lon="7.12911">
        <ele>9.8000001907349</ele>
        <time>2022-04-12T07:27:34.000Z</time>
      </trkpt>
      <trkpt lat="43.65194" lon="7.12911">
        <ele>9.6000003814697</ele>
        <time>2022-04-12T07:27:35.000Z</time>
      </trkpt>
      <trkpt lat="43.65201" lon="7.12904">
        <ele>9.3999996185303</ele>
        <time>2022-04-12T07:27:40.000Z</time>
      </trkpt>
      <trkpt lat="43.65208" lon="7.12894">
        <ele>9.6000003814697</ele>
        <time>2022-04-12T07:27:46.000Z</time>
      </trkpt>
      <trkpt lat="43.65204" lon="7.12894">
        <ele>9.6000003814697</ele>
        <time>2022-04-12T07:27:50.000Z</time>
      </trkpt>
      <trkpt lat="43.65206" lon="7.12897">
        <ele>9.6000003814697</ele>
        <time>2022-04-12T07:27:54.000Z</time>
      </trkpt>
      <trkpt lat="43.65204" lon="7.12887">
        <ele>9.6000003814697</ele>
        <time>2022-04-12T07:27:57.000Z</time>
      </trkpt>
      <trkpt lat="43.65199" lon="7.12877">
        <ele>9.6000003814697</ele>
        <time>2022-04-12T07:28:00.000Z</time>
      </trkpt>
      <trkpt lat="43.65197" lon="7.12866">
        <ele>10</ele>
        <time>2022-04-12T07:28:03.000Z</time>
      </trkpt>
      <trkpt lat="43.65201" lon="7.12854">
        <ele>10.39999961853</ele>
        <time>2022-04-12T07:28:07.000Z</time>
      </trkpt>
      <trkpt lat="43.65219" lon="7.12841">
        <ele>10.60000038147</ele>
        <time>2022-04-12T07:28:14.000Z</time>
      </trkpt>
      <trkpt lat="43.65241" lon="7.12838">
        <ele>10.800000190735</ele>
        <time>2022-04-12T07:28:21.000Z</time>
      </trkpt>
      <trkpt lat="43.65254" lon="7.12826">
        <ele>11.199999809265</ele>
        <time>2022-04-12T07:28:26.000Z</time>
      </trkpt>
      <trkpt lat="43.65256" lon="7.12822">
        <ele>11.199999809265</ele>
        <time>2022-04-12T07:28:27.000Z</time>
      </trkpt>
      <trkpt lat="43.65267" lon="7.12792">
        <ele>11.39999961853</ele>
        <time>2022-04-12T07:28:35.000Z</time>
      </trkpt>
      <trkpt lat="43.65271" lon="7.12767">
        <ele>11.39999961853</ele>
        <time>2022-04-12T07:28:41.000Z</time>
      </trkpt>
      <trkpt lat="43.6528" lon="7.12743">
        <ele>11.39999961853</ele>
        <time>2022-04-12T07:28:47.000Z</time>
      </trkpt>
      <trkpt lat="43.65296" lon="7.12717">
        <ele>11.199999809265</ele>
        <time>2022-04-12T07:28:54.000Z</time>
      </trkpt>
      <trkpt lat="43.65327" lon="7.12682">
        <ele>11</ele>
        <time>2022-04-12T07:29:05.000Z</time>
      </trkpt>
      <trkpt lat="43.65348" lon="7.12655">
        <ele>10.800000190735</ele>
        <time>2022-04-12T07:29:13.000Z</time>
      </trkpt>
      <trkpt lat="43.65348" lon="7.12651">
        <ele>10.60000038147</ele>
        <time>2022-04-12T07:29:14.000Z</time>
      </trkpt>
      <trkpt lat="43.65348" lon="7.12637">
        <ele>11.199999809265</ele>
        <time>2022-04-12T07:29:18.000Z</time>
      </trkpt>
      <trkpt lat="43.65355" lon="7.1263">
        <ele>12</ele>
        <time>2022-04-12T07:29:21.000Z</time>
      </trkpt>
      <trkpt lat="43.65361" lon="7.12625">
        <ele>12</ele>
        <time>2022-04-12T07:29:23.000Z</time>
      </trkpt>
      <trkpt lat="43.65395" lon="7.12597">
        <ele>12</ele>
        <time>2022-04-12T07:29:34.000Z</time>
      </trkpt>
      <trkpt lat="43.65412" lon="7.1258">
        <ele>12.199999809265</ele>
        <time>2022-04-12T07:29:40.000Z</time>
      </trkpt>
      <trkpt lat="43.65421" lon="7.12573">
        <ele>12.199999809265</ele>
        <time>2022-04-12T07:29:43.000Z</time>
      </trkpt>
      <trkpt lat="43.6544" lon="7.12553">
        <ele>11.800000190735</ele>
        <time>2022-04-12T07:29:50.000Z</time>
      </trkpt>
      <trkpt lat="43.6546" lon="7.12534">
        <ele>12</ele>
        <time>2022-04-12T07:29:57.000Z</time>
      </trkpt>
      <trkpt lat="43.65478" lon="7.12525">
        <ele>11.60000038147</ele>
        <time>2022-04-12T07:30:02.000Z</time>
      </trkpt>
      <trkpt lat="43.65486" lon="7.12509">
        <ele>11.39999961853</ele>
        <time>2022-04-12T07:30:06.000Z</time>
      </trkpt>
      <trkpt lat="43.65502" lon="7.12492">
        <ele>12.199999809265</ele>
        <time>2022-04-12T07:30:12.000Z</time>
      </trkpt>
      <trkpt lat="43.6552" lon="7.12473">
        <ele>12.39999961853</ele>
        <time>2022-04-12T07:30:19.000Z</time>
      </trkpt>
      <trkpt lat="43.65535" lon="7.12455">
        <ele>12.39999961853</ele>
        <time>2022-04-12T07:30:25.000Z</time>
      </trkpt>
      <trkpt lat="43.65554" lon="7.12428">
        <ele>12.199999809265</ele>
        <time>2022-04-12T07:30:32.000Z</time>
      </trkpt>
      <trkpt lat="43.65572" lon="7.12393">
        <ele>11.800000190735</ele>
        <time>2022-04-12T07:30:40.000Z</time>
      </trkpt>
      <trkpt lat="43.65585" lon="7.1236">
        <ele>11.800000190735</ele>
        <time>2022-04-12T07:30:47.000Z</time>
      </trkpt>
      <trkpt lat="43.65591" lon="7.12341">
        <ele>11.800000190735</ele>
        <time>2022-04-12T07:30:52.000Z</time>
      </trkpt>
      <trkpt lat="43.65591" lon="7.12338">
        <ele>12.199999809265</ele>
        <time>2022-04-12T07:30:56.000Z</time>
      </trkpt>
      <trkpt lat="43.65589" lon="7.12333">
        <ele>12.199999809265</ele>
        <time>2022-04-12T07:31:04.000Z</time>
      </trkpt>
      <trkpt lat="43.65587" lon="7.12322">
        <ele>12</ele>
        <time>2022-04-12T07:31:09.000Z</time>
      </trkpt>
      <trkpt lat="43.65586" lon="7.12311">
        <ele>12.199999809265</ele>
        <time>2022-04-12T07:31:14.000Z</time>
      </trkpt>
      <trkpt lat="43.65587" lon="7.12308">
        <ele>12.800000190735</ele>
        <time>2022-04-12T07:31:20.000Z</time>
      </trkpt>
      <trkpt lat="43.65586" lon="7.12305">
        <ele>13.199999809265</ele>
        <time>2022-04-12T07:31:24.000Z</time>
      </trkpt>
      <trkpt lat="43.65587" lon="7.12304">
        <ele>13.39999961853</ele>
        <time>2022-04-12T07:31:25.000Z</time>
      </trkpt>
      <trkpt lat="43.65588" lon="7.12303">
        <ele>13.39999961853</ele>
        <time>2022-04-12T07:31:26.000Z</time>
      </trkpt>
      <trkpt lat="43.65588" lon="7.12299">
        <ele>13</ele>
        <time>2022-04-12T07:31:32.000Z</time>
      </trkpt>
      <trkpt lat="43.65587" lon="7.12299">
        <ele>13</ele>
        <time>2022-04-12T07:31:38.000Z</time>
      </trkpt>
      <trkpt lat="43.65589" lon="7.12295">
        <ele>13.800000190735</ele>
        <time>2022-04-12T07:31:46.000Z</time>
      </trkpt>
      <trkpt lat="43.65589" lon="7.12292">
        <ele>13.800000190735</ele>
        <time>2022-04-12T07:31:53.000Z</time>
      </trkpt>
      <trkpt lat="43.65588" lon="7.12283">
        <ele>13.60000038147</ele>
        <time>2022-04-12T07:32:00.000Z</time>
      </trkpt>
      <trkpt lat="43.65587" lon="7.12281">
        <ele>13.60000038147</ele>
        <time>2022-04-12T07:32:01.000Z</time>
      </trkpt>
      <trkpt lat="43.65583" lon="7.12276">
        <ele>13.60000038147</ele>
        <time>2022-04-12T07:32:05.000Z</time>
      </trkpt>
      <trkpt lat="43.65581" lon="7.12273">
        <ele>14</ele>
        <time>2022-04-12T07:32:07.000Z</time>
      </trkpt>
      <trkpt lat="43.6558" lon="7.12271">
        <ele>14.199999809265</ele>
        <time>2022-04-12T07:32:08.000Z</time>
      </trkpt>
      <trkpt lat="43.65575" lon="7.12267">
        <ele>15</ele>
        <time>2022-04-12T07:32:12.000Z</time>
      </trkpt>
      <trkpt lat="43.65575" lon="7.12267">
        <ele>15.39999961853</ele>
        <time>2022-04-12T07:32:13.000Z</time>
      </trkpt>
      <trkpt lat="43.65573" lon="7.12268">
        <ele>16</ele>
        <time>2022-04-12T07:32:17.000Z</time>
      </trkpt>
      <trkpt lat="43.65571" lon="7.1227">
        <ele>16.39999961853</ele>
        <time>2022-04-12T07:32:22.000Z</time>
      </trkpt>
      <trkpt lat="43.65569" lon="7.12272">
        <ele>16.60000038147</ele>
        <time>2022-04-12T07:32:24.000Z</time>
      </trkpt>
      <trkpt lat="43.65567" lon="7.12284">
        <ele>17.60000038147</ele>
        <time>2022-04-12T07:32:29.000Z</time>
      </trkpt>
      <trkpt lat="43.65567" lon="7.12287">
        <ele>18</ele>
        <time>2022-04-12T07:32:30.000Z</time>
      </trkpt>
      <trkpt lat="43.65569" lon="7.12292">
        <ele>18.799999237061</ele>
        <time>2022-04-12T07:32:32.000Z</time>
      </trkpt>
      <trkpt lat="43.6557" lon="7.12298">
        <ele>19.60000038147</ele>
        <time>2022-04-12T07:32:34.000Z</time>
      </trkpt>
      <trkpt lat="43.65571" lon="7.12301">
        <ele>20</ele>
        <time>2022-04-12T07:32:35.000Z</time>
      </trkpt>
      <trkpt lat="43.65572" lon="7.12311">
        <ele>21</ele>
        <time>2022-04-12T07:32:38.000Z</time>
      </trkpt>
      <trkpt lat="43.65571" lon="7.12317">
        <ele>21.799999237061</ele>
        <time>2022-04-12T07:32:40.000Z</time>
      </trkpt>
      <trkpt lat="43.65571" lon="7.1232">
        <ele>22.200000762939</ele>
        <time>2022-04-12T07:32:41.000Z</time>
      </trkpt>
      <trkpt lat="43.6557" lon="7.12327">
        <ele>23.200000762939</ele>
        <time>2022-04-12T07:32:43.000Z</time>
      </trkpt>
      <trkpt lat="43.65569" lon="7.12333">
        <ele>24.39999961853</ele>
        <time>2022-04-12T07:32:45.000Z</time>
      </trkpt>
      <trkpt lat="43.65568" lon="7.12336">
        <ele>25</ele>
        <time>2022-04-12T07:32:46.000Z</time>
      </trkpt>
      <trkpt lat="43.65567" lon="7.12338">
        <ele>25.60000038147</ele>
        <time>2022-04-12T07:32:47.000Z</time>
      </trkpt>
      <trkpt lat="43.65566" lon="7.12343">
        <ele>26.799999237061</ele>
        <time>2022-04-12T07:32:49.000Z</time>
      </trkpt>
      <trkpt lat="43.65564" lon="7.12347">
        <ele>28</ele>
        <time>2022-04-12T07:32:51.000Z</time>
      </trkpt>
      <trkpt lat="43.65562" lon="7.12349">
        <ele>28.60000038147</ele>
        <time>2022-04-12T07:32:52.000Z</time>
      </trkpt>
      <trkpt lat="43.6556" lon="7.1235">
        <ele>29</ele>
        <time>2022-04-12T07:32:53.000Z</time>
      </trkpt>
      <trkpt lat="43.65556" lon="7.12351">
        <ele>30</ele>
        <time>2022-04-12T07:32:55.000Z</time>
      </trkpt>
      <trkpt lat="43.65552" lon="7.12354">
        <ele>31.39999961853</ele>
        <time>2022-04-12T07:32:57.000Z</time>
      </trkpt>
      <trkpt lat="43.65549" lon="7.12357">
        <ele>33</ele>
        <time>2022-04-12T07:32:59.000Z</time>
      </trkpt>
      <trkpt lat="43.65546" lon="7.12362">
        <ele>34.200000762939</ele>
        <time>2022-04-12T07:33:01.000Z</time>
      </trkpt>
      <trkpt lat="43.65542" lon="7.12367">
        <ele>35.400001525879</ele>
        <time>2022-04-12T07:33:03.000Z</time>
      </trkpt>
      <trkpt lat="43.65541" lon="7.12369">
        <ele>35.799999237061</ele>
        <time>2022-04-12T07:33:04.000Z</time>
      </trkpt>
      <trkpt lat="43.65539" lon="7.12371">
        <ele>36.400001525879</ele>
        <time>2022-04-12T07:33:05.000Z</time>
      </trkpt>
      <trkpt lat="43.65533" lon="7.12376">
        <ele>38</ele>
        <time>2022-04-12T07:33:08.000Z</time>
      </trkpt>
      <trkpt lat="43.65528" lon="7.12381">
        <ele>39</ele>
        <time>2022-04-12T07:33:11.000Z</time>
      </trkpt>
      <trkpt lat="43.65526" lon="7.12384">
        <ele>39.599998474121</ele>
        <time>2022-04-12T07:33:12.000Z</time>
      </trkpt>
      <trkpt lat="43.65523" lon="7.12389">
        <ele>40</ele>
        <time>2022-04-12T07:33:14.000Z</time>
      </trkpt>
      <trkpt lat="43.65514" lon="7.124">
        <ele>40.400001525879</ele>
        <time>2022-04-12T07:33:19.000Z</time>
      </trkpt>
      <trkpt lat="43.655" lon="7.12408">
        <ele>40.400001525879</ele>
        <time>2022-04-12T07:33:25.000Z</time>
      </trkpt>
      <trkpt lat="43.65482" lon="7.12417">
        <ele>40.799999237061</ele>
        <time>2022-04-12T07:33:33.000Z</time>
      </trkpt>
      <trkpt lat="43.65478" lon="7.12421">
        <ele>41.200000762939</ele>
        <time>2022-04-12T07:33:35.000Z</time>
      </trkpt>
      <trkpt lat="43.65472" lon="7.12425">
        <ele>42.200000762939</ele>
        <time>2022-04-12T07:33:38.000Z</time>
      </trkpt>
      <trkpt lat="43.65463" lon="7.12429">
        <ele>43.400001525879</ele>
        <time>2022-04-12T07:33:42.000Z</time>
      </trkpt>
      <trkpt lat="43.65453" lon="7.12432">
        <ele>44.400001525879</ele>
        <time>2022-04-12T07:33:46.000Z</time>
      </trkpt>
      <trkpt lat="43.65448" lon="7.12432">
        <ele>45.200000762939</ele>
        <time>2022-04-12T07:33:48.000Z</time>
      </trkpt>
      <trkpt lat="43.65446" lon="7.12433">
        <ele>45.599998474121</ele>
        <time>2022-04-12T07:33:49.000Z</time>
      </trkpt>
      <trkpt lat="43.65437" lon="7.12438">
        <ele>46.599998474121</ele>
        <time>2022-04-12T07:33:53.000Z</time>
      </trkpt>
      <trkpt lat="43.65435" lon="7.1244">
        <ele>46.799999237061</ele>
        <time>2022-04-12T07:33:54.000Z</time>
      </trkpt>
      <trkpt lat="43.65429" lon="7.12445">
        <ele>47.599998474121</ele>
        <time>2022-04-12T07:33:57.000Z</time>
      </trkpt>
      <trkpt lat="43.65418" lon="7.12453">
        <ele>48.799999237061</ele>
        <time>2022-04-12T07:34:02.000Z</time>
      </trkpt>
      <trkpt lat="43.65416" lon="7.12455">
        <ele>49</ele>
        <time>2022-04-12T07:34:03.000Z</time>
      </trkpt>
      <trkpt lat="43.65412" lon="7.12458">
        <ele>50</ele>
        <time>2022-04-12T07:34:05.000Z</time>
      </trkpt>
      <trkpt lat="43.65402" lon="7.12462">
        <ele>51.200000762939</ele>
        <time>2022-04-12T07:34:09.000Z</time>
      </trkpt>
      <trkpt lat="43.65397" lon="7.12464">
        <ele>51.599998474121</ele>
        <time>2022-04-12T07:34:11.000Z</time>
      </trkpt>
      <trkpt lat="43.65392" lon="7.12465">
        <ele>52.400001525879</ele>
        <time>2022-04-12T07:34:13.000Z</time>
      </trkpt>
      <trkpt lat="43.65383" lon="7.1247">
        <ele>53.799999237061</ele>
        <time>2022-04-12T07:34:17.000Z</time>
      </trkpt>
      <trkpt lat="43.65381" lon="7.12472">
        <ele>54</ele>
        <time>2022-04-12T07:34:18.000Z</time>
      </trkpt>
      <trkpt lat="43.65375" lon="7.12476">
        <ele>55</ele>
        <time>2022-04-12T07:34:21.000Z</time>
      </trkpt>
      <trkpt lat="43.65365" lon="7.12479">
        <ele>56</ele>
        <time>2022-04-12T07:34:25.000Z</time>
      </trkpt>
      <trkpt lat="43.65363" lon="7.12479">
        <ele>56.400001525879</ele>
        <time>2022-04-12T07:34:26.000Z</time>
      </trkpt>
      <trkpt lat="43.65353" lon="7.12482">
        <ele>57.200000762939</ele>
        <time>2022-04-12T07:34:30.000Z</time>
      </trkpt>
      <trkpt lat="43.65343" lon="7.12486">
        <ele>58.599998474121</ele>
        <time>2022-04-12T07:34:34.000Z</time>
      </trkpt>
      <trkpt lat="43.65335" lon="7.1249">
        <ele>59.799999237061</ele>
        <time>2022-04-12T07:34:37.000Z</time>
      </trkpt>
      <trkpt lat="43.65327" lon="7.12492">
        <ele>61.200000762939</ele>
        <time>2022-04-12T07:34:40.000Z</time>
      </trkpt>
      <trkpt lat="43.65319" lon="7.12493">
        <ele>62.400001525879</ele>
        <time>2022-04-12T07:34:43.000Z</time>
      </trkpt>
      <trkpt lat="43.65312" lon="7.12494">
        <ele>63.799999237061</ele>
        <time>2022-04-12T07:34:46.000Z</time>
      </trkpt>
      <trkpt lat="43.65306" lon="7.12494">
        <ele>64.599998474121</ele>
        <time>2022-04-12T07:34:48.000Z</time>
      </trkpt>
      <trkpt lat="43.65304" lon="7.12495">
        <ele>65.199996948242</ele>
        <time>2022-04-12T07:34:49.000Z</time>
      </trkpt>
      <trkpt lat="43.65296" lon="7.12496">
        <ele>66.599998474121</ele>
        <time>2022-04-12T07:34:52.000Z</time>
      </trkpt>
      <trkpt lat="43.6529" lon="7.12499">
        <ele>67.400001525879</ele>
        <time>2022-04-12T07:34:55.000Z</time>
      </trkpt>
      <trkpt lat="43.65287" lon="7.125">
        <ele>67.599998474121</ele>
        <time>2022-04-12T07:34:56.000Z</time>
      </trkpt>
      <trkpt lat="43.65276" lon="7.12503">
        <ele>68</ele>
        <time>2022-04-12T07:35:01.000Z</time>
      </trkpt>
      <trkpt lat="43.65259" lon="7.12499">
        <ele>68.400001525879</ele>
        <time>2022-04-12T07:35:09.000Z</time>
      </trkpt>
      <trkpt lat="43.65254" lon="7.12497">
        <ele>68.599998474121</ele>
        <time>2022-04-12T07:35:11.000Z</time>
      </trkpt>
      <trkpt lat="43.65241" lon="7.12494">
        <ele>69.199996948242</ele>
        <time>2022-04-12T07:35:17.000Z</time>
      </trkpt>
      <trkpt lat="43.65234" lon="7.12492">
        <ele>69.599998474121</ele>
        <time>2022-04-12T07:35:20.000Z</time>
      </trkpt>
      <trkpt lat="43.65221" lon="7.12487">
        <ele>70</ele>
        <time>2022-04-12T07:35:26.000Z</time>
      </trkpt>
      <trkpt lat="43.6522" lon="7.12481">
        <ele>70.199996948242</ele>
        <time>2022-04-12T07:35:28.000Z</time>
      </trkpt>
      <trkpt lat="43.65222" lon="7.12475">
        <ele>70.599998474121</ele>
        <time>2022-04-12T07:35:30.000Z</time>
      </trkpt>
      <trkpt lat="43.65228" lon="7.12465">
        <ele>71.800003051758</ele>
        <time>2022-04-12T07:35:35.000Z</time>
      </trkpt>
      <trkpt lat="43.65229" lon="7.12463">
        <ele>72</ele>
        <time>2022-04-12T07:35:36.000Z</time>
      </trkpt>
      <trkpt lat="43.65233" lon="7.12455">
        <ele>73</ele>
        <time>2022-04-12T07:35:40.000Z</time>
      </trkpt>
      <trkpt lat="43.65237" lon="7.12447">
        <ele>74</ele>
        <time>2022-04-12T07:35:43.000Z</time>
      </trkpt>
      <trkpt lat="43.65238" lon="7.12445">
        <ele>74.199996948242</ele>
        <time>2022-04-12T07:35:44.000Z</time>
      </trkpt>
      <trkpt lat="43.65243" lon="7.12436">
        <ele>75.400001525879</ele>
        <time>2022-04-12T07:35:48.000Z</time>
      </trkpt>
      <trkpt lat="43.65243" lon="7.12427">
        <ele>76.199996948242</ele>
        <time>2022-04-12T07:35:51.000Z</time>
      </trkpt>
      <trkpt lat="43.65242" lon="7.12424">
        <ele>76.400001525879</ele>
        <time>2022-04-12T07:35:52.000Z</time>
      </trkpt>
      <trkpt lat="43.6524" lon="7.12415">
        <ele>77.599998474121</ele>
        <time>2022-04-12T07:35:55.000Z</time>
      </trkpt>
      <trkpt lat="43.65239" lon="7.12407">
        <ele>78.400001525879</ele>
        <time>2022-04-12T07:35:58.000Z</time>
      </trkpt>
      <trkpt lat="43.65239" lon="7.12404">
        <ele>78.599998474121</ele>
        <time>2022-04-12T07:35:59.000Z</time>
      </trkpt>
      <trkpt lat="43.65238" lon="7.12385">
        <ele>79.800003051758</ele>
        <time>2022-04-12T07:36:06.000Z</time>
      </trkpt>
      <trkpt lat="43.65238" lon="7.12382">
        <ele>79.800003051758</ele>
        <time>2022-04-12T07:36:07.000Z</time>
      </trkpt>
      <trkpt lat="43.6524" lon="7.12371">
        <ele>80.800003051758</ele>
        <time>2022-04-12T07:36:11.000Z</time>
      </trkpt>
      <trkpt lat="43.65241" lon="7.12361">
        <ele>82.199996948242</ele>
        <time>2022-04-12T07:36:14.000Z</time>
      </trkpt>
      <trkpt lat="43.65244" lon="7.12353">
        <ele>83.599998474121</ele>
        <time>2022-04-12T07:36:17.000Z</time>
      </trkpt>
      <trkpt lat="43.65248" lon="7.12345">
        <ele>84.800003051758</ele>
        <time>2022-04-12T07:36:20.000Z</time>
      </trkpt>
      <trkpt lat="43.6525" lon="7.1234">
        <ele>85.199996948242</ele>
        <time>2022-04-12T07:36:22.000Z</time>
      </trkpt>
      <trkpt lat="43.65255" lon="7.12332">
        <ele>85.800003051758</ele>
        <time>2022-04-12T07:36:25.000Z</time>
      </trkpt>
      <trkpt lat="43.65263" lon="7.12324">
        <ele>87</ele>
        <time>2022-04-12T07:36:29.000Z</time>
      </trkpt>
      <trkpt lat="43.65265" lon="7.12322">
        <ele>87.400001525879</ele>
        <time>2022-04-12T07:36:30.000Z</time>
      </trkpt>
      <trkpt lat="43.6527" lon="7.12319">
        <ele>88.599998474121</ele>
        <time>2022-04-12T07:36:32.000Z</time>
      </trkpt>
      <trkpt lat="43.65277" lon="7.12314">
        <ele>89.599998474121</ele>
        <time>2022-04-12T07:36:35.000Z</time>
      </trkpt>
      <trkpt lat="43.65282" lon="7.12309">
        <ele>90.199996948242</ele>
        <time>2022-04-12T07:36:38.000Z</time>
      </trkpt>
      <trkpt lat="43.65284" lon="7.12307">
        <ele>90.800003051758</ele>
        <time>2022-04-12T07:36:39.000Z</time>
      </trkpt>
      <trkpt lat="43.65291" lon="7.12298">
        <ele>91.800003051758</ele>
        <time>2022-04-12T07:36:43.000Z</time>
      </trkpt>
      <trkpt lat="43.653" lon="7.12288">
        <ele>92.199996948242</ele>
        <time>2022-04-12T07:36:48.000Z</time>
      </trkpt>
      <trkpt lat="43.65308" lon="7.1228">
        <ele>92.800003051758</ele>
        <time>2022-04-12T07:36:52.000Z</time>
      </trkpt>
      <trkpt lat="43.65314" lon="7.12277">
        <ele>93.400001525879</ele>
        <time>2022-04-12T07:36:55.000Z</time>
      </trkpt>
      <trkpt lat="43.65318" lon="7.12274">
        <ele>94</ele>
        <time>2022-04-12T07:36:57.000Z</time>
      </trkpt>
      <trkpt lat="43.65331" lon="7.12262">
        <ele>95</ele>
        <time>2022-04-12T07:37:04.000Z</time>
      </trkpt>
      <trkpt lat="43.65333" lon="7.1226">
        <ele>95.199996948242</ele>
        <time>2022-04-12T07:37:05.000Z</time>
      </trkpt>
      <trkpt lat="43.65338" lon="7.12253">
        <ele>96.400001525879</ele>
        <time>2022-04-12T07:37:08.000Z</time>
      </trkpt>
      <trkpt lat="43.65347" lon="7.12246">
        <ele>97.400001525879</ele>
        <time>2022-04-12T07:37:12.000Z</time>
      </trkpt>
      <trkpt lat="43.65358" lon="7.12246">
        <ele>98.599998474121</ele>
        <time>2022-04-12T07:37:16.000Z</time>
      </trkpt>
      <trkpt lat="43.6536" lon="7.12248">
        <ele>98.800003051758</ele>
        <time>2022-04-12T07:37:17.000Z</time>
      </trkpt>
      <trkpt lat="43.65368" lon="7.12253">
        <ele>99.599998474121</ele>
        <time>2022-04-12T07:37:20.000Z</time>
      </trkpt>
      <trkpt lat="43.65375" lon="7.12256">
        <ele>101.19999694824</ele>
        <time>2022-04-12T07:37:23.000Z</time>
      </trkpt>
      <trkpt lat="43.65378" lon="7.12256">
        <ele>102.59999847412</ele>
        <time>2022-04-12T07:37:25.000Z</time>
      </trkpt>
      <trkpt lat="43.65382" lon="7.12254">
        <ele>103.80000305176</ele>
        <time>2022-04-12T07:37:27.000Z</time>
      </trkpt>
      <trkpt lat="43.65387" lon="7.12252">
        <ele>105</ele>
        <time>2022-04-12T07:37:30.000Z</time>
      </trkpt>
      <trkpt lat="43.65392" lon="7.12245">
        <ele>105.80000305176</ele>
        <time>2022-04-12T07:37:35.000Z</time>
      </trkpt>
      <trkpt lat="43.65394" lon="7.12241">
        <ele>106</ele>
        <time>2022-04-12T07:37:37.000Z</time>
      </trkpt>
      <trkpt lat="43.654" lon="7.12227">
        <ele>106.80000305176</ele>
        <time>2022-04-12T07:37:43.000Z</time>
      </trkpt>
      <trkpt lat="43.65402" lon="7.1222">
        <ele>107.19999694824</ele>
        <time>2022-04-12T07:37:46.000Z</time>
      </trkpt>
      <trkpt lat="43.65404" lon="7.12211">
        <ele>108.19999694824</ele>
        <time>2022-04-12T07:37:50.000Z</time>
      </trkpt>
      <trkpt lat="43.65403" lon="7.12211">
        <ele>108.40000152588</ele>
        <time>2022-04-12T07:37:51.000Z</time>
      </trkpt>
      <trkpt lat="43.65403" lon="7.1221">
        <ele>108.80000305176</ele>
        <time>2022-04-12T07:37:57.000Z</time>
      </trkpt>
      <trkpt lat="43.65403" lon="7.1221">
        <ele>108.80000305176</ele>
        <time>2022-04-12T07:38:13.000Z</time>
      </trkpt>
      <trkpt lat="43.65402" lon="7.12209">
        <ele>108.59999847412</ele>
        <time>2022-04-12T07:38:29.000Z</time>
      </trkpt>
      <trkpt lat="43.65401" lon="7.12209">
        <ele>108.59999847412</ele>
        <time>2022-04-12T07:38:55.000Z</time>
      </trkpt>
      <trkpt lat="43.65401" lon="7.12208">
        <ele>108.80000305176</ele>
        <time>2022-04-12T07:39:01.000Z</time>
      </trkpt>
      <trkpt lat="43.65399" lon="7.12209">
        <ele>108.59999847412</ele>
        <time>2022-04-12T07:39:04.000Z</time>
      </trkpt>
      <trkpt lat="43.65399" lon="7.12208">
        <ele>108.59999847412</ele>
        <time>2022-04-12T07:39:05.000Z</time>
      </trkpt>
      <trkpt lat="43.65399" lon="7.12208">
        <ele>108.19999694824</ele>
        <time>2022-04-12T07:39:11.000Z</time>
      </trkpt>
      <trkpt lat="43.65399" lon="7.12207">
        <ele>108</ele>
        <time>2022-04-12T07:39:27.000Z</time>
      </trkpt>
      <trkpt lat="43.65399" lon="7.12207">
        <ele>108.19999694824</ele>
        <time>2022-04-12T07:39:41.000Z</time>
      </trkpt>
      <trkpt lat="43.65399" lon="7.12207">
        <ele>108.19999694824</ele>
        <time>2022-04-12T07:39:54.000Z</time>
      </trkpt>
      <trkpt lat="43.65399" lon="7.12208">
        <ele>108.19999694824</ele>
        <time>2022-04-12T07:40:07.000Z</time>
      </trkpt>
      <trkpt lat="43.65399" lon="7.12207">
        <ele>108.19999694824</ele>
        <time>2022-04-12T07:40:24.000Z</time>
      </trkpt>
      <trkpt lat="43.65398" lon="7.12206">
        <ele>108.40000152588</ele>
        <time>2022-04-12T07:40:40.000Z</time>
      </trkpt>
      <trkpt lat="43.65398" lon="7.12206">
        <ele>107.59999847412</ele>
        <time>2022-04-12T07:40:50.000Z</time>
      </trkpt>
      <trkpt lat="43.65399" lon="7.12205">
        <ele>107.59999847412</ele>
        <time>2022-04-12T07:40:56.000Z</time>
      </trkpt>
      <trkpt lat="43.654" lon="7.12205">
        <ele>107.59999847412</ele>
        <time>2022-04-12T07:41:04.000Z</time>
      </trkpt>
      <trkpt lat="43.65399" lon="7.12205">
        <ele>107.80000305176</ele>
        <time>2022-04-12T07:41:14.000Z</time>
      </trkpt>
      <trkpt lat="43.65399" lon="7.12206">
        <ele>108.59999847412</ele>
        <time>2022-04-12T07:41:23.000Z</time>
      </trkpt>
      <trkpt lat="43.65399" lon="7.12207">
        <ele>108</ele>
        <time>2022-04-12T07:41:30.000Z</time>
      </trkpt>
      <trkpt lat="43.65399" lon="7.12207">
        <ele>107.80000305176</ele>
        <time>2022-04-12T07:41:39.000Z</time>
      </trkpt>
      <trkpt lat="43.65399" lon="7.12207">
        <ele>108.19999694824</ele>
        <time>2022-04-12T07:41:51.000Z</time>
      </trkpt>
      <trkpt lat="43.65399" lon="7.12207">
        <ele>107.80000305176</ele>
        <time>2022-04-12T07:42:03.000Z</time>
      </trkpt>
      <trkpt lat="43.654" lon="7.12207">
        <ele>108</ele>
        <time>2022-04-12T07:42:08.000Z</time>
      </trkpt>
      <trkpt lat="43.65399" lon="7.12207">
        <ele>108</ele>
        <time>2022-04-12T07:42:09.000Z</time>
      </trkpt>
      <trkpt lat="43.65398" lon="7.12203">
        <ele>108.59999847412</ele>
        <time>2022-04-12T07:42:17.000Z</time>
      </trkpt>
      <trkpt lat="43.65396" lon="7.12196">
        <ele>108.59999847412</ele>
        <time>2022-04-12T07:42:21.000Z</time>
      </trkpt>
      <trkpt lat="43.65396" lon="7.12193">
        <ele>108.59999847412</ele>
        <time>2022-04-12T07:42:22.000Z</time>
      </trkpt>
      <trkpt lat="43.65396" lon="7.12182">
        <ele>109</ele>
        <time>2022-04-12T07:42:27.000Z</time>
      </trkpt>
      <trkpt lat="43.65395" lon="7.12172">
        <ele>109</ele>
        <time>2022-04-12T07:42:31.000Z</time>
      </trkpt>
      <trkpt lat="43.65395" lon="7.12171">
        <ele>108</ele>
        <time>2022-04-12T07:42:37.000Z</time>
      </trkpt>
      <trkpt lat="43.65396" lon="7.12171">
        <ele>108</ele>
        <time>2022-04-12T07:43:03.000Z</time>
      </trkpt>
      <trkpt lat="43.65396" lon="7.12172">
        <ele>108.19999694824</ele>
        <time>2022-04-12T07:43:28.000Z</time>
      </trkpt>
      <trkpt lat="43.65397" lon="7.12171">
        <ele>108.40000152588</ele>
        <time>2022-04-12T07:43:36.000Z</time>
      </trkpt>
      <trkpt lat="43.65395" lon="7.12171">
        <ele>107.59999847412</ele>
        <time>2022-04-12T07:43:42.000Z</time>
      </trkpt>
      <trkpt lat="43.65395" lon="7.12172">
        <ele>107.59999847412</ele>
        <time>2022-04-12T07:43:55.000Z</time>
      </trkpt>
      <trkpt lat="43.65396" lon="7.12174">
        <ele>107.80000305176</ele>
        <time>2022-04-12T07:44:04.000Z</time>
      </trkpt>
      <trkpt lat="43.65397" lon="7.12175">
        <ele>107.80000305176</ele>
        <time>2022-04-12T07:44:23.000Z</time>
      </trkpt>
      <trkpt lat="43.65396" lon="7.12177">
        <ele>107.59999847412</ele>
        <time>2022-04-12T07:44:35.000Z</time>
      </trkpt>
      <trkpt lat="43.65396" lon="7.12177">
        <ele>107.40000152588</ele>
        <time>2022-04-12T07:44:38.000Z</time>
      </trkpt>
      <trkpt lat="43.65396" lon="7.12177">
        <ele>107.59999847412</ele>
        <time>2022-04-12T07:44:46.000Z</time>
      </trkpt>
      <trkpt lat="43.65395" lon="7.12176">
        <ele>107.59999847412</ele>
        <time>2022-04-12T07:44:53.000Z</time>
      </trkpt>
      <trkpt lat="43.65395" lon="7.12176">
        <ele>107.40000152588</ele>
        <time>2022-04-12T07:45:07.000Z</time>
      </trkpt>
      <trkpt lat="43.65396" lon="7.12176">
        <ele>107.40000152588</ele>
        <time>2022-04-12T07:45:14.000Z</time>
      </trkpt>
      <trkpt lat="43.65396" lon="7.12175">
        <ele>107.40000152588</ele>
        <time>2022-04-12T07:45:33.000Z</time>
      </trkpt>
      <trkpt lat="43.65396" lon="7.12174">
        <ele>107.40000152588</ele>
        <time>2022-04-12T07:45:42.000Z</time>
      </trkpt>
      <trkpt lat="43.65395" lon="7.12175">
        <ele>107.80000305176</ele>
        <time>2022-04-12T07:45:56.000Z</time>
      </trkpt>
      <trkpt lat="43.65395" lon="7.12175">
        <ele>107.80000305176</ele>
        <time>2022-04-12T07:46:05.000Z</time>
      </trkpt>
      <trkpt lat="43.65396" lon="7.12175">
        <ele>107.80000305176</ele>
        <time>2022-04-12T07:46:28.000Z</time>
      </trkpt>
      <trkpt lat="43.65396" lon="7.12175">
        <ele>108.40000152588</ele>
        <time>2022-04-12T07:46:35.000Z</time>
      </trkpt>
      <trkpt lat="43.65396" lon="7.12175">
        <ele>108.40000152588</ele>
        <time>2022-04-12T07:46:38.000Z</time>
      </trkpt>
      <trkpt lat="43.65396" lon="7.12174">
        <ele>108</ele>
        <time>2022-04-12T07:46:56.000Z</time>
      </trkpt>
      <trkpt lat="43.65396" lon="7.12174">
        <ele>108</ele>
        <time>2022-04-12T07:47:07.000Z</time>
      </trkpt>
      <trkpt lat="43.65396" lon="7.12173">
        <ele>107.80000305176</ele>
        <time>2022-04-12T07:47:15.000Z</time>
      </trkpt>
      <trkpt lat="43.65397" lon="7.12173">
        <ele>107.59999847412</ele>
        <time>2022-04-12T07:47:25.000Z</time>
      </trkpt>
      <trkpt lat="43.65396" lon="7.12171">
        <ele>108.19999694824</ele>
        <time>2022-04-12T07:47:30.000Z</time>
      </trkpt>
      <trkpt lat="43.65396" lon="7.12169">
        <ele>108.19999694824</ele>
        <time>2022-04-12T07:47:31.000Z</time>
      </trkpt>
      <trkpt lat="43.65395" lon="7.12154">
        <ele>107.80000305176</ele>
        <time>2022-04-12T07:47:35.000Z</time>
      </trkpt>
      <trkpt lat="43.65392" lon="7.12142">
        <ele>107.40000152588</ele>
        <time>2022-04-12T07:47:38.000Z</time>
      </trkpt>
      <trkpt lat="43.65389" lon="7.12121">
        <ele>106.80000305176</ele>
        <time>2022-04-12T07:47:43.000Z</time>
      </trkpt>
      <trkpt lat="43.6539" lon="7.12118">
        <ele>106.40000152588</ele>
        <time>2022-04-12T07:47:46.000Z</time>
      </trkpt>
      <trkpt lat="43.65389" lon="7.12117">
        <ele>106.40000152588</ele>
        <time>2022-04-12T07:47:47.000Z</time>
      </trkpt>
      <trkpt lat="43.6539" lon="7.12117">
        <ele>106.59999847412</ele>
        <time>2022-04-12T07:47:55.000Z</time>
      </trkpt>
      <trkpt lat="43.6539" lon="7.12112">
        <ele>107</ele>
        <time>2022-04-12T07:48:03.000Z</time>
      </trkpt>
      <trkpt lat="43.65391" lon="7.12109">
        <ele>107.59999847412</ele>
        <time>2022-04-12T07:48:06.000Z</time>
      </trkpt>
      <trkpt lat="43.65391" lon="7.12108">
        <ele>108</ele>
        <time>2022-04-12T07:48:09.000Z</time>
      </trkpt>
      <trkpt lat="43.65392" lon="7.12102">
        <ele>107.80000305176</ele>
        <time>2022-04-12T07:48:12.000Z</time>
      </trkpt>
      <trkpt lat="43.65391" lon="7.12099">
        <ele>107.59999847412</ele>
        <time>2022-04-12T07:48:13.000Z</time>
      </trkpt>
      <trkpt lat="43.65389" lon="7.12081">
        <ele>107.40000152588</ele>
        <time>2022-04-12T07:48:18.000Z</time>
      </trkpt>
      <trkpt lat="43.65391" lon="7.12064">
        <ele>107.59999847412</ele>
        <time>2022-04-12T07:48:24.000Z</time>
      </trkpt>
      <trkpt lat="43.65389" lon="7.12046">
        <ele>107.59999847412</ele>
        <time>2022-04-12T07:48:30.000Z</time>
      </trkpt>
      <trkpt lat="43.65391" lon="7.12036">
        <ele>107.40000152588</ele>
        <time>2022-04-12T07:48:35.000Z</time>
      </trkpt>
      <trkpt lat="43.65391" lon="7.12035">
        <ele>107.80000305176</ele>
        <time>2022-04-12T07:48:41.000Z</time>
      </trkpt>
      <trkpt lat="43.65393" lon="7.1203">
        <ele>108</ele>
        <time>2022-04-12T07:48:45.000Z</time>
      </trkpt>
      <trkpt lat="43.65395" lon="7.12023">
        <ele>108.40000152588</ele>
        <time>2022-04-12T07:48:48.000Z</time>
      </trkpt>
      <trkpt lat="43.65396" lon="7.12021">
        <ele>108.59999847412</ele>
        <time>2022-04-12T07:48:49.000Z</time>
      </trkpt>
      <trkpt lat="43.65397" lon="7.12019">
        <ele>109.19999694824</ele>
        <time>2022-04-12T07:48:50.000Z</time>
      </trkpt>
      <trkpt lat="43.65397" lon="7.12012">
        <ele>109.80000305176</ele>
        <time>2022-04-12T07:48:53.000Z</time>
      </trkpt>
      <trkpt lat="43.65399" lon="7.12008">
        <ele>110.19999694824</ele>
        <time>2022-04-12T07:48:55.000Z</time>
      </trkpt>
      <trkpt lat="43.65398" lon="7.12003">
        <ele>111.19999694824</ele>
        <time>2022-04-12T07:48:57.000Z</time>
      </trkpt>
      <trkpt lat="43.65397" lon="7.12001">
        <ele>111.40000152588</ele>
        <time>2022-04-12T07:48:58.000Z</time>
      </trkpt>
      <trkpt lat="43.65393" lon="7.11992">
        <ele>111.80000305176</ele>
        <time>2022-04-12T07:49:01.000Z</time>
      </trkpt>
      <trkpt lat="43.65392" lon="7.11989">
        <ele>112</ele>
        <time>2022-04-12T07:49:02.000Z</time>
      </trkpt>
      <trkpt lat="43.65392" lon="7.11974">
        <ele>112</ele>
        <time>2022-04-12T07:49:07.000Z</time>
      </trkpt>
      <trkpt lat="43.65396" lon="7.11964">
        <ele>111.19999694824</ele>
        <time>2022-04-12T07:49:12.000Z</time>
      </trkpt>
      <trkpt lat="43.65396" lon="7.11951">
        <ele>110.40000152588</ele>
        <time>2022-04-12T07:49:16.000Z</time>
      </trkpt>
      <trkpt lat="43.65395" lon="7.11942">
        <ele>109.40000152588</ele>
        <time>2022-04-12T07:49:18.000Z</time>
      </trkpt>
      <trkpt lat="43.65392" lon="7.11931">
        <ele>108.19999694824</ele>
        <time>2022-04-12T07:49:20.000Z</time>
      </trkpt>
      <trkpt lat="43.65392" lon="7.11921">
        <ele>106.80000305176</ele>
        <time>2022-04-12T07:49:22.000Z</time>
      </trkpt>
      <trkpt lat="43.65394" lon="7.11913">
        <ele>105.59999847412</ele>
        <time>2022-04-12T07:49:24.000Z</time>
      </trkpt>
      <trkpt lat="43.65394" lon="7.11909">
        <ele>105.19999694824</ele>
        <time>2022-04-12T07:49:25.000Z</time>
      </trkpt>
      <trkpt lat="43.65394" lon="7.11889">
        <ele>104.80000305176</ele>
        <time>2022-04-12T07:49:29.000Z</time>
      </trkpt>
      <trkpt lat="43.65394" lon="7.11883">
        <ele>104.40000152588</ele>
        <time>2022-04-12T07:49:30.000Z</time>
      </trkpt>
      <trkpt lat="43.65394" lon="7.11877">
        <ele>104</ele>
        <time>2022-04-12T07:49:31.000Z</time>
      </trkpt>
      <trkpt lat="43.65397" lon="7.11866">
        <ele>103</ele>
        <time>2022-04-12T07:49:33.000Z</time>
      </trkpt>
      <trkpt lat="43.65399" lon="7.11851">
        <ele>102</ele>
        <time>2022-04-12T07:49:36.000Z</time>
      </trkpt>
      <trkpt lat="43.65401" lon="7.11846">
        <ele>101.59999847412</ele>
        <time>2022-04-12T07:49:37.000Z</time>
      </trkpt>
      <trkpt lat="43.65405" lon="7.11831">
        <ele>101.19999694824</ele>
        <time>2022-04-12T07:49:41.000Z</time>
      </trkpt>
      <trkpt lat="43.6541" lon="7.11816">
        <ele>102.19999694824</ele>
        <time>2022-04-12T07:49:46.000Z</time>
      </trkpt>
      <trkpt lat="43.6541" lon="7.11813">
        <ele>102.59999847412</ele>
        <time>2022-04-12T07:49:50.000Z</time>
      </trkpt>
      <trkpt lat="43.6541" lon="7.11813">
        <ele>102.40000152588</ele>
        <time>2022-04-12T07:50:11.000Z</time>
      </trkpt>
      <trkpt lat="43.65409" lon="7.11812">
        <ele>102.40000152588</ele>
        <time>2022-04-12T07:50:31.000Z</time>
      </trkpt>
      <trkpt lat="43.65407" lon="7.11797">
        <ele>102.19999694824</ele>
        <time>2022-04-12T07:50:35.000Z</time>
      </trkpt>
      <trkpt lat="43.65407" lon="7.11793">
        <ele>102</ele>
        <time>2022-04-12T07:50:36.000Z</time>
      </trkpt>
      <trkpt lat="43.65407" lon="7.11782">
        <ele>100.80000305176</ele>
        <time>2022-04-12T07:50:38.000Z</time>
      </trkpt>
      <trkpt lat="43.65409" lon="7.11771">
        <ele>99.599998474121</ele>
        <time>2022-04-12T07:50:40.000Z</time>
      </trkpt>
      <trkpt lat="43.65416" lon="7.1176">
        <ele>97.800003051758</ele>
        <time>2022-04-12T07:50:43.000Z</time>
      </trkpt>
      <trkpt lat="43.65419" lon="7.11749">
        <ele>96.400001525879</ele>
        <time>2022-04-12T07:50:45.000Z</time>
      </trkpt>
      <trkpt lat="43.65422" lon="7.11745">
        <ele>95.800003051758</ele>
        <time>2022-04-12T07:50:46.000Z</time>
      </trkpt>
      <trkpt lat="43.65424" lon="7.1174">
        <ele>94.800003051758</ele>
        <time>2022-04-12T07:50:47.000Z</time>
      </trkpt>
      <trkpt lat="43.65428" lon="7.11729">
        <ele>93.599998474121</ele>
        <time>2022-04-12T07:50:49.000Z</time>
      </trkpt>
      <trkpt lat="43.65429" lon="7.11725">
        <ele>93.199996948242</ele>
        <time>2022-04-12T07:50:50.000Z</time>
      </trkpt>
      <trkpt lat="43.65429" lon="7.11714">
        <ele>92.400001525879</ele>
        <time>2022-04-12T07:50:53.000Z</time>
      </trkpt>
      <trkpt lat="43.65428" lon="7.1171">
        <ele>92.599998474121</ele>
        <time>2022-04-12T07:50:54.000Z</time>
      </trkpt>
      <trkpt lat="43.65427" lon="7.11706">
        <ele>93</ele>
        <time>2022-04-12T07:50:55.000Z</time>
      </trkpt>
      <trkpt lat="43.65428" lon="7.1169">
        <ele>93.400001525879</ele>
        <time>2022-04-12T07:50:58.000Z</time>
      </trkpt>
      <trkpt lat="43.65431" lon="7.11674">
        <ele>92.599998474121</ele>
        <time>2022-04-12T07:51:01.000Z</time>
      </trkpt>
      <trkpt lat="43.65435" lon="7.11665">
        <ele>92.199996948242</ele>
        <time>2022-04-12T07:51:03.000Z</time>
      </trkpt>
      <trkpt lat="43.65436" lon="7.11643">
        <ele>91.199996948242</ele>
        <time>2022-04-12T07:51:07.000Z</time>
      </trkpt>
      <trkpt lat="43.65441" lon="7.11632">
        <ele>90.400001525879</ele>
        <time>2022-04-12T07:51:10.000Z</time>
      </trkpt>
      <trkpt lat="43.65442" lon="7.11628">
        <ele>90</ele>
        <time>2022-04-12T07:51:11.000Z</time>
      </trkpt>
      <trkpt lat="43.65449" lon="7.11616">
        <ele>89.599998474121</ele>
        <time>2022-04-12T07:51:14.000Z</time>
      </trkpt>
      <trkpt lat="43.65451" lon="7.11612">
        <ele>89.599998474121</ele>
        <time>2022-04-12T07:51:15.000Z</time>
      </trkpt>
      <trkpt lat="43.65456" lon="7.11598">
        <ele>89</ele>
        <time>2022-04-12T07:51:18.000Z</time>
      </trkpt>
      <trkpt lat="43.65458" lon="7.11594">
        <ele>88.800003051758</ele>
        <time>2022-04-12T07:51:19.000Z</time>
      </trkpt>
      <trkpt lat="43.65461" lon="7.1158">
        <ele>87.400001525879</ele>
        <time>2022-04-12T07:51:22.000Z</time>
      </trkpt>
      <trkpt lat="43.65464" lon="7.11565">
        <ele>86.599998474121</ele>
        <time>2022-04-12T07:51:25.000Z</time>
      </trkpt>
      <trkpt lat="43.6547" lon="7.11548">
        <ele>86.599998474121</ele>
        <time>2022-04-12T07:51:28.000Z</time>
      </trkpt>
      <trkpt lat="43.65473" lon="7.11535">
        <ele>86.400001525879</ele>
        <time>2022-04-12T07:51:30.000Z</time>
      </trkpt>
      <trkpt lat="43.65478" lon="7.11516">
        <ele>86.599998474121</ele>
        <time>2022-04-12T07:51:33.000Z</time>
      </trkpt>
      <trkpt lat="43.65482" lon="7.11505">
        <ele>86.599998474121</ele>
        <time>2022-04-12T07:51:35.000Z</time>
      </trkpt>
      <trkpt lat="43.65486" lon="7.1149">
        <ele>87</ele>
        <time>2022-04-12T07:51:38.000Z</time>
      </trkpt>
      <trkpt lat="43.6549" lon="7.11482">
        <ele>87.599998474121</ele>
        <time>2022-04-12T07:51:40.000Z</time>
      </trkpt>
      <trkpt lat="43.65492" lon="7.11469">
        <ele>88.599998474121</ele>
        <time>2022-04-12T07:51:43.000Z</time>
      </trkpt>
      <trkpt lat="43.65492" lon="7.11464">
        <ele>88.800003051758</ele>
        <time>2022-04-12T07:51:44.000Z</time>
      </trkpt>
      <trkpt lat="43.65489" lon="7.11449">
        <ele>89.800003051758</ele>
        <time>2022-04-12T07:51:48.000Z</time>
      </trkpt>
      <trkpt lat="43.65485" lon="7.11432">
        <ele>90.199996948242</ele>
        <time>2022-04-12T07:51:52.000Z</time>
      </trkpt>
      <trkpt lat="43.65488" lon="7.11421">
        <ele>90.400001525879</ele>
        <time>2022-04-12T07:51:55.000Z</time>
      </trkpt>
      <trkpt lat="43.65495" lon="7.11403">
        <ele>90.599998474121</ele>
        <time>2022-04-12T07:51:59.000Z</time>
      </trkpt>
      <trkpt lat="43.65497" lon="7.11389">
        <ele>90.800003051758</ele>
        <time>2022-04-12T07:52:03.000Z</time>
      </trkpt>
      <trkpt lat="43.65497" lon="7.11384">
        <ele>91.599998474121</ele>
        <time>2022-04-12T07:52:05.000Z</time>
      </trkpt>
      <trkpt lat="43.65498" lon="7.11381">
        <ele>92.199996948242</ele>
        <time>2022-04-12T07:52:06.000Z</time>
      </trkpt>
      <trkpt lat="43.65498" lon="7.11374">
        <ele>93</ele>
        <time>2022-04-12T07:52:09.000Z</time>
      </trkpt>
      <trkpt lat="43.65498" lon="7.11375">
        <ele>93.199996948242</ele>
        <time>2022-04-12T07:52:10.000Z</time>
      </trkpt>
      <trkpt lat="43.65498" lon="7.11374">
        <ele>93.599998474121</ele>
        <time>2022-04-12T07:52:13.000Z</time>
      </trkpt>
      <trkpt lat="43.65498" lon="7.11375">
        <ele>93.800003051758</ele>
        <time>2022-04-12T07:52:33.000Z</time>
      </trkpt>
      <trkpt lat="43.65496" lon="7.11372">
        <ele>93.800003051758</ele>
        <time>2022-04-12T07:52:51.000Z</time>
      </trkpt>
      <trkpt lat="43.65495" lon="7.1137">
        <ele>93.800003051758</ele>
        <time>2022-04-12T07:52:52.000Z</time>
      </trkpt>
      <trkpt lat="43.65492" lon="7.11354">
        <ele>93.599998474121</ele>
        <time>2022-04-12T07:52:56.000Z</time>
      </trkpt>
      <trkpt lat="43.65491" lon="7.11348">
        <ele>93.400001525879</ele>
        <time>2022-04-12T07:52:57.000Z</time>
      </trkpt>
      <trkpt lat="43.65487" lon="7.11341">
        <ele>92.599998474121</ele>
        <time>2022-04-12T07:52:59.000Z</time>
      </trkpt>
      <trkpt lat="43.65484" lon="7.11337">
        <ele>92.199996948242</ele>
        <time>2022-04-12T07:53:00.000Z</time>
      </trkpt>
      <trkpt lat="43.65481" lon="7.11336">
        <ele>92</ele>
        <time>2022-04-12T07:53:01.000Z</time>
      </trkpt>
      <trkpt lat="43.65468" lon="7.11332">
        <ele>91.400001525879</ele>
        <time>2022-04-12T07:53:04.000Z</time>
      </trkpt>
      <trkpt lat="43.65457" lon="7.1132">
        <ele>91.400001525879</ele>
        <time>2022-04-12T07:53:08.000Z</time>
      </trkpt>
      <trkpt lat="43.65451" lon="7.11315">
        <ele>91.599998474121</ele>
        <time>2022-04-12T07:53:11.000Z</time>
      </trkpt>
      <trkpt lat="43.65442" lon="7.11307">
        <ele>91.800003051758</ele>
        <time>2022-04-12T07:53:15.000Z</time>
      </trkpt>
      <trkpt lat="43.65432" lon="7.11297">
        <ele>92.599998474121</ele>
        <time>2022-04-12T07:53:19.000Z</time>
      </trkpt>
      <trkpt lat="43.65431" lon="7.11291">
        <ele>93</ele>
        <time>2022-04-12T07:53:21.000Z</time>
      </trkpt>
      <trkpt lat="43.6543" lon="7.11287">
        <ele>93.199996948242</ele>
        <time>2022-04-12T07:53:22.000Z</time>
      </trkpt>
      <trkpt lat="43.6543" lon="7.11281">
        <ele>93.400001525879</ele>
        <time>2022-04-12T07:53:23.000Z</time>
      </trkpt>
      <trkpt lat="43.65426" lon="7.11258">
        <ele>94</ele>
        <time>2022-04-12T07:53:28.000Z</time>
      </trkpt>
      <trkpt lat="43.65425" lon="7.11255">
        <ele>94</ele>
        <time>2022-04-12T07:53:29.000Z</time>
      </trkpt>
      <trkpt lat="43.65419" lon="7.11243">
        <ele>94.800003051758</ele>
        <time>2022-04-12T07:53:32.000Z</time>
      </trkpt>
      <trkpt lat="43.65415" lon="7.11238">
        <ele>95.199996948242</ele>
        <time>2022-04-12T07:53:34.000Z</time>
      </trkpt>
      <trkpt lat="43.65411" lon="7.11232">
        <ele>95.599998474121</ele>
        <time>2022-04-12T07:53:36.000Z</time>
      </trkpt>
      <trkpt lat="43.65403" lon="7.11219">
        <ele>96</ele>
        <time>2022-04-12T07:53:40.000Z</time>
      </trkpt>
      <trkpt lat="43.65402" lon="7.11216">
        <ele>96.199996948242</ele>
        <time>2022-04-12T07:53:41.000Z</time>
      </trkpt>
      <trkpt lat="43.65402" lon="7.11206">
        <ele>96.599998474121</ele>
        <time>2022-04-12T07:53:44.000Z</time>
      </trkpt>
      <trkpt lat="43.65402" lon="7.112">
        <ele>96</ele>
        <time>2022-04-12T07:53:47.000Z</time>
      </trkpt>
      <trkpt lat="43.65403" lon="7.11199">
        <ele>95.599998474121</ele>
        <time>2022-04-12T07:53:49.000Z</time>
      </trkpt>
      <trkpt lat="43.65404" lon="7.11194">
        <ele>96.199996948242</ele>
        <time>2022-04-12T07:53:52.000Z</time>
      </trkpt>
      <trkpt lat="43.65405" lon="7.11193">
        <ele>97.400001525879</ele>
        <time>2022-04-12T07:53:55.000Z</time>
      </trkpt>
      <trkpt lat="43.65405" lon="7.11192">
        <ele>97.599998474121</ele>
        <time>2022-04-12T07:53:56.000Z</time>
      </trkpt>
      <trkpt lat="43.65404" lon="7.11188">
        <ele>98.400001525879</ele>
        <time>2022-04-12T07:54:01.000Z</time>
      </trkpt>
      <trkpt lat="43.65404" lon="7.11184">
        <ele>99.400001525879</ele>
        <time>2022-04-12T07:54:06.000Z</time>
      </trkpt>
      <trkpt lat="43.65404" lon="7.11183">
        <ele>99.599998474121</ele>
        <time>2022-04-12T07:54:07.000Z</time>
      </trkpt>
      <trkpt lat="43.65404" lon="7.11183">
        <ele>99.800003051758</ele>
        <time>2022-04-12T07:54:15.000Z</time>
      </trkpt>
      <trkpt lat="43.65404" lon="7.11182">
        <ele>100</ele>
        <time>2022-04-12T07:54:25.000Z</time>
      </trkpt>
      <trkpt lat="43.65404" lon="7.11175">
        <ele>100</ele>
        <time>2022-04-12T07:54:33.000Z</time>
      </trkpt>
      <trkpt lat="43.65404" lon="7.11174">
        <ele>100.80000305176</ele>
        <time>2022-04-12T07:54:37.000Z</time>
      </trkpt>
      <trkpt lat="43.65404" lon="7.11173">
        <ele>101</ele>
        <time>2022-04-12T07:54:38.000Z</time>
      </trkpt>
      <trkpt lat="43.65405" lon="7.11167">
        <ele>101.19999694824</ele>
        <time>2022-04-12T07:54:42.000Z</time>
      </trkpt>
      <trkpt lat="43.65405" lon="7.11166">
        <ele>101</ele>
        <time>2022-04-12T07:54:43.000Z</time>
      </trkpt>
      <trkpt lat="43.65405" lon="7.11165">
        <ele>102</ele>
        <time>2022-04-12T07:54:46.000Z</time>
      </trkpt>
      <trkpt lat="43.65405" lon="7.11163">
        <ele>102.59999847412</ele>
        <time>2022-04-12T07:54:48.000Z</time>
      </trkpt>
      <trkpt lat="43.65405" lon="7.11159">
        <ele>103</ele>
        <time>2022-04-12T07:54:53.000Z</time>
      </trkpt>
      <trkpt lat="43.65405" lon="7.11158">
        <ele>103.40000152588</ele>
        <time>2022-04-12T07:54:54.000Z</time>
      </trkpt>
      <trkpt lat="43.65405" lon="7.11155">
        <ele>104.19999694824</ele>
        <time>2022-04-12T07:54:58.000Z</time>
      </trkpt>
      <trkpt lat="43.65405" lon="7.11154">
        <ele>104.59999847412</ele>
        <time>2022-04-12T07:55:01.000Z</time>
      </trkpt>
      <trkpt lat="43.65406" lon="7.11149">
        <ele>105.19999694824</ele>
        <time>2022-04-12T07:55:05.000Z</time>
      </trkpt>
      <trkpt lat="43.65406" lon="7.11147">
        <ele>105.40000152588</ele>
        <time>2022-04-12T07:55:08.000Z</time>
      </trkpt>
      <trkpt lat="43.65405" lon="7.11142">
        <ele>106</ele>
        <time>2022-04-12T07:55:14.000Z</time>
      </trkpt>
      <trkpt lat="43.65405" lon="7.11134">
        <ele>106.59999847412</ele>
        <time>2022-04-12T07:55:17.000Z</time>
      </trkpt>
      <trkpt lat="43.65404" lon="7.11127">
        <ele>107.80000305176</ele>
        <time>2022-04-12T07:55:20.000Z</time>
      </trkpt>
      <trkpt lat="43.65397" lon="7.11127">
        <ele>108.19999694824</ele>
        <time>2022-04-12T07:55:24.000Z</time>
      </trkpt>
      <trkpt lat="43.65391" lon="7.11127">
        <ele>109.19999694824</ele>
        <time>2022-04-12T07:55:27.000Z</time>
      </trkpt>
      <trkpt lat="43.65389" lon="7.11132">
        <ele>110.19999694824</ele>
        <time>2022-04-12T07:55:29.000Z</time>
      </trkpt>
      <trkpt lat="43.65387" lon="7.11137">
        <ele>111.40000152588</ele>
        <time>2022-04-12T07:55:31.000Z</time>
      </trkpt>
      <trkpt lat="43.65382" lon="7.11143">
        <ele>112.19999694824</ele>
        <time>2022-04-12T07:55:34.000Z</time>
      </trkpt>
      <trkpt lat="43.65379" lon="7.11146">
        <ele>112.59999847412</ele>
        <time>2022-04-12T07:55:36.000Z</time>
      </trkpt>
      <trkpt lat="43.65372" lon="7.11151">
        <ele>113.40000152588</ele>
        <time>2022-04-12T07:55:40.000Z</time>
      </trkpt>
      <trkpt lat="43.6537" lon="7.11149">
        <ele>113.59999847412</ele>
        <time>2022-04-12T07:55:43.000Z</time>
      </trkpt>
      <trkpt lat="43.65369" lon="7.11148">
        <ele>114.80000305176</ele>
        <time>2022-04-12T07:55:46.000Z</time>
      </trkpt>
      <trkpt lat="43.65368" lon="7.11147">
        <ele>115.80000305176</ele>
        <time>2022-04-12T07:55:52.000Z</time>
      </trkpt>
      <trkpt lat="43.65367" lon="7.11147">
        <ele>116</ele>
        <time>2022-04-12T07:55:53.000Z</time>
      </trkpt>
      <trkpt lat="43.65366" lon="7.11145">
        <ele>116.40000152588</ele>
        <time>2022-04-12T07:55:57.000Z</time>
      </trkpt>
      <trkpt lat="43.65365" lon="7.11143">
        <ele>117</ele>
        <time>2022-04-12T07:56:01.000Z</time>
      </trkpt>
      <trkpt lat="43.65364" lon="7.11143">
        <ele>117.40000152588</ele>
        <time>2022-04-12T07:56:04.000Z</time>
      </trkpt>
      <trkpt lat="43.65362" lon="7.11143">
        <ele>117.59999847412</ele>
        <time>2022-04-12T07:56:09.000Z</time>
      </trkpt>
      <trkpt lat="43.65362" lon="7.11142">
        <ele>117.59999847412</ele>
        <time>2022-04-12T07:56:10.000Z</time>
      </trkpt>
      <trkpt lat="43.65361" lon="7.11142">
        <ele>118.19999694824</ele>
        <time>2022-04-12T07:56:15.000Z</time>
      </trkpt>
      <trkpt lat="43.6536" lon="7.11142">
        <ele>118.40000152588</ele>
        <time>2022-04-12T07:56:17.000Z</time>
      </trkpt>
      <trkpt lat="43.65359" lon="7.11142">
        <ele>119</ele>
        <time>2022-04-12T07:56:24.000Z</time>
      </trkpt>
      <trkpt lat="43.65356" lon="7.11142">
        <ele>119</ele>
        <time>2022-04-12T07:56:29.000Z</time>
      </trkpt>
      <trkpt lat="43.65355" lon="7.11142">
        <ele>119</ele>
        <time>2022-04-12T07:56:30.000Z</time>
      </trkpt>
      <trkpt lat="43.65353" lon="7.11143">
        <ele>119.40000152588</ele>
        <time>2022-04-12T07:56:32.000Z</time>
      </trkpt>
      <trkpt lat="43.65349" lon="7.11145">
        <ele>119.80000305176</ele>
        <time>2022-04-12T07:56:34.000Z</time>
      </trkpt>
      <trkpt lat="43.65345" lon="7.11148">
        <ele>120.40000152588</ele>
        <time>2022-04-12T07:56:37.000Z</time>
      </trkpt>
      <trkpt lat="43.65343" lon="7.11148">
        <ele>120.59999847412</ele>
        <time>2022-04-12T07:56:38.000Z</time>
      </trkpt>
      <trkpt lat="43.65339" lon="7.11151">
        <ele>121.40000152588</ele>
        <time>2022-04-12T07:56:40.000Z</time>
      </trkpt>
      <trkpt lat="43.65337" lon="7.11152">
        <ele>122</ele>
        <time>2022-04-12T07:56:41.000Z</time>
      </trkpt>
      <trkpt lat="43.6533" lon="7.11155">
        <ele>123</ele>
        <time>2022-04-12T07:56:44.000Z</time>
      </trkpt>
      <trkpt lat="43.65325" lon="7.11154">
        <ele>123.40000152588</ele>
        <time>2022-04-12T07:56:46.000Z</time>
      </trkpt>
      <trkpt lat="43.65323" lon="7.11153">
        <ele>123.59999847412</ele>
        <time>2022-04-12T07:56:47.000Z</time>
      </trkpt>
      <trkpt lat="43.65319" lon="7.11151">
        <ele>124.19999694824</ele>
        <time>2022-04-12T07:56:49.000Z</time>
      </trkpt>
      <trkpt lat="43.65318" lon="7.11151">
        <ele>125.19999694824</ele>
        <time>2022-04-12T07:56:51.000Z</time>
      </trkpt>
      <trkpt lat="43.65318" lon="7.11151">
        <ele>125.59999847412</ele>
        <time>2022-04-12T07:56:52.000Z</time>
      </trkpt>
      <trkpt lat="43.65316" lon="7.11148">
        <ele>126.59999847412</ele>
        <time>2022-04-12T07:56:57.000Z</time>
      </trkpt>
      <trkpt lat="43.65316" lon="7.11144">
        <ele>127.59999847412</ele>
        <time>2022-04-12T07:57:03.000Z</time>
      </trkpt>
      <trkpt lat="43.65316" lon="7.11143">
        <ele>127.80000305176</ele>
        <time>2022-04-12T07:57:04.000Z</time>
      </trkpt>
      <trkpt lat="43.65317" lon="7.11142">
        <ele>128.19999694824</ele>
        <time>2022-04-12T07:57:11.000Z</time>
      </trkpt>
      <trkpt lat="43.65315" lon="7.11135">
        <ele>128.39999389648</ele>
        <time>2022-04-12T07:57:15.000Z</time>
      </trkpt>
      <trkpt lat="43.65314" lon="7.11134">
        <ele>128.60000610352</ele>
        <time>2022-04-12T07:57:16.000Z</time>
      </trkpt>
      <trkpt lat="43.65311" lon="7.11128">
        <ele>129.60000610352</ele>
        <time>2022-04-12T07:57:19.000Z</time>
      </trkpt>
      <trkpt lat="43.65311" lon="7.11122">
        <ele>130.39999389648</ele>
        <time>2022-04-12T07:57:21.000Z</time>
      </trkpt>
      <trkpt lat="43.65311" lon="7.1112">
        <ele>131</ele>
        <time>2022-04-12T07:57:22.000Z</time>
      </trkpt>
      <trkpt lat="43.65311" lon="7.11119">
        <ele>131.60000610352</ele>
        <time>2022-04-12T07:57:24.000Z</time>
      </trkpt>
      <trkpt lat="43.6531" lon="7.11118">
        <ele>132.19999694824</ele>
        <time>2022-04-12T07:57:25.000Z</time>
      </trkpt>
      <trkpt lat="43.65309" lon="7.11115">
        <ele>133</ele>
        <time>2022-04-12T07:57:33.000Z</time>
      </trkpt>
      <trkpt lat="43.65308" lon="7.11114">
        <ele>133.19999694824</ele>
        <time>2022-04-12T07:57:34.000Z</time>
      </trkpt>
      <trkpt lat="43.65307" lon="7.11114">
        <ele>134</ele>
        <time>2022-04-12T07:57:39.000Z</time>
      </trkpt>
      <trkpt lat="43.65306" lon="7.11115">
        <ele>134.19999694824</ele>
        <time>2022-04-12T07:57:42.000Z</time>
      </trkpt>
      <trkpt lat="43.65306" lon="7.11116">
        <ele>134.19999694824</ele>
        <time>2022-04-12T07:57:43.000Z</time>
      </trkpt>
      <trkpt lat="43.65307" lon="7.11116">
        <ele>134.19999694824</ele>
        <time>2022-04-12T07:57:44.000Z</time>
      </trkpt>
      <trkpt lat="43.65305" lon="7.1112">
        <ele>134</ele>
        <time>2022-04-12T07:57:51.000Z</time>
      </trkpt>
      <trkpt lat="43.65305" lon="7.11119">
        <ele>134.60000610352</ele>
        <time>2022-04-12T07:58:13.000Z</time>
      </trkpt>
      <trkpt lat="43.65306" lon="7.11117">
        <ele>134.60000610352</ele>
        <time>2022-04-12T07:58:22.000Z</time>
      </trkpt>
      <trkpt lat="43.65306" lon="7.11117">
        <ele>134.60000610352</ele>
        <time>2022-04-12T07:58:30.000Z</time>
      </trkpt>
      <trkpt lat="43.65306" lon="7.11114">
        <ele>134.19999694824</ele>
        <time>2022-04-12T07:58:37.000Z</time>
      </trkpt>
      <trkpt lat="43.65306" lon="7.11114">
        <ele>134.39999389648</ele>
        <time>2022-04-12T07:58:47.000Z</time>
      </trkpt>
      <trkpt lat="43.65306" lon="7.11114">
        <ele>134.60000610352</ele>
        <time>2022-04-12T07:58:53.000Z</time>
      </trkpt>
      <trkpt lat="43.65307" lon="7.11113">
        <ele>134.80000305176</ele>
        <time>2022-04-12T07:59:07.000Z</time>
      </trkpt>
      <trkpt lat="43.65307" lon="7.11114">
        <ele>135</ele>
        <time>2022-04-12T07:59:35.000Z</time>
      </trkpt>
      <trkpt lat="43.65307" lon="7.11114">
        <ele>135</ele>
        <time>2022-04-12T07:59:48.000Z</time>
      </trkpt>
      <trkpt lat="43.65306" lon="7.11109">
        <ele>135</ele>
        <time>2022-04-12T07:59:56.000Z</time>
      </trkpt>
      <trkpt lat="43.65304" lon="7.11107">
        <ele>135</ele>
        <time>2022-04-12T07:59:57.000Z</time>
      </trkpt>
      <trkpt lat="43.65301" lon="7.11101">
        <ele>135.39999389648</ele>
        <time>2022-04-12T07:59:59.000Z</time>
      </trkpt>
      <trkpt lat="43.65296" lon="7.11088">
        <ele>136.60000610352</ele>
        <time>2022-04-12T08:00:03.000Z</time>
      </trkpt>
      <trkpt lat="43.65294" lon="7.11084">
        <ele>137.19999694824</ele>
        <time>2022-04-12T08:00:04.000Z</time>
      </trkpt>
      <trkpt lat="43.65294" lon="7.11082">
        <ele>137.60000610352</ele>
        <time>2022-04-12T08:00:05.000Z</time>
      </trkpt>
      <trkpt lat="43.65291" lon="7.11077">
        <ele>139</ele>
        <time>2022-04-12T08:00:07.000Z</time>
      </trkpt>
      <trkpt lat="43.65289" lon="7.11076">
        <ele>139.39999389648</ele>
        <time>2022-04-12T08:00:08.000Z</time>
      </trkpt>
      <trkpt lat="43.65288" lon="7.11073">
        <ele>140</ele>
        <time>2022-04-12T08:00:09.000Z</time>
      </trkpt>
      <trkpt lat="43.65286" lon="7.11068">
        <ele>141.39999389648</ele>
        <time>2022-04-12T08:00:11.000Z</time>
      </trkpt>
      <trkpt lat="43.65284" lon="7.11068">
        <ele>141.80000305176</ele>
        <time>2022-04-12T08:00:12.000Z</time>
      </trkpt>
      <trkpt lat="43.65283" lon="7.11067">
        <ele>142.60000610352</ele>
        <time>2022-04-12T08:00:13.000Z</time>
      </trkpt>
      <trkpt lat="43.65283" lon="7.11068">
        <ele>143.80000305176</ele>
        <time>2022-04-12T08:00:16.000Z</time>
      </trkpt>
      <trkpt lat="43.65281" lon="7.1107">
        <ele>144.80000305176</ele>
        <time>2022-04-12T08:00:20.000Z</time>
      </trkpt>
      <trkpt lat="43.6528" lon="7.1107">
        <ele>144.80000305176</ele>
        <time>2022-04-12T08:00:21.000Z</time>
      </trkpt>
      <trkpt lat="43.65279" lon="7.11069">
        <ele>145</ele>
        <time>2022-04-12T08:00:22.000Z</time>
      </trkpt>
      <trkpt lat="43.65274" lon="7.11067">
        <ele>145.80000305176</ele>
        <time>2022-04-12T08:00:25.000Z</time>
      </trkpt>
      <trkpt lat="43.65273" lon="7.11067">
        <ele>146</ele>
        <time>2022-04-12T08:00:26.000Z</time>
      </trkpt>
      <trkpt lat="43.65271" lon="7.11067">
        <ele>147.39999389648</ele>
        <time>2022-04-12T08:00:30.000Z</time>
      </trkpt>
      <trkpt lat="43.65269" lon="7.11067">
        <ele>148.60000610352</ele>
        <time>2022-04-12T08:00:33.000Z</time>
      </trkpt>
      <trkpt lat="43.65268" lon="7.11068">
        <ele>148.80000305176</ele>
        <time>2022-04-12T08:00:36.000Z</time>
      </trkpt>
      <trkpt lat="43.65267" lon="7.11067">
        <ele>149.39999389648</ele>
        <time>2022-04-12T08:00:41.000Z</time>
      </trkpt>
      <trkpt lat="43.65267" lon="7.11067">
        <ele>149.80000305176</ele>
        <time>2022-04-12T08:00:43.000Z</time>
      </trkpt>
      <trkpt lat="43.65266" lon="7.11065">
        <ele>149.80000305176</ele>
        <time>2022-04-12T08:00:51.000Z</time>
      </trkpt>
      <trkpt lat="43.65263" lon="7.11063">
        <ele>149.80000305176</ele>
        <time>2022-04-12T08:00:53.000Z</time>
      </trkpt>
      <trkpt lat="43.65261" lon="7.11063">
        <ele>150</ele>
        <time>2022-04-12T08:00:55.000Z</time>
      </trkpt>
      <trkpt lat="43.6526" lon="7.11064">
        <ele>151</ele>
        <time>2022-04-12T08:00:58.000Z</time>
      </trkpt>
      <trkpt lat="43.6526" lon="7.11063">
        <ele>151.60000610352</ele>
        <time>2022-04-12T08:01:02.000Z</time>
      </trkpt>
      <trkpt lat="43.65254" lon="7.11059">
        <ele>151.80000305176</ele>
        <time>2022-04-12T08:01:06.000Z</time>
      </trkpt>
      <trkpt lat="43.65251" lon="7.1106">
        <ele>152.19999694824</ele>
        <time>2022-04-12T08:01:07.000Z</time>
      </trkpt>
      <trkpt lat="43.65248" lon="7.11053">
        <ele>153.80000305176</ele>
        <time>2022-04-12T08:01:10.000Z</time>
      </trkpt>
      <trkpt lat="43.65241" lon="7.11046">
        <ele>155</ele>
        <time>2022-04-12T08:01:14.000Z</time>
      </trkpt>
      <trkpt lat="43.65233" lon="7.1104">
        <ele>156.39999389648</ele>
        <time>2022-04-12T08:01:18.000Z</time>
      </trkpt>
      <trkpt lat="43.65227" lon="7.11036">
        <ele>157.39999389648</ele>
        <time>2022-04-12T08:01:21.000Z</time>
      </trkpt>
      <trkpt lat="43.65225" lon="7.11034">
        <ele>157.80000305176</ele>
        <time>2022-04-12T08:01:22.000Z</time>
      </trkpt>
      <trkpt lat="43.65219" lon="7.11032">
        <ele>159.19999694824</ele>
        <time>2022-04-12T08:01:25.000Z</time>
      </trkpt>
      <trkpt lat="43.65215" lon="7.11029">
        <ele>159.80000305176</ele>
        <time>2022-04-12T08:01:27.000Z</time>
      </trkpt>
      <trkpt lat="43.6521" lon="7.11025">
        <ele>160.39999389648</ele>
        <time>2022-04-12T08:01:29.000Z</time>
      </trkpt>
      <trkpt lat="43.65205" lon="7.1102">
        <ele>161.39999389648</ele>
        <time>2022-04-12T08:01:32.000Z</time>
      </trkpt>
      <trkpt lat="43.65205" lon="7.11017">
        <ele>161.80000305176</ele>
        <time>2022-04-12T08:01:33.000Z</time>
      </trkpt>
      <trkpt lat="43.65204" lon="7.11015">
        <ele>162.39999389648</ele>
        <time>2022-04-12T08:01:34.000Z</time>
      </trkpt>
      <trkpt lat="43.65198" lon="7.11009">
        <ele>163.60000610352</ele>
        <time>2022-04-12T08:01:37.000Z</time>
      </trkpt>
      <trkpt lat="43.65194" lon="7.11001">
        <ele>164.80000305176</ele>
        <time>2022-04-12T08:01:41.000Z</time>
      </trkpt>
      <trkpt lat="43.65194" lon="7.10998">
        <ele>165.19999694824</ele>
        <time>2022-04-12T08:01:42.000Z</time>
      </trkpt>
      <trkpt lat="43.65192" lon="7.10993">
        <ele>166</ele>
        <time>2022-04-12T08:01:45.000Z</time>
      </trkpt>
      <trkpt lat="43.65191" lon="7.10989">
        <ele>166.80000305176</ele>
        <time>2022-04-12T08:01:48.000Z</time>
      </trkpt>
      <trkpt lat="43.65191" lon="7.10986">
        <ele>166.60000610352</ele>
        <time>2022-04-12T08:01:55.000Z</time>
      </trkpt>
      <trkpt lat="43.65191" lon="7.10986">
        <ele>166.39999389648</ele>
        <time>2022-04-12T08:02:19.000Z</time>
      </trkpt>
      <trkpt lat="43.65191" lon="7.10986">
        <ele>165.80000305176</ele>
        <time>2022-04-12T08:02:47.000Z</time>
      </trkpt>
      <trkpt lat="43.6519" lon="7.10986">
        <ele>166</ele>
        <time>2022-04-12T08:02:53.000Z</time>
      </trkpt>
      <trkpt lat="43.6519" lon="7.10987">
        <ele>165.39999389648</ele>
        <time>2022-04-12T08:03:17.000Z</time>
      </trkpt>
      <trkpt lat="43.65191" lon="7.10987">
        <ele>165.39999389648</ele>
        <time>2022-04-12T08:03:28.000Z</time>
      </trkpt>
      <trkpt lat="43.65191" lon="7.10987">
        <ele>165.39999389648</ele>
        <time>2022-04-12T08:03:47.000Z</time>
      </trkpt>
      <trkpt lat="43.65192" lon="7.10987">
        <ele>165</ele>
        <time>2022-04-12T08:04:14.000Z</time>
      </trkpt>
      <trkpt lat="43.65192" lon="7.10987">
        <ele>165</ele>
        <time>2022-04-12T08:04:30.000Z</time>
      </trkpt>
      <trkpt lat="43.65192" lon="7.10987">
        <ele>165</ele>
        <time>2022-04-12T08:04:34.000Z</time>
      </trkpt>
      <trkpt lat="43.65192" lon="7.10987">
        <ele>164.80000305176</ele>
        <time>2022-04-12T08:05:05.000Z</time>
      </trkpt>
      <trkpt lat="43.65192" lon="7.10987">
        <ele>164.80000305176</ele>
        <time>2022-04-12T08:05:29.000Z</time>
      </trkpt>
      <trkpt lat="43.65192" lon="7.10988">
        <ele>164.80000305176</ele>
        <time>2022-04-12T08:05:57.000Z</time>
      </trkpt>
      <trkpt lat="43.65192" lon="7.10988">
        <ele>165.19999694824</ele>
        <time>2022-04-12T08:06:23.000Z</time>
      </trkpt>
      <trkpt lat="43.65192" lon="7.10988">
        <ele>165.19999694824</ele>
        <time>2022-04-12T08:06:48.000Z</time>
      </trkpt>
      <trkpt lat="43.65192" lon="7.10988">
        <ele>165.39999389648</ele>
        <time>2022-04-12T08:07:13.000Z</time>
      </trkpt>
      <trkpt lat="43.65192" lon="7.10988">
        <ele>164.80000305176</ele>
        <time>2022-04-12T08:07:37.000Z</time>
      </trkpt>
      <trkpt lat="43.65191" lon="7.10988">
        <ele>164.80000305176</ele>
        <time>2022-04-12T08:08:06.000Z</time>
      </trkpt>
      <trkpt lat="43.65191" lon="7.10988">
        <ele>165.19999694824</ele>
        <time>2022-04-12T08:08:17.000Z</time>
      </trkpt>
      <trkpt lat="43.65191" lon="7.10988">
        <ele>165</ele>
        <time>2022-04-12T08:08:29.000Z</time>
      </trkpt>
      <trkpt lat="43.6519" lon="7.10985">
        <ele>164.80000305176</ele>
        <time>2022-04-12T08:08:36.000Z</time>
      </trkpt>
      <trkpt lat="43.65181" lon="7.10974">
        <ele>164.80000305176</ele>
        <time>2022-04-12T08:08:41.000Z</time>
      </trkpt>
      <trkpt lat="43.65178" lon="7.10968">
        <ele>164.80000305176</ele>
        <time>2022-04-12T08:08:43.000Z</time>
      </trkpt>
      <trkpt lat="43.65175" lon="7.10965">
        <ele>165</ele>
        <time>2022-04-12T08:08:45.000Z</time>
      </trkpt>
      <trkpt lat="43.65166" lon="7.10965">
        <ele>166</ele>
        <time>2022-04-12T08:08:49.000Z</time>
      </trkpt>
      <trkpt lat="43.65164" lon="7.10964">
        <ele>166.19999694824</ele>
        <time>2022-04-12T08:08:50.000Z</time>
      </trkpt>
      <trkpt lat="43.65154" lon="7.10958">
        <ele>166.80000305176</ele>
        <time>2022-04-12T08:08:55.000Z</time>
      </trkpt>
      <trkpt lat="43.65145" lon="7.10951">
        <ele>166</ele>
        <time>2022-04-12T08:09:00.000Z</time>
      </trkpt>
      <trkpt lat="43.65143" lon="7.10949">
        <ele>165.80000305176</ele>
        <time>2022-04-12T08:09:01.000Z</time>
      </trkpt>
      <trkpt lat="43.65142" lon="7.10945">
        <ele>165.19999694824</ele>
        <time>2022-04-12T08:09:02.000Z</time>
      </trkpt>
      <trkpt lat="43.6514" lon="7.10941">
        <ele>164.39999389648</ele>
        <time>2022-04-12T08:09:03.000Z</time>
      </trkpt>
      <trkpt lat="43.65141" lon="7.10936">
        <ele>163.60000610352</ele>
        <time>2022-04-12T08:09:04.000Z</time>
      </trkpt>
      <trkpt lat="43.65142" lon="7.10928">
        <ele>162.39999389648</ele>
        <time>2022-04-12T08:09:06.000Z</time>
      </trkpt>
      <trkpt lat="43.65138" lon="7.10913">
        <ele>160.80000305176</ele>
        <time>2022-04-12T08:09:09.000Z</time>
      </trkpt>
      <trkpt lat="43.65136" lon="7.10909">
        <ele>160.39999389648</ele>
        <time>2022-04-12T08:09:10.000Z</time>
      </trkpt>
      <trkpt lat="43.6513" lon="7.10905">
        <ele>159.80000305176</ele>
        <time>2022-04-12T08:09:12.000Z</time>
      </trkpt>
      <trkpt lat="43.65123" lon="7.10895">
        <ele>159.19999694824</ele>
        <time>2022-04-12T08:09:15.000Z</time>
      </trkpt>
      <trkpt lat="43.65117" lon="7.1088">
        <ele>159.39999389648</ele>
        <time>2022-04-12T08:09:18.000Z</time>
      </trkpt>
      <trkpt lat="43.65115" lon="7.10874">
        <ele>159.19999694824</ele>
        <time>2022-04-12T08:09:19.000Z</time>
      </trkpt>
      <trkpt lat="43.65106" lon="7.10854">
        <ele>158.60000610352</ele>
        <time>2022-04-12T08:09:22.000Z</time>
      </trkpt>
      <trkpt lat="43.65106" lon="7.1085">
        <ele>158.19999694824</ele>
        <time>2022-04-12T08:09:23.000Z</time>
      </trkpt>
      <trkpt lat="43.65106" lon="7.10845">
        <ele>157.39999389648</ele>
        <time>2022-04-12T08:09:24.000Z</time>
      </trkpt>
      <trkpt lat="43.65103" lon="7.10836">
        <ele>156</ele>
        <time>2022-04-12T08:09:26.000Z</time>
      </trkpt>
      <trkpt lat="43.651" lon="7.10832">
        <ele>155.39999389648</ele>
        <time>2022-04-12T08:09:27.000Z</time>
      </trkpt>
      <trkpt lat="43.65096" lon="7.10827">
        <ele>154.80000305176</ele>
        <time>2022-04-12T08:09:28.000Z</time>
      </trkpt>
      <trkpt lat="43.6509" lon="7.10805">
        <ele>154.39999389648</ele>
        <time>2022-04-12T08:09:31.000Z</time>
      </trkpt>
      <trkpt lat="43.65088" lon="7.10797">
        <ele>153.39999389648</ele>
        <time>2022-04-12T08:09:32.000Z</time>
      </trkpt>
      <trkpt lat="43.65082" lon="7.10784">
        <ele>152.39999389648</ele>
        <time>2022-04-12T08:09:34.000Z</time>
      </trkpt>
      <trkpt lat="43.65078" lon="7.10773">
        <ele>151.19999694824</ele>
        <time>2022-04-12T08:09:36.000Z</time>
      </trkpt>
      <trkpt lat="43.65073" lon="7.10768">
        <ele>150.60000610352</ele>
        <time>2022-04-12T08:09:38.000Z</time>
      </trkpt>
      <trkpt lat="43.65066" lon="7.10768">
        <ele>151.19999694824</ele>
        <time>2022-04-12T08:09:42.000Z</time>
      </trkpt>
      <trkpt lat="43.65064" lon="7.10767">
        <ele>151.39999389648</ele>
        <time>2022-04-12T08:09:43.000Z</time>
      </trkpt>
      <trkpt lat="43.65055" lon="7.10764">
        <ele>151.19999694824</ele>
        <time>2022-04-12T08:09:49.000Z</time>
      </trkpt>
      <trkpt lat="43.65054" lon="7.10764">
        <ele>151</ele>
        <time>2022-04-12T08:09:50.000Z</time>
      </trkpt>
      <trkpt lat="43.65048" lon="7.10762">
        <ele>151</ele>
        <time>2022-04-12T08:09:54.000Z</time>
      </trkpt>
      <trkpt lat="43.65045" lon="7.10759">
        <ele>151.60000610352</ele>
        <time>2022-04-12T08:09:57.000Z</time>
      </trkpt>
      <trkpt lat="43.65045" lon="7.10754">
        <ele>152</ele>
        <time>2022-04-12T08:09:59.000Z</time>
      </trkpt>
      <trkpt lat="43.65044" lon="7.1075">
        <ele>152.19999694824</ele>
        <time>2022-04-12T08:10:01.000Z</time>
      </trkpt>
      <trkpt lat="43.65045" lon="7.1074">
        <ele>153.19999694824</ele>
        <time>2022-04-12T08:10:05.000Z</time>
      </trkpt>
      <trkpt lat="43.65045" lon="7.10737">
        <ele>153.60000610352</ele>
        <time>2022-04-12T08:10:06.000Z</time>
      </trkpt>
      <trkpt lat="43.65045" lon="7.10731">
        <ele>154.19999694824</ele>
        <time>2022-04-12T08:10:08.000Z</time>
      </trkpt>
      <trkpt lat="43.65046" lon="7.10723">
        <ele>155.60000610352</ele>
        <time>2022-04-12T08:10:11.000Z</time>
      </trkpt>
      <trkpt lat="43.65046" lon="7.10716">
        <ele>156.60000610352</ele>
        <time>2022-04-12T08:10:14.000Z</time>
      </trkpt>
      <trkpt lat="43.65046" lon="7.10715">
        <ele>156.80000305176</ele>
        <time>2022-04-12T08:10:15.000Z</time>
      </trkpt>
      <trkpt lat="43.65041" lon="7.10712">
        <ele>157.19999694824</ele>
        <time>2022-04-12T08:10:18.000Z</time>
      </trkpt>
      <trkpt lat="43.65038" lon="7.10709">
        <ele>157.60000610352</ele>
        <time>2022-04-12T08:10:23.000Z</time>
      </trkpt>
      <trkpt lat="43.65038" lon="7.10709">
        <ele>157.60000610352</ele>
        <time>2022-04-12T08:10:24.000Z</time>
      </trkpt>
      <trkpt lat="43.65038" lon="7.10709">
        <ele>157.60000610352</ele>
        <time>2022-04-12T08:10:43.000Z</time>
      </trkpt>
      <trkpt lat="43.65039" lon="7.10709">
        <ele>157.39999389648</ele>
        <time>2022-04-12T08:11:11.000Z</time>
      </trkpt>
      <trkpt lat="43.65034" lon="7.10706">
        <ele>157.60000610352</ele>
        <time>2022-04-12T08:11:23.000Z</time>
      </trkpt>
      <trkpt lat="43.65025" lon="7.10696">
        <ele>158</ele>
        <time>2022-04-12T08:11:28.000Z</time>
      </trkpt>
      <trkpt lat="43.65014" lon="7.10685">
        <ele>158.60000610352</ele>
        <time>2022-04-12T08:11:33.000Z</time>
      </trkpt>
      <trkpt lat="43.65012" lon="7.1068">
        <ele>159</ele>
        <time>2022-04-12T08:11:35.000Z</time>
      </trkpt>
      <trkpt lat="43.65009" lon="7.10676">
        <ele>160.19999694824</ele>
        <time>2022-04-12T08:11:37.000Z</time>
      </trkpt>
      <trkpt lat="43.65008" lon="7.10673">
        <ele>160.80000305176</ele>
        <time>2022-04-12T08:11:39.000Z</time>
      </trkpt>
      <trkpt lat="43.65007" lon="7.10671">
        <ele>161.39999389648</ele>
        <time>2022-04-12T08:11:40.000Z</time>
      </trkpt>
      <trkpt lat="43.65007" lon="7.10666">
        <ele>162</ele>
        <time>2022-04-12T08:11:42.000Z</time>
      </trkpt>
      <trkpt lat="43.65006" lon="7.10663">
        <ele>162.80000305176</ele>
        <time>2022-04-12T08:11:43.000Z</time>
      </trkpt>
      <trkpt lat="43.65007" lon="7.10651">
        <ele>163.80000305176</ele>
        <time>2022-04-12T08:11:47.000Z</time>
      </trkpt>
      <trkpt lat="43.65007" lon="7.10645">
        <ele>164.19999694824</ele>
        <time>2022-04-12T08:11:49.000Z</time>
      </trkpt>
      <trkpt lat="43.65005" lon="7.10635">
        <ele>164.39999389648</ele>
        <time>2022-04-12T08:11:52.000Z</time>
      </trkpt>
      <trkpt lat="43.64995" lon="7.10622">
        <ele>165.39999389648</ele>
        <time>2022-04-12T08:11:57.000Z</time>
      </trkpt>
      <trkpt lat="43.64993" lon="7.1062">
        <ele>165.60000610352</ele>
        <time>2022-04-12T08:11:58.000Z</time>
      </trkpt>
      <trkpt lat="43.64989" lon="7.10615">
        <ele>166.60000610352</ele>
        <time>2022-04-12T08:12:00.000Z</time>
      </trkpt>
      <trkpt lat="43.64984" lon="7.10607">
        <ele>167.80000305176</ele>
        <time>2022-04-12T08:12:03.000Z</time>
      </trkpt>
      <trkpt lat="43.6498" lon="7.10596">
        <ele>169.19999694824</ele>
        <time>2022-04-12T08:12:07.000Z</time>
      </trkpt>
      <trkpt lat="43.64979" lon="7.10593">
        <ele>169.60000610352</ele>
        <time>2022-04-12T08:12:09.000Z</time>
      </trkpt>
      <trkpt lat="43.64974" lon="7.10585">
        <ele>170</ele>
        <time>2022-04-12T08:12:12.000Z</time>
      </trkpt>
      <trkpt lat="43.64973" lon="7.10581">
        <ele>170.19999694824</ele>
        <time>2022-04-12T08:12:13.000Z</time>
      </trkpt>
      <trkpt lat="43.64971" lon="7.10577">
        <ele>171.60000610352</ele>
        <time>2022-04-12T08:12:15.000Z</time>
      </trkpt>
      <trkpt lat="43.6497" lon="7.10577">
        <ele>172.19999694824</ele>
        <time>2022-04-12T08:12:16.000Z</time>
      </trkpt>
      <trkpt lat="43.64969" lon="7.10577">
        <ele>173</ele>
        <time>2022-04-12T08:12:17.000Z</time>
      </trkpt>
      <trkpt lat="43.64969" lon="7.10577">
        <ele>174.19999694824</ele>
        <time>2022-04-12T08:12:20.000Z</time>
      </trkpt>
      <trkpt lat="43.64969" lon="7.10577">
        <ele>174.60000610352</ele>
        <time>2022-04-12T08:12:22.000Z</time>
      </trkpt>
      <trkpt lat="43.64969" lon="7.10577">
        <ele>175</ele>
        <time>2022-04-12T08:12:32.000Z</time>
      </trkpt>
      <trkpt lat="43.64969" lon="7.10577">
        <ele>174.80000305176</ele>
        <time>2022-04-12T08:12:59.000Z</time>
      </trkpt>
      <trkpt lat="43.64969" lon="7.10577">
        <ele>174.80000305176</ele>
        <time>2022-04-12T08:13:21.000Z</time>
      </trkpt>
      <trkpt lat="43.6497" lon="7.10576">
        <ele>175.19999694824</ele>
        <time>2022-04-12T08:13:50.000Z</time>
      </trkpt>
      <trkpt lat="43.6497" lon="7.10576">
        <ele>175.19999694824</ele>
        <time>2022-04-12T08:13:51.000Z</time>
      </trkpt>
      <trkpt lat="43.6497" lon="7.10576">
        <ele>174.60000610352</ele>
        <time>2022-04-12T08:14:22.000Z</time>
      </trkpt>
      <trkpt lat="43.64969" lon="7.10577">
        <ele>174.39999389648</ele>
        <time>2022-04-12T08:14:29.000Z</time>
      </trkpt>
      <trkpt lat="43.64965" lon="7.10576">
        <ele>174.39999389648</ele>
        <time>2022-04-12T08:14:32.000Z</time>
      </trkpt>
      <trkpt lat="43.64954" lon="7.10577">
        <ele>175.39999389648</ele>
        <time>2022-04-12T08:14:37.000Z</time>
      </trkpt>
      <trkpt lat="43.64949" lon="7.10576">
        <ele>176.19999694824</ele>
        <time>2022-04-12T08:14:39.000Z</time>
      </trkpt>
      <trkpt lat="43.64947" lon="7.10576">
        <ele>176.60000610352</ele>
        <time>2022-04-12T08:14:40.000Z</time>
      </trkpt>
      <trkpt lat="43.64941" lon="7.10571">
        <ele>177.60000610352</ele>
        <time>2022-04-12T08:14:43.000Z</time>
      </trkpt>
      <trkpt lat="43.64935" lon="7.10566">
        <ele>178.60000610352</ele>
        <time>2022-04-12T08:14:46.000Z</time>
      </trkpt>
      <trkpt lat="43.64933" lon="7.10565">
        <ele>178.80000305176</ele>
        <time>2022-04-12T08:14:47.000Z</time>
      </trkpt>
      <trkpt lat="43.64926" lon="7.10559">
        <ele>179.80000305176</ele>
        <time>2022-04-12T08:14:51.000Z</time>
      </trkpt>
      <trkpt lat="43.64924" lon="7.10558">
        <ele>180</ele>
        <time>2022-04-12T08:14:52.000Z</time>
      </trkpt>
      <trkpt lat="43.64921" lon="7.10558">
        <ele>180.19999694824</ele>
        <time>2022-04-12T08:14:53.000Z</time>
      </trkpt>
      <trkpt lat="43.6491" lon="7.10556">
        <ele>181.19999694824</ele>
        <time>2022-04-12T08:14:58.000Z</time>
      </trkpt>
      <trkpt lat="43.64906" lon="7.10555">
        <ele>181.80000305176</ele>
        <time>2022-04-12T08:15:00.000Z</time>
      </trkpt>
      <trkpt lat="43.64902" lon="7.10554">
        <ele>182.39999389648</ele>
        <time>2022-04-12T08:15:02.000Z</time>
      </trkpt>
      <trkpt lat="43.64894" lon="7.10556">
        <ele>183.19999694824</ele>
        <time>2022-04-12T08:15:06.000Z</time>
      </trkpt>
      <trkpt lat="43.64891" lon="7.10557">
        <ele>183.39999389648</ele>
        <time>2022-04-12T08:15:08.000Z</time>
      </trkpt>
      <trkpt lat="43.64883" lon="7.10557">
        <ele>184.39999389648</ele>
        <time>2022-04-12T08:15:13.000Z</time>
      </trkpt>
      <trkpt lat="43.64883" lon="7.10556">
        <ele>184.39999389648</ele>
        <time>2022-04-12T08:15:14.000Z</time>
      </trkpt>
      <trkpt lat="43.64879" lon="7.10552">
        <ele>184.60000610352</ele>
        <time>2022-04-12T08:15:19.000Z</time>
      </trkpt>
      <trkpt lat="43.64875" lon="7.1055">
        <ele>185</ele>
        <time>2022-04-12T08:15:25.000Z</time>
      </trkpt>
      <trkpt lat="43.64871" lon="7.10549">
        <ele>184.80000305176</ele>
        <time>2022-04-12T08:15:31.000Z</time>
      </trkpt>
      <trkpt lat="43.6487" lon="7.10549">
        <ele>184.39999389648</ele>
        <time>2022-04-12T08:15:44.000Z</time>
      </trkpt>
      <trkpt lat="43.64859" lon="7.10544">
        <ele>185.19999694824</ele>
        <time>2022-04-12T08:15:52.000Z</time>
      </trkpt>
      <trkpt lat="43.64856" lon="7.1054">
        <ele>185.60000610352</ele>
        <time>2022-04-12T08:15:54.000Z</time>
      </trkpt>
      <trkpt lat="43.64849" lon="7.10532">
        <ele>185.80000305176</ele>
        <time>2022-04-12T08:15:58.000Z</time>
      </trkpt>
      <trkpt lat="43.64833" lon="7.10518">
        <ele>185.19999694824</ele>
        <time>2022-04-12T08:16:04.000Z</time>
      </trkpt>
      <trkpt lat="43.64824" lon="7.10511">
        <ele>184.39999389648</ele>
        <time>2022-04-12T08:16:07.000Z</time>
      </trkpt>
      <trkpt lat="43.64815" lon="7.10506">
        <ele>183.80000305176</ele>
        <time>2022-04-12T08:16:10.000Z</time>
      </trkpt>
      <trkpt lat="43.64797" lon="7.10488">
        <ele>185.19999694824</ele>
        <time>2022-04-12T08:16:18.000Z</time>
      </trkpt>
      <trkpt lat="43.64794" lon="7.10483">
        <ele>185.60000610352</ele>
        <time>2022-04-12T08:16:20.000Z</time>
      </trkpt>
      <trkpt lat="43.64785" lon="7.10471">
        <ele>186.80000305176</ele>
        <time>2022-04-12T08:16:25.000Z</time>
      </trkpt>
      <trkpt lat="43.64774" lon="7.10455">
        <ele>186.80000305176</ele>
        <time>2022-04-12T08:16:31.000Z</time>
      </trkpt>
      <trkpt lat="43.64764" lon="7.10434">
        <ele>187.19999694824</ele>
        <time>2022-04-12T08:16:38.000Z</time>
      </trkpt>
      <trkpt lat="43.64759" lon="7.10425">
        <ele>187.80000305176</ele>
        <time>2022-04-12T08:16:41.000Z</time>
      </trkpt>
      <trkpt lat="43.64753" lon="7.10417">
        <ele>189</ele>
        <time>2022-04-12T08:16:44.000Z</time>
      </trkpt>
      <trkpt lat="43.64749" lon="7.10411">
        <ele>190</ele>
        <time>2022-04-12T08:16:46.000Z</time>
      </trkpt>
      <trkpt lat="43.64746" lon="7.10405">
        <ele>191.19999694824</ele>
        <time>2022-04-12T08:16:48.000Z</time>
      </trkpt>
      <trkpt lat="43.64744" lon="7.10403">
        <ele>191.60000610352</ele>
        <time>2022-04-12T08:16:49.000Z</time>
      </trkpt>
      <trkpt lat="43.6474" lon="7.10399">
        <ele>192.39999389648</ele>
        <time>2022-04-12T08:16:51.000Z</time>
      </trkpt>
      <trkpt lat="43.64731" lon="7.10392">
        <ele>193.39999389648</ele>
        <time>2022-04-12T08:16:55.000Z</time>
      </trkpt>
      <trkpt lat="43.6473" lon="7.10389">
        <ele>193.80000305176</ele>
        <time>2022-04-12T08:16:56.000Z</time>
      </trkpt>
      <trkpt lat="43.64727" lon="7.10382">
        <ele>194.80000305176</ele>
        <time>2022-04-12T08:16:59.000Z</time>
      </trkpt>
      <trkpt lat="43.64726" lon="7.10379">
        <ele>195</ele>
        <time>2022-04-12T08:17:00.000Z</time>
      </trkpt>
      <trkpt lat="43.64722" lon="7.10371">
        <ele>194.80000305176</ele>
        <time>2022-04-12T08:17:03.000Z</time>
      </trkpt>
      <trkpt lat="43.6472" lon="7.10366">
        <ele>195</ele>
        <time>2022-04-12T08:17:05.000Z</time>
      </trkpt>
      <trkpt lat="43.6472" lon="7.10362">
        <ele>195.19999694824</ele>
        <time>2022-04-12T08:17:06.000Z</time>
      </trkpt>
      <trkpt lat="43.64718" lon="7.10352">
        <ele>196</ele>
        <time>2022-04-12T08:17:09.000Z</time>
      </trkpt>
      <trkpt lat="43.64715" lon="7.1034">
        <ele>196.60000610352</ele>
        <time>2022-04-12T08:17:13.000Z</time>
      </trkpt>
      <trkpt lat="43.64713" lon="7.10335">
        <ele>197</ele>
        <time>2022-04-12T08:17:15.000Z</time>
      </trkpt>
      <trkpt lat="43.64712" lon="7.10326">
        <ele>198</ele>
        <time>2022-04-12T08:17:18.000Z</time>
      </trkpt>
      <trkpt lat="43.64713" lon="7.10313">
        <ele>198.60000610352</ele>
        <time>2022-04-12T08:17:23.000Z</time>
      </trkpt>
      <trkpt lat="43.64716" lon="7.10302">
        <ele>199</ele>
        <time>2022-04-12T08:17:28.000Z</time>
      </trkpt>
      <trkpt lat="43.64712" lon="7.10298">
        <ele>198.80000305176</ele>
        <time>2022-04-12T08:17:32.000Z</time>
      </trkpt>
      <trkpt lat="43.64711" lon="7.10298">
        <ele>198.80000305176</ele>
        <time>2022-04-12T08:17:37.000Z</time>
      </trkpt>
      <trkpt lat="43.6471" lon="7.10298">
        <ele>199.19999694824</ele>
        <time>2022-04-12T08:17:39.000Z</time>
      </trkpt>
      <trkpt lat="43.64705" lon="7.10298">
        <ele>199.39999389648</ele>
        <time>2022-04-12T08:17:46.000Z</time>
      </trkpt>
      <trkpt lat="43.64689" lon="7.10295">
        <ele>200</ele>
        <time>2022-04-12T08:17:52.000Z</time>
      </trkpt>
      <trkpt lat="43.64686" lon="7.10293">
        <ele>200.19999694824</ele>
        <time>2022-04-12T08:17:53.000Z</time>
      </trkpt>
      <trkpt lat="43.64677" lon="7.10286">
        <ele>201</ele>
        <time>2022-04-12T08:17:57.000Z</time>
      </trkpt>
      <trkpt lat="43.64673" lon="7.10284">
        <ele>201.19999694824</ele>
        <time>2022-04-12T08:17:59.000Z</time>
      </trkpt>
      <trkpt lat="43.6467" lon="7.10279">
        <ele>201.39999389648</ele>
        <time>2022-04-12T08:18:01.000Z</time>
      </trkpt>
      <trkpt lat="43.64666" lon="7.10276">
        <ele>201.60000610352</ele>
        <time>2022-04-12T08:18:04.000Z</time>
      </trkpt>
      <trkpt lat="43.64663" lon="7.10274">
        <ele>201.39999389648</ele>
        <time>2022-04-12T08:18:06.000Z</time>
      </trkpt>
      <trkpt lat="43.64659" lon="7.10265">
        <ele>201.60000610352</ele>
        <time>2022-04-12T08:18:12.000Z</time>
      </trkpt>
      <trkpt lat="43.64665" lon="7.10259">
        <ele>201.19999694824</ele>
        <time>2022-04-12T08:18:17.000Z</time>
      </trkpt>
      <trkpt lat="43.64668" lon="7.10256">
        <ele>200.80000305176</ele>
        <time>2022-04-12T08:18:19.000Z</time>
      </trkpt>
      <trkpt lat="43.6467" lon="7.10247">
        <ele>200.39999389648</ele>
        <time>2022-04-12T08:18:22.000Z</time>
      </trkpt>
      <trkpt lat="43.6467" lon="7.10243">
        <ele>200</ele>
        <time>2022-04-12T08:18:24.000Z</time>
      </trkpt>
      <trkpt lat="43.64667" lon="7.10239">
        <ele>199.60000610352</ele>
        <time>2022-04-12T08:18:26.000Z</time>
      </trkpt>
      <trkpt lat="43.64662" lon="7.10236">
        <ele>199</ele>
        <time>2022-04-12T08:18:28.000Z</time>
      </trkpt>
      <trkpt lat="43.64652" lon="7.10228">
        <ele>198</ele>
        <time>2022-04-12T08:18:31.000Z</time>
      </trkpt>
      <trkpt lat="43.64637" lon="7.10216">
        <ele>197.80000305176</ele>
        <time>2022-04-12T08:18:37.000Z</time>
      </trkpt>
      <trkpt lat="43.64621" lon="7.10213">
        <ele>198.19999694824</ele>
        <time>2022-04-12T08:18:43.000Z</time>
      </trkpt>
      <trkpt lat="43.6462" lon="7.10211">
        <ele>198.39999389648</ele>
        <time>2022-04-12T08:18:44.000Z</time>
      </trkpt>
      <trkpt lat="43.64617" lon="7.10199">
        <ele>199.19999694824</ele>
        <time>2022-04-12T08:18:47.000Z</time>
      </trkpt>
      <trkpt lat="43.64617" lon="7.10195">
        <ele>199.19999694824</ele>
        <time>2022-04-12T08:18:48.000Z</time>
      </trkpt>
      <trkpt lat="43.64612" lon="7.1018">
        <ele>198.60000610352</ele>
        <time>2022-04-12T08:18:51.000Z</time>
      </trkpt>
      <trkpt lat="43.6461" lon="7.10175">
        <ele>198</ele>
        <time>2022-04-12T08:18:52.000Z</time>
      </trkpt>
      <trkpt lat="43.64604" lon="7.10169">
        <ele>197</ele>
        <time>2022-04-12T08:18:54.000Z</time>
      </trkpt>
      <trkpt lat="43.64602" lon="7.10161">
        <ele>196.39999389648</ele>
        <time>2022-04-12T08:18:56.000Z</time>
      </trkpt>
      <trkpt lat="43.64603" lon="7.10154">
        <ele>196</ele>
        <time>2022-04-12T08:18:58.000Z</time>
      </trkpt>
      <trkpt lat="43.64602" lon="7.10148">
        <ele>195.39999389648</ele>
        <time>2022-04-12T08:19:00.000Z</time>
      </trkpt>
      <trkpt lat="43.64602" lon="7.10147">
        <ele>195</ele>
        <time>2022-04-12T08:19:01.000Z</time>
      </trkpt>
      <trkpt lat="43.64599" lon="7.10143">
        <ele>194</ele>
        <time>2022-04-12T08:19:04.000Z</time>
      </trkpt>
      <trkpt lat="43.64597" lon="7.10141">
        <ele>194</ele>
        <time>2022-04-12T08:19:05.000Z</time>
      </trkpt>
      <trkpt lat="43.64585" lon="7.10136">
        <ele>195.19999694824</ele>
        <time>2022-04-12T08:19:09.000Z</time>
      </trkpt>
      <trkpt lat="43.64578" lon="7.10134">
        <ele>196</ele>
        <time>2022-04-12T08:19:11.000Z</time>
      </trkpt>
      <trkpt lat="43.64576" lon="7.10132">
        <ele>196.39999389648</ele>
        <time>2022-04-12T08:19:12.000Z</time>
      </trkpt>
      <trkpt lat="43.64572" lon="7.10127">
        <ele>197.39999389648</ele>
        <time>2022-04-12T08:19:15.000Z</time>
      </trkpt>
      <trkpt lat="43.64571" lon="7.10123">
        <ele>198</ele>
        <time>2022-04-12T08:19:16.000Z</time>
      </trkpt>
      <trkpt lat="43.64571" lon="7.10113">
        <ele>198.80000305176</ele>
        <time>2022-04-12T08:19:19.000Z</time>
      </trkpt>
      <trkpt lat="43.64573" lon="7.10097">
        <ele>198</ele>
        <time>2022-04-12T08:19:23.000Z</time>
      </trkpt>
      <trkpt lat="43.64575" lon="7.10092">
        <ele>198</ele>
        <time>2022-04-12T08:19:24.000Z</time>
      </trkpt>
      <trkpt lat="43.6458" lon="7.10074">
        <ele>197</ele>
        <time>2022-04-12T08:19:28.000Z</time>
      </trkpt>
      <trkpt lat="43.64585" lon="7.10057">
        <ele>196.60000610352</ele>
        <time>2022-04-12T08:19:31.000Z</time>
      </trkpt>
      <trkpt lat="43.64588" lon="7.10046">
        <ele>196.19999694824</ele>
        <time>2022-04-12T08:19:33.000Z</time>
      </trkpt>
      <trkpt lat="43.64592" lon="7.10032">
        <ele>196</ele>
        <time>2022-04-12T08:19:36.000Z</time>
      </trkpt>
      <trkpt lat="43.64593" lon="7.10028">
        <ele>195.60000610352</ele>
        <time>2022-04-12T08:19:37.000Z</time>
      </trkpt>
      <trkpt lat="43.64594" lon="7.10026">
        <ele>195.39999389648</ele>
        <time>2022-04-12T08:19:38.000Z</time>
      </trkpt>
      <trkpt lat="43.64598" lon="7.10022">
        <ele>195.60000610352</ele>
        <time>2022-04-12T08:19:40.000Z</time>
      </trkpt>
      <trkpt lat="43.646" lon="7.10018">
        <ele>195.80000305176</ele>
        <time>2022-04-12T08:19:41.000Z</time>
      </trkpt>
      <trkpt lat="43.64604" lon="7.1001">
        <ele>196.80000305176</ele>
        <time>2022-04-12T08:19:43.000Z</time>
      </trkpt>
      <trkpt lat="43.6461" lon="7.09994">
        <ele>197.19999694824</ele>
        <time>2022-04-12T08:19:47.000Z</time>
      </trkpt>
      <trkpt lat="43.64612" lon="7.09989">
        <ele>197.60000610352</ele>
        <time>2022-04-12T08:19:49.000Z</time>
      </trkpt>
      <trkpt lat="43.64616" lon="7.09984">
        <ele>198.39999389648</ele>
        <time>2022-04-12T08:19:51.000Z</time>
      </trkpt>
      <trkpt lat="43.64621" lon="7.0998">
        <ele>199.19999694824</ele>
        <time>2022-04-12T08:19:53.000Z</time>
      </trkpt>
      <trkpt lat="43.64623" lon="7.09978">
        <ele>199.60000610352</ele>
        <time>2022-04-12T08:19:54.000Z</time>
      </trkpt>
      <trkpt lat="43.64625" lon="7.09976">
        <ele>199.80000305176</ele>
        <time>2022-04-12T08:19:55.000Z</time>
      </trkpt>
      <trkpt lat="43.64632" lon="7.0997">
        <ele>200</ele>
        <time>2022-04-12T08:19:59.000Z</time>
      </trkpt>
      <trkpt lat="43.64632" lon="7.09968">
        <ele>199.80000305176</ele>
        <time>2022-04-12T08:20:00.000Z</time>
      </trkpt>
      <trkpt lat="43.64633" lon="7.09966">
        <ele>199.80000305176</ele>
        <time>2022-04-12T08:20:01.000Z</time>
      </trkpt>
      <trkpt lat="43.64637" lon="7.09963">
        <ele>200</ele>
        <time>2022-04-12T08:20:03.000Z</time>
      </trkpt>
      <trkpt lat="43.64639" lon="7.09953">
        <ele>200.19999694824</ele>
        <time>2022-04-12T08:20:06.000Z</time>
      </trkpt>
      <trkpt lat="43.6464" lon="7.09944">
        <ele>200</ele>
        <time>2022-04-12T08:20:08.000Z</time>
      </trkpt>
      <trkpt lat="43.64643" lon="7.0993">
        <ele>199.80000305176</ele>
        <time>2022-04-12T08:20:11.000Z</time>
      </trkpt>
      <trkpt lat="43.64652" lon="7.09909">
        <ele>199.80000305176</ele>
        <time>2022-04-12T08:20:16.000Z</time>
      </trkpt>
      <trkpt lat="43.64656" lon="7.09905">
        <ele>199.39999389648</ele>
        <time>2022-04-12T08:20:17.000Z</time>
      </trkpt>
      <trkpt lat="43.64663" lon="7.0989">
        <ele>199</ele>
        <time>2022-04-12T08:20:20.000Z</time>
      </trkpt>
      <trkpt lat="43.64667" lon="7.09879">
        <ele>198.60000610352</ele>
        <time>2022-04-12T08:20:22.000Z</time>
      </trkpt>
      <trkpt lat="43.64668" lon="7.09873">
        <ele>198.39999389648</ele>
        <time>2022-04-12T08:20:23.000Z</time>
      </trkpt>
      <trkpt lat="43.64671" lon="7.09859">
        <ele>198</ele>
        <time>2022-04-12T08:20:26.000Z</time>
      </trkpt>
      <trkpt lat="43.64672" lon="7.09856">
        <ele>197.80000305176</ele>
        <time>2022-04-12T08:20:27.000Z</time>
      </trkpt>
      <trkpt lat="43.6467" lon="7.09853">
        <ele>197.80000305176</ele>
        <time>2022-04-12T08:20:29.000Z</time>
      </trkpt>
      <trkpt lat="43.64668" lon="7.09851">
        <ele>197.60000610352</ele>
        <time>2022-04-12T08:20:30.000Z</time>
      </trkpt>
      <trkpt lat="43.64666" lon="7.0985">
        <ele>197.60000610352</ele>
        <time>2022-04-12T08:20:31.000Z</time>
      </trkpt>
      <trkpt lat="43.6466" lon="7.09848">
        <ele>198</ele>
        <time>2022-04-12T08:20:34.000Z</time>
      </trkpt>
      <trkpt lat="43.6466" lon="7.09847">
        <ele>198</ele>
        <time>2022-04-12T08:20:35.000Z</time>
      </trkpt>
      <trkpt lat="43.64657" lon="7.09841">
        <ele>198</ele>
        <time>2022-04-12T08:20:38.000Z</time>
      </trkpt>
      <trkpt lat="43.64655" lon="7.09838">
        <ele>198</ele>
        <time>2022-04-12T08:20:40.000Z</time>
      </trkpt>
      <trkpt lat="43.64655" lon="7.09837">
        <ele>197.80000305176</ele>
        <time>2022-04-12T08:20:43.000Z</time>
      </trkpt>
      <trkpt lat="43.64655" lon="7.09837">
        <ele>197.39999389648</ele>
        <time>2022-04-12T08:20:51.000Z</time>
      </trkpt>
      <trkpt lat="43.64655" lon="7.09837">
        <ele>197.80000305176</ele>
        <time>2022-04-12T08:21:01.000Z</time>
      </trkpt>
      <trkpt lat="43.64654" lon="7.09836">
        <ele>197.60000610352</ele>
        <time>2022-04-12T08:21:35.000Z</time>
      </trkpt>
      <trkpt lat="43.64654" lon="7.09836">
        <ele>197.39999389648</ele>
        <time>2022-04-12T08:21:47.000Z</time>
      </trkpt>
      <trkpt lat="43.64653" lon="7.09835">
        <ele>197.19999694824</ele>
        <time>2022-04-12T08:22:03.000Z</time>
      </trkpt>
      <trkpt lat="43.64653" lon="7.09835">
        <ele>197.39999389648</ele>
        <time>2022-04-12T08:22:21.000Z</time>
      </trkpt>
      <trkpt lat="43.64651" lon="7.09833">
        <ele>197.60000610352</ele>
        <time>2022-04-12T08:22:39.000Z</time>
      </trkpt>
      <trkpt lat="43.64644" lon="7.09826">
        <ele>197.60000610352</ele>
        <time>2022-04-12T08:22:44.000Z</time>
      </trkpt>
      <trkpt lat="43.64643" lon="7.09824">
        <ele>197.19999694824</ele>
        <time>2022-04-12T08:22:45.000Z</time>
      </trkpt>
      <trkpt lat="43.64645" lon="7.09821">
        <ele>197</ele>
        <time>2022-04-12T08:22:47.000Z</time>
      </trkpt>
      <trkpt lat="43.64648" lon="7.09818">
        <ele>196.19999694824</ele>
        <time>2022-04-12T08:22:49.000Z</time>
      </trkpt>
      <trkpt lat="43.64653" lon="7.09813">
        <ele>195.60000610352</ele>
        <time>2022-04-12T08:22:51.000Z</time>
      </trkpt>
      <trkpt lat="43.64655" lon="7.09809">
        <ele>195.60000610352</ele>
        <time>2022-04-12T08:22:52.000Z</time>
      </trkpt>
      <trkpt lat="43.64656" lon="7.09802">
        <ele>195.19999694824</ele>
        <time>2022-04-12T08:22:54.000Z</time>
      </trkpt>
      <trkpt lat="43.64662" lon="7.09789">
        <ele>193.80000305176</ele>
        <time>2022-04-12T08:22:58.000Z</time>
      </trkpt>
      <trkpt lat="43.64663" lon="7.09784">
        <ele>193.60000610352</ele>
        <time>2022-04-12T08:22:59.000Z</time>
      </trkpt>
      <trkpt lat="43.64666" lon="7.0976">
        <ele>192.19999694824</ele>
        <time>2022-04-12T08:23:02.000Z</time>
      </trkpt>
      <trkpt lat="43.64667" lon="7.09742">
        <ele>190.80000305176</ele>
        <time>2022-04-12T08:23:04.000Z</time>
      </trkpt>
      <trkpt lat="43.64668" lon="7.09718">
        <ele>189.39999389648</ele>
        <time>2022-04-12T08:23:07.000Z</time>
      </trkpt>
      <trkpt lat="43.64669" lon="7.09702">
        <ele>188.19999694824</ele>
        <time>2022-04-12T08:23:10.000Z</time>
      </trkpt>
      <trkpt lat="43.64669" lon="7.09696">
        <ele>188</ele>
        <time>2022-04-12T08:23:11.000Z</time>
      </trkpt>
      <trkpt lat="43.6467" lon="7.09688">
        <ele>187</ele>
        <time>2022-04-12T08:23:12.000Z</time>
      </trkpt>
      <trkpt lat="43.6467" lon="7.09673">
        <ele>186.19999694824</ele>
        <time>2022-04-12T08:23:14.000Z</time>
      </trkpt>
      <trkpt lat="43.64672" lon="7.09659">
        <ele>185.60000610352</ele>
        <time>2022-04-12T08:23:16.000Z</time>
      </trkpt>
      <trkpt lat="43.64674" lon="7.09654">
        <ele>185.80000305176</ele>
        <time>2022-04-12T08:23:17.000Z</time>
      </trkpt>
      <trkpt lat="43.64675" lon="7.09642">
        <ele>185.60000610352</ele>
        <time>2022-04-12T08:23:19.000Z</time>
      </trkpt>
      <trkpt lat="43.64674" lon="7.09632">
        <ele>185.80000305176</ele>
        <time>2022-04-12T08:23:21.000Z</time>
      </trkpt>
      <trkpt lat="43.64671" lon="7.09619">
        <ele>186.60000610352</ele>
        <time>2022-04-12T08:23:23.000Z</time>
      </trkpt>
      <trkpt lat="43.64668" lon="7.09611">
        <ele>186.80000305176</ele>
        <time>2022-04-12T08:23:24.000Z</time>
      </trkpt>
      <trkpt lat="43.64666" lon="7.09604">
        <ele>187</ele>
        <time>2022-04-12T08:23:25.000Z</time>
      </trkpt>
      <trkpt lat="43.64662" lon="7.09589">
        <ele>186.60000610352</ele>
        <time>2022-04-12T08:23:27.000Z</time>
      </trkpt>
      <trkpt lat="43.64662" lon="7.09575">
        <ele>185.19999694824</ele>
        <time>2022-04-12T08:23:29.000Z</time>
      </trkpt>
      <trkpt lat="43.64659" lon="7.09562">
        <ele>183.60000610352</ele>
        <time>2022-04-12T08:23:31.000Z</time>
      </trkpt>
      <trkpt lat="43.64654" lon="7.09555">
        <ele>182</ele>
        <time>2022-04-12T08:23:33.000Z</time>
      </trkpt>
      <trkpt lat="43.64646" lon="7.09556">
        <ele>180.19999694824</ele>
        <time>2022-04-12T08:23:35.000Z</time>
      </trkpt>
      <trkpt lat="43.64642" lon="7.09558">
        <ele>179.39999389648</ele>
        <time>2022-04-12T08:23:36.000Z</time>
      </trkpt>
      <trkpt lat="43.64638" lon="7.0956">
        <ele>178.80000305176</ele>
        <time>2022-04-12T08:23:37.000Z</time>
      </trkpt>
      <trkpt lat="43.64635" lon="7.09559">
        <ele>178.19999694824</ele>
        <time>2022-04-12T08:23:38.000Z</time>
      </trkpt>
      <trkpt lat="43.64633" lon="7.09555">
        <ele>177.80000305176</ele>
        <time>2022-04-12T08:23:39.000Z</time>
      </trkpt>
      <trkpt lat="43.64633" lon="7.09551">
        <ele>177.80000305176</ele>
        <time>2022-04-12T08:23:40.000Z</time>
      </trkpt>
      <trkpt lat="43.64632" lon="7.09532">
        <ele>177</ele>
        <time>2022-04-12T08:23:43.000Z</time>
      </trkpt>
      <trkpt lat="43.64632" lon="7.09525">
        <ele>176.60000610352</ele>
        <time>2022-04-12T08:23:44.000Z</time>
      </trkpt>
      <trkpt lat="43.64627" lon="7.09515">
        <ele>175.39999389648</ele>
        <time>2022-04-12T08:23:46.000Z</time>
      </trkpt>
      <trkpt lat="43.64617" lon="7.0951">
        <ele>173.39999389648</ele>
        <time>2022-04-12T08:23:48.000Z</time>
      </trkpt>
      <trkpt lat="43.64607" lon="7.09509">
        <ele>171.80000305176</ele>
        <time>2022-04-12T08:23:50.000Z</time>
      </trkpt>
      <trkpt lat="43.64594" lon="7.09506">
        <ele>170.60000610352</ele>
        <time>2022-04-12T08:23:53.000Z</time>
      </trkpt>
      <trkpt lat="43.6459" lon="7.09503">
        <ele>170.39999389648</ele>
        <time>2022-04-12T08:23:54.000Z</time>
      </trkpt>
      <trkpt lat="43.64578" lon="7.09491">
        <ele>169.39999389648</ele>
        <time>2022-04-12T08:23:57.000Z</time>
      </trkpt>
      <trkpt lat="43.64575" lon="7.09487">
        <ele>169.60000610352</ele>
        <time>2022-04-12T08:23:58.000Z</time>
      </trkpt>
      <trkpt lat="43.64573" lon="7.09481">
        <ele>169.39999389648</ele>
        <time>2022-04-12T08:23:59.000Z</time>
      </trkpt>
      <trkpt lat="43.64569" lon="7.0947">
        <ele>168.39999389648</ele>
        <time>2022-04-12T08:24:01.000Z</time>
      </trkpt>
      <trkpt lat="43.64564" lon="7.09461">
        <ele>165.60000610352</ele>
        <time>2022-04-12T08:24:04.000Z</time>
      </trkpt>
      <trkpt lat="43.64558" lon="7.09462">
        <ele>163.80000305176</ele>
        <time>2022-04-12T08:24:06.000Z</time>
      </trkpt>
      <trkpt lat="43.64555" lon="7.09463">
        <ele>162.80000305176</ele>
        <time>2022-04-12T08:24:07.000Z</time>
      </trkpt>
      <trkpt lat="43.64548" lon="7.0946">
        <ele>161.19999694824</ele>
        <time>2022-04-12T08:24:10.000Z</time>
      </trkpt>
      <trkpt lat="43.64546" lon="7.09461">
        <ele>160.80000305176</ele>
        <time>2022-04-12T08:24:11.000Z</time>
      </trkpt>
      <trkpt lat="43.64542" lon="7.0946">
        <ele>159.80000305176</ele>
        <time>2022-04-12T08:24:13.000Z</time>
      </trkpt>
      <trkpt lat="43.64542" lon="7.09458">
        <ele>159.19999694824</ele>
        <time>2022-04-12T08:24:14.000Z</time>
      </trkpt>
      <trkpt lat="43.64545" lon="7.09452">
        <ele>158.60000610352</ele>
        <time>2022-04-12T08:24:16.000Z</time>
      </trkpt>
      <trkpt lat="43.64548" lon="7.09442">
        <ele>158.19999694824</ele>
        <time>2022-04-12T08:24:18.000Z</time>
      </trkpt>
      <trkpt lat="43.6455" lon="7.09437">
        <ele>157.80000305176</ele>
        <time>2022-04-12T08:24:19.000Z</time>
      </trkpt>
      <trkpt lat="43.6455" lon="7.09432">
        <ele>157.39999389648</ele>
        <time>2022-04-12T08:24:20.000Z</time>
      </trkpt>
      <trkpt lat="43.6455" lon="7.09428">
        <ele>157</ele>
        <time>2022-04-12T08:24:21.000Z</time>
      </trkpt>
      <trkpt lat="43.64548" lon="7.09427">
        <ele>156</ele>
        <time>2022-04-12T08:24:22.000Z</time>
      </trkpt>
      <trkpt lat="43.64545" lon="7.09427">
        <ele>154.39999389648</ele>
        <time>2022-04-12T08:24:24.000Z</time>
      </trkpt>
      <trkpt lat="43.64543" lon="7.09427">
        <ele>153.60000610352</ele>
        <time>2022-04-12T08:24:25.000Z</time>
      </trkpt>
      <trkpt lat="43.64541" lon="7.09426">
        <ele>153</ele>
        <time>2022-04-12T08:24:26.000Z</time>
      </trkpt>
      <trkpt lat="43.64536" lon="7.09425">
        <ele>152.19999694824</ele>
        <time>2022-04-12T08:24:31.000Z</time>
      </trkpt>
      <trkpt lat="43.64536" lon="7.09425">
        <ele>152</ele>
        <time>2022-04-12T08:24:33.000Z</time>
      </trkpt>
      <trkpt lat="43.64536" lon="7.09425">
        <ele>152.39999389648</ele>
        <time>2022-04-12T08:24:49.000Z</time>
      </trkpt>
      <trkpt lat="43.64535" lon="7.09426">
        <ele>152.19999694824</ele>
        <time>2022-04-12T08:24:51.000Z</time>
      </trkpt>
      <trkpt lat="43.64535" lon="7.09425">
        <ele>152</ele>
        <time>2022-04-12T08:24:53.000Z</time>
      </trkpt>
      <trkpt lat="43.64534" lon="7.09425">
        <ele>152.19999694824</ele>
        <time>2022-04-12T08:24:58.000Z</time>
      </trkpt>
      <trkpt lat="43.64535" lon="7.09425">
        <ele>152</ele>
        <time>2022-04-12T08:25:09.000Z</time>
      </trkpt>
      <trkpt lat="43.64534" lon="7.09425">
        <ele>152</ele>
        <time>2022-04-12T08:25:26.000Z</time>
      </trkpt>
      <trkpt lat="43.64534" lon="7.09425">
        <ele>151.60000610352</ele>
        <time>2022-04-12T08:25:43.000Z</time>
      </trkpt>
      <trkpt lat="43.64534" lon="7.09424">
        <ele>151.80000305176</ele>
        <time>2022-04-12T08:26:01.000Z</time>
      </trkpt>
      <trkpt lat="43.64534" lon="7.09424">
        <ele>151.60000610352</ele>
        <time>2022-04-12T08:26:17.000Z</time>
      </trkpt>
      <trkpt lat="43.64534" lon="7.09423">
        <ele>151.39999389648</ele>
        <time>2022-04-12T08:26:34.000Z</time>
      </trkpt>
      <trkpt lat="43.64533" lon="7.09424">
        <ele>151.80000305176</ele>
        <time>2022-04-12T08:26:50.000Z</time>
      </trkpt>
      <trkpt lat="43.64533" lon="7.09424">
        <ele>151.80000305176</ele>
        <time>2022-04-12T08:27:06.000Z</time>
      </trkpt>
      <trkpt lat="43.64534" lon="7.09425">
        <ele>152.60000610352</ele>
        <time>2022-04-12T08:27:13.000Z</time>
      </trkpt>
      <trkpt lat="43.64534" lon="7.09426">
        <ele>152</ele>
        <time>2022-04-12T08:27:25.000Z</time>
      </trkpt>
      <trkpt lat="43.64534" lon="7.09425">
        <ele>152</ele>
        <time>2022-04-12T08:27:32.000Z</time>
      </trkpt>
      <trkpt lat="43.64533" lon="7.09425">
        <ele>151.80000305176</ele>
        <time>2022-04-12T08:27:41.000Z</time>
      </trkpt>
      <trkpt lat="43.64533" lon="7.09425">
        <ele>151.60000610352</ele>
        <time>2022-04-12T08:27:48.000Z</time>
      </trkpt>
      <trkpt lat="43.64531" lon="7.09422">
        <ele>151.80000305176</ele>
        <time>2022-04-12T08:27:51.000Z</time>
      </trkpt>
      <trkpt lat="43.6453" lon="7.09419">
        <ele>152</ele>
        <time>2022-04-12T08:27:52.000Z</time>
      </trkpt>
      <trkpt lat="43.64523" lon="7.09411">
        <ele>151.80000305176</ele>
        <time>2022-04-12T08:27:55.000Z</time>
      </trkpt>
      <trkpt lat="43.64517" lon="7.09411">
        <ele>150.39999389648</ele>
        <time>2022-04-12T08:27:57.000Z</time>
      </trkpt>
      <trkpt lat="43.6451" lon="7.09412">
        <ele>148.80000305176</ele>
        <time>2022-04-12T08:27:59.000Z</time>
      </trkpt>
      <trkpt lat="43.64503" lon="7.09413">
        <ele>147.19999694824</ele>
        <time>2022-04-12T08:28:01.000Z</time>
      </trkpt>
      <trkpt lat="43.64497" lon="7.09407">
        <ele>145.80000305176</ele>
        <time>2022-04-12T08:28:03.000Z</time>
      </trkpt>
      <trkpt lat="43.64492" lon="7.09396">
        <ele>144.60000610352</ele>
        <time>2022-04-12T08:28:06.000Z</time>
      </trkpt>
      <trkpt lat="43.64491" lon="7.09393">
        <ele>144.19999694824</ele>
        <time>2022-04-12T08:28:07.000Z</time>
      </trkpt>
      <trkpt lat="43.64489" lon="7.09388">
        <ele>143.80000305176</ele>
        <time>2022-04-12T08:28:09.000Z</time>
      </trkpt>
      <trkpt lat="43.6449" lon="7.09384">
        <ele>143.60000610352</ele>
        <time>2022-04-12T08:28:10.000Z</time>
      </trkpt>
      <trkpt lat="43.6449" lon="7.09381">
        <ele>143.19999694824</ele>
        <time>2022-04-12T08:28:11.000Z</time>
      </trkpt>
      <trkpt lat="43.64489" lon="7.09373">
        <ele>142.19999694824</ele>
        <time>2022-04-12T08:28:13.000Z</time>
      </trkpt>
      <trkpt lat="43.64487" lon="7.09367">
        <ele>140.80000305176</ele>
        <time>2022-04-12T08:28:15.000Z</time>
      </trkpt>
      <trkpt lat="43.64487" lon="7.09365">
        <ele>139.39999389648</ele>
        <time>2022-04-12T08:28:16.000Z</time>
      </trkpt>
      <trkpt lat="43.64487" lon="7.09362">
        <ele>138.39999389648</ele>
        <time>2022-04-12T08:28:17.000Z</time>
      </trkpt>
      <trkpt lat="43.64488" lon="7.09358">
        <ele>137.39999389648</ele>
        <time>2022-04-12T08:28:18.000Z</time>
      </trkpt>
      <trkpt lat="43.64488" lon="7.09356">
        <ele>136.60000610352</ele>
        <time>2022-04-12T08:28:19.000Z</time>
      </trkpt>
      <trkpt lat="43.64489" lon="7.09354">
        <ele>135.39999389648</ele>
        <time>2022-04-12T08:28:21.000Z</time>
      </trkpt>
      <trkpt lat="43.6449" lon="7.09345">
        <ele>134</ele>
        <time>2022-04-12T08:28:25.000Z</time>
      </trkpt>
      <trkpt lat="43.64488" lon="7.09342">
        <ele>134</ele>
        <time>2022-04-12T08:28:26.000Z</time>
      </trkpt>
      <trkpt lat="43.64484" lon="7.09333">
        <ele>132.60000610352</ele>
        <time>2022-04-12T08:28:29.000Z</time>
      </trkpt>
      <trkpt lat="43.64482" lon="7.09317">
        <ele>131.39999389648</ele>
        <time>2022-04-12T08:28:32.000Z</time>
      </trkpt>
      <trkpt lat="43.64482" lon="7.09311">
        <ele>130.60000610352</ele>
        <time>2022-04-12T08:28:33.000Z</time>
      </trkpt>
      <trkpt lat="43.64481" lon="7.09305">
        <ele>130.39999389648</ele>
        <time>2022-04-12T08:28:34.000Z</time>
      </trkpt>
      <trkpt lat="43.64479" lon="7.09296">
        <ele>129.19999694824</ele>
        <time>2022-04-12T08:28:36.000Z</time>
      </trkpt>
      <trkpt lat="43.64476" lon="7.09293">
        <ele>128.80000305176</ele>
        <time>2022-04-12T08:28:37.000Z</time>
      </trkpt>
      <trkpt lat="43.64474" lon="7.0929">
        <ele>128</ele>
        <time>2022-04-12T08:28:38.000Z</time>
      </trkpt>
      <trkpt lat="43.64473" lon="7.09281">
        <ele>128</ele>
        <time>2022-04-12T08:28:41.000Z</time>
      </trkpt>
      <trkpt lat="43.64474" lon="7.0928">
        <ele>127.80000305176</ele>
        <time>2022-04-12T08:28:44.000Z</time>
      </trkpt>
      <trkpt lat="43.64475" lon="7.09281">
        <ele>127.40000152588</ele>
        <time>2022-04-12T08:28:56.000Z</time>
      </trkpt>
      <trkpt lat="43.64475" lon="7.09282">
        <ele>127.19999694824</ele>
        <time>2022-04-12T08:29:19.000Z</time>
      </trkpt>
      <trkpt lat="43.64475" lon="7.09282">
        <ele>127.19999694824</ele>
        <time>2022-04-12T08:29:38.000Z</time>
      </trkpt>
      <trkpt lat="43.64475" lon="7.09282">
        <ele>127</ele>
        <time>2022-04-12T08:29:43.000Z</time>
      </trkpt>
      <trkpt lat="43.64476" lon="7.09283">
        <ele>126.59999847412</ele>
        <time>2022-04-12T08:30:05.000Z</time>
      </trkpt>
      <trkpt lat="43.64478" lon="7.09281">
        <ele>126.59999847412</ele>
        <time>2022-04-12T08:30:15.000Z</time>
      </trkpt>
      <trkpt lat="43.64487" lon="7.09284">
        <ele>126.80000305176</ele>
        <time>2022-04-12T08:30:21.000Z</time>
      </trkpt>
      <trkpt lat="43.64501" lon="7.09289">
        <ele>126</ele>
        <time>2022-04-12T08:30:25.000Z</time>
      </trkpt>
      <trkpt lat="43.64504" lon="7.09291">
        <ele>125.80000305176</ele>
        <time>2022-04-12T08:30:26.000Z</time>
      </trkpt>
      <trkpt lat="43.64509" lon="7.09291">
        <ele>125.59999847412</ele>
        <time>2022-04-12T08:30:27.000Z</time>
      </trkpt>
      <trkpt lat="43.64516" lon="7.09287">
        <ele>125.19999694824</ele>
        <time>2022-04-12T08:30:29.000Z</time>
      </trkpt>
      <trkpt lat="43.64524" lon="7.09286">
        <ele>124.59999847412</ele>
        <time>2022-04-12T08:30:31.000Z</time>
      </trkpt>
      <trkpt lat="43.64527" lon="7.09286">
        <ele>124.19999694824</ele>
        <time>2022-04-12T08:30:32.000Z</time>
      </trkpt>
      <trkpt lat="43.64534" lon="7.09283">
        <ele>123.59999847412</ele>
        <time>2022-04-12T08:30:34.000Z</time>
      </trkpt>
      <trkpt lat="43.64538" lon="7.09282">
        <ele>123.40000152588</ele>
        <time>2022-04-12T08:30:35.000Z</time>
      </trkpt>
      <trkpt lat="43.64542" lon="7.09281">
        <ele>123</ele>
        <time>2022-04-12T08:30:36.000Z</time>
      </trkpt>
      <trkpt lat="43.64554" lon="7.0928">
        <ele>122.59999847412</ele>
        <time>2022-04-12T08:30:39.000Z</time>
      </trkpt>
      <trkpt lat="43.64558" lon="7.0928">
        <ele>122</ele>
        <time>2022-04-12T08:30:40.000Z</time>
      </trkpt>
      <trkpt lat="43.64573" lon="7.09276">
        <ele>121</ele>
        <time>2022-04-12T08:30:44.000Z</time>
      </trkpt>
      <trkpt lat="43.64581" lon="7.09273">
        <ele>120.19999694824</ele>
        <time>2022-04-12T08:30:46.000Z</time>
      </trkpt>
      <trkpt lat="43.64584" lon="7.0927">
        <ele>119.80000305176</ele>
        <time>2022-04-12T08:30:47.000Z</time>
      </trkpt>
      <trkpt lat="43.64587" lon="7.09268">
        <ele>120.19999694824</ele>
        <time>2022-04-12T08:30:48.000Z</time>
      </trkpt>
      <trkpt lat="43.64598" lon="7.09263">
        <ele>119.80000305176</ele>
        <time>2022-04-12T08:30:51.000Z</time>
      </trkpt>
      <trkpt lat="43.64602" lon="7.09259">
        <ele>119.59999847412</ele>
        <time>2022-04-12T08:30:52.000Z</time>
      </trkpt>
      <trkpt lat="43.64606" lon="7.09257">
        <ele>118.80000305176</ele>
        <time>2022-04-12T08:30:53.000Z</time>
      </trkpt>
      <trkpt lat="43.6461" lon="7.09254">
        <ele>118.40000152588</ele>
        <time>2022-04-12T08:30:54.000Z</time>
      </trkpt>
      <trkpt lat="43.64622" lon="7.09248">
        <ele>117.19999694824</ele>
        <time>2022-04-12T08:30:57.000Z</time>
      </trkpt>
      <trkpt lat="43.64625" lon="7.09247">
        <ele>117.19999694824</ele>
        <time>2022-04-12T08:30:58.000Z</time>
      </trkpt>
      <trkpt lat="43.64635" lon="7.09244">
        <ele>116.19999694824</ele>
        <time>2022-04-12T08:31:01.000Z</time>
      </trkpt>
      <trkpt lat="43.64643" lon="7.09241">
        <ele>115.59999847412</ele>
        <time>2022-04-12T08:31:03.000Z</time>
      </trkpt>
      <trkpt lat="43.6465" lon="7.09239">
        <ele>115</ele>
        <time>2022-04-12T08:31:05.000Z</time>
      </trkpt>
      <trkpt lat="43.64654" lon="7.09238">
        <ele>114.80000305176</ele>
        <time>2022-04-12T08:31:06.000Z</time>
      </trkpt>
      <trkpt lat="43.64659" lon="7.09237">
        <ele>114.59999847412</ele>
        <time>2022-04-12T08:31:07.000Z</time>
      </trkpt>
      <trkpt lat="43.64671" lon="7.09236">
        <ele>114</ele>
        <time>2022-04-12T08:31:10.000Z</time>
      </trkpt>
      <trkpt lat="43.64682" lon="7.09236">
        <ele>112.59999847412</ele>
        <time>2022-04-12T08:31:13.000Z</time>
      </trkpt>
      <trkpt lat="43.64685" lon="7.09236">
        <ele>112.19999694824</ele>
        <time>2022-04-12T08:31:14.000Z</time>
      </trkpt>
      <trkpt lat="43.6469" lon="7.09238">
        <ele>111.19999694824</ele>
        <time>2022-04-12T08:31:16.000Z</time>
      </trkpt>
      <trkpt lat="43.64698" lon="7.09241">
        <ele>110</ele>
        <time>2022-04-12T08:31:18.000Z</time>
      </trkpt>
      <trkpt lat="43.64701" lon="7.09244">
        <ele>109.59999847412</ele>
        <time>2022-04-12T08:31:19.000Z</time>
      </trkpt>
      <trkpt lat="43.64706" lon="7.09248">
        <ele>109.19999694824</ele>
        <time>2022-04-12T08:31:21.000Z</time>
      </trkpt>
      <trkpt lat="43.64709" lon="7.09249">
        <ele>109</ele>
        <time>2022-04-12T08:31:22.000Z</time>
      </trkpt>
      <trkpt lat="43.64711" lon="7.09249">
        <ele>108.80000305176</ele>
        <time>2022-04-12T08:31:23.000Z</time>
      </trkpt>
      <trkpt lat="43.6472" lon="7.09245">
        <ele>109.19999694824</ele>
        <time>2022-04-12T08:31:27.000Z</time>
      </trkpt>
      <trkpt lat="43.64723" lon="7.09243">
        <ele>109</ele>
        <time>2022-04-12T08:31:28.000Z</time>
      </trkpt>
      <trkpt lat="43.64731" lon="7.09237">
        <ele>108.19999694824</ele>
        <time>2022-04-12T08:31:31.000Z</time>
      </trkpt>
      <trkpt lat="43.64731" lon="7.09234">
        <ele>108.19999694824</ele>
        <time>2022-04-12T08:31:32.000Z</time>
      </trkpt>
      <trkpt lat="43.64731" lon="7.09225">
        <ele>107.80000305176</ele>
        <time>2022-04-12T08:31:34.000Z</time>
      </trkpt>
      <trkpt lat="43.64731" lon="7.09221">
        <ele>107.19999694824</ele>
        <time>2022-04-12T08:31:35.000Z</time>
      </trkpt>
      <trkpt lat="43.64732" lon="7.09217">
        <ele>106.40000152588</ele>
        <time>2022-04-12T08:31:36.000Z</time>
      </trkpt>
      <trkpt lat="43.64733" lon="7.09214">
        <ele>105.80000305176</ele>
        <time>2022-04-12T08:31:37.000Z</time>
      </trkpt>
      <trkpt lat="43.64733" lon="7.0921">
        <ele>105</ele>
        <time>2022-04-12T08:31:38.000Z</time>
      </trkpt>
      <trkpt lat="43.64735" lon="7.09202">
        <ele>103.80000305176</ele>
        <time>2022-04-12T08:31:40.000Z</time>
      </trkpt>
      <trkpt lat="43.64737" lon="7.092">
        <ele>103.59999847412</ele>
        <time>2022-04-12T08:31:41.000Z</time>
      </trkpt>
      <trkpt lat="43.64737" lon="7.09191">
        <ele>102.80000305176</ele>
        <time>2022-04-12T08:31:43.000Z</time>
      </trkpt>
      <trkpt lat="43.64738" lon="7.09183">
        <ele>102.59999847412</ele>
        <time>2022-04-12T08:31:45.000Z</time>
      </trkpt>
      <trkpt lat="43.64739" lon="7.09177">
        <ele>102.59999847412</ele>
        <time>2022-04-12T08:31:47.000Z</time>
      </trkpt>
      <trkpt lat="43.64739" lon="7.0917">
        <ele>103</ele>
        <time>2022-04-12T08:31:49.000Z</time>
      </trkpt>
      <trkpt lat="43.64739" lon="7.09163">
        <ele>103.80000305176</ele>
        <time>2022-04-12T08:31:51.000Z</time>
      </trkpt>
      <trkpt lat="43.64741" lon="7.09153">
        <ele>104.80000305176</ele>
        <time>2022-04-12T08:31:54.000Z</time>
      </trkpt>
      <trkpt lat="43.6474" lon="7.09138">
        <ele>105</ele>
        <time>2022-04-12T08:31:59.000Z</time>
      </trkpt>
      <trkpt lat="43.64742" lon="7.09136">
        <ele>104.80000305176</ele>
        <time>2022-04-12T08:32:03.000Z</time>
      </trkpt>
      <trkpt lat="43.64742" lon="7.09136">
        <ele>104.59999847412</ele>
        <time>2022-04-12T08:32:15.000Z</time>
      </trkpt>
      <trkpt lat="43.64743" lon="7.09136">
        <ele>105.80000305176</ele>
        <time>2022-04-12T08:32:38.000Z</time>
      </trkpt>
      <trkpt lat="43.64743" lon="7.09136">
        <ele>105.80000305176</ele>
        <time>2022-04-12T08:32:41.000Z</time>
      </trkpt>
      <trkpt lat="43.64744" lon="7.09136">
        <ele>105.59999847412</ele>
        <time>2022-04-12T08:33:04.000Z</time>
      </trkpt>
      <trkpt lat="43.64745" lon="7.09134">
        <ele>105.59999847412</ele>
        <time>2022-04-12T08:33:16.000Z</time>
      </trkpt>
      <trkpt lat="43.64747" lon="7.09133">
        <ele>105.59999847412</ele>
        <time>2022-04-12T08:33:17.000Z</time>
      </trkpt>
      <trkpt lat="43.64757" lon="7.09119">
        <ele>106.19999694824</ele>
        <time>2022-04-12T08:33:23.000Z</time>
      </trkpt>
      <trkpt lat="43.64763" lon="7.09112">
        <ele>106.80000305176</ele>
        <time>2022-04-12T08:33:26.000Z</time>
      </trkpt>
      <trkpt lat="43.64766" lon="7.09111">
        <ele>106.80000305176</ele>
        <time>2022-04-12T08:33:27.000Z</time>
      </trkpt>
      <trkpt lat="43.64769" lon="7.09109">
        <ele>107.19999694824</ele>
        <time>2022-04-12T08:33:28.000Z</time>
      </trkpt>
      <trkpt lat="43.64771" lon="7.09104">
        <ele>107.59999847412</ele>
        <time>2022-04-12T08:33:30.000Z</time>
      </trkpt>
      <trkpt lat="43.64771" lon="7.091">
        <ele>107.80000305176</ele>
        <time>2022-04-12T08:33:31.000Z</time>
      </trkpt>
      <trkpt lat="43.64773" lon="7.09088">
        <ele>108</ele>
        <time>2022-04-12T08:33:34.000Z</time>
      </trkpt>
      <trkpt lat="43.64775" lon="7.09079">
        <ele>108.80000305176</ele>
        <time>2022-04-12T08:33:36.000Z</time>
      </trkpt>
      <trkpt lat="43.64776" lon="7.09075">
        <ele>109.19999694824</ele>
        <time>2022-04-12T08:33:37.000Z</time>
      </trkpt>
      <trkpt lat="43.64776" lon="7.09068">
        <ele>110.59999847412</ele>
        <time>2022-04-12T08:33:39.000Z</time>
      </trkpt>
      <trkpt lat="43.64777" lon="7.09065">
        <ele>111</ele>
        <time>2022-04-12T08:33:40.000Z</time>
      </trkpt>
      <trkpt lat="43.64779" lon="7.09059">
        <ele>111.80000305176</ele>
        <time>2022-04-12T08:33:42.000Z</time>
      </trkpt>
      <trkpt lat="43.64784" lon="7.09055">
        <ele>112.40000152588</ele>
        <time>2022-04-12T08:33:44.000Z</time>
      </trkpt>
      <trkpt lat="43.6479" lon="7.09055">
        <ele>113</ele>
        <time>2022-04-12T08:33:46.000Z</time>
      </trkpt>
      <trkpt lat="43.64796" lon="7.09053">
        <ele>113.40000152588</ele>
        <time>2022-04-12T08:33:48.000Z</time>
      </trkpt>
      <trkpt lat="43.64804" lon="7.09047">
        <ele>113.80000305176</ele>
        <time>2022-04-12T08:33:51.000Z</time>
      </trkpt>
      <trkpt lat="43.64807" lon="7.09046">
        <ele>114.19999694824</ele>
        <time>2022-04-12T08:33:52.000Z</time>
      </trkpt>
      <trkpt lat="43.64811" lon="7.09042">
        <ele>114.80000305176</ele>
        <time>2022-04-12T08:33:54.000Z</time>
      </trkpt>
      <trkpt lat="43.64814" lon="7.09038">
        <ele>115.40000152588</ele>
        <time>2022-04-12T08:33:56.000Z</time>
      </trkpt>
      <trkpt lat="43.64826" lon="7.09033">
        <ele>116.19999694824</ele>
        <time>2022-04-12T08:34:01.000Z</time>
      </trkpt>
      <trkpt lat="43.64828" lon="7.09033">
        <ele>116.59999847412</ele>
        <time>2022-04-12T08:34:02.000Z</time>
      </trkpt>
      <trkpt lat="43.64839" lon="7.09031">
        <ele>117</ele>
        <time>2022-04-12T08:34:06.000Z</time>
      </trkpt>
      <trkpt lat="43.64842" lon="7.09029">
        <ele>116.80000305176</ele>
        <time>2022-04-12T08:34:07.000Z</time>
      </trkpt>
      <trkpt lat="43.64851" lon="7.09028">
        <ele>117.19999694824</ele>
        <time>2022-04-12T08:34:11.000Z</time>
      </trkpt>
      <trkpt lat="43.64853" lon="7.09029">
        <ele>117.59999847412</ele>
        <time>2022-04-12T08:34:13.000Z</time>
      </trkpt>
      <trkpt lat="43.64856" lon="7.09031">
        <ele>118</ele>
        <time>2022-04-12T08:34:16.000Z</time>
      </trkpt>
      <trkpt lat="43.64862" lon="7.09032">
        <ele>118.19999694824</ele>
        <time>2022-04-12T08:34:24.000Z</time>
      </trkpt>
      <trkpt lat="43.64862" lon="7.09032">
        <ele>118.19999694824</ele>
        <time>2022-04-12T08:34:25.000Z</time>
      </trkpt>
      <trkpt lat="43.64863" lon="7.09031">
        <ele>118</ele>
        <time>2022-04-12T08:34:29.000Z</time>
      </trkpt>
      <trkpt lat="43.64862" lon="7.09031">
        <ele>117.80000305176</ele>
        <time>2022-04-12T08:34:40.000Z</time>
      </trkpt>
      <trkpt lat="43.64862" lon="7.09031">
        <ele>118.19999694824</ele>
        <time>2022-04-12T08:34:53.000Z</time>
      </trkpt>
      <trkpt lat="43.64862" lon="7.09031">
        <ele>118.59999847412</ele>
        <time>2022-04-12T08:34:57.000Z</time>
      </trkpt>
      <trkpt lat="43.64868" lon="7.09029">
        <ele>118.59999847412</ele>
        <time>2022-04-12T08:35:01.000Z</time>
      </trkpt>
      <trkpt lat="43.64874" lon="7.09027">
        <ele>118.59999847412</ele>
        <time>2022-04-12T08:35:04.000Z</time>
      </trkpt>
      <trkpt lat="43.64877" lon="7.09023">
        <ele>118.80000305176</ele>
        <time>2022-04-12T08:35:06.000Z</time>
      </trkpt>
      <trkpt lat="43.64878" lon="7.0901">
        <ele>119.40000152588</ele>
        <time>2022-04-12T08:35:11.000Z</time>
      </trkpt>
      <trkpt lat="43.64877" lon="7.08991">
        <ele>119.59999847412</ele>
        <time>2022-04-12T08:35:18.000Z</time>
      </trkpt>
      <trkpt lat="43.64875" lon="7.08967">
        <ele>120</ele>
        <time>2022-04-12T08:35:26.000Z</time>
      </trkpt>
      <trkpt lat="43.64875" lon="7.08937">
        <ele>120.40000152588</ele>
        <time>2022-04-12T08:35:35.000Z</time>
      </trkpt>
      <trkpt lat="43.64875" lon="7.08927">
        <ele>120.80000305176</ele>
        <time>2022-04-12T08:35:38.000Z</time>
      </trkpt>
      <trkpt lat="43.64875" lon="7.08914">
        <ele>122</ele>
        <time>2022-04-12T08:35:42.000Z</time>
      </trkpt>
      <trkpt lat="43.64876" lon="7.08905">
        <ele>123</ele>
        <time>2022-04-12T08:35:45.000Z</time>
      </trkpt>
      <trkpt lat="43.64878" lon="7.08892">
        <ele>123.59999847412</ele>
        <time>2022-04-12T08:35:49.000Z</time>
      </trkpt>
      <trkpt lat="43.64874" lon="7.08871">
        <ele>123.59999847412</ele>
        <time>2022-04-12T08:35:54.000Z</time>
      </trkpt>
      <trkpt lat="43.6487" lon="7.08851">
        <ele>122.80000305176</ele>
        <time>2022-04-12T08:35:57.000Z</time>
      </trkpt>
      <trkpt lat="43.64869" lon="7.08842">
        <ele>122</ele>
        <time>2022-04-12T08:35:58.000Z</time>
      </trkpt>
      <trkpt lat="43.64868" lon="7.08832">
        <ele>120.80000305176</ele>
        <time>2022-04-12T08:35:59.000Z</time>
      </trkpt>
      <trkpt lat="43.64867" lon="7.08821">
        <ele>119.80000305176</ele>
        <time>2022-04-12T08:36:00.000Z</time>
      </trkpt>
      <trkpt lat="43.64866" lon="7.08811">
        <ele>118.40000152588</ele>
        <time>2022-04-12T08:36:01.000Z</time>
      </trkpt>
      <trkpt lat="43.64867" lon="7.08802">
        <ele>117.19999694824</ele>
        <time>2022-04-12T08:36:02.000Z</time>
      </trkpt>
      <trkpt lat="43.64869" lon="7.08792">
        <ele>116</ele>
        <time>2022-04-12T08:36:03.000Z</time>
      </trkpt>
      <trkpt lat="43.64875" lon="7.08779">
        <ele>114.19999694824</ele>
        <time>2022-04-12T08:36:05.000Z</time>
      </trkpt>
      <trkpt lat="43.64878" lon="7.08763">
        <ele>113</ele>
        <time>2022-04-12T08:36:07.000Z</time>
      </trkpt>
      <trkpt lat="43.64877" lon="7.08759">
        <ele>113</ele>
        <time>2022-04-12T08:36:08.000Z</time>
      </trkpt>
      <trkpt lat="43.64869" lon="7.08746">
        <ele>114.40000152588</ele>
        <time>2022-04-12T08:36:12.000Z</time>
      </trkpt>
      <trkpt lat="43.64867" lon="7.08743">
        <ele>114.80000305176</ele>
        <time>2022-04-12T08:36:13.000Z</time>
      </trkpt>
      <trkpt lat="43.64865" lon="7.0874">
        <ele>115.40000152588</ele>
        <time>2022-04-12T08:36:14.000Z</time>
      </trkpt>
      <trkpt lat="43.64861" lon="7.08732">
        <ele>117</ele>
        <time>2022-04-12T08:36:17.000Z</time>
      </trkpt>
      <trkpt lat="43.64856" lon="7.08724">
        <ele>118.19999694824</ele>
        <time>2022-04-12T08:36:20.000Z</time>
      </trkpt>
      <trkpt lat="43.64851" lon="7.08715">
        <ele>119.19999694824</ele>
        <time>2022-04-12T08:36:23.000Z</time>
      </trkpt>
      <trkpt lat="43.64849" lon="7.08713">
        <ele>119.59999847412</ele>
        <time>2022-04-12T08:36:24.000Z</time>
      </trkpt>
      <trkpt lat="43.64845" lon="7.08707">
        <ele>120.40000152588</ele>
        <time>2022-04-12T08:36:26.000Z</time>
      </trkpt>
      <trkpt lat="43.64839" lon="7.087">
        <ele>121.19999694824</ele>
        <time>2022-04-12T08:36:29.000Z</time>
      </trkpt>
      <trkpt lat="43.64837" lon="7.08698">
        <ele>121.59999847412</ele>
        <time>2022-04-12T08:36:30.000Z</time>
      </trkpt>
      <trkpt lat="43.64831" lon="7.08692">
        <ele>122.80000305176</ele>
        <time>2022-04-12T08:36:33.000Z</time>
      </trkpt>
      <trkpt lat="43.64828" lon="7.08688">
        <ele>123.40000152588</ele>
        <time>2022-04-12T08:36:35.000Z</time>
      </trkpt>
      <trkpt lat="43.64826" lon="7.08686">
        <ele>123.80000305176</ele>
        <time>2022-04-12T08:36:36.000Z</time>
      </trkpt>
      <trkpt lat="43.64821" lon="7.08679">
        <ele>125.19999694824</ele>
        <time>2022-04-12T08:36:39.000Z</time>
      </trkpt>
      <trkpt lat="43.64819" lon="7.08674">
        <ele>126</ele>
        <time>2022-04-12T08:36:41.000Z</time>
      </trkpt>
      <trkpt lat="43.64817" lon="7.08671">
        <ele>126.40000152588</ele>
        <time>2022-04-12T08:36:42.000Z</time>
      </trkpt>
      <trkpt lat="43.64813" lon="7.08659">
        <ele>127.40000152588</ele>
        <time>2022-04-12T08:36:46.000Z</time>
      </trkpt>
      <trkpt lat="43.64812" lon="7.08655">
        <ele>127.59999847412</ele>
        <time>2022-04-12T08:36:47.000Z</time>
      </trkpt>
      <trkpt lat="43.64806" lon="7.08639">
        <ele>128.80000305176</ele>
        <time>2022-04-12T08:36:52.000Z</time>
      </trkpt>
      <trkpt lat="43.64803" lon="7.0863">
        <ele>129.80000305176</ele>
        <time>2022-04-12T08:36:55.000Z</time>
      </trkpt>
      <trkpt lat="43.64799" lon="7.08617">
        <ele>131</ele>
        <time>2022-04-12T08:36:59.000Z</time>
      </trkpt>
      <trkpt lat="43.64797" lon="7.08607">
        <ele>131.80000305176</ele>
        <time>2022-04-12T08:37:02.000Z</time>
      </trkpt>
      <trkpt lat="43.64795" lon="7.086">
        <ele>132</ele>
        <time>2022-04-12T08:37:04.000Z</time>
      </trkpt>
      <trkpt lat="43.64791" lon="7.08584">
        <ele>132.80000305176</ele>
        <time>2022-04-12T08:37:09.000Z</time>
      </trkpt>
      <trkpt lat="43.64785" lon="7.08573">
        <ele>133</ele>
        <time>2022-04-12T08:37:13.000Z</time>
      </trkpt>
      <trkpt lat="43.64784" lon="7.0857">
        <ele>133.19999694824</ele>
        <time>2022-04-12T08:37:14.000Z</time>
      </trkpt>
      <trkpt lat="43.64774" lon="7.08549">
        <ele>133.80000305176</ele>
        <time>2022-04-12T08:37:21.000Z</time>
      </trkpt>
      <trkpt lat="43.64768" lon="7.0854">
        <ele>134.19999694824</ele>
        <time>2022-04-12T08:37:24.000Z</time>
      </trkpt>
      <trkpt lat="43.64756" lon="7.08526">
        <ele>135.19999694824</ele>
        <time>2022-04-12T08:37:30.000Z</time>
      </trkpt>
      <trkpt lat="43.64755" lon="7.08524">
        <ele>135.19999694824</ele>
        <time>2022-04-12T08:37:31.000Z</time>
      </trkpt>
      <trkpt lat="43.64748" lon="7.08517">
        <ele>135.80000305176</ele>
        <time>2022-04-12T08:37:35.000Z</time>
      </trkpt>
      <trkpt lat="43.6474" lon="7.08509">
        <ele>135.80000305176</ele>
        <time>2022-04-12T08:37:39.000Z</time>
      </trkpt>
      <trkpt lat="43.64728" lon="7.08498">
        <ele>135.80000305176</ele>
        <time>2022-04-12T08:37:44.000Z</time>
      </trkpt>
      <trkpt lat="43.64721" lon="7.08485">
        <ele>135.80000305176</ele>
        <time>2022-04-12T08:37:49.000Z</time>
      </trkpt>
      <trkpt lat="43.64718" lon="7.08472">
        <ele>135</ele>
        <time>2022-04-12T08:37:53.000Z</time>
      </trkpt>
      <trkpt lat="43.64712" lon="7.08443">
        <ele>134.19999694824</ele>
        <time>2022-04-12T08:37:59.000Z</time>
      </trkpt>
      <trkpt lat="43.64712" lon="7.08438">
        <ele>134.19999694824</ele>
        <time>2022-04-12T08:38:00.000Z</time>
      </trkpt>
      <trkpt lat="43.64716" lon="7.0842">
        <ele>134.39999389648</ele>
        <time>2022-04-12T08:38:05.000Z</time>
      </trkpt>
      <trkpt lat="43.64718" lon="7.084">
        <ele>135.19999694824</ele>
        <time>2022-04-12T08:38:11.000Z</time>
      </trkpt>
      <trkpt lat="43.6471" lon="7.08384">
        <ele>135.60000610352</ele>
        <time>2022-04-12T08:38:16.000Z</time>
      </trkpt>
      <trkpt lat="43.64689" lon="7.08359">
        <ele>135.39999389648</ele>
        <time>2022-04-12T08:38:24.000Z</time>
      </trkpt>
      <trkpt lat="43.64674" lon="7.08347">
        <ele>135.80000305176</ele>
        <time>2022-04-12T08:38:30.000Z</time>
      </trkpt>
      <trkpt lat="43.64665" lon="7.08345">
        <ele>136.39999389648</ele>
        <time>2022-04-12T08:38:33.000Z</time>
      </trkpt>
      <trkpt lat="43.6466" lon="7.08345">
        <ele>136.60000610352</ele>
        <time>2022-04-12T08:38:35.000Z</time>
      </trkpt>
      <trkpt lat="43.64652" lon="7.08344">
        <ele>137.39999389648</ele>
        <time>2022-04-12T08:38:38.000Z</time>
      </trkpt>
      <trkpt lat="43.64647" lon="7.08345">
        <ele>137.39999389648</ele>
        <time>2022-04-12T08:38:40.000Z</time>
      </trkpt>
      <trkpt lat="43.64634" lon="7.08344">
        <ele>137.19999694824</ele>
        <time>2022-04-12T08:38:44.000Z</time>
      </trkpt>
      <trkpt lat="43.64611" lon="7.08345">
        <ele>137.60000610352</ele>
        <time>2022-04-12T08:38:52.000Z</time>
      </trkpt>
      <trkpt lat="43.64582" lon="7.08345">
        <ele>137.80000305176</ele>
        <time>2022-04-12T08:39:02.000Z</time>
      </trkpt>
      <trkpt lat="43.64551" lon="7.08347">
        <ele>138</ele>
        <time>2022-04-12T08:39:12.000Z</time>
      </trkpt>
      <trkpt lat="43.64528" lon="7.08346">
        <ele>138</ele>
        <time>2022-04-12T08:39:19.000Z</time>
      </trkpt>
      <trkpt lat="43.64511" lon="7.08341">
        <ele>137.60000610352</ele>
        <time>2022-04-12T08:39:24.000Z</time>
      </trkpt>
      <trkpt lat="43.64492" lon="7.08329">
        <ele>137.19999694824</ele>
        <time>2022-04-12T08:39:30.000Z</time>
      </trkpt>
      <trkpt lat="43.6448" lon="7.08321">
        <ele>137</ele>
        <time>2022-04-12T08:39:35.000Z</time>
      </trkpt>
      <trkpt lat="43.64471" lon="7.08316">
        <ele>137.19999694824</ele>
        <time>2022-04-12T08:39:38.000Z</time>
      </trkpt>
      <trkpt lat="43.64459" lon="7.08308">
        <ele>137.39999389648</ele>
        <time>2022-04-12T08:39:42.000Z</time>
      </trkpt>
      <trkpt lat="43.64451" lon="7.08302">
        <ele>137.60000610352</ele>
        <time>2022-04-12T08:39:45.000Z</time>
      </trkpt>
      <trkpt lat="43.64438" lon="7.08295">
        <ele>138.39999389648</ele>
        <time>2022-04-12T08:39:50.000Z</time>
      </trkpt>
      <trkpt lat="43.64433" lon="7.08291">
        <ele>139</ele>
        <time>2022-04-12T08:39:52.000Z</time>
      </trkpt>
      <trkpt lat="43.64426" lon="7.08285">
        <ele>139.60000610352</ele>
        <time>2022-04-12T08:39:55.000Z</time>
      </trkpt>
      <trkpt lat="43.64423" lon="7.08278">
        <ele>140.19999694824</ele>
        <time>2022-04-12T08:39:57.000Z</time>
      </trkpt>
      <trkpt lat="43.64423" lon="7.08274">
        <ele>140.39999389648</ele>
        <time>2022-04-12T08:39:58.000Z</time>
      </trkpt>
      <trkpt lat="43.64423" lon="7.08271">
        <ele>140.80000305176</ele>
        <time>2022-04-12T08:39:59.000Z</time>
      </trkpt>
      <trkpt lat="43.64429" lon="7.08256">
        <ele>141</ele>
        <time>2022-04-12T08:40:03.000Z</time>
      </trkpt>
      <trkpt lat="43.64431" lon="7.08253">
        <ele>141.19999694824</ele>
        <time>2022-04-12T08:40:04.000Z</time>
      </trkpt>
      <trkpt lat="43.64443" lon="7.08226">
        <ele>141.19999694824</ele>
        <time>2022-04-12T08:40:11.000Z</time>
      </trkpt>
      <trkpt lat="43.64451" lon="7.08194">
        <ele>141</ele>
        <time>2022-04-12T08:40:18.000Z</time>
      </trkpt>
      <trkpt lat="43.64458" lon="7.08155">
        <ele>140.80000305176</ele>
        <time>2022-04-12T08:40:26.000Z</time>
      </trkpt>
      <trkpt lat="43.64459" lon="7.08122">
        <ele>141.80000305176</ele>
        <time>2022-04-12T08:40:33.000Z</time>
      </trkpt>
      <trkpt lat="43.64458" lon="7.0811">
        <ele>142.80000305176</ele>
        <time>2022-04-12T08:40:36.000Z</time>
      </trkpt>
      <trkpt lat="43.64454" lon="7.08088">
        <ele>144</ele>
        <time>2022-04-12T08:40:41.000Z</time>
      </trkpt>
      <trkpt lat="43.64441" lon="7.08073">
        <ele>144.80000305176</ele>
        <time>2022-04-12T08:40:46.000Z</time>
      </trkpt>
      <trkpt lat="43.64438" lon="7.08071">
        <ele>145</ele>
        <time>2022-04-12T08:40:47.000Z</time>
      </trkpt>
      <trkpt lat="43.64419" lon="7.08063">
        <ele>145.60000610352</ele>
        <time>2022-04-12T08:40:53.000Z</time>
      </trkpt>
      <trkpt lat="43.64409" lon="7.08059">
        <ele>146.19999694824</ele>
        <time>2022-04-12T08:40:56.000Z</time>
      </trkpt>
      <trkpt lat="43.6439" lon="7.08056">
        <ele>146.39999389648</ele>
        <time>2022-04-12T08:41:01.000Z</time>
      </trkpt>
      <trkpt lat="43.64356" lon="7.08059">
        <ele>145</ele>
        <time>2022-04-12T08:41:09.000Z</time>
      </trkpt>
      <trkpt lat="43.64324" lon="7.08059">
        <ele>144</ele>
        <time>2022-04-12T08:41:17.000Z</time>
      </trkpt>
      <trkpt lat="43.64302" lon="7.08053">
        <ele>145.19999694824</ele>
        <time>2022-04-12T08:41:23.000Z</time>
      </trkpt>
      <trkpt lat="43.64298" lon="7.08051">
        <ele>145.39999389648</ele>
        <time>2022-04-12T08:41:24.000Z</time>
      </trkpt>
      <trkpt lat="43.64289" lon="7.08047">
        <ele>146.19999694824</ele>
        <time>2022-04-12T08:41:27.000Z</time>
      </trkpt>
      <trkpt lat="43.64275" lon="7.0804">
        <ele>146.80000305176</ele>
        <time>2022-04-12T08:41:32.000Z</time>
      </trkpt>
      <trkpt lat="43.64258" lon="7.0803">
        <ele>147.19999694824</ele>
        <time>2022-04-12T08:41:38.000Z</time>
      </trkpt>
      <trkpt lat="43.64253" lon="7.08023">
        <ele>148.19999694824</ele>
        <time>2022-04-12T08:41:41.000Z</time>
      </trkpt>
      <trkpt lat="43.64252" lon="7.08019">
        <ele>148.60000610352</ele>
        <time>2022-04-12T08:41:42.000Z</time>
      </trkpt>
      <trkpt lat="43.64249" lon="7.08014">
        <ele>149</ele>
        <time>2022-04-12T08:41:44.000Z</time>
      </trkpt>
      <trkpt lat="43.64247" lon="7.08013">
        <ele>149.19999694824</ele>
        <time>2022-04-12T08:41:45.000Z</time>
      </trkpt>
      <trkpt lat="43.64245" lon="7.0801">
        <ele>149.39999389648</ele>
        <time>2022-04-12T08:41:46.000Z</time>
      </trkpt>
      <trkpt lat="43.64234" lon="7.08001">
        <ele>150.19999694824</ele>
        <time>2022-04-12T08:41:51.000Z</time>
      </trkpt>
      <trkpt lat="43.64232" lon="7.08">
        <ele>150.60000610352</ele>
        <time>2022-04-12T08:41:52.000Z</time>
      </trkpt>
      <trkpt lat="43.64226" lon="7.07994">
        <ele>151.19999694824</ele>
        <time>2022-04-12T08:41:57.000Z</time>
      </trkpt>
      <trkpt lat="43.64218" lon="7.07985">
        <ele>150.60000610352</ele>
        <time>2022-04-12T08:42:02.000Z</time>
      </trkpt>
      <trkpt lat="43.64215" lon="7.07966">
        <ele>150</ele>
        <time>2022-04-12T08:42:07.000Z</time>
      </trkpt>
      <trkpt lat="43.64214" lon="7.07935">
        <ele>150.39999389648</ele>
        <time>2022-04-12T08:42:14.000Z</time>
      </trkpt>
      <trkpt lat="43.6421" lon="7.07902">
        <ele>150.19999694824</ele>
        <time>2022-04-12T08:42:21.000Z</time>
      </trkpt>
      <trkpt lat="43.64203" lon="7.07876">
        <ele>150.19999694824</ele>
        <time>2022-04-12T08:42:27.000Z</time>
      </trkpt>
      <trkpt lat="43.64194" lon="7.0786">
        <ele>150.19999694824</ele>
        <time>2022-04-12T08:42:31.000Z</time>
      </trkpt>
      <trkpt lat="43.64188" lon="7.07831">
        <ele>150.39999389648</ele>
        <time>2022-04-12T08:42:36.000Z</time>
      </trkpt>
      <trkpt lat="43.64185" lon="7.07813">
        <ele>150.19999694824</ele>
        <time>2022-04-12T08:42:39.000Z</time>
      </trkpt>
      <trkpt lat="43.64186" lon="7.07801">
        <ele>150.60000610352</ele>
        <time>2022-04-12T08:42:41.000Z</time>
      </trkpt>
      <trkpt lat="43.64189" lon="7.0779">
        <ele>150.60000610352</ele>
        <time>2022-04-12T08:42:44.000Z</time>
      </trkpt>
      <trkpt lat="43.6419" lon="7.07787">
        <ele>150.60000610352</ele>
        <time>2022-04-12T08:42:45.000Z</time>
      </trkpt>
      <trkpt lat="43.64194" lon="7.07771">
        <ele>151</ele>
        <time>2022-04-12T08:42:49.000Z</time>
      </trkpt>
      <trkpt lat="43.64202" lon="7.07772">
        <ele>151</ele>
        <time>2022-04-12T08:42:52.000Z</time>
      </trkpt>
      <trkpt lat="43.64207" lon="7.07777">
        <ele>150.39999389648</ele>
        <time>2022-04-12T08:42:54.000Z</time>
      </trkpt>
      <trkpt lat="43.64213" lon="7.07785">
        <ele>149.80000305176</ele>
        <time>2022-04-12T08:42:58.000Z</time>
      </trkpt>
      <trkpt lat="43.64222" lon="7.07794">
        <ele>150.60000610352</ele>
        <time>2022-04-12T08:43:03.000Z</time>
      </trkpt>
      <trkpt lat="43.64224" lon="7.07795">
        <ele>150.39999389648</ele>
        <time>2022-04-12T08:43:04.000Z</time>
      </trkpt>
      <trkpt lat="43.64234" lon="7.07799">
        <ele>149.39999389648</ele>
        <time>2022-04-12T08:43:07.000Z</time>
      </trkpt>
      <trkpt lat="43.64237" lon="7.07802">
        <ele>148.80000305176</ele>
        <time>2022-04-12T08:43:08.000Z</time>
      </trkpt>
      <trkpt lat="43.64242" lon="7.07805">
        <ele>147.80000305176</ele>
        <time>2022-04-12T08:43:10.000Z</time>
      </trkpt>
      <trkpt lat="43.64243" lon="7.07804">
        <ele>147.39999389648</ele>
        <time>2022-04-12T08:43:11.000Z</time>
      </trkpt>
      <trkpt lat="43.64245" lon="7.07796">
        <ele>146.60000610352</ele>
        <time>2022-04-12T08:43:13.000Z</time>
      </trkpt>
      <trkpt lat="43.64245" lon="7.07791">
        <ele>146.39999389648</ele>
        <time>2022-04-12T08:43:14.000Z</time>
      </trkpt>
      <trkpt lat="43.64244" lon="7.07775">
        <ele>145.39999389648</ele>
        <time>2022-04-12T08:43:17.000Z</time>
      </trkpt>
      <trkpt lat="43.64246" lon="7.07768">
        <ele>145</ele>
        <time>2022-04-12T08:43:18.000Z</time>
      </trkpt>
      <trkpt lat="43.64254" lon="7.07757">
        <ele>144.19999694824</ele>
        <time>2022-04-12T08:43:20.000Z</time>
      </trkpt>
      <trkpt lat="43.64258" lon="7.07753">
        <ele>143.60000610352</ele>
        <time>2022-04-12T08:43:21.000Z</time>
      </trkpt>
      <trkpt lat="43.64262" lon="7.07749">
        <ele>143</ele>
        <time>2022-04-12T08:43:22.000Z</time>
      </trkpt>
      <trkpt lat="43.64266" lon="7.07747">
        <ele>142.60000610352</ele>
        <time>2022-04-12T08:43:23.000Z</time>
      </trkpt>
      <trkpt lat="43.64275" lon="7.07741">
        <ele>141.80000305176</ele>
        <time>2022-04-12T08:43:25.000Z</time>
      </trkpt>
      <trkpt lat="43.64288" lon="7.07734">
        <ele>140.80000305176</ele>
        <time>2022-04-12T08:43:29.000Z</time>
      </trkpt>
      <trkpt lat="43.64291" lon="7.07733">
        <ele>140.60000610352</ele>
        <time>2022-04-12T08:43:30.000Z</time>
      </trkpt>
      <trkpt lat="43.64297" lon="7.07733">
        <ele>139.60000610352</ele>
        <time>2022-04-12T08:43:32.000Z</time>
      </trkpt>
      <trkpt lat="43.643" lon="7.07734">
        <ele>139.39999389648</ele>
        <time>2022-04-12T08:43:33.000Z</time>
      </trkpt>
      <trkpt lat="43.64303" lon="7.07733">
        <ele>138.80000305176</ele>
        <time>2022-04-12T08:43:34.000Z</time>
      </trkpt>
      <trkpt lat="43.64311" lon="7.07732">
        <ele>138.60000610352</ele>
        <time>2022-04-12T08:43:36.000Z</time>
      </trkpt>
      <trkpt lat="43.64315" lon="7.07733">
        <ele>138.19999694824</ele>
        <time>2022-04-12T08:43:37.000Z</time>
      </trkpt>
      <trkpt lat="43.6432" lon="7.07727">
        <ele>137.19999694824</ele>
        <time>2022-04-12T08:43:39.000Z</time>
      </trkpt>
      <trkpt lat="43.64322" lon="7.07724">
        <ele>136</ele>
        <time>2022-04-12T08:43:40.000Z</time>
      </trkpt>
      <trkpt lat="43.64329" lon="7.07716">
        <ele>134</ele>
        <time>2022-04-12T08:43:42.000Z</time>
      </trkpt>
      <trkpt lat="43.64337" lon="7.07711">
        <ele>132.39999389648</ele>
        <time>2022-04-12T08:43:44.000Z</time>
      </trkpt>
      <trkpt lat="43.64344" lon="7.0771">
        <ele>131.39999389648</ele>
        <time>2022-04-12T08:43:46.000Z</time>
      </trkpt>
      <trkpt lat="43.64351" lon="7.07707">
        <ele>131.39999389648</ele>
        <time>2022-04-12T08:43:48.000Z</time>
      </trkpt>
      <trkpt lat="43.64354" lon="7.07706">
        <ele>131.39999389648</ele>
        <time>2022-04-12T08:43:49.000Z</time>
      </trkpt>
      <trkpt lat="43.6436" lon="7.07702">
        <ele>131</ele>
        <time>2022-04-12T08:43:51.000Z</time>
      </trkpt>
      <trkpt lat="43.64365" lon="7.077">
        <ele>130.80000305176</ele>
        <time>2022-04-12T08:43:52.000Z</time>
      </trkpt>
      <trkpt lat="43.64376" lon="7.07692">
        <ele>130</ele>
        <time>2022-04-12T08:43:55.000Z</time>
      </trkpt>
      <trkpt lat="43.64379" lon="7.0769">
        <ele>129.60000610352</ele>
        <time>2022-04-12T08:43:56.000Z</time>
      </trkpt>
      <trkpt lat="43.64388" lon="7.07681">
        <ele>128.60000610352</ele>
        <time>2022-04-12T08:43:59.000Z</time>
      </trkpt>
      <trkpt lat="43.64392" lon="7.07677">
        <ele>128</ele>
        <time>2022-04-12T08:44:00.000Z</time>
      </trkpt>
      <trkpt lat="43.64398" lon="7.07665">
        <ele>128</ele>
        <time>2022-04-12T08:44:03.000Z</time>
      </trkpt>
      <trkpt lat="43.64399" lon="7.0766">
        <ele>127.80000305176</ele>
        <time>2022-04-12T08:44:04.000Z</time>
      </trkpt>
      <trkpt lat="43.644" lon="7.07649">
        <ele>126.80000305176</ele>
        <time>2022-04-12T08:44:06.000Z</time>
      </trkpt>
      <trkpt lat="43.64404" lon="7.07636">
        <ele>126</ele>
        <time>2022-04-12T08:44:08.000Z</time>
      </trkpt>
      <trkpt lat="43.64406" lon="7.07631">
        <ele>125.40000152588</ele>
        <time>2022-04-12T08:44:09.000Z</time>
      </trkpt>
      <trkpt lat="43.64414" lon="7.0762">
        <ele>124.40000152588</ele>
        <time>2022-04-12T08:44:12.000Z</time>
      </trkpt>
      <trkpt lat="43.64421" lon="7.07607">
        <ele>123.19999694824</ele>
        <time>2022-04-12T08:44:15.000Z</time>
      </trkpt>
      <trkpt lat="43.64423" lon="7.07603">
        <ele>122.40000152588</ele>
        <time>2022-04-12T08:44:16.000Z</time>
      </trkpt>
      <trkpt lat="43.64432" lon="7.07596">
        <ele>121.80000305176</ele>
        <time>2022-04-12T08:44:18.000Z</time>
      </trkpt>
      <trkpt lat="43.64439" lon="7.07591">
        <ele>121</ele>
        <time>2022-04-12T08:44:20.000Z</time>
      </trkpt>
      <trkpt lat="43.64444" lon="7.07588">
        <ele>121</ele>
        <time>2022-04-12T08:44:21.000Z</time>
      </trkpt>
      <trkpt lat="43.64447" lon="7.07584">
        <ele>120.40000152588</ele>
        <time>2022-04-12T08:44:22.000Z</time>
      </trkpt>
      <trkpt lat="43.64452" lon="7.07581">
        <ele>120.40000152588</ele>
        <time>2022-04-12T08:44:23.000Z</time>
      </trkpt>
      <trkpt lat="43.64457" lon="7.07573">
        <ele>120</ele>
        <time>2022-04-12T08:44:25.000Z</time>
      </trkpt>
      <trkpt lat="43.6446" lon="7.07572">
        <ele>119.40000152588</ele>
        <time>2022-04-12T08:44:26.000Z</time>
      </trkpt>
      <trkpt lat="43.64461" lon="7.07572">
        <ele>118.80000305176</ele>
        <time>2022-04-12T08:44:29.000Z</time>
      </trkpt>
      <trkpt lat="43.64463" lon="7.0757">
        <ele>118.59999847412</ele>
        <time>2022-04-12T08:44:35.000Z</time>
      </trkpt>
      <trkpt lat="43.64463" lon="7.0757">
        <ele>118.40000152588</ele>
        <time>2022-04-12T08:44:36.000Z</time>
      </trkpt>
      <trkpt lat="43.64465" lon="7.07569">
        <ele>118.19999694824</ele>
        <time>2022-04-12T08:44:40.000Z</time>
      </trkpt>
      <trkpt lat="43.64467" lon="7.07567">
        <ele>118.40000152588</ele>
        <time>2022-04-12T08:44:48.000Z</time>
      </trkpt>
      <trkpt lat="43.6447" lon="7.07567">
        <ele>118</ele>
        <time>2022-04-12T08:45:01.000Z</time>
      </trkpt>
      <trkpt lat="43.64473" lon="7.07566">
        <ele>118.40000152588</ele>
        <time>2022-04-12T08:45:18.000Z</time>
      </trkpt>
      <trkpt lat="43.64474" lon="7.07566">
        <ele>118.80000305176</ele>
        <time>2022-04-12T08:45:28.000Z</time>
      </trkpt>
      <trkpt lat="43.64476" lon="7.07566">
        <ele>118.59999847412</ele>
        <time>2022-04-12T08:45:38.000Z</time>
      </trkpt>
      <trkpt lat="43.64478" lon="7.07567">
        <ele>118.59999847412</ele>
        <time>2022-04-12T08:45:48.000Z</time>
      </trkpt>
      <trkpt lat="43.64481" lon="7.07566">
        <ele>118.59999847412</ele>
        <time>2022-04-12T08:45:59.000Z</time>
      </trkpt>
      <trkpt lat="43.64484" lon="7.07566">
        <ele>118.59999847412</ele>
        <time>2022-04-12T08:46:17.000Z</time>
      </trkpt>
      <trkpt lat="43.64487" lon="7.07566">
        <ele>118.19999694824</ele>
        <time>2022-04-12T08:46:37.000Z</time>
      </trkpt>
      <trkpt lat="43.64487" lon="7.07566">
        <ele>118.40000152588</ele>
        <time>2022-04-12T08:46:52.000Z</time>
      </trkpt>
      <trkpt lat="43.64486" lon="7.07564">
        <ele>117.80000305176</ele>
        <time>2022-04-12T08:47:08.000Z</time>
      </trkpt>
      <trkpt lat="43.64485" lon="7.07563">
        <ele>117.19999694824</ele>
        <time>2022-04-12T08:47:20.000Z</time>
      </trkpt>
      <trkpt lat="43.64484" lon="7.07563">
        <ele>117.19999694824</ele>
        <time>2022-04-12T08:47:21.000Z</time>
      </trkpt>
      <trkpt lat="43.64483" lon="7.07562">
        <ele>116.59999847412</ele>
        <time>2022-04-12T08:47:32.000Z</time>
      </trkpt>
      <trkpt lat="43.64483" lon="7.07562">
        <ele>117.40000152588</ele>
        <time>2022-04-12T08:47:42.000Z</time>
      </trkpt>
      <trkpt lat="43.64481" lon="7.07562">
        <ele>117.19999694824</ele>
        <time>2022-04-12T08:47:51.000Z</time>
      </trkpt>
      <trkpt lat="43.64481" lon="7.07561">
        <ele>118</ele>
        <time>2022-04-12T08:47:59.000Z</time>
      </trkpt>
      <trkpt lat="43.64481" lon="7.07561">
        <ele>117.40000152588</ele>
        <time>2022-04-12T08:48:04.000Z</time>
      </trkpt>
      <trkpt lat="43.64481" lon="7.07561">
        <ele>118</ele>
        <time>2022-04-12T08:48:13.000Z</time>
      </trkpt>
      <trkpt lat="43.64483" lon="7.07561">
        <ele>118.19999694824</ele>
        <time>2022-04-12T08:48:16.000Z</time>
      </trkpt>
      <trkpt lat="43.64489" lon="7.07565">
        <ele>118.40000152588</ele>
        <time>2022-04-12T08:48:18.000Z</time>
      </trkpt>
      <trkpt lat="43.64498" lon="7.07571">
        <ele>117.59999847412</ele>
        <time>2022-04-12T08:48:22.000Z</time>
      </trkpt>
      <trkpt lat="43.64501" lon="7.07573">
        <ele>117.19999694824</ele>
        <time>2022-04-12T08:48:23.000Z</time>
      </trkpt>
      <trkpt lat="43.64506" lon="7.07576">
        <ele>116</ele>
        <time>2022-04-12T08:48:25.000Z</time>
      </trkpt>
      <trkpt lat="43.64509" lon="7.07577">
        <ele>115.40000152588</ele>
        <time>2022-04-12T08:48:26.000Z</time>
      </trkpt>
      <trkpt lat="43.64511" lon="7.07578">
        <ele>114.80000305176</ele>
        <time>2022-04-12T08:48:27.000Z</time>
      </trkpt>
      <trkpt lat="43.64517" lon="7.07582">
        <ele>113.59999847412</ele>
        <time>2022-04-12T08:48:29.000Z</time>
      </trkpt>
      <trkpt lat="43.64524" lon="7.07591">
        <ele>112.59999847412</ele>
        <time>2022-04-12T08:48:31.000Z</time>
      </trkpt>
      <trkpt lat="43.64531" lon="7.076">
        <ele>111.80000305176</ele>
        <time>2022-04-12T08:48:33.000Z</time>
      </trkpt>
      <trkpt lat="43.64534" lon="7.07606">
        <ele>111.59999847412</ele>
        <time>2022-04-12T08:48:34.000Z</time>
      </trkpt>
      <trkpt lat="43.64536" lon="7.07615">
        <ele>111.40000152588</ele>
        <time>2022-04-12T08:48:36.000Z</time>
      </trkpt>
      <trkpt lat="43.64537" lon="7.07628">
        <ele>111.19999694824</ele>
        <time>2022-04-12T08:48:38.000Z</time>
      </trkpt>
      <trkpt lat="43.64544" lon="7.07644">
        <ele>111.40000152588</ele>
        <time>2022-04-12T08:48:41.000Z</time>
      </trkpt>
      <trkpt lat="43.64546" lon="7.07651">
        <ele>111.19999694824</ele>
        <time>2022-04-12T08:48:42.000Z</time>
      </trkpt>
      <trkpt lat="43.64555" lon="7.07669">
        <ele>109.80000305176</ele>
        <time>2022-04-12T08:48:45.000Z</time>
      </trkpt>
      <trkpt lat="43.64561" lon="7.07672">
        <ele>108.40000152588</ele>
        <time>2022-04-12T08:48:47.000Z</time>
      </trkpt>
      <trkpt lat="43.64565" lon="7.0767">
        <ele>107.80000305176</ele>
        <time>2022-04-12T08:48:48.000Z</time>
      </trkpt>
      <trkpt lat="43.64571" lon="7.07673">
        <ele>107.19999694824</ele>
        <time>2022-04-12T08:48:49.000Z</time>
      </trkpt>
      <trkpt lat="43.64573" lon="7.07675">
        <ele>106.80000305176</ele>
        <time>2022-04-12T08:48:50.000Z</time>
      </trkpt>
      <trkpt lat="43.64576" lon="7.07674">
        <ele>106.40000152588</ele>
        <time>2022-04-12T08:48:51.000Z</time>
      </trkpt>
      <trkpt lat="43.6458" lon="7.07672">
        <ele>106</ele>
        <time>2022-04-12T08:48:52.000Z</time>
      </trkpt>
      <trkpt lat="43.64583" lon="7.0767">
        <ele>105.59999847412</ele>
        <time>2022-04-12T08:48:53.000Z</time>
      </trkpt>
      <trkpt lat="43.64589" lon="7.07668">
        <ele>105</ele>
        <time>2022-04-12T08:48:54.000Z</time>
      </trkpt>
      <trkpt lat="43.64596" lon="7.07662">
        <ele>104.19999694824</ele>
        <time>2022-04-12T08:48:56.000Z</time>
      </trkpt>
      <trkpt lat="43.646" lon="7.07657">
        <ele>103.80000305176</ele>
        <time>2022-04-12T08:48:57.000Z</time>
      </trkpt>
      <trkpt lat="43.6461" lon="7.07647">
        <ele>103.19999694824</ele>
        <time>2022-04-12T08:49:00.000Z</time>
      </trkpt>
      <trkpt lat="43.64612" lon="7.07645">
        <ele>102.80000305176</ele>
        <time>2022-04-12T08:49:02.000Z</time>
      </trkpt>
      <trkpt lat="43.64611" lon="7.07645">
        <ele>102.59999847412</ele>
        <time>2022-04-12T08:49:03.000Z</time>
      </trkpt>
      <trkpt lat="43.64613" lon="7.07645">
        <ele>102.80000305176</ele>
        <time>2022-04-12T08:49:14.000Z</time>
      </trkpt>
      <trkpt lat="43.64613" lon="7.07644">
        <ele>102.59999847412</ele>
        <time>2022-04-12T08:49:22.000Z</time>
      </trkpt>
      <trkpt lat="43.64612" lon="7.07644">
        <ele>102.19999694824</ele>
        <time>2022-04-12T08:49:33.000Z</time>
      </trkpt>
      <trkpt lat="43.64615" lon="7.07642">
        <ele>102</ele>
        <time>2022-04-12T08:49:46.000Z</time>
      </trkpt>
      <trkpt lat="43.64614" lon="7.07643">
        <ele>102.19999694824</ele>
        <time>2022-04-12T08:49:56.000Z</time>
      </trkpt>
      <trkpt lat="43.64615" lon="7.07642">
        <ele>101.80000305176</ele>
        <time>2022-04-12T08:50:02.000Z</time>
      </trkpt>
      <trkpt lat="43.64615" lon="7.07642">
        <ele>101.59999847412</ele>
        <time>2022-04-12T08:50:03.000Z</time>
      </trkpt>
      <trkpt lat="43.64615" lon="7.07642">
        <ele>102.19999694824</ele>
        <time>2022-04-12T08:50:11.000Z</time>
      </trkpt>
      <trkpt lat="43.64616" lon="7.07639">
        <ele>102.59999847412</ele>
        <time>2022-04-12T08:50:22.000Z</time>
      </trkpt>
      <trkpt lat="43.64615" lon="7.07637">
        <ele>102</ele>
        <time>2022-04-12T08:50:35.000Z</time>
      </trkpt>
      <trkpt lat="43.64618" lon="7.07636">
        <ele>102.59999847412</ele>
        <time>2022-04-12T08:50:45.000Z</time>
      </trkpt>
      <trkpt lat="43.64618" lon="7.07636">
        <ele>102</ele>
        <time>2022-04-12T08:50:54.000Z</time>
      </trkpt>
      <trkpt lat="43.64621" lon="7.07638">
        <ele>102</ele>
        <time>2022-04-12T08:50:59.000Z</time>
      </trkpt>
      <trkpt lat="43.6462" lon="7.07642">
        <ele>102</ele>
        <time>2022-04-12T08:51:08.000Z</time>
      </trkpt>
      <trkpt lat="43.64618" lon="7.07645">
        <ele>102.19999694824</ele>
        <time>2022-04-12T08:51:10.000Z</time>
      </trkpt>
      <trkpt lat="43.64614" lon="7.07648">
        <ele>102.19999694824</ele>
        <time>2022-04-12T08:51:12.000Z</time>
      </trkpt>
      <trkpt lat="43.64613" lon="7.0765">
        <ele>102.19999694824</ele>
        <time>2022-04-12T08:51:13.000Z</time>
      </trkpt>
      <trkpt lat="43.64607" lon="7.07656">
        <ele>102.19999694824</ele>
        <time>2022-04-12T08:51:16.000Z</time>
      </trkpt>
      <trkpt lat="43.64602" lon="7.07661">
        <ele>102.40000152588</ele>
        <time>2022-04-12T08:51:18.000Z</time>
      </trkpt>
      <trkpt lat="43.64592" lon="7.07667">
        <ele>102.80000305176</ele>
        <time>2022-04-12T08:51:21.000Z</time>
      </trkpt>
      <trkpt lat="43.6458" lon="7.07672">
        <ele>104</ele>
        <time>2022-04-12T08:51:25.000Z</time>
      </trkpt>
      <trkpt lat="43.64578" lon="7.07671">
        <ele>104.19999694824</ele>
        <time>2022-04-12T08:51:26.000Z</time>
      </trkpt>
      <trkpt lat="43.64571" lon="7.07669">
        <ele>105</ele>
        <time>2022-04-12T08:51:28.000Z</time>
      </trkpt>
      <trkpt lat="43.64568" lon="7.07669">
        <ele>105.19999694824</ele>
        <time>2022-04-12T08:51:29.000Z</time>
      </trkpt>
      <trkpt lat="43.64566" lon="7.0767">
        <ele>105.19999694824</ele>
        <time>2022-04-12T08:51:30.000Z</time>
      </trkpt>
      <trkpt lat="43.64564" lon="7.07669">
        <ele>105.40000152588</ele>
        <time>2022-04-12T08:51:31.000Z</time>
      </trkpt>
      <trkpt lat="43.64559" lon="7.07663">
        <ele>106</ele>
        <time>2022-04-12T08:51:33.000Z</time>
      </trkpt>
      <trkpt lat="43.64552" lon="7.07649">
        <ele>107.19999694824</ele>
        <time>2022-04-12T08:51:37.000Z</time>
      </trkpt>
      <trkpt lat="43.64548" lon="7.07641">
        <ele>108.59999847412</ele>
        <time>2022-04-12T08:51:40.000Z</time>
      </trkpt>
      <trkpt lat="43.64544" lon="7.07634">
        <ele>110.19999694824</ele>
        <time>2022-04-12T08:51:42.000Z</time>
      </trkpt>
      <trkpt lat="43.64543" lon="7.07628">
        <ele>110.80000305176</ele>
        <time>2022-04-12T08:51:44.000Z</time>
      </trkpt>
      <trkpt lat="43.64542" lon="7.07619">
        <ele>111.40000152588</ele>
        <time>2022-04-12T08:51:46.000Z</time>
      </trkpt>
      <trkpt lat="43.64537" lon="7.0761">
        <ele>111.59999847412</ele>
        <time>2022-04-12T08:51:49.000Z</time>
      </trkpt>
      <trkpt lat="43.64534" lon="7.07606">
        <ele>111.59999847412</ele>
        <time>2022-04-12T08:51:50.000Z</time>
      </trkpt>
      <trkpt lat="43.64525" lon="7.07594">
        <ele>111.59999847412</ele>
        <time>2022-04-12T08:51:54.000Z</time>
      </trkpt>
      <trkpt lat="43.64518" lon="7.07589">
        <ele>112.40000152588</ele>
        <time>2022-04-12T08:51:58.000Z</time>
      </trkpt>
      <trkpt lat="43.64518" lon="7.07589">
        <ele>112.40000152588</ele>
        <time>2022-04-12T08:51:59.000Z</time>
      </trkpt>
      <trkpt lat="43.64516" lon="7.07588">
        <ele>112.80000305176</ele>
        <time>2022-04-12T08:52:03.000Z</time>
      </trkpt>
      <trkpt lat="43.64516" lon="7.07587">
        <ele>113.40000152588</ele>
        <time>2022-04-12T08:52:08.000Z</time>
      </trkpt>
      <trkpt lat="43.64516" lon="7.07587">
        <ele>113.59999847412</ele>
        <time>2022-04-12T08:52:10.000Z</time>
      </trkpt>
      <trkpt lat="43.64514" lon="7.07586">
        <ele>113.40000152588</ele>
        <time>2022-04-12T08:52:13.000Z</time>
      </trkpt>
      <trkpt lat="43.64511" lon="7.07585">
        <ele>113</ele>
        <time>2022-04-12T08:52:16.000Z</time>
      </trkpt>
      <trkpt lat="43.64509" lon="7.07582">
        <ele>113.40000152588</ele>
        <time>2022-04-12T08:52:21.000Z</time>
      </trkpt>
      <trkpt lat="43.64508" lon="7.07581">
        <ele>113.40000152588</ele>
        <time>2022-04-12T08:52:27.000Z</time>
      </trkpt>
      <trkpt lat="43.64506" lon="7.07581">
        <ele>112.80000305176</ele>
        <time>2022-04-12T08:52:34.000Z</time>
      </trkpt>
      <trkpt lat="43.64505" lon="7.07581">
        <ele>112.59999847412</ele>
        <time>2022-04-12T08:52:41.000Z</time>
      </trkpt>
      <trkpt lat="43.64505" lon="7.0758">
        <ele>113.80000305176</ele>
        <time>2022-04-12T08:52:49.000Z</time>
      </trkpt>
      <trkpt lat="43.64505" lon="7.07577">
        <ele>113.80000305176</ele>
        <time>2022-04-12T08:52:58.000Z</time>
      </trkpt>
      <trkpt lat="43.64505" lon="7.07576">
        <ele>114</ele>
        <time>2022-04-12T08:53:05.000Z</time>
      </trkpt>
      <trkpt lat="43.64505" lon="7.07575">
        <ele>114</ele>
        <time>2022-04-12T08:53:19.000Z</time>
      </trkpt>
      <trkpt lat="43.64504" lon="7.07574">
        <ele>114.19999694824</ele>
        <time>2022-04-12T08:53:34.000Z</time>
      </trkpt>
      <trkpt lat="43.64504" lon="7.07573">
        <ele>114.40000152588</ele>
        <time>2022-04-12T08:53:42.000Z</time>
      </trkpt>
      <trkpt lat="43.64505" lon="7.07573">
        <ele>114</ele>
        <time>2022-04-12T08:53:47.000Z</time>
      </trkpt>
      <trkpt lat="43.64506" lon="7.07576">
        <ele>113.80000305176</ele>
        <time>2022-04-12T08:53:54.000Z</time>
      </trkpt>
      <trkpt lat="43.64506" lon="7.07577">
        <ele>114</ele>
        <time>2022-04-12T08:54:00.000Z</time>
      </trkpt>
      <trkpt lat="43.64509" lon="7.07576">
        <ele>114.19999694824</ele>
        <time>2022-04-12T08:54:06.000Z</time>
      </trkpt>
      <trkpt lat="43.64509" lon="7.07576">
        <ele>114.19999694824</ele>
        <time>2022-04-12T08:54:12.000Z</time>
      </trkpt>
      <trkpt lat="43.64508" lon="7.07577">
        <ele>114</ele>
        <time>2022-04-12T08:54:19.000Z</time>
      </trkpt>
      <trkpt lat="43.64507" lon="7.07576">
        <ele>114.19999694824</ele>
        <time>2022-04-12T08:54:25.000Z</time>
      </trkpt>
      <trkpt lat="43.64507" lon="7.07575">
        <ele>114.40000152588</ele>
        <time>2022-04-12T08:54:28.000Z</time>
      </trkpt>
      <trkpt lat="43.64507" lon="7.07575">
        <ele>115</ele>
        <time>2022-04-12T08:54:35.000Z</time>
      </trkpt>
      <trkpt lat="43.64506" lon="7.07574">
        <ele>114.80000305176</ele>
        <time>2022-04-12T08:54:42.000Z</time>
      </trkpt>
      <trkpt lat="43.64507" lon="7.07574">
        <ele>114.80000305176</ele>
        <time>2022-04-12T08:54:53.000Z</time>
      </trkpt>
      <trkpt lat="43.64506" lon="7.07574">
        <ele>114.59999847412</ele>
        <time>2022-04-12T08:55:02.000Z</time>
      </trkpt>
      <trkpt lat="43.64506" lon="7.07574">
        <ele>114.80000305176</ele>
        <time>2022-04-12T08:55:13.000Z</time>
      </trkpt>
      <trkpt lat="43.64505" lon="7.07574">
        <ele>114.40000152588</ele>
        <time>2022-04-12T08:55:22.000Z</time>
      </trkpt>
      <trkpt lat="43.64505" lon="7.07573">
        <ele>114.19999694824</ele>
        <time>2022-04-12T08:55:31.000Z</time>
      </trkpt>
      <trkpt lat="43.64506" lon="7.07574">
        <ele>114.59999847412</ele>
        <time>2022-04-12T08:55:38.000Z</time>
      </trkpt>
      <trkpt lat="43.64507" lon="7.07574">
        <ele>114.40000152588</ele>
        <time>2022-04-12T08:55:45.000Z</time>
      </trkpt>
      <trkpt lat="43.64507" lon="7.07574">
        <ele>114.80000305176</ele>
        <time>2022-04-12T08:55:51.000Z</time>
      </trkpt>
      <trkpt lat="43.64506" lon="7.07574">
        <ele>114</ele>
        <time>2022-04-12T08:55:59.000Z</time>
      </trkpt>
      <trkpt lat="43.64506" lon="7.07574">
        <ele>114.40000152588</ele>
        <time>2022-04-12T08:56:08.000Z</time>
      </trkpt>
      <trkpt lat="43.64505" lon="7.07575">
        <ele>114.59999847412</ele>
        <time>2022-04-12T08:56:13.000Z</time>
      </trkpt>
      <trkpt lat="43.64506" lon="7.07575">
        <ele>113.80000305176</ele>
        <time>2022-04-12T08:56:19.000Z</time>
      </trkpt>
      <trkpt lat="43.64508" lon="7.07576">
        <ele>113.80000305176</ele>
        <time>2022-04-12T08:56:25.000Z</time>
      </trkpt>
      <trkpt lat="43.64511" lon="7.07575">
        <ele>113.40000152588</ele>
        <time>2022-04-12T08:56:31.000Z</time>
      </trkpt>
      <trkpt lat="43.64513" lon="7.07575">
        <ele>113.40000152588</ele>
        <time>2022-04-12T08:56:33.000Z</time>
      </trkpt>
      <trkpt lat="43.64515" lon="7.07575">
        <ele>113</ele>
        <time>2022-04-12T08:56:39.000Z</time>
      </trkpt>
      <trkpt lat="43.64517" lon="7.07577">
        <ele>112.80000305176</ele>
        <time>2022-04-12T08:56:48.000Z</time>
      </trkpt>
      <trkpt lat="43.6452" lon="7.07578">
        <ele>112.80000305176</ele>
        <time>2022-04-12T08:56:56.000Z</time>
      </trkpt>
      <trkpt lat="43.64519" lon="7.07578">
        <ele>112.59999847412</ele>
        <time>2022-04-12T08:57:06.000Z</time>
      </trkpt>
      <trkpt lat="43.64519" lon="7.07576">
        <ele>112.59999847412</ele>
        <time>2022-04-12T08:57:19.000Z</time>
      </trkpt>
      <trkpt lat="43.64518" lon="7.07575">
        <ele>112.59999847412</ele>
        <time>2022-04-12T08:57:28.000Z</time>
      </trkpt>
      <trkpt lat="43.64517" lon="7.07575">
        <ele>112.40000152588</ele>
        <time>2022-04-12T08:57:29.000Z</time>
      </trkpt>
      <trkpt lat="43.64514" lon="7.07576">
        <ele>112.40000152588</ele>
        <time>2022-04-12T08:57:40.000Z</time>
      </trkpt>
      <trkpt lat="43.64515" lon="7.07576">
        <ele>112.59999847412</ele>
        <time>2022-04-12T08:57:51.000Z</time>
      </trkpt>
      <trkpt lat="43.64515" lon="7.07575">
        <ele>112.40000152588</ele>
        <time>2022-04-12T08:57:59.000Z</time>
      </trkpt>
      <trkpt lat="43.64516" lon="7.07578">
        <ele>112.19999694824</ele>
        <time>2022-04-12T08:58:06.000Z</time>
      </trkpt>
      <trkpt lat="43.64518" lon="7.07579">
        <ele>113.40000152588</ele>
        <time>2022-04-12T08:58:13.000Z</time>
      </trkpt>
      <trkpt lat="43.64518" lon="7.07579">
        <ele>113.59999847412</ele>
        <time>2022-04-12T08:58:14.000Z</time>
      </trkpt>
      <trkpt lat="43.6452" lon="7.07579">
        <ele>113.40000152588</ele>
        <time>2022-04-12T08:58:18.000Z</time>
      </trkpt>
      <trkpt lat="43.64521" lon="7.07581">
        <ele>113.40000152588</ele>
        <time>2022-04-12T08:58:19.000Z</time>
      </trkpt>
      <trkpt lat="43.64525" lon="7.07587">
        <ele>113</ele>
        <time>2022-04-12T08:58:22.000Z</time>
      </trkpt>
      <trkpt lat="43.64534" lon="7.07598">
        <ele>112.40000152588</ele>
        <time>2022-04-12T08:58:26.000Z</time>
      </trkpt>
      <trkpt lat="43.64539" lon="7.07618">
        <ele>111.80000305176</ele>
        <time>2022-04-12T08:58:30.000Z</time>
      </trkpt>
      <trkpt lat="43.64538" lon="7.07626">
        <ele>111.40000152588</ele>
        <time>2022-04-12T08:58:32.000Z</time>
      </trkpt>
      <trkpt lat="43.64542" lon="7.07636">
        <ele>111.40000152588</ele>
        <time>2022-04-12T08:58:34.000Z</time>
      </trkpt>
      <trkpt lat="43.64547" lon="7.07648">
        <ele>111.19999694824</ele>
        <time>2022-04-12T08:58:36.000Z</time>
      </trkpt>
      <trkpt lat="43.64549" lon="7.07656">
        <ele>111.19999694824</ele>
        <time>2022-04-12T08:58:37.000Z</time>
      </trkpt>
      <trkpt lat="43.64551" lon="7.07662">
        <ele>110.59999847412</ele>
        <time>2022-04-12T08:58:38.000Z</time>
      </trkpt>
      <trkpt lat="43.64555" lon="7.07668">
        <ele>110</ele>
        <time>2022-04-12T08:58:39.000Z</time>
      </trkpt>
      <trkpt lat="43.64561" lon="7.07672">
        <ele>108.59999847412</ele>
        <time>2022-04-12T08:58:41.000Z</time>
      </trkpt>
      <trkpt lat="43.64569" lon="7.07674">
        <ele>107.19999694824</ele>
        <time>2022-04-12T08:58:43.000Z</time>
      </trkpt>
      <trkpt lat="43.64573" lon="7.07677">
        <ele>106.80000305176</ele>
        <time>2022-04-12T08:58:44.000Z</time>
      </trkpt>
      <trkpt lat="43.64576" lon="7.07676">
        <ele>106.19999694824</ele>
        <time>2022-04-12T08:58:45.000Z</time>
      </trkpt>
      <trkpt lat="43.64583" lon="7.07673">
        <ele>105.40000152588</ele>
        <time>2022-04-12T08:58:47.000Z</time>
      </trkpt>
      <trkpt lat="43.64588" lon="7.07671">
        <ele>104.80000305176</ele>
        <time>2022-04-12T08:58:48.000Z</time>
      </trkpt>
      <trkpt lat="43.64594" lon="7.07668">
        <ele>104</ele>
        <time>2022-04-12T08:58:50.000Z</time>
      </trkpt>
      <trkpt lat="43.64597" lon="7.07666">
        <ele>103.59999847412</ele>
        <time>2022-04-12T08:58:51.000Z</time>
      </trkpt>
      <trkpt lat="43.646" lon="7.07662">
        <ele>103.19999694824</ele>
        <time>2022-04-12T08:58:52.000Z</time>
      </trkpt>
      <trkpt lat="43.64607" lon="7.07651">
        <ele>102.80000305176</ele>
        <time>2022-04-12T08:58:56.000Z</time>
      </trkpt>
      <trkpt lat="43.6461" lon="7.07648">
        <ele>102.59999847412</ele>
        <time>2022-04-12T08:58:58.000Z</time>
      </trkpt>
      <trkpt lat="43.6461" lon="7.07647">
        <ele>102.40000152588</ele>
        <time>2022-04-12T08:59:00.000Z</time>
      </trkpt>
      <trkpt lat="43.64613" lon="7.07645">
        <ele>102.59999847412</ele>
        <time>2022-04-12T08:59:07.000Z</time>
      </trkpt>
      <trkpt lat="43.64614" lon="7.07646">
        <ele>101.80000305176</ele>
        <time>2022-04-12T08:59:12.000Z</time>
      </trkpt>
      <trkpt lat="43.64615" lon="7.07645">
        <ele>101.40000152588</ele>
        <time>2022-04-12T08:59:14.000Z</time>
      </trkpt>
      <trkpt lat="43.64614" lon="7.07644">
        <ele>101.59999847412</ele>
        <time>2022-04-12T08:59:19.000Z</time>
      </trkpt>
      <trkpt lat="43.64614" lon="7.07643">
        <ele>101.40000152588</ele>
        <time>2022-04-12T08:59:27.000Z</time>
      </trkpt>
      <trkpt lat="43.64615" lon="7.07642">
        <ele>101.19999694824</ele>
        <time>2022-04-12T08:59:37.000Z</time>
      </trkpt>
      <trkpt lat="43.64613" lon="7.07641">
        <ele>101.19999694824</ele>
        <time>2022-04-12T08:59:44.000Z</time>
      </trkpt>
      <trkpt lat="43.64613" lon="7.0764">
        <ele>101.80000305176</ele>
        <time>2022-04-12T08:59:52.000Z</time>
      </trkpt>
      <trkpt lat="43.64614" lon="7.0764">
        <ele>101.80000305176</ele>
        <time>2022-04-12T09:00:00.000Z</time>
      </trkpt>
      <trkpt lat="43.64616" lon="7.07644">
        <ele>101.59999847412</ele>
        <time>2022-04-12T09:00:05.000Z</time>
      </trkpt>
      <trkpt lat="43.64614" lon="7.07643">
        <ele>102.19999694824</ele>
        <time>2022-04-12T09:00:12.000Z</time>
      </trkpt>
      <trkpt lat="43.64614" lon="7.07641">
        <ele>102.59999847412</ele>
        <time>2022-04-12T09:00:14.000Z</time>
      </trkpt>
      <trkpt lat="43.64613" lon="7.0764">
        <ele>102.80000305176</ele>
        <time>2022-04-12T09:00:15.000Z</time>
      </trkpt>
      <trkpt lat="43.64612" lon="7.07639">
        <ele>102.80000305176</ele>
        <time>2022-04-12T09:00:16.000Z</time>
      </trkpt>
      <trkpt lat="43.64605" lon="7.07631">
        <ele>102.80000305176</ele>
        <time>2022-04-12T09:00:21.000Z</time>
      </trkpt>
      <trkpt lat="43.64601" lon="7.07629">
        <ele>103.59999847412</ele>
        <time>2022-04-12T09:00:25.000Z</time>
      </trkpt>
      <trkpt lat="43.64601" lon="7.07628">
        <ele>104</ele>
        <time>2022-04-12T09:00:26.000Z</time>
      </trkpt>
      <trkpt lat="43.64598" lon="7.07628">
        <ele>104.80000305176</ele>
        <time>2022-04-12T09:00:29.000Z</time>
      </trkpt>
      <trkpt lat="43.64594" lon="7.07627">
        <ele>104.80000305176</ele>
        <time>2022-04-12T09:00:31.000Z</time>
      </trkpt>
      <trkpt lat="43.64588" lon="7.0762">
        <ele>104.80000305176</ele>
        <time>2022-04-12T09:00:36.000Z</time>
      </trkpt>
      <trkpt lat="43.64586" lon="7.07616">
        <ele>104.59999847412</ele>
        <time>2022-04-12T09:00:38.000Z</time>
      </trkpt>
      <trkpt lat="43.64587" lon="7.0761">
        <ele>104.80000305176</ele>
        <time>2022-04-12T09:00:40.000Z</time>
      </trkpt>
      <trkpt lat="43.64586" lon="7.07597">
        <ele>105.19999694824</ele>
        <time>2022-04-12T09:00:44.000Z</time>
      </trkpt>
      <trkpt lat="43.64587" lon="7.07594">
        <ele>105.19999694824</ele>
        <time>2022-04-12T09:00:45.000Z</time>
      </trkpt>
      <trkpt lat="43.64587" lon="7.07591">
        <ele>105.40000152588</ele>
        <time>2022-04-12T09:00:46.000Z</time>
      </trkpt>
      <trkpt lat="43.64586" lon="7.07585">
        <ele>105.80000305176</ele>
        <time>2022-04-12T09:00:48.000Z</time>
      </trkpt>
      <trkpt lat="43.64587" lon="7.07582">
        <ele>106</ele>
        <time>2022-04-12T09:00:49.000Z</time>
      </trkpt>
      <trkpt lat="43.64587" lon="7.07574">
        <ele>106.59999847412</ele>
        <time>2022-04-12T09:00:51.000Z</time>
      </trkpt>
      <trkpt lat="43.64589" lon="7.07569">
        <ele>106.80000305176</ele>
        <time>2022-04-12T09:00:53.000Z</time>
      </trkpt>
      <trkpt lat="43.64589" lon="7.07566">
        <ele>107.19999694824</ele>
        <time>2022-04-12T09:00:54.000Z</time>
      </trkpt>
      <trkpt lat="43.64588" lon="7.07564">
        <ele>107.59999847412</ele>
        <time>2022-04-12T09:00:55.000Z</time>
      </trkpt>
      <trkpt lat="43.64588" lon="7.0756">
        <ele>108.59999847412</ele>
        <time>2022-04-12T09:00:57.000Z</time>
      </trkpt>
      <trkpt lat="43.64587" lon="7.07554">
        <ele>109.19999694824</ele>
        <time>2022-04-12T09:01:02.000Z</time>
      </trkpt>
      <trkpt lat="43.64587" lon="7.07553">
        <ele>109.40000152588</ele>
        <time>2022-04-12T09:01:11.000Z</time>
      </trkpt>
      <trkpt lat="43.64587" lon="7.07553">
        <ele>109.80000305176</ele>
        <time>2022-04-12T09:01:13.000Z</time>
      </trkpt>
      <trkpt lat="43.64587" lon="7.07551">
        <ele>110</ele>
        <time>2022-04-12T09:01:20.000Z</time>
      </trkpt>
      <trkpt lat="43.64586" lon="7.07547">
        <ele>109.59999847412</ele>
        <time>2022-04-12T09:01:23.000Z</time>
      </trkpt>
      <trkpt lat="43.64585" lon="7.07545">
        <ele>109.80000305176</ele>
        <time>2022-04-12T09:01:24.000Z</time>
      </trkpt>
      <trkpt lat="43.64587" lon="7.07542">
        <ele>109.80000305176</ele>
        <time>2022-04-12T09:01:28.000Z</time>
      </trkpt>
      <trkpt lat="43.64588" lon="7.07539">
        <ele>111</ele>
        <time>2022-04-12T09:01:32.000Z</time>
      </trkpt>
      <trkpt lat="43.64588" lon="7.07538">
        <ele>111.40000152588</ele>
        <time>2022-04-12T09:01:33.000Z</time>
      </trkpt>
      <trkpt lat="43.64588" lon="7.07537">
        <ele>112.19999694824</ele>
        <time>2022-04-12T09:01:35.000Z</time>
      </trkpt>
      <trkpt lat="43.64588" lon="7.07536">
        <ele>113.40000152588</ele>
        <time>2022-04-12T09:01:38.000Z</time>
      </trkpt>
      <trkpt lat="43.64589" lon="7.07536">
        <ele>114.59999847412</ele>
        <time>2022-04-12T09:01:41.000Z</time>
      </trkpt>
      <trkpt lat="43.64589" lon="7.07535">
        <ele>115.40000152588</ele>
        <time>2022-04-12T09:01:44.000Z</time>
      </trkpt>
      <trkpt lat="43.64589" lon="7.07534">
        <ele>115.59999847412</ele>
        <time>2022-04-12T09:01:47.000Z</time>
      </trkpt>
      <trkpt lat="43.64589" lon="7.07532">
        <ele>116.40000152588</ele>
        <time>2022-04-12T09:01:50.000Z</time>
      </trkpt>
      <trkpt lat="43.64589" lon="7.0753">
        <ele>116.59999847412</ele>
        <time>2022-04-12T09:01:51.000Z</time>
      </trkpt>
      <trkpt lat="43.64589" lon="7.07528">
        <ele>117.80000305176</ele>
        <time>2022-04-12T09:01:54.000Z</time>
      </trkpt>
      <trkpt lat="43.64589" lon="7.07528">
        <ele>118.40000152588</ele>
        <time>2022-04-12T09:01:56.000Z</time>
      </trkpt>
      <trkpt lat="43.64588" lon="7.07526">
        <ele>119</ele>
        <time>2022-04-12T09:01:58.000Z</time>
      </trkpt>
      <trkpt lat="43.64587" lon="7.07524">
        <ele>119.59999847412</ele>
        <time>2022-04-12T09:02:01.000Z</time>
      </trkpt>
      <trkpt lat="43.64587" lon="7.07522">
        <ele>120</ele>
        <time>2022-04-12T09:02:04.000Z</time>
      </trkpt>
      <trkpt lat="43.64587" lon="7.07522">
        <ele>120.40000152588</ele>
        <time>2022-04-12T09:02:06.000Z</time>
      </trkpt>
      <trkpt lat="43.64587" lon="7.0752">
        <ele>121.40000152588</ele>
        <time>2022-04-12T09:02:09.000Z</time>
      </trkpt>
      <trkpt lat="43.64588" lon="7.07518">
        <ele>121.80000305176</ele>
        <time>2022-04-12T09:02:11.000Z</time>
      </trkpt>
      <trkpt lat="43.64589" lon="7.07516">
        <ele>122.40000152588</ele>
        <time>2022-04-12T09:02:14.000Z</time>
      </trkpt>
      <trkpt lat="43.6459" lon="7.07515">
        <ele>123.19999694824</ele>
        <time>2022-04-12T09:02:17.000Z</time>
      </trkpt>
      <trkpt lat="43.64591" lon="7.07514">
        <ele>123.40000152588</ele>
        <time>2022-04-12T09:02:19.000Z</time>
      </trkpt>
      <trkpt lat="43.64593" lon="7.07512">
        <ele>124</ele>
        <time>2022-04-12T09:02:23.000Z</time>
      </trkpt>
      <trkpt lat="43.64593" lon="7.07511">
        <ele>124.59999847412</ele>
        <time>2022-04-12T09:02:27.000Z</time>
      </trkpt>
      <trkpt lat="43.64592" lon="7.0751">
        <ele>124.80000305176</ele>
        <time>2022-04-12T09:02:30.000Z</time>
      </trkpt>
      <trkpt lat="43.64593" lon="7.07508">
        <ele>125.40000152588</ele>
        <time>2022-04-12T09:02:38.000Z</time>
      </trkpt>
      <trkpt lat="43.64594" lon="7.07504">
        <ele>125.19999694824</ele>
        <time>2022-04-12T09:02:50.000Z</time>
      </trkpt>
      <trkpt lat="43.64595" lon="7.07505">
        <ele>125</ele>
        <time>2022-04-12T09:03:06.000Z</time>
      </trkpt>
      <trkpt lat="43.64594" lon="7.07505">
        <ele>124</ele>
        <time>2022-04-12T09:03:13.000Z</time>
      </trkpt>
      <trkpt lat="43.64597" lon="7.07503">
        <ele>123.80000305176</ele>
        <time>2022-04-12T09:03:20.000Z</time>
      </trkpt>
      <trkpt lat="43.64597" lon="7.07504">
        <ele>124.80000305176</ele>
        <time>2022-04-12T09:03:27.000Z</time>
      </trkpt>
      <trkpt lat="43.64594" lon="7.07506">
        <ele>124.80000305176</ele>
        <time>2022-04-12T09:03:32.000Z</time>
      </trkpt>
      <trkpt lat="43.64593" lon="7.07509">
        <ele>123.59999847412</ele>
        <time>2022-04-12T09:03:37.000Z</time>
      </trkpt>
      <trkpt lat="43.64593" lon="7.07509">
        <ele>123.19999694824</ele>
        <time>2022-04-12T09:03:38.000Z</time>
      </trkpt>
      <trkpt lat="43.64592" lon="7.07509">
        <ele>122.40000152588</ele>
        <time>2022-04-12T09:03:40.000Z</time>
      </trkpt>
      <trkpt lat="43.64589" lon="7.07507">
        <ele>121.80000305176</ele>
        <time>2022-04-12T09:03:42.000Z</time>
      </trkpt>
      <trkpt lat="43.64586" lon="7.07506">
        <ele>122</ele>
        <time>2022-04-12T09:03:48.000Z</time>
      </trkpt>
      <trkpt lat="43.6459" lon="7.07511">
        <ele>121.19999694824</ele>
        <time>2022-04-12T09:03:52.000Z</time>
      </trkpt>
      <trkpt lat="43.64592" lon="7.07515">
        <ele>120.19999694824</ele>
        <time>2022-04-12T09:03:55.000Z</time>
      </trkpt>
      <trkpt lat="43.64593" lon="7.07518">
        <ele>119.59999847412</ele>
        <time>2022-04-12T09:03:57.000Z</time>
      </trkpt>
      <trkpt lat="43.64594" lon="7.07519">
        <ele>119.19999694824</ele>
        <time>2022-04-12T09:03:58.000Z</time>
      </trkpt>
      <trkpt lat="43.64595" lon="7.07522">
        <ele>117.80000305176</ele>
        <time>2022-04-12T09:04:00.000Z</time>
      </trkpt>
      <trkpt lat="43.64595" lon="7.07523">
        <ele>117</ele>
        <time>2022-04-12T09:04:01.000Z</time>
      </trkpt>
      <trkpt lat="43.64595" lon="7.07523">
        <ele>116.40000152588</ele>
        <time>2022-04-12T09:04:02.000Z</time>
      </trkpt>
      <trkpt lat="43.64593" lon="7.07528">
        <ele>115.19999694824</ele>
        <time>2022-04-12T09:04:05.000Z</time>
      </trkpt>
      <trkpt lat="43.64592" lon="7.07532">
        <ele>115</ele>
        <time>2022-04-12T09:04:06.000Z</time>
      </trkpt>
      <trkpt lat="43.64589" lon="7.07538">
        <ele>113.59999847412</ele>
        <time>2022-04-12T09:04:09.000Z</time>
      </trkpt>
      <trkpt lat="43.64589" lon="7.07539">
        <ele>112.80000305176</ele>
        <time>2022-04-12T09:04:10.000Z</time>
      </trkpt>
      <trkpt lat="43.64589" lon="7.07539">
        <ele>112</ele>
        <time>2022-04-12T09:04:11.000Z</time>
      </trkpt>
      <trkpt lat="43.64589" lon="7.0754">
        <ele>110.59999847412</ele>
        <time>2022-04-12T09:04:13.000Z</time>
      </trkpt>
      <trkpt lat="43.64589" lon="7.0754">
        <ele>109.40000152588</ele>
        <time>2022-04-12T09:04:17.000Z</time>
      </trkpt>
      <trkpt lat="43.64588" lon="7.07541">
        <ele>110.19999694824</ele>
        <time>2022-04-12T09:04:23.000Z</time>
      </trkpt>
      <trkpt lat="43.64591" lon="7.07534">
        <ele>110.40000152588</ele>
        <time>2022-04-12T09:04:30.000Z</time>
      </trkpt>
      <trkpt lat="43.64592" lon="7.07534">
        <ele>110.59999847412</ele>
        <time>2022-04-12T09:04:31.000Z</time>
      </trkpt>
      <trkpt lat="43.64591" lon="7.07534">
        <ele>112</ele>
        <time>2022-04-12T09:04:34.000Z</time>
      </trkpt>
      <trkpt lat="43.64591" lon="7.07534">
        <ele>113</ele>
        <time>2022-04-12T09:04:37.000Z</time>
      </trkpt>
      <trkpt lat="43.64592" lon="7.07533">
        <ele>113.40000152588</ele>
        <time>2022-04-12T09:04:44.000Z</time>
      </trkpt>
      <trkpt lat="43.64592" lon="7.07532">
        <ele>114.19999694824</ele>
        <time>2022-04-12T09:04:48.000Z</time>
      </trkpt>
      <trkpt lat="43.64592" lon="7.07532">
        <ele>115.59999847412</ele>
        <time>2022-04-12T09:04:51.000Z</time>
      </trkpt>
      <trkpt lat="43.64592" lon="7.07532">
        <ele>115.80000305176</ele>
        <time>2022-04-12T09:04:52.000Z</time>
      </trkpt>
      <trkpt lat="43.64593" lon="7.07534">
        <ele>116</ele>
        <time>2022-04-12T09:05:02.000Z</time>
      </trkpt>
      <trkpt lat="43.64594" lon="7.07534">
        <ele>116.19999694824</ele>
        <time>2022-04-12T09:05:11.000Z</time>
      </trkpt>
      <trkpt lat="43.64594" lon="7.07532">
        <ele>116.40000152588</ele>
        <time>2022-04-12T09:05:18.000Z</time>
      </trkpt>
      <trkpt lat="43.64594" lon="7.07532">
        <ele>116.59999847412</ele>
        <time>2022-04-12T09:05:20.000Z</time>
      </trkpt>
      <trkpt lat="43.64594" lon="7.07529">
        <ele>117.40000152588</ele>
        <time>2022-04-12T09:05:26.000Z</time>
      </trkpt>
      <trkpt lat="43.64594" lon="7.07529">
        <ele>117.59999847412</ele>
        <time>2022-04-12T09:05:27.000Z</time>
      </trkpt>
      <trkpt lat="43.64593" lon="7.07527">
        <ele>118.40000152588</ele>
        <time>2022-04-12T09:05:35.000Z</time>
      </trkpt>
      <trkpt lat="43.64593" lon="7.07527">
        <ele>118.59999847412</ele>
        <time>2022-04-12T09:05:40.000Z</time>
      </trkpt>
      <trkpt lat="43.64593" lon="7.07527">
        <ele>119</ele>
        <time>2022-04-12T09:05:42.000Z</time>
      </trkpt>
      <trkpt lat="43.64593" lon="7.07526">
        <ele>119.40000152588</ele>
        <time>2022-04-12T09:05:49.000Z</time>
      </trkpt>
      <trkpt lat="43.64592" lon="7.07525">
        <ele>119.40000152588</ele>
        <time>2022-04-12T09:05:57.000Z</time>
      </trkpt>
      <trkpt lat="43.64592" lon="7.07524">
        <ele>119.80000305176</ele>
        <time>2022-04-12T09:06:00.000Z</time>
      </trkpt>
      <trkpt lat="43.64591" lon="7.07522">
        <ele>121</ele>
        <time>2022-04-12T09:06:04.000Z</time>
      </trkpt>
      <trkpt lat="43.6459" lon="7.0752">
        <ele>122</ele>
        <time>2022-04-12T09:06:08.000Z</time>
      </trkpt>
      <trkpt lat="43.64591" lon="7.07518">
        <ele>122.80000305176</ele>
        <time>2022-04-12T09:06:12.000Z</time>
      </trkpt>
      <trkpt lat="43.64591" lon="7.07516">
        <ele>123.19999694824</ele>
        <time>2022-04-12T09:06:15.000Z</time>
      </trkpt>
      <trkpt lat="43.64594" lon="7.07515">
        <ele>124</ele>
        <time>2022-04-12T09:06:18.000Z</time>
      </trkpt>
      <trkpt lat="43.64594" lon="7.07515">
        <ele>124.40000152588</ele>
        <time>2022-04-12T09:06:19.000Z</time>
      </trkpt>
      <trkpt lat="43.64594" lon="7.07515">
        <ele>124.80000305176</ele>
        <time>2022-04-12T09:06:20.000Z</time>
      </trkpt>
      <trkpt lat="43.64596" lon="7.07513">
        <ele>125.59999847412</ele>
        <time>2022-04-12T09:06:23.000Z</time>
      </trkpt>
      <trkpt lat="43.64598" lon="7.07512">
        <ele>126.19999694824</ele>
        <time>2022-04-12T09:06:27.000Z</time>
      </trkpt>
      <trkpt lat="43.64598" lon="7.07512">
        <ele>126.59999847412</ele>
        <time>2022-04-12T09:06:30.000Z</time>
      </trkpt>
      <trkpt lat="43.64599" lon="7.07511">
        <ele>126.40000152588</ele>
        <time>2022-04-12T09:06:35.000Z</time>
      </trkpt>
      <trkpt lat="43.646" lon="7.07511">
        <ele>126.59999847412</ele>
        <time>2022-04-12T09:06:44.000Z</time>
      </trkpt>
      <trkpt lat="43.64601" lon="7.0751">
        <ele>126.80000305176</ele>
        <time>2022-04-12T09:06:53.000Z</time>
      </trkpt>
      <trkpt lat="43.64602" lon="7.07508">
        <ele>127</ele>
        <time>2022-04-12T09:06:58.000Z</time>
      </trkpt>
      <trkpt lat="43.64603" lon="7.07508">
        <ele>126.59999847412</ele>
        <time>2022-04-12T09:07:03.000Z</time>
      </trkpt>
      <trkpt lat="43.64605" lon="7.07508">
        <ele>126</ele>
        <time>2022-04-12T09:07:12.000Z</time>
      </trkpt>
      <trkpt lat="43.64605" lon="7.07507">
        <ele>126.40000152588</ele>
        <time>2022-04-12T09:07:23.000Z</time>
      </trkpt>
      <trkpt lat="43.64604" lon="7.07507">
        <ele>126.40000152588</ele>
        <time>2022-04-12T09:07:28.000Z</time>
      </trkpt>
      <trkpt lat="43.64604" lon="7.07506">
        <ele>126.40000152588</ele>
        <time>2022-04-12T09:07:35.000Z</time>
      </trkpt>
      <trkpt lat="43.64602" lon="7.07508">
        <ele>125.80000305176</ele>
        <time>2022-04-12T09:07:43.000Z</time>
      </trkpt>
      <trkpt lat="43.64601" lon="7.07508">
        <ele>125.59999847412</ele>
        <time>2022-04-12T09:07:44.000Z</time>
      </trkpt>
      <trkpt lat="43.64602" lon="7.07508">
        <ele>125.59999847412</ele>
        <time>2022-04-12T09:07:45.000Z</time>
      </trkpt>
      <trkpt lat="43.64602" lon="7.07509">
        <ele>125.19999694824</ele>
        <time>2022-04-12T09:07:49.000Z</time>
      </trkpt>
      <trkpt lat="43.64603" lon="7.07509">
        <ele>125.59999847412</ele>
        <time>2022-04-12T09:08:00.000Z</time>
      </trkpt>
      <trkpt lat="43.64605" lon="7.07509">
        <ele>125.40000152588</ele>
        <time>2022-04-12T09:08:12.000Z</time>
      </trkpt>
      <trkpt lat="43.64604" lon="7.07509">
        <ele>126.19999694824</ele>
        <time>2022-04-12T09:08:19.000Z</time>
      </trkpt>
      <trkpt lat="43.64604" lon="7.0751">
        <ele>126</ele>
        <time>2022-04-12T09:08:27.000Z</time>
      </trkpt>
      <trkpt lat="43.64606" lon="7.07508">
        <ele>126.19999694824</ele>
        <time>2022-04-12T09:08:33.000Z</time>
      </trkpt>
      <trkpt lat="43.64607" lon="7.07508">
        <ele>126.19999694824</ele>
        <time>2022-04-12T09:08:34.000Z</time>
      </trkpt>
      <trkpt lat="43.64613" lon="7.07507">
        <ele>126.40000152588</ele>
        <time>2022-04-12T09:08:38.000Z</time>
      </trkpt>
      <trkpt lat="43.64615" lon="7.07507">
        <ele>126.59999847412</ele>
        <time>2022-04-12T09:08:39.000Z</time>
      </trkpt>
      <trkpt lat="43.64617" lon="7.07507">
        <ele>127</ele>
        <time>2022-04-12T09:08:41.000Z</time>
      </trkpt>
      <trkpt lat="43.64618" lon="7.07506">
        <ele>127.59999847412</ele>
        <time>2022-04-12T09:08:44.000Z</time>
      </trkpt>
      <trkpt lat="43.64619" lon="7.07506">
        <ele>127.59999847412</ele>
        <time>2022-04-12T09:08:45.000Z</time>
      </trkpt>
      <trkpt lat="43.6462" lon="7.07505">
        <ele>128.39999389648</ele>
        <time>2022-04-12T09:08:50.000Z</time>
      </trkpt>
      <trkpt lat="43.6462" lon="7.07505">
        <ele>128.60000610352</ele>
        <time>2022-04-12T09:08:52.000Z</time>
      </trkpt>
      <trkpt lat="43.64622" lon="7.07502">
        <ele>128.80000305176</ele>
        <time>2022-04-12T09:08:54.000Z</time>
      </trkpt>
      <trkpt lat="43.64622" lon="7.075">
        <ele>128.60000610352</ele>
        <time>2022-04-12T09:08:56.000Z</time>
      </trkpt>
      <trkpt lat="43.64627" lon="7.07498">
        <ele>129.80000305176</ele>
        <time>2022-04-12T09:09:02.000Z</time>
      </trkpt>
      <trkpt lat="43.64628" lon="7.07497">
        <ele>130.39999389648</ele>
        <time>2022-04-12T09:09:04.000Z</time>
      </trkpt>
      <trkpt lat="43.64628" lon="7.07497">
        <ele>131</ele>
        <time>2022-04-12T09:09:06.000Z</time>
      </trkpt>
      <trkpt lat="43.64632" lon="7.07496">
        <ele>132</ele>
        <time>2022-04-12T09:09:11.000Z</time>
      </trkpt>
      <trkpt lat="43.64634" lon="7.07497">
        <ele>132.39999389648</ele>
        <time>2022-04-12T09:09:18.000Z</time>
      </trkpt>
      <trkpt lat="43.64635" lon="7.07497">
        <ele>132.39999389648</ele>
        <time>2022-04-12T09:09:19.000Z</time>
      </trkpt>
      <trkpt lat="43.64641" lon="7.07496">
        <ele>132.39999389648</ele>
        <time>2022-04-12T09:09:22.000Z</time>
      </trkpt>
      <trkpt lat="43.64642" lon="7.07495">
        <ele>132.60000610352</ele>
        <time>2022-04-12T09:09:23.000Z</time>
      </trkpt>
      <trkpt lat="43.64651" lon="7.07486">
        <ele>133.19999694824</ele>
        <time>2022-04-12T09:09:29.000Z</time>
      </trkpt>
      <trkpt lat="43.64652" lon="7.07484">
        <ele>133.39999389648</ele>
        <time>2022-04-12T09:09:30.000Z</time>
      </trkpt>
      <trkpt lat="43.64651" lon="7.07481">
        <ele>134</ele>
        <time>2022-04-12T09:09:33.000Z</time>
      </trkpt>
      <trkpt lat="43.64651" lon="7.0748">
        <ele>134.39999389648</ele>
        <time>2022-04-12T09:09:34.000Z</time>
      </trkpt>
      <trkpt lat="43.64646" lon="7.0748">
        <ele>135.39999389648</ele>
        <time>2022-04-12T09:09:38.000Z</time>
      </trkpt>
      <trkpt lat="43.64645" lon="7.07479">
        <ele>135.60000610352</ele>
        <time>2022-04-12T09:09:39.000Z</time>
      </trkpt>
      <trkpt lat="43.64642" lon="7.07475">
        <ele>136.39999389648</ele>
        <time>2022-04-12T09:09:42.000Z</time>
      </trkpt>
      <trkpt lat="43.64642" lon="7.07473">
        <ele>136.60000610352</ele>
        <time>2022-04-12T09:09:43.000Z</time>
      </trkpt>
      <trkpt lat="43.64641" lon="7.07471">
        <ele>136.80000305176</ele>
        <time>2022-04-12T09:09:44.000Z</time>
      </trkpt>
      <trkpt lat="43.6464" lon="7.07468">
        <ele>137.60000610352</ele>
        <time>2022-04-12T09:09:46.000Z</time>
      </trkpt>
      <trkpt lat="43.6464" lon="7.07466">
        <ele>137.80000305176</ele>
        <time>2022-04-12T09:09:47.000Z</time>
      </trkpt>
      <trkpt lat="43.64638" lon="7.07464">
        <ele>138.39999389648</ele>
        <time>2022-04-12T09:09:49.000Z</time>
      </trkpt>
      <trkpt lat="43.64636" lon="7.07459">
        <ele>139.19999694824</ele>
        <time>2022-04-12T09:09:52.000Z</time>
      </trkpt>
      <trkpt lat="43.64633" lon="7.07452">
        <ele>140.39999389648</ele>
        <time>2022-04-12T09:09:56.000Z</time>
      </trkpt>
      <trkpt lat="43.64628" lon="7.07442">
        <ele>141.80000305176</ele>
        <time>2022-04-12T09:10:01.000Z</time>
      </trkpt>
      <trkpt lat="43.64628" lon="7.07435">
        <ele>143</ele>
        <time>2022-04-12T09:10:04.000Z</time>
      </trkpt>
      <trkpt lat="43.64628" lon="7.07431">
        <ele>143.80000305176</ele>
        <time>2022-04-12T09:10:06.000Z</time>
      </trkpt>
      <trkpt lat="43.64627" lon="7.07428">
        <ele>144.39999389648</ele>
        <time>2022-04-12T09:10:07.000Z</time>
      </trkpt>
      <trkpt lat="43.64627" lon="7.07422">
        <ele>145.39999389648</ele>
        <time>2022-04-12T09:10:10.000Z</time>
      </trkpt>
      <trkpt lat="43.64626" lon="7.07417">
        <ele>146.19999694824</ele>
        <time>2022-04-12T09:10:12.000Z</time>
      </trkpt>
      <trkpt lat="43.64626" lon="7.07415">
        <ele>146.60000610352</ele>
        <time>2022-04-12T09:10:13.000Z</time>
      </trkpt>
      <trkpt lat="43.64624" lon="7.07412">
        <ele>147.19999694824</ele>
        <time>2022-04-12T09:10:15.000Z</time>
      </trkpt>
      <trkpt lat="43.64623" lon="7.0741">
        <ele>147.60000610352</ele>
        <time>2022-04-12T09:10:16.000Z</time>
      </trkpt>
      <trkpt lat="43.6462" lon="7.07407">
        <ele>148.39999389648</ele>
        <time>2022-04-12T09:10:18.000Z</time>
      </trkpt>
      <trkpt lat="43.64619" lon="7.07406">
        <ele>148.60000610352</ele>
        <time>2022-04-12T09:10:19.000Z</time>
      </trkpt>
      <trkpt lat="43.64614" lon="7.07401">
        <ele>149.60000610352</ele>
        <time>2022-04-12T09:10:24.000Z</time>
      </trkpt>
      <trkpt lat="43.64608" lon="7.07397">
        <ele>150</ele>
        <time>2022-04-12T09:10:30.000Z</time>
      </trkpt>
      <trkpt lat="43.64599" lon="7.07392">
        <ele>149.80000305176</ele>
        <time>2022-04-12T09:10:36.000Z</time>
      </trkpt>
      <trkpt lat="43.64598" lon="7.0739">
        <ele>149.80000305176</ele>
        <time>2022-04-12T09:10:37.000Z</time>
      </trkpt>
      <trkpt lat="43.64593" lon="7.07387">
        <ele>149.80000305176</ele>
        <time>2022-04-12T09:10:40.000Z</time>
      </trkpt>
      <trkpt lat="43.64592" lon="7.07388">
        <ele>149.80000305176</ele>
        <time>2022-04-12T09:10:41.000Z</time>
      </trkpt>
      <trkpt lat="43.64581" lon="7.07388">
        <ele>150.19999694824</ele>
        <time>2022-04-12T09:10:47.000Z</time>
      </trkpt>
      <trkpt lat="43.64575" lon="7.07389">
        <ele>150.80000305176</ele>
        <time>2022-04-12T09:10:50.000Z</time>
      </trkpt>
      <trkpt lat="43.6457" lon="7.07391">
        <ele>151.80000305176</ele>
        <time>2022-04-12T09:10:53.000Z</time>
      </trkpt>
      <trkpt lat="43.64568" lon="7.07391">
        <ele>152.19999694824</ele>
        <time>2022-04-12T09:10:54.000Z</time>
      </trkpt>
      <trkpt lat="43.64561" lon="7.07392">
        <ele>153.19999694824</ele>
        <time>2022-04-12T09:10:58.000Z</time>
      </trkpt>
      <trkpt lat="43.6456" lon="7.07393">
        <ele>153.19999694824</ele>
        <time>2022-04-12T09:10:59.000Z</time>
      </trkpt>
      <trkpt lat="43.64546" lon="7.07398">
        <ele>154.19999694824</ele>
        <time>2022-04-12T09:11:07.000Z</time>
      </trkpt>
      <trkpt lat="43.64544" lon="7.07398">
        <ele>154.19999694824</ele>
        <time>2022-04-12T09:11:08.000Z</time>
      </trkpt>
      <trkpt lat="43.64535" lon="7.07398">
        <ele>155.19999694824</ele>
        <time>2022-04-12T09:11:13.000Z</time>
      </trkpt>
      <trkpt lat="43.64532" lon="7.07398">
        <ele>155.39999389648</ele>
        <time>2022-04-12T09:11:14.000Z</time>
      </trkpt>
      <trkpt lat="43.64527" lon="7.07398">
        <ele>156.60000610352</ele>
        <time>2022-04-12T09:11:17.000Z</time>
      </trkpt>
      <trkpt lat="43.64524" lon="7.07397">
        <ele>157.19999694824</ele>
        <time>2022-04-12T09:11:19.000Z</time>
      </trkpt>
      <trkpt lat="43.64523" lon="7.07397">
        <ele>157.60000610352</ele>
        <time>2022-04-12T09:11:21.000Z</time>
      </trkpt>
      <trkpt lat="43.64522" lon="7.07397">
        <ele>158</ele>
        <time>2022-04-12T09:11:24.000Z</time>
      </trkpt>
      <trkpt lat="43.64521" lon="7.07397">
        <ele>157.80000305176</ele>
        <time>2022-04-12T09:11:34.000Z</time>
      </trkpt>
      <trkpt lat="43.64519" lon="7.07397">
        <ele>157.60000610352</ele>
        <time>2022-04-12T09:11:50.000Z</time>
      </trkpt>
      <trkpt lat="43.64517" lon="7.07397">
        <ele>157.39999389648</ele>
        <time>2022-04-12T09:12:01.000Z</time>
      </trkpt>
      <trkpt lat="43.64512" lon="7.07396">
        <ele>157.80000305176</ele>
        <time>2022-04-12T09:12:05.000Z</time>
      </trkpt>
      <trkpt lat="43.64509" lon="7.07396">
        <ele>158.19999694824</ele>
        <time>2022-04-12T09:12:07.000Z</time>
      </trkpt>
      <trkpt lat="43.64506" lon="7.07395">
        <ele>159</ele>
        <time>2022-04-12T09:12:09.000Z</time>
      </trkpt>
      <trkpt lat="43.64502" lon="7.07396">
        <ele>160</ele>
        <time>2022-04-12T09:12:12.000Z</time>
      </trkpt>
      <trkpt lat="43.64498" lon="7.07398">
        <ele>160.60000610352</ele>
        <time>2022-04-12T09:12:14.000Z</time>
      </trkpt>
      <trkpt lat="43.64492" lon="7.07402">
        <ele>161</ele>
        <time>2022-04-12T09:12:17.000Z</time>
      </trkpt>
      <trkpt lat="43.64485" lon="7.07408">
        <ele>161</ele>
        <time>2022-04-12T09:12:19.000Z</time>
      </trkpt>
      <trkpt lat="43.64471" lon="7.07421">
        <ele>160</ele>
        <time>2022-04-12T09:12:22.000Z</time>
      </trkpt>
      <trkpt lat="43.64465" lon="7.07426">
        <ele>159</ele>
        <time>2022-04-12T09:12:23.000Z</time>
      </trkpt>
      <trkpt lat="43.6446" lon="7.0743">
        <ele>158.39999389648</ele>
        <time>2022-04-12T09:12:24.000Z</time>
      </trkpt>
      <trkpt lat="43.64455" lon="7.07432">
        <ele>157.39999389648</ele>
        <time>2022-04-12T09:12:25.000Z</time>
      </trkpt>
      <trkpt lat="43.64449" lon="7.07435">
        <ele>156.39999389648</ele>
        <time>2022-04-12T09:12:26.000Z</time>
      </trkpt>
      <trkpt lat="43.64443" lon="7.07436">
        <ele>155.60000610352</ele>
        <time>2022-04-12T09:12:27.000Z</time>
      </trkpt>
      <trkpt lat="43.64437" lon="7.07437">
        <ele>154.80000305176</ele>
        <time>2022-04-12T09:12:28.000Z</time>
      </trkpt>
      <trkpt lat="43.64431" lon="7.07438">
        <ele>153.80000305176</ele>
        <time>2022-04-12T09:12:29.000Z</time>
      </trkpt>
      <trkpt lat="43.64421" lon="7.07439">
        <ele>152.60000610352</ele>
        <time>2022-04-12T09:12:31.000Z</time>
      </trkpt>
      <trkpt lat="43.64417" lon="7.07439">
        <ele>152</ele>
        <time>2022-04-12T09:12:32.000Z</time>
      </trkpt>
      <trkpt lat="43.64402" lon="7.07434">
        <ele>152.39999389648</ele>
        <time>2022-04-12T09:12:37.000Z</time>
      </trkpt>
      <trkpt lat="43.64394" lon="7.07429">
        <ele>153.60000610352</ele>
        <time>2022-04-12T09:12:40.000Z</time>
      </trkpt>
      <trkpt lat="43.64387" lon="7.07426">
        <ele>154.80000305176</ele>
        <time>2022-04-12T09:12:42.000Z</time>
      </trkpt>
      <trkpt lat="43.64384" lon="7.07425">
        <ele>155.39999389648</ele>
        <time>2022-04-12T09:12:43.000Z</time>
      </trkpt>
      <trkpt lat="43.64381" lon="7.07424">
        <ele>156</ele>
        <time>2022-04-12T09:12:44.000Z</time>
      </trkpt>
      <trkpt lat="43.64365" lon="7.07423">
        <ele>157.19999694824</ele>
        <time>2022-04-12T09:12:49.000Z</time>
      </trkpt>
      <trkpt lat="43.64341" lon="7.07428">
        <ele>156.39999389648</ele>
        <time>2022-04-12T09:12:55.000Z</time>
      </trkpt>
      <trkpt lat="43.64337" lon="7.07429">
        <ele>156</ele>
        <time>2022-04-12T09:12:56.000Z</time>
      </trkpt>
      <trkpt lat="43.64319" lon="7.07432">
        <ele>156</ele>
        <time>2022-04-12T09:13:01.000Z</time>
      </trkpt>
      <trkpt lat="43.64311" lon="7.07435">
        <ele>156.19999694824</ele>
        <time>2022-04-12T09:13:03.000Z</time>
      </trkpt>
      <trkpt lat="43.64303" lon="7.07438">
        <ele>156.60000610352</ele>
        <time>2022-04-12T09:13:05.000Z</time>
      </trkpt>
      <trkpt lat="43.64295" lon="7.07442">
        <ele>156.80000305176</ele>
        <time>2022-04-12T09:13:07.000Z</time>
      </trkpt>
      <trkpt lat="43.64291" lon="7.07443">
        <ele>157</ele>
        <time>2022-04-12T09:13:08.000Z</time>
      </trkpt>
      <trkpt lat="43.64285" lon="7.07447">
        <ele>157.19999694824</ele>
        <time>2022-04-12T09:13:10.000Z</time>
      </trkpt>
      <trkpt lat="43.64271" lon="7.0746">
        <ele>158</ele>
        <time>2022-04-12T09:13:15.000Z</time>
      </trkpt>
      <trkpt lat="43.64265" lon="7.07475">
        <ele>159.19999694824</ele>
        <time>2022-04-12T09:13:19.000Z</time>
      </trkpt>
      <trkpt lat="43.64264" lon="7.07478">
        <ele>159.60000610352</ele>
        <time>2022-04-12T09:13:20.000Z</time>
      </trkpt>
      <trkpt lat="43.64263" lon="7.07485">
        <ele>160.39999389648</ele>
        <time>2022-04-12T09:13:23.000Z</time>
      </trkpt>
      <trkpt lat="43.64261" lon="7.07486">
        <ele>160.80000305176</ele>
        <time>2022-04-12T09:13:24.000Z</time>
      </trkpt>
      <trkpt lat="43.6426" lon="7.0748">
        <ele>161.39999389648</ele>
        <time>2022-04-12T09:13:28.000Z</time>
      </trkpt>
      <trkpt lat="43.6426" lon="7.07479">
        <ele>161.39999389648</ele>
        <time>2022-04-12T09:13:29.000Z</time>
      </trkpt>
      <trkpt lat="43.64259" lon="7.07473">
        <ele>161.80000305176</ele>
        <time>2022-04-12T09:13:35.000Z</time>
      </trkpt>
      <trkpt lat="43.64259" lon="7.0747">
        <ele>161.60000610352</ele>
        <time>2022-04-12T09:13:39.000Z</time>
      </trkpt>
      <trkpt lat="43.64259" lon="7.07467">
        <ele>161.60000610352</ele>
        <time>2022-04-12T09:13:41.000Z</time>
      </trkpt>
      <trkpt lat="43.64259" lon="7.07464">
        <ele>161.60000610352</ele>
        <time>2022-04-12T09:13:43.000Z</time>
      </trkpt>
      <trkpt lat="43.64258" lon="7.07458">
        <ele>161.60000610352</ele>
        <time>2022-04-12T09:13:46.000Z</time>
      </trkpt>
      <trkpt lat="43.64257" lon="7.07456">
        <ele>161.60000610352</ele>
        <time>2022-04-12T09:13:47.000Z</time>
      </trkpt>
      <trkpt lat="43.64257" lon="7.07454">
        <ele>161.60000610352</ele>
        <time>2022-04-12T09:13:48.000Z</time>
      </trkpt>
      <trkpt lat="43.64255" lon="7.07442">
        <ele>162</ele>
        <time>2022-04-12T09:13:52.000Z</time>
      </trkpt>
      <trkpt lat="43.64249" lon="7.07432">
        <ele>162.39999389648</ele>
        <time>2022-04-12T09:13:55.000Z</time>
      </trkpt>
      <trkpt lat="43.64247" lon="7.07428">
        <ele>162.60000610352</ele>
        <time>2022-04-12T09:13:56.000Z</time>
      </trkpt>
      <trkpt lat="43.6424" lon="7.07412">
        <ele>163.60000610352</ele>
        <time>2022-04-12T09:14:00.000Z</time>
      </trkpt>
      <trkpt lat="43.64239" lon="7.07387">
        <ele>164</ele>
        <time>2022-04-12T09:14:05.000Z</time>
      </trkpt>
      <trkpt lat="43.64239" lon="7.07377">
        <ele>163.60000610352</ele>
        <time>2022-04-12T09:14:07.000Z</time>
      </trkpt>
      <trkpt lat="43.64241" lon="7.07366">
        <ele>163.39999389648</ele>
        <time>2022-04-12T09:14:09.000Z</time>
      </trkpt>
      <trkpt lat="43.64244" lon="7.0735">
        <ele>163</ele>
        <time>2022-04-12T09:14:12.000Z</time>
      </trkpt>
      <trkpt lat="43.64244" lon="7.07334">
        <ele>163</ele>
        <time>2022-04-12T09:14:15.000Z</time>
      </trkpt>
      <trkpt lat="43.64245" lon="7.07313">
        <ele>164</ele>
        <time>2022-04-12T09:14:19.000Z</time>
      </trkpt>
      <trkpt lat="43.64244" lon="7.07286">
        <ele>164.39999389648</ele>
        <time>2022-04-12T09:14:24.000Z</time>
      </trkpt>
      <trkpt lat="43.64243" lon="7.0728">
        <ele>164.19999694824</ele>
        <time>2022-04-12T09:14:25.000Z</time>
      </trkpt>
      <trkpt lat="43.6424" lon="7.07267">
        <ele>164</ele>
        <time>2022-04-12T09:14:27.000Z</time>
      </trkpt>
      <trkpt lat="43.64236" lon="7.07257">
        <ele>163.39999389648</ele>
        <time>2022-04-12T09:14:29.000Z</time>
      </trkpt>
      <trkpt lat="43.64231" lon="7.07248">
        <ele>163</ele>
        <time>2022-04-12T09:14:31.000Z</time>
      </trkpt>
      <trkpt lat="43.6423" lon="7.07244">
        <ele>162.60000610352</ele>
        <time>2022-04-12T09:14:32.000Z</time>
      </trkpt>
      <trkpt lat="43.64229" lon="7.07238">
        <ele>162.80000305176</ele>
        <time>2022-04-12T09:14:34.000Z</time>
      </trkpt>
      <trkpt lat="43.64227" lon="7.07229">
        <ele>163.80000305176</ele>
        <time>2022-04-12T09:14:37.000Z</time>
      </trkpt>
      <trkpt lat="43.64226" lon="7.07225">
        <ele>164</ele>
        <time>2022-04-12T09:14:38.000Z</time>
      </trkpt>
      <trkpt lat="43.64224" lon="7.0722">
        <ele>164.80000305176</ele>
        <time>2022-04-12T09:14:40.000Z</time>
      </trkpt>
      <trkpt lat="43.64222" lon="7.07214">
        <ele>165.60000610352</ele>
        <time>2022-04-12T09:14:42.000Z</time>
      </trkpt>
      <trkpt lat="43.64221" lon="7.07212">
        <ele>166.19999694824</ele>
        <time>2022-04-12T09:14:43.000Z</time>
      </trkpt>
      <trkpt lat="43.64218" lon="7.07205">
        <ele>166.80000305176</ele>
        <time>2022-04-12T09:14:46.000Z</time>
      </trkpt>
      <trkpt lat="43.64217" lon="7.07202">
        <ele>167</ele>
        <time>2022-04-12T09:14:47.000Z</time>
      </trkpt>
      <trkpt lat="43.64216" lon="7.07198">
        <ele>167.19999694824</ele>
        <time>2022-04-12T09:14:48.000Z</time>
      </trkpt>
      <trkpt lat="43.64211" lon="7.07188">
        <ele>167.80000305176</ele>
        <time>2022-04-12T09:14:52.000Z</time>
      </trkpt>
      <trkpt lat="43.64209" lon="7.07174">
        <ele>167.60000610352</ele>
        <time>2022-04-12T09:14:57.000Z</time>
      </trkpt>
      <trkpt lat="43.6421" lon="7.07158">
        <ele>167.60000610352</ele>
        <time>2022-04-12T09:15:02.000Z</time>
      </trkpt>
      <trkpt lat="43.6421" lon="7.07151">
        <ele>167.39999389648</ele>
        <time>2022-04-12T09:15:05.000Z</time>
      </trkpt>
      <trkpt lat="43.6421" lon="7.07146">
        <ele>167.39999389648</ele>
        <time>2022-04-12T09:15:07.000Z</time>
      </trkpt>
      <trkpt lat="43.6421" lon="7.07139">
        <ele>167.39999389648</ele>
        <time>2022-04-12T09:15:10.000Z</time>
      </trkpt>
      <trkpt lat="43.64211" lon="7.07138">
        <ele>167.39999389648</ele>
        <time>2022-04-12T09:15:12.000Z</time>
      </trkpt>
      <trkpt lat="43.64211" lon="7.07136">
        <ele>166.39999389648</ele>
        <time>2022-04-12T09:15:21.000Z</time>
      </trkpt>
      <trkpt lat="43.64211" lon="7.07135">
        <ele>166.60000610352</ele>
        <time>2022-04-12T09:15:26.000Z</time>
      </trkpt>
      <trkpt lat="43.64212" lon="7.07131">
        <ele>167.19999694824</ele>
        <time>2022-04-12T09:15:43.000Z</time>
      </trkpt>
      <trkpt lat="43.64212" lon="7.0713">
        <ele>167</ele>
        <time>2022-04-12T09:16:04.000Z</time>
      </trkpt>
      <trkpt lat="43.64213" lon="7.07129">
        <ele>167</ele>
        <time>2022-04-12T09:16:10.000Z</time>
      </trkpt>
      <trkpt lat="43.64212" lon="7.07125">
        <ele>167</ele>
        <time>2022-04-12T09:16:12.000Z</time>
      </trkpt>
      <trkpt lat="43.64206" lon="7.07107">
        <ele>166.80000305176</ele>
        <time>2022-04-12T09:16:17.000Z</time>
      </trkpt>
      <trkpt lat="43.64201" lon="7.07094">
        <ele>166.19999694824</ele>
        <time>2022-04-12T09:16:20.000Z</time>
      </trkpt>
      <trkpt lat="43.642" lon="7.0709">
        <ele>166</ele>
        <time>2022-04-12T09:16:21.000Z</time>
      </trkpt>
      <trkpt lat="43.64199" lon="7.07087">
        <ele>165.80000305176</ele>
        <time>2022-04-12T09:16:22.000Z</time>
      </trkpt>
      <trkpt lat="43.64193" lon="7.07081">
        <ele>165.19999694824</ele>
        <time>2022-04-12T09:16:24.000Z</time>
      </trkpt>
      <trkpt lat="43.64191" lon="7.07076">
        <ele>165</ele>
        <time>2022-04-12T09:16:25.000Z</time>
      </trkpt>
      <trkpt lat="43.64187" lon="7.07069">
        <ele>164.60000610352</ele>
        <time>2022-04-12T09:16:27.000Z</time>
      </trkpt>
      <trkpt lat="43.64178" lon="7.07067">
        <ele>164.19999694824</ele>
        <time>2022-04-12T09:16:31.000Z</time>
      </trkpt>
      <trkpt lat="43.64169" lon="7.0707">
        <ele>165</ele>
        <time>2022-04-12T09:16:35.000Z</time>
      </trkpt>
      <trkpt lat="43.64162" lon="7.07066">
        <ele>165.60000610352</ele>
        <time>2022-04-12T09:16:38.000Z</time>
      </trkpt>
      <trkpt lat="43.6416" lon="7.07065">
        <ele>165.80000305176</ele>
        <time>2022-04-12T09:16:39.000Z</time>
      </trkpt>
      <trkpt lat="43.64155" lon="7.07063">
        <ele>166.39999389648</ele>
        <time>2022-04-12T09:16:41.000Z</time>
      </trkpt>
      <trkpt lat="43.64151" lon="7.07061">
        <ele>167</ele>
        <time>2022-04-12T09:16:43.000Z</time>
      </trkpt>
      <trkpt lat="43.64147" lon="7.07059">
        <ele>167.60000610352</ele>
        <time>2022-04-12T09:16:45.000Z</time>
      </trkpt>
      <trkpt lat="43.64142" lon="7.07054">
        <ele>168.60000610352</ele>
        <time>2022-04-12T09:16:48.000Z</time>
      </trkpt>
      <trkpt lat="43.64134" lon="7.07049">
        <ele>169.39999389648</ele>
        <time>2022-04-12T09:16:52.000Z</time>
      </trkpt>
      <trkpt lat="43.64132" lon="7.07047">
        <ele>169.80000305176</ele>
        <time>2022-04-12T09:16:53.000Z</time>
      </trkpt>
      <trkpt lat="43.64123" lon="7.07042">
        <ele>170.60000610352</ele>
        <time>2022-04-12T09:16:57.000Z</time>
      </trkpt>
      <trkpt lat="43.64121" lon="7.0704">
        <ele>170.80000305176</ele>
        <time>2022-04-12T09:16:58.000Z</time>
      </trkpt>
      <trkpt lat="43.64114" lon="7.07032">
        <ele>171.19999694824</ele>
        <time>2022-04-12T09:17:01.000Z</time>
      </trkpt>
      <trkpt lat="43.64104" lon="7.07026">
        <ele>172</ele>
        <time>2022-04-12T09:17:05.000Z</time>
      </trkpt>
      <trkpt lat="43.64092" lon="7.07017">
        <ele>173</ele>
        <time>2022-04-12T09:17:10.000Z</time>
      </trkpt>
      <trkpt lat="43.6409" lon="7.07014">
        <ele>173.39999389648</ele>
        <time>2022-04-12T09:17:11.000Z</time>
      </trkpt>
      <trkpt lat="43.64081" lon="7.07005">
        <ele>174</ele>
        <time>2022-04-12T09:17:15.000Z</time>
      </trkpt>
      <trkpt lat="43.64077" lon="7.07002">
        <ele>174.60000610352</ele>
        <time>2022-04-12T09:17:17.000Z</time>
      </trkpt>
      <trkpt lat="43.64069" lon="7.06995">
        <ele>175.39999389648</ele>
        <time>2022-04-12T09:17:21.000Z</time>
      </trkpt>
      <trkpt lat="43.64068" lon="7.06992">
        <ele>175.80000305176</ele>
        <time>2022-04-12T09:17:22.000Z</time>
      </trkpt>
      <trkpt lat="43.64065" lon="7.06983">
        <ele>176.39999389648</ele>
        <time>2022-04-12T09:17:25.000Z</time>
      </trkpt>
      <trkpt lat="43.64062" lon="7.06978">
        <ele>177</ele>
        <time>2022-04-12T09:17:27.000Z</time>
      </trkpt>
      <trkpt lat="43.64056" lon="7.06972">
        <ele>177.60000610352</ele>
        <time>2022-04-12T09:17:30.000Z</time>
      </trkpt>
      <trkpt lat="43.64048" lon="7.06956">
        <ele>177.60000610352</ele>
        <time>2022-04-12T09:17:35.000Z</time>
      </trkpt>
      <trkpt lat="43.64046" lon="7.06953">
        <ele>177.60000610352</ele>
        <time>2022-04-12T09:17:36.000Z</time>
      </trkpt>
      <trkpt lat="43.64042" lon="7.06947">
        <ele>177.80000305176</ele>
        <time>2022-04-12T09:17:38.000Z</time>
      </trkpt>
      <trkpt lat="43.64038" lon="7.06946">
        <ele>177.80000305176</ele>
        <time>2022-04-12T09:17:39.000Z</time>
      </trkpt>
      <trkpt lat="43.64032" lon="7.06935">
        <ele>176.60000610352</ele>
        <time>2022-04-12T09:17:42.000Z</time>
      </trkpt>
      <trkpt lat="43.6403" lon="7.06926">
        <ele>176</ele>
        <time>2022-04-12T09:17:44.000Z</time>
      </trkpt>
      <trkpt lat="43.64029" lon="7.06923">
        <ele>175.60000610352</ele>
        <time>2022-04-12T09:17:45.000Z</time>
      </trkpt>
      <trkpt lat="43.64026" lon="7.06914">
        <ele>175.39999389648</ele>
        <time>2022-04-12T09:17:47.000Z</time>
      </trkpt>
      <trkpt lat="43.64023" lon="7.06903">
        <ele>175</ele>
        <time>2022-04-12T09:17:49.000Z</time>
      </trkpt>
      <trkpt lat="43.64024" lon="7.06899">
        <ele>175</ele>
        <time>2022-04-12T09:17:50.000Z</time>
      </trkpt>
      <trkpt lat="43.64028" lon="7.06896">
        <ele>174.60000610352</ele>
        <time>2022-04-12T09:17:52.000Z</time>
      </trkpt>
      <trkpt lat="43.64031" lon="7.06894">
        <ele>174.39999389648</ele>
        <time>2022-04-12T09:17:54.000Z</time>
      </trkpt>
      <trkpt lat="43.64032" lon="7.06894">
        <ele>174.39999389648</ele>
        <time>2022-04-12T09:17:55.000Z</time>
      </trkpt>
      <trkpt lat="43.64033" lon="7.06892">
        <ele>175.19999694824</ele>
        <time>2022-04-12T09:18:00.000Z</time>
      </trkpt>
      <trkpt lat="43.64034" lon="7.0689">
        <ele>175</ele>
        <time>2022-04-12T09:18:15.000Z</time>
      </trkpt>
      <trkpt lat="43.64035" lon="7.0689">
        <ele>175.19999694824</ele>
        <time>2022-04-12T09:18:27.000Z</time>
      </trkpt>
      <trkpt lat="43.64036" lon="7.0689">
        <ele>175</ele>
        <time>2022-04-12T09:18:48.000Z</time>
      </trkpt>
      <trkpt lat="43.64037" lon="7.06889">
        <ele>174.60000610352</ele>
        <time>2022-04-12T09:19:09.000Z</time>
      </trkpt>
      <trkpt lat="43.64044" lon="7.06887">
        <ele>175</ele>
        <time>2022-04-12T09:19:14.000Z</time>
      </trkpt>
      <trkpt lat="43.64046" lon="7.06887">
        <ele>175.19999694824</ele>
        <time>2022-04-12T09:19:15.000Z</time>
      </trkpt>
      <trkpt lat="43.64055" lon="7.06889">
        <ele>175.60000610352</ele>
        <time>2022-04-12T09:19:19.000Z</time>
      </trkpt>
      <trkpt lat="43.64057" lon="7.06888">
        <ele>175.60000610352</ele>
        <time>2022-04-12T09:19:20.000Z</time>
      </trkpt>
      <trkpt lat="43.64062" lon="7.06881">
        <ele>176.39999389648</ele>
        <time>2022-04-12T09:19:23.000Z</time>
      </trkpt>
      <trkpt lat="43.64064" lon="7.06877">
        <ele>176.80000305176</ele>
        <time>2022-04-12T09:19:24.000Z</time>
      </trkpt>
      <trkpt lat="43.64072" lon="7.06865">
        <ele>177.80000305176</ele>
        <time>2022-04-12T09:19:28.000Z</time>
      </trkpt>
      <trkpt lat="43.6408" lon="7.06854">
        <ele>178.19999694824</ele>
        <time>2022-04-12T09:19:32.000Z</time>
      </trkpt>
      <trkpt lat="43.64088" lon="7.06846">
        <ele>179</ele>
        <time>2022-04-12T09:19:36.000Z</time>
      </trkpt>
      <trkpt lat="43.64091" lon="7.06843">
        <ele>179.19999694824</ele>
        <time>2022-04-12T09:19:37.000Z</time>
      </trkpt>
      <trkpt lat="43.64097" lon="7.06837">
        <ele>180</ele>
        <time>2022-04-12T09:19:40.000Z</time>
      </trkpt>
      <trkpt lat="43.64104" lon="7.0683">
        <ele>180.60000610352</ele>
        <time>2022-04-12T09:19:43.000Z</time>
      </trkpt>
      <trkpt lat="43.6411" lon="7.06822">
        <ele>181.19999694824</ele>
        <time>2022-04-12T09:19:46.000Z</time>
      </trkpt>
      <trkpt lat="43.64116" lon="7.06818">
        <ele>181.60000610352</ele>
        <time>2022-04-12T09:19:48.000Z</time>
      </trkpt>
      <trkpt lat="43.6413" lon="7.06817">
        <ele>182</ele>
        <time>2022-04-12T09:19:53.000Z</time>
      </trkpt>
      <trkpt lat="43.64145" lon="7.06816">
        <ele>181.39999389648</ele>
        <time>2022-04-12T09:19:58.000Z</time>
      </trkpt>
      <trkpt lat="43.6416" lon="7.06811">
        <ele>180.60000610352</ele>
        <time>2022-04-12T09:20:03.000Z</time>
      </trkpt>
      <trkpt lat="43.64166" lon="7.06811">
        <ele>180.39999389648</ele>
        <time>2022-04-12T09:20:05.000Z</time>
      </trkpt>
      <trkpt lat="43.64173" lon="7.06814">
        <ele>180</ele>
        <time>2022-04-12T09:20:07.000Z</time>
      </trkpt>
      <trkpt lat="43.64179" lon="7.06815">
        <ele>180.19999694824</ele>
        <time>2022-04-12T09:20:11.000Z</time>
      </trkpt>
      <trkpt lat="43.6418" lon="7.06815">
        <ele>180.60000610352</ele>
        <time>2022-04-12T09:20:18.000Z</time>
      </trkpt>
      <trkpt lat="43.64183" lon="7.06809">
        <ele>180.80000305176</ele>
        <time>2022-04-12T09:20:31.000Z</time>
      </trkpt>
      <trkpt lat="43.64187" lon="7.06794">
        <ele>180.80000305176</ele>
        <time>2022-04-12T09:20:35.000Z</time>
      </trkpt>
      <trkpt lat="43.64193" lon="7.06776">
        <ele>180</ele>
        <time>2022-04-12T09:20:39.000Z</time>
      </trkpt>
      <trkpt lat="43.64193" lon="7.06766">
        <ele>179.39999389648</ele>
        <time>2022-04-12T09:20:42.000Z</time>
      </trkpt>
      <trkpt lat="43.64189" lon="7.06761">
        <ele>178.80000305176</ele>
        <time>2022-04-12T09:20:44.000Z</time>
      </trkpt>
      <trkpt lat="43.64186" lon="7.06752">
        <ele>178.19999694824</ele>
        <time>2022-04-12T09:20:46.000Z</time>
      </trkpt>
      <trkpt lat="43.64186" lon="7.06745">
        <ele>177.60000610352</ele>
        <time>2022-04-12T09:20:48.000Z</time>
      </trkpt>
      <trkpt lat="43.6418" lon="7.06741">
        <ele>176.80000305176</ele>
        <time>2022-04-12T09:20:50.000Z</time>
      </trkpt>
      <trkpt lat="43.64177" lon="7.06739">
        <ele>176.60000610352</ele>
        <time>2022-04-12T09:20:51.000Z</time>
      </trkpt>
      <trkpt lat="43.64169" lon="7.06734">
        <ele>176.19999694824</ele>
        <time>2022-04-12T09:20:53.000Z</time>
      </trkpt>
      <trkpt lat="43.64162" lon="7.0673">
        <ele>175.39999389648</ele>
        <time>2022-04-12T09:20:55.000Z</time>
      </trkpt>
      <trkpt lat="43.64156" lon="7.06726">
        <ele>174.39999389648</ele>
        <time>2022-04-12T09:20:57.000Z</time>
      </trkpt>
      <trkpt lat="43.64156" lon="7.06724">
        <ele>174.19999694824</ele>
        <time>2022-04-12T09:20:58.000Z</time>
      </trkpt>
      <trkpt lat="43.64155" lon="7.06721">
        <ele>173.80000305176</ele>
        <time>2022-04-12T09:20:59.000Z</time>
      </trkpt>
      <trkpt lat="43.64153" lon="7.06705">
        <ele>173.60000610352</ele>
        <time>2022-04-12T09:21:03.000Z</time>
      </trkpt>
      <trkpt lat="43.64152" lon="7.06693">
        <ele>173.19999694824</ele>
        <time>2022-04-12T09:21:06.000Z</time>
      </trkpt>
      <trkpt lat="43.64151" lon="7.06688">
        <ele>172.60000610352</ele>
        <time>2022-04-12T09:21:08.000Z</time>
      </trkpt>
      <trkpt lat="43.64151" lon="7.06688">
        <ele>172</ele>
        <time>2022-04-12T09:21:09.000Z</time>
      </trkpt>
      <trkpt lat="43.64151" lon="7.06685">
        <ele>171.19999694824</ele>
        <time>2022-04-12T09:21:13.000Z</time>
      </trkpt>
      <trkpt lat="43.6415" lon="7.06679">
        <ele>171.19999694824</ele>
        <time>2022-04-12T09:21:16.000Z</time>
      </trkpt>
      <trkpt lat="43.6415" lon="7.06677">
        <ele>171</ele>
        <time>2022-04-12T09:21:20.000Z</time>
      </trkpt>
      <trkpt lat="43.6415" lon="7.06676">
        <ele>171</ele>
        <time>2022-04-12T09:21:21.000Z</time>
      </trkpt>
      <trkpt lat="43.64149" lon="7.06674">
        <ele>171</ele>
        <time>2022-04-12T09:21:25.000Z</time>
      </trkpt>
      <trkpt lat="43.64149" lon="7.06672">
        <ele>170</ele>
        <time>2022-04-12T09:21:32.000Z</time>
      </trkpt>
      <trkpt lat="43.64149" lon="7.06671">
        <ele>169.80000305176</ele>
        <time>2022-04-12T09:21:33.000Z</time>
      </trkpt>
      <trkpt lat="43.64148" lon="7.06668">
        <ele>169.39999389648</ele>
        <time>2022-04-12T09:21:37.000Z</time>
      </trkpt>
      <trkpt lat="43.64147" lon="7.06667">
        <ele>169.19999694824</ele>
        <time>2022-04-12T09:21:38.000Z</time>
      </trkpt>
      <trkpt lat="43.64147" lon="7.06659">
        <ele>169.39999389648</ele>
        <time>2022-04-12T09:21:44.000Z</time>
      </trkpt>
      <trkpt lat="43.64146" lon="7.06653">
        <ele>169</ele>
        <time>2022-04-12T09:21:50.000Z</time>
      </trkpt>
      <trkpt lat="43.64145" lon="7.0665">
        <ele>169</ele>
        <time>2022-04-12T09:21:55.000Z</time>
      </trkpt>
      <trkpt lat="43.64145" lon="7.0665">
        <ele>168.80000305176</ele>
        <time>2022-04-12T09:21:56.000Z</time>
      </trkpt>
      <trkpt lat="43.64145" lon="7.06649">
        <ele>168.60000610352</ele>
        <time>2022-04-12T09:21:57.000Z</time>
      </trkpt>
      <trkpt lat="43.64145" lon="7.06643">
        <ele>168.60000610352</ele>
        <time>2022-04-12T09:22:03.000Z</time>
      </trkpt>
      <trkpt lat="43.64144" lon="7.0664">
        <ele>168.19999694824</ele>
        <time>2022-04-12T09:22:08.000Z</time>
      </trkpt>
      <trkpt lat="43.64144" lon="7.06637">
        <ele>169.39999389648</ele>
        <time>2022-04-12T09:22:14.000Z</time>
      </trkpt>
      <trkpt lat="43.64143" lon="7.06634">
        <ele>169.60000610352</ele>
        <time>2022-04-12T09:22:21.000Z</time>
      </trkpt>
      <trkpt lat="43.64143" lon="7.06627">
        <ele>169.39999389648</ele>
        <time>2022-04-12T09:22:29.000Z</time>
      </trkpt>
      <trkpt lat="43.64143" lon="7.06625">
        <ele>169.19999694824</ele>
        <time>2022-04-12T09:22:35.000Z</time>
      </trkpt>
      <trkpt lat="43.64143" lon="7.06622">
        <ele>169.39999389648</ele>
        <time>2022-04-12T09:22:39.000Z</time>
      </trkpt>
      <trkpt lat="43.64143" lon="7.06619">
        <ele>169.39999389648</ele>
        <time>2022-04-12T09:22:41.000Z</time>
      </trkpt>
      <trkpt lat="43.64143" lon="7.06616">
        <ele>168.60000610352</ele>
        <time>2022-04-12T09:22:45.000Z</time>
      </trkpt>
      <trkpt lat="43.64143" lon="7.06616">
        <ele>167.60000610352</ele>
        <time>2022-04-12T09:22:47.000Z</time>
      </trkpt>
      <trkpt lat="43.64143" lon="7.06615">
        <ele>166.60000610352</ele>
        <time>2022-04-12T09:22:49.000Z</time>
      </trkpt>
      <trkpt lat="43.64143" lon="7.06614">
        <ele>165.80000305176</ele>
        <time>2022-04-12T09:22:56.000Z</time>
      </trkpt>
      <trkpt lat="43.64144" lon="7.06614">
        <ele>166.39999389648</ele>
        <time>2022-04-12T09:23:05.000Z</time>
      </trkpt>
      <trkpt lat="43.64145" lon="7.06613">
        <ele>166.80000305176</ele>
        <time>2022-04-12T09:23:13.000Z</time>
      </trkpt>
      <trkpt lat="43.64145" lon="7.06611">
        <ele>167.39999389648</ele>
        <time>2022-04-12T09:23:23.000Z</time>
      </trkpt>
      <trkpt lat="43.64145" lon="7.0661">
        <ele>167.60000610352</ele>
        <time>2022-04-12T09:23:30.000Z</time>
      </trkpt>
      <trkpt lat="43.64145" lon="7.06609">
        <ele>167.60000610352</ele>
        <time>2022-04-12T09:23:31.000Z</time>
      </trkpt>
      <trkpt lat="43.64144" lon="7.06606">
        <ele>167</ele>
        <time>2022-04-12T09:23:37.000Z</time>
      </trkpt>
      <trkpt lat="43.64144" lon="7.06607">
        <ele>166.60000610352</ele>
        <time>2022-04-12T09:23:40.000Z</time>
      </trkpt>
      <trkpt lat="43.64144" lon="7.06607">
        <ele>166.39999389648</ele>
        <time>2022-04-12T09:23:44.000Z</time>
      </trkpt>
      <trkpt lat="43.64144" lon="7.06605">
        <ele>166.19999694824</ele>
        <time>2022-04-12T09:23:49.000Z</time>
      </trkpt>
      <trkpt lat="43.64143" lon="7.06604">
        <ele>166.39999389648</ele>
        <time>2022-04-12T09:23:55.000Z</time>
      </trkpt>
      <trkpt lat="43.64143" lon="7.06603">
        <ele>166.19999694824</ele>
        <time>2022-04-12T09:23:59.000Z</time>
      </trkpt>
      <trkpt lat="43.64142" lon="7.06598">
        <ele>166.19999694824</ele>
        <time>2022-04-12T09:24:01.000Z</time>
      </trkpt>
      <trkpt lat="43.64142" lon="7.06593">
        <ele>166</ele>
        <time>2022-04-12T09:24:03.000Z</time>
      </trkpt>
      <trkpt lat="43.64137" lon="7.06589">
        <ele>165.39999389648</ele>
        <time>2022-04-12T09:24:05.000Z</time>
      </trkpt>
      <trkpt lat="43.64132" lon="7.06586">
        <ele>164.60000610352</ele>
        <time>2022-04-12T09:24:06.000Z</time>
      </trkpt>
      <trkpt lat="43.64129" lon="7.06583">
        <ele>164</ele>
        <time>2022-04-12T09:24:07.000Z</time>
      </trkpt>
      <trkpt lat="43.64112" lon="7.06574">
        <ele>163.60000610352</ele>
        <time>2022-04-12T09:24:12.000Z</time>
      </trkpt>
      <trkpt lat="43.64099" lon="7.06568">
        <ele>163.39999389648</ele>
        <time>2022-04-12T09:24:18.000Z</time>
      </trkpt>
      <trkpt lat="43.64095" lon="7.06566">
        <ele>163.39999389648</ele>
        <time>2022-04-12T09:24:22.000Z</time>
      </trkpt>
      <trkpt lat="43.64095" lon="7.06566">
        <ele>162.80000305176</ele>
        <time>2022-04-12T09:24:29.000Z</time>
      </trkpt>
      <trkpt lat="43.64095" lon="7.06566">
        <ele>162.80000305176</ele>
        <time>2022-04-12T09:24:30.000Z</time>
      </trkpt>
      <trkpt lat="43.64095" lon="7.06566">
        <ele>162.19999694824</ele>
        <time>2022-04-12T09:24:38.000Z</time>
      </trkpt>
      <trkpt lat="43.64094" lon="7.06567">
        <ele>162</ele>
        <time>2022-04-12T09:24:45.000Z</time>
      </trkpt>
      <trkpt lat="43.64092" lon="7.06567">
        <ele>162</ele>
        <time>2022-04-12T09:24:50.000Z</time>
      </trkpt>
      <trkpt lat="43.6409" lon="7.06567">
        <ele>162</ele>
        <time>2022-04-12T09:24:51.000Z</time>
      </trkpt>
      <trkpt lat="43.64088" lon="7.06566">
        <ele>161.80000305176</ele>
        <time>2022-04-12T09:24:52.000Z</time>
      </trkpt>
      <trkpt lat="43.64077" lon="7.06562">
        <ele>161.60000610352</ele>
        <time>2022-04-12T09:24:56.000Z</time>
      </trkpt>
      <trkpt lat="43.64057" lon="7.06559">
        <ele>163</ele>
        <time>2022-04-12T09:25:04.000Z</time>
      </trkpt>
      <trkpt lat="43.64052" lon="7.06549">
        <ele>164</ele>
        <time>2022-04-12T09:25:08.000Z</time>
      </trkpt>
      <trkpt lat="43.64048" lon="7.06546">
        <ele>164.39999389648</ele>
        <time>2022-04-12T09:25:10.000Z</time>
      </trkpt>
      <trkpt lat="43.64042" lon="7.06538">
        <ele>165.19999694824</ele>
        <time>2022-04-12T09:25:13.000Z</time>
      </trkpt>
      <trkpt lat="43.6404" lon="7.06535">
        <ele>165.19999694824</ele>
        <time>2022-04-12T09:25:14.000Z</time>
      </trkpt>
      <trkpt lat="43.64027" lon="7.06502">
        <ele>165.39999389648</ele>
        <time>2022-04-12T09:25:23.000Z</time>
      </trkpt>
      <trkpt lat="43.64019" lon="7.06474">
        <ele>165.39999389648</ele>
        <time>2022-04-12T09:25:30.000Z</time>
      </trkpt>
      <trkpt lat="43.6402" lon="7.0645">
        <ele>165</ele>
        <time>2022-04-12T09:25:35.000Z</time>
      </trkpt>
      <trkpt lat="43.64025" lon="7.06415">
        <ele>164.19999694824</ele>
        <time>2022-04-12T09:25:42.000Z</time>
      </trkpt>
      <trkpt lat="43.64026" lon="7.0641">
        <ele>164</ele>
        <time>2022-04-12T09:25:43.000Z</time>
      </trkpt>
      <trkpt lat="43.64032" lon="7.06364">
        <ele>163.39999389648</ele>
        <time>2022-04-12T09:25:52.000Z</time>
      </trkpt>
      <trkpt lat="43.64035" lon="7.06328">
        <ele>165.19999694824</ele>
        <time>2022-04-12T09:26:00.000Z</time>
      </trkpt>
      <trkpt lat="43.64039" lon="7.06302">
        <ele>166.19999694824</ele>
        <time>2022-04-12T09:26:06.000Z</time>
      </trkpt>
      <trkpt lat="43.64042" lon="7.0628">
        <ele>167</ele>
        <time>2022-04-12T09:26:11.000Z</time>
      </trkpt>
      <trkpt lat="43.64043" lon="7.06271">
        <ele>167.39999389648</ele>
        <time>2022-04-12T09:26:13.000Z</time>
      </trkpt>
      <trkpt lat="43.64044" lon="7.0626">
        <ele>168.60000610352</ele>
        <time>2022-04-12T09:26:16.000Z</time>
      </trkpt>
      <trkpt lat="43.64045" lon="7.06256">
        <ele>169</ele>
        <time>2022-04-12T09:26:17.000Z</time>
      </trkpt>
      <trkpt lat="43.64046" lon="7.06244">
        <ele>169.80000305176</ele>
        <time>2022-04-12T09:26:20.000Z</time>
      </trkpt>
      <trkpt lat="43.64049" lon="7.06223">
        <ele>170.60000610352</ele>
        <time>2022-04-12T09:26:25.000Z</time>
      </trkpt>
      <trkpt lat="43.6405" lon="7.0621">
        <ele>171</ele>
        <time>2022-04-12T09:26:28.000Z</time>
      </trkpt>
      <trkpt lat="43.64053" lon="7.0619">
        <ele>172.19999694824</ele>
        <time>2022-04-12T09:26:33.000Z</time>
      </trkpt>
      <trkpt lat="43.64054" lon="7.06186">
        <ele>172.39999389648</ele>
        <time>2022-04-12T09:26:34.000Z</time>
      </trkpt>
      <trkpt lat="43.64056" lon="7.06173">
        <ele>173.19999694824</ele>
        <time>2022-04-12T09:26:37.000Z</time>
      </trkpt>
      <trkpt lat="43.64061" lon="7.06148">
        <ele>174.39999389648</ele>
        <time>2022-04-12T09:26:43.000Z</time>
      </trkpt>
      <trkpt lat="43.64062" lon="7.06144">
        <ele>174.80000305176</ele>
        <time>2022-04-12T09:26:44.000Z</time>
      </trkpt>
      <trkpt lat="43.64066" lon="7.06129">
        <ele>175.39999389648</ele>
        <time>2022-04-12T09:26:48.000Z</time>
      </trkpt>
      <trkpt lat="43.64069" lon="7.06114">
        <ele>176.80000305176</ele>
        <time>2022-04-12T09:26:52.000Z</time>
      </trkpt>
      <trkpt lat="43.6407" lon="7.0611">
        <ele>177</ele>
        <time>2022-04-12T09:26:53.000Z</time>
      </trkpt>
      <trkpt lat="43.64071" lon="7.06097">
        <ele>177.80000305176</ele>
        <time>2022-04-12T09:26:56.000Z</time>
      </trkpt>
      <trkpt lat="43.6407" lon="7.06084">
        <ele>178.60000610352</ele>
        <time>2022-04-12T09:26:59.000Z</time>
      </trkpt>
      <trkpt lat="43.64069" lon="7.0608">
        <ele>178.80000305176</ele>
        <time>2022-04-12T09:27:00.000Z</time>
      </trkpt>
      <trkpt lat="43.64062" lon="7.06055">
        <ele>179.60000610352</ele>
        <time>2022-04-12T09:27:06.000Z</time>
      </trkpt>
      <trkpt lat="43.64059" lon="7.06048">
        <ele>179.80000305176</ele>
        <time>2022-04-12T09:27:08.000Z</time>
      </trkpt>
      <trkpt lat="43.64051" lon="7.06033">
        <ele>181</ele>
        <time>2022-04-12T09:27:12.000Z</time>
      </trkpt>
      <trkpt lat="43.64045" lon="7.06023">
        <ele>181.80000305176</ele>
        <time>2022-04-12T09:27:15.000Z</time>
      </trkpt>
      <trkpt lat="43.64043" lon="7.06019">
        <ele>182</ele>
        <time>2022-04-12T09:27:16.000Z</time>
      </trkpt>
      <trkpt lat="43.64033" lon="7.06002">
        <ele>183</ele>
        <time>2022-04-12T09:27:21.000Z</time>
      </trkpt>
      <trkpt lat="43.64024" lon="7.05983">
        <ele>184.19999694824</ele>
        <time>2022-04-12T09:27:26.000Z</time>
      </trkpt>
      <trkpt lat="43.64019" lon="7.05969">
        <ele>185.19999694824</ele>
        <time>2022-04-12T09:27:30.000Z</time>
      </trkpt>
      <trkpt lat="43.64017" lon="7.0596">
        <ele>185.80000305176</ele>
        <time>2022-04-12T09:27:32.000Z</time>
      </trkpt>
      <trkpt lat="43.64016" lon="7.05952">
        <ele>186.39999389648</ele>
        <time>2022-04-12T09:27:34.000Z</time>
      </trkpt>
      <trkpt lat="43.64017" lon="7.05934">
        <ele>187.19999694824</ele>
        <time>2022-04-12T09:27:38.000Z</time>
      </trkpt>
      <trkpt lat="43.64018" lon="7.05926">
        <ele>187.39999389648</ele>
        <time>2022-04-12T09:27:40.000Z</time>
      </trkpt>
      <trkpt lat="43.64022" lon="7.05894">
        <ele>188.19999694824</ele>
        <time>2022-04-12T09:27:47.000Z</time>
      </trkpt>
      <trkpt lat="43.64027" lon="7.05858">
        <ele>187.19999694824</ele>
        <time>2022-04-12T09:27:54.000Z</time>
      </trkpt>
      <trkpt lat="43.64029" lon="7.05829">
        <ele>186.19999694824</ele>
        <time>2022-04-12T09:27:59.000Z</time>
      </trkpt>
      <trkpt lat="43.64031" lon="7.05812">
        <ele>185.60000610352</ele>
        <time>2022-04-12T09:28:02.000Z</time>
      </trkpt>
      <trkpt lat="43.64033" lon="7.05801">
        <ele>185.19999694824</ele>
        <time>2022-04-12T09:28:04.000Z</time>
      </trkpt>
      <trkpt lat="43.64037" lon="7.05765">
        <ele>184</ele>
        <time>2022-04-12T09:28:10.000Z</time>
      </trkpt>
      <trkpt lat="43.64042" lon="7.05743">
        <ele>183.39999389648</ele>
        <time>2022-04-12T09:28:14.000Z</time>
      </trkpt>
      <trkpt lat="43.64041" lon="7.05734">
        <ele>183.39999389648</ele>
        <time>2022-04-12T09:28:16.000Z</time>
      </trkpt>
      <trkpt lat="43.64039" lon="7.05729">
        <ele>183.39999389648</ele>
        <time>2022-04-12T09:28:17.000Z</time>
      </trkpt>
      <trkpt lat="43.64021" lon="7.05709">
        <ele>183</ele>
        <time>2022-04-12T09:28:22.000Z</time>
      </trkpt>
      <trkpt lat="43.64017" lon="7.05704">
        <ele>182.80000305176</ele>
        <time>2022-04-12T09:28:23.000Z</time>
      </trkpt>
      <trkpt lat="43.64003" lon="7.0569">
        <ele>181.80000305176</ele>
        <time>2022-04-12T09:28:26.000Z</time>
      </trkpt>
      <trkpt lat="43.6399" lon="7.05675">
        <ele>180.60000610352</ele>
        <time>2022-04-12T09:28:29.000Z</time>
      </trkpt>
      <trkpt lat="43.63986" lon="7.0567">
        <ele>180.39999389648</ele>
        <time>2022-04-12T09:28:30.000Z</time>
      </trkpt>
      <trkpt lat="43.63973" lon="7.05655">
        <ele>179.39999389648</ele>
        <time>2022-04-12T09:28:33.000Z</time>
      </trkpt>
      <trkpt lat="43.63961" lon="7.05642">
        <ele>178.60000610352</ele>
        <time>2022-04-12T09:28:36.000Z</time>
      </trkpt>
      <trkpt lat="43.63957" lon="7.05638">
        <ele>178.19999694824</ele>
        <time>2022-04-12T09:28:37.000Z</time>
      </trkpt>
      <trkpt lat="43.63948" lon="7.05624">
        <ele>177</ele>
        <time>2022-04-12T09:28:41.000Z</time>
      </trkpt>
      <trkpt lat="43.63947" lon="7.0562">
        <ele>176.80000305176</ele>
        <time>2022-04-12T09:28:42.000Z</time>
      </trkpt>
      <trkpt lat="43.63945" lon="7.05588">
        <ele>177.60000610352</ele>
        <time>2022-04-12T09:28:49.000Z</time>
      </trkpt>
      <trkpt lat="43.63945" lon="7.05574">
        <ele>178</ele>
        <time>2022-04-12T09:28:52.000Z</time>
      </trkpt>
      <trkpt lat="43.63945" lon="7.05549">
        <ele>179.19999694824</ele>
        <time>2022-04-12T09:28:57.000Z</time>
      </trkpt>
      <trkpt lat="43.63946" lon="7.05544">
        <ele>179.39999389648</ele>
        <time>2022-04-12T09:28:58.000Z</time>
      </trkpt>
      <trkpt lat="43.63947" lon="7.05529">
        <ele>180.19999694824</ele>
        <time>2022-04-12T09:29:01.000Z</time>
      </trkpt>
      <trkpt lat="43.63948" lon="7.0551">
        <ele>181.39999389648</ele>
        <time>2022-04-12T09:29:05.000Z</time>
      </trkpt>
      <trkpt lat="43.6395" lon="7.05488">
        <ele>182.39999389648</ele>
        <time>2022-04-12T09:29:10.000Z</time>
      </trkpt>
      <trkpt lat="43.63951" lon="7.05484">
        <ele>182.80000305176</ele>
        <time>2022-04-12T09:29:11.000Z</time>
      </trkpt>
      <trkpt lat="43.63953" lon="7.05472">
        <ele>183.60000610352</ele>
        <time>2022-04-12T09:29:14.000Z</time>
      </trkpt>
      <trkpt lat="43.63954" lon="7.0546">
        <ele>184.19999694824</ele>
        <time>2022-04-12T09:29:17.000Z</time>
      </trkpt>
      <trkpt lat="43.63955" lon="7.05447">
        <ele>184.60000610352</ele>
        <time>2022-04-12T09:29:20.000Z</time>
      </trkpt>
      <trkpt lat="43.63957" lon="7.05424">
        <ele>185.39999389648</ele>
        <time>2022-04-12T09:29:25.000Z</time>
      </trkpt>
      <trkpt lat="43.63961" lon="7.05387">
        <ele>185</ele>
        <time>2022-04-12T09:29:33.000Z</time>
      </trkpt>
      <trkpt lat="43.63965" lon="7.05358">
        <ele>185.19999694824</ele>
        <time>2022-04-12T09:29:39.000Z</time>
      </trkpt>
      <trkpt lat="43.63978" lon="7.05315">
        <ele>184.39999389648</ele>
        <time>2022-04-12T09:29:48.000Z</time>
      </trkpt>
      <trkpt lat="43.63992" lon="7.05274">
        <ele>184.39999389648</ele>
        <time>2022-04-12T09:29:57.000Z</time>
      </trkpt>
      <trkpt lat="43.64003" lon="7.05239">
        <ele>183.60000610352</ele>
        <time>2022-04-12T09:30:04.000Z</time>
      </trkpt>
      <trkpt lat="43.64013" lon="7.05209">
        <ele>184.39999389648</ele>
        <time>2022-04-12T09:30:10.000Z</time>
      </trkpt>
      <trkpt lat="43.64022" lon="7.0519">
        <ele>184.19999694824</ele>
        <time>2022-04-12T09:30:14.000Z</time>
      </trkpt>
      <trkpt lat="43.64025" lon="7.05185">
        <ele>184</ele>
        <time>2022-04-12T09:30:15.000Z</time>
      </trkpt>
      <trkpt lat="43.64037" lon="7.05168">
        <ele>184.80000305176</ele>
        <time>2022-04-12T09:30:20.000Z</time>
      </trkpt>
      <trkpt lat="43.64045" lon="7.05158">
        <ele>185.80000305176</ele>
        <time>2022-04-12T09:30:23.000Z</time>
      </trkpt>
      <trkpt lat="43.64055" lon="7.05146">
        <ele>186.60000610352</ele>
        <time>2022-04-12T09:30:27.000Z</time>
      </trkpt>
      <trkpt lat="43.64058" lon="7.05142">
        <ele>186.80000305176</ele>
        <time>2022-04-12T09:30:28.000Z</time>
      </trkpt>
      <trkpt lat="43.64072" lon="7.05125">
        <ele>186.60000610352</ele>
        <time>2022-04-12T09:30:33.000Z</time>
      </trkpt>
      <trkpt lat="43.64074" lon="7.05122">
        <ele>186.60000610352</ele>
        <time>2022-04-12T09:30:34.000Z</time>
      </trkpt>
      <trkpt lat="43.64081" lon="7.05118">
        <ele>186.39999389648</ele>
        <time>2022-04-12T09:30:36.000Z</time>
      </trkpt>
      <trkpt lat="43.64086" lon="7.05109">
        <ele>186.19999694824</ele>
        <time>2022-04-12T09:30:38.000Z</time>
      </trkpt>
      <trkpt lat="43.64093" lon="7.05102">
        <ele>186.19999694824</ele>
        <time>2022-04-12T09:30:40.000Z</time>
      </trkpt>
      <trkpt lat="43.64106" lon="7.05093">
        <ele>185.60000610352</ele>
        <time>2022-04-12T09:30:43.000Z</time>
      </trkpt>
      <trkpt lat="43.64111" lon="7.05091">
        <ele>185.39999389648</ele>
        <time>2022-04-12T09:30:44.000Z</time>
      </trkpt>
      <trkpt lat="43.64133" lon="7.0508">
        <ele>184.60000610352</ele>
        <time>2022-04-12T09:30:49.000Z</time>
      </trkpt>
      <trkpt lat="43.64138" lon="7.05078">
        <ele>184.39999389648</ele>
        <time>2022-04-12T09:30:50.000Z</time>
      </trkpt>
      <trkpt lat="43.64167" lon="7.05069">
        <ele>184</ele>
        <time>2022-04-12T09:30:56.000Z</time>
      </trkpt>
      <trkpt lat="43.6419" lon="7.05062">
        <ele>183.39999389648</ele>
        <time>2022-04-12T09:31:00.000Z</time>
      </trkpt>
      <trkpt lat="43.64203" lon="7.05059">
        <ele>182</ele>
        <time>2022-04-12T09:31:02.000Z</time>
      </trkpt>
      <trkpt lat="43.64217" lon="7.05056">
        <ele>180</ele>
        <time>2022-04-12T09:31:04.000Z</time>
      </trkpt>
      <trkpt lat="43.64232" lon="7.05053">
        <ele>178.39999389648</ele>
        <time>2022-04-12T09:31:06.000Z</time>
      </trkpt>
      <trkpt lat="43.64246" lon="7.05051">
        <ele>177</ele>
        <time>2022-04-12T09:31:08.000Z</time>
      </trkpt>
      <trkpt lat="43.6426" lon="7.05054">
        <ele>175.19999694824</ele>
        <time>2022-04-12T09:31:11.000Z</time>
      </trkpt>
      <trkpt lat="43.64271" lon="7.05056">
        <ele>175.19999694824</ele>
        <time>2022-04-12T09:31:13.000Z</time>
      </trkpt>
      <trkpt lat="43.64284" lon="7.05056">
        <ele>175.19999694824</ele>
        <time>2022-04-12T09:31:16.000Z</time>
      </trkpt>
      <trkpt lat="43.64301" lon="7.05046">
        <ele>174.19999694824</ele>
        <time>2022-04-12T09:31:20.000Z</time>
      </trkpt>
      <trkpt lat="43.6431" lon="7.05039">
        <ele>173.39999389648</ele>
        <time>2022-04-12T09:31:22.000Z</time>
      </trkpt>
      <trkpt lat="43.64315" lon="7.05034">
        <ele>173</ele>
        <time>2022-04-12T09:31:23.000Z</time>
      </trkpt>
      <trkpt lat="43.64319" lon="7.05031">
        <ele>172.60000610352</ele>
        <time>2022-04-12T09:31:24.000Z</time>
      </trkpt>
      <trkpt lat="43.64354" lon="7.05007">
        <ele>172.80000305176</ele>
        <time>2022-04-12T09:31:31.000Z</time>
      </trkpt>
      <trkpt lat="43.6438" lon="7.0499">
        <ele>172.39999389648</ele>
        <time>2022-04-12T09:31:36.000Z</time>
      </trkpt>
      <trkpt lat="43.64385" lon="7.04987">
        <ele>172.19999694824</ele>
        <time>2022-04-12T09:31:37.000Z</time>
      </trkpt>
      <trkpt lat="43.64391" lon="7.04985">
        <ele>171.80000305176</ele>
        <time>2022-04-12T09:31:38.000Z</time>
      </trkpt>
      <trkpt lat="43.64402" lon="7.04984">
        <ele>171.39999389648</ele>
        <time>2022-04-12T09:31:40.000Z</time>
      </trkpt>
      <trkpt lat="43.64407" lon="7.04982">
        <ele>171.39999389648</ele>
        <time>2022-04-12T09:31:41.000Z</time>
      </trkpt>
      <trkpt lat="43.64412" lon="7.04979">
        <ele>171.60000610352</ele>
        <time>2022-04-12T09:31:42.000Z</time>
      </trkpt>
      <trkpt lat="43.64428" lon="7.04972">
        <ele>171.39999389648</ele>
        <time>2022-04-12T09:31:45.000Z</time>
      </trkpt>
      <trkpt lat="43.64433" lon="7.0497">
        <ele>171.19999694824</ele>
        <time>2022-04-12T09:31:46.000Z</time>
      </trkpt>
      <trkpt lat="43.64442" lon="7.04963">
        <ele>170.39999389648</ele>
        <time>2022-04-12T09:31:48.000Z</time>
      </trkpt>
      <trkpt lat="43.64445" lon="7.04958">
        <ele>170.19999694824</ele>
        <time>2022-04-12T09:31:49.000Z</time>
      </trkpt>
      <trkpt lat="43.6445" lon="7.04939">
        <ele>170.19999694824</ele>
        <time>2022-04-12T09:31:52.000Z</time>
      </trkpt>
      <trkpt lat="43.64451" lon="7.04933">
        <ele>170.19999694824</ele>
        <time>2022-04-12T09:31:53.000Z</time>
      </trkpt>
      <trkpt lat="43.64457" lon="7.04894">
        <ele>169.60000610352</ele>
        <time>2022-04-12T09:31:59.000Z</time>
      </trkpt>
      <trkpt lat="43.64466" lon="7.04889">
        <ele>170.39999389648</ele>
        <time>2022-04-12T09:32:02.000Z</time>
      </trkpt>
      <trkpt lat="43.64469" lon="7.04885">
        <ele>170.80000305176</ele>
        <time>2022-04-12T09:32:04.000Z</time>
      </trkpt>
      <trkpt lat="43.6447" lon="7.04882">
        <ele>171.19999694824</ele>
        <time>2022-04-12T09:32:07.000Z</time>
      </trkpt>
      <trkpt lat="43.6447" lon="7.04881">
        <ele>171.39999389648</ele>
        <time>2022-04-12T09:32:09.000Z</time>
      </trkpt>
      <trkpt lat="43.64472" lon="7.0488">
        <ele>171</ele>
        <time>2022-04-12T09:32:13.000Z</time>
      </trkpt>
      <trkpt lat="43.64473" lon="7.04878">
        <ele>171.39999389648</ele>
        <time>2022-04-12T09:32:18.000Z</time>
      </trkpt>
      <trkpt lat="43.64473" lon="7.04874">
        <ele>171.39999389648</ele>
        <time>2022-04-12T09:32:26.000Z</time>
      </trkpt>
      <trkpt lat="43.64473" lon="7.04876">
        <ele>172.19999694824</ele>
        <time>2022-04-12T09:32:33.000Z</time>
      </trkpt>
      <trkpt lat="43.64473" lon="7.04876">
        <ele>172.39999389648</ele>
        <time>2022-04-12T09:32:34.000Z</time>
      </trkpt>
      <trkpt lat="43.64473" lon="7.04879">
        <ele>173.39999389648</ele>
        <time>2022-04-12T09:32:40.000Z</time>
      </trkpt>
      <trkpt lat="43.64473" lon="7.04881">
        <ele>173.60000610352</ele>
        <time>2022-04-12T09:32:41.000Z</time>
      </trkpt>
      <trkpt lat="43.64475" lon="7.04882">
        <ele>173</ele>
        <time>2022-04-12T09:32:46.000Z</time>
      </trkpt>
      <trkpt lat="43.64476" lon="7.04883">
        <ele>173.19999694824</ele>
        <time>2022-04-12T09:32:51.000Z</time>
      </trkpt>
      <trkpt lat="43.64475" lon="7.04886">
        <ele>173</ele>
        <time>2022-04-12T09:32:58.000Z</time>
      </trkpt>
      <trkpt lat="43.64477" lon="7.04885">
        <ele>174.39999389648</ele>
        <time>2022-04-12T09:33:06.000Z</time>
      </trkpt>
      <trkpt lat="43.64477" lon="7.04885">
        <ele>175</ele>
        <time>2022-04-12T09:33:09.000Z</time>
      </trkpt>
      <trkpt lat="43.64477" lon="7.04886">
        <ele>173.39999389648</ele>
        <time>2022-04-12T09:33:14.000Z</time>
      </trkpt>
      <trkpt lat="43.64477" lon="7.04887">
        <ele>172</ele>
        <time>2022-04-12T09:33:16.000Z</time>
      </trkpt>
      <trkpt lat="43.64477" lon="7.04887">
        <ele>170.80000305176</ele>
        <time>2022-04-12T09:33:19.000Z</time>
      </trkpt>
      <trkpt lat="43.64477" lon="7.04887">
        <ele>172.19999694824</ele>
        <time>2022-04-12T09:33:25.000Z</time>
      </trkpt>
      <trkpt lat="43.64477" lon="7.04887">
        <ele>172.60000610352</ele>
        <time>2022-04-12T09:33:26.000Z</time>
      </trkpt>
      <trkpt lat="43.64477" lon="7.04888">
        <ele>170.80000305176</ele>
        <time>2022-04-12T09:33:34.000Z</time>
      </trkpt>
      <trkpt lat="43.64477" lon="7.04888">
        <ele>170.80000305176</ele>
        <time>2022-04-12T09:33:35.000Z</time>
      </trkpt>
      <trkpt lat="43.64478" lon="7.04889">
        <ele>172</ele>
        <time>2022-04-12T09:33:42.000Z</time>
      </trkpt>
      <trkpt lat="43.64478" lon="7.04889">
        <ele>172.19999694824</ele>
        <time>2022-04-12T09:33:43.000Z</time>
      </trkpt>
      <trkpt lat="43.64478" lon="7.04889">
        <ele>173</ele>
        <time>2022-04-12T09:33:45.000Z</time>
      </trkpt>
      <trkpt lat="43.64478" lon="7.04889">
        <ele>173.60000610352</ele>
        <time>2022-04-12T09:33:53.000Z</time>
      </trkpt>
      <trkpt lat="43.64478" lon="7.04891">
        <ele>173.39999389648</ele>
        <time>2022-04-12T09:34:10.000Z</time>
      </trkpt>
      <trkpt lat="43.64478" lon="7.04892">
        <ele>173.19999694824</ele>
        <time>2022-04-12T09:34:17.000Z</time>
      </trkpt>
      <trkpt lat="43.64477" lon="7.04891">
        <ele>173.60000610352</ele>
        <time>2022-04-12T09:34:24.000Z</time>
      </trkpt>
      <trkpt lat="43.64478" lon="7.0489">
        <ele>173.39999389648</ele>
        <time>2022-04-12T09:34:32.000Z</time>
      </trkpt>
      <trkpt lat="43.64478" lon="7.04891">
        <ele>173</ele>
        <time>2022-04-12T09:34:40.000Z</time>
      </trkpt>
      <trkpt lat="43.64479" lon="7.04889">
        <ele>173.19999694824</ele>
        <time>2022-04-12T09:34:48.000Z</time>
      </trkpt>
      <trkpt lat="43.64479" lon="7.04887">
        <ele>172.80000305176</ele>
        <time>2022-04-12T09:35:00.000Z</time>
      </trkpt>
      <trkpt lat="43.64479" lon="7.04886">
        <ele>173.80000305176</ele>
        <time>2022-04-12T09:35:09.000Z</time>
      </trkpt>
      <trkpt lat="43.64479" lon="7.0489">
        <ele>173.60000610352</ele>
        <time>2022-04-12T09:35:24.000Z</time>
      </trkpt>
      <trkpt lat="43.64478" lon="7.0489">
        <ele>173.19999694824</ele>
        <time>2022-04-12T09:35:30.000Z</time>
      </trkpt>
      <trkpt lat="43.64479" lon="7.0489">
        <ele>173.39999389648</ele>
        <time>2022-04-12T09:35:36.000Z</time>
      </trkpt>
      <trkpt lat="43.64478" lon="7.04892">
        <ele>173.60000610352</ele>
        <time>2022-04-12T09:35:48.000Z</time>
      </trkpt>
      <trkpt lat="43.64478" lon="7.04892">
        <ele>172.80000305176</ele>
        <time>2022-04-12T09:36:00.000Z</time>
      </trkpt>
      <trkpt lat="43.64477" lon="7.04892">
        <ele>172.60000610352</ele>
        <time>2022-04-12T09:36:08.000Z</time>
      </trkpt>
      <trkpt lat="43.64477" lon="7.04893">
        <ele>172.19999694824</ele>
        <time>2022-04-12T09:36:14.000Z</time>
      </trkpt>
      <trkpt lat="43.64478" lon="7.04892">
        <ele>172</ele>
        <time>2022-04-12T09:36:16.000Z</time>
      </trkpt>
      <trkpt lat="43.64479" lon="7.0489">
        <ele>172.60000610352</ele>
        <time>2022-04-12T09:36:19.000Z</time>
      </trkpt>
      <trkpt lat="43.64479" lon="7.0489">
        <ele>173.19999694824</ele>
        <time>2022-04-12T09:36:21.000Z</time>
      </trkpt>
      <trkpt lat="43.64478" lon="7.04888">
        <ele>173</ele>
        <time>2022-04-12T09:36:28.000Z</time>
      </trkpt>
      <trkpt lat="43.64479" lon="7.04887">
        <ele>173.60000610352</ele>
        <time>2022-04-12T09:36:39.000Z</time>
      </trkpt>
      <trkpt lat="43.64478" lon="7.04886">
        <ele>173</ele>
        <time>2022-04-12T09:36:51.000Z</time>
      </trkpt>
      <trkpt lat="43.64478" lon="7.04885">
        <ele>172.80000305176</ele>
        <time>2022-04-12T09:36:57.000Z</time>
      </trkpt>
      <trkpt lat="43.64478" lon="7.04885">
        <ele>172</ele>
        <time>2022-04-12T09:37:01.000Z</time>
      </trkpt>
      <trkpt lat="43.64479" lon="7.04886">
        <ele>171.80000305176</ele>
        <time>2022-04-12T09:37:06.000Z</time>
      </trkpt>
      <trkpt lat="43.64479" lon="7.04886">
        <ele>173.19999694824</ele>
        <time>2022-04-12T09:37:11.000Z</time>
      </trkpt>
      <trkpt lat="43.64479" lon="7.04886">
        <ele>172</ele>
        <time>2022-04-12T09:37:17.000Z</time>
      </trkpt>
      <trkpt lat="43.64479" lon="7.04886">
        <ele>172</ele>
        <time>2022-04-12T09:37:21.000Z</time>
      </trkpt>
      <trkpt lat="43.64479" lon="7.04885">
        <ele>173</ele>
        <time>2022-04-12T09:37:27.000Z</time>
      </trkpt>
      <trkpt lat="43.64479" lon="7.04885">
        <ele>173</ele>
        <time>2022-04-12T09:37:29.000Z</time>
      </trkpt>
      <trkpt lat="43.64478" lon="7.04886">
        <ele>172.60000610352</ele>
        <time>2022-04-12T09:37:41.000Z</time>
      </trkpt>
      <trkpt lat="43.64478" lon="7.04887">
        <ele>172.80000305176</ele>
        <time>2022-04-12T09:37:50.000Z</time>
      </trkpt>
      <trkpt lat="43.64478" lon="7.04887">
        <ele>173.19999694824</ele>
        <time>2022-04-12T09:37:57.000Z</time>
      </trkpt>
      <trkpt lat="43.64477" lon="7.04886">
        <ele>173.39999389648</ele>
        <time>2022-04-12T09:38:05.000Z</time>
      </trkpt>
      <trkpt lat="43.64477" lon="7.04886">
        <ele>172.80000305176</ele>
        <time>2022-04-12T09:38:11.000Z</time>
      </trkpt>
      <trkpt lat="43.64477" lon="7.04887">
        <ele>172.80000305176</ele>
        <time>2022-04-12T09:38:20.000Z</time>
      </trkpt>
      <trkpt lat="43.64477" lon="7.04887">
        <ele>172.60000610352</ele>
        <time>2022-04-12T09:38:25.000Z</time>
      </trkpt>
      <trkpt lat="43.64475" lon="7.04887">
        <ele>172.80000305176</ele>
        <time>2022-04-12T09:38:27.000Z</time>
      </trkpt>
      <trkpt lat="43.64475" lon="7.04887">
        <ele>172.80000305176</ele>
        <time>2022-04-12T09:38:28.000Z</time>
      </trkpt>
      <trkpt lat="43.64473" lon="7.04887">
        <ele>172.80000305176</ele>
        <time>2022-04-12T09:38:35.000Z</time>
      </trkpt>
      <trkpt lat="43.64471" lon="7.04887">
        <ele>171.80000305176</ele>
        <time>2022-04-12T09:38:42.000Z</time>
      </trkpt>
      <trkpt lat="43.64471" lon="7.04887">
        <ele>171.60000610352</ele>
        <time>2022-04-12T09:38:45.000Z</time>
      </trkpt>
      <trkpt lat="43.64472" lon="7.04888">
        <ele>172.39999389648</ele>
        <time>2022-04-12T09:38:54.000Z</time>
      </trkpt>
      <trkpt lat="43.64472" lon="7.04889">
        <ele>173</ele>
        <time>2022-04-12T09:38:57.000Z</time>
      </trkpt>
      <trkpt lat="43.6447" lon="7.04889">
        <ele>172</ele>
        <time>2022-04-12T09:39:05.000Z</time>
      </trkpt>
      <trkpt lat="43.6447" lon="7.04889">
        <ele>171.80000305176</ele>
        <time>2022-04-12T09:39:08.000Z</time>
      </trkpt>
      <trkpt lat="43.6447" lon="7.04889">
        <ele>171.39999389648</ele>
        <time>2022-04-12T09:39:11.000Z</time>
      </trkpt>
      <trkpt lat="43.6447" lon="7.0489">
        <ele>172</ele>
        <time>2022-04-12T09:39:23.000Z</time>
      </trkpt>
      <trkpt lat="43.64471" lon="7.04888">
        <ele>171.80000305176</ele>
        <time>2022-04-12T09:39:34.000Z</time>
      </trkpt>
      <trkpt lat="43.64471" lon="7.04888">
        <ele>172.80000305176</ele>
        <time>2022-04-12T09:39:38.000Z</time>
      </trkpt>
      <trkpt lat="43.64472" lon="7.04888">
        <ele>174.39999389648</ele>
        <time>2022-04-12T09:39:42.000Z</time>
      </trkpt>
      <trkpt lat="43.64472" lon="7.04888">
        <ele>174.60000610352</ele>
        <time>2022-04-12T09:39:45.000Z</time>
      </trkpt>
      <trkpt lat="43.64472" lon="7.04888">
        <ele>173.19999694824</ele>
        <time>2022-04-12T09:39:47.000Z</time>
      </trkpt>
      <trkpt lat="43.64472" lon="7.04888">
        <ele>171.60000610352</ele>
        <time>2022-04-12T09:39:49.000Z</time>
      </trkpt>
      <trkpt lat="43.64472" lon="7.04887">
        <ele>172.19999694824</ele>
        <time>2022-04-12T09:39:53.000Z</time>
      </trkpt>
      <trkpt lat="43.64473" lon="7.04887">
        <ele>172.80000305176</ele>
        <time>2022-04-12T09:39:56.000Z</time>
      </trkpt>
      <trkpt lat="43.64474" lon="7.04887">
        <ele>173.39999389648</ele>
        <time>2022-04-12T09:39:58.000Z</time>
      </trkpt>
      <trkpt lat="43.64475" lon="7.0489">
        <ele>173.39999389648</ele>
        <time>2022-04-12T09:40:04.000Z</time>
      </trkpt>
      <trkpt lat="43.64478" lon="7.0489">
        <ele>172.60000610352</ele>
        <time>2022-04-12T09:40:07.000Z</time>
      </trkpt>
      <trkpt lat="43.64479" lon="7.04889">
        <ele>172.19999694824</ele>
        <time>2022-04-12T09:40:08.000Z</time>
      </trkpt>
      <trkpt lat="43.64481" lon="7.04887">
        <ele>171.80000305176</ele>
        <time>2022-04-12T09:40:09.000Z</time>
      </trkpt>
      <trkpt lat="43.64485" lon="7.04884">
        <ele>171.60000610352</ele>
        <time>2022-04-12T09:40:11.000Z</time>
      </trkpt>
      <trkpt lat="43.64487" lon="7.04883">
        <ele>171.80000305176</ele>
        <time>2022-04-12T09:40:12.000Z</time>
      </trkpt>
      <trkpt lat="43.6449" lon="7.0488">
        <ele>173.19999694824</ele>
        <time>2022-04-12T09:40:14.000Z</time>
      </trkpt>
      <trkpt lat="43.64494" lon="7.04881">
        <ele>174.39999389648</ele>
        <time>2022-04-12T09:40:16.000Z</time>
      </trkpt>
      <trkpt lat="43.64503" lon="7.04879">
        <ele>175.39999389648</ele>
        <time>2022-04-12T09:40:20.000Z</time>
      </trkpt>
      <trkpt lat="43.64506" lon="7.04878">
        <ele>175.60000610352</ele>
        <time>2022-04-12T09:40:21.000Z</time>
      </trkpt>
      <trkpt lat="43.64508" lon="7.04877">
        <ele>176</ele>
        <time>2022-04-12T09:40:22.000Z</time>
      </trkpt>
      <trkpt lat="43.64512" lon="7.04875">
        <ele>176.80000305176</ele>
        <time>2022-04-12T09:40:24.000Z</time>
      </trkpt>
      <trkpt lat="43.64513" lon="7.04875">
        <ele>177</ele>
        <time>2022-04-12T09:40:25.000Z</time>
      </trkpt>
      <trkpt lat="43.6452" lon="7.04878">
        <ele>177.80000305176</ele>
        <time>2022-04-12T09:40:28.000Z</time>
      </trkpt>
      <trkpt lat="43.64526" lon="7.0488">
        <ele>178.19999694824</ele>
        <time>2022-04-12T09:40:30.000Z</time>
      </trkpt>
      <trkpt lat="43.64547" lon="7.04878">
        <ele>178.19999694824</ele>
        <time>2022-04-12T09:40:36.000Z</time>
      </trkpt>
      <trkpt lat="43.64575" lon="7.04878">
        <ele>177.80000305176</ele>
        <time>2022-04-12T09:40:43.000Z</time>
      </trkpt>
      <trkpt lat="43.64594" lon="7.0487">
        <ele>176.80000305176</ele>
        <time>2022-04-12T09:40:47.000Z</time>
      </trkpt>
      <trkpt lat="43.64607" lon="7.04856">
        <ele>176.39999389648</ele>
        <time>2022-04-12T09:40:50.000Z</time>
      </trkpt>
      <trkpt lat="43.64629" lon="7.04817">
        <ele>175.80000305176</ele>
        <time>2022-04-12T09:40:56.000Z</time>
      </trkpt>
      <trkpt lat="43.64636" lon="7.04805">
        <ele>175.60000610352</ele>
        <time>2022-04-12T09:40:58.000Z</time>
      </trkpt>
      <trkpt lat="43.64661" lon="7.04759">
        <ele>176.39999389648</ele>
        <time>2022-04-12T09:41:06.000Z</time>
      </trkpt>
      <trkpt lat="43.64669" lon="7.04744">
        <ele>176.80000305176</ele>
        <time>2022-04-12T09:41:09.000Z</time>
      </trkpt>
      <trkpt lat="43.64681" lon="7.04723">
        <ele>177.80000305176</ele>
        <time>2022-04-12T09:41:13.000Z</time>
      </trkpt>
      <trkpt lat="43.64686" lon="7.04713">
        <ele>178.19999694824</ele>
        <time>2022-04-12T09:41:15.000Z</time>
      </trkpt>
      <trkpt lat="43.64706" lon="7.04667">
        <ele>178.80000305176</ele>
        <time>2022-04-12T09:41:23.000Z</time>
      </trkpt>
      <trkpt lat="43.64717" lon="7.04638">
        <ele>179</ele>
        <time>2022-04-12T09:41:28.000Z</time>
      </trkpt>
      <trkpt lat="43.64721" lon="7.04621">
        <ele>179.39999389648</ele>
        <time>2022-04-12T09:41:31.000Z</time>
      </trkpt>
      <trkpt lat="43.64732" lon="7.04579">
        <ele>180</ele>
        <time>2022-04-12T09:41:38.000Z</time>
      </trkpt>
      <trkpt lat="43.64741" lon="7.04558">
        <ele>181</ele>
        <time>2022-04-12T09:41:42.000Z</time>
      </trkpt>
      <trkpt lat="43.64746" lon="7.04548">
        <ele>181.39999389648</ele>
        <time>2022-04-12T09:41:44.000Z</time>
      </trkpt>
      <trkpt lat="43.64753" lon="7.04528">
        <ele>182.19999694824</ele>
        <time>2022-04-12T09:41:48.000Z</time>
      </trkpt>
      <trkpt lat="43.64758" lon="7.04511">
        <ele>182.80000305176</ele>
        <time>2022-04-12T09:41:51.000Z</time>
      </trkpt>
      <trkpt lat="43.6476" lon="7.04506">
        <ele>183</ele>
        <time>2022-04-12T09:41:52.000Z</time>
      </trkpt>
      <trkpt lat="43.64762" lon="7.04501">
        <ele>183.19999694824</ele>
        <time>2022-04-12T09:41:53.000Z</time>
      </trkpt>
      <trkpt lat="43.64773" lon="7.04477">
        <ele>184</ele>
        <time>2022-04-12T09:41:58.000Z</time>
      </trkpt>
      <trkpt lat="43.64777" lon="7.04466">
        <ele>184.19999694824</ele>
        <time>2022-04-12T09:42:00.000Z</time>
      </trkpt>
      <trkpt lat="43.64796" lon="7.04434">
        <ele>185.39999389648</ele>
        <time>2022-04-12T09:42:07.000Z</time>
      </trkpt>
      <trkpt lat="43.64822" lon="7.044">
        <ele>186.39999389648</ele>
        <time>2022-04-12T09:42:16.000Z</time>
      </trkpt>
      <trkpt lat="43.64842" lon="7.04371">
        <ele>187</ele>
        <time>2022-04-12T09:42:23.000Z</time>
      </trkpt>
      <trkpt lat="43.64857" lon="7.0435">
        <ele>187.39999389648</ele>
        <time>2022-04-12T09:42:28.000Z</time>
      </trkpt>
      <trkpt lat="43.64875" lon="7.04328">
        <ele>187.60000610352</ele>
        <time>2022-04-12T09:42:34.000Z</time>
      </trkpt>
      <trkpt lat="43.64891" lon="7.04306">
        <ele>188</ele>
        <time>2022-04-12T09:42:40.000Z</time>
      </trkpt>
      <trkpt lat="43.64893" lon="7.043">
        <ele>188.19999694824</ele>
        <time>2022-04-12T09:42:41.000Z</time>
      </trkpt>
      <trkpt lat="43.64899" lon="7.04282">
        <ele>188.39999389648</ele>
        <time>2022-04-12T09:42:45.000Z</time>
      </trkpt>
      <trkpt lat="43.64899" lon="7.04267">
        <ele>187.80000305176</ele>
        <time>2022-04-12T09:42:49.000Z</time>
      </trkpt>
      <trkpt lat="43.64903" lon="7.04256">
        <ele>187.39999389648</ele>
        <time>2022-04-12T09:42:54.000Z</time>
      </trkpt>
      <trkpt lat="43.64902" lon="7.04254">
        <ele>187</ele>
        <time>2022-04-12T09:43:00.000Z</time>
      </trkpt>
      <trkpt lat="43.64902" lon="7.04252">
        <ele>187.19999694824</ele>
        <time>2022-04-12T09:43:05.000Z</time>
      </trkpt>
      <trkpt lat="43.64908" lon="7.04244">
        <ele>187.19999694824</ele>
        <time>2022-04-12T09:43:09.000Z</time>
      </trkpt>
      <trkpt lat="43.64916" lon="7.04232">
        <ele>187</ele>
        <time>2022-04-12T09:43:12.000Z</time>
      </trkpt>
      <trkpt lat="43.64921" lon="7.04223">
        <ele>186.80000305176</ele>
        <time>2022-04-12T09:43:14.000Z</time>
      </trkpt>
      <trkpt lat="43.64929" lon="7.04215">
        <ele>186.39999389648</ele>
        <time>2022-04-12T09:43:16.000Z</time>
      </trkpt>
      <trkpt lat="43.64932" lon="7.04211">
        <ele>186.19999694824</ele>
        <time>2022-04-12T09:43:17.000Z</time>
      </trkpt>
      <trkpt lat="43.64949" lon="7.042">
        <ele>185.39999389648</ele>
        <time>2022-04-12T09:43:21.000Z</time>
      </trkpt>
      <trkpt lat="43.64953" lon="7.04197">
        <ele>185.19999694824</ele>
        <time>2022-04-12T09:43:22.000Z</time>
      </trkpt>
      <trkpt lat="43.64961" lon="7.0419">
        <ele>185.19999694824</ele>
        <time>2022-04-12T09:43:24.000Z</time>
      </trkpt>
      <trkpt lat="43.64965" lon="7.04186">
        <ele>185</ele>
        <time>2022-04-12T09:43:25.000Z</time>
      </trkpt>
      <trkpt lat="43.64982" lon="7.0417">
        <ele>185</ele>
        <time>2022-04-12T09:43:29.000Z</time>
      </trkpt>
      <trkpt lat="43.64998" lon="7.04157">
        <ele>185.39999389648</ele>
        <time>2022-04-12T09:43:33.000Z</time>
      </trkpt>
      <trkpt lat="43.65004" lon="7.0415">
        <ele>186</ele>
        <time>2022-04-12T09:43:35.000Z</time>
      </trkpt>
      <trkpt lat="43.65015" lon="7.04138">
        <ele>186.60000610352</ele>
        <time>2022-04-12T09:43:38.000Z</time>
      </trkpt>
      <trkpt lat="43.65028" lon="7.04123">
        <ele>187.39999389648</ele>
        <time>2022-04-12T09:43:42.000Z</time>
      </trkpt>
      <trkpt lat="43.65032" lon="7.04118">
        <ele>187.60000610352</ele>
        <time>2022-04-12T09:43:43.000Z</time>
      </trkpt>
      <trkpt lat="43.65039" lon="7.04108">
        <ele>187.80000305176</ele>
        <time>2022-04-12T09:43:45.000Z</time>
      </trkpt>
      <trkpt lat="43.65045" lon="7.04098">
        <ele>188.19999694824</ele>
        <time>2022-04-12T09:43:47.000Z</time>
      </trkpt>
      <trkpt lat="43.65054" lon="7.0408">
        <ele>188.80000305176</ele>
        <time>2022-04-12T09:43:50.000Z</time>
      </trkpt>
      <trkpt lat="43.65062" lon="7.04063">
        <ele>189</ele>
        <time>2022-04-12T09:43:53.000Z</time>
      </trkpt>
      <trkpt lat="43.65068" lon="7.0404">
        <ele>189</ele>
        <time>2022-04-12T09:43:57.000Z</time>
      </trkpt>
      <trkpt lat="43.65069" lon="7.04033">
        <ele>189.19999694824</ele>
        <time>2022-04-12T09:43:58.000Z</time>
      </trkpt>
      <trkpt lat="43.65073" lon="7.04015">
        <ele>189.80000305176</ele>
        <time>2022-04-12T09:44:01.000Z</time>
      </trkpt>
      <trkpt lat="43.65075" lon="7.0401">
        <ele>190</ele>
        <time>2022-04-12T09:44:02.000Z</time>
      </trkpt>
      <trkpt lat="43.65081" lon="7.03993">
        <ele>190.80000305176</ele>
        <time>2022-04-12T09:44:05.000Z</time>
      </trkpt>
      <trkpt lat="43.65084" lon="7.03987">
        <ele>191</ele>
        <time>2022-04-12T09:44:06.000Z</time>
      </trkpt>
      <trkpt lat="43.65086" lon="7.03981">
        <ele>191.19999694824</ele>
        <time>2022-04-12T09:44:07.000Z</time>
      </trkpt>
      <trkpt lat="43.6509" lon="7.03969">
        <ele>191.39999389648</ele>
        <time>2022-04-12T09:44:09.000Z</time>
      </trkpt>
      <trkpt lat="43.65094" lon="7.03957">
        <ele>191.39999389648</ele>
        <time>2022-04-12T09:44:11.000Z</time>
      </trkpt>
      <trkpt lat="43.65094" lon="7.0395">
        <ele>191.39999389648</ele>
        <time>2022-04-12T09:44:12.000Z</time>
      </trkpt>
      <trkpt lat="43.65091" lon="7.03928">
        <ele>191.19999694824</ele>
        <time>2022-04-12T09:44:15.000Z</time>
      </trkpt>
      <trkpt lat="43.65089" lon="7.03921">
        <ele>191</ele>
        <time>2022-04-12T09:44:16.000Z</time>
      </trkpt>
      <trkpt lat="43.6508" lon="7.03894">
        <ele>191</ele>
        <time>2022-04-12T09:44:20.000Z</time>
      </trkpt>
      <trkpt lat="43.65076" lon="7.03882">
        <ele>190.80000305176</ele>
        <time>2022-04-12T09:44:22.000Z</time>
      </trkpt>
      <trkpt lat="43.65073" lon="7.03869">
        <ele>190.19999694824</ele>
        <time>2022-04-12T09:44:25.000Z</time>
      </trkpt>
      <trkpt lat="43.6507" lon="7.03863">
        <ele>189.80000305176</ele>
        <time>2022-04-12T09:44:27.000Z</time>
      </trkpt>
      <trkpt lat="43.65068" lon="7.03856">
        <ele>189</ele>
        <time>2022-04-12T09:44:30.000Z</time>
      </trkpt>
      <trkpt lat="43.65068" lon="7.03853">
        <ele>188.80000305176</ele>
        <time>2022-04-12T09:44:31.000Z</time>
      </trkpt>
      <trkpt lat="43.65068" lon="7.03852">
        <ele>188.60000610352</ele>
        <time>2022-04-12T09:44:32.000Z</time>
      </trkpt>
      <trkpt lat="43.65067" lon="7.03848">
        <ele>188</ele>
        <time>2022-04-12T09:44:34.000Z</time>
      </trkpt>
      <trkpt lat="43.65067" lon="7.03843">
        <ele>187.39999389648</ele>
        <time>2022-04-12T09:44:36.000Z</time>
      </trkpt>
      <trkpt lat="43.65067" lon="7.03832">
        <ele>186.19999694824</ele>
        <time>2022-04-12T09:44:40.000Z</time>
      </trkpt>
      <trkpt lat="43.65066" lon="7.0383">
        <ele>185.80000305176</ele>
        <time>2022-04-12T09:44:41.000Z</time>
      </trkpt>
      <trkpt lat="43.65066" lon="7.03828">
        <ele>185.60000610352</ele>
        <time>2022-04-12T09:44:42.000Z</time>
      </trkpt>
      <trkpt lat="43.65065" lon="7.03826">
        <ele>185.19999694824</ele>
        <time>2022-04-12T09:44:43.000Z</time>
      </trkpt>
      <trkpt lat="43.65065" lon="7.03824">
        <ele>185</ele>
        <time>2022-04-12T09:44:44.000Z</time>
      </trkpt>
      <trkpt lat="43.65063" lon="7.03817">
        <ele>183.80000305176</ele>
        <time>2022-04-12T09:44:47.000Z</time>
      </trkpt>
      <trkpt lat="43.65063" lon="7.03815">
        <ele>183.60000610352</ele>
        <time>2022-04-12T09:44:48.000Z</time>
      </trkpt>
      <trkpt lat="43.65063" lon="7.03802">
        <ele>182.80000305176</ele>
        <time>2022-04-12T09:44:53.000Z</time>
      </trkpt>
      <trkpt lat="43.65062" lon="7.0379">
        <ele>181.80000305176</ele>
        <time>2022-04-12T09:44:57.000Z</time>
      </trkpt>
      <trkpt lat="43.65063" lon="7.03786">
        <ele>181.60000610352</ele>
        <time>2022-04-12T09:44:58.000Z</time>
      </trkpt>
      <trkpt lat="43.6507" lon="7.0377">
        <ele>181.39999389648</ele>
        <time>2022-04-12T09:45:03.000Z</time>
      </trkpt>
      <trkpt lat="43.65076" lon="7.03756">
        <ele>181</ele>
        <time>2022-04-12T09:45:07.000Z</time>
      </trkpt>
      <trkpt lat="43.65083" lon="7.03731">
        <ele>181.80000305176</ele>
        <time>2022-04-12T09:45:14.000Z</time>
      </trkpt>
      <trkpt lat="43.65083" lon="7.03727">
        <ele>182</ele>
        <time>2022-04-12T09:45:18.000Z</time>
      </trkpt>
      <trkpt lat="43.65081" lon="7.03724">
        <ele>181.60000610352</ele>
        <time>2022-04-12T09:45:24.000Z</time>
      </trkpt>
      <trkpt lat="43.6508" lon="7.03722">
        <ele>182.39999389648</ele>
        <time>2022-04-12T09:45:40.000Z</time>
      </trkpt>
      <trkpt lat="43.6508" lon="7.03721">
        <ele>182.80000305176</ele>
        <time>2022-04-12T09:45:51.000Z</time>
      </trkpt>
      <trkpt lat="43.65081" lon="7.03722">
        <ele>182.80000305176</ele>
        <time>2022-04-12T09:45:53.000Z</time>
      </trkpt>
      <trkpt lat="43.65084" lon="7.03724">
        <ele>182.39999389648</ele>
        <time>2022-04-12T09:45:57.000Z</time>
      </trkpt>
      <trkpt lat="43.65085" lon="7.03723">
        <ele>181.60000610352</ele>
        <time>2022-04-12T09:46:04.000Z</time>
      </trkpt>
      <trkpt lat="43.65084" lon="7.03723">
        <ele>181.80000305176</ele>
        <time>2022-04-12T09:46:06.000Z</time>
      </trkpt>
      <trkpt lat="43.65084" lon="7.03723">
        <ele>182.19999694824</ele>
        <time>2022-04-12T09:46:08.000Z</time>
      </trkpt>
      <trkpt lat="43.65085" lon="7.03723">
        <ele>182</ele>
        <time>2022-04-12T09:46:16.000Z</time>
      </trkpt>
      <trkpt lat="43.65088" lon="7.03722">
        <ele>182</ele>
        <time>2022-04-12T09:46:31.000Z</time>
      </trkpt>
      <trkpt lat="43.65091" lon="7.03722">
        <ele>181.80000305176</ele>
        <time>2022-04-12T09:46:46.000Z</time>
      </trkpt>
      <trkpt lat="43.65092" lon="7.03722">
        <ele>181.39999389648</ele>
        <time>2022-04-12T09:46:58.000Z</time>
      </trkpt>
      <trkpt lat="43.65094" lon="7.0372">
        <ele>181.19999694824</ele>
        <time>2022-04-12T09:47:19.000Z</time>
      </trkpt>
      <trkpt lat="43.65093" lon="7.03719">
        <ele>181.39999389648</ele>
        <time>2022-04-12T09:47:33.000Z</time>
      </trkpt>
      <trkpt lat="43.65095" lon="7.03719">
        <ele>181.60000610352</ele>
        <time>2022-04-12T09:47:45.000Z</time>
      </trkpt>
      <trkpt lat="43.65094" lon="7.03719">
        <ele>181.60000610352</ele>
        <time>2022-04-12T09:47:55.000Z</time>
      </trkpt>
      <trkpt lat="43.65093" lon="7.03719">
        <ele>180.80000305176</ele>
        <time>2022-04-12T09:48:07.000Z</time>
      </trkpt>
      <trkpt lat="43.65092" lon="7.03719">
        <ele>182</ele>
        <time>2022-04-12T09:48:21.000Z</time>
      </trkpt>
      <trkpt lat="43.65094" lon="7.03719">
        <ele>181.39999389648</ele>
        <time>2022-04-12T09:48:39.000Z</time>
      </trkpt>
      <trkpt lat="43.65096" lon="7.03719">
        <ele>181.60000610352</ele>
        <time>2022-04-12T09:48:55.000Z</time>
      </trkpt>
      <trkpt lat="43.65098" lon="7.03719">
        <ele>181.19999694824</ele>
        <time>2022-04-12T09:49:21.000Z</time>
      </trkpt>
      <trkpt lat="43.65098" lon="7.03719">
        <ele>181.80000305176</ele>
        <time>2022-04-12T09:49:36.000Z</time>
      </trkpt>
      <trkpt lat="43.65096" lon="7.0372">
        <ele>181.80000305176</ele>
        <time>2022-04-12T09:49:48.000Z</time>
      </trkpt>
      <trkpt lat="43.65096" lon="7.03719">
        <ele>182</ele>
        <time>2022-04-12T09:49:57.000Z</time>
      </trkpt>
      <trkpt lat="43.65095" lon="7.03718">
        <ele>182</ele>
        <time>2022-04-12T09:50:03.000Z</time>
      </trkpt>
      <trkpt lat="43.65093" lon="7.03719">
        <ele>181.19999694824</ele>
        <time>2022-04-12T09:50:14.000Z</time>
      </trkpt>
      <trkpt lat="43.65093" lon="7.03719">
        <ele>180.80000305176</ele>
        <time>2022-04-12T09:50:21.000Z</time>
      </trkpt>
      <trkpt lat="43.65092" lon="7.03717">
        <ele>182</ele>
        <time>2022-04-12T09:50:30.000Z</time>
      </trkpt>
      <trkpt lat="43.65092" lon="7.03714">
        <ele>181.19999694824</ele>
        <time>2022-04-12T09:50:42.000Z</time>
      </trkpt>
      <trkpt lat="43.65093" lon="7.03705">
        <ele>181.80000305176</ele>
        <time>2022-04-12T09:50:47.000Z</time>
      </trkpt>
      <trkpt lat="43.65095" lon="7.03686">
        <ele>182.19999694824</ele>
        <time>2022-04-12T09:50:52.000Z</time>
      </trkpt>
      <trkpt lat="43.65098" lon="7.03676">
        <ele>181.60000610352</ele>
        <time>2022-04-12T09:50:56.000Z</time>
      </trkpt>
      <trkpt lat="43.65099" lon="7.03673">
        <ele>181</ele>
        <time>2022-04-12T09:50:57.000Z</time>
      </trkpt>
      <trkpt lat="43.65098" lon="7.03669">
        <ele>180.39999389648</ele>
        <time>2022-04-12T09:50:58.000Z</time>
      </trkpt>
      <trkpt lat="43.65098" lon="7.03662">
        <ele>179.39999389648</ele>
        <time>2022-04-12T09:51:00.000Z</time>
      </trkpt>
      <trkpt lat="43.65097" lon="7.03658">
        <ele>178.39999389648</ele>
        <time>2022-04-12T09:51:04.000Z</time>
      </trkpt>
      <trkpt lat="43.65097" lon="7.03658">
        <ele>178.39999389648</ele>
        <time>2022-04-12T09:51:05.000Z</time>
      </trkpt>
      <trkpt lat="43.65096" lon="7.03658">
        <ele>177.80000305176</ele>
        <time>2022-04-12T09:51:12.000Z</time>
      </trkpt>
      <trkpt lat="43.65095" lon="7.03658">
        <ele>177.80000305176</ele>
        <time>2022-04-12T09:51:21.000Z</time>
      </trkpt>
      <trkpt lat="43.6509" lon="7.03649">
        <ele>178</ele>
        <time>2022-04-12T09:51:25.000Z</time>
      </trkpt>
      <trkpt lat="43.6508" lon="7.03621">
        <ele>176.80000305176</ele>
        <time>2022-04-12T09:51:29.000Z</time>
      </trkpt>
      <trkpt lat="43.65077" lon="7.03602">
        <ele>175.60000610352</ele>
        <time>2022-04-12T09:51:31.000Z</time>
      </trkpt>
      <trkpt lat="43.65076" lon="7.03584">
        <ele>174.19999694824</ele>
        <time>2022-04-12T09:51:33.000Z</time>
      </trkpt>
      <trkpt lat="43.65076" lon="7.03575">
        <ele>173.80000305176</ele>
        <time>2022-04-12T09:51:34.000Z</time>
      </trkpt>
      <trkpt lat="43.65075" lon="7.03565">
        <ele>173.19999694824</ele>
        <time>2022-04-12T09:51:35.000Z</time>
      </trkpt>
      <trkpt lat="43.65076" lon="7.03541">
        <ele>172</ele>
        <time>2022-04-12T09:51:38.000Z</time>
      </trkpt>
      <trkpt lat="43.65077" lon="7.03534">
        <ele>171.80000305176</ele>
        <time>2022-04-12T09:51:39.000Z</time>
      </trkpt>
      <trkpt lat="43.65082" lon="7.03472">
        <ele>172.60000610352</ele>
        <time>2022-04-12T09:51:48.000Z</time>
      </trkpt>
      <trkpt lat="43.65086" lon="7.0344">
        <ele>172.80000305176</ele>
        <time>2022-04-12T09:51:53.000Z</time>
      </trkpt>
      <trkpt lat="43.65089" lon="7.03435">
        <ele>172.80000305176</ele>
        <time>2022-04-12T09:51:54.000Z</time>
      </trkpt>
      <trkpt lat="43.65098" lon="7.03421">
        <ele>172.80000305176</ele>
        <time>2022-04-12T09:51:57.000Z</time>
      </trkpt>
      <trkpt lat="43.65104" lon="7.03415">
        <ele>172.60000610352</ele>
        <time>2022-04-12T09:51:59.000Z</time>
      </trkpt>
      <trkpt lat="43.65106" lon="7.03414">
        <ele>172.39999389648</ele>
        <time>2022-04-12T09:52:00.000Z</time>
      </trkpt>
      <trkpt lat="43.65112" lon="7.03416">
        <ele>171.80000305176</ele>
        <time>2022-04-12T09:52:02.000Z</time>
      </trkpt>
      <trkpt lat="43.65122" lon="7.03418">
        <ele>173.19999694824</ele>
        <time>2022-04-12T09:52:07.000Z</time>
      </trkpt>
      <trkpt lat="43.65127" lon="7.03422">
        <ele>174.19999694824</ele>
        <time>2022-04-12T09:52:10.000Z</time>
      </trkpt>
      <trkpt lat="43.65128" lon="7.03422">
        <ele>174.80000305176</ele>
        <time>2022-04-12T09:52:11.000Z</time>
      </trkpt>
      <trkpt lat="43.6513" lon="7.03423">
        <ele>175.60000610352</ele>
        <time>2022-04-12T09:52:12.000Z</time>
      </trkpt>
      <trkpt lat="43.65132" lon="7.03424">
        <ele>176.39999389648</ele>
        <time>2022-04-12T09:52:13.000Z</time>
      </trkpt>
      <trkpt lat="43.65133" lon="7.03424">
        <ele>177</ele>
        <time>2022-04-12T09:52:14.000Z</time>
      </trkpt>
      <trkpt lat="43.65136" lon="7.03428">
        <ele>177.80000305176</ele>
        <time>2022-04-12T09:52:16.000Z</time>
      </trkpt>
      <trkpt lat="43.65138" lon="7.03429">
        <ele>178.19999694824</ele>
        <time>2022-04-12T09:52:17.000Z</time>
      </trkpt>
      <trkpt lat="43.65141" lon="7.03433">
        <ele>178.80000305176</ele>
        <time>2022-04-12T09:52:19.000Z</time>
      </trkpt>
      <trkpt lat="43.65143" lon="7.03434">
        <ele>179.19999694824</ele>
        <time>2022-04-12T09:52:20.000Z</time>
      </trkpt>
      <trkpt lat="43.65148" lon="7.03438">
        <ele>180.19999694824</ele>
        <time>2022-04-12T09:52:23.000Z</time>
      </trkpt>
      <trkpt lat="43.65152" lon="7.03439">
        <ele>180.80000305176</ele>
        <time>2022-04-12T09:52:25.000Z</time>
      </trkpt>
      <trkpt lat="43.65155" lon="7.03441">
        <ele>181.39999389648</ele>
        <time>2022-04-12T09:52:27.000Z</time>
      </trkpt>
      <trkpt lat="43.65158" lon="7.03442">
        <ele>182</ele>
        <time>2022-04-12T09:52:29.000Z</time>
      </trkpt>
      <trkpt lat="43.6516" lon="7.03441">
        <ele>182.39999389648</ele>
        <time>2022-04-12T09:52:30.000Z</time>
      </trkpt>
      <trkpt lat="43.65165" lon="7.0344">
        <ele>183.39999389648</ele>
        <time>2022-04-12T09:52:33.000Z</time>
      </trkpt>
      <trkpt lat="43.65167" lon="7.03439">
        <ele>184</ele>
        <time>2022-04-12T09:52:35.000Z</time>
      </trkpt>
      <trkpt lat="43.65172" lon="7.0344">
        <ele>184.80000305176</ele>
        <time>2022-04-12T09:52:38.000Z</time>
      </trkpt>
      <trkpt lat="43.65174" lon="7.03442">
        <ele>185</ele>
        <time>2022-04-12T09:52:40.000Z</time>
      </trkpt>
      <trkpt lat="43.65174" lon="7.03443">
        <ele>185.19999694824</ele>
        <time>2022-04-12T09:52:41.000Z</time>
      </trkpt>
      <trkpt lat="43.65174" lon="7.03446">
        <ele>185.80000305176</ele>
        <time>2022-04-12T09:52:44.000Z</time>
      </trkpt>
      <trkpt lat="43.65173" lon="7.03446">
        <ele>185.60000610352</ele>
        <time>2022-04-12T09:52:54.000Z</time>
      </trkpt>
      <trkpt lat="43.65173" lon="7.03446">
        <ele>186</ele>
        <time>2022-04-12T09:53:02.000Z</time>
      </trkpt>
      <trkpt lat="43.65173" lon="7.03446">
        <ele>185.60000610352</ele>
        <time>2022-04-12T09:53:24.000Z</time>
      </trkpt>
      <trkpt lat="43.65173" lon="7.03447">
        <ele>185.19999694824</ele>
        <time>2022-04-12T09:53:42.000Z</time>
      </trkpt>
      <trkpt lat="43.65172" lon="7.03458">
        <ele>185.19999694824</ele>
        <time>2022-04-12T09:53:50.000Z</time>
      </trkpt>
      <trkpt lat="43.65172" lon="7.03472">
        <ele>185.39999389648</ele>
        <time>2022-04-12T09:53:55.000Z</time>
      </trkpt>
      <trkpt lat="43.65173" lon="7.03475">
        <ele>185.60000610352</ele>
        <time>2022-04-12T09:53:56.000Z</time>
      </trkpt>
      <trkpt lat="43.65177" lon="7.03487">
        <ele>186.19999694824</ele>
        <time>2022-04-12T09:54:00.000Z</time>
      </trkpt>
      <trkpt lat="43.6518" lon="7.03502">
        <ele>186.60000610352</ele>
        <time>2022-04-12T09:54:05.000Z</time>
      </trkpt>
      <trkpt lat="43.65187" lon="7.03511">
        <ele>186.80000305176</ele>
        <time>2022-04-12T09:54:09.000Z</time>
      </trkpt>
      <trkpt lat="43.6519" lon="7.03515">
        <ele>187.19999694824</ele>
        <time>2022-04-12T09:54:11.000Z</time>
      </trkpt>
      <trkpt lat="43.65199" lon="7.03537">
        <ele>187.39999389648</ele>
        <time>2022-04-12T09:54:17.000Z</time>
      </trkpt>
      <trkpt lat="43.65202" lon="7.03547">
        <ele>186.80000305176</ele>
        <time>2022-04-12T09:54:19.000Z</time>
      </trkpt>
      <trkpt lat="43.65206" lon="7.03556">
        <ele>186.19999694824</ele>
        <time>2022-04-12T09:54:21.000Z</time>
      </trkpt>
      <trkpt lat="43.65209" lon="7.0356">
        <ele>185.80000305176</ele>
        <time>2022-04-12T09:54:22.000Z</time>
      </trkpt>
      <trkpt lat="43.65217" lon="7.03563">
        <ele>185</ele>
        <time>2022-04-12T09:54:24.000Z</time>
      </trkpt>
      <trkpt lat="43.65221" lon="7.03564">
        <ele>184.60000610352</ele>
        <time>2022-04-12T09:54:25.000Z</time>
      </trkpt>
      <trkpt lat="43.65235" lon="7.03575">
        <ele>183.80000305176</ele>
        <time>2022-04-12T09:54:29.000Z</time>
      </trkpt>
      <trkpt lat="43.65241" lon="7.03592">
        <ele>183.39999389648</ele>
        <time>2022-04-12T09:54:32.000Z</time>
      </trkpt>
      <trkpt lat="43.65241" lon="7.03599">
        <ele>182.80000305176</ele>
        <time>2022-04-12T09:54:33.000Z</time>
      </trkpt>
      <trkpt lat="43.65241" lon="7.03605">
        <ele>182.60000610352</ele>
        <time>2022-04-12T09:54:34.000Z</time>
      </trkpt>
      <trkpt lat="43.65241" lon="7.03628">
        <ele>182.19999694824</ele>
        <time>2022-04-12T09:54:38.000Z</time>
      </trkpt>
      <trkpt lat="43.65242" lon="7.03633">
        <ele>182</ele>
        <time>2022-04-12T09:54:39.000Z</time>
      </trkpt>
      <trkpt lat="43.65247" lon="7.03663">
        <ele>182.19999694824</ele>
        <time>2022-04-12T09:54:45.000Z</time>
      </trkpt>
      <trkpt lat="43.65247" lon="7.03664">
        <ele>182.19999694824</ele>
        <time>2022-04-12T09:54:46.000Z</time>
      </trkpt>
      <trkpt lat="43.65249" lon="7.03664">
        <ele>182</ele>
        <time>2022-04-12T09:54:48.000Z</time>
      </trkpt>
      <trkpt lat="43.6525" lon="7.03665">
        <ele>181.80000305176</ele>
        <time>2022-04-12T09:54:52.000Z</time>
      </trkpt>
      <trkpt lat="43.65251" lon="7.03664">
        <ele>182</ele>
        <time>2022-04-12T09:54:58.000Z</time>
      </trkpt>
      <trkpt lat="43.65251" lon="7.03664">
        <ele>181.80000305176</ele>
        <time>2022-04-12T09:55:02.000Z</time>
      </trkpt>
      <trkpt lat="43.65251" lon="7.03666">
        <ele>181.80000305176</ele>
        <time>2022-04-12T09:55:14.000Z</time>
      </trkpt>
      <trkpt lat="43.65251" lon="7.03668">
        <ele>182.60000610352</ele>
        <time>2022-04-12T09:55:24.000Z</time>
      </trkpt>
      <trkpt lat="43.65251" lon="7.03668">
        <ele>181.80000305176</ele>
        <time>2022-04-12T09:55:32.000Z</time>
      </trkpt>
      <trkpt lat="43.65249" lon="7.03665">
        <ele>181.60000610352</ele>
        <time>2022-04-12T09:55:48.000Z</time>
      </trkpt>
      <trkpt lat="43.65249" lon="7.03664">
        <ele>181.60000610352</ele>
        <time>2022-04-12T09:55:59.000Z</time>
      </trkpt>
      <trkpt lat="43.65248" lon="7.03663">
        <ele>182</ele>
        <time>2022-04-12T09:56:09.000Z</time>
      </trkpt>
      <trkpt lat="43.65248" lon="7.03663">
        <ele>182.19999694824</ele>
        <time>2022-04-12T09:56:17.000Z</time>
      </trkpt>
      <trkpt lat="43.65248" lon="7.03663">
        <ele>181.80000305176</ele>
        <time>2022-04-12T09:56:29.000Z</time>
      </trkpt>
      <trkpt lat="43.65247" lon="7.03665">
        <ele>181.60000610352</ele>
        <time>2022-04-12T09:56:34.000Z</time>
      </trkpt>
      <trkpt lat="43.65248" lon="7.03664">
        <ele>181.80000305176</ele>
        <time>2022-04-12T09:56:37.000Z</time>
      </trkpt>
      <trkpt lat="43.6525" lon="7.03663">
        <ele>182.19999694824</ele>
        <time>2022-04-12T09:56:39.000Z</time>
      </trkpt>
      <trkpt lat="43.65257" lon="7.03651">
        <ele>182.19999694824</ele>
        <time>2022-04-12T09:56:44.000Z</time>
      </trkpt>
      <trkpt lat="43.65259" lon="7.03648">
        <ele>182.19999694824</ele>
        <time>2022-04-12T09:56:45.000Z</time>
      </trkpt>
      <trkpt lat="43.65269" lon="7.03632">
        <ele>181.39999389648</ele>
        <time>2022-04-12T09:56:50.000Z</time>
      </trkpt>
      <trkpt lat="43.65274" lon="7.03627">
        <ele>181</ele>
        <time>2022-04-12T09:56:52.000Z</time>
      </trkpt>
      <trkpt lat="43.65275" lon="7.03627">
        <ele>180.60000610352</ele>
        <time>2022-04-12T09:56:54.000Z</time>
      </trkpt>
      <trkpt lat="43.65275" lon="7.03626">
        <ele>180.39999389648</ele>
        <time>2022-04-12T09:56:55.000Z</time>
      </trkpt>
      <trkpt lat="43.65273" lon="7.03628">
        <ele>180.19999694824</ele>
        <time>2022-04-12T09:56:58.000Z</time>
      </trkpt>
      <trkpt lat="43.65274" lon="7.03625">
        <ele>180.39999389648</ele>
        <time>2022-04-12T09:57:03.000Z</time>
      </trkpt>
      <trkpt lat="43.65274" lon="7.03622">
        <ele>180</ele>
        <time>2022-04-12T09:57:14.000Z</time>
      </trkpt>
      <trkpt lat="43.65274" lon="7.03622">
        <ele>180</ele>
        <time>2022-04-12T09:57:15.000Z</time>
      </trkpt>
      <trkpt lat="43.65273" lon="7.03622">
        <ele>180</ele>
        <time>2022-04-12T09:57:17.000Z</time>
      </trkpt>
      <trkpt lat="43.65273" lon="7.03621">
        <ele>180</ele>
        <time>2022-04-12T09:57:19.000Z</time>
      </trkpt>
      <trkpt lat="43.65274" lon="7.03622">
        <ele>179.39999389648</ele>
        <time>2022-04-12T09:57:28.000Z</time>
      </trkpt>
      <trkpt lat="43.65274" lon="7.03622">
        <ele>180.39999389648</ele>
        <time>2022-04-12T09:57:34.000Z</time>
      </trkpt>
      <trkpt lat="43.65276" lon="7.03622">
        <ele>180.60000610352</ele>
        <time>2022-04-12T09:57:39.000Z</time>
      </trkpt>
      <trkpt lat="43.65278" lon="7.03619">
        <ele>181</ele>
        <time>2022-04-12T09:57:44.000Z</time>
      </trkpt>
      <trkpt lat="43.65286" lon="7.03607">
        <ele>180.60000610352</ele>
        <time>2022-04-12T09:57:48.000Z</time>
      </trkpt>
      <trkpt lat="43.65303" lon="7.03591">
        <ele>179.19999694824</ele>
        <time>2022-04-12T09:57:52.000Z</time>
      </trkpt>
      <trkpt lat="43.65307" lon="7.03587">
        <ele>178.80000305176</ele>
        <time>2022-04-12T09:57:53.000Z</time>
      </trkpt>
      <trkpt lat="43.65316" lon="7.03578">
        <ele>178</ele>
        <time>2022-04-12T09:57:55.000Z</time>
      </trkpt>
      <trkpt lat="43.65319" lon="7.03573">
        <ele>177.39999389648</ele>
        <time>2022-04-12T09:57:56.000Z</time>
      </trkpt>
      <trkpt lat="43.65321" lon="7.03567">
        <ele>177</ele>
        <time>2022-04-12T09:57:57.000Z</time>
      </trkpt>
      <trkpt lat="43.65324" lon="7.03561">
        <ele>176.39999389648</ele>
        <time>2022-04-12T09:57:58.000Z</time>
      </trkpt>
      <trkpt lat="43.65328" lon="7.03557">
        <ele>176</ele>
        <time>2022-04-12T09:57:59.000Z</time>
      </trkpt>
      <trkpt lat="43.65333" lon="7.03547">
        <ele>175.80000305176</ele>
        <time>2022-04-12T09:58:01.000Z</time>
      </trkpt>
      <trkpt lat="43.65341" lon="7.03527">
        <ele>176</ele>
        <time>2022-04-12T09:58:05.000Z</time>
      </trkpt>
      <trkpt lat="43.65346" lon="7.03517">
        <ele>175.80000305176</ele>
        <time>2022-04-12T09:58:07.000Z</time>
      </trkpt>
      <trkpt lat="43.65357" lon="7.03503">
        <ele>175.19999694824</ele>
        <time>2022-04-12T09:58:12.000Z</time>
      </trkpt>
      <trkpt lat="43.65357" lon="7.03503">
        <ele>175</ele>
        <time>2022-04-12T09:58:14.000Z</time>
      </trkpt>
      <trkpt lat="43.65357" lon="7.03503">
        <ele>174.80000305176</ele>
        <time>2022-04-12T09:58:16.000Z</time>
      </trkpt>
      <trkpt lat="43.65357" lon="7.03503">
        <ele>174</ele>
        <time>2022-04-12T09:58:20.000Z</time>
      </trkpt>
      <trkpt lat="43.65357" lon="7.03503">
        <ele>173.80000305176</ele>
        <time>2022-04-12T09:58:24.000Z</time>
      </trkpt>
      <trkpt lat="43.65357" lon="7.03503">
        <ele>175</ele>
        <time>2022-04-12T09:58:29.000Z</time>
      </trkpt>
      <trkpt lat="43.65357" lon="7.03503">
        <ele>174.80000305176</ele>
        <time>2022-04-12T09:58:32.000Z</time>
      </trkpt>
      <trkpt lat="43.65358" lon="7.03502">
        <ele>174.39999389648</ele>
        <time>2022-04-12T09:58:44.000Z</time>
      </trkpt>
      <trkpt lat="43.65359" lon="7.03501">
        <ele>173.80000305176</ele>
        <time>2022-04-12T09:58:49.000Z</time>
      </trkpt>
      <trkpt lat="43.65359" lon="7.035">
        <ele>174</ele>
        <time>2022-04-12T09:59:07.000Z</time>
      </trkpt>
      <trkpt lat="43.65358" lon="7.03499">
        <ele>173.60000610352</ele>
        <time>2022-04-12T09:59:27.000Z</time>
      </trkpt>
      <trkpt lat="43.65357" lon="7.03499">
        <ele>173.80000305176</ele>
        <time>2022-04-12T09:59:40.000Z</time>
      </trkpt>
      <trkpt lat="43.65357" lon="7.03499">
        <ele>174.39999389648</ele>
        <time>2022-04-12T09:59:56.000Z</time>
      </trkpt>
      <trkpt lat="43.65357" lon="7.03501">
        <ele>173.60000610352</ele>
        <time>2022-04-12T10:00:19.000Z</time>
      </trkpt>
      <trkpt lat="43.65357" lon="7.03501">
        <ele>174</ele>
        <time>2022-04-12T10:00:36.000Z</time>
      </trkpt>
      <trkpt lat="43.65357" lon="7.03502">
        <ele>174</ele>
        <time>2022-04-12T10:01:02.000Z</time>
      </trkpt>
      <trkpt lat="43.65359" lon="7.03501">
        <ele>174.19999694824</ele>
        <time>2022-04-12T10:01:19.000Z</time>
      </trkpt>
      <trkpt lat="43.65361" lon="7.03503">
        <ele>174.19999694824</ele>
        <time>2022-04-12T10:01:20.000Z</time>
      </trkpt>
      <trkpt lat="43.65366" lon="7.03518">
        <ele>173.80000305176</ele>
        <time>2022-04-12T10:01:24.000Z</time>
      </trkpt>
      <trkpt lat="43.65367" lon="7.03523">
        <ele>173.80000305176</ele>
        <time>2022-04-12T10:01:25.000Z</time>
      </trkpt>
      <trkpt lat="43.65371" lon="7.03554">
        <ele>172.80000305176</ele>
        <time>2022-04-12T10:01:31.000Z</time>
      </trkpt>
      <trkpt lat="43.65376" lon="7.036">
        <ele>172</ele>
        <time>2022-04-12T10:01:40.000Z</time>
      </trkpt>
      <trkpt lat="43.6538" lon="7.03615">
        <ele>171.80000305176</ele>
        <time>2022-04-12T10:01:44.000Z</time>
      </trkpt>
      <trkpt lat="43.65386" lon="7.03632">
        <ele>171</ele>
        <time>2022-04-12T10:01:48.000Z</time>
      </trkpt>
      <trkpt lat="43.65388" lon="7.0364">
        <ele>170.60000610352</ele>
        <time>2022-04-12T10:01:50.000Z</time>
      </trkpt>
      <trkpt lat="43.65394" lon="7.03659">
        <ele>169.80000305176</ele>
        <time>2022-04-12T10:01:54.000Z</time>
      </trkpt>
      <trkpt lat="43.65397" lon="7.03677">
        <ele>169.19999694824</ele>
        <time>2022-04-12T10:01:57.000Z</time>
      </trkpt>
      <trkpt lat="43.654" lon="7.03686">
        <ele>168.19999694824</ele>
        <time>2022-04-12T10:01:59.000Z</time>
      </trkpt>
      <trkpt lat="43.65401" lon="7.03691">
        <ele>167.60000610352</ele>
        <time>2022-04-12T10:02:00.000Z</time>
      </trkpt>
      <trkpt lat="43.65404" lon="7.037">
        <ele>166.39999389648</ele>
        <time>2022-04-12T10:02:02.000Z</time>
      </trkpt>
      <trkpt lat="43.65405" lon="7.03706">
        <ele>165.39999389648</ele>
        <time>2022-04-12T10:02:04.000Z</time>
      </trkpt>
      <trkpt lat="43.65406" lon="7.03708">
        <ele>165.19999694824</ele>
        <time>2022-04-12T10:02:05.000Z</time>
      </trkpt>
      <trkpt lat="43.65412" lon="7.03724">
        <ele>164.60000610352</ele>
        <time>2022-04-12T10:02:11.000Z</time>
      </trkpt>
      <trkpt lat="43.65418" lon="7.03743">
        <ele>164</ele>
        <time>2022-04-12T10:02:15.000Z</time>
      </trkpt>
      <trkpt lat="43.65419" lon="7.03747">
        <ele>163.80000305176</ele>
        <time>2022-04-12T10:02:16.000Z</time>
      </trkpt>
      <trkpt lat="43.65422" lon="7.03759">
        <ele>163.39999389648</ele>
        <time>2022-04-12T10:02:20.000Z</time>
      </trkpt>
      <trkpt lat="43.65422" lon="7.03759">
        <ele>163.39999389648</ele>
        <time>2022-04-12T10:02:24.000Z</time>
      </trkpt>
      <trkpt lat="43.65422" lon="7.03759">
        <ele>163</ele>
        <time>2022-04-12T10:02:28.000Z</time>
      </trkpt>
      <trkpt lat="43.65423" lon="7.0376">
        <ele>162.39999389648</ele>
        <time>2022-04-12T10:02:42.000Z</time>
      </trkpt>
      <trkpt lat="43.65424" lon="7.03761">
        <ele>162.60000610352</ele>
        <time>2022-04-12T10:02:54.000Z</time>
      </trkpt>
      <trkpt lat="43.65424" lon="7.0376">
        <ele>162.80000305176</ele>
        <time>2022-04-12T10:03:12.000Z</time>
      </trkpt>
      <trkpt lat="43.65425" lon="7.0376">
        <ele>162.39999389648</ele>
        <time>2022-04-12T10:03:20.000Z</time>
      </trkpt>
      <trkpt lat="43.65426" lon="7.03757">
        <ele>163.60000610352</ele>
        <time>2022-04-12T10:03:26.000Z</time>
      </trkpt>
      <trkpt lat="43.65426" lon="7.03756">
        <ele>163.60000610352</ele>
        <time>2022-04-12T10:03:27.000Z</time>
      </trkpt>
      <trkpt lat="43.65423" lon="7.03746">
        <ele>163.39999389648</ele>
        <time>2022-04-12T10:03:30.000Z</time>
      </trkpt>
      <trkpt lat="43.65419" lon="7.03733">
        <ele>163.19999694824</ele>
        <time>2022-04-12T10:03:33.000Z</time>
      </trkpt>
      <trkpt lat="43.65418" lon="7.0373">
        <ele>163</ele>
        <time>2022-04-12T10:03:34.000Z</time>
      </trkpt>
      <trkpt lat="43.65413" lon="7.03717">
        <ele>163.39999389648</ele>
        <time>2022-04-12T10:03:37.000Z</time>
      </trkpt>
      <trkpt lat="43.65408" lon="7.03703">
        <ele>164</ele>
        <time>2022-04-12T10:03:40.000Z</time>
      </trkpt>
      <trkpt lat="43.65406" lon="7.03699">
        <ele>164.19999694824</ele>
        <time>2022-04-12T10:03:41.000Z</time>
      </trkpt>
      <trkpt lat="43.65402" lon="7.03683">
        <ele>165.19999694824</ele>
        <time>2022-04-12T10:03:44.000Z</time>
      </trkpt>
      <trkpt lat="43.65398" lon="7.03669">
        <ele>166.39999389648</ele>
        <time>2022-04-12T10:03:47.000Z</time>
      </trkpt>
      <trkpt lat="43.65395" lon="7.03661">
        <ele>167.39999389648</ele>
        <time>2022-04-12T10:03:49.000Z</time>
      </trkpt>
      <trkpt lat="43.65394" lon="7.03656">
        <ele>168</ele>
        <time>2022-04-12T10:03:50.000Z</time>
      </trkpt>
      <trkpt lat="43.65389" lon="7.03641">
        <ele>169.19999694824</ele>
        <time>2022-04-12T10:03:54.000Z</time>
      </trkpt>
      <trkpt lat="43.65388" lon="7.03639">
        <ele>169.39999389648</ele>
        <time>2022-04-12T10:03:55.000Z</time>
      </trkpt>
      <trkpt lat="43.65387" lon="7.03637">
        <ele>169.39999389648</ele>
        <time>2022-04-12T10:03:56.000Z</time>
      </trkpt>
      <trkpt lat="43.6539" lon="7.03633">
        <ele>169.80000305176</ele>
        <time>2022-04-12T10:03:59.000Z</time>
      </trkpt>
      <trkpt lat="43.65396" lon="7.03625">
        <ele>169.80000305176</ele>
        <time>2022-04-12T10:04:04.000Z</time>
      </trkpt>
      <trkpt lat="43.65403" lon="7.03619">
        <ele>170</ele>
        <time>2022-04-12T10:04:08.000Z</time>
      </trkpt>
      <trkpt lat="43.65404" lon="7.03619">
        <ele>170.19999694824</ele>
        <time>2022-04-12T10:04:09.000Z</time>
      </trkpt>
      <trkpt lat="43.65404" lon="7.03619">
        <ele>170</ele>
        <time>2022-04-12T10:04:12.000Z</time>
      </trkpt>
      <trkpt lat="43.65404" lon="7.03618">
        <ele>169.39999389648</ele>
        <time>2022-04-12T10:04:20.000Z</time>
      </trkpt>
      <trkpt lat="43.65403" lon="7.03619">
        <ele>169.60000610352</ele>
        <time>2022-04-12T10:04:27.000Z</time>
      </trkpt>
      <trkpt lat="43.65403" lon="7.03618">
        <ele>169.60000610352</ele>
        <time>2022-04-12T10:04:34.000Z</time>
      </trkpt>
      <trkpt lat="43.65405" lon="7.03617">
        <ele>170.19999694824</ele>
        <time>2022-04-12T10:04:43.000Z</time>
      </trkpt>
      <trkpt lat="43.65417" lon="7.03614">
        <ele>169.19999694824</ele>
        <time>2022-04-12T10:04:48.000Z</time>
      </trkpt>
      <trkpt lat="43.65425" lon="7.03614">
        <ele>169</ele>
        <time>2022-04-12T10:04:50.000Z</time>
      </trkpt>
      <trkpt lat="43.65432" lon="7.03612">
        <ele>168.60000610352</ele>
        <time>2022-04-12T10:04:52.000Z</time>
      </trkpt>
      <trkpt lat="43.65439" lon="7.03606">
        <ele>168</ele>
        <time>2022-04-12T10:04:54.000Z</time>
      </trkpt>
      <trkpt lat="43.65446" lon="7.03602">
        <ele>166.80000305176</ele>
        <time>2022-04-12T10:04:56.000Z</time>
      </trkpt>
      <trkpt lat="43.65452" lon="7.03601">
        <ele>165.80000305176</ele>
        <time>2022-04-12T10:04:58.000Z</time>
      </trkpt>
      <trkpt lat="43.65459" lon="7.03595">
        <ele>165.19999694824</ele>
        <time>2022-04-12T10:05:00.000Z</time>
      </trkpt>
      <trkpt lat="43.65468" lon="7.03593">
        <ele>164.80000305176</ele>
        <time>2022-04-12T10:05:02.000Z</time>
      </trkpt>
      <trkpt lat="43.65473" lon="7.0359">
        <ele>164.80000305176</ele>
        <time>2022-04-12T10:05:03.000Z</time>
      </trkpt>
      <trkpt lat="43.65477" lon="7.03586">
        <ele>164.80000305176</ele>
        <time>2022-04-12T10:05:04.000Z</time>
      </trkpt>
      <trkpt lat="43.65494" lon="7.03586">
        <ele>164.19999694824</ele>
        <time>2022-04-12T10:05:08.000Z</time>
      </trkpt>
      <trkpt lat="43.65493" lon="7.03587">
        <ele>164.60000610352</ele>
        <time>2022-04-12T10:05:11.000Z</time>
      </trkpt>
      <trkpt lat="43.65496" lon="7.03587">
        <ele>165.39999389648</ele>
        <time>2022-04-12T10:05:17.000Z</time>
      </trkpt>
      <trkpt lat="43.65505" lon="7.03582">
        <ele>165.19999694824</ele>
        <time>2022-04-12T10:05:20.000Z</time>
      </trkpt>
      <trkpt lat="43.65512" lon="7.03581">
        <ele>165</ele>
        <time>2022-04-12T10:05:22.000Z</time>
      </trkpt>
      <trkpt lat="43.65517" lon="7.03581">
        <ele>165.19999694824</ele>
        <time>2022-04-12T10:05:24.000Z</time>
      </trkpt>
      <trkpt lat="43.65521" lon="7.03577">
        <ele>166</ele>
        <time>2022-04-12T10:05:26.000Z</time>
      </trkpt>
      <trkpt lat="43.65526" lon="7.03574">
        <ele>166.60000610352</ele>
        <time>2022-04-12T10:05:28.000Z</time>
      </trkpt>
      <trkpt lat="43.65529" lon="7.03572">
        <ele>167.19999694824</ele>
        <time>2022-04-12T10:05:29.000Z</time>
      </trkpt>
      <trkpt lat="43.6553" lon="7.03567">
        <ele>168.60000610352</ele>
        <time>2022-04-12T10:05:31.000Z</time>
      </trkpt>
      <trkpt lat="43.6553" lon="7.03562">
        <ele>169.39999389648</ele>
        <time>2022-04-12T10:05:32.000Z</time>
      </trkpt>
      <trkpt lat="43.6553" lon="7.03558">
        <ele>170</ele>
        <time>2022-04-12T10:05:33.000Z</time>
      </trkpt>
      <trkpt lat="43.65535" lon="7.03548">
        <ele>171.39999389648</ele>
        <time>2022-04-12T10:05:36.000Z</time>
      </trkpt>
      <trkpt lat="43.65537" lon="7.03542">
        <ele>172.60000610352</ele>
        <time>2022-04-12T10:05:38.000Z</time>
      </trkpt>
      <trkpt lat="43.65542" lon="7.0354">
        <ele>173.80000305176</ele>
        <time>2022-04-12T10:05:40.000Z</time>
      </trkpt>
      <trkpt lat="43.65544" lon="7.03539">
        <ele>174.19999694824</ele>
        <time>2022-04-12T10:05:41.000Z</time>
      </trkpt>
      <trkpt lat="43.65549" lon="7.03538">
        <ele>175</ele>
        <time>2022-04-12T10:05:43.000Z</time>
      </trkpt>
      <trkpt lat="43.65554" lon="7.03535">
        <ele>175.80000305176</ele>
        <time>2022-04-12T10:05:45.000Z</time>
      </trkpt>
      <trkpt lat="43.65556" lon="7.03533">
        <ele>176.39999389648</ele>
        <time>2022-04-12T10:05:46.000Z</time>
      </trkpt>
      <trkpt lat="43.65559" lon="7.03528">
        <ele>177.39999389648</ele>
        <time>2022-04-12T10:05:48.000Z</time>
      </trkpt>
      <trkpt lat="43.65562" lon="7.03519">
        <ele>178.80000305176</ele>
        <time>2022-04-12T10:05:51.000Z</time>
      </trkpt>
      <trkpt lat="43.65568" lon="7.03515">
        <ele>180</ele>
        <time>2022-04-12T10:05:53.000Z</time>
      </trkpt>
      <trkpt lat="43.6557" lon="7.0351">
        <ele>181</ele>
        <time>2022-04-12T10:05:55.000Z</time>
      </trkpt>
      <trkpt lat="43.65575" lon="7.03506">
        <ele>182</ele>
        <time>2022-04-12T10:05:57.000Z</time>
      </trkpt>
      <trkpt lat="43.6558" lon="7.03504">
        <ele>182.80000305176</ele>
        <time>2022-04-12T10:05:59.000Z</time>
      </trkpt>
      <trkpt lat="43.65582" lon="7.03502">
        <ele>183.39999389648</ele>
        <time>2022-04-12T10:06:00.000Z</time>
      </trkpt>
      <trkpt lat="43.65594" lon="7.03502">
        <ele>184</ele>
        <time>2022-04-12T10:06:04.000Z</time>
      </trkpt>
      <trkpt lat="43.65601" lon="7.03502">
        <ele>184.60000610352</ele>
        <time>2022-04-12T10:06:07.000Z</time>
      </trkpt>
      <trkpt lat="43.65606" lon="7.03501">
        <ele>185.19999694824</ele>
        <time>2022-04-12T10:06:09.000Z</time>
      </trkpt>
      <trkpt lat="43.6561" lon="7.03497">
        <ele>185.80000305176</ele>
        <time>2022-04-12T10:06:11.000Z</time>
      </trkpt>
      <trkpt lat="43.65616" lon="7.03492">
        <ele>186.39999389648</ele>
        <time>2022-04-12T10:06:14.000Z</time>
      </trkpt>
      <trkpt lat="43.65624" lon="7.0348">
        <ele>186.39999389648</ele>
        <time>2022-04-12T10:06:21.000Z</time>
      </trkpt>
      <trkpt lat="43.65624" lon="7.03481">
        <ele>186.39999389648</ele>
        <time>2022-04-12T10:06:25.000Z</time>
      </trkpt>
      <trkpt lat="43.65624" lon="7.03481">
        <ele>186.19999694824</ele>
        <time>2022-04-12T10:06:43.000Z</time>
      </trkpt>
      <trkpt lat="43.65624" lon="7.03481">
        <ele>186.60000610352</ele>
        <time>2022-04-12T10:06:55.000Z</time>
      </trkpt>
      <trkpt lat="43.65624" lon="7.03481">
        <ele>186.80000305176</ele>
        <time>2022-04-12T10:07:04.000Z</time>
      </trkpt>
      <trkpt lat="43.65624" lon="7.03481">
        <ele>186.39999389648</ele>
        <time>2022-04-12T10:07:18.000Z</time>
      </trkpt>
      <trkpt lat="43.65624" lon="7.0348">
        <ele>185.80000305176</ele>
        <time>2022-04-12T10:07:26.000Z</time>
      </trkpt>
      <trkpt lat="43.65624" lon="7.0348">
        <ele>186.80000305176</ele>
        <time>2022-04-12T10:07:41.000Z</time>
      </trkpt>
      <trkpt lat="43.65628" lon="7.0347">
        <ele>186.39999389648</ele>
        <time>2022-04-12T10:07:48.000Z</time>
      </trkpt>
      <trkpt lat="43.6564" lon="7.0346">
        <ele>186</ele>
        <time>2022-04-12T10:07:52.000Z</time>
      </trkpt>
      <trkpt lat="43.65659" lon="7.03443">
        <ele>185</ele>
        <time>2022-04-12T10:07:58.000Z</time>
      </trkpt>
      <trkpt lat="43.65663" lon="7.03432">
        <ele>184.80000305176</ele>
        <time>2022-04-12T10:08:00.000Z</time>
      </trkpt>
      <trkpt lat="43.65669" lon="7.03423">
        <ele>184.80000305176</ele>
        <time>2022-04-12T10:08:02.000Z</time>
      </trkpt>
      <trkpt lat="43.65671" lon="7.03419">
        <ele>184.39999389648</ele>
        <time>2022-04-12T10:08:03.000Z</time>
      </trkpt>
      <trkpt lat="43.65678" lon="7.03412">
        <ele>183.60000610352</ele>
        <time>2022-04-12T10:08:06.000Z</time>
      </trkpt>
      <trkpt lat="43.65685" lon="7.03408">
        <ele>183</ele>
        <time>2022-04-12T10:08:08.000Z</time>
      </trkpt>
      <trkpt lat="43.6569" lon="7.03405">
        <ele>183.80000305176</ele>
        <time>2022-04-12T10:08:12.000Z</time>
      </trkpt>
      <trkpt lat="43.6569" lon="7.03405">
        <ele>184.19999694824</ele>
        <time>2022-04-12T10:08:16.000Z</time>
      </trkpt>
      <trkpt lat="43.6569" lon="7.03404">
        <ele>184.39999389648</ele>
        <time>2022-04-12T10:08:22.000Z</time>
      </trkpt>
      <trkpt lat="43.65691" lon="7.03403">
        <ele>183.80000305176</ele>
        <time>2022-04-12T10:08:31.000Z</time>
      </trkpt>
      <trkpt lat="43.6569" lon="7.03401">
        <ele>183.60000610352</ele>
        <time>2022-04-12T10:08:48.000Z</time>
      </trkpt>
      <trkpt lat="43.6569" lon="7.03401">
        <ele>183.39999389648</ele>
        <time>2022-04-12T10:09:06.000Z</time>
      </trkpt>
      <trkpt lat="43.65691" lon="7.034">
        <ele>183.39999389648</ele>
        <time>2022-04-12T10:09:25.000Z</time>
      </trkpt>
      <trkpt lat="43.6569" lon="7.034">
        <ele>183.39999389648</ele>
        <time>2022-04-12T10:09:37.000Z</time>
      </trkpt>
      <trkpt lat="43.65691" lon="7.034">
        <ele>183.80000305176</ele>
        <time>2022-04-12T10:09:45.000Z</time>
      </trkpt>
      <trkpt lat="43.65693" lon="7.03401">
        <ele>184.60000610352</ele>
        <time>2022-04-12T10:09:54.000Z</time>
      </trkpt>
      <trkpt lat="43.65701" lon="7.03411">
        <ele>184.80000305176</ele>
        <time>2022-04-12T10:09:57.000Z</time>
      </trkpt>
      <trkpt lat="43.65717" lon="7.03431">
        <ele>183.80000305176</ele>
        <time>2022-04-12T10:10:02.000Z</time>
      </trkpt>
      <trkpt lat="43.65719" lon="7.03436">
        <ele>183.80000305176</ele>
        <time>2022-04-12T10:10:03.000Z</time>
      </trkpt>
      <trkpt lat="43.65727" lon="7.03443">
        <ele>183.60000610352</ele>
        <time>2022-04-12T10:10:05.000Z</time>
      </trkpt>
      <trkpt lat="43.65731" lon="7.03444">
        <ele>183.19999694824</ele>
        <time>2022-04-12T10:10:06.000Z</time>
      </trkpt>
      <trkpt lat="43.65736" lon="7.03446">
        <ele>182.60000610352</ele>
        <time>2022-04-12T10:10:07.000Z</time>
      </trkpt>
      <trkpt lat="43.65741" lon="7.0345">
        <ele>182.19999694824</ele>
        <time>2022-04-12T10:10:08.000Z</time>
      </trkpt>
      <trkpt lat="43.65745" lon="7.03454">
        <ele>181.80000305176</ele>
        <time>2022-04-12T10:10:09.000Z</time>
      </trkpt>
      <trkpt lat="43.6575" lon="7.03457">
        <ele>181.19999694824</ele>
        <time>2022-04-12T10:10:10.000Z</time>
      </trkpt>
      <trkpt lat="43.65756" lon="7.03459">
        <ele>180.80000305176</ele>
        <time>2022-04-12T10:10:11.000Z</time>
      </trkpt>
      <trkpt lat="43.65772" lon="7.03468">
        <ele>179.80000305176</ele>
        <time>2022-04-12T10:10:14.000Z</time>
      </trkpt>
      <trkpt lat="43.6578" lon="7.03473">
        <ele>178.80000305176</ele>
        <time>2022-04-12T10:10:16.000Z</time>
      </trkpt>
      <trkpt lat="43.65785" lon="7.03473">
        <ele>179</ele>
        <time>2022-04-12T10:10:17.000Z</time>
      </trkpt>
      <trkpt lat="43.6579" lon="7.03474">
        <ele>178.80000305176</ele>
        <time>2022-04-12T10:10:18.000Z</time>
      </trkpt>
      <trkpt lat="43.65799" lon="7.03477">
        <ele>179</ele>
        <time>2022-04-12T10:10:20.000Z</time>
      </trkpt>
      <trkpt lat="43.65807" lon="7.03482">
        <ele>179.19999694824</ele>
        <time>2022-04-12T10:10:22.000Z</time>
      </trkpt>
      <trkpt lat="43.65823" lon="7.03484">
        <ele>180</ele>
        <time>2022-04-12T10:10:26.000Z</time>
      </trkpt>
      <trkpt lat="43.65845" lon="7.03487">
        <ele>181.39999389648</ele>
        <time>2022-04-12T10:10:31.000Z</time>
      </trkpt>
      <trkpt lat="43.65853" lon="7.03488">
        <ele>181.80000305176</ele>
        <time>2022-04-12T10:10:33.000Z</time>
      </trkpt>
      <trkpt lat="43.6586" lon="7.03489">
        <ele>182.39999389648</ele>
        <time>2022-04-12T10:10:35.000Z</time>
      </trkpt>
      <trkpt lat="43.65869" lon="7.03491">
        <ele>182.80000305176</ele>
        <time>2022-04-12T10:10:37.000Z</time>
      </trkpt>
      <trkpt lat="43.65885" lon="7.03492">
        <ele>183.39999389648</ele>
        <time>2022-04-12T10:10:41.000Z</time>
      </trkpt>
      <trkpt lat="43.65891" lon="7.03491">
        <ele>183.60000610352</ele>
        <time>2022-04-12T10:10:42.000Z</time>
      </trkpt>
      <trkpt lat="43.65896" lon="7.03491">
        <ele>183.60000610352</ele>
        <time>2022-04-12T10:10:43.000Z</time>
      </trkpt>
      <trkpt lat="43.65914" lon="7.03492">
        <ele>183</ele>
        <time>2022-04-12T10:10:47.000Z</time>
      </trkpt>
      <trkpt lat="43.65942" lon="7.03491">
        <ele>183.19999694824</ele>
        <time>2022-04-12T10:10:53.000Z</time>
      </trkpt>
      <trkpt lat="43.65955" lon="7.0349">
        <ele>183.39999389648</ele>
        <time>2022-04-12T10:10:56.000Z</time>
      </trkpt>
      <trkpt lat="43.65969" lon="7.03488">
        <ele>183.60000610352</ele>
        <time>2022-04-12T10:10:59.000Z</time>
      </trkpt>
      <trkpt lat="43.65994" lon="7.03481">
        <ele>184.19999694824</ele>
        <time>2022-04-12T10:11:05.000Z</time>
      </trkpt>
      <trkpt lat="43.66011" lon="7.03478">
        <ele>184.60000610352</ele>
        <time>2022-04-12T10:11:09.000Z</time>
      </trkpt>
      <trkpt lat="43.66016" lon="7.03478">
        <ele>184.80000305176</ele>
        <time>2022-04-12T10:11:10.000Z</time>
      </trkpt>
      <trkpt lat="43.66028" lon="7.03477">
        <ele>185.60000610352</ele>
        <time>2022-04-12T10:11:13.000Z</time>
      </trkpt>
      <trkpt lat="43.66047" lon="7.0347">
        <ele>186.60000610352</ele>
        <time>2022-04-12T10:11:18.000Z</time>
      </trkpt>
      <trkpt lat="43.66052" lon="7.03466">
        <ele>186.60000610352</ele>
        <time>2022-04-12T10:11:19.000Z</time>
      </trkpt>
      <trkpt lat="43.66065" lon="7.03448">
        <ele>185.80000305176</ele>
        <time>2022-04-12T10:11:22.000Z</time>
      </trkpt>
      <trkpt lat="43.66068" lon="7.03442">
        <ele>185.39999389648</ele>
        <time>2022-04-12T10:11:23.000Z</time>
      </trkpt>
      <trkpt lat="43.66076" lon="7.03427">
        <ele>184.39999389648</ele>
        <time>2022-04-12T10:11:25.000Z</time>
      </trkpt>
      <trkpt lat="43.66086" lon="7.03404">
        <ele>183</ele>
        <time>2022-04-12T10:11:28.000Z</time>
      </trkpt>
      <trkpt lat="43.66097" lon="7.03372">
        <ele>182</ele>
        <time>2022-04-12T10:11:33.000Z</time>
      </trkpt>
      <trkpt lat="43.66104" lon="7.03356">
        <ele>181.80000305176</ele>
        <time>2022-04-12T10:11:38.000Z</time>
      </trkpt>
      <trkpt lat="43.66104" lon="7.03356">
        <ele>181.19999694824</ele>
        <time>2022-04-12T10:11:42.000Z</time>
      </trkpt>
      <trkpt lat="43.66106" lon="7.03356">
        <ele>181</ele>
        <time>2022-04-12T10:11:45.000Z</time>
      </trkpt>
      <trkpt lat="43.66108" lon="7.03359">
        <ele>181</ele>
        <time>2022-04-12T10:11:47.000Z</time>
      </trkpt>
      <trkpt lat="43.66109" lon="7.03363">
        <ele>181</ele>
        <time>2022-04-12T10:11:49.000Z</time>
      </trkpt>
      <trkpt lat="43.6611" lon="7.0337">
        <ele>180.60000610352</ele>
        <time>2022-04-12T10:11:52.000Z</time>
      </trkpt>
      <trkpt lat="43.66115" lon="7.03386">
        <ele>180.39999389648</ele>
        <time>2022-04-12T10:11:57.000Z</time>
      </trkpt>
      <trkpt lat="43.66125" lon="7.03404">
        <ele>179.80000305176</ele>
        <time>2022-04-12T10:12:02.000Z</time>
      </trkpt>
      <trkpt lat="43.66129" lon="7.03414">
        <ele>179.19999694824</ele>
        <time>2022-04-12T10:12:06.000Z</time>
      </trkpt>
      <trkpt lat="43.66137" lon="7.03418">
        <ele>179.19999694824</ele>
        <time>2022-04-12T10:12:09.000Z</time>
      </trkpt>
      <trkpt lat="43.66139" lon="7.03427">
        <ele>178.80000305176</ele>
        <time>2022-04-12T10:12:12.000Z</time>
      </trkpt>
      <trkpt lat="43.66144" lon="7.03444">
        <ele>178.19999694824</ele>
        <time>2022-04-12T10:12:16.000Z</time>
      </trkpt>
      <trkpt lat="43.66148" lon="7.03447">
        <ele>177.80000305176</ele>
        <time>2022-04-12T10:12:18.000Z</time>
      </trkpt>
      <trkpt lat="43.6615" lon="7.03447">
        <ele>177.60000610352</ele>
        <time>2022-04-12T10:12:19.000Z</time>
      </trkpt>
      <trkpt lat="43.66151" lon="7.03446">
        <ele>177.80000305176</ele>
        <time>2022-04-12T10:12:23.000Z</time>
      </trkpt>
      <trkpt lat="43.66151" lon="7.03445">
        <ele>178</ele>
        <time>2022-04-12T10:12:29.000Z</time>
      </trkpt>
      <trkpt lat="43.6615" lon="7.03444">
        <ele>177.19999694824</ele>
        <time>2022-04-12T10:12:36.000Z</time>
      </trkpt>
      <trkpt lat="43.66151" lon="7.03442">
        <ele>177.80000305176</ele>
        <time>2022-04-12T10:12:50.000Z</time>
      </trkpt>
      <trkpt lat="43.66152" lon="7.03442">
        <ele>178</ele>
        <time>2022-04-12T10:13:05.000Z</time>
      </trkpt>
      <trkpt lat="43.66154" lon="7.0344">
        <ele>177.60000610352</ele>
        <time>2022-04-12T10:13:21.000Z</time>
      </trkpt>
      <trkpt lat="43.66154" lon="7.0344">
        <ele>177.80000305176</ele>
        <time>2022-04-12T10:13:35.000Z</time>
      </trkpt>
      <trkpt lat="43.66154" lon="7.03438">
        <ele>177.80000305176</ele>
        <time>2022-04-12T10:13:55.000Z</time>
      </trkpt>
      <trkpt lat="43.66153" lon="7.03438">
        <ele>177.39999389648</ele>
        <time>2022-04-12T10:14:02.000Z</time>
      </trkpt>
      <trkpt lat="43.66154" lon="7.03438">
        <ele>177.80000305176</ele>
        <time>2022-04-12T10:14:09.000Z</time>
      </trkpt>
      <trkpt lat="43.66153" lon="7.03437">
        <ele>178.39999389648</ele>
        <time>2022-04-12T10:14:19.000Z</time>
      </trkpt>
      <trkpt lat="43.66149" lon="7.03445">
        <ele>178</ele>
        <time>2022-04-12T10:14:22.000Z</time>
      </trkpt>
      <trkpt lat="43.66149" lon="7.03449">
        <ele>178</ele>
        <time>2022-04-12T10:14:23.000Z</time>
      </trkpt>
      <trkpt lat="43.66152" lon="7.0347">
        <ele>177.60000610352</ele>
        <time>2022-04-12T10:14:27.000Z</time>
      </trkpt>
      <trkpt lat="43.66151" lon="7.0349">
        <ele>178</ele>
        <time>2022-04-12T10:14:31.000Z</time>
      </trkpt>
      <trkpt lat="43.66153" lon="7.03501">
        <ele>178.80000305176</ele>
        <time>2022-04-12T10:14:33.000Z</time>
      </trkpt>
      <trkpt lat="43.66157" lon="7.03515">
        <ele>179</ele>
        <time>2022-04-12T10:14:36.000Z</time>
      </trkpt>
      <trkpt lat="43.66167" lon="7.03543">
        <ele>180</ele>
        <time>2022-04-12T10:14:42.000Z</time>
      </trkpt>
      <trkpt lat="43.66171" lon="7.03552">
        <ele>180.60000610352</ele>
        <time>2022-04-12T10:14:44.000Z</time>
      </trkpt>
      <trkpt lat="43.66172" lon="7.03556">
        <ele>181.19999694824</ele>
        <time>2022-04-12T10:14:45.000Z</time>
      </trkpt>
      <trkpt lat="43.66177" lon="7.03573">
        <ele>182.60000610352</ele>
        <time>2022-04-12T10:14:49.000Z</time>
      </trkpt>
      <trkpt lat="43.66177" lon="7.03577">
        <ele>182.80000305176</ele>
        <time>2022-04-12T10:14:50.000Z</time>
      </trkpt>
      <trkpt lat="43.66177" lon="7.0358">
        <ele>183.60000610352</ele>
        <time>2022-04-12T10:14:51.000Z</time>
      </trkpt>
      <trkpt lat="43.66179" lon="7.03589">
        <ele>184.39999389648</ele>
        <time>2022-04-12T10:14:53.000Z</time>
      </trkpt>
      <trkpt lat="43.66179" lon="7.03594">
        <ele>184.60000610352</ele>
        <time>2022-04-12T10:14:54.000Z</time>
      </trkpt>
      <trkpt lat="43.66183" lon="7.03606">
        <ele>184.80000305176</ele>
        <time>2022-04-12T10:14:57.000Z</time>
      </trkpt>
      <trkpt lat="43.66186" lon="7.03609">
        <ele>185</ele>
        <time>2022-04-12T10:14:58.000Z</time>
      </trkpt>
      <trkpt lat="43.66188" lon="7.03616">
        <ele>186</ele>
        <time>2022-04-12T10:15:00.000Z</time>
      </trkpt>
      <trkpt lat="43.66188" lon="7.03623">
        <ele>187.60000610352</ele>
        <time>2022-04-12T10:15:02.000Z</time>
      </trkpt>
      <trkpt lat="43.66189" lon="7.03631">
        <ele>188.80000305176</ele>
        <time>2022-04-12T10:15:04.000Z</time>
      </trkpt>
      <trkpt lat="43.66191" lon="7.0364">
        <ele>189.19999694824</ele>
        <time>2022-04-12T10:15:06.000Z</time>
      </trkpt>
      <trkpt lat="43.66196" lon="7.03654">
        <ele>188.80000305176</ele>
        <time>2022-04-12T10:15:11.000Z</time>
      </trkpt>
      <trkpt lat="43.66197" lon="7.03658">
        <ele>189.19999694824</ele>
        <time>2022-04-12T10:15:16.000Z</time>
      </trkpt>
      <trkpt lat="43.66198" lon="7.03668">
        <ele>188.80000305176</ele>
        <time>2022-04-12T10:15:21.000Z</time>
      </trkpt>
      <trkpt lat="43.66206" lon="7.03689">
        <ele>188.39999389648</ele>
        <time>2022-04-12T10:15:26.000Z</time>
      </trkpt>
      <trkpt lat="43.66215" lon="7.03697">
        <ele>188.19999694824</ele>
        <time>2022-04-12T10:15:30.000Z</time>
      </trkpt>
      <trkpt lat="43.66227" lon="7.03697">
        <ele>189</ele>
        <time>2022-04-12T10:15:35.000Z</time>
      </trkpt>
      <trkpt lat="43.66236" lon="7.03684">
        <ele>190</ele>
        <time>2022-04-12T10:15:40.000Z</time>
      </trkpt>
      <trkpt lat="43.66244" lon="7.03676">
        <ele>191.19999694824</ele>
        <time>2022-04-12T10:15:44.000Z</time>
      </trkpt>
      <trkpt lat="43.66253" lon="7.03665">
        <ele>192.19999694824</ele>
        <time>2022-04-12T10:15:49.000Z</time>
      </trkpt>
      <trkpt lat="43.66254" lon="7.03664">
        <ele>192.39999389648</ele>
        <time>2022-04-12T10:15:50.000Z</time>
      </trkpt>
      <trkpt lat="43.66265" lon="7.0365">
        <ele>193.39999389648</ele>
        <time>2022-04-12T10:15:56.000Z</time>
      </trkpt>
      <trkpt lat="43.66269" lon="7.03645">
        <ele>194</ele>
        <time>2022-04-12T10:15:58.000Z</time>
      </trkpt>
      <trkpt lat="43.66275" lon="7.03641">
        <ele>194.19999694824</ele>
        <time>2022-04-12T10:16:00.000Z</time>
      </trkpt>
      <trkpt lat="43.66279" lon="7.03641">
        <ele>194.39999389648</ele>
        <time>2022-04-12T10:16:01.000Z</time>
      </trkpt>
      <trkpt lat="43.66283" lon="7.0364">
        <ele>194.39999389648</ele>
        <time>2022-04-12T10:16:02.000Z</time>
      </trkpt>
      <trkpt lat="43.66293" lon="7.03637">
        <ele>194</ele>
        <time>2022-04-12T10:16:04.000Z</time>
      </trkpt>
      <trkpt lat="43.66301" lon="7.03632">
        <ele>193.39999389648</ele>
        <time>2022-04-12T10:16:06.000Z</time>
      </trkpt>
      <trkpt lat="43.66305" lon="7.03628">
        <ele>193</ele>
        <time>2022-04-12T10:16:07.000Z</time>
      </trkpt>
      <trkpt lat="43.66322" lon="7.03616">
        <ele>192.39999389648</ele>
        <time>2022-04-12T10:16:11.000Z</time>
      </trkpt>
      <trkpt lat="43.66339" lon="7.03605">
        <ele>192.60000610352</ele>
        <time>2022-04-12T10:16:15.000Z</time>
      </trkpt>
      <trkpt lat="43.66347" lon="7.036">
        <ele>192.60000610352</ele>
        <time>2022-04-12T10:16:17.000Z</time>
      </trkpt>
      <trkpt lat="43.66361" lon="7.03595">
        <ele>193</ele>
        <time>2022-04-12T10:16:20.000Z</time>
      </trkpt>
      <trkpt lat="43.66369" lon="7.03589">
        <ele>193.60000610352</ele>
        <time>2022-04-12T10:16:22.000Z</time>
      </trkpt>
      <trkpt lat="43.66377" lon="7.03584">
        <ele>193.80000305176</ele>
        <time>2022-04-12T10:16:24.000Z</time>
      </trkpt>
      <trkpt lat="43.66386" lon="7.03582">
        <ele>194.39999389648</ele>
        <time>2022-04-12T10:16:27.000Z</time>
      </trkpt>
      <trkpt lat="43.66392" lon="7.03576">
        <ele>195.39999389648</ele>
        <time>2022-04-12T10:16:30.000Z</time>
      </trkpt>
      <trkpt lat="43.66395" lon="7.03575">
        <ele>195.80000305176</ele>
        <time>2022-04-12T10:16:31.000Z</time>
      </trkpt>
      <trkpt lat="43.66397" lon="7.03573">
        <ele>196.19999694824</ele>
        <time>2022-04-12T10:16:32.000Z</time>
      </trkpt>
      <trkpt lat="43.664" lon="7.03571">
        <ele>196.80000305176</ele>
        <time>2022-04-12T10:16:33.000Z</time>
      </trkpt>
      <trkpt lat="43.66405" lon="7.03566">
        <ele>197.80000305176</ele>
        <time>2022-04-12T10:16:36.000Z</time>
      </trkpt>
      <trkpt lat="43.6641" lon="7.03564">
        <ele>198.60000610352</ele>
        <time>2022-04-12T10:16:38.000Z</time>
      </trkpt>
      <trkpt lat="43.66413" lon="7.03563">
        <ele>198.80000305176</ele>
        <time>2022-04-12T10:16:39.000Z</time>
      </trkpt>
      <trkpt lat="43.6642" lon="7.03559">
        <ele>200.19999694824</ele>
        <time>2022-04-12T10:16:43.000Z</time>
      </trkpt>
      <trkpt lat="43.66422" lon="7.03557">
        <ele>201.39999389648</ele>
        <time>2022-04-12T10:16:47.000Z</time>
      </trkpt>
      <trkpt lat="43.66424" lon="7.03557">
        <ele>202.19999694824</ele>
        <time>2022-04-12T10:16:59.000Z</time>
      </trkpt>
      <trkpt lat="43.66425" lon="7.03557">
        <ele>202.39999389648</ele>
        <time>2022-04-12T10:17:02.000Z</time>
      </trkpt>
      <trkpt lat="43.66425" lon="7.03557">
        <ele>202.19999694824</ele>
        <time>2022-04-12T10:17:09.000Z</time>
      </trkpt>
      <trkpt lat="43.66426" lon="7.03557">
        <ele>202.19999694824</ele>
        <time>2022-04-12T10:17:21.000Z</time>
      </trkpt>
      <trkpt lat="43.66428" lon="7.03555">
        <ele>202.60000610352</ele>
        <time>2022-04-12T10:17:29.000Z</time>
      </trkpt>
      <trkpt lat="43.66428" lon="7.03553">
        <ele>202.19999694824</ele>
        <time>2022-04-12T10:17:41.000Z</time>
      </trkpt>
      <trkpt lat="43.6643" lon="7.03552">
        <ele>201.80000305176</ele>
        <time>2022-04-12T10:17:49.000Z</time>
      </trkpt>
      <trkpt lat="43.66432" lon="7.03552">
        <ele>202</ele>
        <time>2022-04-12T10:17:57.000Z</time>
      </trkpt>
      <trkpt lat="43.66431" lon="7.03555">
        <ele>202</ele>
        <time>2022-04-12T10:18:07.000Z</time>
      </trkpt>
      <trkpt lat="43.66429" lon="7.03558">
        <ele>202</ele>
        <time>2022-04-12T10:18:13.000Z</time>
      </trkpt>
      <trkpt lat="43.66426" lon="7.0356">
        <ele>201.60000610352</ele>
        <time>2022-04-12T10:18:19.000Z</time>
      </trkpt>
      <trkpt lat="43.66422" lon="7.03564">
        <ele>201.39999389648</ele>
        <time>2022-04-12T10:18:21.000Z</time>
      </trkpt>
      <trkpt lat="43.66415" lon="7.03569">
        <ele>201.19999694824</ele>
        <time>2022-04-12T10:18:23.000Z</time>
      </trkpt>
      <trkpt lat="43.66411" lon="7.03572">
        <ele>200.80000305176</ele>
        <time>2022-04-12T10:18:24.000Z</time>
      </trkpt>
      <trkpt lat="43.66403" lon="7.03581">
        <ele>200.19999694824</ele>
        <time>2022-04-12T10:18:26.000Z</time>
      </trkpt>
      <trkpt lat="43.66399" lon="7.03583">
        <ele>199.60000610352</ele>
        <time>2022-04-12T10:18:27.000Z</time>
      </trkpt>
      <trkpt lat="43.66394" lon="7.03588">
        <ele>198.80000305176</ele>
        <time>2022-04-12T10:18:29.000Z</time>
      </trkpt>
      <trkpt lat="43.66393" lon="7.03589">
        <ele>197.80000305176</ele>
        <time>2022-04-12T10:18:31.000Z</time>
      </trkpt>
      <trkpt lat="43.66393" lon="7.03589">
        <ele>197.39999389648</ele>
        <time>2022-04-12T10:18:32.000Z</time>
      </trkpt>
      <trkpt lat="43.66393" lon="7.03589">
        <ele>196.39999389648</ele>
        <time>2022-04-12T10:18:35.000Z</time>
      </trkpt>
      <trkpt lat="43.66392" lon="7.03589">
        <ele>196</ele>
        <time>2022-04-12T10:18:38.000Z</time>
      </trkpt>
      <trkpt lat="43.66392" lon="7.03589">
        <ele>195.39999389648</ele>
        <time>2022-04-12T10:18:45.000Z</time>
      </trkpt>
      <trkpt lat="43.66392" lon="7.03589">
        <ele>195.39999389648</ele>
        <time>2022-04-12T10:18:46.000Z</time>
      </trkpt>
      <trkpt lat="43.66393" lon="7.03588">
        <ele>195.60000610352</ele>
        <time>2022-04-12T10:18:52.000Z</time>
      </trkpt>
      <trkpt lat="43.66393" lon="7.03588">
        <ele>196</ele>
        <time>2022-04-12T10:19:03.000Z</time>
      </trkpt>
      <trkpt lat="43.66393" lon="7.03589">
        <ele>196.19999694824</ele>
        <time>2022-04-12T10:19:24.000Z</time>
      </trkpt>
      <trkpt lat="43.66393" lon="7.03589">
        <ele>195.80000305176</ele>
        <time>2022-04-12T10:19:38.000Z</time>
      </trkpt>
      <trkpt lat="43.66392" lon="7.03587">
        <ele>195.80000305176</ele>
        <time>2022-04-12T10:19:49.000Z</time>
      </trkpt>
      <trkpt lat="43.66392" lon="7.03586">
        <ele>196</ele>
        <time>2022-04-12T10:20:07.000Z</time>
      </trkpt>
      <trkpt lat="43.66391" lon="7.03585">
        <ele>195.80000305176</ele>
        <time>2022-04-12T10:20:16.000Z</time>
      </trkpt>
      <trkpt lat="43.66391" lon="7.03585">
        <ele>195.60000610352</ele>
        <time>2022-04-12T10:20:23.000Z</time>
      </trkpt>
      <trkpt lat="43.66392" lon="7.03585">
        <ele>195.39999389648</ele>
        <time>2022-04-12T10:20:32.000Z</time>
      </trkpt>
      <trkpt lat="43.66392" lon="7.03585">
        <ele>196.39999389648</ele>
        <time>2022-04-12T10:20:37.000Z</time>
      </trkpt>
      <trkpt lat="43.66392" lon="7.03584">
        <ele>196.60000610352</ele>
        <time>2022-04-12T10:20:40.000Z</time>
      </trkpt>
      <trkpt lat="43.66396" lon="7.03581">
        <ele>196.19999694824</ele>
        <time>2022-04-12T10:20:46.000Z</time>
      </trkpt>
      <trkpt lat="43.66404" lon="7.03574">
        <ele>196.19999694824</ele>
        <time>2022-04-12T10:20:50.000Z</time>
      </trkpt>
      <trkpt lat="43.66409" lon="7.03569">
        <ele>197</ele>
        <time>2022-04-12T10:20:52.000Z</time>
      </trkpt>
      <trkpt lat="43.66415" lon="7.03566">
        <ele>197.60000610352</ele>
        <time>2022-04-12T10:20:54.000Z</time>
      </trkpt>
      <trkpt lat="43.66418" lon="7.03565">
        <ele>198.19999694824</ele>
        <time>2022-04-12T10:20:55.000Z</time>
      </trkpt>
      <trkpt lat="43.66421" lon="7.03564">
        <ele>198.60000610352</ele>
        <time>2022-04-12T10:20:56.000Z</time>
      </trkpt>
      <trkpt lat="43.6643" lon="7.03557">
        <ele>199.80000305176</ele>
        <time>2022-04-12T10:20:59.000Z</time>
      </trkpt>
      <trkpt lat="43.66435" lon="7.03553">
        <ele>201</ele>
        <time>2022-04-12T10:21:01.000Z</time>
      </trkpt>
      <trkpt lat="43.66439" lon="7.03553">
        <ele>201.60000610352</ele>
        <time>2022-04-12T10:21:02.000Z</time>
      </trkpt>
      <trkpt lat="43.66442" lon="7.03555">
        <ele>202.19999694824</ele>
        <time>2022-04-12T10:21:03.000Z</time>
      </trkpt>
      <trkpt lat="43.66445" lon="7.03557">
        <ele>202.60000610352</ele>
        <time>2022-04-12T10:21:04.000Z</time>
      </trkpt>
      <trkpt lat="43.66454" lon="7.03558">
        <ele>203.39999389648</ele>
        <time>2022-04-12T10:21:07.000Z</time>
      </trkpt>
      <trkpt lat="43.66455" lon="7.03557">
        <ele>203.39999389648</ele>
        <time>2022-04-12T10:21:08.000Z</time>
      </trkpt>
      <trkpt lat="43.66457" lon="7.03554">
        <ele>203.39999389648</ele>
        <time>2022-04-12T10:21:09.000Z</time>
      </trkpt>
      <trkpt lat="43.66463" lon="7.03547">
        <ele>204</ele>
        <time>2022-04-12T10:21:12.000Z</time>
      </trkpt>
      <trkpt lat="43.66464" lon="7.03546">
        <ele>204.60000610352</ele>
        <time>2022-04-12T10:21:13.000Z</time>
      </trkpt>
      <trkpt lat="43.66467" lon="7.03542">
        <ele>205.39999389648</ele>
        <time>2022-04-12T10:21:15.000Z</time>
      </trkpt>
      <trkpt lat="43.66468" lon="7.03541">
        <ele>205.80000305176</ele>
        <time>2022-04-12T10:21:16.000Z</time>
      </trkpt>
      <trkpt lat="43.6647" lon="7.0354">
        <ele>206.19999694824</ele>
        <time>2022-04-12T10:21:17.000Z</time>
      </trkpt>
      <trkpt lat="43.66475" lon="7.03537">
        <ele>207</ele>
        <time>2022-04-12T10:21:19.000Z</time>
      </trkpt>
      <trkpt lat="43.66477" lon="7.03536">
        <ele>207.60000610352</ele>
        <time>2022-04-12T10:21:20.000Z</time>
      </trkpt>
      <trkpt lat="43.66482" lon="7.03534">
        <ele>208.60000610352</ele>
        <time>2022-04-12T10:21:22.000Z</time>
      </trkpt>
      <trkpt lat="43.66485" lon="7.0353">
        <ele>209.39999389648</ele>
        <time>2022-04-12T10:21:24.000Z</time>
      </trkpt>
      <trkpt lat="43.66486" lon="7.03529">
        <ele>210</ele>
        <time>2022-04-12T10:21:25.000Z</time>
      </trkpt>
      <trkpt lat="43.66491" lon="7.03527">
        <ele>211.19999694824</ele>
        <time>2022-04-12T10:21:28.000Z</time>
      </trkpt>
      <trkpt lat="43.66495" lon="7.03524">
        <ele>211.80000305176</ele>
        <time>2022-04-12T10:21:30.000Z</time>
      </trkpt>
      <trkpt lat="43.66495" lon="7.03521">
        <ele>212.19999694824</ele>
        <time>2022-04-12T10:21:31.000Z</time>
      </trkpt>
      <trkpt lat="43.66497" lon="7.0352">
        <ele>212.60000610352</ele>
        <time>2022-04-12T10:21:32.000Z</time>
      </trkpt>
      <trkpt lat="43.66499" lon="7.03519">
        <ele>213</ele>
        <time>2022-04-12T10:21:33.000Z</time>
      </trkpt>
      <trkpt lat="43.66503" lon="7.03518">
        <ele>214</ele>
        <time>2022-04-12T10:21:35.000Z</time>
      </trkpt>
      <trkpt lat="43.66508" lon="7.03515">
        <ele>215</ele>
        <time>2022-04-12T10:21:38.000Z</time>
      </trkpt>
      <trkpt lat="43.66512" lon="7.03512">
        <ele>215.80000305176</ele>
        <time>2022-04-12T10:21:40.000Z</time>
      </trkpt>
      <trkpt lat="43.66517" lon="7.03509">
        <ele>216.19999694824</ele>
        <time>2022-04-12T10:21:42.000Z</time>
      </trkpt>
      <trkpt lat="43.66519" lon="7.03506">
        <ele>216.80000305176</ele>
        <time>2022-04-12T10:21:44.000Z</time>
      </trkpt>
      <trkpt lat="43.66521" lon="7.035">
        <ele>217.19999694824</ele>
        <time>2022-04-12T10:21:47.000Z</time>
      </trkpt>
      <trkpt lat="43.66522" lon="7.03498">
        <ele>217.80000305176</ele>
        <time>2022-04-12T10:21:49.000Z</time>
      </trkpt>
      <trkpt lat="43.66524" lon="7.03497">
        <ele>218.39999389648</ele>
        <time>2022-04-12T10:21:51.000Z</time>
      </trkpt>
      <trkpt lat="43.66524" lon="7.03497">
        <ele>218.60000610352</ele>
        <time>2022-04-12T10:21:54.000Z</time>
      </trkpt>
      <trkpt lat="43.66525" lon="7.03496">
        <ele>218.60000610352</ele>
        <time>2022-04-12T10:22:01.000Z</time>
      </trkpt>
      <trkpt lat="43.66527" lon="7.03494">
        <ele>218</ele>
        <time>2022-04-12T10:22:10.000Z</time>
      </trkpt>
      <trkpt lat="43.66528" lon="7.03494">
        <ele>218.39999389648</ele>
        <time>2022-04-12T10:22:18.000Z</time>
      </trkpt>
      <trkpt lat="43.66531" lon="7.03492">
        <ele>218.39999389648</ele>
        <time>2022-04-12T10:22:27.000Z</time>
      </trkpt>
      <trkpt lat="43.66532" lon="7.03489">
        <ele>218.39999389648</ele>
        <time>2022-04-12T10:22:37.000Z</time>
      </trkpt>
      <trkpt lat="43.66534" lon="7.03488">
        <ele>218.60000610352</ele>
        <time>2022-04-12T10:22:47.000Z</time>
      </trkpt>
      <trkpt lat="43.66537" lon="7.03488">
        <ele>218.39999389648</ele>
        <time>2022-04-12T10:22:55.000Z</time>
      </trkpt>
      <trkpt lat="43.66539" lon="7.03487">
        <ele>218.39999389648</ele>
        <time>2022-04-12T10:23:07.000Z</time>
      </trkpt>
      <trkpt lat="43.66539" lon="7.03485">
        <ele>218.39999389648</ele>
        <time>2022-04-12T10:23:20.000Z</time>
      </trkpt>
      <trkpt lat="43.66541" lon="7.03485">
        <ele>218.19999694824</ele>
        <time>2022-04-12T10:23:27.000Z</time>
      </trkpt>
      <trkpt lat="43.6654" lon="7.03485">
        <ele>218.19999694824</ele>
        <time>2022-04-12T10:23:40.000Z</time>
      </trkpt>
      <trkpt lat="43.6654" lon="7.03485">
        <ele>218.19999694824</ele>
        <time>2022-04-12T10:23:49.000Z</time>
      </trkpt>
      <trkpt lat="43.66541" lon="7.03486">
        <ele>218.19999694824</ele>
        <time>2022-04-12T10:23:56.000Z</time>
      </trkpt>
      <trkpt lat="43.66543" lon="7.03486">
        <ele>218.60000610352</ele>
        <time>2022-04-12T10:24:05.000Z</time>
      </trkpt>
      <trkpt lat="43.66541" lon="7.03485">
        <ele>218.39999389648</ele>
        <time>2022-04-12T10:24:12.000Z</time>
      </trkpt>
      <trkpt lat="43.6654" lon="7.03485">
        <ele>218.19999694824</ele>
        <time>2022-04-12T10:24:18.000Z</time>
      </trkpt>
      <trkpt lat="43.66538" lon="7.03484">
        <ele>218.60000610352</ele>
        <time>2022-04-12T10:24:25.000Z</time>
      </trkpt>
      <trkpt lat="43.66543" lon="7.03485">
        <ele>218.60000610352</ele>
        <time>2022-04-12T10:24:32.000Z</time>
      </trkpt>
      <trkpt lat="43.66554" lon="7.03488">
        <ele>218.19999694824</ele>
        <time>2022-04-12T10:24:36.000Z</time>
      </trkpt>
      <trkpt lat="43.66559" lon="7.03492">
        <ele>218.19999694824</ele>
        <time>2022-04-12T10:24:37.000Z</time>
      </trkpt>
      <trkpt lat="43.66566" lon="7.03498">
        <ele>217.19999694824</ele>
        <time>2022-04-12T10:24:39.000Z</time>
      </trkpt>
      <trkpt lat="43.66573" lon="7.03491">
        <ele>215.60000610352</ele>
        <time>2022-04-12T10:24:42.000Z</time>
      </trkpt>
      <trkpt lat="43.66583" lon="7.03476">
        <ele>215.19999694824</ele>
        <time>2022-04-12T10:24:46.000Z</time>
      </trkpt>
      <trkpt lat="43.66589" lon="7.03472">
        <ele>215.60000610352</ele>
        <time>2022-04-12T10:24:48.000Z</time>
      </trkpt>
      <trkpt lat="43.66599" lon="7.03469">
        <ele>215.80000305176</ele>
        <time>2022-04-12T10:24:50.000Z</time>
      </trkpt>
      <trkpt lat="43.66602" lon="7.03472">
        <ele>215.39999389648</ele>
        <time>2022-04-12T10:24:51.000Z</time>
      </trkpt>
      <trkpt lat="43.66611" lon="7.03471">
        <ele>214.80000305176</ele>
        <time>2022-04-12T10:24:53.000Z</time>
      </trkpt>
      <trkpt lat="43.66617" lon="7.03469">
        <ele>214.19999694824</ele>
        <time>2022-04-12T10:24:54.000Z</time>
      </trkpt>
      <trkpt lat="43.66628" lon="7.03471">
        <ele>212.60000610352</ele>
        <time>2022-04-12T10:24:56.000Z</time>
      </trkpt>
      <trkpt lat="43.6664" lon="7.03467">
        <ele>211</ele>
        <time>2022-04-12T10:24:58.000Z</time>
      </trkpt>
      <trkpt lat="43.66644" lon="7.03463">
        <ele>210.39999389648</ele>
        <time>2022-04-12T10:24:59.000Z</time>
      </trkpt>
      <trkpt lat="43.66651" lon="7.03447">
        <ele>210.19999694824</ele>
        <time>2022-04-12T10:25:02.000Z</time>
      </trkpt>
      <trkpt lat="43.66666" lon="7.03417">
        <ele>211</ele>
        <time>2022-04-12T10:25:08.000Z</time>
      </trkpt>
      <trkpt lat="43.66669" lon="7.03413">
        <ele>211</ele>
        <time>2022-04-12T10:25:09.000Z</time>
      </trkpt>
      <trkpt lat="43.66678" lon="7.034">
        <ele>211</ele>
        <time>2022-04-12T10:25:14.000Z</time>
      </trkpt>
      <trkpt lat="43.66686" lon="7.03397">
        <ele>211</ele>
        <time>2022-04-12T10:25:18.000Z</time>
      </trkpt>
      <trkpt lat="43.667" lon="7.03387">
        <ele>211.39999389648</ele>
        <time>2022-04-12T10:25:23.000Z</time>
      </trkpt>
      <trkpt lat="43.66712" lon="7.03366">
        <ele>211.80000305176</ele>
        <time>2022-04-12T10:25:28.000Z</time>
      </trkpt>
      <trkpt lat="43.66717" lon="7.03357">
        <ele>212</ele>
        <time>2022-04-12T10:25:30.000Z</time>
      </trkpt>
      <trkpt lat="43.66731" lon="7.0334">
        <ele>212.19999694824</ele>
        <time>2022-04-12T10:25:34.000Z</time>
      </trkpt>
      <trkpt lat="43.66738" lon="7.03326">
        <ele>212.39999389648</ele>
        <time>2022-04-12T10:25:37.000Z</time>
      </trkpt>
      <trkpt lat="43.66742" lon="7.03315">
        <ele>212.39999389648</ele>
        <time>2022-04-12T10:25:39.000Z</time>
      </trkpt>
      <trkpt lat="43.66753" lon="7.03293">
        <ele>213.19999694824</ele>
        <time>2022-04-12T10:25:44.000Z</time>
      </trkpt>
      <trkpt lat="43.66755" lon="7.03292">
        <ele>213.39999389648</ele>
        <time>2022-04-12T10:25:45.000Z</time>
      </trkpt>
      <trkpt lat="43.66755" lon="7.03291">
        <ele>213.39999389648</ele>
        <time>2022-04-12T10:25:46.000Z</time>
      </trkpt>
      <trkpt lat="43.66756" lon="7.03286">
        <ele>213.39999389648</ele>
        <time>2022-04-12T10:25:49.000Z</time>
      </trkpt>
      <trkpt lat="43.66756" lon="7.03291">
        <ele>213.39999389648</ele>
        <time>2022-04-12T10:25:53.000Z</time>
      </trkpt>
      <trkpt lat="43.66755" lon="7.03296">
        <ele>213.80000305176</ele>
        <time>2022-04-12T10:25:59.000Z</time>
      </trkpt>
      <trkpt lat="43.66756" lon="7.03296">
        <ele>213.80000305176</ele>
        <time>2022-04-12T10:26:03.000Z</time>
      </trkpt>
      <trkpt lat="43.66756" lon="7.03296">
        <ele>213.80000305176</ele>
        <time>2022-04-12T10:26:10.000Z</time>
      </trkpt>
      <trkpt lat="43.66757" lon="7.03294">
        <ele>214</ele>
        <time>2022-04-12T10:26:21.000Z</time>
      </trkpt>
      <trkpt lat="43.66756" lon="7.03294">
        <ele>214</ele>
        <time>2022-04-12T10:26:26.000Z</time>
      </trkpt>
      <trkpt lat="43.66757" lon="7.03293">
        <ele>213.39999389648</ele>
        <time>2022-04-12T10:26:31.000Z</time>
      </trkpt>
      <trkpt lat="43.66757" lon="7.03292">
        <ele>214.19999694824</ele>
        <time>2022-04-12T10:26:38.000Z</time>
      </trkpt>
      <trkpt lat="43.66756" lon="7.03291">
        <ele>213.19999694824</ele>
        <time>2022-04-12T10:26:46.000Z</time>
      </trkpt>
      <trkpt lat="43.66757" lon="7.03292">
        <ele>213.39999389648</ele>
        <time>2022-04-12T10:26:51.000Z</time>
      </trkpt>
      <trkpt lat="43.66757" lon="7.03291">
        <ele>213.39999389648</ele>
        <time>2022-04-12T10:26:57.000Z</time>
      </trkpt>
      <trkpt lat="43.66757" lon="7.0329">
        <ele>213.80000305176</ele>
        <time>2022-04-12T10:27:03.000Z</time>
      </trkpt>
      <trkpt lat="43.66757" lon="7.03291">
        <ele>213.80000305176</ele>
        <time>2022-04-12T10:27:10.000Z</time>
      </trkpt>
      <trkpt lat="43.66757" lon="7.03294">
        <ele>213.80000305176</ele>
        <time>2022-04-12T10:27:15.000Z</time>
      </trkpt>
      <trkpt lat="43.66758" lon="7.03295">
        <ele>214</ele>
        <time>2022-04-12T10:27:16.000Z</time>
      </trkpt>
      <trkpt lat="43.66759" lon="7.03297">
        <ele>214.19999694824</ele>
        <time>2022-04-12T10:27:21.000Z</time>
      </trkpt>
      <trkpt lat="43.6676" lon="7.03298">
        <ele>214</ele>
        <time>2022-04-12T10:27:31.000Z</time>
      </trkpt>
      <trkpt lat="43.66761" lon="7.03298">
        <ele>214</ele>
        <time>2022-04-12T10:27:47.000Z</time>
      </trkpt>
      <trkpt lat="43.6676" lon="7.03295">
        <ele>213.80000305176</ele>
        <time>2022-04-12T10:27:54.000Z</time>
      </trkpt>
      <trkpt lat="43.66759" lon="7.03295">
        <ele>213.80000305176</ele>
        <time>2022-04-12T10:28:01.000Z</time>
      </trkpt>
      <trkpt lat="43.66759" lon="7.03294">
        <ele>213.80000305176</ele>
        <time>2022-04-12T10:28:10.000Z</time>
      </trkpt>
      <trkpt lat="43.6676" lon="7.03295">
        <ele>213.39999389648</ele>
        <time>2022-04-12T10:28:18.000Z</time>
      </trkpt>
      <trkpt lat="43.6676" lon="7.03295">
        <ele>214.19999694824</ele>
        <time>2022-04-12T10:28:28.000Z</time>
      </trkpt>
      <trkpt lat="43.6676" lon="7.03293">
        <ele>213.60000610352</ele>
        <time>2022-04-12T10:28:39.000Z</time>
      </trkpt>
      <trkpt lat="43.6676" lon="7.03294">
        <ele>213.80000305176</ele>
        <time>2022-04-12T10:28:49.000Z</time>
      </trkpt>
      <trkpt lat="43.66761" lon="7.03294">
        <ele>213.60000610352</ele>
        <time>2022-04-12T10:29:00.000Z</time>
      </trkpt>
      <trkpt lat="43.66761" lon="7.03294">
        <ele>213.39999389648</ele>
        <time>2022-04-12T10:29:10.000Z</time>
      </trkpt>
      <trkpt lat="43.6676" lon="7.03294">
        <ele>213.60000610352</ele>
        <time>2022-04-12T10:29:21.000Z</time>
      </trkpt>
      <trkpt lat="43.6676" lon="7.03294">
        <ele>213.19999694824</ele>
        <time>2022-04-12T10:29:28.000Z</time>
      </trkpt>
      <trkpt lat="43.6676" lon="7.03294">
        <ele>213.19999694824</ele>
        <time>2022-04-12T10:29:34.000Z</time>
      </trkpt>
      <trkpt lat="43.6676" lon="7.03296">
        <ele>213.39999389648</ele>
        <time>2022-04-12T10:29:49.000Z</time>
      </trkpt>
      <trkpt lat="43.6676" lon="7.03296">
        <ele>213.19999694824</ele>
        <time>2022-04-12T10:30:00.000Z</time>
      </trkpt>
      <trkpt lat="43.6676" lon="7.03297">
        <ele>213.60000610352</ele>
        <time>2022-04-12T10:30:11.000Z</time>
      </trkpt>
      <trkpt lat="43.66761" lon="7.03297">
        <ele>213.80000305176</ele>
        <time>2022-04-12T10:30:26.000Z</time>
      </trkpt>
      <trkpt lat="43.66761" lon="7.03295">
        <ele>214</ele>
        <time>2022-04-12T10:30:29.000Z</time>
      </trkpt>
      <trkpt lat="43.66761" lon="7.03296">
        <ele>214</ele>
        <time>2022-04-12T10:30:32.000Z</time>
      </trkpt>
      <trkpt lat="43.66761" lon="7.03296">
        <ele>214</ele>
        <time>2022-04-12T10:30:46.000Z</time>
      </trkpt>
      <trkpt lat="43.66761" lon="7.03297">
        <ele>213</ele>
        <time>2022-04-12T10:31:02.000Z</time>
      </trkpt>
      <trkpt lat="43.66761" lon="7.03297">
        <ele>214</ele>
        <time>2022-04-12T10:31:12.000Z</time>
      </trkpt>
      <trkpt lat="43.66761" lon="7.03297">
        <ele>214.19999694824</ele>
        <time>2022-04-12T10:31:15.000Z</time>
      </trkpt>
      <trkpt lat="43.66761" lon="7.03296">
        <ele>213.60000610352</ele>
        <time>2022-04-12T10:31:24.000Z</time>
      </trkpt>
      <trkpt lat="43.66761" lon="7.03296">
        <ele>214.19999694824</ele>
        <time>2022-04-12T10:31:35.000Z</time>
      </trkpt>
      <trkpt lat="43.66761" lon="7.03296">
        <ele>214</ele>
        <time>2022-04-12T10:31:44.000Z</time>
      </trkpt>
      <trkpt lat="43.66761" lon="7.03296">
        <ele>214</ele>
        <time>2022-04-12T10:31:57.000Z</time>
      </trkpt>
      <trkpt lat="43.66759" lon="7.03298">
        <ele>214</ele>
        <time>2022-04-12T10:32:12.000Z</time>
      </trkpt>
      <trkpt lat="43.66759" lon="7.033">
        <ele>214</ele>
        <time>2022-04-12T10:32:29.000Z</time>
      </trkpt>
      <trkpt lat="43.6676" lon="7.03301">
        <ele>214.19999694824</ele>
        <time>2022-04-12T10:32:46.000Z</time>
      </trkpt>
      <trkpt lat="43.66762" lon="7.03302">
        <ele>213.60000610352</ele>
        <time>2022-04-12T10:33:03.000Z</time>
      </trkpt>
      <trkpt lat="43.66762" lon="7.03302">
        <ele>214</ele>
        <time>2022-04-12T10:33:15.000Z</time>
      </trkpt>
      <trkpt lat="43.66763" lon="7.03302">
        <ele>213.80000305176</ele>
        <time>2022-04-12T10:33:24.000Z</time>
      </trkpt>
      <trkpt lat="43.66763" lon="7.03301">
        <ele>214</ele>
        <time>2022-04-12T10:33:33.000Z</time>
      </trkpt>
      <trkpt lat="43.66764" lon="7.033">
        <ele>214</ele>
        <time>2022-04-12T10:33:44.000Z</time>
      </trkpt>
      <trkpt lat="43.66765" lon="7.03298">
        <ele>214</ele>
        <time>2022-04-12T10:33:56.000Z</time>
      </trkpt>
      <trkpt lat="43.66765" lon="7.03299">
        <ele>214.19999694824</ele>
        <time>2022-04-12T10:34:08.000Z</time>
      </trkpt>
      <trkpt lat="43.66764" lon="7.03299">
        <ele>214.19999694824</ele>
        <time>2022-04-12T10:34:18.000Z</time>
      </trkpt>
      <trkpt lat="43.66764" lon="7.033">
        <ele>214.60000610352</ele>
        <time>2022-04-12T10:34:31.000Z</time>
      </trkpt>
      <trkpt lat="43.66764" lon="7.03299">
        <ele>213.80000305176</ele>
        <time>2022-04-12T10:34:43.000Z</time>
      </trkpt>
      <trkpt lat="43.66764" lon="7.03299">
        <ele>213.80000305176</ele>
        <time>2022-04-12T10:34:54.000Z</time>
      </trkpt>
      <trkpt lat="43.66764" lon="7.033">
        <ele>213.60000610352</ele>
        <time>2022-04-12T10:35:06.000Z</time>
      </trkpt>
      <trkpt lat="43.66763" lon="7.03301">
        <ele>213.80000305176</ele>
        <time>2022-04-12T10:35:16.000Z</time>
      </trkpt>
      <trkpt lat="43.66762" lon="7.03301">
        <ele>214.19999694824</ele>
        <time>2022-04-12T10:35:30.000Z</time>
      </trkpt>
      <trkpt lat="43.6676" lon="7.03302">
        <ele>214.19999694824</ele>
        <time>2022-04-12T10:35:43.000Z</time>
      </trkpt>
      <trkpt lat="43.66759" lon="7.03302">
        <ele>214.19999694824</ele>
        <time>2022-04-12T10:35:55.000Z</time>
      </trkpt>
      <trkpt lat="43.66758" lon="7.03302">
        <ele>214.19999694824</ele>
        <time>2022-04-12T10:36:11.000Z</time>
      </trkpt>
      <trkpt lat="43.66758" lon="7.03301">
        <ele>214</ele>
        <time>2022-04-12T10:36:23.000Z</time>
      </trkpt>
      <trkpt lat="43.66758" lon="7.03301">
        <ele>214.19999694824</ele>
        <time>2022-04-12T10:36:34.000Z</time>
      </trkpt>
      <trkpt lat="43.6676" lon="7.033">
        <ele>214.19999694824</ele>
        <time>2022-04-12T10:36:49.000Z</time>
      </trkpt>
      <trkpt lat="43.66761" lon="7.03299">
        <ele>213.80000305176</ele>
        <time>2022-04-12T10:37:01.000Z</time>
      </trkpt>
      <trkpt lat="43.66763" lon="7.03298">
        <ele>214</ele>
        <time>2022-04-12T10:37:13.000Z</time>
      </trkpt>
      <trkpt lat="43.66763" lon="7.03298">
        <ele>214.19999694824</ele>
        <time>2022-04-12T10:37:29.000Z</time>
      </trkpt>
      <trkpt lat="43.66764" lon="7.03297">
        <ele>213.39999389648</ele>
        <time>2022-04-12T10:37:47.000Z</time>
      </trkpt>
      <trkpt lat="43.66764" lon="7.03297">
        <ele>214</ele>
        <time>2022-04-12T10:37:58.000Z</time>
      </trkpt>
      <trkpt lat="43.66763" lon="7.03297">
        <ele>214.39999389648</ele>
        <time>2022-04-12T10:38:09.000Z</time>
      </trkpt>
      <trkpt lat="43.66763" lon="7.03297">
        <ele>215</ele>
        <time>2022-04-12T10:38:20.000Z</time>
      </trkpt>
      <trkpt lat="43.66763" lon="7.03297">
        <ele>214.39999389648</ele>
        <time>2022-04-12T10:38:33.000Z</time>
      </trkpt>
      <trkpt lat="43.66763" lon="7.03296">
        <ele>214.19999694824</ele>
        <time>2022-04-12T10:38:42.000Z</time>
      </trkpt>
      <trkpt lat="43.66764" lon="7.03296">
        <ele>214.60000610352</ele>
        <time>2022-04-12T10:38:54.000Z</time>
      </trkpt>
      <trkpt lat="43.66763" lon="7.03297">
        <ele>214.19999694824</ele>
        <time>2022-04-12T10:39:05.000Z</time>
      </trkpt>
      <trkpt lat="43.66763" lon="7.03297">
        <ele>214.39999389648</ele>
        <time>2022-04-12T10:39:17.000Z</time>
      </trkpt>
      <trkpt lat="43.66763" lon="7.03296">
        <ele>214.39999389648</ele>
        <time>2022-04-12T10:39:27.000Z</time>
      </trkpt>
      <trkpt lat="43.66763" lon="7.03296">
        <ele>214.19999694824</ele>
        <time>2022-04-12T10:39:41.000Z</time>
      </trkpt>
      <trkpt lat="43.66762" lon="7.03295">
        <ele>214.19999694824</ele>
        <time>2022-04-12T10:39:57.000Z</time>
      </trkpt>
      <trkpt lat="43.66763" lon="7.03294">
        <ele>214.19999694824</ele>
        <time>2022-04-12T10:40:07.000Z</time>
      </trkpt>
      <trkpt lat="43.66762" lon="7.03295">
        <ele>214</ele>
        <time>2022-04-12T10:40:23.000Z</time>
      </trkpt>
      <trkpt lat="43.66761" lon="7.03295">
        <ele>214.60000610352</ele>
        <time>2022-04-12T10:40:34.000Z</time>
      </trkpt>
      <trkpt lat="43.66761" lon="7.03295">
        <ele>213.39999389648</ele>
        <time>2022-04-12T10:40:51.000Z</time>
      </trkpt>
      <trkpt lat="43.66761" lon="7.03295">
        <ele>214.19999694824</ele>
        <time>2022-04-12T10:41:02.000Z</time>
      </trkpt>
      <trkpt lat="43.6676" lon="7.03295">
        <ele>213.80000305176</ele>
        <time>2022-04-12T10:41:14.000Z</time>
      </trkpt>
      <trkpt lat="43.6676" lon="7.03294">
        <ele>214.19999694824</ele>
        <time>2022-04-12T10:41:32.000Z</time>
      </trkpt>
      <trkpt lat="43.66759" lon="7.03294">
        <ele>214.19999694824</ele>
        <time>2022-04-12T10:41:46.000Z</time>
      </trkpt>
      <trkpt lat="43.66759" lon="7.03294">
        <ele>214.19999694824</ele>
        <time>2022-04-12T10:41:55.000Z</time>
      </trkpt>
      <trkpt lat="43.6676" lon="7.03293">
        <ele>214</ele>
        <time>2022-04-12T10:42:04.000Z</time>
      </trkpt>
      <trkpt lat="43.66759" lon="7.03293">
        <ele>214.39999389648</ele>
        <time>2022-04-12T10:42:16.000Z</time>
      </trkpt>
      <trkpt lat="43.66759" lon="7.03293">
        <ele>214.39999389648</ele>
        <time>2022-04-12T10:42:34.000Z</time>
      </trkpt>
      <trkpt lat="43.66759" lon="7.03293">
        <ele>214.19999694824</ele>
        <time>2022-04-12T10:42:43.000Z</time>
      </trkpt>
      <trkpt lat="43.66758" lon="7.03294">
        <ele>214.39999389648</ele>
        <time>2022-04-12T10:43:04.000Z</time>
      </trkpt>
      <trkpt lat="43.66759" lon="7.03295">
        <ele>214.19999694824</ele>
        <time>2022-04-12T10:43:18.000Z</time>
      </trkpt>
      <trkpt lat="43.66759" lon="7.03295">
        <ele>214.19999694824</ele>
        <time>2022-04-12T10:43:30.000Z</time>
      </trkpt>
      <trkpt lat="43.66759" lon="7.03294">
        <ele>214.39999389648</ele>
        <time>2022-04-12T10:43:43.000Z</time>
      </trkpt>
      <trkpt lat="43.6676" lon="7.03295">
        <ele>214.19999694824</ele>
        <time>2022-04-12T10:43:58.000Z</time>
      </trkpt>
      <trkpt lat="43.6676" lon="7.03295">
        <ele>213.60000610352</ele>
        <time>2022-04-12T10:44:10.000Z</time>
      </trkpt>
      <trkpt lat="43.66761" lon="7.03296">
        <ele>214.19999694824</ele>
        <time>2022-04-12T10:44:24.000Z</time>
      </trkpt>
      <trkpt lat="43.6676" lon="7.03296">
        <ele>214</ele>
        <time>2022-04-12T10:44:37.000Z</time>
      </trkpt>
      <trkpt lat="43.66759" lon="7.03295">
        <ele>213.60000610352</ele>
        <time>2022-04-12T10:44:49.000Z</time>
      </trkpt>
      <trkpt lat="43.6676" lon="7.03295">
        <ele>214.19999694824</ele>
        <time>2022-04-12T10:45:03.000Z</time>
      </trkpt>
      <trkpt lat="43.66759" lon="7.03294">
        <ele>213.80000305176</ele>
        <time>2022-04-12T10:45:14.000Z</time>
      </trkpt>
      <trkpt lat="43.66759" lon="7.03294">
        <ele>214.19999694824</ele>
        <time>2022-04-12T10:45:28.000Z</time>
      </trkpt>
      <trkpt lat="43.66759" lon="7.03295">
        <ele>214.19999694824</ele>
        <time>2022-04-12T10:45:37.000Z</time>
      </trkpt>
      <trkpt lat="43.66759" lon="7.03296">
        <ele>213.80000305176</ele>
        <time>2022-04-12T10:45:53.000Z</time>
      </trkpt>
      <trkpt lat="43.66759" lon="7.03295">
        <ele>214.19999694824</ele>
        <time>2022-04-12T10:46:10.000Z</time>
      </trkpt>
      <trkpt lat="43.66758" lon="7.03296">
        <ele>214.39999389648</ele>
        <time>2022-04-12T10:46:22.000Z</time>
      </trkpt>
      <trkpt lat="43.66756" lon="7.03298">
        <ele>214.39999389648</ele>
        <time>2022-04-12T10:46:38.000Z</time>
      </trkpt>
      <trkpt lat="43.66758" lon="7.03297">
        <ele>214.60000610352</ele>
        <time>2022-04-12T10:46:49.000Z</time>
      </trkpt>
      <trkpt lat="43.66759" lon="7.03297">
        <ele>214.80000305176</ele>
        <time>2022-04-12T10:46:58.000Z</time>
      </trkpt>
      <trkpt lat="43.6676" lon="7.03297">
        <ele>214.60000610352</ele>
        <time>2022-04-12T10:47:06.000Z</time>
      </trkpt>
      <trkpt lat="43.6676" lon="7.03297">
        <ele>214.19999694824</ele>
        <time>2022-04-12T10:47:17.000Z</time>
      </trkpt>
      <trkpt lat="43.66756" lon="7.03298">
        <ele>214</ele>
        <time>2022-04-12T10:47:23.000Z</time>
      </trkpt>
      <trkpt lat="43.66755" lon="7.03298">
        <ele>214.19999694824</ele>
        <time>2022-04-12T10:47:31.000Z</time>
      </trkpt>
      <trkpt lat="43.66757" lon="7.03298">
        <ele>214</ele>
        <time>2022-04-12T10:47:39.000Z</time>
      </trkpt>
      <trkpt lat="43.66756" lon="7.03297">
        <ele>214</ele>
        <time>2022-04-12T10:47:45.000Z</time>
      </trkpt>
      <trkpt lat="43.66757" lon="7.03297">
        <ele>213.80000305176</ele>
        <time>2022-04-12T10:47:51.000Z</time>
      </trkpt>
      <trkpt lat="43.6676" lon="7.03296">
        <ele>214.19999694824</ele>
        <time>2022-04-12T10:47:58.000Z</time>
      </trkpt>
      <trkpt lat="43.66761" lon="7.03297">
        <ele>214.39999389648</ele>
        <time>2022-04-12T10:48:09.000Z</time>
      </trkpt>
      <trkpt lat="43.66761" lon="7.03298">
        <ele>214.19999694824</ele>
        <time>2022-04-12T10:48:19.000Z</time>
      </trkpt>
      <trkpt lat="43.66761" lon="7.03299">
        <ele>214.19999694824</ele>
        <time>2022-04-12T10:48:28.000Z</time>
      </trkpt>
      <trkpt lat="43.66761" lon="7.03298">
        <ele>214.19999694824</ele>
        <time>2022-04-12T10:48:40.000Z</time>
      </trkpt>
      <trkpt lat="43.6676" lon="7.03297">
        <ele>213.60000610352</ele>
        <time>2022-04-12T10:48:48.000Z</time>
      </trkpt>
      <trkpt lat="43.6676" lon="7.03297">
        <ele>215</ele>
        <time>2022-04-12T10:49:01.000Z</time>
      </trkpt>
      <trkpt lat="43.66761" lon="7.03297">
        <ele>215.19999694824</ele>
        <time>2022-04-12T10:49:03.000Z</time>
      </trkpt>
      <trkpt lat="43.6676" lon="7.03297">
        <ele>215.19999694824</ele>
        <time>2022-04-12T10:49:08.000Z</time>
      </trkpt>
      <trkpt lat="43.66761" lon="7.03296">
        <ele>214.19999694824</ele>
        <time>2022-04-12T10:49:18.000Z</time>
      </trkpt>
      <trkpt lat="43.66761" lon="7.03296">
        <ele>214</ele>
        <time>2022-04-12T10:49:20.000Z</time>
      </trkpt>
      <trkpt lat="43.66762" lon="7.03296">
        <ele>214</ele>
        <time>2022-04-12T10:49:30.000Z</time>
      </trkpt>
      <trkpt lat="43.66762" lon="7.03296">
        <ele>214.19999694824</ele>
        <time>2022-04-12T10:49:36.000Z</time>
      </trkpt>
      <trkpt lat="43.66762" lon="7.03295">
        <ele>214.19999694824</ele>
        <time>2022-04-12T10:49:48.000Z</time>
      </trkpt>
      <trkpt lat="43.66763" lon="7.03295">
        <ele>213.80000305176</ele>
        <time>2022-04-12T10:49:58.000Z</time>
      </trkpt>
      <trkpt lat="43.66763" lon="7.03296">
        <ele>214.60000610352</ele>
        <time>2022-04-12T10:50:06.000Z</time>
      </trkpt>
      <trkpt lat="43.66764" lon="7.03296">
        <ele>214.39999389648</ele>
        <time>2022-04-12T10:50:14.000Z</time>
      </trkpt>
      <trkpt lat="43.66763" lon="7.03297">
        <ele>214</ele>
        <time>2022-04-12T10:50:24.000Z</time>
      </trkpt>
      <trkpt lat="43.66761" lon="7.03301">
        <ele>215</ele>
        <time>2022-04-12T10:50:35.000Z</time>
      </trkpt>
      <trkpt lat="43.6676" lon="7.033">
        <ele>214.19999694824</ele>
        <time>2022-04-12T10:50:40.000Z</time>
      </trkpt>
      <trkpt lat="43.66759" lon="7.033">
        <ele>214.60000610352</ele>
        <time>2022-04-12T10:50:47.000Z</time>
      </trkpt>
      <trkpt lat="43.6676" lon="7.033">
        <ele>214</ele>
        <time>2022-04-12T10:50:58.000Z</time>
      </trkpt>
      <trkpt lat="43.6676" lon="7.03299">
        <ele>213.80000305176</ele>
        <time>2022-04-12T10:51:09.000Z</time>
      </trkpt>
      <trkpt lat="43.6676" lon="7.03299">
        <ele>214</ele>
        <time>2022-04-12T10:51:19.000Z</time>
      </trkpt>
      <trkpt lat="43.66762" lon="7.03298">
        <ele>214.39999389648</ele>
        <time>2022-04-12T10:51:27.000Z</time>
      </trkpt>
      <trkpt lat="43.66762" lon="7.03298">
        <ele>214.60000610352</ele>
        <time>2022-04-12T10:51:40.000Z</time>
      </trkpt>
      <trkpt lat="43.66762" lon="7.03299">
        <ele>214.60000610352</ele>
        <time>2022-04-12T10:51:49.000Z</time>
      </trkpt>
      <trkpt lat="43.66761" lon="7.03299">
        <ele>215</ele>
        <time>2022-04-12T10:52:00.000Z</time>
      </trkpt>
      <trkpt lat="43.66761" lon="7.03299">
        <ele>215</ele>
        <time>2022-04-12T10:52:08.000Z</time>
      </trkpt>
      <trkpt lat="43.66761" lon="7.03299">
        <ele>215.19999694824</ele>
        <time>2022-04-12T10:52:10.000Z</time>
      </trkpt>
      <trkpt lat="43.66761" lon="7.03299">
        <ele>215.19999694824</ele>
        <time>2022-04-12T10:52:19.000Z</time>
      </trkpt>
      <trkpt lat="43.66761" lon="7.03298">
        <ele>215</ele>
        <time>2022-04-12T10:52:33.000Z</time>
      </trkpt>
      <trkpt lat="43.66761" lon="7.03299">
        <ele>214.60000610352</ele>
        <time>2022-04-12T10:52:40.000Z</time>
      </trkpt>
      <trkpt lat="43.66762" lon="7.03299">
        <ele>214.39999389648</ele>
        <time>2022-04-12T10:52:50.000Z</time>
      </trkpt>
      <trkpt lat="43.66763" lon="7.03299">
        <ele>214.80000305176</ele>
        <time>2022-04-12T10:52:59.000Z</time>
      </trkpt>
      <trkpt lat="43.66764" lon="7.03299">
        <ele>214</ele>
        <time>2022-04-12T10:53:09.000Z</time>
      </trkpt>
      <trkpt lat="43.66765" lon="7.03299">
        <ele>213.80000305176</ele>
        <time>2022-04-12T10:53:13.000Z</time>
      </trkpt>
      <trkpt lat="43.66766" lon="7.03299">
        <ele>213.80000305176</ele>
        <time>2022-04-12T10:53:29.000Z</time>
      </trkpt>
      <trkpt lat="43.66765" lon="7.03297">
        <ele>214.19999694824</ele>
        <time>2022-04-12T10:53:41.000Z</time>
      </trkpt>
      <trkpt lat="43.66765" lon="7.03296">
        <ele>214.39999389648</ele>
        <time>2022-04-12T10:53:49.000Z</time>
      </trkpt>
      <trkpt lat="43.66765" lon="7.03294">
        <ele>214.39999389648</ele>
        <time>2022-04-12T10:54:03.000Z</time>
      </trkpt>
      <trkpt lat="43.66765" lon="7.03293">
        <ele>214.19999694824</ele>
        <time>2022-04-12T10:54:12.000Z</time>
      </trkpt>
      <trkpt lat="43.66764" lon="7.03292">
        <ele>214</ele>
        <time>2022-04-12T10:54:21.000Z</time>
      </trkpt>
      <trkpt lat="43.66763" lon="7.03291">
        <ele>214.60000610352</ele>
        <time>2022-04-12T10:54:37.000Z</time>
      </trkpt>
      <trkpt lat="43.66762" lon="7.0329">
        <ele>214.39999389648</ele>
        <time>2022-04-12T10:54:53.000Z</time>
      </trkpt>
      <trkpt lat="43.66761" lon="7.03288">
        <ele>214.19999694824</ele>
        <time>2022-04-12T10:55:13.000Z</time>
      </trkpt>
      <trkpt lat="43.66761" lon="7.03287">
        <ele>214.19999694824</ele>
        <time>2022-04-12T10:55:26.000Z</time>
      </trkpt>
      <trkpt lat="43.66762" lon="7.03287">
        <ele>214</ele>
        <time>2022-04-12T10:55:42.000Z</time>
      </trkpt>
      <trkpt lat="43.66761" lon="7.03288">
        <ele>213.80000305176</ele>
        <time>2022-04-12T10:55:56.000Z</time>
      </trkpt>
      <trkpt lat="43.66761" lon="7.03288">
        <ele>214.19999694824</ele>
        <time>2022-04-12T10:56:06.000Z</time>
      </trkpt>
      <trkpt lat="43.66762" lon="7.03287">
        <ele>214</ele>
        <time>2022-04-12T10:56:22.000Z</time>
      </trkpt>
      <trkpt lat="43.6676" lon="7.03286">
        <ele>213.60000610352</ele>
        <time>2022-04-12T10:56:35.000Z</time>
      </trkpt>
      <trkpt lat="43.6676" lon="7.03284">
        <ele>213.60000610352</ele>
        <time>2022-04-12T10:56:43.000Z</time>
      </trkpt>
      <trkpt lat="43.66759" lon="7.03284">
        <ele>214.39999389648</ele>
        <time>2022-04-12T10:56:49.000Z</time>
      </trkpt>
      <trkpt lat="43.6676" lon="7.03285">
        <ele>214.60000610352</ele>
        <time>2022-04-12T10:56:57.000Z</time>
      </trkpt>
      <trkpt lat="43.6676" lon="7.03287">
        <ele>214.60000610352</ele>
        <time>2022-04-12T10:57:03.000Z</time>
      </trkpt>
      <trkpt lat="43.6676" lon="7.03287">
        <ele>215</ele>
        <time>2022-04-12T10:57:11.000Z</time>
      </trkpt>
      <trkpt lat="43.66759" lon="7.03287">
        <ele>214.19999694824</ele>
        <time>2022-04-12T10:57:19.000Z</time>
      </trkpt>
      <trkpt lat="43.6676" lon="7.03288">
        <ele>213.80000305176</ele>
        <time>2022-04-12T10:57:25.000Z</time>
      </trkpt>
      <trkpt lat="43.6676" lon="7.03288">
        <ele>214.80000305176</ele>
        <time>2022-04-12T10:57:33.000Z</time>
      </trkpt>
      <trkpt lat="43.66761" lon="7.0329">
        <ele>214.60000610352</ele>
        <time>2022-04-12T10:57:41.000Z</time>
      </trkpt>
      <trkpt lat="43.6676" lon="7.03291">
        <ele>214.60000610352</ele>
        <time>2022-04-12T10:57:48.000Z</time>
      </trkpt>
      <trkpt lat="43.66761" lon="7.03291">
        <ele>215</ele>
        <time>2022-04-12T10:57:55.000Z</time>
      </trkpt>
      <trkpt lat="43.66761" lon="7.03291">
        <ele>214.39999389648</ele>
        <time>2022-04-12T10:58:02.000Z</time>
      </trkpt>
      <trkpt lat="43.66763" lon="7.03289">
        <ele>214.60000610352</ele>
        <time>2022-04-12T10:58:09.000Z</time>
      </trkpt>
      <trkpt lat="43.66762" lon="7.03289">
        <ele>214.80000305176</ele>
        <time>2022-04-12T10:58:16.000Z</time>
      </trkpt>
      <trkpt lat="43.6676" lon="7.0329">
        <ele>214.60000610352</ele>
        <time>2022-04-12T10:58:21.000Z</time>
      </trkpt>
      <trkpt lat="43.66759" lon="7.0329">
        <ele>214.60000610352</ele>
        <time>2022-04-12T10:58:22.000Z</time>
      </trkpt>
      <trkpt lat="43.66761" lon="7.03284">
        <ele>214.60000610352</ele>
        <time>2022-04-12T10:58:27.000Z</time>
      </trkpt>
      <trkpt lat="43.66767" lon="7.03274">
        <ele>214.60000610352</ele>
        <time>2022-04-12T10:58:33.000Z</time>
      </trkpt>
      <trkpt lat="43.66773" lon="7.03265">
        <ele>214.80000305176</ele>
        <time>2022-04-12T10:58:37.000Z</time>
      </trkpt>
      <trkpt lat="43.66772" lon="7.03262">
        <ele>214.60000610352</ele>
        <time>2022-04-12T10:58:38.000Z</time>
      </trkpt>
      <trkpt lat="43.66773" lon="7.03246">
        <ele>214.39999389648</ele>
        <time>2022-04-12T10:58:43.000Z</time>
      </trkpt>
      <trkpt lat="43.66773" lon="7.03242">
        <ele>214.39999389648</ele>
        <time>2022-04-12T10:58:44.000Z</time>
      </trkpt>
      <trkpt lat="43.66775" lon="7.03213">
        <ele>214.39999389648</ele>
        <time>2022-04-12T10:58:52.000Z</time>
      </trkpt>
      <trkpt lat="43.66782" lon="7.03195">
        <ele>215</ele>
        <time>2022-04-12T10:58:58.000Z</time>
      </trkpt>
      <trkpt lat="43.66784" lon="7.03193">
        <ele>215.19999694824</ele>
        <time>2022-04-12T10:58:59.000Z</time>
      </trkpt>
      <trkpt lat="43.6679" lon="7.03191">
        <ele>216</ele>
        <time>2022-04-12T10:59:02.000Z</time>
      </trkpt>
      <trkpt lat="43.66802" lon="7.03187">
        <ele>215.60000610352</ele>
        <time>2022-04-12T10:59:08.000Z</time>
      </trkpt>
      <trkpt lat="43.66811" lon="7.03182">
        <ele>216.60000610352</ele>
        <time>2022-04-12T10:59:13.000Z</time>
      </trkpt>
      <trkpt lat="43.66815" lon="7.03178">
        <ele>217.19999694824</ele>
        <time>2022-04-12T10:59:15.000Z</time>
      </trkpt>
      <trkpt lat="43.66816" lon="7.03173">
        <ele>217.80000305176</ele>
        <time>2022-04-12T10:59:17.000Z</time>
      </trkpt>
      <trkpt lat="43.66817" lon="7.03164">
        <ele>218.80000305176</ele>
        <time>2022-04-12T10:59:20.000Z</time>
      </trkpt>
      <trkpt lat="43.66817" lon="7.03161">
        <ele>219</ele>
        <time>2022-04-12T10:59:21.000Z</time>
      </trkpt>
      <trkpt lat="43.66821" lon="7.03149">
        <ele>219.19999694824</ele>
        <time>2022-04-12T10:59:25.000Z</time>
      </trkpt>
      <trkpt lat="43.6683" lon="7.03137">
        <ele>219.60000610352</ele>
        <time>2022-04-12T10:59:31.000Z</time>
      </trkpt>
      <trkpt lat="43.66842" lon="7.0312">
        <ele>219.80000305176</ele>
        <time>2022-04-12T10:59:38.000Z</time>
      </trkpt>
      <trkpt lat="43.66846" lon="7.03113">
        <ele>220</ele>
        <time>2022-04-12T10:59:41.000Z</time>
      </trkpt>
      <trkpt lat="43.66847" lon="7.03112">
        <ele>220.60000610352</ele>
        <time>2022-04-12T10:59:44.000Z</time>
      </trkpt>
      <trkpt lat="43.66847" lon="7.03111">
        <ele>220</ele>
        <time>2022-04-12T10:59:58.000Z</time>
      </trkpt>
      <trkpt lat="43.66848" lon="7.03109">
        <ele>220</ele>
        <time>2022-04-12T11:00:01.000Z</time>
      </trkpt>
      <trkpt lat="43.66851" lon="7.03107">
        <ele>220</ele>
        <time>2022-04-12T11:00:03.000Z</time>
      </trkpt>
      <trkpt lat="43.66867" lon="7.03104">
        <ele>220.39999389648</ele>
        <time>2022-04-12T11:00:09.000Z</time>
      </trkpt>
      <trkpt lat="43.66888" lon="7.0311">
        <ele>221.19999694824</ele>
        <time>2022-04-12T11:00:16.000Z</time>
      </trkpt>
      <trkpt lat="43.66898" lon="7.03102">
        <ele>221.39999389648</ele>
        <time>2022-04-12T11:00:20.000Z</time>
      </trkpt>
      <trkpt lat="43.66911" lon="7.03087">
        <ele>222.19999694824</ele>
        <time>2022-04-12T11:00:26.000Z</time>
      </trkpt>
      <trkpt lat="43.66913" lon="7.03084">
        <ele>222.39999389648</ele>
        <time>2022-04-12T11:00:27.000Z</time>
      </trkpt>
      <trkpt lat="43.6692" lon="7.03067">
        <ele>223.60000610352</ele>
        <time>2022-04-12T11:00:32.000Z</time>
      </trkpt>
      <trkpt lat="43.66928" lon="7.03043">
        <ele>224.80000305176</ele>
        <time>2022-04-12T11:00:38.000Z</time>
      </trkpt>
      <trkpt lat="43.66931" lon="7.03035">
        <ele>225</ele>
        <time>2022-04-12T11:00:40.000Z</time>
      </trkpt>
      <trkpt lat="43.66933" lon="7.03019">
        <ele>225.60000610352</ele>
        <time>2022-04-12T11:00:45.000Z</time>
      </trkpt>
      <trkpt lat="43.66932" lon="7.03018">
        <ele>225.80000305176</ele>
        <time>2022-04-12T11:00:48.000Z</time>
      </trkpt>
      <trkpt lat="43.66932" lon="7.03018">
        <ele>226</ele>
        <time>2022-04-12T11:00:50.000Z</time>
      </trkpt>
      <trkpt lat="43.66933" lon="7.03016">
        <ele>225.19999694824</ele>
        <time>2022-04-12T11:01:04.000Z</time>
      </trkpt>
      <trkpt lat="43.66933" lon="7.03016">
        <ele>225.60000610352</ele>
        <time>2022-04-12T11:01:11.000Z</time>
      </trkpt>
      <trkpt lat="43.66934" lon="7.03011">
        <ele>225.60000610352</ele>
        <time>2022-04-12T11:01:23.000Z</time>
      </trkpt>
      <trkpt lat="43.66931" lon="7.02996">
        <ele>226</ele>
        <time>2022-04-12T11:01:28.000Z</time>
      </trkpt>
      <trkpt lat="43.66925" lon="7.02967">
        <ele>227</ele>
        <time>2022-04-12T11:01:36.000Z</time>
      </trkpt>
      <trkpt lat="43.66924" lon="7.02963">
        <ele>227.19999694824</ele>
        <time>2022-04-12T11:01:37.000Z</time>
      </trkpt>
      <trkpt lat="43.6692" lon="7.02947">
        <ele>228</ele>
        <time>2022-04-12T11:01:41.000Z</time>
      </trkpt>
      <trkpt lat="43.66915" lon="7.02929">
        <ele>228.19999694824</ele>
        <time>2022-04-12T11:01:46.000Z</time>
      </trkpt>
      <trkpt lat="43.66912" lon="7.02921">
        <ele>228.19999694824</ele>
        <time>2022-04-12T11:01:51.000Z</time>
      </trkpt>
      <trkpt lat="43.66915" lon="7.02918">
        <ele>228.19999694824</ele>
        <time>2022-04-12T11:02:07.000Z</time>
      </trkpt>
      <trkpt lat="43.66916" lon="7.02916">
        <ele>228</ele>
        <time>2022-04-12T11:02:09.000Z</time>
      </trkpt>
      <trkpt lat="43.66921" lon="7.02914">
        <ele>227.60000610352</ele>
        <time>2022-04-12T11:02:12.000Z</time>
      </trkpt>
      <trkpt lat="43.66925" lon="7.02908">
        <ele>227.60000610352</ele>
        <time>2022-04-12T11:02:14.000Z</time>
      </trkpt>
      <trkpt lat="43.66929" lon="7.02898">
        <ele>227.80000305176</ele>
        <time>2022-04-12T11:02:17.000Z</time>
      </trkpt>
      <trkpt lat="43.66927" lon="7.02874">
        <ele>228.60000610352</ele>
        <time>2022-04-12T11:02:23.000Z</time>
      </trkpt>
      <trkpt lat="43.66922" lon="7.02865">
        <ele>229</ele>
        <time>2022-04-12T11:02:26.000Z</time>
      </trkpt>
      <trkpt lat="43.66916" lon="7.02859">
        <ele>229.39999389648</ele>
        <time>2022-04-12T11:02:29.000Z</time>
      </trkpt>
      <trkpt lat="43.66911" lon="7.02852">
        <ele>230</ele>
        <time>2022-04-12T11:02:32.000Z</time>
      </trkpt>
      <trkpt lat="43.66907" lon="7.0284">
        <ele>230.60000610352</ele>
        <time>2022-04-12T11:02:36.000Z</time>
      </trkpt>
      <trkpt lat="43.669" lon="7.02827">
        <ele>231.19999694824</ele>
        <time>2022-04-12T11:02:41.000Z</time>
      </trkpt>
      <trkpt lat="43.66898" lon="7.02818">
        <ele>231.80000305176</ele>
        <time>2022-04-12T11:02:44.000Z</time>
      </trkpt>
      <trkpt lat="43.66899" lon="7.02816">
        <ele>232</ele>
        <time>2022-04-12T11:02:45.000Z</time>
      </trkpt>
      <trkpt lat="43.669" lon="7.02814">
        <ele>232.39999389648</ele>
        <time>2022-04-12T11:02:46.000Z</time>
      </trkpt>
      <trkpt lat="43.66902" lon="7.02809">
        <ele>233</ele>
        <time>2022-04-12T11:02:48.000Z</time>
      </trkpt>
      <trkpt lat="43.66903" lon="7.02805">
        <ele>233.60000610352</ele>
        <time>2022-04-12T11:02:50.000Z</time>
      </trkpt>
      <trkpt lat="43.66902" lon="7.02797">
        <ele>234.60000610352</ele>
        <time>2022-04-12T11:02:54.000Z</time>
      </trkpt>
      <trkpt lat="43.66902" lon="7.02796">
        <ele>234.80000305176</ele>
        <time>2022-04-12T11:02:55.000Z</time>
      </trkpt>
      <trkpt lat="43.66902" lon="7.02795">
        <ele>235.39999389648</ele>
        <time>2022-04-12T11:03:02.000Z</time>
      </trkpt>
      <trkpt lat="43.66901" lon="7.02793">
        <ele>235.60000610352</ele>
        <time>2022-04-12T11:03:13.000Z</time>
      </trkpt>
      <trkpt lat="43.66901" lon="7.02792">
        <ele>235.80000305176</ele>
        <time>2022-04-12T11:03:18.000Z</time>
      </trkpt>
      <trkpt lat="43.66896" lon="7.02783">
        <ele>235.80000305176</ele>
        <time>2022-04-12T11:03:24.000Z</time>
      </trkpt>
      <trkpt lat="43.66892" lon="7.02778">
        <ele>235.80000305176</ele>
        <time>2022-04-12T11:03:29.000Z</time>
      </trkpt>
      <trkpt lat="43.66892" lon="7.02778">
        <ele>235.80000305176</ele>
        <time>2022-04-12T11:03:31.000Z</time>
      </trkpt>
      <trkpt lat="43.66894" lon="7.0278">
        <ele>235.19999694824</ele>
        <time>2022-04-12T11:03:35.000Z</time>
      </trkpt>
      <trkpt lat="43.66895" lon="7.02781">
        <ele>235.19999694824</ele>
        <time>2022-04-12T11:03:36.000Z</time>
      </trkpt>
      <trkpt lat="43.66898" lon="7.02787">
        <ele>235.60000610352</ele>
        <time>2022-04-12T11:03:39.000Z</time>
      </trkpt>
      <trkpt lat="43.66902" lon="7.02789">
        <ele>235.80000305176</ele>
        <time>2022-04-12T11:03:41.000Z</time>
      </trkpt>
      <trkpt lat="43.66911" lon="7.02785">
        <ele>236.19999694824</ele>
        <time>2022-04-12T11:03:45.000Z</time>
      </trkpt>
      <trkpt lat="43.66916" lon="7.02782">
        <ele>237</ele>
        <time>2022-04-12T11:03:48.000Z</time>
      </trkpt>
      <trkpt lat="43.6692" lon="7.0278">
        <ele>237.39999389648</ele>
        <time>2022-04-12T11:03:50.000Z</time>
      </trkpt>
      <trkpt lat="43.66924" lon="7.02778">
        <ele>237.80000305176</ele>
        <time>2022-04-12T11:03:52.000Z</time>
      </trkpt>
      <trkpt lat="43.66926" lon="7.02777">
        <ele>238</ele>
        <time>2022-04-12T11:03:53.000Z</time>
      </trkpt>
      <trkpt lat="43.6693" lon="7.02775">
        <ele>238.39999389648</ele>
        <time>2022-04-12T11:03:55.000Z</time>
      </trkpt>
      <trkpt lat="43.66936" lon="7.02772">
        <ele>239</ele>
        <time>2022-04-12T11:03:57.000Z</time>
      </trkpt>
      <trkpt lat="43.66944" lon="7.02769">
        <ele>240.19999694824</ele>
        <time>2022-04-12T11:04:01.000Z</time>
      </trkpt>
      <trkpt lat="43.66956" lon="7.02766">
        <ele>241.19999694824</ele>
        <time>2022-04-12T11:04:06.000Z</time>
      </trkpt>
      <trkpt lat="43.6696" lon="7.02764">
        <ele>241.60000610352</ele>
        <time>2022-04-12T11:04:08.000Z</time>
      </trkpt>
      <trkpt lat="43.66969" lon="7.02759">
        <ele>242.39999389648</ele>
        <time>2022-04-12T11:04:12.000Z</time>
      </trkpt>
      <trkpt lat="43.66973" lon="7.02757">
        <ele>243.39999389648</ele>
        <time>2022-04-12T11:04:14.000Z</time>
      </trkpt>
      <trkpt lat="43.66976" lon="7.02755">
        <ele>243.80000305176</ele>
        <time>2022-04-12T11:04:15.000Z</time>
      </trkpt>
      <trkpt lat="43.66981" lon="7.02751">
        <ele>244.80000305176</ele>
        <time>2022-04-12T11:04:18.000Z</time>
      </trkpt>
      <trkpt lat="43.66983" lon="7.02749">
        <ele>245.19999694824</ele>
        <time>2022-04-12T11:04:19.000Z</time>
      </trkpt>
      <trkpt lat="43.66983" lon="7.02746">
        <ele>245.60000610352</ele>
        <time>2022-04-12T11:04:20.000Z</time>
      </trkpt>
      <trkpt lat="43.66982" lon="7.02741">
        <ele>246</ele>
        <time>2022-04-12T11:04:22.000Z</time>
      </trkpt>
      <trkpt lat="43.66982" lon="7.02739">
        <ele>246.19999694824</ele>
        <time>2022-04-12T11:04:23.000Z</time>
      </trkpt>
      <trkpt lat="43.66979" lon="7.02737">
        <ele>246.80000305176</ele>
        <time>2022-04-12T11:04:26.000Z</time>
      </trkpt>
      <trkpt lat="43.66978" lon="7.02736">
        <ele>247</ele>
        <time>2022-04-12T11:04:27.000Z</time>
      </trkpt>
      <trkpt lat="43.66977" lon="7.02735">
        <ele>247.19999694824</ele>
        <time>2022-04-12T11:04:30.000Z</time>
      </trkpt>
      <trkpt lat="43.66976" lon="7.02734">
        <ele>247</ele>
        <time>2022-04-12T11:04:39.000Z</time>
      </trkpt>
      <trkpt lat="43.66977" lon="7.02733">
        <ele>247</ele>
        <time>2022-04-12T11:04:52.000Z</time>
      </trkpt>
      <trkpt lat="43.66976" lon="7.02731">
        <ele>247.19999694824</ele>
        <time>2022-04-12T11:05:05.000Z</time>
      </trkpt>
      <trkpt lat="43.66973" lon="7.0273">
        <ele>247.39999389648</ele>
        <time>2022-04-12T11:05:07.000Z</time>
      </trkpt>
      <trkpt lat="43.66969" lon="7.02728">
        <ele>247.39999389648</ele>
        <time>2022-04-12T11:05:09.000Z</time>
      </trkpt>
      <trkpt lat="43.66962" lon="7.02719">
        <ele>247.19999694824</ele>
        <time>2022-04-12T11:05:13.000Z</time>
      </trkpt>
      <trkpt lat="43.66959" lon="7.02714">
        <ele>247.19999694824</ele>
        <time>2022-04-12T11:05:15.000Z</time>
      </trkpt>
      <trkpt lat="43.66955" lon="7.02709">
        <ele>247.19999694824</ele>
        <time>2022-04-12T11:05:17.000Z</time>
      </trkpt>
      <trkpt lat="43.66953" lon="7.02703">
        <ele>247.19999694824</ele>
        <time>2022-04-12T11:05:19.000Z</time>
      </trkpt>
      <trkpt lat="43.66954" lon="7.02698">
        <ele>247.19999694824</ele>
        <time>2022-04-12T11:05:21.000Z</time>
      </trkpt>
      <trkpt lat="43.6696" lon="7.02692">
        <ele>247.60000610352</ele>
        <time>2022-04-12T11:05:25.000Z</time>
      </trkpt>
      <trkpt lat="43.66962" lon="7.0269">
        <ele>247.80000305176</ele>
        <time>2022-04-12T11:05:26.000Z</time>
      </trkpt>
      <trkpt lat="43.66963" lon="7.02688">
        <ele>248.19999694824</ele>
        <time>2022-04-12T11:05:27.000Z</time>
      </trkpt>
      <trkpt lat="43.66968" lon="7.02682">
        <ele>249.39999389648</ele>
        <time>2022-04-12T11:05:30.000Z</time>
      </trkpt>
      <trkpt lat="43.66973" lon="7.02671">
        <ele>250.60000610352</ele>
        <time>2022-04-12T11:05:33.000Z</time>
      </trkpt>
      <trkpt lat="43.66975" lon="7.02662">
        <ele>251.60000610352</ele>
        <time>2022-04-12T11:05:35.000Z</time>
      </trkpt>
      <trkpt lat="43.66975" lon="7.02658">
        <ele>252</ele>
        <time>2022-04-12T11:05:36.000Z</time>
      </trkpt>
      <trkpt lat="43.66975" lon="7.02646">
        <ele>253.39999389648</ele>
        <time>2022-04-12T11:05:39.000Z</time>
      </trkpt>
      <trkpt lat="43.66975" lon="7.02641">
        <ele>253.80000305176</ele>
        <time>2022-04-12T11:05:40.000Z</time>
      </trkpt>
      <trkpt lat="43.66975" lon="7.02638">
        <ele>254.39999389648</ele>
        <time>2022-04-12T11:05:41.000Z</time>
      </trkpt>
      <trkpt lat="43.66978" lon="7.02627">
        <ele>255.39999389648</ele>
        <time>2022-04-12T11:05:44.000Z</time>
      </trkpt>
      <trkpt lat="43.6698" lon="7.02624">
        <ele>255.80000305176</ele>
        <time>2022-04-12T11:05:45.000Z</time>
      </trkpt>
      <trkpt lat="43.66989" lon="7.02602">
        <ele>256.60000610352</ele>
        <time>2022-04-12T11:05:51.000Z</time>
      </trkpt>
      <trkpt lat="43.66998" lon="7.02584">
        <ele>257.79998779297</ele>
        <time>2022-04-12T11:05:56.000Z</time>
      </trkpt>
      <trkpt lat="43.67" lon="7.02576">
        <ele>258</ele>
        <time>2022-04-12T11:05:58.000Z</time>
      </trkpt>
      <trkpt lat="43.67004" lon="7.0256">
        <ele>258.79998779297</ele>
        <time>2022-04-12T11:06:02.000Z</time>
      </trkpt>
      <trkpt lat="43.67007" lon="7.02551">
        <ele>259.20001220703</ele>
        <time>2022-04-12T11:06:04.000Z</time>
      </trkpt>
      <trkpt lat="43.67014" lon="7.02532">
        <ele>259.79998779297</ele>
        <time>2022-04-12T11:06:08.000Z</time>
      </trkpt>
      <trkpt lat="43.67018" lon="7.02525">
        <ele>260.39999389648</ele>
        <time>2022-04-12T11:06:10.000Z</time>
      </trkpt>
      <trkpt lat="43.6702" lon="7.02523">
        <ele>261</ele>
        <time>2022-04-12T11:06:11.000Z</time>
      </trkpt>
      <trkpt lat="43.67025" lon="7.02517">
        <ele>262</ele>
        <time>2022-04-12T11:06:13.000Z</time>
      </trkpt>
      <trkpt lat="43.6703" lon="7.02511">
        <ele>263.20001220703</ele>
        <time>2022-04-12T11:06:15.000Z</time>
      </trkpt>
      <trkpt lat="43.67035" lon="7.02506">
        <ele>264</ele>
        <time>2022-04-12T11:06:17.000Z</time>
      </trkpt>
      <trkpt lat="43.67037" lon="7.02503">
        <ele>264.39999389648</ele>
        <time>2022-04-12T11:06:18.000Z</time>
      </trkpt>
      <trkpt lat="43.67042" lon="7.02493">
        <ele>265.60000610352</ele>
        <time>2022-04-12T11:06:21.000Z</time>
      </trkpt>
      <trkpt lat="43.67044" lon="7.02488">
        <ele>266.20001220703</ele>
        <time>2022-04-12T11:06:23.000Z</time>
      </trkpt>
      <trkpt lat="43.67056" lon="7.02465">
        <ele>266.39999389648</ele>
        <time>2022-04-12T11:06:29.000Z</time>
      </trkpt>
      <trkpt lat="43.67069" lon="7.02437">
        <ele>265.20001220703</ele>
        <time>2022-04-12T11:06:35.000Z</time>
      </trkpt>
      <trkpt lat="43.67081" lon="7.02413">
        <ele>265.39999389648</ele>
        <time>2022-04-12T11:06:42.000Z</time>
      </trkpt>
      <trkpt lat="43.6709" lon="7.02395">
        <ele>265.60000610352</ele>
        <time>2022-04-12T11:06:49.000Z</time>
      </trkpt>
      <trkpt lat="43.6709" lon="7.02395">
        <ele>265.79998779297</ele>
        <time>2022-04-12T11:06:53.000Z</time>
      </trkpt>
      <trkpt lat="43.67093" lon="7.02392">
        <ele>265.79998779297</ele>
        <time>2022-04-12T11:07:11.000Z</time>
      </trkpt>
      <trkpt lat="43.67092" lon="7.0239">
        <ele>266</ele>
        <time>2022-04-12T11:07:28.000Z</time>
      </trkpt>
      <trkpt lat="43.67092" lon="7.02389">
        <ele>266</ele>
        <time>2022-04-12T11:07:38.000Z</time>
      </trkpt>
      <trkpt lat="43.67092" lon="7.02388">
        <ele>266.39999389648</ele>
        <time>2022-04-12T11:07:44.000Z</time>
      </trkpt>
      <trkpt lat="43.67093" lon="7.02388">
        <ele>265.60000610352</ele>
        <time>2022-04-12T11:07:54.000Z</time>
      </trkpt>
      <trkpt lat="43.67094" lon="7.02386">
        <ele>266.20001220703</ele>
        <time>2022-04-12T11:08:02.000Z</time>
      </trkpt>
      <trkpt lat="43.67096" lon="7.02385">
        <ele>266</ele>
        <time>2022-04-12T11:08:04.000Z</time>
      </trkpt>
      <trkpt lat="43.67097" lon="7.02381">
        <ele>266</ele>
        <time>2022-04-12T11:08:06.000Z</time>
      </trkpt>
      <trkpt lat="43.67104" lon="7.02373">
        <ele>266</ele>
        <time>2022-04-12T11:08:10.000Z</time>
      </trkpt>
      <trkpt lat="43.67117" lon="7.02356">
        <ele>266.39999389648</ele>
        <time>2022-04-12T11:08:16.000Z</time>
      </trkpt>
      <trkpt lat="43.67122" lon="7.0235">
        <ele>267</ele>
        <time>2022-04-12T11:08:18.000Z</time>
      </trkpt>
      <trkpt lat="43.67138" lon="7.02329">
        <ele>267.79998779297</ele>
        <time>2022-04-12T11:08:25.000Z</time>
      </trkpt>
      <trkpt lat="43.67145" lon="7.0232">
        <ele>268</ele>
        <time>2022-04-12T11:08:28.000Z</time>
      </trkpt>
      <trkpt lat="43.67156" lon="7.02306">
        <ele>268.60000610352</ele>
        <time>2022-04-12T11:08:32.000Z</time>
      </trkpt>
      <trkpt lat="43.6716" lon="7.02302">
        <ele>268.60000610352</ele>
        <time>2022-04-12T11:08:33.000Z</time>
      </trkpt>
      <trkpt lat="43.67177" lon="7.02288">
        <ele>267.60000610352</ele>
        <time>2022-04-12T11:08:37.000Z</time>
      </trkpt>
      <trkpt lat="43.67185" lon="7.02281">
        <ele>266.79998779297</ele>
        <time>2022-04-12T11:08:39.000Z</time>
      </trkpt>
      <trkpt lat="43.67204" lon="7.02261">
        <ele>266.39999389648</ele>
        <time>2022-04-12T11:08:44.000Z</time>
      </trkpt>
      <trkpt lat="43.67224" lon="7.0224">
        <ele>265.79998779297</ele>
        <time>2022-04-12T11:08:48.000Z</time>
      </trkpt>
      <trkpt lat="43.67229" lon="7.02234">
        <ele>265.39999389648</ele>
        <time>2022-04-12T11:08:49.000Z</time>
      </trkpt>
      <trkpt lat="43.67234" lon="7.02229">
        <ele>264.79998779297</ele>
        <time>2022-04-12T11:08:50.000Z</time>
      </trkpt>
      <trkpt lat="43.67242" lon="7.02221">
        <ele>263.79998779297</ele>
        <time>2022-04-12T11:08:52.000Z</time>
      </trkpt>
      <trkpt lat="43.67246" lon="7.02218">
        <ele>263.39999389648</ele>
        <time>2022-04-12T11:08:53.000Z</time>
      </trkpt>
      <trkpt lat="43.67258" lon="7.02203">
        <ele>265</ele>
        <time>2022-04-12T11:08:57.000Z</time>
      </trkpt>
      <trkpt lat="43.67277" lon="7.02186">
        <ele>266.20001220703</ele>
        <time>2022-04-12T11:09:02.000Z</time>
      </trkpt>
      <trkpt lat="43.67289" lon="7.02176">
        <ele>267.20001220703</ele>
        <time>2022-04-12T11:09:05.000Z</time>
      </trkpt>
      <trkpt lat="43.67297" lon="7.0217">
        <ele>268</ele>
        <time>2022-04-12T11:09:07.000Z</time>
      </trkpt>
      <trkpt lat="43.67301" lon="7.02167">
        <ele>268.60000610352</ele>
        <time>2022-04-12T11:09:08.000Z</time>
      </trkpt>
      <trkpt lat="43.67309" lon="7.02161">
        <ele>270</ele>
        <time>2022-04-12T11:09:10.000Z</time>
      </trkpt>
      <trkpt lat="43.67316" lon="7.02156">
        <ele>271.60000610352</ele>
        <time>2022-04-12T11:09:12.000Z</time>
      </trkpt>
      <trkpt lat="43.67328" lon="7.02148">
        <ele>273</ele>
        <time>2022-04-12T11:09:15.000Z</time>
      </trkpt>
      <trkpt lat="43.67336" lon="7.02144">
        <ele>274.20001220703</ele>
        <time>2022-04-12T11:09:17.000Z</time>
      </trkpt>
      <trkpt lat="43.67344" lon="7.02139">
        <ele>275.39999389648</ele>
        <time>2022-04-12T11:09:19.000Z</time>
      </trkpt>
      <trkpt lat="43.67347" lon="7.02138">
        <ele>275.79998779297</ele>
        <time>2022-04-12T11:09:20.000Z</time>
      </trkpt>
      <trkpt lat="43.67351" lon="7.02134">
        <ele>276.79998779297</ele>
        <time>2022-04-12T11:09:22.000Z</time>
      </trkpt>
      <trkpt lat="43.67354" lon="7.02133">
        <ele>277.39999389648</ele>
        <time>2022-04-12T11:09:24.000Z</time>
      </trkpt>
      <trkpt lat="43.67358" lon="7.0213">
        <ele>277.79998779297</ele>
        <time>2022-04-12T11:09:26.000Z</time>
      </trkpt>
      <trkpt lat="43.67365" lon="7.02127">
        <ele>278.39999389648</ele>
        <time>2022-04-12T11:09:29.000Z</time>
      </trkpt>
      <trkpt lat="43.67379" lon="7.02116">
        <ele>279</ele>
        <time>2022-04-12T11:09:34.000Z</time>
      </trkpt>
      <trkpt lat="43.67382" lon="7.02113">
        <ele>279</ele>
        <time>2022-04-12T11:09:35.000Z</time>
      </trkpt>
      <trkpt lat="43.67403" lon="7.02088">
        <ele>278.20001220703</ele>
        <time>2022-04-12T11:09:41.000Z</time>
      </trkpt>
      <trkpt lat="43.67413" lon="7.02076">
        <ele>277.39999389648</ele>
        <time>2022-04-12T11:09:43.000Z</time>
      </trkpt>
      <trkpt lat="43.67426" lon="7.02062">
        <ele>276</ele>
        <time>2022-04-12T11:09:45.000Z</time>
      </trkpt>
      <trkpt lat="43.67432" lon="7.02054">
        <ele>275</ele>
        <time>2022-04-12T11:09:46.000Z</time>
      </trkpt>
      <trkpt lat="43.6744" lon="7.02044">
        <ele>273.79998779297</ele>
        <time>2022-04-12T11:09:47.000Z</time>
      </trkpt>
      <trkpt lat="43.67448" lon="7.02035">
        <ele>272.39999389648</ele>
        <time>2022-04-12T11:09:48.000Z</time>
      </trkpt>
      <trkpt lat="43.67454" lon="7.02025">
        <ele>270.79998779297</ele>
        <time>2022-04-12T11:09:49.000Z</time>
      </trkpt>
      <trkpt lat="43.6746" lon="7.02015">
        <ele>269</ele>
        <time>2022-04-12T11:09:50.000Z</time>
      </trkpt>
      <trkpt lat="43.67466" lon="7.02004">
        <ele>268</ele>
        <time>2022-04-12T11:09:51.000Z</time>
      </trkpt>
      <trkpt lat="43.67472" lon="7.01993">
        <ele>267.20001220703</ele>
        <time>2022-04-12T11:09:52.000Z</time>
      </trkpt>
      <trkpt lat="43.67489" lon="7.01952">
        <ele>266.20001220703</ele>
        <time>2022-04-12T11:09:56.000Z</time>
      </trkpt>
      <trkpt lat="43.67514" lon="7.01901">
        <ele>265.60000610352</ele>
        <time>2022-04-12T11:10:02.000Z</time>
      </trkpt>
      <trkpt lat="43.67536" lon="7.01859">
        <ele>265.39999389648</ele>
        <time>2022-04-12T11:10:08.000Z</time>
      </trkpt>
      <trkpt lat="43.67541" lon="7.01854">
        <ele>265</ele>
        <time>2022-04-12T11:10:09.000Z</time>
      </trkpt>
      <trkpt lat="43.67553" lon="7.01853">
        <ele>264.60000610352</ele>
        <time>2022-04-12T11:10:11.000Z</time>
      </trkpt>
      <trkpt lat="43.67564" lon="7.01859">
        <ele>264.39999389648</ele>
        <time>2022-04-12T11:10:13.000Z</time>
      </trkpt>
      <trkpt lat="43.67572" lon="7.01864">
        <ele>265</ele>
        <time>2022-04-12T11:10:15.000Z</time>
      </trkpt>
      <trkpt lat="43.67585" lon="7.01871">
        <ele>266.20001220703</ele>
        <time>2022-04-12T11:10:18.000Z</time>
      </trkpt>
      <trkpt lat="43.67596" lon="7.01878">
        <ele>267.39999389648</ele>
        <time>2022-04-12T11:10:21.000Z</time>
      </trkpt>
      <trkpt lat="43.67602" lon="7.01884">
        <ele>269</ele>
        <time>2022-04-12T11:10:23.000Z</time>
      </trkpt>
      <trkpt lat="43.67605" lon="7.01889">
        <ele>271</ele>
        <time>2022-04-12T11:10:25.000Z</time>
      </trkpt>
      <trkpt lat="43.67606" lon="7.01889">
        <ele>272.20001220703</ele>
        <time>2022-04-12T11:10:26.000Z</time>
      </trkpt>
      <trkpt lat="43.67608" lon="7.01889">
        <ele>272.79998779297</ele>
        <time>2022-04-12T11:10:27.000Z</time>
      </trkpt>
      <trkpt lat="43.6761" lon="7.01887">
        <ele>273.20001220703</ele>
        <time>2022-04-12T11:10:29.000Z</time>
      </trkpt>
      <trkpt lat="43.67614" lon="7.01881">
        <ele>272.79998779297</ele>
        <time>2022-04-12T11:10:32.000Z</time>
      </trkpt>
      <trkpt lat="43.67613" lon="7.01881">
        <ele>273</ele>
        <time>2022-04-12T11:10:36.000Z</time>
      </trkpt>
      <trkpt lat="43.67618" lon="7.01875">
        <ele>273.60000610352</ele>
        <time>2022-04-12T11:10:40.000Z</time>
      </trkpt>
      <trkpt lat="43.67629" lon="7.0186">
        <ele>274.20001220703</ele>
        <time>2022-04-12T11:10:45.000Z</time>
      </trkpt>
      <trkpt lat="43.67631" lon="7.01858">
        <ele>274.39999389648</ele>
        <time>2022-04-12T11:10:46.000Z</time>
      </trkpt>
      <trkpt lat="43.67647" lon="7.01843">
        <ele>275</ele>
        <time>2022-04-12T11:10:52.000Z</time>
      </trkpt>
      <trkpt lat="43.6766" lon="7.01832">
        <ele>275.39999389648</ele>
        <time>2022-04-12T11:10:56.000Z</time>
      </trkpt>
      <trkpt lat="43.67667" lon="7.01826">
        <ele>275.60000610352</ele>
        <time>2022-04-12T11:10:58.000Z</time>
      </trkpt>
      <trkpt lat="43.67689" lon="7.01799">
        <ele>276</ele>
        <time>2022-04-12T11:11:05.000Z</time>
      </trkpt>
      <trkpt lat="43.67691" lon="7.01793">
        <ele>276.20001220703</ele>
        <time>2022-04-12T11:11:06.000Z</time>
      </trkpt>
      <trkpt lat="43.67701" lon="7.01771">
        <ele>276.20001220703</ele>
        <time>2022-04-12T11:11:10.000Z</time>
      </trkpt>
      <trkpt lat="43.67703" lon="7.01766">
        <ele>276.39999389648</ele>
        <time>2022-04-12T11:11:11.000Z</time>
      </trkpt>
      <trkpt lat="43.67705" lon="7.0176">
        <ele>276.39999389648</ele>
        <time>2022-04-12T11:11:12.000Z</time>
      </trkpt>
      <trkpt lat="43.67712" lon="7.01726">
        <ele>277</ele>
        <time>2022-04-12T11:11:18.000Z</time>
      </trkpt>
      <trkpt lat="43.67711" lon="7.01703">
        <ele>277</ele>
        <time>2022-04-12T11:11:23.000Z</time>
      </trkpt>
      <trkpt lat="43.67711" lon="7.01696">
        <ele>277</ele>
        <time>2022-04-12T11:11:24.000Z</time>
      </trkpt>
      <trkpt lat="43.6771" lon="7.01677">
        <ele>277.39999389648</ele>
        <time>2022-04-12T11:11:27.000Z</time>
      </trkpt>
      <trkpt lat="43.67709" lon="7.01671">
        <ele>277.60000610352</ele>
        <time>2022-04-12T11:11:28.000Z</time>
      </trkpt>
      <trkpt lat="43.67705" lon="7.01653">
        <ele>278</ele>
        <time>2022-04-12T11:11:31.000Z</time>
      </trkpt>
      <trkpt lat="43.67701" lon="7.01641">
        <ele>278.20001220703</ele>
        <time>2022-04-12T11:11:33.000Z</time>
      </trkpt>
      <trkpt lat="43.67699" lon="7.01635">
        <ele>278.39999389648</ele>
        <time>2022-04-12T11:11:34.000Z</time>
      </trkpt>
      <trkpt lat="43.67696" lon="7.0163">
        <ele>278.60000610352</ele>
        <time>2022-04-12T11:11:35.000Z</time>
      </trkpt>
      <trkpt lat="43.67676" lon="7.01594">
        <ele>279.60000610352</ele>
        <time>2022-04-12T11:11:42.000Z</time>
      </trkpt>
      <trkpt lat="43.67667" lon="7.01579">
        <ele>280.20001220703</ele>
        <time>2022-04-12T11:11:45.000Z</time>
      </trkpt>
      <trkpt lat="43.67664" lon="7.01568">
        <ele>280.60000610352</ele>
        <time>2022-04-12T11:11:47.000Z</time>
      </trkpt>
      <trkpt lat="43.67662" lon="7.01562">
        <ele>281</ele>
        <time>2022-04-12T11:11:48.000Z</time>
      </trkpt>
      <trkpt lat="43.6765" lon="7.0153">
        <ele>281.79998779297</ele>
        <time>2022-04-12T11:11:54.000Z</time>
      </trkpt>
      <trkpt lat="43.67648" lon="7.01524">
        <ele>282</ele>
        <time>2022-04-12T11:11:55.000Z</time>
      </trkpt>
      <trkpt lat="43.67639" lon="7.01482">
        <ele>282.60000610352</ele>
        <time>2022-04-12T11:12:02.000Z</time>
      </trkpt>
      <trkpt lat="43.67639" lon="7.01476">
        <ele>283</ele>
        <time>2022-04-12T11:12:03.000Z</time>
      </trkpt>
      <trkpt lat="43.67639" lon="7.01465">
        <ele>283.39999389648</ele>
        <time>2022-04-12T11:12:05.000Z</time>
      </trkpt>
      <trkpt lat="43.67641" lon="7.01446">
        <ele>284.20001220703</ele>
        <time>2022-04-12T11:12:08.000Z</time>
      </trkpt>
      <trkpt lat="43.67642" lon="7.0144">
        <ele>284.39999389648</ele>
        <time>2022-04-12T11:12:09.000Z</time>
      </trkpt>
      <trkpt lat="43.67655" lon="7.01402">
        <ele>285.20001220703</ele>
        <time>2022-04-12T11:12:16.000Z</time>
      </trkpt>
      <trkpt lat="43.67661" lon="7.01386">
        <ele>285.39999389648</ele>
        <time>2022-04-12T11:12:19.000Z</time>
      </trkpt>
      <trkpt lat="43.67665" lon="7.0137">
        <ele>285.60000610352</ele>
        <time>2022-04-12T11:12:22.000Z</time>
      </trkpt>
      <trkpt lat="43.67668" lon="7.01352">
        <ele>286.20001220703</ele>
        <time>2022-04-12T11:12:25.000Z</time>
      </trkpt>
      <trkpt lat="43.67668" lon="7.0134">
        <ele>286.79998779297</ele>
        <time>2022-04-12T11:12:27.000Z</time>
      </trkpt>
      <trkpt lat="43.67667" lon="7.01334">
        <ele>286.79998779297</ele>
        <time>2022-04-12T11:12:28.000Z</time>
      </trkpt>
      <trkpt lat="43.67662" lon="7.0131">
        <ele>287.20001220703</ele>
        <time>2022-04-12T11:12:32.000Z</time>
      </trkpt>
      <trkpt lat="43.6766" lon="7.01305">
        <ele>287.39999389648</ele>
        <time>2022-04-12T11:12:33.000Z</time>
      </trkpt>
      <trkpt lat="43.67658" lon="7.01299">
        <ele>287.60000610352</ele>
        <time>2022-04-12T11:12:34.000Z</time>
      </trkpt>
      <trkpt lat="43.67637" lon="7.01255">
        <ele>288.39999389648</ele>
        <time>2022-04-12T11:12:42.000Z</time>
      </trkpt>
      <trkpt lat="43.67619" lon="7.01218">
        <ele>289.39999389648</ele>
        <time>2022-04-12T11:12:49.000Z</time>
      </trkpt>
      <trkpt lat="43.67614" lon="7.01207">
        <ele>289.60000610352</ele>
        <time>2022-04-12T11:12:51.000Z</time>
      </trkpt>
      <trkpt lat="43.67593" lon="7.01166">
        <ele>290.60000610352</ele>
        <time>2022-04-12T11:12:59.000Z</time>
      </trkpt>
      <trkpt lat="43.67585" lon="7.01149">
        <ele>291.39999389648</ele>
        <time>2022-04-12T11:13:02.000Z</time>
      </trkpt>
      <trkpt lat="43.67583" lon="7.01144">
        <ele>291.79998779297</ele>
        <time>2022-04-12T11:13:03.000Z</time>
      </trkpt>
      <trkpt lat="43.67565" lon="7.01108">
        <ele>292.79998779297</ele>
        <time>2022-04-12T11:13:10.000Z</time>
      </trkpt>
      <trkpt lat="43.67563" lon="7.01103">
        <ele>292.79998779297</ele>
        <time>2022-04-12T11:13:11.000Z</time>
      </trkpt>
      <trkpt lat="43.67548" lon="7.01079">
        <ele>293.79998779297</ele>
        <time>2022-04-12T11:13:16.000Z</time>
      </trkpt>
      <trkpt lat="43.67537" lon="7.01066">
        <ele>294.60000610352</ele>
        <time>2022-04-12T11:13:19.000Z</time>
      </trkpt>
      <trkpt lat="43.67525" lon="7.01058">
        <ele>295</ele>
        <time>2022-04-12T11:13:22.000Z</time>
      </trkpt>
      <trkpt lat="43.67508" lon="7.01048">
        <ele>295.39999389648</ele>
        <time>2022-04-12T11:13:26.000Z</time>
      </trkpt>
      <trkpt lat="43.675" lon="7.01042">
        <ele>295.20001220703</ele>
        <time>2022-04-12T11:13:28.000Z</time>
      </trkpt>
      <trkpt lat="43.67492" lon="7.01035">
        <ele>295.39999389648</ele>
        <time>2022-04-12T11:13:30.000Z</time>
      </trkpt>
      <trkpt lat="43.67485" lon="7.01025">
        <ele>295.79998779297</ele>
        <time>2022-04-12T11:13:32.000Z</time>
      </trkpt>
      <trkpt lat="43.67483" lon="7.0102">
        <ele>296.20001220703</ele>
        <time>2022-04-12T11:13:33.000Z</time>
      </trkpt>
      <trkpt lat="43.67478" lon="7.01009">
        <ele>297.39999389648</ele>
        <time>2022-04-12T11:13:35.000Z</time>
      </trkpt>
      <trkpt lat="43.67475" lon="7.00997">
        <ele>298.20001220703</ele>
        <time>2022-04-12T11:13:37.000Z</time>
      </trkpt>
      <trkpt lat="43.67473" lon="7.00991">
        <ele>298.20001220703</ele>
        <time>2022-04-12T11:13:38.000Z</time>
      </trkpt>
      <trkpt lat="43.67472" lon="7.00985">
        <ele>298.39999389648</ele>
        <time>2022-04-12T11:13:39.000Z</time>
      </trkpt>
      <trkpt lat="43.67462" lon="7.00937">
        <ele>299.20001220703</ele>
        <time>2022-04-12T11:13:47.000Z</time>
      </trkpt>
      <trkpt lat="43.67458" lon="7.00925">
        <ele>299.39999389648</ele>
        <time>2022-04-12T11:13:49.000Z</time>
      </trkpt>
      <trkpt lat="43.6745" lon="7.00901">
        <ele>300.39999389648</ele>
        <time>2022-04-12T11:13:53.000Z</time>
      </trkpt>
      <trkpt lat="43.67433" lon="7.00858">
        <ele>301.39999389648</ele>
        <time>2022-04-12T11:14:01.000Z</time>
      </trkpt>
      <trkpt lat="43.67431" lon="7.00854">
        <ele>301.60000610352</ele>
        <time>2022-04-12T11:14:02.000Z</time>
      </trkpt>
      <trkpt lat="43.67426" lon="7.00842">
        <ele>301.79998779297</ele>
        <time>2022-04-12T11:14:06.000Z</time>
      </trkpt>
      <trkpt lat="43.67418" lon="7.00833">
        <ele>302.20001220703</ele>
        <time>2022-04-12T11:14:10.000Z</time>
      </trkpt>
      <trkpt lat="43.67417" lon="7.00834">
        <ele>302.39999389648</ele>
        <time>2022-04-12T11:14:11.000Z</time>
      </trkpt>
      <trkpt lat="43.67417" lon="7.00836">
        <ele>302.60000610352</ele>
        <time>2022-04-12T11:14:12.000Z</time>
      </trkpt>
      <trkpt lat="43.67419" lon="7.0084">
        <ele>302.79998779297</ele>
        <time>2022-04-12T11:14:14.000Z</time>
      </trkpt>
      <trkpt lat="43.67422" lon="7.00845">
        <ele>302.79998779297</ele>
        <time>2022-04-12T11:14:17.000Z</time>
      </trkpt>
      <trkpt lat="43.67425" lon="7.00847">
        <ele>302.79998779297</ele>
        <time>2022-04-12T11:14:19.000Z</time>
      </trkpt>
      <trkpt lat="43.67426" lon="7.00845">
        <ele>302.60000610352</ele>
        <time>2022-04-12T11:14:20.000Z</time>
      </trkpt>
      <trkpt lat="43.67423" lon="7.00835">
        <ele>302.60000610352</ele>
        <time>2022-04-12T11:14:23.000Z</time>
      </trkpt>
      <trkpt lat="43.67422" lon="7.0083">
        <ele>302.60000610352</ele>
        <time>2022-04-12T11:14:24.000Z</time>
      </trkpt>
      <trkpt lat="43.67414" lon="7.00797">
        <ele>303</ele>
        <time>2022-04-12T11:14:30.000Z</time>
      </trkpt>
      <trkpt lat="43.6741" lon="7.00768">
        <ele>303.79998779297</ele>
        <time>2022-04-12T11:14:35.000Z</time>
      </trkpt>
      <trkpt lat="43.6741" lon="7.0075">
        <ele>304.39999389648</ele>
        <time>2022-04-12T11:14:38.000Z</time>
      </trkpt>
      <trkpt lat="43.67411" lon="7.00733">
        <ele>305</ele>
        <time>2022-04-12T11:14:41.000Z</time>
      </trkpt>
      <trkpt lat="43.67414" lon="7.00696">
        <ele>306</ele>
        <time>2022-04-12T11:14:47.000Z</time>
      </trkpt>
      <trkpt lat="43.67418" lon="7.00659">
        <ele>307.20001220703</ele>
        <time>2022-04-12T11:14:53.000Z</time>
      </trkpt>
      <trkpt lat="43.6742" lon="7.0063">
        <ele>308</ele>
        <time>2022-04-12T11:14:58.000Z</time>
      </trkpt>
      <trkpt lat="43.67421" lon="7.00624">
        <ele>308.20001220703</ele>
        <time>2022-04-12T11:14:59.000Z</time>
      </trkpt>
      <trkpt lat="43.67423" lon="7.00596">
        <ele>309.39999389648</ele>
        <time>2022-04-12T11:15:04.000Z</time>
      </trkpt>
      <trkpt lat="43.67423" lon="7.00592">
        <ele>309.60000610352</ele>
        <time>2022-04-12T11:15:05.000Z</time>
      </trkpt>
      <trkpt lat="43.67425" lon="7.00582">
        <ele>310.39999389648</ele>
        <time>2022-04-12T11:15:08.000Z</time>
      </trkpt>
      <trkpt lat="43.67427" lon="7.0058">
        <ele>310.60000610352</ele>
        <time>2022-04-12T11:15:09.000Z</time>
      </trkpt>
      <trkpt lat="43.67432" lon="7.00573">
        <ele>311.39999389648</ele>
        <time>2022-04-12T11:15:12.000Z</time>
      </trkpt>
      <trkpt lat="43.67431" lon="7.00566">
        <ele>311.79998779297</ele>
        <time>2022-04-12T11:15:14.000Z</time>
      </trkpt>
      <trkpt lat="43.67429" lon="7.00558">
        <ele>312</ele>
        <time>2022-04-12T11:15:16.000Z</time>
      </trkpt>
      <trkpt lat="43.67426" lon="7.00535">
        <ele>312.60000610352</ele>
        <time>2022-04-12T11:15:21.000Z</time>
      </trkpt>
      <trkpt lat="43.67423" lon="7.00513">
        <ele>313.60000610352</ele>
        <time>2022-04-12T11:15:26.000Z</time>
      </trkpt>
      <trkpt lat="43.67416" lon="7.00496">
        <ele>314.79998779297</ele>
        <time>2022-04-12T11:15:30.000Z</time>
      </trkpt>
      <trkpt lat="43.67409" lon="7.00485">
        <ele>315.39999389648</ele>
        <time>2022-04-12T11:15:33.000Z</time>
      </trkpt>
      <trkpt lat="43.67398" lon="7.00466">
        <ele>316</ele>
        <time>2022-04-12T11:15:38.000Z</time>
      </trkpt>
      <trkpt lat="43.67389" lon="7.00451">
        <ele>317</ele>
        <time>2022-04-12T11:15:42.000Z</time>
      </trkpt>
      <trkpt lat="43.67386" lon="7.00447">
        <ele>317.20001220703</ele>
        <time>2022-04-12T11:15:43.000Z</time>
      </trkpt>
      <trkpt lat="43.67375" lon="7.00426">
        <ele>318.20001220703</ele>
        <time>2022-04-12T11:15:48.000Z</time>
      </trkpt>
      <trkpt lat="43.67367" lon="7.00409">
        <ele>319.20001220703</ele>
        <time>2022-04-12T11:15:52.000Z</time>
      </trkpt>
      <trkpt lat="43.67365" lon="7.00405">
        <ele>319.39999389648</ele>
        <time>2022-04-12T11:15:53.000Z</time>
      </trkpt>
      <trkpt lat="43.67358" lon="7.00388">
        <ele>320.20001220703</ele>
        <time>2022-04-12T11:15:57.000Z</time>
      </trkpt>
      <trkpt lat="43.67352" lon="7.00363">
        <ele>321.20001220703</ele>
        <time>2022-04-12T11:16:02.000Z</time>
      </trkpt>
      <trkpt lat="43.6735" lon="7.00353">
        <ele>321.39999389648</ele>
        <time>2022-04-12T11:16:04.000Z</time>
      </trkpt>
      <trkpt lat="43.67347" lon="7.00331">
        <ele>321.60000610352</ele>
        <time>2022-04-12T11:16:08.000Z</time>
      </trkpt>
      <trkpt lat="43.67347" lon="7.00309">
        <ele>321.79998779297</ele>
        <time>2022-04-12T11:16:12.000Z</time>
      </trkpt>
      <trkpt lat="43.6735" lon="7.00259">
        <ele>322.20001220703</ele>
        <time>2022-04-12T11:16:21.000Z</time>
      </trkpt>
      <trkpt lat="43.67352" lon="7.00248">
        <ele>322.39999389648</ele>
        <time>2022-04-12T11:16:23.000Z</time>
      </trkpt>
      <trkpt lat="43.67357" lon="7.00215">
        <ele>323</ele>
        <time>2022-04-12T11:16:29.000Z</time>
      </trkpt>
      <trkpt lat="43.6736" lon="7.00193">
        <ele>323.60000610352</ele>
        <time>2022-04-12T11:16:33.000Z</time>
      </trkpt>
      <trkpt lat="43.67361" lon="7.00165">
        <ele>324.60000610352</ele>
        <time>2022-04-12T11:16:38.000Z</time>
      </trkpt>
      <trkpt lat="43.67362" lon="7.0016">
        <ele>324.79998779297</ele>
        <time>2022-04-12T11:16:39.000Z</time>
      </trkpt>
      <trkpt lat="43.67362" lon="7.00138">
        <ele>326</ele>
        <time>2022-04-12T11:16:43.000Z</time>
      </trkpt>
      <trkpt lat="43.67362" lon="7.00118">
        <ele>327</ele>
        <time>2022-04-12T11:16:47.000Z</time>
      </trkpt>
      <trkpt lat="43.67361" lon="7.00102">
        <ele>327.60000610352</ele>
        <time>2022-04-12T11:16:50.000Z</time>
      </trkpt>
      <trkpt lat="43.67358" lon="7.00082">
        <ele>328</ele>
        <time>2022-04-12T11:16:54.000Z</time>
      </trkpt>
      <trkpt lat="43.67354" lon="7.00062">
        <ele>329</ele>
        <time>2022-04-12T11:16:58.000Z</time>
      </trkpt>
      <trkpt lat="43.67353" lon="7.00057">
        <ele>329.20001220703</ele>
        <time>2022-04-12T11:16:59.000Z</time>
      </trkpt>
      <trkpt lat="43.67347" lon="7.00027">
        <ele>330.20001220703</ele>
        <time>2022-04-12T11:17:05.000Z</time>
      </trkpt>
      <trkpt lat="43.67345" lon="7.00016">
        <ele>330.60000610352</ele>
        <time>2022-04-12T11:17:07.000Z</time>
      </trkpt>
      <trkpt lat="43.6734" lon="6.99991">
        <ele>331.39999389648</ele>
        <time>2022-04-12T11:17:12.000Z</time>
      </trkpt>
      <trkpt lat="43.67336" lon="6.99971">
        <ele>332.20001220703</ele>
        <time>2022-04-12T11:17:16.000Z</time>
      </trkpt>
      <trkpt lat="43.67335" lon="6.99966">
        <ele>332.60000610352</ele>
        <time>2022-04-12T11:17:17.000Z</time>
      </trkpt>
      <trkpt lat="43.67332" lon="6.99947">
        <ele>333.60000610352</ele>
        <time>2022-04-12T11:17:21.000Z</time>
      </trkpt>
      <trkpt lat="43.67328" lon="6.99927">
        <ele>334.60000610352</ele>
        <time>2022-04-12T11:17:25.000Z</time>
      </trkpt>
      <trkpt lat="43.67326" lon="6.99917">
        <ele>335.20001220703</ele>
        <time>2022-04-12T11:17:27.000Z</time>
      </trkpt>
      <trkpt lat="43.67325" lon="6.99912">
        <ele>335.60000610352</ele>
        <time>2022-04-12T11:17:28.000Z</time>
      </trkpt>
      <trkpt lat="43.67321" lon="6.99887">
        <ele>336.79998779297</ele>
        <time>2022-04-12T11:17:33.000Z</time>
      </trkpt>
      <trkpt lat="43.67319" lon="6.99873">
        <ele>337.60000610352</ele>
        <time>2022-04-12T11:17:36.000Z</time>
      </trkpt>
      <trkpt lat="43.67318" lon="6.99867">
        <ele>337.79998779297</ele>
        <time>2022-04-12T11:17:37.000Z</time>
      </trkpt>
      <trkpt lat="43.67316" lon="6.99843">
        <ele>339</ele>
        <time>2022-04-12T11:17:42.000Z</time>
      </trkpt>
      <trkpt lat="43.67315" lon="6.99828">
        <ele>339.79998779297</ele>
        <time>2022-04-12T11:17:45.000Z</time>
      </trkpt>
      <trkpt lat="43.67315" lon="6.99823">
        <ele>340</ele>
        <time>2022-04-12T11:17:46.000Z</time>
      </trkpt>
      <trkpt lat="43.67314" lon="6.99797">
        <ele>341.20001220703</ele>
        <time>2022-04-12T11:17:51.000Z</time>
      </trkpt>
      <trkpt lat="43.67313" lon="6.99777">
        <ele>342.39999389648</ele>
        <time>2022-04-12T11:17:55.000Z</time>
      </trkpt>
      <trkpt lat="43.67313" lon="6.99773">
        <ele>342.60000610352</ele>
        <time>2022-04-12T11:17:56.000Z</time>
      </trkpt>
      <trkpt lat="43.67314" lon="6.99758">
        <ele>343.60000610352</ele>
        <time>2022-04-12T11:17:59.000Z</time>
      </trkpt>
      <trkpt lat="43.67317" lon="6.99751">
        <ele>343.79998779297</ele>
        <time>2022-04-12T11:18:00.000Z</time>
      </trkpt>
      <trkpt lat="43.67317" lon="6.99746">
        <ele>344</ele>
        <time>2022-04-12T11:18:01.000Z</time>
      </trkpt>
      <trkpt lat="43.67318" lon="6.99732">
        <ele>344.79998779297</ele>
        <time>2022-04-12T11:18:04.000Z</time>
      </trkpt>
      <trkpt lat="43.67318" lon="6.99719">
        <ele>345.60000610352</ele>
        <time>2022-04-12T11:18:07.000Z</time>
      </trkpt>
      <trkpt lat="43.67318" lon="6.99714">
        <ele>345.79998779297</ele>
        <time>2022-04-12T11:18:08.000Z</time>
      </trkpt>
      <trkpt lat="43.6732" lon="6.99698">
        <ele>347</ele>
        <time>2022-04-12T11:18:12.000Z</time>
      </trkpt>
      <trkpt lat="43.6732" lon="6.9969">
        <ele>347.39999389648</ele>
        <time>2022-04-12T11:18:14.000Z</time>
      </trkpt>
      <trkpt lat="43.67321" lon="6.99679">
        <ele>348</ele>
        <time>2022-04-12T11:18:17.000Z</time>
      </trkpt>
      <trkpt lat="43.67322" lon="6.99666">
        <ele>348.60000610352</ele>
        <time>2022-04-12T11:18:20.000Z</time>
      </trkpt>
      <trkpt lat="43.67322" lon="6.99653">
        <ele>349.20001220703</ele>
        <time>2022-04-12T11:18:23.000Z</time>
      </trkpt>
      <trkpt lat="43.6732" lon="6.99636">
        <ele>350.20001220703</ele>
        <time>2022-04-12T11:18:27.000Z</time>
      </trkpt>
      <trkpt lat="43.67322" lon="6.99618">
        <ele>351.20001220703</ele>
        <time>2022-04-12T11:18:31.000Z</time>
      </trkpt>
      <trkpt lat="43.67323" lon="6.99614">
        <ele>351.39999389648</ele>
        <time>2022-04-12T11:18:32.000Z</time>
      </trkpt>
      <trkpt lat="43.67323" lon="6.99597">
        <ele>352.20001220703</ele>
        <time>2022-04-12T11:18:36.000Z</time>
      </trkpt>
      <trkpt lat="43.67323" lon="6.99588">
        <ele>352.60000610352</ele>
        <time>2022-04-12T11:18:38.000Z</time>
      </trkpt>
      <trkpt lat="43.67324" lon="6.99575">
        <ele>353.39999389648</ele>
        <time>2022-04-12T11:18:41.000Z</time>
      </trkpt>
      <trkpt lat="43.67324" lon="6.99552">
        <ele>354.20001220703</ele>
        <time>2022-04-12T11:18:46.000Z</time>
      </trkpt>
      <trkpt lat="43.67325" lon="6.99547">
        <ele>354.39999389648</ele>
        <time>2022-04-12T11:18:47.000Z</time>
      </trkpt>
      <trkpt lat="43.6733" lon="6.9953">
        <ele>355</ele>
        <time>2022-04-12T11:18:51.000Z</time>
      </trkpt>
      <trkpt lat="43.67332" lon="6.99527">
        <ele>355.20001220703</ele>
        <time>2022-04-12T11:18:52.000Z</time>
      </trkpt>
      <trkpt lat="43.67336" lon="6.99521">
        <ele>355.60000610352</ele>
        <time>2022-04-12T11:18:54.000Z</time>
      </trkpt>
      <trkpt lat="43.67346" lon="6.99495">
        <ele>356.79998779297</ele>
        <time>2022-04-12T11:19:01.000Z</time>
      </trkpt>
      <trkpt lat="43.67351" lon="6.99458">
        <ele>357.79998779297</ele>
        <time>2022-04-12T11:19:10.000Z</time>
      </trkpt>
      <trkpt lat="43.67351" lon="6.9943">
        <ele>359</ele>
        <time>2022-04-12T11:19:17.000Z</time>
      </trkpt>
      <trkpt lat="43.67357" lon="6.99429">
        <ele>360.39999389648</ele>
        <time>2022-04-12T11:19:20.000Z</time>
      </trkpt>
      <trkpt lat="43.67359" lon="6.99427">
        <ele>360.79998779297</ele>
        <time>2022-04-12T11:19:22.000Z</time>
      </trkpt>
      <trkpt lat="43.67355" lon="6.99423">
        <ele>361</ele>
        <time>2022-04-12T11:19:25.000Z</time>
      </trkpt>
      <trkpt lat="43.67352" lon="6.99421">
        <ele>361.20001220703</ele>
        <time>2022-04-12T11:19:27.000Z</time>
      </trkpt>
      <trkpt lat="43.6735" lon="6.99421">
        <ele>361.20001220703</ele>
        <time>2022-04-12T11:19:29.000Z</time>
      </trkpt>
      <trkpt lat="43.67349" lon="6.99424">
        <ele>361.20001220703</ele>
        <time>2022-04-12T11:19:31.000Z</time>
      </trkpt>
      <trkpt lat="43.67352" lon="6.9943">
        <ele>360.79998779297</ele>
        <time>2022-04-12T11:19:36.000Z</time>
      </trkpt>
      <trkpt lat="43.67354" lon="6.99433">
        <ele>361</ele>
        <time>2022-04-12T11:19:40.000Z</time>
      </trkpt>
      <trkpt lat="43.67355" lon="6.99436">
        <ele>361</ele>
        <time>2022-04-12T11:19:42.000Z</time>
      </trkpt>
      <trkpt lat="43.67352" lon="6.99442">
        <ele>360</ele>
        <time>2022-04-12T11:19:48.000Z</time>
      </trkpt>
      <trkpt lat="43.67352" lon="6.99443">
        <ele>360</ele>
        <time>2022-04-12T11:19:49.000Z</time>
      </trkpt>
      <trkpt lat="43.67351" lon="6.99447">
        <ele>359.79998779297</ele>
        <time>2022-04-12T11:19:51.000Z</time>
      </trkpt>
      <trkpt lat="43.67349" lon="6.99449">
        <ele>359.60000610352</ele>
        <time>2022-04-12T11:19:53.000Z</time>
      </trkpt>
      <trkpt lat="43.67347" lon="6.99445">
        <ele>359.20001220703</ele>
        <time>2022-04-12T11:19:55.000Z</time>
      </trkpt>
      <trkpt lat="43.67347" lon="6.99442">
        <ele>359.20001220703</ele>
        <time>2022-04-12T11:19:56.000Z</time>
      </trkpt>
      <trkpt lat="43.67355" lon="6.99435">
        <ele>359.79998779297</ele>
        <time>2022-04-12T11:20:00.000Z</time>
      </trkpt>
      <trkpt lat="43.67359" lon="6.9943">
        <ele>360.39999389648</ele>
        <time>2022-04-12T11:20:03.000Z</time>
      </trkpt>
      <trkpt lat="43.67362" lon="6.99427">
        <ele>360.79998779297</ele>
        <time>2022-04-12T11:20:05.000Z</time>
      </trkpt>
      <trkpt lat="43.67368" lon="6.99428">
        <ele>361.39999389648</ele>
        <time>2022-04-12T11:20:08.000Z</time>
      </trkpt>
      <trkpt lat="43.67369" lon="6.99428">
        <ele>361.39999389648</ele>
        <time>2022-04-12T11:20:09.000Z</time>
      </trkpt>
      <trkpt lat="43.67371" lon="6.99429">
        <ele>361.60000610352</ele>
        <time>2022-04-12T11:20:10.000Z</time>
      </trkpt>
      <trkpt lat="43.67381" lon="6.99433">
        <ele>362.79998779297</ele>
        <time>2022-04-12T11:20:16.000Z</time>
      </trkpt>
      <trkpt lat="43.67387" lon="6.99435">
        <ele>363.79998779297</ele>
        <time>2022-04-12T11:20:20.000Z</time>
      </trkpt>
      <trkpt lat="43.67392" lon="6.99436">
        <ele>364.20001220703</ele>
        <time>2022-04-12T11:20:23.000Z</time>
      </trkpt>
      <trkpt lat="43.67398" lon="6.99435">
        <ele>365</ele>
        <time>2022-04-12T11:20:26.000Z</time>
      </trkpt>
      <trkpt lat="43.67402" lon="6.99432">
        <ele>365.39999389648</ele>
        <time>2022-04-12T11:20:28.000Z</time>
      </trkpt>
      <trkpt lat="43.67408" lon="6.99429">
        <ele>366.20001220703</ele>
        <time>2022-04-12T11:20:31.000Z</time>
      </trkpt>
      <trkpt lat="43.67416" lon="6.99424">
        <ele>367.20001220703</ele>
        <time>2022-04-12T11:20:35.000Z</time>
      </trkpt>
      <trkpt lat="43.67424" lon="6.9942">
        <ele>368.39999389648</ele>
        <time>2022-04-12T11:20:39.000Z</time>
      </trkpt>
      <trkpt lat="43.67426" lon="6.99417">
        <ele>368.39999389648</ele>
        <time>2022-04-12T11:20:41.000Z</time>
      </trkpt>
      <trkpt lat="43.67434" lon="6.99401">
        <ele>368.60000610352</ele>
        <time>2022-04-12T11:20:49.000Z</time>
      </trkpt>
      <trkpt lat="43.67436" lon="6.99387">
        <ele>369.39999389648</ele>
        <time>2022-04-12T11:20:55.000Z</time>
      </trkpt>
      <trkpt lat="43.67436" lon="6.99384">
        <ele>369.60000610352</ele>
        <time>2022-04-12T11:20:56.000Z</time>
      </trkpt>
      <trkpt lat="43.67443" lon="6.99371">
        <ele>370</ele>
        <time>2022-04-12T11:21:02.000Z</time>
      </trkpt>
      <trkpt lat="43.67444" lon="6.99369">
        <ele>370.20001220703</ele>
        <time>2022-04-12T11:21:03.000Z</time>
      </trkpt>
      <trkpt lat="43.67446" lon="6.99359">
        <ele>370.20001220703</ele>
        <time>2022-04-12T11:21:07.000Z</time>
      </trkpt>
      <trkpt lat="43.67448" lon="6.99347">
        <ele>370.39999389648</ele>
        <time>2022-04-12T11:21:11.000Z</time>
      </trkpt>
      <trkpt lat="43.6745" lon="6.99338">
        <ele>370.60000610352</ele>
        <time>2022-04-12T11:21:14.000Z</time>
      </trkpt>
      <trkpt lat="43.67457" lon="6.99322">
        <ele>370.79998779297</ele>
        <time>2022-04-12T11:21:20.000Z</time>
      </trkpt>
      <trkpt lat="43.67459" lon="6.99323">
        <ele>370.79998779297</ele>
        <time>2022-04-12T11:21:21.000Z</time>
      </trkpt>
      <trkpt lat="43.67463" lon="6.99324">
        <ele>370.39999389648</ele>
        <time>2022-04-12T11:21:23.000Z</time>
      </trkpt>
      <trkpt lat="43.67474" lon="6.99326">
        <ele>371.39999389648</ele>
        <time>2022-04-12T11:21:28.000Z</time>
      </trkpt>
      <trkpt lat="43.67483" lon="6.99326">
        <ele>371.79998779297</ele>
        <time>2022-04-12T11:21:32.000Z</time>
      </trkpt>
      <trkpt lat="43.67504" lon="6.99327">
        <ele>371.39999389648</ele>
        <time>2022-04-12T11:21:41.000Z</time>
      </trkpt>
      <trkpt lat="43.67528" lon="6.99327">
        <ele>370.79998779297</ele>
        <time>2022-04-12T11:21:48.000Z</time>
      </trkpt>
      <trkpt lat="43.67535" lon="6.99327">
        <ele>370.20001220703</ele>
        <time>2022-04-12T11:21:50.000Z</time>
      </trkpt>
      <trkpt lat="43.67543" lon="6.99326">
        <ele>369.39999389648</ele>
        <time>2022-04-12T11:21:52.000Z</time>
      </trkpt>
      <trkpt lat="43.67548" lon="6.99327">
        <ele>369.20001220703</ele>
        <time>2022-04-12T11:21:53.000Z</time>
      </trkpt>
      <trkpt lat="43.67552" lon="6.99328">
        <ele>368.79998779297</ele>
        <time>2022-04-12T11:21:54.000Z</time>
      </trkpt>
      <trkpt lat="43.67563" lon="6.9933">
        <ele>368.20001220703</ele>
        <time>2022-04-12T11:21:56.000Z</time>
      </trkpt>
      <trkpt lat="43.67576" lon="6.99334">
        <ele>367.79998779297</ele>
        <time>2022-04-12T11:21:58.000Z</time>
      </trkpt>
      <trkpt lat="43.67588" lon="6.99333">
        <ele>366.60000610352</ele>
        <time>2022-04-12T11:22:00.000Z</time>
      </trkpt>
      <trkpt lat="43.67595" lon="6.99333">
        <ele>365.79998779297</ele>
        <time>2022-04-12T11:22:01.000Z</time>
      </trkpt>
      <trkpt lat="43.67604" lon="6.99333">
        <ele>365</ele>
        <time>2022-04-12T11:22:02.000Z</time>
      </trkpt>
      <trkpt lat="43.67612" lon="6.99333">
        <ele>363.60000610352</ele>
        <time>2022-04-12T11:22:03.000Z</time>
      </trkpt>
      <trkpt lat="43.67627" lon="6.99332">
        <ele>362</ele>
        <time>2022-04-12T11:22:05.000Z</time>
      </trkpt>
      <trkpt lat="43.67643" lon="6.99331">
        <ele>360.39999389648</ele>
        <time>2022-04-12T11:22:07.000Z</time>
      </trkpt>
      <trkpt lat="43.6766" lon="6.99333">
        <ele>358.79998779297</ele>
        <time>2022-04-12T11:22:09.000Z</time>
      </trkpt>
      <trkpt lat="43.67668" lon="6.99335">
        <ele>358.39999389648</ele>
        <time>2022-04-12T11:22:10.000Z</time>
      </trkpt>
      <trkpt lat="43.67677" lon="6.99337">
        <ele>357.79998779297</ele>
        <time>2022-04-12T11:22:11.000Z</time>
      </trkpt>
      <trkpt lat="43.67692" lon="6.99339">
        <ele>356.39999389648</ele>
        <time>2022-04-12T11:22:13.000Z</time>
      </trkpt>
      <trkpt lat="43.67707" lon="6.99341">
        <ele>355.20001220703</ele>
        <time>2022-04-12T11:22:15.000Z</time>
      </trkpt>
      <trkpt lat="43.67714" lon="6.9934">
        <ele>354.39999389648</ele>
        <time>2022-04-12T11:22:16.000Z</time>
      </trkpt>
      <trkpt lat="43.67721" lon="6.99338">
        <ele>353.60000610352</ele>
        <time>2022-04-12T11:22:17.000Z</time>
      </trkpt>
      <trkpt lat="43.67733" lon="6.99332">
        <ele>352.60000610352</ele>
        <time>2022-04-12T11:22:19.000Z</time>
      </trkpt>
      <trkpt lat="43.67741" lon="6.99326">
        <ele>351.20001220703</ele>
        <time>2022-04-12T11:22:21.000Z</time>
      </trkpt>
      <trkpt lat="43.67746" lon="6.99322">
        <ele>350.39999389648</ele>
        <time>2022-04-12T11:22:23.000Z</time>
      </trkpt>
      <trkpt lat="43.67749" lon="6.99315">
        <ele>350.20001220703</ele>
        <time>2022-04-12T11:22:26.000Z</time>
      </trkpt>
      <trkpt lat="43.67749" lon="6.99309">
        <ele>350.20001220703</ele>
        <time>2022-04-12T11:22:28.000Z</time>
      </trkpt>
      <trkpt lat="43.67749" lon="6.99291">
        <ele>351.60000610352</ele>
        <time>2022-04-12T11:22:33.000Z</time>
      </trkpt>
      <trkpt lat="43.6775" lon="6.9928">
        <ele>352.39999389648</ele>
        <time>2022-04-12T11:22:36.000Z</time>
      </trkpt>
      <trkpt lat="43.67753" lon="6.99268">
        <ele>353.20001220703</ele>
        <time>2022-04-12T11:22:39.000Z</time>
      </trkpt>
      <trkpt lat="43.67754" lon="6.99261">
        <ele>353.79998779297</ele>
        <time>2022-04-12T11:22:41.000Z</time>
      </trkpt>
      <trkpt lat="43.67757" lon="6.99246">
        <ele>354.79998779297</ele>
        <time>2022-04-12T11:22:45.000Z</time>
      </trkpt>
      <trkpt lat="43.67757" lon="6.99232">
        <ele>355.20001220703</ele>
        <time>2022-04-12T11:22:48.000Z</time>
      </trkpt>
      <trkpt lat="43.67762" lon="6.99216">
        <ele>355.79998779297</ele>
        <time>2022-04-12T11:22:52.000Z</time>
      </trkpt>
      <trkpt lat="43.67764" lon="6.99212">
        <ele>356</ele>
        <time>2022-04-12T11:22:53.000Z</time>
      </trkpt>
      <trkpt lat="43.67768" lon="6.99201">
        <ele>356.79998779297</ele>
        <time>2022-04-12T11:22:56.000Z</time>
      </trkpt>
      <trkpt lat="43.6777" lon="6.99192">
        <ele>357</ele>
        <time>2022-04-12T11:22:58.000Z</time>
      </trkpt>
      <trkpt lat="43.67772" lon="6.99184">
        <ele>357.20001220703</ele>
        <time>2022-04-12T11:23:00.000Z</time>
      </trkpt>
      <trkpt lat="43.67777" lon="6.99177">
        <ele>357.79998779297</ele>
        <time>2022-04-12T11:23:02.000Z</time>
      </trkpt>
      <trkpt lat="43.6778" lon="6.99173">
        <ele>358</ele>
        <time>2022-04-12T11:23:03.000Z</time>
      </trkpt>
      <trkpt lat="43.67785" lon="6.99159">
        <ele>358.20001220703</ele>
        <time>2022-04-12T11:23:07.000Z</time>
      </trkpt>
      <trkpt lat="43.67792" lon="6.99136">
        <ele>359</ele>
        <time>2022-04-12T11:23:13.000Z</time>
      </trkpt>
      <trkpt lat="43.67797" lon="6.99126">
        <ele>359.79998779297</ele>
        <time>2022-04-12T11:23:16.000Z</time>
      </trkpt>
      <trkpt lat="43.67799" lon="6.99124">
        <ele>360.20001220703</ele>
        <time>2022-04-12T11:23:17.000Z</time>
      </trkpt>
      <trkpt lat="43.67801" lon="6.99118">
        <ele>360.60000610352</ele>
        <time>2022-04-12T11:23:19.000Z</time>
      </trkpt>
      <trkpt lat="43.67803" lon="6.9911">
        <ele>361.20001220703</ele>
        <time>2022-04-12T11:23:22.000Z</time>
      </trkpt>
      <trkpt lat="43.67803" lon="6.99107">
        <ele>361.20001220703</ele>
        <time>2022-04-12T11:23:23.000Z</time>
      </trkpt>
      <trkpt lat="43.67806" lon="6.99091">
        <ele>362.20001220703</ele>
        <time>2022-04-12T11:23:28.000Z</time>
      </trkpt>
      <trkpt lat="43.67805" lon="6.99087">
        <ele>362.60000610352</ele>
        <time>2022-04-12T11:23:29.000Z</time>
      </trkpt>
      <trkpt lat="43.67801" lon="6.99078">
        <ele>363.39999389648</ele>
        <time>2022-04-12T11:23:31.000Z</time>
      </trkpt>
      <trkpt lat="43.67797" lon="6.99065">
        <ele>364.60000610352</ele>
        <time>2022-04-12T11:23:34.000Z</time>
      </trkpt>
      <trkpt lat="43.67791" lon="6.99059">
        <ele>365.79998779297</ele>
        <time>2022-04-12T11:23:36.000Z</time>
      </trkpt>
      <trkpt lat="43.67787" lon="6.99052">
        <ele>367.20001220703</ele>
        <time>2022-04-12T11:23:38.000Z</time>
      </trkpt>
      <trkpt lat="43.67786" lon="6.99045">
        <ele>369</ele>
        <time>2022-04-12T11:23:40.000Z</time>
      </trkpt>
      <trkpt lat="43.67788" lon="6.99036">
        <ele>370.20001220703</ele>
        <time>2022-04-12T11:23:42.000Z</time>
      </trkpt>
      <trkpt lat="43.67787" lon="6.99023">
        <ele>371.20001220703</ele>
        <time>2022-04-12T11:23:45.000Z</time>
      </trkpt>
      <trkpt lat="43.67786" lon="6.99014">
        <ele>372.60000610352</ele>
        <time>2022-04-12T11:23:47.000Z</time>
      </trkpt>
      <trkpt lat="43.67785" lon="6.99006">
        <ele>374</ele>
        <time>2022-04-12T11:23:49.000Z</time>
      </trkpt>
      <trkpt lat="43.67785" lon="6.98998">
        <ele>375.60000610352</ele>
        <time>2022-04-12T11:23:51.000Z</time>
      </trkpt>
      <trkpt lat="43.67785" lon="6.98995">
        <ele>376.20001220703</ele>
        <time>2022-04-12T11:23:52.000Z</time>
      </trkpt>
      <trkpt lat="43.67786" lon="6.98992">
        <ele>376.60000610352</ele>
        <time>2022-04-12T11:23:53.000Z</time>
      </trkpt>
      <trkpt lat="43.67783" lon="6.98978">
        <ele>377.60000610352</ele>
        <time>2022-04-12T11:23:57.000Z</time>
      </trkpt>
      <trkpt lat="43.67781" lon="6.98975">
        <ele>377.79998779297</ele>
        <time>2022-04-12T11:23:58.000Z</time>
      </trkpt>
      <trkpt lat="43.67779" lon="6.98964">
        <ele>378.60000610352</ele>
        <time>2022-04-12T11:24:01.000Z</time>
      </trkpt>
      <trkpt lat="43.67778" lon="6.9896">
        <ele>379</ele>
        <time>2022-04-12T11:24:02.000Z</time>
      </trkpt>
      <trkpt lat="43.67778" lon="6.98954">
        <ele>380</ele>
        <time>2022-04-12T11:24:05.000Z</time>
      </trkpt>
      <trkpt lat="43.67777" lon="6.98948">
        <ele>380.39999389648</ele>
        <time>2022-04-12T11:24:07.000Z</time>
      </trkpt>
      <trkpt lat="43.67777" lon="6.98946">
        <ele>380.60000610352</ele>
        <time>2022-04-12T11:24:08.000Z</time>
      </trkpt>
      <trkpt lat="43.6778" lon="6.98945">
        <ele>381</ele>
        <time>2022-04-12T11:24:09.000Z</time>
      </trkpt>
      <trkpt lat="43.67784" lon="6.98945">
        <ele>381.39999389648</ele>
        <time>2022-04-12T11:24:11.000Z</time>
      </trkpt>
      <trkpt lat="43.67792" lon="6.98941">
        <ele>381.79998779297</ele>
        <time>2022-04-12T11:24:16.000Z</time>
      </trkpt>
      <trkpt lat="43.67794" lon="6.98939">
        <ele>382.20001220703</ele>
        <time>2022-04-12T11:24:18.000Z</time>
      </trkpt>
      <trkpt lat="43.67794" lon="6.98939">
        <ele>383.60000610352</ele>
        <time>2022-04-12T11:24:21.000Z</time>
      </trkpt>
      <trkpt lat="43.67794" lon="6.98938">
        <ele>384.60000610352</ele>
        <time>2022-04-12T11:24:23.000Z</time>
      </trkpt>
      <trkpt lat="43.67796" lon="6.98935">
        <ele>385.20001220703</ele>
        <time>2022-04-12T11:24:28.000Z</time>
      </trkpt>
      <trkpt lat="43.67797" lon="6.98933">
        <ele>385.60000610352</ele>
        <time>2022-04-12T11:24:35.000Z</time>
      </trkpt>
      <trkpt lat="43.67797" lon="6.98932">
        <ele>385.60000610352</ele>
        <time>2022-04-12T11:24:46.000Z</time>
      </trkpt>
      <trkpt lat="43.67798" lon="6.98931">
        <ele>385.60000610352</ele>
        <time>2022-04-12T11:25:05.000Z</time>
      </trkpt>
      <trkpt lat="43.67798" lon="6.98931">
        <ele>385.79998779297</ele>
        <time>2022-04-12T11:25:22.000Z</time>
      </trkpt>
      <trkpt lat="43.67798" lon="6.9893">
        <ele>385.39999389648</ele>
        <time>2022-04-12T11:25:43.000Z</time>
      </trkpt>
      <trkpt lat="43.67798" lon="6.9893">
        <ele>385.60000610352</ele>
        <time>2022-04-12T11:25:56.000Z</time>
      </trkpt>
      <trkpt lat="43.678" lon="6.9893">
        <ele>385.60000610352</ele>
        <time>2022-04-12T11:26:13.000Z</time>
      </trkpt>
      <trkpt lat="43.67801" lon="6.98929">
        <ele>385.39999389648</ele>
        <time>2022-04-12T11:26:34.000Z</time>
      </trkpt>
      <trkpt lat="43.67801" lon="6.98929">
        <ele>384.79998779297</ele>
        <time>2022-04-12T11:26:51.000Z</time>
      </trkpt>
      <trkpt lat="43.67803" lon="6.98929">
        <ele>385.20001220703</ele>
        <time>2022-04-12T11:27:06.000Z</time>
      </trkpt>
      <trkpt lat="43.67803" lon="6.98929">
        <ele>384.79998779297</ele>
        <time>2022-04-12T11:27:21.000Z</time>
      </trkpt>
      <trkpt lat="43.67804" lon="6.98929">
        <ele>385.39999389648</ele>
        <time>2022-04-12T11:27:37.000Z</time>
      </trkpt>
      <trkpt lat="43.67804" lon="6.98929">
        <ele>384.60000610352</ele>
        <time>2022-04-12T11:27:50.000Z</time>
      </trkpt>
      <trkpt lat="43.67804" lon="6.98929">
        <ele>384.60000610352</ele>
        <time>2022-04-12T11:27:55.000Z</time>
      </trkpt>
      <trkpt lat="43.67802" lon="6.98929">
        <ele>384.79998779297</ele>
        <time>2022-04-12T11:28:12.000Z</time>
      </trkpt>
      <trkpt lat="43.67802" lon="6.98928">
        <ele>384.39999389648</ele>
        <time>2022-04-12T11:28:29.000Z</time>
      </trkpt>
      <trkpt lat="43.67803" lon="6.98929">
        <ele>384.39999389648</ele>
        <time>2022-04-12T11:28:44.000Z</time>
      </trkpt>
      <trkpt lat="43.67805" lon="6.98929">
        <ele>384.60000610352</ele>
        <time>2022-04-12T11:28:58.000Z</time>
      </trkpt>
      <trkpt lat="43.67808" lon="6.98929">
        <ele>384.60000610352</ele>
        <time>2022-04-12T11:29:00.000Z</time>
      </trkpt>
      <trkpt lat="43.67808" lon="6.98929">
        <ele>384.39999389648</ele>
        <time>2022-04-12T11:29:02.000Z</time>
      </trkpt>
      <trkpt lat="43.67805" lon="6.98932">
        <ele>384.60000610352</ele>
        <time>2022-04-12T11:29:09.000Z</time>
      </trkpt>
      <trkpt lat="43.67804" lon="6.98932">
        <ele>384.79998779297</ele>
        <time>2022-04-12T11:29:15.000Z</time>
      </trkpt>
      <trkpt lat="43.67801" lon="6.98933">
        <ele>384.20001220703</ele>
        <time>2022-04-12T11:29:22.000Z</time>
      </trkpt>
      <trkpt lat="43.67799" lon="6.98934">
        <ele>384.20001220703</ele>
        <time>2022-04-12T11:29:24.000Z</time>
      </trkpt>
      <trkpt lat="43.67798" lon="6.98934">
        <ele>384.20001220703</ele>
        <time>2022-04-12T11:29:26.000Z</time>
      </trkpt>
      <trkpt lat="43.67796" lon="6.98934">
        <ele>383.60000610352</ele>
        <time>2022-04-12T11:29:28.000Z</time>
      </trkpt>
      <trkpt lat="43.67788" lon="6.98936">
        <ele>382.79998779297</ele>
        <time>2022-04-12T11:29:31.000Z</time>
      </trkpt>
      <trkpt lat="43.6778" lon="6.98937">
        <ele>382.39999389648</ele>
        <time>2022-04-12T11:29:33.000Z</time>
      </trkpt>
      <trkpt lat="43.67778" lon="6.98942">
        <ele>381.79998779297</ele>
        <time>2022-04-12T11:29:35.000Z</time>
      </trkpt>
      <trkpt lat="43.67777" lon="6.98946">
        <ele>381.39999389648</ele>
        <time>2022-04-12T11:29:36.000Z</time>
      </trkpt>
      <trkpt lat="43.67778" lon="6.98956">
        <ele>380</ele>
        <time>2022-04-12T11:29:38.000Z</time>
      </trkpt>
      <trkpt lat="43.67779" lon="6.98961">
        <ele>379.39999389648</ele>
        <time>2022-04-12T11:29:39.000Z</time>
      </trkpt>
      <trkpt lat="43.6778" lon="6.98964">
        <ele>379</ele>
        <time>2022-04-12T11:29:40.000Z</time>
      </trkpt>
      <trkpt lat="43.6778" lon="6.98974">
        <ele>378.39999389648</ele>
        <time>2022-04-12T11:29:42.000Z</time>
      </trkpt>
      <trkpt lat="43.6778" lon="6.9898">
        <ele>378.20001220703</ele>
        <time>2022-04-12T11:29:43.000Z</time>
      </trkpt>
      <trkpt lat="43.6778" lon="6.98986">
        <ele>378</ele>
        <time>2022-04-12T11:29:44.000Z</time>
      </trkpt>
      <trkpt lat="43.67781" lon="6.98996">
        <ele>377.20001220703</ele>
        <time>2022-04-12T11:29:46.000Z</time>
      </trkpt>
      <trkpt lat="43.67782" lon="6.9901">
        <ele>376.60000610352</ele>
        <time>2022-04-12T11:29:48.000Z</time>
      </trkpt>
      <trkpt lat="43.67783" lon="6.99026">
        <ele>375.60000610352</ele>
        <time>2022-04-12T11:29:50.000Z</time>
      </trkpt>
      <trkpt lat="43.67782" lon="6.99031">
        <ele>375</ele>
        <time>2022-04-12T11:29:51.000Z</time>
      </trkpt>
      <trkpt lat="43.67784" lon="6.99037">
        <ele>373.20001220703</ele>
        <time>2022-04-12T11:29:53.000Z</time>
      </trkpt>
      <trkpt lat="43.67786" lon="6.99042">
        <ele>372.20001220703</ele>
        <time>2022-04-12T11:29:54.000Z</time>
      </trkpt>
      <trkpt lat="43.67791" lon="6.9905">
        <ele>370.39999389648</ele>
        <time>2022-04-12T11:29:56.000Z</time>
      </trkpt>
      <trkpt lat="43.67794" lon="6.99055">
        <ele>369.79998779297</ele>
        <time>2022-04-12T11:29:57.000Z</time>
      </trkpt>
      <trkpt lat="43.67794" lon="6.99058">
        <ele>369</ele>
        <time>2022-04-12T11:29:58.000Z</time>
      </trkpt>
      <trkpt lat="43.67796" lon="6.99063">
        <ele>367.20001220703</ele>
        <time>2022-04-12T11:30:00.000Z</time>
      </trkpt>
      <trkpt lat="43.67797" lon="6.99066">
        <ele>365.79998779297</ele>
        <time>2022-04-12T11:30:02.000Z</time>
      </trkpt>
      <trkpt lat="43.67797" lon="6.99066">
        <ele>365</ele>
        <time>2022-04-12T11:30:04.000Z</time>
      </trkpt>
      <trkpt lat="43.67797" lon="6.99067">
        <ele>364.60000610352</ele>
        <time>2022-04-12T11:30:05.000Z</time>
      </trkpt>
      <trkpt lat="43.67797" lon="6.99068">
        <ele>363.79998779297</ele>
        <time>2022-04-12T11:30:11.000Z</time>
      </trkpt>
      <trkpt lat="43.67798" lon="6.99071">
        <ele>363.79998779297</ele>
        <time>2022-04-12T11:30:18.000Z</time>
      </trkpt>
      <trkpt lat="43.67798" lon="6.99071">
        <ele>363.60000610352</ele>
        <time>2022-04-12T11:30:20.000Z</time>
      </trkpt>
      <trkpt lat="43.67797" lon="6.99071">
        <ele>363.79998779297</ele>
        <time>2022-04-12T11:30:25.000Z</time>
      </trkpt>
      <trkpt lat="43.67796" lon="6.9907">
        <ele>363</ele>
        <time>2022-04-12T11:30:33.000Z</time>
      </trkpt>
      <trkpt lat="43.67796" lon="6.99069">
        <ele>363.60000610352</ele>
        <time>2022-04-12T11:30:43.000Z</time>
      </trkpt>
      <trkpt lat="43.67798" lon="6.99068">
        <ele>363.79998779297</ele>
        <time>2022-04-12T11:30:49.000Z</time>
      </trkpt>
      <trkpt lat="43.67798" lon="6.99068">
        <ele>363.79998779297</ele>
        <time>2022-04-12T11:30:51.000Z</time>
      </trkpt>
      <trkpt lat="43.67797" lon="6.99068">
        <ele>363.60000610352</ele>
        <time>2022-04-12T11:31:00.000Z</time>
      </trkpt>
      <trkpt lat="43.67795" lon="6.99067">
        <ele>363</ele>
        <time>2022-04-12T11:31:08.000Z</time>
      </trkpt>
      <trkpt lat="43.67797" lon="6.99067">
        <ele>363.20001220703</ele>
        <time>2022-04-12T11:31:17.000Z</time>
      </trkpt>
      <trkpt lat="43.67798" lon="6.99068">
        <ele>362.60000610352</ele>
        <time>2022-04-12T11:31:22.000Z</time>
      </trkpt>
      <trkpt lat="43.678" lon="6.99068">
        <ele>362.60000610352</ele>
        <time>2022-04-12T11:31:28.000Z</time>
      </trkpt>
      <trkpt lat="43.67797" lon="6.99067">
        <ele>363</ele>
        <time>2022-04-12T11:31:36.000Z</time>
      </trkpt>
      <trkpt lat="43.67794" lon="6.99066">
        <ele>363.20001220703</ele>
        <time>2022-04-12T11:31:47.000Z</time>
      </trkpt>
      <trkpt lat="43.67793" lon="6.99066">
        <ele>362.79998779297</ele>
        <time>2022-04-12T11:32:02.000Z</time>
      </trkpt>
      <trkpt lat="43.67794" lon="6.99067">
        <ele>362.60000610352</ele>
        <time>2022-04-12T11:32:09.000Z</time>
      </trkpt>
      <trkpt lat="43.67795" lon="6.99067">
        <ele>363</ele>
        <time>2022-04-12T11:32:20.000Z</time>
      </trkpt>
      <trkpt lat="43.67796" lon="6.99067">
        <ele>363.39999389648</ele>
        <time>2022-04-12T11:32:29.000Z</time>
      </trkpt>
      <trkpt lat="43.67796" lon="6.99067">
        <ele>363.60000610352</ele>
        <time>2022-04-12T11:32:37.000Z</time>
      </trkpt>
      <trkpt lat="43.67796" lon="6.99067">
        <ele>363.60000610352</ele>
        <time>2022-04-12T11:32:38.000Z</time>
      </trkpt>
      <trkpt lat="43.67795" lon="6.99066">
        <ele>363</ele>
        <time>2022-04-12T11:32:48.000Z</time>
      </trkpt>
      <trkpt lat="43.67797" lon="6.99066">
        <ele>363.39999389648</ele>
        <time>2022-04-12T11:32:56.000Z</time>
      </trkpt>
      <trkpt lat="43.67796" lon="6.99065">
        <ele>363.20001220703</ele>
        <time>2022-04-12T11:33:03.000Z</time>
      </trkpt>
      <trkpt lat="43.67798" lon="6.99064">
        <ele>363.20001220703</ele>
        <time>2022-04-12T11:33:10.000Z</time>
      </trkpt>
      <trkpt lat="43.67798" lon="6.99064">
        <ele>362.79998779297</ele>
        <time>2022-04-12T11:33:21.000Z</time>
      </trkpt>
      <trkpt lat="43.67797" lon="6.99064">
        <ele>362.60000610352</ele>
        <time>2022-04-12T11:33:22.000Z</time>
      </trkpt>
      <trkpt lat="43.67796" lon="6.99064">
        <ele>363.20001220703</ele>
        <time>2022-04-12T11:33:34.000Z</time>
      </trkpt>
      <trkpt lat="43.67795" lon="6.99065">
        <ele>362.60000610352</ele>
        <time>2022-04-12T11:33:40.000Z</time>
      </trkpt>
      <trkpt lat="43.67796" lon="6.99063">
        <ele>362.79998779297</ele>
        <time>2022-04-12T11:33:48.000Z</time>
      </trkpt>
      <trkpt lat="43.67795" lon="6.99063">
        <ele>362.79998779297</ele>
        <time>2022-04-12T11:33:56.000Z</time>
      </trkpt>
      <trkpt lat="43.67795" lon="6.99062">
        <ele>362.79998779297</ele>
        <time>2022-04-12T11:34:04.000Z</time>
      </trkpt>
      <trkpt lat="43.67795" lon="6.9906">
        <ele>362.60000610352</ele>
        <time>2022-04-12T11:34:13.000Z</time>
      </trkpt>
      <trkpt lat="43.67796" lon="6.99059">
        <ele>363.39999389648</ele>
        <time>2022-04-12T11:34:25.000Z</time>
      </trkpt>
      <trkpt lat="43.67798" lon="6.99061">
        <ele>363.39999389648</ele>
        <time>2022-04-12T11:34:34.000Z</time>
      </trkpt>
      <trkpt lat="43.67796" lon="6.99063">
        <ele>363</ele>
        <time>2022-04-12T11:34:47.000Z</time>
      </trkpt>
      <trkpt lat="43.67794" lon="6.99063">
        <ele>363</ele>
        <time>2022-04-12T11:34:56.000Z</time>
      </trkpt>
      <trkpt lat="43.67793" lon="6.99063">
        <ele>363</ele>
        <time>2022-04-12T11:35:04.000Z</time>
      </trkpt>
      <trkpt lat="43.67792" lon="6.99064">
        <ele>363.60000610352</ele>
        <time>2022-04-12T11:35:15.000Z</time>
      </trkpt>
      <trkpt lat="43.67792" lon="6.99065">
        <ele>363.20001220703</ele>
        <time>2022-04-12T11:35:21.000Z</time>
      </trkpt>
      <trkpt lat="43.67791" lon="6.99064">
        <ele>363.60000610352</ele>
        <time>2022-04-12T11:35:30.000Z</time>
      </trkpt>
      <trkpt lat="43.67791" lon="6.99064">
        <ele>363.60000610352</ele>
        <time>2022-04-12T11:35:36.000Z</time>
      </trkpt>
      <trkpt lat="43.67792" lon="6.99064">
        <ele>363.20001220703</ele>
        <time>2022-04-12T11:35:43.000Z</time>
      </trkpt>
      <trkpt lat="43.67792" lon="6.99064">
        <ele>363.20001220703</ele>
        <time>2022-04-12T11:35:52.000Z</time>
      </trkpt>
      <trkpt lat="43.67791" lon="6.99064">
        <ele>363.39999389648</ele>
        <time>2022-04-12T11:36:07.000Z</time>
      </trkpt>
      <trkpt lat="43.6779" lon="6.99067">
        <ele>363</ele>
        <time>2022-04-12T11:36:22.000Z</time>
      </trkpt>
      <trkpt lat="43.67792" lon="6.99068">
        <ele>363</ele>
        <time>2022-04-12T11:36:28.000Z</time>
      </trkpt>
      <trkpt lat="43.67791" lon="6.99066">
        <ele>363.39999389648</ele>
        <time>2022-04-12T11:36:44.000Z</time>
      </trkpt>
      <trkpt lat="43.67791" lon="6.99065">
        <ele>363.20001220703</ele>
        <time>2022-04-12T11:36:55.000Z</time>
      </trkpt>
      <trkpt lat="43.67789" lon="6.99061">
        <ele>363.20001220703</ele>
        <time>2022-04-12T11:37:06.000Z</time>
      </trkpt>
      <trkpt lat="43.67786" lon="6.99056">
        <ele>363.20001220703</ele>
        <time>2022-04-12T11:37:22.000Z</time>
      </trkpt>
      <trkpt lat="43.67787" lon="6.99056">
        <ele>363.39999389648</ele>
        <time>2022-04-12T11:37:33.000Z</time>
      </trkpt>
      <trkpt lat="43.67791" lon="6.99059">
        <ele>363.39999389648</ele>
        <time>2022-04-12T11:37:49.000Z</time>
      </trkpt>
      <trkpt lat="43.67793" lon="6.99061">
        <ele>363.60000610352</ele>
        <time>2022-04-12T11:37:57.000Z</time>
      </trkpt>
      <trkpt lat="43.67794" lon="6.99061">
        <ele>363.79998779297</ele>
        <time>2022-04-12T11:37:59.000Z</time>
      </trkpt>
      <trkpt lat="43.67795" lon="6.99063">
        <ele>363.79998779297</ele>
        <time>2022-04-12T11:38:09.000Z</time>
      </trkpt>
      <trkpt lat="43.67795" lon="6.99064">
        <ele>363.39999389648</ele>
        <time>2022-04-12T11:38:15.000Z</time>
      </trkpt>
      <trkpt lat="43.67794" lon="6.99064">
        <ele>362.79998779297</ele>
        <time>2022-04-12T11:38:25.000Z</time>
      </trkpt>
      <trkpt lat="43.67793" lon="6.99065">
        <ele>363</ele>
        <time>2022-04-12T11:38:37.000Z</time>
      </trkpt>
      <trkpt lat="43.67793" lon="6.99065">
        <ele>363</ele>
        <time>2022-04-12T11:38:45.000Z</time>
      </trkpt>
      <trkpt lat="43.67792" lon="6.99066">
        <ele>363</ele>
        <time>2022-04-12T11:38:53.000Z</time>
      </trkpt>
      <trkpt lat="43.67793" lon="6.99067">
        <ele>363.60000610352</ele>
        <time>2022-04-12T11:39:03.000Z</time>
      </trkpt>
      <trkpt lat="43.67791" lon="6.99067">
        <ele>363</ele>
        <time>2022-04-12T11:39:12.000Z</time>
      </trkpt>
      <trkpt lat="43.6779" lon="6.99069">
        <ele>363.20001220703</ele>
        <time>2022-04-12T11:39:19.000Z</time>
      </trkpt>
      <trkpt lat="43.67792" lon="6.99069">
        <ele>363.79998779297</ele>
        <time>2022-04-12T11:39:29.000Z</time>
      </trkpt>
      <trkpt lat="43.67794" lon="6.9907">
        <ele>363.60000610352</ele>
        <time>2022-04-12T11:39:38.000Z</time>
      </trkpt>
      <trkpt lat="43.67795" lon="6.9907">
        <ele>363.39999389648</ele>
        <time>2022-04-12T11:39:45.000Z</time>
      </trkpt>
      <trkpt lat="43.67797" lon="6.9907">
        <ele>363.39999389648</ele>
        <time>2022-04-12T11:39:53.000Z</time>
      </trkpt>
      <trkpt lat="43.67799" lon="6.99072">
        <ele>363.60000610352</ele>
        <time>2022-04-12T11:40:08.000Z</time>
      </trkpt>
      <trkpt lat="43.67797" lon="6.99071">
        <ele>363.60000610352</ele>
        <time>2022-04-12T11:40:14.000Z</time>
      </trkpt>
      <trkpt lat="43.67797" lon="6.99072">
        <ele>363.79998779297</ele>
        <time>2022-04-12T11:40:25.000Z</time>
      </trkpt>
      <trkpt lat="43.67796" lon="6.99072">
        <ele>363.79998779297</ele>
        <time>2022-04-12T11:40:33.000Z</time>
      </trkpt>
      <trkpt lat="43.67796" lon="6.99072">
        <ele>363.20001220703</ele>
        <time>2022-04-12T11:40:42.000Z</time>
      </trkpt>
      <trkpt lat="43.67796" lon="6.99073">
        <ele>363.79998779297</ele>
        <time>2022-04-12T11:40:52.000Z</time>
      </trkpt>
      <trkpt lat="43.67793" lon="6.99073">
        <ele>364</ele>
        <time>2022-04-12T11:41:04.000Z</time>
      </trkpt>
      <trkpt lat="43.67793" lon="6.99074">
        <ele>364.20001220703</ele>
        <time>2022-04-12T11:41:16.000Z</time>
      </trkpt>
      <trkpt lat="43.67793" lon="6.99073">
        <ele>364.39999389648</ele>
        <time>2022-04-12T11:41:25.000Z</time>
      </trkpt>
      <trkpt lat="43.67792" lon="6.99074">
        <ele>364</ele>
        <time>2022-04-12T11:41:42.000Z</time>
      </trkpt>
      <trkpt lat="43.67792" lon="6.99073">
        <ele>363.79998779297</ele>
        <time>2022-04-12T11:41:58.000Z</time>
      </trkpt>
      <trkpt lat="43.67792" lon="6.99072">
        <ele>363.60000610352</ele>
        <time>2022-04-12T11:42:11.000Z</time>
      </trkpt>
      <trkpt lat="43.67793" lon="6.99073">
        <ele>364</ele>
        <time>2022-04-12T11:42:28.000Z</time>
      </trkpt>
      <trkpt lat="43.67793" lon="6.99073">
        <ele>363.79998779297</ele>
        <time>2022-04-12T11:42:37.000Z</time>
      </trkpt>
      <trkpt lat="43.67793" lon="6.99072">
        <ele>363.60000610352</ele>
        <time>2022-04-12T11:42:45.000Z</time>
      </trkpt>
      <trkpt lat="43.67794" lon="6.99074">
        <ele>363.39999389648</ele>
        <time>2022-04-12T11:42:59.000Z</time>
      </trkpt>
      <trkpt lat="43.67796" lon="6.99075">
        <ele>362.79998779297</ele>
        <time>2022-04-12T11:43:07.000Z</time>
      </trkpt>
      <trkpt lat="43.67796" lon="6.99074">
        <ele>363.79998779297</ele>
        <time>2022-04-12T11:43:16.000Z</time>
      </trkpt>
      <trkpt lat="43.67796" lon="6.99074">
        <ele>363.79998779297</ele>
        <time>2022-04-12T11:43:24.000Z</time>
      </trkpt>
      <trkpt lat="43.67793" lon="6.99072">
        <ele>363.60000610352</ele>
        <time>2022-04-12T11:43:39.000Z</time>
      </trkpt>
      <trkpt lat="43.67792" lon="6.99071">
        <ele>363.39999389648</ele>
        <time>2022-04-12T11:43:54.000Z</time>
      </trkpt>
      <trkpt lat="43.67791" lon="6.9907">
        <ele>363.60000610352</ele>
        <time>2022-04-12T11:44:08.000Z</time>
      </trkpt>
      <trkpt lat="43.67791" lon="6.9907">
        <ele>364</ele>
        <time>2022-04-12T11:44:22.000Z</time>
      </trkpt>
      <trkpt lat="43.67791" lon="6.99069">
        <ele>364</ele>
        <time>2022-04-12T11:44:35.000Z</time>
      </trkpt>
      <trkpt lat="43.6779" lon="6.9907">
        <ele>363.39999389648</ele>
        <time>2022-04-12T11:44:52.000Z</time>
      </trkpt>
      <trkpt lat="43.67791" lon="6.9907">
        <ele>363.39999389648</ele>
        <time>2022-04-12T11:44:59.000Z</time>
      </trkpt>
      <trkpt lat="43.67789" lon="6.99071">
        <ele>363.39999389648</ele>
        <time>2022-04-12T11:45:10.000Z</time>
      </trkpt>
      <trkpt lat="43.67789" lon="6.99071">
        <ele>363.60000610352</ele>
        <time>2022-04-12T11:45:16.000Z</time>
      </trkpt>
      <trkpt lat="43.6779" lon="6.99072">
        <ele>363.39999389648</ele>
        <time>2022-04-12T11:45:25.000Z</time>
      </trkpt>
      <trkpt lat="43.6779" lon="6.99071">
        <ele>364</ele>
        <time>2022-04-12T11:45:35.000Z</time>
      </trkpt>
      <trkpt lat="43.67791" lon="6.99071">
        <ele>363.79998779297</ele>
        <time>2022-04-12T11:45:43.000Z</time>
      </trkpt>
      <trkpt lat="43.67791" lon="6.99071">
        <ele>363.39999389648</ele>
        <time>2022-04-12T11:45:52.000Z</time>
      </trkpt>
      <trkpt lat="43.67791" lon="6.99072">
        <ele>363.20001220703</ele>
        <time>2022-04-12T11:46:03.000Z</time>
      </trkpt>
      <trkpt lat="43.67789" lon="6.99072">
        <ele>363.39999389648</ele>
        <time>2022-04-12T11:46:17.000Z</time>
      </trkpt>
      <trkpt lat="43.67791" lon="6.99073">
        <ele>363.39999389648</ele>
        <time>2022-04-12T11:46:35.000Z</time>
      </trkpt>
      <trkpt lat="43.67791" lon="6.99072">
        <ele>363.20001220703</ele>
        <time>2022-04-12T11:46:44.000Z</time>
      </trkpt>
      <trkpt lat="43.6779" lon="6.99071">
        <ele>362.60000610352</ele>
        <time>2022-04-12T11:46:47.000Z</time>
      </trkpt>
      <trkpt lat="43.67792" lon="6.99071">
        <ele>363.20001220703</ele>
        <time>2022-04-12T11:46:52.000Z</time>
      </trkpt>
      <trkpt lat="43.67793" lon="6.99071">
        <ele>363</ele>
        <time>2022-04-12T11:47:03.000Z</time>
      </trkpt>
      <trkpt lat="43.67793" lon="6.99071">
        <ele>363</ele>
        <time>2022-04-12T11:47:13.000Z</time>
      </trkpt>
      <trkpt lat="43.67794" lon="6.99072">
        <ele>363.20001220703</ele>
        <time>2022-04-12T11:47:19.000Z</time>
      </trkpt>
      <trkpt lat="43.67793" lon="6.99073">
        <ele>363.20001220703</ele>
        <time>2022-04-12T11:47:27.000Z</time>
      </trkpt>
      <trkpt lat="43.6779" lon="6.99073">
        <ele>363.20001220703</ele>
        <time>2022-04-12T11:47:35.000Z</time>
      </trkpt>
      <trkpt lat="43.67793" lon="6.99071">
        <ele>363.60000610352</ele>
        <time>2022-04-12T11:47:45.000Z</time>
      </trkpt>
      <trkpt lat="43.67793" lon="6.99071">
        <ele>363.79998779297</ele>
        <time>2022-04-12T11:47:46.000Z</time>
      </trkpt>
      <trkpt lat="43.67795" lon="6.99071">
        <ele>363.79998779297</ele>
        <time>2022-04-12T11:47:55.000Z</time>
      </trkpt>
      <trkpt lat="43.67797" lon="6.99071">
        <ele>364</ele>
        <time>2022-04-12T11:48:04.000Z</time>
      </trkpt>
      <trkpt lat="43.67795" lon="6.9907">
        <ele>363.79998779297</ele>
        <time>2022-04-12T11:48:11.000Z</time>
      </trkpt>
      <trkpt lat="43.67795" lon="6.9907">
        <ele>364</ele>
        <time>2022-04-12T11:48:18.000Z</time>
      </trkpt>
      <trkpt lat="43.67798" lon="6.99071">
        <ele>364.60000610352</ele>
        <time>2022-04-12T11:48:31.000Z</time>
      </trkpt>
      <trkpt lat="43.67797" lon="6.99072">
        <ele>364</ele>
        <time>2022-04-12T11:48:41.000Z</time>
      </trkpt>
      <trkpt lat="43.67798" lon="6.99072">
        <ele>363.79998779297</ele>
        <time>2022-04-12T11:48:48.000Z</time>
      </trkpt>
      <trkpt lat="43.67795" lon="6.99071">
        <ele>363.79998779297</ele>
        <time>2022-04-12T11:48:59.000Z</time>
      </trkpt>
      <trkpt lat="43.67794" lon="6.99072">
        <ele>363.79998779297</ele>
        <time>2022-04-12T11:49:09.000Z</time>
      </trkpt>
      <trkpt lat="43.67794" lon="6.99071">
        <ele>364</ele>
        <time>2022-04-12T11:49:17.000Z</time>
      </trkpt>
      <trkpt lat="43.67795" lon="6.99074">
        <ele>363.79998779297</ele>
        <time>2022-04-12T11:49:24.000Z</time>
      </trkpt>
      <trkpt lat="43.67795" lon="6.99074">
        <ele>363.79998779297</ele>
        <time>2022-04-12T11:49:33.000Z</time>
      </trkpt>
      <trkpt lat="43.67794" lon="6.99076">
        <ele>363.60000610352</ele>
        <time>2022-04-12T11:49:45.000Z</time>
      </trkpt>
      <trkpt lat="43.67796" lon="6.99077">
        <ele>363.20001220703</ele>
        <time>2022-04-12T11:49:52.000Z</time>
      </trkpt>
      <trkpt lat="43.67796" lon="6.99079">
        <ele>363.60000610352</ele>
        <time>2022-04-12T11:49:59.000Z</time>
      </trkpt>
      <trkpt lat="43.67798" lon="6.9908">
        <ele>363.20001220703</ele>
        <time>2022-04-12T11:50:07.000Z</time>
      </trkpt>
      <trkpt lat="43.67802" lon="6.99079">
        <ele>363.79998779297</ele>
        <time>2022-04-12T11:50:18.000Z</time>
      </trkpt>
      <trkpt lat="43.67802" lon="6.99078">
        <ele>363.60000610352</ele>
        <time>2022-04-12T11:50:24.000Z</time>
      </trkpt>
      <trkpt lat="43.67803" lon="6.9908">
        <ele>363.39999389648</ele>
        <time>2022-04-12T11:50:37.000Z</time>
      </trkpt>
      <trkpt lat="43.67802" lon="6.99079">
        <ele>363.39999389648</ele>
        <time>2022-04-12T11:50:44.000Z</time>
      </trkpt>
      <trkpt lat="43.678" lon="6.99079">
        <ele>364</ele>
        <time>2022-04-12T11:50:54.000Z</time>
      </trkpt>
      <trkpt lat="43.67804" lon="6.9908">
        <ele>364</ele>
        <time>2022-04-12T11:51:08.000Z</time>
      </trkpt>
      <trkpt lat="43.67805" lon="6.9908">
        <ele>364.20001220703</ele>
        <time>2022-04-12T11:51:20.000Z</time>
      </trkpt>
      <trkpt lat="43.67804" lon="6.99081">
        <ele>364.60000610352</ele>
        <time>2022-04-12T11:51:34.000Z</time>
      </trkpt>
      <trkpt lat="43.67803" lon="6.99081">
        <ele>364.39999389648</ele>
        <time>2022-04-12T11:51:47.000Z</time>
      </trkpt>
      <trkpt lat="43.67802" lon="6.99081">
        <ele>364.39999389648</ele>
        <time>2022-04-12T11:52:00.000Z</time>
      </trkpt>
      <trkpt lat="43.67801" lon="6.99081">
        <ele>363.79998779297</ele>
        <time>2022-04-12T11:52:08.000Z</time>
      </trkpt>
      <trkpt lat="43.678" lon="6.99081">
        <ele>364.20001220703</ele>
        <time>2022-04-12T11:52:22.000Z</time>
      </trkpt>
      <trkpt lat="43.678" lon="6.99081">
        <ele>364.20001220703</ele>
        <time>2022-04-12T11:52:28.000Z</time>
      </trkpt>
      <trkpt lat="43.67802" lon="6.99082">
        <ele>363.79998779297</ele>
        <time>2022-04-12T11:52:45.000Z</time>
      </trkpt>
      <trkpt lat="43.67802" lon="6.9908">
        <ele>364</ele>
        <time>2022-04-12T11:52:57.000Z</time>
      </trkpt>
      <trkpt lat="43.67803" lon="6.99078">
        <ele>364</ele>
        <time>2022-04-12T11:53:07.000Z</time>
      </trkpt>
      <trkpt lat="43.67802" lon="6.99076">
        <ele>364.20001220703</ele>
        <time>2022-04-12T11:53:14.000Z</time>
      </trkpt>
      <trkpt lat="43.67801" lon="6.99075">
        <ele>363.60000610352</ele>
        <time>2022-04-12T11:53:27.000Z</time>
      </trkpt>
      <trkpt lat="43.67799" lon="6.99074">
        <ele>364</ele>
        <time>2022-04-12T11:53:36.000Z</time>
      </trkpt>
      <trkpt lat="43.67803" lon="6.99074">
        <ele>363.79998779297</ele>
        <time>2022-04-12T11:53:46.000Z</time>
      </trkpt>
      <trkpt lat="43.67805" lon="6.99075">
        <ele>363.60000610352</ele>
        <time>2022-04-12T11:53:55.000Z</time>
      </trkpt>
      <trkpt lat="43.67805" lon="6.99075">
        <ele>363.79998779297</ele>
        <time>2022-04-12T11:54:04.000Z</time>
      </trkpt>
      <trkpt lat="43.67804" lon="6.99075">
        <ele>364</ele>
        <time>2022-04-12T11:54:13.000Z</time>
      </trkpt>
      <trkpt lat="43.67804" lon="6.99075">
        <ele>364.20001220703</ele>
        <time>2022-04-12T11:54:20.000Z</time>
      </trkpt>
      <trkpt lat="43.67801" lon="6.99074">
        <ele>364.20001220703</ele>
        <time>2022-04-12T11:54:33.000Z</time>
      </trkpt>
      <trkpt lat="43.67799" lon="6.99074">
        <ele>363.60000610352</ele>
        <time>2022-04-12T11:54:40.000Z</time>
      </trkpt>
      <trkpt lat="43.67797" lon="6.99072">
        <ele>363.20001220703</ele>
        <time>2022-04-12T11:54:50.000Z</time>
      </trkpt>
      <trkpt lat="43.67795" lon="6.99072">
        <ele>363.20001220703</ele>
        <time>2022-04-12T11:54:58.000Z</time>
      </trkpt>
      <trkpt lat="43.67795" lon="6.99071">
        <ele>363.79998779297</ele>
        <time>2022-04-12T11:55:04.000Z</time>
      </trkpt>
      <trkpt lat="43.67794" lon="6.99069">
        <ele>363.39999389648</ele>
        <time>2022-04-12T11:55:13.000Z</time>
      </trkpt>
      <trkpt lat="43.67795" lon="6.99069">
        <ele>363.79998779297</ele>
        <time>2022-04-12T11:55:19.000Z</time>
      </trkpt>
      <trkpt lat="43.67796" lon="6.99073">
        <ele>363.39999389648</ele>
        <time>2022-04-12T11:55:26.000Z</time>
      </trkpt>
      <trkpt lat="43.67797" lon="6.99074">
        <ele>363.79998779297</ele>
        <time>2022-04-12T11:55:34.000Z</time>
      </trkpt>
      <trkpt lat="43.67799" lon="6.99075">
        <ele>363.39999389648</ele>
        <time>2022-04-12T11:55:49.000Z</time>
      </trkpt>
      <trkpt lat="43.67801" lon="6.99077">
        <ele>363.39999389648</ele>
        <time>2022-04-12T11:56:05.000Z</time>
      </trkpt>
      <trkpt lat="43.67802" lon="6.99078">
        <ele>363.60000610352</ele>
        <time>2022-04-12T11:56:16.000Z</time>
      </trkpt>
      <trkpt lat="43.67802" lon="6.99078">
        <ele>363.79998779297</ele>
        <time>2022-04-12T11:56:25.000Z</time>
      </trkpt>
      <trkpt lat="43.67801" lon="6.99079">
        <ele>363.79998779297</ele>
        <time>2022-04-12T11:56:36.000Z</time>
      </trkpt>
      <trkpt lat="43.67802" lon="6.99085">
        <ele>364</ele>
        <time>2022-04-12T11:56:41.000Z</time>
      </trkpt>
      <trkpt lat="43.67796" lon="6.99101">
        <ele>363.20001220703</ele>
        <time>2022-04-12T11:56:46.000Z</time>
      </trkpt>
      <trkpt lat="43.67796" lon="6.99103">
        <ele>363</ele>
        <time>2022-04-12T11:56:47.000Z</time>
      </trkpt>
      <trkpt lat="43.67795" lon="6.99107">
        <ele>362.60000610352</ele>
        <time>2022-04-12T11:56:48.000Z</time>
      </trkpt>
      <trkpt lat="43.67793" lon="6.99112">
        <ele>362</ele>
        <time>2022-04-12T11:56:50.000Z</time>
      </trkpt>
      <trkpt lat="43.67792" lon="6.99112">
        <ele>361.60000610352</ele>
        <time>2022-04-12T11:56:51.000Z</time>
      </trkpt>
      <trkpt lat="43.67788" lon="6.99117">
        <ele>361</ele>
        <time>2022-04-12T11:56:54.000Z</time>
      </trkpt>
      <trkpt lat="43.67787" lon="6.9912">
        <ele>360.79998779297</ele>
        <time>2022-04-12T11:56:55.000Z</time>
      </trkpt>
      <trkpt lat="43.67784" lon="6.99132">
        <ele>360.39999389648</ele>
        <time>2022-04-12T11:56:58.000Z</time>
      </trkpt>
      <trkpt lat="43.67773" lon="6.99162">
        <ele>359.39999389648</ele>
        <time>2022-04-12T11:57:05.000Z</time>
      </trkpt>
      <trkpt lat="43.67765" lon="6.99186">
        <ele>358.20001220703</ele>
        <time>2022-04-12T11:57:10.000Z</time>
      </trkpt>
      <trkpt lat="43.67756" lon="6.99217">
        <ele>357</ele>
        <time>2022-04-12T11:57:15.000Z</time>
      </trkpt>
      <trkpt lat="43.67753" lon="6.99238">
        <ele>356.39999389648</ele>
        <time>2022-04-12T11:57:18.000Z</time>
      </trkpt>
      <trkpt lat="43.67751" lon="6.99251">
        <ele>356</ele>
        <time>2022-04-12T11:57:20.000Z</time>
      </trkpt>
      <trkpt lat="43.67751" lon="6.99258">
        <ele>355.79998779297</ele>
        <time>2022-04-12T11:57:21.000Z</time>
      </trkpt>
      <trkpt lat="43.67749" lon="6.99267">
        <ele>355.60000610352</ele>
        <time>2022-04-12T11:57:22.000Z</time>
      </trkpt>
      <trkpt lat="43.67749" lon="6.99288">
        <ele>354.60000610352</ele>
        <time>2022-04-12T11:57:25.000Z</time>
      </trkpt>
      <trkpt lat="43.67748" lon="6.993">
        <ele>353.39999389648</ele>
        <time>2022-04-12T11:57:27.000Z</time>
      </trkpt>
      <trkpt lat="43.67743" lon="6.99311">
        <ele>352</ele>
        <time>2022-04-12T11:57:29.000Z</time>
      </trkpt>
      <trkpt lat="43.67736" lon="6.99319">
        <ele>350.79998779297</ele>
        <time>2022-04-12T11:57:31.000Z</time>
      </trkpt>
      <trkpt lat="43.67733" lon="6.99321">
        <ele>350.39999389648</ele>
        <time>2022-04-12T11:57:32.000Z</time>
      </trkpt>
      <trkpt lat="43.67729" lon="6.99322">
        <ele>350.20001220703</ele>
        <time>2022-04-12T11:57:33.000Z</time>
      </trkpt>
      <trkpt lat="43.67719" lon="6.99326">
        <ele>350.20001220703</ele>
        <time>2022-04-12T11:57:37.000Z</time>
      </trkpt>
      <trkpt lat="43.67701" lon="6.99326">
        <ele>351.60000610352</ele>
        <time>2022-04-12T11:57:43.000Z</time>
      </trkpt>
      <trkpt lat="43.67698" lon="6.99326">
        <ele>351.79998779297</ele>
        <time>2022-04-12T11:57:44.000Z</time>
      </trkpt>
      <trkpt lat="43.67688" lon="6.99325">
        <ele>353</ele>
        <time>2022-04-12T11:57:47.000Z</time>
      </trkpt>
      <trkpt lat="43.67677" lon="6.99323">
        <ele>354.20001220703</ele>
        <time>2022-04-12T11:57:50.000Z</time>
      </trkpt>
      <trkpt lat="43.67663" lon="6.99321">
        <ele>355.39999389648</ele>
        <time>2022-04-12T11:57:54.000Z</time>
      </trkpt>
      <trkpt lat="43.67653" lon="6.99321">
        <ele>356.39999389648</ele>
        <time>2022-04-12T11:57:57.000Z</time>
      </trkpt>
      <trkpt lat="43.67649" lon="6.99321">
        <ele>356.60000610352</ele>
        <time>2022-04-12T11:57:58.000Z</time>
      </trkpt>
      <trkpt lat="43.67638" lon="6.99322">
        <ele>357.79998779297</ele>
        <time>2022-04-12T11:58:01.000Z</time>
      </trkpt>
      <trkpt lat="43.67627" lon="6.99324">
        <ele>359.20001220703</ele>
        <time>2022-04-12T11:58:04.000Z</time>
      </trkpt>
      <trkpt lat="43.67624" lon="6.99324">
        <ele>359.60000610352</ele>
        <time>2022-04-12T11:58:05.000Z</time>
      </trkpt>
      <trkpt lat="43.67612" lon="6.99325">
        <ele>360.39999389648</ele>
        <time>2022-04-12T11:58:08.000Z</time>
      </trkpt>
      <trkpt lat="43.676" lon="6.99325">
        <ele>361.20001220703</ele>
        <time>2022-04-12T11:58:11.000Z</time>
      </trkpt>
      <trkpt lat="43.67596" lon="6.99325">
        <ele>361.39999389648</ele>
        <time>2022-04-12T11:58:12.000Z</time>
      </trkpt>
      <trkpt lat="43.67582" lon="6.99325">
        <ele>362.79998779297</ele>
        <time>2022-04-12T11:58:16.000Z</time>
      </trkpt>
      <trkpt lat="43.67575" lon="6.99324">
        <ele>363.60000610352</ele>
        <time>2022-04-12T11:58:18.000Z</time>
      </trkpt>
      <trkpt lat="43.67572" lon="6.99322">
        <ele>364.20001220703</ele>
        <time>2022-04-12T11:58:19.000Z</time>
      </trkpt>
      <trkpt lat="43.67566" lon="6.99321">
        <ele>365.39999389648</ele>
        <time>2022-04-12T11:58:21.000Z</time>
      </trkpt>
      <trkpt lat="43.67562" lon="6.9932">
        <ele>366</ele>
        <time>2022-04-12T11:58:22.000Z</time>
      </trkpt>
      <trkpt lat="43.67559" lon="6.9932">
        <ele>366.60000610352</ele>
        <time>2022-04-12T11:58:23.000Z</time>
      </trkpt>
      <trkpt lat="43.67548" lon="6.9932">
        <ele>367.60000610352</ele>
        <time>2022-04-12T11:58:26.000Z</time>
      </trkpt>
      <trkpt lat="43.67525" lon="6.99322">
        <ele>368.60000610352</ele>
        <time>2022-04-12T11:58:32.000Z</time>
      </trkpt>
      <trkpt lat="43.67521" lon="6.99322">
        <ele>368.79998779297</ele>
        <time>2022-04-12T11:58:33.000Z</time>
      </trkpt>
      <trkpt lat="43.675" lon="6.99322">
        <ele>369.79998779297</ele>
        <time>2022-04-12T11:58:39.000Z</time>
      </trkpt>
      <trkpt lat="43.67489" lon="6.99322">
        <ele>370.60000610352</ele>
        <time>2022-04-12T11:58:42.000Z</time>
      </trkpt>
      <trkpt lat="43.67461" lon="6.99321">
        <ele>370.79998779297</ele>
        <time>2022-04-12T11:58:49.000Z</time>
      </trkpt>
      <trkpt lat="43.67459" lon="6.99324">
        <ele>371</ele>
        <time>2022-04-12T11:58:50.000Z</time>
      </trkpt>
      <trkpt lat="43.67455" lon="6.99333">
        <ele>371</ele>
        <time>2022-04-12T11:58:52.000Z</time>
      </trkpt>
      <trkpt lat="43.67452" lon="6.99356">
        <ele>370.39999389648</ele>
        <time>2022-04-12T11:58:57.000Z</time>
      </trkpt>
      <trkpt lat="43.67448" lon="6.99378">
        <ele>370.39999389648</ele>
        <time>2022-04-12T11:59:02.000Z</time>
      </trkpt>
      <trkpt lat="43.67446" lon="6.99397">
        <ele>370</ele>
        <time>2022-04-12T11:59:06.000Z</time>
      </trkpt>
      <trkpt lat="43.67442" lon="6.99401">
        <ele>369.79998779297</ele>
        <time>2022-04-12T11:59:07.000Z</time>
      </trkpt>
      <trkpt lat="43.67435" lon="6.99409">
        <ele>369.60000610352</ele>
        <time>2022-04-12T11:59:09.000Z</time>
      </trkpt>
      <trkpt lat="43.67426" lon="6.9942">
        <ele>369</ele>
        <time>2022-04-12T11:59:12.000Z</time>
      </trkpt>
      <trkpt lat="43.67422" lon="6.99422">
        <ele>368.79998779297</ele>
        <time>2022-04-12T11:59:13.000Z</time>
      </trkpt>
      <trkpt lat="43.67417" lon="6.99424">
        <ele>368.60000610352</ele>
        <time>2022-04-12T11:59:14.000Z</time>
      </trkpt>
      <trkpt lat="43.67408" lon="6.99428">
        <ele>368</ele>
        <time>2022-04-12T11:59:16.000Z</time>
      </trkpt>
      <trkpt lat="43.67403" lon="6.9943">
        <ele>367.60000610352</ele>
        <time>2022-04-12T11:59:17.000Z</time>
      </trkpt>
      <trkpt lat="43.67398" lon="6.99431">
        <ele>367.20001220703</ele>
        <time>2022-04-12T11:59:18.000Z</time>
      </trkpt>
      <trkpt lat="43.67394" lon="6.99432">
        <ele>366.60000610352</ele>
        <time>2022-04-12T11:59:19.000Z</time>
      </trkpt>
      <trkpt lat="43.67385" lon="6.9943">
        <ele>365.20001220703</ele>
        <time>2022-04-12T11:59:21.000Z</time>
      </trkpt>
      <trkpt lat="43.67374" lon="6.99426">
        <ele>364.20001220703</ele>
        <time>2022-04-12T11:59:23.000Z</time>
      </trkpt>
      <trkpt lat="43.67368" lon="6.99424">
        <ele>363.60000610352</ele>
        <time>2022-04-12T11:59:24.000Z</time>
      </trkpt>
      <trkpt lat="43.67362" lon="6.99425">
        <ele>363</ele>
        <time>2022-04-12T11:59:25.000Z</time>
      </trkpt>
      <trkpt lat="43.67354" lon="6.99435">
        <ele>361.79998779297</ele>
        <time>2022-04-12T11:59:27.000Z</time>
      </trkpt>
      <trkpt lat="43.67351" lon="6.99452">
        <ele>360.20001220703</ele>
        <time>2022-04-12T11:59:29.000Z</time>
      </trkpt>
      <trkpt lat="43.67349" lon="6.99462">
        <ele>359.39999389648</ele>
        <time>2022-04-12T11:59:30.000Z</time>
      </trkpt>
      <trkpt lat="43.67348" lon="6.99471">
        <ele>359</ele>
        <time>2022-04-12T11:59:31.000Z</time>
      </trkpt>
      <trkpt lat="43.6734" lon="6.99484">
        <ele>357.79998779297</ele>
        <time>2022-04-12T11:59:33.000Z</time>
      </trkpt>
      <trkpt lat="43.67328" lon="6.99488">
        <ele>356.79998779297</ele>
        <time>2022-04-12T11:59:35.000Z</time>
      </trkpt>
      <trkpt lat="43.67323" lon="6.99492">
        <ele>356.20001220703</ele>
        <time>2022-04-12T11:59:36.000Z</time>
      </trkpt>
      <trkpt lat="43.67318" lon="6.99497">
        <ele>355.60000610352</ele>
        <time>2022-04-12T11:59:37.000Z</time>
      </trkpt>
      <trkpt lat="43.67305" lon="6.99517">
        <ele>354</ele>
        <time>2022-04-12T11:59:40.000Z</time>
      </trkpt>
      <trkpt lat="43.67296" lon="6.99529">
        <ele>353.60000610352</ele>
        <time>2022-04-12T11:59:42.000Z</time>
      </trkpt>
      <trkpt lat="43.67275" lon="6.99551">
        <ele>353.20001220703</ele>
        <time>2022-04-12T11:59:46.000Z</time>
      </trkpt>
      <trkpt lat="43.6727" lon="6.99556">
        <ele>352.79998779297</ele>
        <time>2022-04-12T11:59:47.000Z</time>
      </trkpt>
      <trkpt lat="43.6723" lon="6.99582">
        <ele>352.20001220703</ele>
        <time>2022-04-12T11:59:54.000Z</time>
      </trkpt>
      <trkpt lat="43.67224" lon="6.99587">
        <ele>351.60000610352</ele>
        <time>2022-04-12T11:59:55.000Z</time>
      </trkpt>
      <trkpt lat="43.6722" lon="6.99591">
        <ele>351.20001220703</ele>
        <time>2022-04-12T11:59:56.000Z</time>
      </trkpt>
      <trkpt lat="43.67206" lon="6.9961">
        <ele>350.60000610352</ele>
        <time>2022-04-12T11:59:59.000Z</time>
      </trkpt>
      <trkpt lat="43.67202" lon="6.99617">
        <ele>350.39999389648</ele>
        <time>2022-04-12T12:00:00.000Z</time>
      </trkpt>
      <trkpt lat="43.67199" lon="6.99624">
        <ele>350.39999389648</ele>
        <time>2022-04-12T12:00:01.000Z</time>
      </trkpt>
      <trkpt lat="43.67195" lon="6.99637">
        <ele>350.39999389648</ele>
        <time>2022-04-12T12:00:03.000Z</time>
      </trkpt>
      <trkpt lat="43.67195" lon="6.99653">
        <ele>350.60000610352</ele>
        <time>2022-04-12T12:00:06.000Z</time>
      </trkpt>
      <trkpt lat="43.67196" lon="6.99663">
        <ele>351.20001220703</ele>
        <time>2022-04-12T12:00:08.000Z</time>
      </trkpt>
      <trkpt lat="43.67197" lon="6.99668">
        <ele>351.60000610352</ele>
        <time>2022-04-12T12:00:09.000Z</time>
      </trkpt>
      <trkpt lat="43.67195" lon="6.99688">
        <ele>352.79998779297</ele>
        <time>2022-04-12T12:00:13.000Z</time>
      </trkpt>
      <trkpt lat="43.67187" lon="6.99729">
        <ele>353.60000610352</ele>
        <time>2022-04-12T12:00:20.000Z</time>
      </trkpt>
      <trkpt lat="43.67182" lon="6.99778">
        <ele>352.60000610352</ele>
        <time>2022-04-12T12:00:27.000Z</time>
      </trkpt>
      <trkpt lat="43.67176" lon="6.99805">
        <ele>352</ele>
        <time>2022-04-12T12:00:31.000Z</time>
      </trkpt>
      <trkpt lat="43.6717" lon="6.99827">
        <ele>351.79998779297</ele>
        <time>2022-04-12T12:00:34.000Z</time>
      </trkpt>
      <trkpt lat="43.67161" lon="6.99861">
        <ele>350.79998779297</ele>
        <time>2022-04-12T12:00:39.000Z</time>
      </trkpt>
      <trkpt lat="43.6716" lon="6.99868">
        <ele>350.60000610352</ele>
        <time>2022-04-12T12:00:40.000Z</time>
      </trkpt>
      <trkpt lat="43.67159" lon="6.99875">
        <ele>350.60000610352</ele>
        <time>2022-04-12T12:00:41.000Z</time>
      </trkpt>
      <trkpt lat="43.67149" lon="6.99935">
        <ele>349.60000610352</ele>
        <time>2022-04-12T12:00:49.000Z</time>
      </trkpt>
      <trkpt lat="43.67146" lon="6.99941">
        <ele>349.60000610352</ele>
        <time>2022-04-12T12:00:50.000Z</time>
      </trkpt>
      <trkpt lat="43.6714" lon="6.99956">
        <ele>349</ele>
        <time>2022-04-12T12:00:53.000Z</time>
      </trkpt>
      <trkpt lat="43.67138" lon="6.99962">
        <ele>348.79998779297</ele>
        <time>2022-04-12T12:00:54.000Z</time>
      </trkpt>
      <trkpt lat="43.67136" lon="6.99968">
        <ele>348.39999389648</ele>
        <time>2022-04-12T12:00:55.000Z</time>
      </trkpt>
      <trkpt lat="43.6713" lon="6.99998">
        <ele>347.39999389648</ele>
        <time>2022-04-12T12:00:59.000Z</time>
      </trkpt>
      <trkpt lat="43.67123" lon="7.0003">
        <ele>346.20001220703</ele>
        <time>2022-04-12T12:01:03.000Z</time>
      </trkpt>
      <trkpt lat="43.67121" lon="7.00044">
        <ele>345.60000610352</ele>
        <time>2022-04-12T12:01:05.000Z</time>
      </trkpt>
      <trkpt lat="43.6712" lon="7.00048">
        <ele>345.60000610352</ele>
        <time>2022-04-12T12:01:06.000Z</time>
      </trkpt>
      <trkpt lat="43.67116" lon="7.0006">
        <ele>345.20001220703</ele>
        <time>2022-04-12T12:01:07.000Z</time>
      </trkpt>
      <trkpt lat="43.67112" lon="7.00074">
        <ele>345</ele>
        <time>2022-04-12T12:01:09.000Z</time>
      </trkpt>
      <trkpt lat="43.67098" lon="7.00131">
        <ele>345.20001220703</ele>
        <time>2022-04-12T12:01:17.000Z</time>
      </trkpt>
      <trkpt lat="43.67097" lon="7.0014">
        <ele>345.20001220703</ele>
        <time>2022-04-12T12:01:18.000Z</time>
      </trkpt>
      <trkpt lat="43.67097" lon="7.00148">
        <ele>345</ele>
        <time>2022-04-12T12:01:19.000Z</time>
      </trkpt>
      <trkpt lat="43.67098" lon="7.00177">
        <ele>343.79998779297</ele>
        <time>2022-04-12T12:01:22.000Z</time>
      </trkpt>
      <trkpt lat="43.671" lon="7.00198">
        <ele>342.60000610352</ele>
        <time>2022-04-12T12:01:24.000Z</time>
      </trkpt>
      <trkpt lat="43.67102" lon="7.00219">
        <ele>341.39999389648</ele>
        <time>2022-04-12T12:01:26.000Z</time>
      </trkpt>
      <trkpt lat="43.67102" lon="7.00244">
        <ele>339.79998779297</ele>
        <time>2022-04-12T12:01:28.000Z</time>
      </trkpt>
      <trkpt lat="43.67101" lon="7.00267">
        <ele>339</ele>
        <time>2022-04-12T12:01:30.000Z</time>
      </trkpt>
      <trkpt lat="43.67099" lon="7.0028">
        <ele>338</ele>
        <time>2022-04-12T12:01:31.000Z</time>
      </trkpt>
      <trkpt lat="43.67097" lon="7.00292">
        <ele>337</ele>
        <time>2022-04-12T12:01:32.000Z</time>
      </trkpt>
      <trkpt lat="43.67094" lon="7.00303">
        <ele>335.79998779297</ele>
        <time>2022-04-12T12:01:33.000Z</time>
      </trkpt>
      <trkpt lat="43.67092" lon="7.00315">
        <ele>334.39999389648</ele>
        <time>2022-04-12T12:01:34.000Z</time>
      </trkpt>
      <trkpt lat="43.67083" lon="7.00357">
        <ele>333</ele>
        <time>2022-04-12T12:01:38.000Z</time>
      </trkpt>
      <trkpt lat="43.6708" lon="7.00368">
        <ele>332.20001220703</ele>
        <time>2022-04-12T12:01:39.000Z</time>
      </trkpt>
      <trkpt lat="43.67077" lon="7.00378">
        <ele>331.39999389648</ele>
        <time>2022-04-12T12:01:40.000Z</time>
      </trkpt>
      <trkpt lat="43.67066" lon="7.00393">
        <ele>330</ele>
        <time>2022-04-12T12:01:42.000Z</time>
      </trkpt>
      <trkpt lat="43.67046" lon="7.00405">
        <ele>329.39999389648</ele>
        <time>2022-04-12T12:01:45.000Z</time>
      </trkpt>
      <trkpt lat="43.67032" lon="7.00411">
        <ele>328.79998779297</ele>
        <time>2022-04-12T12:01:47.000Z</time>
      </trkpt>
      <trkpt lat="43.67009" lon="7.00423">
        <ele>327.79998779297</ele>
        <time>2022-04-12T12:01:51.000Z</time>
      </trkpt>
      <trkpt lat="43.67002" lon="7.00426">
        <ele>327.39999389648</ele>
        <time>2022-04-12T12:01:52.000Z</time>
      </trkpt>
      <trkpt lat="43.66985" lon="7.00435">
        <ele>326.60000610352</ele>
        <time>2022-04-12T12:01:55.000Z</time>
      </trkpt>
      <trkpt lat="43.66961" lon="7.00446">
        <ele>325.39999389648</ele>
        <time>2022-04-12T12:01:59.000Z</time>
      </trkpt>
      <trkpt lat="43.66954" lon="7.00447">
        <ele>325.39999389648</ele>
        <time>2022-04-12T12:02:00.000Z</time>
      </trkpt>
      <trkpt lat="43.66936" lon="7.00442">
        <ele>324.60000610352</ele>
        <time>2022-04-12T12:02:03.000Z</time>
      </trkpt>
      <trkpt lat="43.66932" lon="7.00438">
        <ele>324.20001220703</ele>
        <time>2022-04-12T12:02:04.000Z</time>
      </trkpt>
      <trkpt lat="43.66928" lon="7.00433">
        <ele>324</ele>
        <time>2022-04-12T12:02:05.000Z</time>
      </trkpt>
      <trkpt lat="43.66928" lon="7.00435">
        <ele>323.79998779297</ele>
        <time>2022-04-12T12:02:06.000Z</time>
      </trkpt>
      <trkpt lat="43.66921" lon="7.00437">
        <ele>323.20001220703</ele>
        <time>2022-04-12T12:02:07.000Z</time>
      </trkpt>
      <trkpt lat="43.66915" lon="7.00445">
        <ele>321.60000610352</ele>
        <time>2022-04-12T12:02:09.000Z</time>
      </trkpt>
      <trkpt lat="43.66909" lon="7.00449">
        <ele>321.60000610352</ele>
        <time>2022-04-12T12:02:11.000Z</time>
      </trkpt>
      <trkpt lat="43.66903" lon="7.00448">
        <ele>321.79998779297</ele>
        <time>2022-04-12T12:02:15.000Z</time>
      </trkpt>
      <trkpt lat="43.66903" lon="7.00447">
        <ele>320.39999389648</ele>
        <time>2022-04-12T12:02:20.000Z</time>
      </trkpt>
      <trkpt lat="43.66903" lon="7.00447">
        <ele>320.20001220703</ele>
        <time>2022-04-12T12:02:22.000Z</time>
      </trkpt>
      <trkpt lat="43.66903" lon="7.00447">
        <ele>319.20001220703</ele>
        <time>2022-04-12T12:02:27.000Z</time>
      </trkpt>
      <trkpt lat="43.66901" lon="7.00445">
        <ele>318.20001220703</ele>
        <time>2022-04-12T12:02:34.000Z</time>
      </trkpt>
      <trkpt lat="43.66899" lon="7.00444">
        <ele>318.20001220703</ele>
        <time>2022-04-12T12:02:35.000Z</time>
      </trkpt>
      <trkpt lat="43.66892" lon="7.00439">
        <ele>317.20001220703</ele>
        <time>2022-04-12T12:02:39.000Z</time>
      </trkpt>
      <trkpt lat="43.6689" lon="7.00439">
        <ele>316.60000610352</ele>
        <time>2022-04-12T12:02:40.000Z</time>
      </trkpt>
      <trkpt lat="43.66891" lon="7.00439">
        <ele>316</ele>
        <time>2022-04-12T12:02:41.000Z</time>
      </trkpt>
      <trkpt lat="43.6689" lon="7.00438">
        <ele>314.79998779297</ele>
        <time>2022-04-12T12:02:44.000Z</time>
      </trkpt>
      <trkpt lat="43.6689" lon="7.0044">
        <ele>315.39999389648</ele>
        <time>2022-04-12T12:02:50.000Z</time>
      </trkpt>
      <trkpt lat="43.6689" lon="7.00441">
        <ele>314.60000610352</ele>
        <time>2022-04-12T12:02:56.000Z</time>
      </trkpt>
      <trkpt lat="43.66889" lon="7.0044">
        <ele>314.79998779297</ele>
        <time>2022-04-12T12:03:01.000Z</time>
      </trkpt>
      <trkpt lat="43.6689" lon="7.00441">
        <ele>314.60000610352</ele>
        <time>2022-04-12T12:03:09.000Z</time>
      </trkpt>
      <trkpt lat="43.66889" lon="7.00441">
        <ele>314.79998779297</ele>
        <time>2022-04-12T12:03:15.000Z</time>
      </trkpt>
      <trkpt lat="43.66889" lon="7.00442">
        <ele>314.60000610352</ele>
        <time>2022-04-12T12:03:26.000Z</time>
      </trkpt>
      <trkpt lat="43.66888" lon="7.00442">
        <ele>314.39999389648</ele>
        <time>2022-04-12T12:03:35.000Z</time>
      </trkpt>
      <trkpt lat="43.66882" lon="7.00448">
        <ele>314.60000610352</ele>
        <time>2022-04-12T12:03:41.000Z</time>
      </trkpt>
      <trkpt lat="43.66881" lon="7.0045">
        <ele>313.79998779297</ele>
        <time>2022-04-12T12:03:46.000Z</time>
      </trkpt>
      <trkpt lat="43.66881" lon="7.00453">
        <ele>313.60000610352</ele>
        <time>2022-04-12T12:03:49.000Z</time>
      </trkpt>
      <trkpt lat="43.66883" lon="7.00456">
        <ele>313.60000610352</ele>
        <time>2022-04-12T12:03:51.000Z</time>
      </trkpt>
      <trkpt lat="43.66883" lon="7.00452">
        <ele>313.20001220703</ele>
        <time>2022-04-12T12:03:55.000Z</time>
      </trkpt>
      <trkpt lat="43.66882" lon="7.00443">
        <ele>313.20001220703</ele>
        <time>2022-04-12T12:04:02.000Z</time>
      </trkpt>
      <trkpt lat="43.66882" lon="7.00437">
        <ele>313.20001220703</ele>
        <time>2022-04-12T12:04:09.000Z</time>
      </trkpt>
      <trkpt lat="43.66882" lon="7.00438">
        <ele>312.60000610352</ele>
        <time>2022-04-12T12:04:12.000Z</time>
      </trkpt>
      <trkpt lat="43.66881" lon="7.00437">
        <ele>313.20001220703</ele>
        <time>2022-04-12T12:04:16.000Z</time>
      </trkpt>
      <trkpt lat="43.66884" lon="7.00437">
        <ele>313.20001220703</ele>
        <time>2022-04-12T12:04:26.000Z</time>
      </trkpt>
      <trkpt lat="43.66883" lon="7.00438">
        <ele>313.39999389648</ele>
        <time>2022-04-12T12:04:31.000Z</time>
      </trkpt>
      <trkpt lat="43.66883" lon="7.00435">
        <ele>313.60000610352</ele>
        <time>2022-04-12T12:04:38.000Z</time>
      </trkpt>
      <trkpt lat="43.6688" lon="7.00431">
        <ele>313.39999389648</ele>
        <time>2022-04-12T12:04:41.000Z</time>
      </trkpt>
      <trkpt lat="43.66879" lon="7.0043">
        <ele>313.20001220703</ele>
        <time>2022-04-12T12:04:43.000Z</time>
      </trkpt>
      <trkpt lat="43.66877" lon="7.00429">
        <ele>312.60000610352</ele>
        <time>2022-04-12T12:04:48.000Z</time>
      </trkpt>
      <trkpt lat="43.6688" lon="7.00431">
        <ele>312.60000610352</ele>
        <time>2022-04-12T12:04:53.000Z</time>
      </trkpt>
      <trkpt lat="43.66882" lon="7.0043">
        <ele>312.60000610352</ele>
        <time>2022-04-12T12:05:01.000Z</time>
      </trkpt>
      <trkpt lat="43.66884" lon="7.00433">
        <ele>312.79998779297</ele>
        <time>2022-04-12T12:05:05.000Z</time>
      </trkpt>
      <trkpt lat="43.66884" lon="7.00433">
        <ele>312.79998779297</ele>
        <time>2022-04-12T12:05:06.000Z</time>
      </trkpt>
      <trkpt lat="43.66885" lon="7.00432">
        <ele>312.79998779297</ele>
        <time>2022-04-12T12:05:13.000Z</time>
      </trkpt>
      <trkpt lat="43.66885" lon="7.00433">
        <ele>312.79998779297</ele>
        <time>2022-04-12T12:05:14.000Z</time>
      </trkpt>
      <trkpt lat="43.66889" lon="7.00442">
        <ele>313.20001220703</ele>
        <time>2022-04-12T12:05:22.000Z</time>
      </trkpt>
      <trkpt lat="43.66888" lon="7.00438">
        <ele>313</ele>
        <time>2022-04-12T12:05:26.000Z</time>
      </trkpt>
      <trkpt lat="43.66887" lon="7.00435">
        <ele>313</ele>
        <time>2022-04-12T12:05:28.000Z</time>
      </trkpt>
      <trkpt lat="43.66881" lon="7.00425">
        <ele>313</ele>
        <time>2022-04-12T12:05:33.000Z</time>
      </trkpt>
      <trkpt lat="43.66878" lon="7.00423">
        <ele>313</ele>
        <time>2022-04-12T12:05:38.000Z</time>
      </trkpt>
      <trkpt lat="43.66875" lon="7.0042">
        <ele>313</ele>
        <time>2022-04-12T12:05:41.000Z</time>
      </trkpt>
      <trkpt lat="43.66875" lon="7.00416">
        <ele>312.79998779297</ele>
        <time>2022-04-12T12:05:43.000Z</time>
      </trkpt>
      <trkpt lat="43.66878" lon="7.00416">
        <ele>313</ele>
        <time>2022-04-12T12:05:47.000Z</time>
      </trkpt>
      <trkpt lat="43.66879" lon="7.00417">
        <ele>313</ele>
        <time>2022-04-12T12:05:48.000Z</time>
      </trkpt>
      <trkpt lat="43.6688" lon="7.0042">
        <ele>313</ele>
        <time>2022-04-12T12:05:51.000Z</time>
      </trkpt>
      <trkpt lat="43.66881" lon="7.00422">
        <ele>313</ele>
        <time>2022-04-12T12:05:52.000Z</time>
      </trkpt>
      <trkpt lat="43.66876" lon="7.00424">
        <ele>313</ele>
        <time>2022-04-12T12:05:58.000Z</time>
      </trkpt>
      <trkpt lat="43.66878" lon="7.00427">
        <ele>313.39999389648</ele>
        <time>2022-04-12T12:06:04.000Z</time>
      </trkpt>
      <trkpt lat="43.66879" lon="7.00429">
        <ele>313.60000610352</ele>
        <time>2022-04-12T12:06:09.000Z</time>
      </trkpt>
      <trkpt lat="43.6688" lon="7.0043">
        <ele>313.39999389648</ele>
        <time>2022-04-12T12:06:13.000Z</time>
      </trkpt>
      <trkpt lat="43.66881" lon="7.00429">
        <ele>313.39999389648</ele>
        <time>2022-04-12T12:06:14.000Z</time>
      </trkpt>
      <trkpt lat="43.66884" lon="7.0043">
        <ele>313</ele>
        <time>2022-04-12T12:06:22.000Z</time>
      </trkpt>
      <trkpt lat="43.66883" lon="7.00428">
        <ele>313.20001220703</ele>
        <time>2022-04-12T12:06:26.000Z</time>
      </trkpt>
      <trkpt lat="43.66882" lon="7.00427">
        <ele>313.20001220703</ele>
        <time>2022-04-12T12:06:27.000Z</time>
      </trkpt>
      <trkpt lat="43.66882" lon="7.00424">
        <ele>313.20001220703</ele>
        <time>2022-04-12T12:06:33.000Z</time>
      </trkpt>
      <trkpt lat="43.66884" lon="7.00429">
        <ele>313</ele>
        <time>2022-04-12T12:06:40.000Z</time>
      </trkpt>
      <trkpt lat="43.66884" lon="7.0043">
        <ele>313</ele>
        <time>2022-04-12T12:06:41.000Z</time>
      </trkpt>
      <trkpt lat="43.6689" lon="7.00438">
        <ele>313</ele>
        <time>2022-04-12T12:06:46.000Z</time>
      </trkpt>
      <trkpt lat="43.66889" lon="7.00438">
        <ele>313</ele>
        <time>2022-04-12T12:06:47.000Z</time>
      </trkpt>
      <trkpt lat="43.66891" lon="7.00438">
        <ele>313.39999389648</ele>
        <time>2022-04-12T12:06:55.000Z</time>
      </trkpt>
      <trkpt lat="43.66889" lon="7.00436">
        <ele>313.20001220703</ele>
        <time>2022-04-12T12:07:01.000Z</time>
      </trkpt>
      <trkpt lat="43.66888" lon="7.00436">
        <ele>313</ele>
        <time>2022-04-12T12:07:08.000Z</time>
      </trkpt>
      <trkpt lat="43.66886" lon="7.00434">
        <ele>313</ele>
        <time>2022-04-12T12:07:13.000Z</time>
      </trkpt>
      <trkpt lat="43.66886" lon="7.00433">
        <ele>313.20001220703</ele>
        <time>2022-04-12T12:07:14.000Z</time>
      </trkpt>
      <trkpt lat="43.66887" lon="7.00433">
        <ele>313.79998779297</ele>
        <time>2022-04-12T12:07:18.000Z</time>
      </trkpt>
      <trkpt lat="43.66886" lon="7.00437">
        <ele>314.20001220703</ele>
        <time>2022-04-12T12:07:26.000Z</time>
      </trkpt>
      <trkpt lat="43.66885" lon="7.0044">
        <ele>314</ele>
        <time>2022-04-12T12:07:37.000Z</time>
      </trkpt>
      <trkpt lat="43.66885" lon="7.0044">
        <ele>314</ele>
        <time>2022-04-12T12:07:45.000Z</time>
      </trkpt>
      <trkpt lat="43.66884" lon="7.00441">
        <ele>313</ele>
        <time>2022-04-12T12:07:52.000Z</time>
      </trkpt>
      <trkpt lat="43.66884" lon="7.00441">
        <ele>313</ele>
        <time>2022-04-12T12:07:59.000Z</time>
      </trkpt>
      <trkpt lat="43.66883" lon="7.00439">
        <ele>313</ele>
        <time>2022-04-12T12:08:08.000Z</time>
      </trkpt>
      <trkpt lat="43.66883" lon="7.0044">
        <ele>313.79998779297</ele>
        <time>2022-04-12T12:08:15.000Z</time>
      </trkpt>
      <trkpt lat="43.66882" lon="7.00439">
        <ele>313.39999389648</ele>
        <time>2022-04-12T12:08:22.000Z</time>
      </trkpt>
      <trkpt lat="43.66885" lon="7.00435">
        <ele>313.60000610352</ele>
        <time>2022-04-12T12:08:28.000Z</time>
      </trkpt>
      <trkpt lat="43.66887" lon="7.00432">
        <ele>314.60000610352</ele>
        <time>2022-04-12T12:08:32.000Z</time>
      </trkpt>
      <trkpt lat="43.66888" lon="7.00432">
        <ele>314.60000610352</ele>
        <time>2022-04-12T12:08:33.000Z</time>
      </trkpt>
      <trkpt lat="43.66889" lon="7.00433">
        <ele>315</ele>
        <time>2022-04-12T12:08:36.000Z</time>
      </trkpt>
      <trkpt lat="43.66889" lon="7.00434">
        <ele>315.39999389648</ele>
        <time>2022-04-12T12:08:39.000Z</time>
      </trkpt>
      <trkpt lat="43.6689" lon="7.00433">
        <ele>315.20001220703</ele>
        <time>2022-04-12T12:08:46.000Z</time>
      </trkpt>
      <trkpt lat="43.6689" lon="7.00434">
        <ele>315.60000610352</ele>
        <time>2022-04-12T12:08:51.000Z</time>
      </trkpt>
      <trkpt lat="43.66889" lon="7.00434">
        <ele>315.79998779297</ele>
        <time>2022-04-12T12:08:57.000Z</time>
      </trkpt>
      <trkpt lat="43.66891" lon="7.00431">
        <ele>315.79998779297</ele>
        <time>2022-04-12T12:09:01.000Z</time>
      </trkpt>
      <trkpt lat="43.66892" lon="7.00431">
        <ele>315.79998779297</ele>
        <time>2022-04-12T12:09:02.000Z</time>
      </trkpt>
      <trkpt lat="43.66893" lon="7.00431">
        <ele>315.79998779297</ele>
        <time>2022-04-12T12:09:06.000Z</time>
      </trkpt>
      <trkpt lat="43.66895" lon="7.00431">
        <ele>315.79998779297</ele>
        <time>2022-04-12T12:09:08.000Z</time>
      </trkpt>
      <trkpt lat="43.66896" lon="7.00432">
        <ele>316</ele>
        <time>2022-04-12T12:09:10.000Z</time>
      </trkpt>
      <trkpt lat="43.66896" lon="7.00432">
        <ele>316</ele>
        <time>2022-04-12T12:09:11.000Z</time>
      </trkpt>
      <trkpt lat="43.66896" lon="7.00432">
        <ele>316</ele>
        <time>2022-04-12T12:09:15.000Z</time>
      </trkpt>
      <trkpt lat="43.66895" lon="7.00433">
        <ele>315.79998779297</ele>
        <time>2022-04-12T12:09:20.000Z</time>
      </trkpt>
      <trkpt lat="43.66896" lon="7.00434">
        <ele>315.60000610352</ele>
        <time>2022-04-12T12:09:26.000Z</time>
      </trkpt>
      <trkpt lat="43.669" lon="7.00441">
        <ele>315.79998779297</ele>
        <time>2022-04-12T12:09:30.000Z</time>
      </trkpt>
      <trkpt lat="43.66906" lon="7.00449">
        <ele>317.60000610352</ele>
        <time>2022-04-12T12:09:34.000Z</time>
      </trkpt>
      <trkpt lat="43.66909" lon="7.00451">
        <ele>318.39999389648</ele>
        <time>2022-04-12T12:09:36.000Z</time>
      </trkpt>
      <trkpt lat="43.66911" lon="7.0045">
        <ele>318.60000610352</ele>
        <time>2022-04-12T12:09:37.000Z</time>
      </trkpt>
      <trkpt lat="43.66918" lon="7.00443">
        <ele>320.20001220703</ele>
        <time>2022-04-12T12:09:40.000Z</time>
      </trkpt>
      <trkpt lat="43.66923" lon="7.00436">
        <ele>320.79998779297</ele>
        <time>2022-04-12T12:09:42.000Z</time>
      </trkpt>
      <trkpt lat="43.66932" lon="7.00437">
        <ele>320.60000610352</ele>
        <time>2022-04-12T12:09:45.000Z</time>
      </trkpt>
      <trkpt lat="43.66936" lon="7.00442">
        <ele>320.79998779297</ele>
        <time>2022-04-12T12:09:47.000Z</time>
      </trkpt>
      <trkpt lat="43.6694" lon="7.00445">
        <ele>321.20001220703</ele>
        <time>2022-04-12T12:09:49.000Z</time>
      </trkpt>
      <trkpt lat="43.66946" lon="7.00447">
        <ele>321.79998779297</ele>
        <time>2022-04-12T12:09:51.000Z</time>
      </trkpt>
      <trkpt lat="43.66954" lon="7.00447">
        <ele>322.39999389648</ele>
        <time>2022-04-12T12:09:54.000Z</time>
      </trkpt>
      <trkpt lat="43.66966" lon="7.00443">
        <ele>323.20001220703</ele>
        <time>2022-04-12T12:09:58.000Z</time>
      </trkpt>
      <trkpt lat="43.66972" lon="7.00441">
        <ele>323.60000610352</ele>
        <time>2022-04-12T12:10:00.000Z</time>
      </trkpt>
      <trkpt lat="43.66999" lon="7.00428">
        <ele>324.60000610352</ele>
        <time>2022-04-12T12:10:09.000Z</time>
      </trkpt>
      <trkpt lat="43.67026" lon="7.00413">
        <ele>325.39999389648</ele>
        <time>2022-04-12T12:10:17.000Z</time>
      </trkpt>
      <trkpt lat="43.67034" lon="7.0041">
        <ele>325.60000610352</ele>
        <time>2022-04-12T12:10:19.000Z</time>
      </trkpt>
      <trkpt lat="43.67055" lon="7.00399">
        <ele>325.60000610352</ele>
        <time>2022-04-12T12:10:25.000Z</time>
      </trkpt>
      <trkpt lat="43.67073" lon="7.00384">
        <ele>326</ele>
        <time>2022-04-12T12:10:31.000Z</time>
      </trkpt>
      <trkpt lat="43.67079" lon="7.00366">
        <ele>326.60000610352</ele>
        <time>2022-04-12T12:10:35.000Z</time>
      </trkpt>
      <trkpt lat="43.67081" lon="7.00357">
        <ele>327</ele>
        <time>2022-04-12T12:10:37.000Z</time>
      </trkpt>
      <trkpt lat="43.67087" lon="7.00335">
        <ele>327.60000610352</ele>
        <time>2022-04-12T12:10:42.000Z</time>
      </trkpt>
      <trkpt lat="43.67092" lon="7.00316">
        <ele>329</ele>
        <time>2022-04-12T12:10:46.000Z</time>
      </trkpt>
      <trkpt lat="43.67093" lon="7.00311">
        <ele>329.20001220703</ele>
        <time>2022-04-12T12:10:47.000Z</time>
      </trkpt>
      <trkpt lat="43.67095" lon="7.00301">
        <ele>330</ele>
        <time>2022-04-12T12:10:49.000Z</time>
      </trkpt>
      <trkpt lat="43.67099" lon="7.00287">
        <ele>331.39999389648</ele>
        <time>2022-04-12T12:10:52.000Z</time>
      </trkpt>
      <trkpt lat="43.67101" lon="7.00273">
        <ele>332.79998779297</ele>
        <time>2022-04-12T12:10:55.000Z</time>
      </trkpt>
      <trkpt lat="43.67103" lon="7.00259">
        <ele>334.20001220703</ele>
        <time>2022-04-12T12:10:58.000Z</time>
      </trkpt>
      <trkpt lat="43.67103" lon="7.00244">
        <ele>335.60000610352</ele>
        <time>2022-04-12T12:11:01.000Z</time>
      </trkpt>
      <trkpt lat="43.67103" lon="7.00234">
        <ele>336.39999389648</ele>
        <time>2022-04-12T12:11:03.000Z</time>
      </trkpt>
      <trkpt lat="43.67103" lon="7.0023">
        <ele>336.79998779297</ele>
        <time>2022-04-12T12:11:04.000Z</time>
      </trkpt>
      <trkpt lat="43.67102" lon="7.00215">
        <ele>337.79998779297</ele>
        <time>2022-04-12T12:11:07.000Z</time>
      </trkpt>
      <trkpt lat="43.67101" lon="7.00201">
        <ele>338.79998779297</ele>
        <time>2022-04-12T12:11:10.000Z</time>
      </trkpt>
      <trkpt lat="43.67101" lon="7.00182">
        <ele>340.20001220703</ele>
        <time>2022-04-12T12:11:14.000Z</time>
      </trkpt>
      <trkpt lat="43.67099" lon="7.00163">
        <ele>341.39999389648</ele>
        <time>2022-04-12T12:11:18.000Z</time>
      </trkpt>
      <trkpt lat="43.67098" lon="7.00143">
        <ele>342.60000610352</ele>
        <time>2022-04-12T12:11:22.000Z</time>
      </trkpt>
      <trkpt lat="43.671" lon="7.0013">
        <ele>343.60000610352</ele>
        <time>2022-04-12T12:11:25.000Z</time>
      </trkpt>
      <trkpt lat="43.67102" lon="7.00117">
        <ele>344.60000610352</ele>
        <time>2022-04-12T12:11:28.000Z</time>
      </trkpt>
      <trkpt lat="43.67103" lon="7.00112">
        <ele>344.79998779297</ele>
        <time>2022-04-12T12:11:29.000Z</time>
      </trkpt>
      <trkpt lat="43.67112" lon="7.00079">
        <ele>345.79998779297</ele>
        <time>2022-04-12T12:11:36.000Z</time>
      </trkpt>
      <trkpt lat="43.67116" lon="7.00065">
        <ele>345.79998779297</ele>
        <time>2022-04-12T12:11:39.000Z</time>
      </trkpt>
      <trkpt lat="43.67127" lon="7.00016">
        <ele>345.60000610352</ele>
        <time>2022-04-12T12:11:48.000Z</time>
      </trkpt>
      <trkpt lat="43.67137" lon="6.99968">
        <ele>346</ele>
        <time>2022-04-12T12:11:57.000Z</time>
      </trkpt>
      <trkpt lat="43.67142" lon="6.99954">
        <ele>347</ele>
        <time>2022-04-12T12:12:00.000Z</time>
      </trkpt>
      <trkpt lat="43.67149" lon="6.99935">
        <ele>348.20001220703</ele>
        <time>2022-04-12T12:12:04.000Z</time>
      </trkpt>
      <trkpt lat="43.67151" lon="6.99926">
        <ele>348.60000610352</ele>
        <time>2022-04-12T12:12:06.000Z</time>
      </trkpt>
      <trkpt lat="43.67152" lon="6.99915">
        <ele>349.20001220703</ele>
        <time>2022-04-12T12:12:08.000Z</time>
      </trkpt>
      <trkpt lat="43.67157" lon="6.9989">
        <ele>350</ele>
        <time>2022-04-12T12:12:13.000Z</time>
      </trkpt>
      <trkpt lat="43.6716" lon="6.99874">
        <ele>350.20001220703</ele>
        <time>2022-04-12T12:12:16.000Z</time>
      </trkpt>
      <trkpt lat="43.67164" lon="6.99848">
        <ele>350.79998779297</ele>
        <time>2022-04-12T12:12:21.000Z</time>
      </trkpt>
      <trkpt lat="43.67172" lon="6.99822">
        <ele>351.39999389648</ele>
        <time>2022-04-12T12:12:26.000Z</time>
      </trkpt>
      <trkpt lat="43.67177" lon="6.99807">
        <ele>351.79998779297</ele>
        <time>2022-04-12T12:12:29.000Z</time>
      </trkpt>
      <trkpt lat="43.67183" lon="6.99776">
        <ele>352.39999389648</ele>
        <time>2022-04-12T12:12:35.000Z</time>
      </trkpt>
      <trkpt lat="43.67184" lon="6.99771">
        <ele>352.39999389648</ele>
        <time>2022-04-12T12:12:36.000Z</time>
      </trkpt>
      <trkpt lat="43.67187" lon="6.99732">
        <ele>353</ele>
        <time>2022-04-12T12:12:43.000Z</time>
      </trkpt>
      <trkpt lat="43.67193" lon="6.99706">
        <ele>353.60000610352</ele>
        <time>2022-04-12T12:12:48.000Z</time>
      </trkpt>
      <trkpt lat="43.67198" lon="6.9968">
        <ele>353.79998779297</ele>
        <time>2022-04-12T12:12:53.000Z</time>
      </trkpt>
      <trkpt lat="43.67198" lon="6.99674">
        <ele>353.79998779297</ele>
        <time>2022-04-12T12:12:54.000Z</time>
      </trkpt>
      <trkpt lat="43.67197" lon="6.99652">
        <ele>353.60000610352</ele>
        <time>2022-04-12T12:12:57.000Z</time>
      </trkpt>
      <trkpt lat="43.67199" lon="6.99632">
        <ele>352.39999389648</ele>
        <time>2022-04-12T12:13:01.000Z</time>
      </trkpt>
      <trkpt lat="43.672" lon="6.99628">
        <ele>351.39999389648</ele>
        <time>2022-04-12T12:13:03.000Z</time>
      </trkpt>
      <trkpt lat="43.67204" lon="6.99625">
        <ele>350.60000610352</ele>
        <time>2022-04-12T12:13:05.000Z</time>
      </trkpt>
      <trkpt lat="43.67207" lon="6.99623">
        <ele>350.39999389648</ele>
        <time>2022-04-12T12:13:06.000Z</time>
      </trkpt>
      <trkpt lat="43.67215" lon="6.99611">
        <ele>349.79998779297</ele>
        <time>2022-04-12T12:13:09.000Z</time>
      </trkpt>
      <trkpt lat="43.67227" lon="6.99595">
        <ele>349.79998779297</ele>
        <time>2022-04-12T12:13:13.000Z</time>
      </trkpt>
      <trkpt lat="43.67237" lon="6.99586">
        <ele>350.39999389648</ele>
        <time>2022-04-12T12:13:16.000Z</time>
      </trkpt>
      <trkpt lat="43.67249" lon="6.99579">
        <ele>351</ele>
        <time>2022-04-12T12:13:19.000Z</time>
      </trkpt>
      <trkpt lat="43.67256" lon="6.99575">
        <ele>351.39999389648</ele>
        <time>2022-04-12T12:13:21.000Z</time>
      </trkpt>
      <trkpt lat="43.67263" lon="6.99571">
        <ele>351.60000610352</ele>
        <time>2022-04-12T12:13:23.000Z</time>
      </trkpt>
      <trkpt lat="43.67277" lon="6.9956">
        <ele>352.39999389648</ele>
        <time>2022-04-12T12:13:27.000Z</time>
      </trkpt>
      <trkpt lat="43.6729" lon="6.99548">
        <ele>353.60000610352</ele>
        <time>2022-04-12T12:13:31.000Z</time>
      </trkpt>
      <trkpt lat="43.67307" lon="6.99527">
        <ele>354.20001220703</ele>
        <time>2022-04-12T12:13:37.000Z</time>
      </trkpt>
      <trkpt lat="43.67317" lon="6.99521">
        <ele>354.60000610352</ele>
        <time>2022-04-12T12:13:40.000Z</time>
      </trkpt>
      <trkpt lat="43.67321" lon="6.9952">
        <ele>354.79998779297</ele>
        <time>2022-04-12T12:13:41.000Z</time>
      </trkpt>
      <trkpt lat="43.67339" lon="6.99514">
        <ele>355.60000610352</ele>
        <time>2022-04-12T12:13:46.000Z</time>
      </trkpt>
      <trkpt lat="43.67342" lon="6.9951">
        <ele>355.79998779297</ele>
        <time>2022-04-12T12:13:47.000Z</time>
      </trkpt>
      <trkpt lat="43.67351" lon="6.99488">
        <ele>356.79998779297</ele>
        <time>2022-04-12T12:13:52.000Z</time>
      </trkpt>
      <trkpt lat="43.67352" lon="6.99483">
        <ele>357</ele>
        <time>2022-04-12T12:13:53.000Z</time>
      </trkpt>
      <trkpt lat="43.67354" lon="6.99457">
        <ele>358</ele>
        <time>2022-04-12T12:13:58.000Z</time>
      </trkpt>
      <trkpt lat="43.67353" lon="6.99447">
        <ele>358.20001220703</ele>
        <time>2022-04-12T12:14:00.000Z</time>
      </trkpt>
      <trkpt lat="43.67357" lon="6.99433">
        <ele>358.60000610352</ele>
        <time>2022-04-12T12:14:03.000Z</time>
      </trkpt>
      <trkpt lat="43.6736" lon="6.99431">
        <ele>358.79998779297</ele>
        <time>2022-04-12T12:14:04.000Z</time>
      </trkpt>
      <trkpt lat="43.67363" lon="6.9943">
        <ele>359.20001220703</ele>
        <time>2022-04-12T12:14:05.000Z</time>
      </trkpt>
      <trkpt lat="43.67374" lon="6.99431">
        <ele>360.60000610352</ele>
        <time>2022-04-12T12:14:08.000Z</time>
      </trkpt>
      <trkpt lat="43.67377" lon="6.99432">
        <ele>361.20001220703</ele>
        <time>2022-04-12T12:14:09.000Z</time>
      </trkpt>
      <trkpt lat="43.67384" lon="6.99434">
        <ele>362</ele>
        <time>2022-04-12T12:14:11.000Z</time>
      </trkpt>
      <trkpt lat="43.67395" lon="6.99434">
        <ele>363.39999389648</ele>
        <time>2022-04-12T12:14:14.000Z</time>
      </trkpt>
      <trkpt lat="43.67398" lon="6.99435">
        <ele>363.79998779297</ele>
        <time>2022-04-12T12:14:15.000Z</time>
      </trkpt>
      <trkpt lat="43.67404" lon="6.99432">
        <ele>364.39999389648</ele>
        <time>2022-04-12T12:14:17.000Z</time>
      </trkpt>
      <trkpt lat="43.67411" lon="6.99428">
        <ele>365</ele>
        <time>2022-04-12T12:14:19.000Z</time>
      </trkpt>
      <trkpt lat="43.67417" lon="6.99425">
        <ele>366</ele>
        <time>2022-04-12T12:14:21.000Z</time>
      </trkpt>
      <trkpt lat="43.67427" lon="6.99419">
        <ele>367.20001220703</ele>
        <time>2022-04-12T12:14:24.000Z</time>
      </trkpt>
      <trkpt lat="43.67432" lon="6.99413">
        <ele>367.79998779297</ele>
        <time>2022-04-12T12:14:26.000Z</time>
      </trkpt>
      <trkpt lat="43.67437" lon="6.99405">
        <ele>368.39999389648</ele>
        <time>2022-04-12T12:14:28.000Z</time>
      </trkpt>
      <trkpt lat="43.67441" lon="6.99389">
        <ele>368.60000610352</ele>
        <time>2022-04-12T12:14:32.000Z</time>
      </trkpt>
      <trkpt lat="43.67443" lon="6.9937">
        <ele>369.60000610352</ele>
        <time>2022-04-12T12:14:36.000Z</time>
      </trkpt>
      <trkpt lat="43.67445" lon="6.99367">
        <ele>369.79998779297</ele>
        <time>2022-04-12T12:14:37.000Z</time>
      </trkpt>
      <trkpt lat="43.67448" lon="6.99356">
        <ele>370.20001220703</ele>
        <time>2022-04-12T12:14:40.000Z</time>
      </trkpt>
      <trkpt lat="43.6745" lon="6.99347">
        <ele>370.39999389648</ele>
        <time>2022-04-12T12:14:42.000Z</time>
      </trkpt>
      <trkpt lat="43.67452" lon="6.99333">
        <ele>370.60000610352</ele>
        <time>2022-04-12T12:14:45.000Z</time>
      </trkpt>
      <trkpt lat="43.67459" lon="6.99323">
        <ele>370.60000610352</ele>
        <time>2022-04-12T12:14:48.000Z</time>
      </trkpt>
      <trkpt lat="43.6747" lon="6.99323">
        <ele>371</ele>
        <time>2022-04-12T12:14:51.000Z</time>
      </trkpt>
      <trkpt lat="43.67505" lon="6.99325">
        <ele>371.20001220703</ele>
        <time>2022-04-12T12:15:00.000Z</time>
      </trkpt>
      <trkpt lat="43.67523" lon="6.99325">
        <ele>371</ele>
        <time>2022-04-12T12:15:04.000Z</time>
      </trkpt>
      <trkpt lat="43.67533" lon="6.99324">
        <ele>370.60000610352</ele>
        <time>2022-04-12T12:15:06.000Z</time>
      </trkpt>
      <trkpt lat="43.67543" lon="6.99324">
        <ele>370</ele>
        <time>2022-04-12T12:15:08.000Z</time>
      </trkpt>
      <trkpt lat="43.67549" lon="6.99324">
        <ele>369.60000610352</ele>
        <time>2022-04-12T12:15:09.000Z</time>
      </trkpt>
      <trkpt lat="43.67555" lon="6.99323">
        <ele>369.20001220703</ele>
        <time>2022-04-12T12:15:10.000Z</time>
      </trkpt>
      <trkpt lat="43.67558" lon="6.99324">
        <ele>369</ele>
        <time>2022-04-12T12:15:11.000Z</time>
      </trkpt>
      <trkpt lat="43.67564" lon="6.99325">
        <ele>368.39999389648</ele>
        <time>2022-04-12T12:15:12.000Z</time>
      </trkpt>
      <trkpt lat="43.6757" lon="6.99328">
        <ele>368</ele>
        <time>2022-04-12T12:15:13.000Z</time>
      </trkpt>
      <trkpt lat="43.67585" lon="6.99329">
        <ele>367</ele>
        <time>2022-04-12T12:15:15.000Z</time>
      </trkpt>
      <trkpt lat="43.67593" lon="6.99329">
        <ele>366.39999389648</ele>
        <time>2022-04-12T12:15:16.000Z</time>
      </trkpt>
      <trkpt lat="43.67601" lon="6.99329">
        <ele>365.60000610352</ele>
        <time>2022-04-12T12:15:17.000Z</time>
      </trkpt>
      <trkpt lat="43.6762" lon="6.99328">
        <ele>363.79998779297</ele>
        <time>2022-04-12T12:15:19.000Z</time>
      </trkpt>
      <trkpt lat="43.67635" lon="6.99328">
        <ele>362</ele>
        <time>2022-04-12T12:15:21.000Z</time>
      </trkpt>
      <trkpt lat="43.67642" lon="6.99328">
        <ele>361.39999389648</ele>
        <time>2022-04-12T12:15:22.000Z</time>
      </trkpt>
      <trkpt lat="43.6765" lon="6.99328">
        <ele>360.60000610352</ele>
        <time>2022-04-12T12:15:23.000Z</time>
      </trkpt>
      <trkpt lat="43.67674" lon="6.99331">
        <ele>359.60000610352</ele>
        <time>2022-04-12T12:15:26.000Z</time>
      </trkpt>
      <trkpt lat="43.67682" lon="6.99334">
        <ele>359</ele>
        <time>2022-04-12T12:15:27.000Z</time>
      </trkpt>
      <trkpt lat="43.67691" lon="6.99335">
        <ele>358.39999389648</ele>
        <time>2022-04-12T12:15:28.000Z</time>
      </trkpt>
      <trkpt lat="43.67706" lon="6.99336">
        <ele>357.39999389648</ele>
        <time>2022-04-12T12:15:30.000Z</time>
      </trkpt>
      <trkpt lat="43.67713" lon="6.99336">
        <ele>356.39999389648</ele>
        <time>2022-04-12T12:15:31.000Z</time>
      </trkpt>
      <trkpt lat="43.67721" lon="6.99333">
        <ele>355.20001220703</ele>
        <time>2022-04-12T12:15:32.000Z</time>
      </trkpt>
      <trkpt lat="43.67728" lon="6.9933">
        <ele>354.20001220703</ele>
        <time>2022-04-12T12:15:33.000Z</time>
      </trkpt>
      <trkpt lat="43.6774" lon="6.99322">
        <ele>352.20001220703</ele>
        <time>2022-04-12T12:15:35.000Z</time>
      </trkpt>
      <trkpt lat="43.67745" lon="6.99316">
        <ele>350.79998779297</ele>
        <time>2022-04-12T12:15:37.000Z</time>
      </trkpt>
      <trkpt lat="43.67746" lon="6.99312">
        <ele>350.39999389648</ele>
        <time>2022-04-12T12:15:38.000Z</time>
      </trkpt>
      <trkpt lat="43.67744" lon="6.99294">
        <ele>350.60000610352</ele>
        <time>2022-04-12T12:15:42.000Z</time>
      </trkpt>
      <trkpt lat="43.67743" lon="6.99275">
        <ele>352</ele>
        <time>2022-04-12T12:15:46.000Z</time>
      </trkpt>
      <trkpt lat="43.67744" lon="6.9927">
        <ele>352.20001220703</ele>
        <time>2022-04-12T12:15:47.000Z</time>
      </trkpt>
      <trkpt lat="43.67746" lon="6.99255">
        <ele>353.20001220703</ele>
        <time>2022-04-12T12:15:50.000Z</time>
      </trkpt>
      <trkpt lat="43.67747" lon="6.9925">
        <ele>353.60000610352</ele>
        <time>2022-04-12T12:15:51.000Z</time>
      </trkpt>
      <trkpt lat="43.67748" lon="6.99242">
        <ele>354.39999389648</ele>
        <time>2022-04-12T12:15:53.000Z</time>
      </trkpt>
      <trkpt lat="43.6775" lon="6.9923">
        <ele>355.60000610352</ele>
        <time>2022-04-12T12:15:56.000Z</time>
      </trkpt>
      <trkpt lat="43.67761" lon="6.99193">
        <ele>356.60000610352</ele>
        <time>2022-04-12T12:16:04.000Z</time>
      </trkpt>
      <trkpt lat="43.67762" lon="6.99188">
        <ele>356.79998779297</ele>
        <time>2022-04-12T12:16:05.000Z</time>
      </trkpt>
      <trkpt lat="43.67769" lon="6.9917">
        <ele>357.60000610352</ele>
        <time>2022-04-12T12:16:09.000Z</time>
      </trkpt>
      <trkpt lat="43.67771" lon="6.99161">
        <ele>357.79998779297</ele>
        <time>2022-04-12T12:16:11.000Z</time>
      </trkpt>
      <trkpt lat="43.67774" lon="6.99149">
        <ele>358.20001220703</ele>
        <time>2022-04-12T12:16:14.000Z</time>
      </trkpt>
      <trkpt lat="43.67777" lon="6.99136">
        <ele>358.79998779297</ele>
        <time>2022-04-12T12:16:17.000Z</time>
      </trkpt>
      <trkpt lat="43.67782" lon="6.9912">
        <ele>360</ele>
        <time>2022-04-12T12:16:21.000Z</time>
      </trkpt>
      <trkpt lat="43.67788" lon="6.99111">
        <ele>360.79998779297</ele>
        <time>2022-04-12T12:16:25.000Z</time>
      </trkpt>
      <trkpt lat="43.67789" lon="6.99104">
        <ele>361.20001220703</ele>
        <time>2022-04-12T12:16:27.000Z</time>
      </trkpt>
      <trkpt lat="43.67791" lon="6.99093">
        <ele>362.39999389648</ele>
        <time>2022-04-12T12:16:31.000Z</time>
      </trkpt>
      <trkpt lat="43.6779" lon="6.99079">
        <ele>363.60000610352</ele>
        <time>2022-04-12T12:16:37.000Z</time>
      </trkpt>
      <trkpt lat="43.67789" lon="6.99078">
        <ele>364.39999389648</ele>
        <time>2022-04-12T12:16:43.000Z</time>
      </trkpt>
      <trkpt lat="43.67789" lon="6.99077">
        <ele>364.39999389648</ele>
        <time>2022-04-12T12:16:48.000Z</time>
      </trkpt>
      <trkpt lat="43.67789" lon="6.99076">
        <ele>364.60000610352</ele>
        <time>2022-04-12T12:16:52.000Z</time>
      </trkpt>
      <trkpt lat="43.67789" lon="6.99075">
        <ele>364.79998779297</ele>
        <time>2022-04-12T12:17:01.000Z</time>
      </trkpt>
      <trkpt lat="43.6779" lon="6.99075">
        <ele>365</ele>
        <time>2022-04-12T12:17:11.000Z</time>
      </trkpt>
      <trkpt lat="43.6779" lon="6.99074">
        <ele>364.79998779297</ele>
        <time>2022-04-12T12:17:20.000Z</time>
      </trkpt>
      <trkpt lat="43.67789" lon="6.99074">
        <ele>364.39999389648</ele>
        <time>2022-04-12T12:17:25.000Z</time>
      </trkpt>
      <trkpt lat="43.67789" lon="6.99074">
        <ele>363.79998779297</ele>
        <time>2022-04-12T12:17:32.000Z</time>
      </trkpt>
      <trkpt lat="43.67789" lon="6.99073">
        <ele>363.39999389648</ele>
        <time>2022-04-12T12:17:35.000Z</time>
      </trkpt>
      <trkpt lat="43.67789" lon="6.99071">
        <ele>363.20001220703</ele>
        <time>2022-04-12T12:17:48.000Z</time>
      </trkpt>
      <trkpt lat="43.67789" lon="6.9907">
        <ele>363.20001220703</ele>
        <time>2022-04-12T12:17:59.000Z</time>
      </trkpt>
      <trkpt lat="43.67788" lon="6.9907">
        <ele>363.60000610352</ele>
        <time>2022-04-12T12:18:13.000Z</time>
      </trkpt>
      <trkpt lat="43.67787" lon="6.99068">
        <ele>364.20001220703</ele>
        <time>2022-04-12T12:18:23.000Z</time>
      </trkpt>
      <trkpt lat="43.67787" lon="6.99068">
        <ele>364.20001220703</ele>
        <time>2022-04-12T12:18:37.000Z</time>
      </trkpt>
      <trkpt lat="43.67787" lon="6.99067">
        <ele>364.39999389648</ele>
        <time>2022-04-12T12:18:47.000Z</time>
      </trkpt>
      <trkpt lat="43.67786" lon="6.99065">
        <ele>364</ele>
        <time>2022-04-12T12:19:02.000Z</time>
      </trkpt>
      <trkpt lat="43.67786" lon="6.99066">
        <ele>363.79998779297</ele>
        <time>2022-04-12T12:19:13.000Z</time>
      </trkpt>
      <trkpt lat="43.67786" lon="6.99065">
        <ele>363.39999389648</ele>
        <time>2022-04-12T12:19:21.000Z</time>
      </trkpt>
      <trkpt lat="43.67786" lon="6.99065">
        <ele>363.39999389648</ele>
        <time>2022-04-12T12:19:22.000Z</time>
      </trkpt>
      <trkpt lat="43.67786" lon="6.99065">
        <ele>364.39999389648</ele>
        <time>2022-04-12T12:19:29.000Z</time>
      </trkpt>
      <trkpt lat="43.67787" lon="6.99065">
        <ele>363.79998779297</ele>
        <time>2022-04-12T12:19:38.000Z</time>
      </trkpt>
      <trkpt lat="43.67788" lon="6.99067">
        <ele>364.39999389648</ele>
        <time>2022-04-12T12:19:52.000Z</time>
      </trkpt>
      <trkpt lat="43.67789" lon="6.99068">
        <ele>364.20001220703</ele>
        <time>2022-04-12T12:20:02.000Z</time>
      </trkpt>
      <trkpt lat="43.67791" lon="6.99068">
        <ele>364.20001220703</ele>
        <time>2022-04-12T12:20:08.000Z</time>
      </trkpt>
      <trkpt lat="43.67792" lon="6.99069">
        <ele>363.79998779297</ele>
        <time>2022-04-12T12:20:15.000Z</time>
      </trkpt>
      <trkpt lat="43.67792" lon="6.9907">
        <ele>364.20001220703</ele>
        <time>2022-04-12T12:20:29.000Z</time>
      </trkpt>
      <trkpt lat="43.67792" lon="6.99071">
        <ele>364.39999389648</ele>
        <time>2022-04-12T12:20:38.000Z</time>
      </trkpt>
      <trkpt lat="43.67792" lon="6.99071">
        <ele>364.39999389648</ele>
        <time>2022-04-12T12:20:47.000Z</time>
      </trkpt>
      <trkpt lat="43.67791" lon="6.99071">
        <ele>364.39999389648</ele>
        <time>2022-04-12T12:21:02.000Z</time>
      </trkpt>
      <trkpt lat="43.67791" lon="6.99071">
        <ele>364.20001220703</ele>
        <time>2022-04-12T12:21:17.000Z</time>
      </trkpt>
      <trkpt lat="43.67791" lon="6.99071">
        <ele>364.20001220703</ele>
        <time>2022-04-12T12:21:25.000Z</time>
      </trkpt>
      <trkpt lat="43.67791" lon="6.99069">
        <ele>364</ele>
        <time>2022-04-12T12:21:36.000Z</time>
      </trkpt>
      <trkpt lat="43.67791" lon="6.99069">
        <ele>363.60000610352</ele>
        <time>2022-04-12T12:21:49.000Z</time>
      </trkpt>
      <trkpt lat="43.67792" lon="6.99069">
        <ele>364</ele>
        <time>2022-04-12T12:21:58.000Z</time>
      </trkpt>
      <trkpt lat="43.67792" lon="6.99069">
        <ele>364.60000610352</ele>
        <time>2022-04-12T12:22:08.000Z</time>
      </trkpt>
      <trkpt lat="43.67792" lon="6.99068">
        <ele>363.79998779297</ele>
        <time>2022-04-12T12:22:15.000Z</time>
      </trkpt>
      <trkpt lat="43.67792" lon="6.99068">
        <ele>363.60000610352</ele>
        <time>2022-04-12T12:22:24.000Z</time>
      </trkpt>
      <trkpt lat="43.67792" lon="6.99067">
        <ele>363.39999389648</ele>
        <time>2022-04-12T12:22:31.000Z</time>
      </trkpt>
      <trkpt lat="43.67792" lon="6.99067">
        <ele>363.60000610352</ele>
        <time>2022-04-12T12:22:35.000Z</time>
      </trkpt>
      <trkpt lat="43.67792" lon="6.99068">
        <ele>364.39999389648</ele>
        <time>2022-04-12T12:22:42.000Z</time>
      </trkpt>
      <trkpt lat="43.67792" lon="6.99068">
        <ele>364.39999389648</ele>
        <time>2022-04-12T12:22:49.000Z</time>
      </trkpt>
      <trkpt lat="43.67792" lon="6.99068">
        <ele>363.39999389648</ele>
        <time>2022-04-12T12:22:54.000Z</time>
      </trkpt>
      <trkpt lat="43.67792" lon="6.99069">
        <ele>363</ele>
        <time>2022-04-12T12:22:58.000Z</time>
      </trkpt>
      <trkpt lat="43.67791" lon="6.9907">
        <ele>363.79998779297</ele>
        <time>2022-04-12T12:23:07.000Z</time>
      </trkpt>
      <trkpt lat="43.67792" lon="6.99071">
        <ele>364.20001220703</ele>
        <time>2022-04-12T12:23:15.000Z</time>
      </trkpt>
      <trkpt lat="43.67792" lon="6.99071">
        <ele>364.39999389648</ele>
        <time>2022-04-12T12:23:21.000Z</time>
      </trkpt>
      <trkpt lat="43.67792" lon="6.99071">
        <ele>364.39999389648</ele>
        <time>2022-04-12T12:23:23.000Z</time>
      </trkpt>
      <trkpt lat="43.67791" lon="6.99071">
        <ele>363.79998779297</ele>
        <time>2022-04-12T12:23:35.000Z</time>
      </trkpt>
      <trkpt lat="43.67791" lon="6.9907">
        <ele>363.79998779297</ele>
        <time>2022-04-12T12:23:46.000Z</time>
      </trkpt>
      <trkpt lat="43.67791" lon="6.9907">
        <ele>363.79998779297</ele>
        <time>2022-04-12T12:23:55.000Z</time>
      </trkpt>
      <trkpt lat="43.67791" lon="6.99068">
        <ele>364</ele>
        <time>2022-04-12T12:24:07.000Z</time>
      </trkpt>
      <trkpt lat="43.67791" lon="6.99067">
        <ele>363.39999389648</ele>
        <time>2022-04-12T12:24:19.000Z</time>
      </trkpt>
      <trkpt lat="43.67792" lon="6.99067">
        <ele>363.79998779297</ele>
        <time>2022-04-12T12:24:30.000Z</time>
      </trkpt>
      <trkpt lat="43.67791" lon="6.99065">
        <ele>363.39999389648</ele>
        <time>2022-04-12T12:24:37.000Z</time>
      </trkpt>
      <trkpt lat="43.6779" lon="6.99064">
        <ele>363.60000610352</ele>
        <time>2022-04-12T12:24:40.000Z</time>
      </trkpt>
      <trkpt lat="43.67788" lon="6.99061">
        <ele>363.60000610352</ele>
        <time>2022-04-12T12:24:54.000Z</time>
      </trkpt>
      <trkpt lat="43.67787" lon="6.99061">
        <ele>364.20001220703</ele>
        <time>2022-04-12T12:25:06.000Z</time>
      </trkpt>
      <trkpt lat="43.67788" lon="6.99062">
        <ele>363.79998779297</ele>
        <time>2022-04-12T12:25:18.000Z</time>
      </trkpt>
      <trkpt lat="43.67789" lon="6.99063">
        <ele>363.20001220703</ele>
        <time>2022-04-12T12:25:28.000Z</time>
      </trkpt>
      <trkpt lat="43.67788" lon="6.99065">
        <ele>364.79998779297</ele>
        <time>2022-04-12T12:25:34.000Z</time>
      </trkpt>
      <trkpt lat="43.67789" lon="6.99066">
        <ele>364</ele>
        <time>2022-04-12T12:25:41.000Z</time>
      </trkpt>
      <trkpt lat="43.67789" lon="6.99066">
        <ele>363.60000610352</ele>
        <time>2022-04-12T12:25:43.000Z</time>
      </trkpt>
      <trkpt lat="43.67789" lon="6.99067">
        <ele>363.60000610352</ele>
        <time>2022-04-12T12:25:50.000Z</time>
      </trkpt>
      <trkpt lat="43.67789" lon="6.99067">
        <ele>363.79998779297</ele>
        <time>2022-04-12T12:26:00.000Z</time>
      </trkpt>
      <trkpt lat="43.67788" lon="6.99068">
        <ele>364.20001220703</ele>
        <time>2022-04-12T12:26:08.000Z</time>
      </trkpt>
      <trkpt lat="43.67788" lon="6.99069">
        <ele>364.60000610352</ele>
        <time>2022-04-12T12:26:13.000Z</time>
      </trkpt>
      <trkpt lat="43.67788" lon="6.99069">
        <ele>364.79998779297</ele>
        <time>2022-04-12T12:26:14.000Z</time>
      </trkpt>
      <trkpt lat="43.67788" lon="6.9907">
        <ele>364.20001220703</ele>
        <time>2022-04-12T12:26:20.000Z</time>
      </trkpt>
      <trkpt lat="43.67788" lon="6.99072">
        <ele>364.20001220703</ele>
        <time>2022-04-12T12:26:29.000Z</time>
      </trkpt>
      <trkpt lat="43.67788" lon="6.99074">
        <ele>364.79998779297</ele>
        <time>2022-04-12T12:26:38.000Z</time>
      </trkpt>
      <trkpt lat="43.67789" lon="6.99074">
        <ele>365.20001220703</ele>
        <time>2022-04-12T12:26:57.000Z</time>
      </trkpt>
      <trkpt lat="43.67789" lon="6.99074">
        <ele>365.20001220703</ele>
        <time>2022-04-12T12:27:08.000Z</time>
      </trkpt>
      <trkpt lat="43.67791" lon="6.99075">
        <ele>364.79998779297</ele>
        <time>2022-04-12T12:27:19.000Z</time>
      </trkpt>
      <trkpt lat="43.67791" lon="6.99075">
        <ele>364.79998779297</ele>
        <time>2022-04-12T12:27:26.000Z</time>
      </trkpt>
      <trkpt lat="43.6779" lon="6.99077">
        <ele>364.39999389648</ele>
        <time>2022-04-12T12:27:48.000Z</time>
      </trkpt>
      <trkpt lat="43.67791" lon="6.99077">
        <ele>364.39999389648</ele>
        <time>2022-04-12T12:28:04.000Z</time>
      </trkpt>
      <trkpt lat="43.6779" lon="6.99078">
        <ele>364.60000610352</ele>
        <time>2022-04-12T12:28:14.000Z</time>
      </trkpt>
      <trkpt lat="43.67789" lon="6.99076">
        <ele>364.60000610352</ele>
        <time>2022-04-12T12:28:22.000Z</time>
      </trkpt>
      <trkpt lat="43.67789" lon="6.99077">
        <ele>364.60000610352</ele>
        <time>2022-04-12T12:28:23.000Z</time>
      </trkpt>
      <trkpt lat="43.67785" lon="6.99066">
        <ele>364.79998779297</ele>
        <time>2022-04-12T12:28:28.000Z</time>
      </trkpt>
      <trkpt lat="43.67783" lon="6.99057">
        <ele>365.79998779297</ele>
        <time>2022-04-12T12:28:31.000Z</time>
      </trkpt>
      <trkpt lat="43.67781" lon="6.99054">
        <ele>366</ele>
        <time>2022-04-12T12:28:32.000Z</time>
      </trkpt>
      <trkpt lat="43.67777" lon="6.9905">
        <ele>366.79998779297</ele>
        <time>2022-04-12T12:28:34.000Z</time>
      </trkpt>
      <trkpt lat="43.67777" lon="6.99047">
        <ele>367.60000610352</ele>
        <time>2022-04-12T12:28:35.000Z</time>
      </trkpt>
      <trkpt lat="43.67776" lon="6.99043">
        <ele>368.20001220703</ele>
        <time>2022-04-12T12:28:36.000Z</time>
      </trkpt>
      <trkpt lat="43.67775" lon="6.99041">
        <ele>369</ele>
        <time>2022-04-12T12:28:37.000Z</time>
      </trkpt>
      <trkpt lat="43.67775" lon="6.99038">
        <ele>369.60000610352</ele>
        <time>2022-04-12T12:28:38.000Z</time>
      </trkpt>
      <trkpt lat="43.67776" lon="6.99031">
        <ele>371</ele>
        <time>2022-04-12T12:28:40.000Z</time>
      </trkpt>
      <trkpt lat="43.67776" lon="6.99028">
        <ele>371.39999389648</ele>
        <time>2022-04-12T12:28:41.000Z</time>
      </trkpt>
      <trkpt lat="43.67775" lon="6.9902">
        <ele>372.20001220703</ele>
        <time>2022-04-12T12:28:43.000Z</time>
      </trkpt>
      <trkpt lat="43.67774" lon="6.99014">
        <ele>373.20001220703</ele>
        <time>2022-04-12T12:28:45.000Z</time>
      </trkpt>
      <trkpt lat="43.67773" lon="6.9901">
        <ele>373.39999389648</ele>
        <time>2022-04-12T12:28:46.000Z</time>
      </trkpt>
      <trkpt lat="43.67772" lon="6.98998">
        <ele>374.39999389648</ele>
        <time>2022-04-12T12:28:50.000Z</time>
      </trkpt>
      <trkpt lat="43.67773" lon="6.98995">
        <ele>374.79998779297</ele>
        <time>2022-04-12T12:28:51.000Z</time>
      </trkpt>
      <trkpt lat="43.67774" lon="6.98986">
        <ele>376.20001220703</ele>
        <time>2022-04-12T12:28:54.000Z</time>
      </trkpt>
      <trkpt lat="43.67773" lon="6.98982">
        <ele>376.60000610352</ele>
        <time>2022-04-12T12:28:55.000Z</time>
      </trkpt>
      <trkpt lat="43.67773" lon="6.98976">
        <ele>377.20001220703</ele>
        <time>2022-04-12T12:28:57.000Z</time>
      </trkpt>
      <trkpt lat="43.67771" lon="6.98968">
        <ele>378</ele>
        <time>2022-04-12T12:29:00.000Z</time>
      </trkpt>
      <trkpt lat="43.67771" lon="6.98966">
        <ele>378.20001220703</ele>
        <time>2022-04-12T12:29:01.000Z</time>
      </trkpt>
      <trkpt lat="43.6777" lon="6.98956">
        <ele>379.20001220703</ele>
        <time>2022-04-12T12:29:05.000Z</time>
      </trkpt>
      <trkpt lat="43.6777" lon="6.98954">
        <ele>379.39999389648</ele>
        <time>2022-04-12T12:29:06.000Z</time>
      </trkpt>
      <trkpt lat="43.67772" lon="6.98945">
        <ele>380</ele>
        <time>2022-04-12T12:29:10.000Z</time>
      </trkpt>
      <trkpt lat="43.67774" lon="6.98945">
        <ele>380.39999389648</ele>
        <time>2022-04-12T12:29:11.000Z</time>
      </trkpt>
      <trkpt lat="43.6778" lon="6.98943">
        <ele>381.20001220703</ele>
        <time>2022-04-12T12:29:14.000Z</time>
      </trkpt>
      <trkpt lat="43.67782" lon="6.98943">
        <ele>381.60000610352</ele>
        <time>2022-04-12T12:29:15.000Z</time>
      </trkpt>
      <trkpt lat="43.67791" lon="6.98943">
        <ele>382.39999389648</ele>
        <time>2022-04-12T12:29:20.000Z</time>
      </trkpt>
      <trkpt lat="43.6779" lon="6.98943">
        <ele>382.60000610352</ele>
        <time>2022-04-12T12:29:21.000Z</time>
      </trkpt>
      <trkpt lat="43.6779" lon="6.98943">
        <ele>383.20001220703</ele>
        <time>2022-04-12T12:29:24.000Z</time>
      </trkpt>
      <trkpt lat="43.67791" lon="6.98942">
        <ele>383.79998779297</ele>
        <time>2022-04-12T12:29:30.000Z</time>
      </trkpt>
      <trkpt lat="43.67792" lon="6.9894">
        <ele>384</ele>
        <time>2022-04-12T12:29:32.000Z</time>
      </trkpt>
      <trkpt lat="43.67792" lon="6.98934">
        <ele>385</ele>
        <time>2022-04-12T12:29:37.000Z</time>
      </trkpt>
      <trkpt lat="43.67793" lon="6.98934">
        <ele>385.39999389648</ele>
        <time>2022-04-12T12:29:39.000Z</time>
      </trkpt>
      <trkpt lat="43.67793" lon="6.98931">
        <ele>385.39999389648</ele>
        <time>2022-04-12T12:29:48.000Z</time>
      </trkpt>
      <trkpt lat="43.67794" lon="6.9893">
        <ele>385.39999389648</ele>
        <time>2022-04-12T12:30:00.000Z</time>
      </trkpt>
      <trkpt lat="43.67797" lon="6.98928">
        <ele>385.20001220703</ele>
        <time>2022-04-12T12:30:10.000Z</time>
      </trkpt>
      <trkpt lat="43.67806" lon="6.98923">
        <ele>386</ele>
        <time>2022-04-12T12:30:16.000Z</time>
      </trkpt>
      <trkpt lat="43.67816" lon="6.98917">
        <ele>387.20001220703</ele>
        <time>2022-04-12T12:30:22.000Z</time>
      </trkpt>
      <trkpt lat="43.67826" lon="6.98912">
        <ele>388.20001220703</ele>
        <time>2022-04-12T12:30:28.000Z</time>
      </trkpt>
      <trkpt lat="43.6783" lon="6.9891">
        <ele>388.79998779297</ele>
        <time>2022-04-12T12:30:30.000Z</time>
      </trkpt>
      <trkpt lat="43.67831" lon="6.98907">
        <ele>389</ele>
        <time>2022-04-12T12:30:31.000Z</time>
      </trkpt>
      <trkpt lat="43.67832" lon="6.98904">
        <ele>389.39999389648</ele>
        <time>2022-04-12T12:30:32.000Z</time>
      </trkpt>
      <trkpt lat="43.67833" lon="6.98897">
        <ele>390</ele>
        <time>2022-04-12T12:30:34.000Z</time>
      </trkpt>
      <trkpt lat="43.67832" lon="6.98891">
        <ele>390.39999389648</ele>
        <time>2022-04-12T12:30:36.000Z</time>
      </trkpt>
      <trkpt lat="43.67829" lon="6.98882">
        <ele>391.39999389648</ele>
        <time>2022-04-12T12:30:39.000Z</time>
      </trkpt>
      <trkpt lat="43.67831" lon="6.98873">
        <ele>392.60000610352</ele>
        <time>2022-04-12T12:30:42.000Z</time>
      </trkpt>
      <trkpt lat="43.67832" lon="6.98872">
        <ele>393.20001220703</ele>
        <time>2022-04-12T12:30:43.000Z</time>
      </trkpt>
      <trkpt lat="43.67834" lon="6.9887">
        <ele>393.60000610352</ele>
        <time>2022-04-12T12:30:44.000Z</time>
      </trkpt>
      <trkpt lat="43.67836" lon="6.98868">
        <ele>394</ele>
        <time>2022-04-12T12:30:45.000Z</time>
      </trkpt>
      <trkpt lat="43.67846" lon="6.9886">
        <ele>394.60000610352</ele>
        <time>2022-04-12T12:30:50.000Z</time>
      </trkpt>
      <trkpt lat="43.67862" lon="6.98843">
        <ele>394.79998779297</ele>
        <time>2022-04-12T12:30:58.000Z</time>
      </trkpt>
      <trkpt lat="43.67864" lon="6.98841">
        <ele>395</ele>
        <time>2022-04-12T12:30:59.000Z</time>
      </trkpt>
      <trkpt lat="43.67872" lon="6.98832">
        <ele>395.60000610352</ele>
        <time>2022-04-12T12:31:03.000Z</time>
      </trkpt>
      <trkpt lat="43.67879" lon="6.98826">
        <ele>396</ele>
        <time>2022-04-12T12:31:06.000Z</time>
      </trkpt>
      <trkpt lat="43.67888" lon="6.98814">
        <ele>396.39999389648</ele>
        <time>2022-04-12T12:31:10.000Z</time>
      </trkpt>
      <trkpt lat="43.679" lon="6.9879">
        <ele>396.79998779297</ele>
        <time>2022-04-12T12:31:17.000Z</time>
      </trkpt>
      <trkpt lat="43.67915" lon="6.98755">
        <ele>397</ele>
        <time>2022-04-12T12:31:26.000Z</time>
      </trkpt>
      <trkpt lat="43.67926" lon="6.98728">
        <ele>398.39999389648</ele>
        <time>2022-04-12T12:31:33.000Z</time>
      </trkpt>
      <trkpt lat="43.67928" lon="6.98725">
        <ele>398.60000610352</ele>
        <time>2022-04-12T12:31:34.000Z</time>
      </trkpt>
      <trkpt lat="43.67937" lon="6.98699">
        <ele>399.20001220703</ele>
        <time>2022-04-12T12:31:41.000Z</time>
      </trkpt>
      <trkpt lat="43.67939" lon="6.98695">
        <ele>399.39999389648</ele>
        <time>2022-04-12T12:31:42.000Z</time>
      </trkpt>
      <trkpt lat="43.67945" lon="6.98678">
        <ele>400.20001220703</ele>
        <time>2022-04-12T12:31:47.000Z</time>
      </trkpt>
      <trkpt lat="43.67947" lon="6.98671">
        <ele>400.60000610352</ele>
        <time>2022-04-12T12:31:49.000Z</time>
      </trkpt>
      <trkpt lat="43.67949" lon="6.98664">
        <ele>400.79998779297</ele>
        <time>2022-04-12T12:31:52.000Z</time>
      </trkpt>
      <trkpt lat="43.67945" lon="6.98653">
        <ele>401.39999389648</ele>
        <time>2022-04-12T12:31:56.000Z</time>
      </trkpt>
      <trkpt lat="43.67945" lon="6.9865">
        <ele>401.79998779297</ele>
        <time>2022-04-12T12:31:57.000Z</time>
      </trkpt>
      <trkpt lat="43.67944" lon="6.9864">
        <ele>402.79998779297</ele>
        <time>2022-04-12T12:32:00.000Z</time>
      </trkpt>
      <trkpt lat="43.67943" lon="6.98638">
        <ele>403.20001220703</ele>
        <time>2022-04-12T12:32:01.000Z</time>
      </trkpt>
      <trkpt lat="43.67941" lon="6.98633">
        <ele>403.79998779297</ele>
        <time>2022-04-12T12:32:03.000Z</time>
      </trkpt>
      <trkpt lat="43.67939" lon="6.98631">
        <ele>404.20001220703</ele>
        <time>2022-04-12T12:32:04.000Z</time>
      </trkpt>
      <trkpt lat="43.67937" lon="6.98628">
        <ele>404.60000610352</ele>
        <time>2022-04-12T12:32:05.000Z</time>
      </trkpt>
      <trkpt lat="43.67936" lon="6.98624">
        <ele>405.60000610352</ele>
        <time>2022-04-12T12:32:07.000Z</time>
      </trkpt>
      <trkpt lat="43.67933" lon="6.98619">
        <ele>406.60000610352</ele>
        <time>2022-04-12T12:32:09.000Z</time>
      </trkpt>
      <trkpt lat="43.6793" lon="6.98612">
        <ele>408</ele>
        <time>2022-04-12T12:32:12.000Z</time>
      </trkpt>
      <trkpt lat="43.67928" lon="6.98604">
        <ele>409.20001220703</ele>
        <time>2022-04-12T12:32:15.000Z</time>
      </trkpt>
      <trkpt lat="43.67927" lon="6.98601">
        <ele>409.60000610352</ele>
        <time>2022-04-12T12:32:16.000Z</time>
      </trkpt>
      <trkpt lat="43.67924" lon="6.98596">
        <ele>410.60000610352</ele>
        <time>2022-04-12T12:32:18.000Z</time>
      </trkpt>
      <trkpt lat="43.67921" lon="6.98593">
        <ele>411.20001220703</ele>
        <time>2022-04-12T12:32:20.000Z</time>
      </trkpt>
      <trkpt lat="43.67916" lon="6.98588">
        <ele>411.60000610352</ele>
        <time>2022-04-12T12:32:23.000Z</time>
      </trkpt>
      <trkpt lat="43.67914" lon="6.98585">
        <ele>411.79998779297</ele>
        <time>2022-04-12T12:32:24.000Z</time>
      </trkpt>
      <trkpt lat="43.67912" lon="6.98583">
        <ele>412</ele>
        <time>2022-04-12T12:32:25.000Z</time>
      </trkpt>
      <trkpt lat="43.67909" lon="6.9858">
        <ele>412.79998779297</ele>
        <time>2022-04-12T12:32:27.000Z</time>
      </trkpt>
      <trkpt lat="43.67904" lon="6.98575">
        <ele>414</ele>
        <time>2022-04-12T12:32:30.000Z</time>
      </trkpt>
      <trkpt lat="43.67902" lon="6.98573">
        <ele>414.20001220703</ele>
        <time>2022-04-12T12:32:31.000Z</time>
      </trkpt>
      <trkpt lat="43.67896" lon="6.98566">
        <ele>415.20001220703</ele>
        <time>2022-04-12T12:32:35.000Z</time>
      </trkpt>
      <trkpt lat="43.67895" lon="6.98563">
        <ele>415.60000610352</ele>
        <time>2022-04-12T12:32:36.000Z</time>
      </trkpt>
      <trkpt lat="43.67892" lon="6.98551">
        <ele>416.39999389648</ele>
        <time>2022-04-12T12:32:40.000Z</time>
      </trkpt>
      <trkpt lat="43.67891" lon="6.98549">
        <ele>416.39999389648</ele>
        <time>2022-04-12T12:32:41.000Z</time>
      </trkpt>
      <trkpt lat="43.67888" lon="6.98534">
        <ele>417.39999389648</ele>
        <time>2022-04-12T12:32:46.000Z</time>
      </trkpt>
      <trkpt lat="43.67887" lon="6.98531">
        <ele>417.60000610352</ele>
        <time>2022-04-12T12:32:47.000Z</time>
      </trkpt>
      <trkpt lat="43.67888" lon="6.98528">
        <ele>418</ele>
        <time>2022-04-12T12:32:48.000Z</time>
      </trkpt>
      <trkpt lat="43.67887" lon="6.9852">
        <ele>418.20001220703</ele>
        <time>2022-04-12T12:32:51.000Z</time>
      </trkpt>
      <trkpt lat="43.67888" lon="6.98518">
        <ele>418.60000610352</ele>
        <time>2022-04-12T12:32:52.000Z</time>
      </trkpt>
      <trkpt lat="43.67889" lon="6.98512">
        <ele>418.79998779297</ele>
        <time>2022-04-12T12:32:54.000Z</time>
      </trkpt>
      <trkpt lat="43.67888" lon="6.98509">
        <ele>419</ele>
        <time>2022-04-12T12:32:55.000Z</time>
      </trkpt>
      <trkpt lat="43.67888" lon="6.98507">
        <ele>419.20001220703</ele>
        <time>2022-04-12T12:32:56.000Z</time>
      </trkpt>
      <trkpt lat="43.67888" lon="6.98499">
        <ele>419.79998779297</ele>
        <time>2022-04-12T12:32:59.000Z</time>
      </trkpt>
      <trkpt lat="43.67888" lon="6.98493">
        <ele>420.20001220703</ele>
        <time>2022-04-12T12:33:01.000Z</time>
      </trkpt>
      <trkpt lat="43.67889" lon="6.98486">
        <ele>420.79998779297</ele>
        <time>2022-04-12T12:33:03.000Z</time>
      </trkpt>
      <trkpt lat="43.67889" lon="6.98482">
        <ele>420.79998779297</ele>
        <time>2022-04-12T12:33:04.000Z</time>
      </trkpt>
      <trkpt lat="43.67889" lon="6.98476">
        <ele>421.20001220703</ele>
        <time>2022-04-12T12:33:06.000Z</time>
      </trkpt>
      <trkpt lat="43.67888" lon="6.98466">
        <ele>422</ele>
        <time>2022-04-12T12:33:09.000Z</time>
      </trkpt>
      <trkpt lat="43.67887" lon="6.98457">
        <ele>423</ele>
        <time>2022-04-12T12:33:12.000Z</time>
      </trkpt>
      <trkpt lat="43.67886" lon="6.98454">
        <ele>423.20001220703</ele>
        <time>2022-04-12T12:33:13.000Z</time>
      </trkpt>
      <trkpt lat="43.6788" lon="6.98442">
        <ele>424</ele>
        <time>2022-04-12T12:33:17.000Z</time>
      </trkpt>
      <trkpt lat="43.67875" lon="6.98429">
        <ele>425.20001220703</ele>
        <time>2022-04-12T12:33:21.000Z</time>
      </trkpt>
      <trkpt lat="43.67869" lon="6.98418">
        <ele>426.60000610352</ele>
        <time>2022-04-12T12:33:25.000Z</time>
      </trkpt>
      <trkpt lat="43.67865" lon="6.98409">
        <ele>427.60000610352</ele>
        <time>2022-04-12T12:33:28.000Z</time>
      </trkpt>
      <trkpt lat="43.67861" lon="6.98396">
        <ele>428.79998779297</ele>
        <time>2022-04-12T12:33:32.000Z</time>
      </trkpt>
      <trkpt lat="43.67857" lon="6.98383">
        <ele>429.79998779297</ele>
        <time>2022-04-12T12:33:36.000Z</time>
      </trkpt>
      <trkpt lat="43.67852" lon="6.9837">
        <ele>430.79998779297</ele>
        <time>2022-04-12T12:33:40.000Z</time>
      </trkpt>
      <trkpt lat="43.67847" lon="6.98361">
        <ele>431</ele>
        <time>2022-04-12T12:33:43.000Z</time>
      </trkpt>
      <trkpt lat="43.6783" lon="6.98328">
        <ele>431.60000610352</ele>
        <time>2022-04-12T12:33:52.000Z</time>
      </trkpt>
      <trkpt lat="43.67815" lon="6.98283">
        <ele>431.79998779297</ele>
        <time>2022-04-12T12:34:02.000Z</time>
      </trkpt>
      <trkpt lat="43.67814" lon="6.98253">
        <ele>432.39999389648</ele>
        <time>2022-04-12T12:34:08.000Z</time>
      </trkpt>
      <trkpt lat="43.67813" lon="6.98212">
        <ele>433</ele>
        <time>2022-04-12T12:34:17.000Z</time>
      </trkpt>
      <trkpt lat="43.67813" lon="6.98208">
        <ele>433.20001220703</ele>
        <time>2022-04-12T12:34:18.000Z</time>
      </trkpt>
      <trkpt lat="43.67812" lon="6.98197">
        <ele>433.39999389648</ele>
        <time>2022-04-12T12:34:23.000Z</time>
      </trkpt>
      <trkpt lat="43.67813" lon="6.98196">
        <ele>433.60000610352</ele>
        <time>2022-04-12T12:34:30.000Z</time>
      </trkpt>
      <trkpt lat="43.67812" lon="6.98196">
        <ele>432.39999389648</ele>
        <time>2022-04-12T12:34:39.000Z</time>
      </trkpt>
      <trkpt lat="43.67812" lon="6.98194">
        <ele>433</ele>
        <time>2022-04-12T12:34:48.000Z</time>
      </trkpt>
      <trkpt lat="43.67811" lon="6.98195">
        <ele>433.60000610352</ele>
        <time>2022-04-12T12:35:13.000Z</time>
      </trkpt>
      <trkpt lat="43.6781" lon="6.98195">
        <ele>433</ele>
        <time>2022-04-12T12:35:40.000Z</time>
      </trkpt>
      <trkpt lat="43.6781" lon="6.98195">
        <ele>432.79998779297</ele>
        <time>2022-04-12T12:36:02.000Z</time>
      </trkpt>
      <trkpt lat="43.67811" lon="6.98194">
        <ele>432.60000610352</ele>
        <time>2022-04-12T12:36:19.000Z</time>
      </trkpt>
      <trkpt lat="43.67811" lon="6.98195">
        <ele>432.60000610352</ele>
        <time>2022-04-12T12:36:38.000Z</time>
      </trkpt>
      <trkpt lat="43.67811" lon="6.98193">
        <ele>432.20001220703</ele>
        <time>2022-04-12T12:36:57.000Z</time>
      </trkpt>
      <trkpt lat="43.67811" lon="6.98191">
        <ele>432.20001220703</ele>
        <time>2022-04-12T12:37:22.000Z</time>
      </trkpt>
      <trkpt lat="43.67811" lon="6.98192">
        <ele>432.39999389648</ele>
        <time>2022-04-12T12:37:39.000Z</time>
      </trkpt>
      <trkpt lat="43.67812" lon="6.98193">
        <ele>432.60000610352</ele>
        <time>2022-04-12T12:37:57.000Z</time>
      </trkpt>
      <trkpt lat="43.67812" lon="6.98194">
        <ele>432.60000610352</ele>
        <time>2022-04-12T12:38:18.000Z</time>
      </trkpt>
      <trkpt lat="43.67812" lon="6.98194">
        <ele>432.60000610352</ele>
        <time>2022-04-12T12:38:44.000Z</time>
      </trkpt>
      <trkpt lat="43.67812" lon="6.98194">
        <ele>433</ele>
        <time>2022-04-12T12:39:06.000Z</time>
      </trkpt>
      <trkpt lat="43.67812" lon="6.98194">
        <ele>433</ele>
        <time>2022-04-12T12:39:25.000Z</time>
      </trkpt>
      <trkpt lat="43.67812" lon="6.98194">
        <ele>433</ele>
        <time>2022-04-12T12:39:40.000Z</time>
      </trkpt>
      <trkpt lat="43.67811" lon="6.98195">
        <ele>432.79998779297</ele>
        <time>2022-04-12T12:39:56.000Z</time>
      </trkpt>
      <trkpt lat="43.67811" lon="6.98195">
        <ele>433.20001220703</ele>
        <time>2022-04-12T12:40:11.000Z</time>
      </trkpt>
      <trkpt lat="43.67811" lon="6.98195">
        <ele>433</ele>
        <time>2022-04-12T12:40:30.000Z</time>
      </trkpt>
      <trkpt lat="43.67811" lon="6.98194">
        <ele>433.39999389648</ele>
        <time>2022-04-12T12:40:43.000Z</time>
      </trkpt>
      <trkpt lat="43.6781" lon="6.98194">
        <ele>433.39999389648</ele>
        <time>2022-04-12T12:40:51.000Z</time>
      </trkpt>
      <trkpt lat="43.6781" lon="6.98194">
        <ele>434</ele>
        <time>2022-04-12T12:40:54.000Z</time>
      </trkpt>
      <trkpt lat="43.67808" lon="6.98195">
        <ele>434.20001220703</ele>
        <time>2022-04-12T12:41:00.000Z</time>
      </trkpt>
      <trkpt lat="43.67809" lon="6.98205">
        <ele>433.60000610352</ele>
        <time>2022-04-12T12:41:03.000Z</time>
      </trkpt>
      <trkpt lat="43.6781" lon="6.98218">
        <ele>433.60000610352</ele>
        <time>2022-04-12T12:41:06.000Z</time>
      </trkpt>
      <trkpt lat="43.67811" lon="6.98236">
        <ele>433.60000610352</ele>
        <time>2022-04-12T12:41:10.000Z</time>
      </trkpt>
      <trkpt lat="43.67812" lon="6.98273">
        <ele>433.20001220703</ele>
        <time>2022-04-12T12:41:18.000Z</time>
      </trkpt>
      <trkpt lat="43.67813" lon="6.98278">
        <ele>433</ele>
        <time>2022-04-12T12:41:19.000Z</time>
      </trkpt>
      <trkpt lat="43.67819" lon="6.98306">
        <ele>432.20001220703</ele>
        <time>2022-04-12T12:41:25.000Z</time>
      </trkpt>
      <trkpt lat="43.67837" lon="6.98343">
        <ele>432.60000610352</ele>
        <time>2022-04-12T12:41:33.000Z</time>
      </trkpt>
      <trkpt lat="43.67854" lon="6.98374">
        <ele>432</ele>
        <time>2022-04-12T12:41:41.000Z</time>
      </trkpt>
      <trkpt lat="43.67858" lon="6.98388">
        <ele>431.79998779297</ele>
        <time>2022-04-12T12:41:44.000Z</time>
      </trkpt>
      <trkpt lat="43.67859" lon="6.98401">
        <ele>431.20001220703</ele>
        <time>2022-04-12T12:41:47.000Z</time>
      </trkpt>
      <trkpt lat="43.67863" lon="6.98405">
        <ele>430.60000610352</ele>
        <time>2022-04-12T12:41:49.000Z</time>
      </trkpt>
      <trkpt lat="43.67868" lon="6.98411">
        <ele>430</ele>
        <time>2022-04-12T12:41:51.000Z</time>
      </trkpt>
      <trkpt lat="43.67875" lon="6.98423">
        <ele>429.60000610352</ele>
        <time>2022-04-12T12:41:53.000Z</time>
      </trkpt>
      <trkpt lat="43.67877" lon="6.98429">
        <ele>429.39999389648</ele>
        <time>2022-04-12T12:41:54.000Z</time>
      </trkpt>
      <trkpt lat="43.67879" lon="6.98435">
        <ele>429</ele>
        <time>2022-04-12T12:41:55.000Z</time>
      </trkpt>
      <trkpt lat="43.67884" lon="6.98445">
        <ele>428</ele>
        <time>2022-04-12T12:41:57.000Z</time>
      </trkpt>
      <trkpt lat="43.67887" lon="6.98452">
        <ele>426.60000610352</ele>
        <time>2022-04-12T12:41:59.000Z</time>
      </trkpt>
      <trkpt lat="43.67888" lon="6.98454">
        <ele>426.20001220703</ele>
        <time>2022-04-12T12:42:00.000Z</time>
      </trkpt>
      <trkpt lat="43.6789" lon="6.9846">
        <ele>425.20001220703</ele>
        <time>2022-04-12T12:42:02.000Z</time>
      </trkpt>
      <trkpt lat="43.67892" lon="6.9846">
        <ele>425</ele>
        <time>2022-04-12T12:42:03.000Z</time>
      </trkpt>
      <trkpt lat="43.67894" lon="6.98458">
        <ele>424.39999389648</ele>
        <time>2022-04-12T12:42:05.000Z</time>
      </trkpt>
      <trkpt lat="43.67893" lon="6.98454">
        <ele>424</ele>
        <time>2022-04-12T12:42:07.000Z</time>
      </trkpt>
      <trkpt lat="43.6789" lon="6.98449">
        <ele>424.20001220703</ele>
        <time>2022-04-12T12:42:09.000Z</time>
      </trkpt>
      <trkpt lat="43.67879" lon="6.98434">
        <ele>425</ele>
        <time>2022-04-12T12:42:14.000Z</time>
      </trkpt>
      <trkpt lat="43.67877" lon="6.98431">
        <ele>425.20001220703</ele>
        <time>2022-04-12T12:42:15.000Z</time>
      </trkpt>
      <trkpt lat="43.67871" lon="6.98415">
        <ele>426.39999389648</ele>
        <time>2022-04-12T12:42:19.000Z</time>
      </trkpt>
      <trkpt lat="43.67869" lon="6.98413">
        <ele>427</ele>
        <time>2022-04-12T12:42:20.000Z</time>
      </trkpt>
      <trkpt lat="43.67865" lon="6.98408">
        <ele>428</ele>
        <time>2022-04-12T12:42:22.000Z</time>
      </trkpt>
      <trkpt lat="43.6786" lon="6.98396">
        <ele>429</ele>
        <time>2022-04-12T12:42:25.000Z</time>
      </trkpt>
      <trkpt lat="43.67857" lon="6.9838">
        <ele>430.39999389648</ele>
        <time>2022-04-12T12:42:29.000Z</time>
      </trkpt>
      <trkpt lat="43.67856" lon="6.98372">
        <ele>431.20001220703</ele>
        <time>2022-04-12T12:42:31.000Z</time>
      </trkpt>
      <trkpt lat="43.67858" lon="6.98363">
        <ele>431.60000610352</ele>
        <time>2022-04-12T12:42:33.000Z</time>
      </trkpt>
      <trkpt lat="43.67861" lon="6.98356">
        <ele>432.20001220703</ele>
        <time>2022-04-12T12:42:35.000Z</time>
      </trkpt>
      <trkpt lat="43.67866" lon="6.98341">
        <ele>432.79998779297</ele>
        <time>2022-04-12T12:42:39.000Z</time>
      </trkpt>
      <trkpt lat="43.67874" lon="6.98323">
        <ele>433.79998779297</ele>
        <time>2022-04-12T12:42:44.000Z</time>
      </trkpt>
      <trkpt lat="43.67875" lon="6.9832">
        <ele>434.20001220703</ele>
        <time>2022-04-12T12:42:45.000Z</time>
      </trkpt>
      <trkpt lat="43.6788" lon="6.98317">
        <ele>434.60000610352</ele>
        <time>2022-04-12T12:42:47.000Z</time>
      </trkpt>
      <trkpt lat="43.67883" lon="6.98318">
        <ele>434.79998779297</ele>
        <time>2022-04-12T12:42:48.000Z</time>
      </trkpt>
      <trkpt lat="43.67891" lon="6.98323">
        <ele>435.20001220703</ele>
        <time>2022-04-12T12:42:51.000Z</time>
      </trkpt>
      <trkpt lat="43.67903" lon="6.9833">
        <ele>435.39999389648</ele>
        <time>2022-04-12T12:42:55.000Z</time>
      </trkpt>
      <trkpt lat="43.67926" lon="6.98334">
        <ele>436</ele>
        <time>2022-04-12T12:43:03.000Z</time>
      </trkpt>
      <trkpt lat="43.67928" lon="6.98331">
        <ele>436.20001220703</ele>
        <time>2022-04-12T12:43:04.000Z</time>
      </trkpt>
      <trkpt lat="43.67932" lon="6.98321">
        <ele>436.39999389648</ele>
        <time>2022-04-12T12:43:07.000Z</time>
      </trkpt>
      <trkpt lat="43.67934" lon="6.98317">
        <ele>436.39999389648</ele>
        <time>2022-04-12T12:43:08.000Z</time>
      </trkpt>
      <trkpt lat="43.67938" lon="6.98305">
        <ele>437.39999389648</ele>
        <time>2022-04-12T12:43:12.000Z</time>
      </trkpt>
      <trkpt lat="43.67939" lon="6.98302">
        <ele>438</ele>
        <time>2022-04-12T12:43:13.000Z</time>
      </trkpt>
      <trkpt lat="43.67941" lon="6.98299">
        <ele>438.39999389648</ele>
        <time>2022-04-12T12:43:14.000Z</time>
      </trkpt>
      <trkpt lat="43.67945" lon="6.98287">
        <ele>439.79998779297</ele>
        <time>2022-04-12T12:43:17.000Z</time>
      </trkpt>
      <trkpt lat="43.67949" lon="6.98276">
        <ele>441.20001220703</ele>
        <time>2022-04-12T12:43:20.000Z</time>
      </trkpt>
      <trkpt lat="43.67952" lon="6.98268">
        <ele>442.20001220703</ele>
        <time>2022-04-12T12:43:22.000Z</time>
      </trkpt>
      <trkpt lat="43.67955" lon="6.9826">
        <ele>443.39999389648</ele>
        <time>2022-04-12T12:43:24.000Z</time>
      </trkpt>
      <trkpt lat="43.67958" lon="6.98252">
        <ele>444.60000610352</ele>
        <time>2022-04-12T12:43:26.000Z</time>
      </trkpt>
      <trkpt lat="43.67961" lon="6.98245">
        <ele>445.60000610352</ele>
        <time>2022-04-12T12:43:28.000Z</time>
      </trkpt>
      <trkpt lat="43.67963" lon="6.98237">
        <ele>446.79998779297</ele>
        <time>2022-04-12T12:43:30.000Z</time>
      </trkpt>
      <trkpt lat="43.67965" lon="6.98229">
        <ele>448</ele>
        <time>2022-04-12T12:43:32.000Z</time>
      </trkpt>
      <trkpt lat="43.67967" lon="6.98225">
        <ele>448.79998779297</ele>
        <time>2022-04-12T12:43:33.000Z</time>
      </trkpt>
      <trkpt lat="43.67968" lon="6.98222">
        <ele>449.39999389648</ele>
        <time>2022-04-12T12:43:34.000Z</time>
      </trkpt>
      <trkpt lat="43.6797" lon="6.98217">
        <ele>450.79998779297</ele>
        <time>2022-04-12T12:43:36.000Z</time>
      </trkpt>
      <trkpt lat="43.67971" lon="6.98212">
        <ele>452.20001220703</ele>
        <time>2022-04-12T12:43:38.000Z</time>
      </trkpt>
      <trkpt lat="43.67971" lon="6.98211">
        <ele>452.79998779297</ele>
        <time>2022-04-12T12:43:39.000Z</time>
      </trkpt>
      <trkpt lat="43.6797" lon="6.98211">
        <ele>453.20001220703</ele>
        <time>2022-04-12T12:43:40.000Z</time>
      </trkpt>
      <trkpt lat="43.67969" lon="6.98217">
        <ele>454</ele>
        <time>2022-04-12T12:43:43.000Z</time>
      </trkpt>
      <trkpt lat="43.67969" lon="6.98218">
        <ele>453.39999389648</ele>
        <time>2022-04-12T12:43:48.000Z</time>
      </trkpt>
      <trkpt lat="43.67969" lon="6.98218">
        <ele>452.60000610352</ele>
        <time>2022-04-12T12:43:56.000Z</time>
      </trkpt>
      <trkpt lat="43.67968" lon="6.98215">
        <ele>453.20001220703</ele>
        <time>2022-04-12T12:44:02.000Z</time>
      </trkpt>
      <trkpt lat="43.67967" lon="6.98213">
        <ele>453.20001220703</ele>
        <time>2022-04-12T12:44:03.000Z</time>
      </trkpt>
      <trkpt lat="43.67967" lon="6.98211">
        <ele>454.39999389648</ele>
        <time>2022-04-12T12:44:08.000Z</time>
      </trkpt>
      <trkpt lat="43.67967" lon="6.98211">
        <ele>454.79998779297</ele>
        <time>2022-04-12T12:44:23.000Z</time>
      </trkpt>
      <trkpt lat="43.67967" lon="6.98211">
        <ele>454.60000610352</ele>
        <time>2022-04-12T12:44:31.000Z</time>
      </trkpt>
      <trkpt lat="43.67967" lon="6.9821">
        <ele>454.60000610352</ele>
        <time>2022-04-12T12:44:57.000Z</time>
      </trkpt>
      <trkpt lat="43.67967" lon="6.9821">
        <ele>455</ele>
        <time>2022-04-12T12:45:17.000Z</time>
      </trkpt>
      <trkpt lat="43.67968" lon="6.98211">
        <ele>454.39999389648</ele>
        <time>2022-04-12T12:45:26.000Z</time>
      </trkpt>
      <trkpt lat="43.67968" lon="6.98211">
        <ele>454.39999389648</ele>
        <time>2022-04-12T12:45:32.000Z</time>
      </trkpt>
      <trkpt lat="43.67968" lon="6.9821">
        <ele>454.79998779297</ele>
        <time>2022-04-12T12:45:49.000Z</time>
      </trkpt>
      <trkpt lat="43.67968" lon="6.98211">
        <ele>454.60000610352</ele>
        <time>2022-04-12T12:46:03.000Z</time>
      </trkpt>
      <trkpt lat="43.67968" lon="6.98211">
        <ele>454.60000610352</ele>
        <time>2022-04-12T12:46:20.000Z</time>
      </trkpt>
      <trkpt lat="43.67967" lon="6.98214">
        <ele>454.60000610352</ele>
        <time>2022-04-12T12:46:21.000Z</time>
      </trkpt>
      <trkpt lat="43.67965" lon="6.98224">
        <ele>454.39999389648</ele>
        <time>2022-04-12T12:46:23.000Z</time>
      </trkpt>
      <trkpt lat="43.67956" lon="6.98251">
        <ele>453.39999389648</ele>
        <time>2022-04-12T12:46:26.000Z</time>
      </trkpt>
      <trkpt lat="43.67952" lon="6.98263">
        <ele>452.60000610352</ele>
        <time>2022-04-12T12:46:27.000Z</time>
      </trkpt>
      <trkpt lat="43.67948" lon="6.98274">
        <ele>451.39999389648</ele>
        <time>2022-04-12T12:46:28.000Z</time>
      </trkpt>
      <trkpt lat="43.67944" lon="6.98285">
        <ele>449.60000610352</ele>
        <time>2022-04-12T12:46:29.000Z</time>
      </trkpt>
      <trkpt lat="43.6794" lon="6.98297">
        <ele>447.79998779297</ele>
        <time>2022-04-12T12:46:30.000Z</time>
      </trkpt>
      <trkpt lat="43.67936" lon="6.98308">
        <ele>445.39999389648</ele>
        <time>2022-04-12T12:46:31.000Z</time>
      </trkpt>
      <trkpt lat="43.67932" lon="6.98319">
        <ele>443.20001220703</ele>
        <time>2022-04-12T12:46:32.000Z</time>
      </trkpt>
      <trkpt lat="43.67928" lon="6.98328">
        <ele>441.20001220703</ele>
        <time>2022-04-12T12:46:33.000Z</time>
      </trkpt>
      <trkpt lat="43.67923" lon="6.98333">
        <ele>439.60000610352</ele>
        <time>2022-04-12T12:46:34.000Z</time>
      </trkpt>
      <trkpt lat="43.67918" lon="6.98335">
        <ele>438.20001220703</ele>
        <time>2022-04-12T12:46:35.000Z</time>
      </trkpt>
      <trkpt lat="43.67913" lon="6.98333">
        <ele>437.39999389648</ele>
        <time>2022-04-12T12:46:36.000Z</time>
      </trkpt>
      <trkpt lat="43.67908" lon="6.9833">
        <ele>436.60000610352</ele>
        <time>2022-04-12T12:46:37.000Z</time>
      </trkpt>
      <trkpt lat="43.67903" lon="6.98327">
        <ele>436.20001220703</ele>
        <time>2022-04-12T12:46:38.000Z</time>
      </trkpt>
      <trkpt lat="43.67893" lon="6.9832">
        <ele>435.79998779297</ele>
        <time>2022-04-12T12:46:40.000Z</time>
      </trkpt>
      <trkpt lat="43.67877" lon="6.98316">
        <ele>435.79998779297</ele>
        <time>2022-04-12T12:46:43.000Z</time>
      </trkpt>
      <trkpt lat="43.67874" lon="6.98321">
        <ele>435.60000610352</ele>
        <time>2022-04-12T12:46:44.000Z</time>
      </trkpt>
      <trkpt lat="43.67871" lon="6.98327">
        <ele>435.60000610352</ele>
        <time>2022-04-12T12:46:45.000Z</time>
      </trkpt>
      <trkpt lat="43.67866" lon="6.98341">
        <ele>435</ele>
        <time>2022-04-12T12:46:47.000Z</time>
      </trkpt>
      <trkpt lat="43.6786" lon="6.98355">
        <ele>434.20001220703</ele>
        <time>2022-04-12T12:46:49.000Z</time>
      </trkpt>
      <trkpt lat="43.67855" lon="6.98369">
        <ele>433</ele>
        <time>2022-04-12T12:46:52.000Z</time>
      </trkpt>
      <trkpt lat="43.67857" lon="6.98384">
        <ele>432.20001220703</ele>
        <time>2022-04-12T12:46:55.000Z</time>
      </trkpt>
      <trkpt lat="43.67858" lon="6.98389">
        <ele>432.20001220703</ele>
        <time>2022-04-12T12:46:56.000Z</time>
      </trkpt>
      <trkpt lat="43.6786" lon="6.98394">
        <ele>432</ele>
        <time>2022-04-12T12:46:57.000Z</time>
      </trkpt>
      <trkpt lat="43.6787" lon="6.98411">
        <ele>430.60000610352</ele>
        <time>2022-04-12T12:47:02.000Z</time>
      </trkpt>
      <trkpt lat="43.67875" lon="6.98424">
        <ele>429.39999389648</ele>
        <time>2022-04-12T12:47:05.000Z</time>
      </trkpt>
      <trkpt lat="43.67879" lon="6.98434">
        <ele>428.60000610352</ele>
        <time>2022-04-12T12:47:07.000Z</time>
      </trkpt>
      <trkpt lat="43.67882" lon="6.9844">
        <ele>428</ele>
        <time>2022-04-12T12:47:08.000Z</time>
      </trkpt>
      <trkpt lat="43.67887" lon="6.98451">
        <ele>426.60000610352</ele>
        <time>2022-04-12T12:47:11.000Z</time>
      </trkpt>
      <trkpt lat="43.67888" lon="6.98455">
        <ele>426.20001220703</ele>
        <time>2022-04-12T12:47:12.000Z</time>
      </trkpt>
      <trkpt lat="43.6789" lon="6.98459">
        <ele>425.60000610352</ele>
        <time>2022-04-12T12:47:14.000Z</time>
      </trkpt>
      <trkpt lat="43.67891" lon="6.98464">
        <ele>424.60000610352</ele>
        <time>2022-04-12T12:47:17.000Z</time>
      </trkpt>
      <trkpt lat="43.67891" lon="6.98466">
        <ele>424.60000610352</ele>
        <time>2022-04-12T12:47:18.000Z</time>
      </trkpt>
      <trkpt lat="43.6789" lon="6.98481">
        <ele>423.79998779297</ele>
        <time>2022-04-12T12:47:22.000Z</time>
      </trkpt>
      <trkpt lat="43.67889" lon="6.98483">
        <ele>423.39999389648</ele>
        <time>2022-04-12T12:47:23.000Z</time>
      </trkpt>
      <trkpt lat="43.67889" lon="6.98484">
        <ele>422.39999389648</ele>
        <time>2022-04-12T12:47:26.000Z</time>
      </trkpt>
      <trkpt lat="43.67889" lon="6.98484">
        <ele>422.39999389648</ele>
        <time>2022-04-12T12:47:27.000Z</time>
      </trkpt>
      <trkpt lat="43.67889" lon="6.98485">
        <ele>421.79998779297</ele>
        <time>2022-04-12T12:47:35.000Z</time>
      </trkpt>
      <trkpt lat="43.67889" lon="6.98485">
        <ele>421.39999389648</ele>
        <time>2022-04-12T12:47:37.000Z</time>
      </trkpt>
      <trkpt lat="43.67889" lon="6.98485">
        <ele>421.39999389648</ele>
        <time>2022-04-12T12:47:42.000Z</time>
      </trkpt>
      <trkpt lat="43.6789" lon="6.98486">
        <ele>421.60000610352</ele>
        <time>2022-04-12T12:47:58.000Z</time>
      </trkpt>
      <trkpt lat="43.6789" lon="6.98487">
        <ele>421.79998779297</ele>
        <time>2022-04-12T12:48:24.000Z</time>
      </trkpt>
      <trkpt lat="43.6789" lon="6.98488">
        <ele>421.79998779297</ele>
        <time>2022-04-12T12:48:43.000Z</time>
      </trkpt>
      <trkpt lat="43.6789" lon="6.98487">
        <ele>422</ele>
        <time>2022-04-12T12:48:55.000Z</time>
      </trkpt>
      <trkpt lat="43.6789" lon="6.98488">
        <ele>422</ele>
        <time>2022-04-12T12:49:03.000Z</time>
      </trkpt>
      <trkpt lat="43.6789" lon="6.98488">
        <ele>422.60000610352</ele>
        <time>2022-04-12T12:49:06.000Z</time>
      </trkpt>
      <trkpt lat="43.67891" lon="6.98497">
        <ele>422.79998779297</ele>
        <time>2022-04-12T12:49:10.000Z</time>
      </trkpt>
      <trkpt lat="43.67892" lon="6.98519">
        <ele>421.20001220703</ele>
        <time>2022-04-12T12:49:16.000Z</time>
      </trkpt>
      <trkpt lat="43.67895" lon="6.98533">
        <ele>419.60000610352</ele>
        <time>2022-04-12T12:49:19.000Z</time>
      </trkpt>
      <trkpt lat="43.67896" lon="6.98542">
        <ele>419.20001220703</ele>
        <time>2022-04-12T12:49:21.000Z</time>
      </trkpt>
      <trkpt lat="43.67897" lon="6.98547">
        <ele>418.60000610352</ele>
        <time>2022-04-12T12:49:22.000Z</time>
      </trkpt>
      <trkpt lat="43.67906" lon="6.98563">
        <ele>417.79998779297</ele>
        <time>2022-04-12T12:49:26.000Z</time>
      </trkpt>
      <trkpt lat="43.67911" lon="6.98569">
        <ele>417.60000610352</ele>
        <time>2022-04-12T12:49:28.000Z</time>
      </trkpt>
      <trkpt lat="43.6792" lon="6.98578">
        <ele>416.39999389648</ele>
        <time>2022-04-12T12:49:31.000Z</time>
      </trkpt>
      <trkpt lat="43.67923" lon="6.98582">
        <ele>415.20001220703</ele>
        <time>2022-04-12T12:49:32.000Z</time>
      </trkpt>
      <trkpt lat="43.67928" lon="6.98588">
        <ele>414.20001220703</ele>
        <time>2022-04-12T12:49:34.000Z</time>
      </trkpt>
      <trkpt lat="43.67932" lon="6.98597">
        <ele>413</ele>
        <time>2022-04-12T12:49:36.000Z</time>
      </trkpt>
      <trkpt lat="43.67937" lon="6.98612">
        <ele>412</ele>
        <time>2022-04-12T12:49:39.000Z</time>
      </trkpt>
      <trkpt lat="43.67939" lon="6.98616">
        <ele>410.79998779297</ele>
        <time>2022-04-12T12:49:40.000Z</time>
      </trkpt>
      <trkpt lat="43.6794" lon="6.98619">
        <ele>409.79998779297</ele>
        <time>2022-04-12T12:49:41.000Z</time>
      </trkpt>
      <trkpt lat="43.67945" lon="6.98626">
        <ele>408.39999389648</ele>
        <time>2022-04-12T12:49:43.000Z</time>
      </trkpt>
      <trkpt lat="43.67949" lon="6.98632">
        <ele>407</ele>
        <time>2022-04-12T12:49:45.000Z</time>
      </trkpt>
      <trkpt lat="43.67952" lon="6.98635">
        <ele>407</ele>
        <time>2022-04-12T12:49:46.000Z</time>
      </trkpt>
      <trkpt lat="43.67958" lon="6.98641">
        <ele>405.60000610352</ele>
        <time>2022-04-12T12:49:48.000Z</time>
      </trkpt>
      <trkpt lat="43.67964" lon="6.98645">
        <ele>404.39999389648</ele>
        <time>2022-04-12T12:49:50.000Z</time>
      </trkpt>
      <trkpt lat="43.67966" lon="6.98647">
        <ele>404.20001220703</ele>
        <time>2022-04-12T12:49:51.000Z</time>
      </trkpt>
      <trkpt lat="43.67968" lon="6.98651">
        <ele>403.20001220703</ele>
        <time>2022-04-12T12:49:53.000Z</time>
      </trkpt>
      <trkpt lat="43.67969" lon="6.98652">
        <ele>403.20001220703</ele>
        <time>2022-04-12T12:49:54.000Z</time>
      </trkpt>
      <trkpt lat="43.6797" lon="6.98653">
        <ele>403.20001220703</ele>
        <time>2022-04-12T12:49:55.000Z</time>
      </trkpt>
      <trkpt lat="43.67978" lon="6.98659">
        <ele>404.39999389648</ele>
        <time>2022-04-12T12:50:00.000Z</time>
      </trkpt>
      <trkpt lat="43.67979" lon="6.98661">
        <ele>405</ele>
        <time>2022-04-12T12:50:01.000Z</time>
      </trkpt>
      <trkpt lat="43.6798" lon="6.98662">
        <ele>405.39999389648</ele>
        <time>2022-04-12T12:50:02.000Z</time>
      </trkpt>
      <trkpt lat="43.67986" lon="6.9867">
        <ele>406.39999389648</ele>
        <time>2022-04-12T12:50:06.000Z</time>
      </trkpt>
      <trkpt lat="43.67989" lon="6.98671">
        <ele>406.60000610352</ele>
        <time>2022-04-12T12:50:07.000Z</time>
      </trkpt>
      <trkpt lat="43.67996" lon="6.98673">
        <ele>407.60000610352</ele>
        <time>2022-04-12T12:50:10.000Z</time>
      </trkpt>
      <trkpt lat="43.67998" lon="6.98673">
        <ele>408.20001220703</ele>
        <time>2022-04-12T12:50:11.000Z</time>
      </trkpt>
      <trkpt lat="43.68001" lon="6.98673">
        <ele>408.79998779297</ele>
        <time>2022-04-12T12:50:12.000Z</time>
      </trkpt>
      <trkpt lat="43.68005" lon="6.9867">
        <ele>410.20001220703</ele>
        <time>2022-04-12T12:50:14.000Z</time>
      </trkpt>
      <trkpt lat="43.68008" lon="6.9867">
        <ele>411.20001220703</ele>
        <time>2022-04-12T12:50:15.000Z</time>
      </trkpt>
      <trkpt lat="43.6801" lon="6.9867">
        <ele>411.79998779297</ele>
        <time>2022-04-12T12:50:16.000Z</time>
      </trkpt>
      <trkpt lat="43.68019" lon="6.98674">
        <ele>413.20001220703</ele>
        <time>2022-04-12T12:50:19.000Z</time>
      </trkpt>
      <trkpt lat="43.68022" lon="6.98675">
        <ele>413.39999389648</ele>
        <time>2022-04-12T12:50:20.000Z</time>
      </trkpt>
      <trkpt lat="43.68034" lon="6.98678">
        <ele>414.20001220703</ele>
        <time>2022-04-12T12:50:24.000Z</time>
      </trkpt>
      <trkpt lat="43.68047" lon="6.98691">
        <ele>415.20001220703</ele>
        <time>2022-04-12T12:50:29.000Z</time>
      </trkpt>
      <trkpt lat="43.68057" lon="6.98701">
        <ele>416.39999389648</ele>
        <time>2022-04-12T12:50:33.000Z</time>
      </trkpt>
      <trkpt lat="43.68065" lon="6.9871">
        <ele>416.79998779297</ele>
        <time>2022-04-12T12:50:36.000Z</time>
      </trkpt>
      <trkpt lat="43.68068" lon="6.98719">
        <ele>416.79998779297</ele>
        <time>2022-04-12T12:50:38.000Z</time>
      </trkpt>
      <trkpt lat="43.6807" lon="6.98738">
        <ele>417.20001220703</ele>
        <time>2022-04-12T12:50:42.000Z</time>
      </trkpt>
      <trkpt lat="43.68074" lon="6.9876">
        <ele>417</ele>
        <time>2022-04-12T12:50:47.000Z</time>
      </trkpt>
      <trkpt lat="43.68075" lon="6.98777">
        <ele>416.20001220703</ele>
        <time>2022-04-12T12:50:50.000Z</time>
      </trkpt>
      <trkpt lat="43.68076" lon="6.98789">
        <ele>415.79998779297</ele>
        <time>2022-04-12T12:50:52.000Z</time>
      </trkpt>
      <trkpt lat="43.68077" lon="6.98801">
        <ele>415.60000610352</ele>
        <time>2022-04-12T12:50:54.000Z</time>
      </trkpt>
      <trkpt lat="43.68079" lon="6.98805">
        <ele>415.20001220703</ele>
        <time>2022-04-12T12:50:55.000Z</time>
      </trkpt>
      <trkpt lat="43.68081" lon="6.98808">
        <ele>414.79998779297</ele>
        <time>2022-04-12T12:50:56.000Z</time>
      </trkpt>
      <trkpt lat="43.68095" lon="6.98819">
        <ele>415</ele>
        <time>2022-04-12T12:51:01.000Z</time>
      </trkpt>
      <trkpt lat="43.68111" lon="6.98831">
        <ele>416.39999389648</ele>
        <time>2022-04-12T12:51:06.000Z</time>
      </trkpt>
      <trkpt lat="43.68113" lon="6.98835">
        <ele>416.60000610352</ele>
        <time>2022-04-12T12:51:07.000Z</time>
      </trkpt>
      <trkpt lat="43.68119" lon="6.98854">
        <ele>416.60000610352</ele>
        <time>2022-04-12T12:51:11.000Z</time>
      </trkpt>
      <trkpt lat="43.68122" lon="6.9886">
        <ele>416.79998779297</ele>
        <time>2022-04-12T12:51:13.000Z</time>
      </trkpt>
      <trkpt lat="43.68123" lon="6.98861">
        <ele>416.60000610352</ele>
        <time>2022-04-12T12:51:14.000Z</time>
      </trkpt>
      <trkpt lat="43.68129" lon="6.98867">
        <ele>416.79998779297</ele>
        <time>2022-04-12T12:51:18.000Z</time>
      </trkpt>
      <trkpt lat="43.68131" lon="6.9887">
        <ele>417.20001220703</ele>
        <time>2022-04-12T12:51:19.000Z</time>
      </trkpt>
      <trkpt lat="43.68133" lon="6.98877">
        <ele>417.60000610352</ele>
        <time>2022-04-12T12:51:21.000Z</time>
      </trkpt>
      <trkpt lat="43.68136" lon="6.98883">
        <ele>418</ele>
        <time>2022-04-12T12:51:23.000Z</time>
      </trkpt>
      <trkpt lat="43.68145" lon="6.98884">
        <ele>418.79998779297</ele>
        <time>2022-04-12T12:51:28.000Z</time>
      </trkpt>
      <trkpt lat="43.68157" lon="6.98886">
        <ele>419.79998779297</ele>
        <time>2022-04-12T12:51:32.000Z</time>
      </trkpt>
      <trkpt lat="43.68159" lon="6.98884">
        <ele>420</ele>
        <time>2022-04-12T12:51:33.000Z</time>
      </trkpt>
      <trkpt lat="43.68167" lon="6.98871">
        <ele>421.20001220703</ele>
        <time>2022-04-12T12:51:37.000Z</time>
      </trkpt>
      <trkpt lat="43.68171" lon="6.9886">
        <ele>422.60000610352</ele>
        <time>2022-04-12T12:51:40.000Z</time>
      </trkpt>
      <trkpt lat="43.68174" lon="6.98852">
        <ele>423.39999389648</ele>
        <time>2022-04-12T12:51:42.000Z</time>
      </trkpt>
      <trkpt lat="43.68175" lon="6.98848">
        <ele>424</ele>
        <time>2022-04-12T12:51:43.000Z</time>
      </trkpt>
      <trkpt lat="43.68178" lon="6.98841">
        <ele>425</ele>
        <time>2022-04-12T12:51:45.000Z</time>
      </trkpt>
      <trkpt lat="43.68182" lon="6.98829">
        <ele>426.39999389648</ele>
        <time>2022-04-12T12:51:48.000Z</time>
      </trkpt>
      <trkpt lat="43.68185" lon="6.98814">
        <ele>427</ele>
        <time>2022-04-12T12:51:52.000Z</time>
      </trkpt>
      <trkpt lat="43.68188" lon="6.98811">
        <ele>427.20001220703</ele>
        <time>2022-04-12T12:51:54.000Z</time>
      </trkpt>
      <trkpt lat="43.6819" lon="6.98811">
        <ele>427.39999389648</ele>
        <time>2022-04-12T12:51:55.000Z</time>
      </trkpt>
      <trkpt lat="43.68192" lon="6.98811">
        <ele>427.60000610352</ele>
        <time>2022-04-12T12:51:56.000Z</time>
      </trkpt>
      <trkpt lat="43.682" lon="6.98812">
        <ele>428.79998779297</ele>
        <time>2022-04-12T12:51:59.000Z</time>
      </trkpt>
      <trkpt lat="43.68208" lon="6.98812">
        <ele>429.79998779297</ele>
        <time>2022-04-12T12:52:02.000Z</time>
      </trkpt>
      <trkpt lat="43.68211" lon="6.98811">
        <ele>430.20001220703</ele>
        <time>2022-04-12T12:52:03.000Z</time>
      </trkpt>
      <trkpt lat="43.68218" lon="6.98809">
        <ele>430.79998779297</ele>
        <time>2022-04-12T12:52:06.000Z</time>
      </trkpt>
      <trkpt lat="43.68217" lon="6.98809">
        <ele>431.20001220703</ele>
        <time>2022-04-12T12:52:07.000Z</time>
      </trkpt>
      <trkpt lat="43.68218" lon="6.98808">
        <ele>432.20001220703</ele>
        <time>2022-04-12T12:52:10.000Z</time>
      </trkpt>
      <trkpt lat="43.68219" lon="6.98808">
        <ele>432.39999389648</ele>
        <time>2022-04-12T12:52:13.000Z</time>
      </trkpt>
      <trkpt lat="43.6822" lon="6.98809">
        <ele>432.20001220703</ele>
        <time>2022-04-12T12:52:20.000Z</time>
      </trkpt>
      <trkpt lat="43.68221" lon="6.98809">
        <ele>432.20001220703</ele>
        <time>2022-04-12T12:52:34.000Z</time>
      </trkpt>
      <trkpt lat="43.68221" lon="6.98809">
        <ele>432.20001220703</ele>
        <time>2022-04-12T12:52:42.000Z</time>
      </trkpt>
      <trkpt lat="43.68221" lon="6.98809">
        <ele>432.39999389648</ele>
        <time>2022-04-12T12:52:49.000Z</time>
      </trkpt>
      <trkpt lat="43.68221" lon="6.98809">
        <ele>432</ele>
        <time>2022-04-12T12:52:58.000Z</time>
      </trkpt>
      <trkpt lat="43.68221" lon="6.98809">
        <ele>432.39999389648</ele>
        <time>2022-04-12T12:53:08.000Z</time>
      </trkpt>
      <trkpt lat="43.68221" lon="6.98808">
        <ele>432.20001220703</ele>
        <time>2022-04-12T12:53:20.000Z</time>
      </trkpt>
      <trkpt lat="43.68221" lon="6.98809">
        <ele>431.79998779297</ele>
        <time>2022-04-12T12:53:25.000Z</time>
      </trkpt>
      <trkpt lat="43.68222" lon="6.98809">
        <ele>431.20001220703</ele>
        <time>2022-04-12T12:53:36.000Z</time>
      </trkpt>
      <trkpt lat="43.68222" lon="6.98809">
        <ele>432.20001220703</ele>
        <time>2022-04-12T12:53:43.000Z</time>
      </trkpt>
      <trkpt lat="43.68222" lon="6.98808">
        <ele>432.79998779297</ele>
        <time>2022-04-12T12:53:51.000Z</time>
      </trkpt>
      <trkpt lat="43.68222" lon="6.98807">
        <ele>432.39999389648</ele>
        <time>2022-04-12T12:54:04.000Z</time>
      </trkpt>
      <trkpt lat="43.68222" lon="6.98804">
        <ele>432.39999389648</ele>
        <time>2022-04-12T12:54:17.000Z</time>
      </trkpt>
      <trkpt lat="43.68221" lon="6.98803">
        <ele>432.20001220703</ele>
        <time>2022-04-12T12:54:40.000Z</time>
      </trkpt>
      <trkpt lat="43.68221" lon="6.98804">
        <ele>432.39999389648</ele>
        <time>2022-04-12T12:54:56.000Z</time>
      </trkpt>
      <trkpt lat="43.68219" lon="6.98804">
        <ele>432.20001220703</ele>
        <time>2022-04-12T12:55:02.000Z</time>
      </trkpt>
      <trkpt lat="43.6822" lon="6.98805">
        <ele>432.20001220703</ele>
        <time>2022-04-12T12:55:07.000Z</time>
      </trkpt>
      <trkpt lat="43.68221" lon="6.98807">
        <ele>432.60000610352</ele>
        <time>2022-04-12T12:55:12.000Z</time>
      </trkpt>
      <trkpt lat="43.68222" lon="6.98808">
        <ele>432.60000610352</ele>
        <time>2022-04-12T12:55:13.000Z</time>
      </trkpt>
      <trkpt lat="43.6823" lon="6.98807">
        <ele>432.60000610352</ele>
        <time>2022-04-12T12:55:17.000Z</time>
      </trkpt>
      <trkpt lat="43.68238" lon="6.98811">
        <ele>433.39999389648</ele>
        <time>2022-04-12T12:55:20.000Z</time>
      </trkpt>
      <trkpt lat="43.68239" lon="6.98814">
        <ele>433.79998779297</ele>
        <time>2022-04-12T12:55:21.000Z</time>
      </trkpt>
      <trkpt lat="43.68241" lon="6.9882">
        <ele>434.20001220703</ele>
        <time>2022-04-12T12:55:23.000Z</time>
      </trkpt>
      <trkpt lat="43.68241" lon="6.98823">
        <ele>434.39999389648</ele>
        <time>2022-04-12T12:55:24.000Z</time>
      </trkpt>
      <trkpt lat="43.68242" lon="6.98827">
        <ele>434.79998779297</ele>
        <time>2022-04-12T12:55:26.000Z</time>
      </trkpt>
      <trkpt lat="43.68241" lon="6.98828">
        <ele>434.79998779297</ele>
        <time>2022-04-12T12:55:27.000Z</time>
      </trkpt>
      <trkpt lat="43.68239" lon="6.98836">
        <ele>435.20001220703</ele>
        <time>2022-04-12T12:55:30.000Z</time>
      </trkpt>
      <trkpt lat="43.68239" lon="6.98839">
        <ele>435.39999389648</ele>
        <time>2022-04-12T12:55:31.000Z</time>
      </trkpt>
      <trkpt lat="43.68238" lon="6.98847">
        <ele>435.60000610352</ele>
        <time>2022-04-12T12:55:33.000Z</time>
      </trkpt>
      <trkpt lat="43.68239" lon="6.98854">
        <ele>435.79998779297</ele>
        <time>2022-04-12T12:55:35.000Z</time>
      </trkpt>
      <trkpt lat="43.68243" lon="6.98873">
        <ele>436.60000610352</ele>
        <time>2022-04-12T12:55:40.000Z</time>
      </trkpt>
      <trkpt lat="43.68244" lon="6.98884">
        <ele>437</ele>
        <time>2022-04-12T12:55:43.000Z</time>
      </trkpt>
      <trkpt lat="43.68242" lon="6.98896">
        <ele>437.60000610352</ele>
        <time>2022-04-12T12:55:46.000Z</time>
      </trkpt>
      <trkpt lat="43.68241" lon="6.98905">
        <ele>438</ele>
        <time>2022-04-12T12:55:48.000Z</time>
      </trkpt>
      <trkpt lat="43.68241" lon="6.9893">
        <ele>437.60000610352</ele>
        <time>2022-04-12T12:55:54.000Z</time>
      </trkpt>
      <trkpt lat="43.68243" lon="6.98936">
        <ele>437.60000610352</ele>
        <time>2022-04-12T12:55:56.000Z</time>
      </trkpt>
      <trkpt lat="43.68248" lon="6.9894">
        <ele>437.39999389648</ele>
        <time>2022-04-12T12:55:58.000Z</time>
      </trkpt>
      <trkpt lat="43.68253" lon="6.9894">
        <ele>438.20001220703</ele>
        <time>2022-04-12T12:56:02.000Z</time>
      </trkpt>
      <trkpt lat="43.68256" lon="6.98938">
        <ele>439</ele>
        <time>2022-04-12T12:56:04.000Z</time>
      </trkpt>
      <trkpt lat="43.6826" lon="6.98937">
        <ele>439.79998779297</ele>
        <time>2022-04-12T12:56:06.000Z</time>
      </trkpt>
      <trkpt lat="43.68262" lon="6.98937">
        <ele>440.20001220703</ele>
        <time>2022-04-12T12:56:07.000Z</time>
      </trkpt>
      <trkpt lat="43.68268" lon="6.98935">
        <ele>441.39999389648</ele>
        <time>2022-04-12T12:56:10.000Z</time>
      </trkpt>
      <trkpt lat="43.68273" lon="6.98937">
        <ele>442.39999389648</ele>
        <time>2022-04-12T12:56:12.000Z</time>
      </trkpt>
      <trkpt lat="43.68277" lon="6.9894">
        <ele>443.60000610352</ele>
        <time>2022-04-12T12:56:14.000Z</time>
      </trkpt>
      <trkpt lat="43.68279" lon="6.98942">
        <ele>444.20001220703</ele>
        <time>2022-04-12T12:56:15.000Z</time>
      </trkpt>
      <trkpt lat="43.68281" lon="6.98944">
        <ele>444.79998779297</ele>
        <time>2022-04-12T12:56:16.000Z</time>
      </trkpt>
      <trkpt lat="43.68287" lon="6.98947">
        <ele>446.20001220703</ele>
        <time>2022-04-12T12:56:19.000Z</time>
      </trkpt>
      <trkpt lat="43.6829" lon="6.98947">
        <ele>447</ele>
        <time>2022-04-12T12:56:21.000Z</time>
      </trkpt>
      <trkpt lat="43.68293" lon="6.98947">
        <ele>447.39999389648</ele>
        <time>2022-04-12T12:56:22.000Z</time>
      </trkpt>
      <trkpt lat="43.68299" lon="6.9895">
        <ele>449.20001220703</ele>
        <time>2022-04-12T12:56:25.000Z</time>
      </trkpt>
      <trkpt lat="43.683" lon="6.98952">
        <ele>449.60000610352</ele>
        <time>2022-04-12T12:56:26.000Z</time>
      </trkpt>
      <trkpt lat="43.68302" lon="6.98954">
        <ele>450.20001220703</ele>
        <time>2022-04-12T12:56:27.000Z</time>
      </trkpt>
      <trkpt lat="43.68309" lon="6.98964">
        <ele>451.20001220703</ele>
        <time>2022-04-12T12:56:31.000Z</time>
      </trkpt>
      <trkpt lat="43.68313" lon="6.98969">
        <ele>451.60000610352</ele>
        <time>2022-04-12T12:56:33.000Z</time>
      </trkpt>
      <trkpt lat="43.68323" lon="6.98983">
        <ele>452.39999389648</ele>
        <time>2022-04-12T12:56:39.000Z</time>
      </trkpt>
      <trkpt lat="43.68324" lon="6.98986">
        <ele>452.60000610352</ele>
        <time>2022-04-12T12:56:40.000Z</time>
      </trkpt>
      <trkpt lat="43.68334" lon="6.98995">
        <ele>453.20001220703</ele>
        <time>2022-04-12T12:56:45.000Z</time>
      </trkpt>
      <trkpt lat="43.68337" lon="6.99">
        <ele>453.60000610352</ele>
        <time>2022-04-12T12:56:47.000Z</time>
      </trkpt>
      <trkpt lat="43.68341" lon="6.99009">
        <ele>453.79998779297</ele>
        <time>2022-04-12T12:56:50.000Z</time>
      </trkpt>
      <trkpt lat="43.68342" lon="6.99012">
        <ele>453.79998779297</ele>
        <time>2022-04-12T12:56:51.000Z</time>
      </trkpt>
      <trkpt lat="43.68344" lon="6.99024">
        <ele>453.79998779297</ele>
        <time>2022-04-12T12:56:54.000Z</time>
      </trkpt>
      <trkpt lat="43.68348" lon="6.99034">
        <ele>452.79998779297</ele>
        <time>2022-04-12T12:56:58.000Z</time>
      </trkpt>
      <trkpt lat="43.68348" lon="6.99037">
        <ele>452.60000610352</ele>
        <time>2022-04-12T12:56:59.000Z</time>
      </trkpt>
      <trkpt lat="43.68351" lon="6.99047">
        <ele>452</ele>
        <time>2022-04-12T12:57:03.000Z</time>
      </trkpt>
      <trkpt lat="43.68352" lon="6.99052">
        <ele>451.60000610352</ele>
        <time>2022-04-12T12:57:07.000Z</time>
      </trkpt>
      <trkpt lat="43.6835" lon="6.9906">
        <ele>451.60000610352</ele>
        <time>2022-04-12T12:57:11.000Z</time>
      </trkpt>
      <trkpt lat="43.68353" lon="6.99068">
        <ele>450.39999389648</ele>
        <time>2022-04-12T12:57:14.000Z</time>
      </trkpt>
      <trkpt lat="43.68353" lon="6.99071">
        <ele>450.20001220703</ele>
        <time>2022-04-12T12:57:15.000Z</time>
      </trkpt>
      <trkpt lat="43.68357" lon="6.99083">
        <ele>449.79998779297</ele>
        <time>2022-04-12T12:57:19.000Z</time>
      </trkpt>
      <trkpt lat="43.68358" lon="6.99085">
        <ele>449.39999389648</ele>
        <time>2022-04-12T12:57:20.000Z</time>
      </trkpt>
      <trkpt lat="43.6836" lon="6.99089">
        <ele>448.79998779297</ele>
        <time>2022-04-12T12:57:22.000Z</time>
      </trkpt>
      <trkpt lat="43.6836" lon="6.99091">
        <ele>448.39999389648</ele>
        <time>2022-04-12T12:57:23.000Z</time>
      </trkpt>
      <trkpt lat="43.68362" lon="6.99094">
        <ele>448.39999389648</ele>
        <time>2022-04-12T12:57:25.000Z</time>
      </trkpt>
      <trkpt lat="43.68363" lon="6.99095">
        <ele>448.20001220703</ele>
        <time>2022-04-12T12:57:29.000Z</time>
      </trkpt>
      <trkpt lat="43.68364" lon="6.99101">
        <ele>448.39999389648</ele>
        <time>2022-04-12T12:57:42.000Z</time>
      </trkpt>
      <trkpt lat="43.68364" lon="6.99104">
        <ele>448.20001220703</ele>
        <time>2022-04-12T12:57:44.000Z</time>
      </trkpt>
      <trkpt lat="43.68366" lon="6.9911">
        <ele>447.39999389648</ele>
        <time>2022-04-12T12:57:47.000Z</time>
      </trkpt>
      <trkpt lat="43.68366" lon="6.9911">
        <ele>447.20001220703</ele>
        <time>2022-04-12T12:57:48.000Z</time>
      </trkpt>
      <trkpt lat="43.68366" lon="6.99109">
        <ele>446.79998779297</ele>
        <time>2022-04-12T12:57:52.000Z</time>
      </trkpt>
      <trkpt lat="43.68366" lon="6.99112">
        <ele>446.39999389648</ele>
        <time>2022-04-12T12:58:01.000Z</time>
      </trkpt>
      <trkpt lat="43.68365" lon="6.99114">
        <ele>446.39999389648</ele>
        <time>2022-04-12T12:58:02.000Z</time>
      </trkpt>
      <trkpt lat="43.68363" lon="6.99116">
        <ele>446.60000610352</ele>
        <time>2022-04-12T12:58:04.000Z</time>
      </trkpt>
      <trkpt lat="43.68362" lon="6.99121">
        <ele>446.60000610352</ele>
        <time>2022-04-12T12:58:06.000Z</time>
      </trkpt>
      <trkpt lat="43.68361" lon="6.99125">
        <ele>445.79998779297</ele>
        <time>2022-04-12T12:58:08.000Z</time>
      </trkpt>
      <trkpt lat="43.68361" lon="6.99127">
        <ele>445</ele>
        <time>2022-04-12T12:58:09.000Z</time>
      </trkpt>
      <trkpt lat="43.6836" lon="6.99129">
        <ele>444.39999389648</ele>
        <time>2022-04-12T12:58:10.000Z</time>
      </trkpt>
      <trkpt lat="43.68359" lon="6.99133">
        <ele>443.20001220703</ele>
        <time>2022-04-12T12:58:12.000Z</time>
      </trkpt>
      <trkpt lat="43.68355" lon="6.99138">
        <ele>442.79998779297</ele>
        <time>2022-04-12T12:58:14.000Z</time>
      </trkpt>
      <trkpt lat="43.68351" lon="6.99139">
        <ele>442</ele>
        <time>2022-04-12T12:58:16.000Z</time>
      </trkpt>
      <trkpt lat="43.68346" lon="6.99138">
        <ele>441</ele>
        <time>2022-04-12T12:58:18.000Z</time>
      </trkpt>
      <trkpt lat="43.68344" lon="6.99138">
        <ele>440.39999389648</ele>
        <time>2022-04-12T12:58:19.000Z</time>
      </trkpt>
      <trkpt lat="43.68342" lon="6.99139">
        <ele>439.79998779297</ele>
        <time>2022-04-12T12:58:20.000Z</time>
      </trkpt>
      <trkpt lat="43.68336" lon="6.99142">
        <ele>438.60000610352</ele>
        <time>2022-04-12T12:58:23.000Z</time>
      </trkpt>
      <trkpt lat="43.68334" lon="6.99142">
        <ele>438</ele>
        <time>2022-04-12T12:58:24.000Z</time>
      </trkpt>
      <trkpt lat="43.6833" lon="6.99139">
        <ele>437.20001220703</ele>
        <time>2022-04-12T12:58:26.000Z</time>
      </trkpt>
      <trkpt lat="43.68325" lon="6.99137">
        <ele>436</ele>
        <time>2022-04-12T12:58:28.000Z</time>
      </trkpt>
      <trkpt lat="43.68319" lon="6.99134">
        <ele>434.39999389648</ele>
        <time>2022-04-12T12:58:30.000Z</time>
      </trkpt>
      <trkpt lat="43.68314" lon="6.99131">
        <ele>433</ele>
        <time>2022-04-12T12:58:32.000Z</time>
      </trkpt>
      <trkpt lat="43.68309" lon="6.99131">
        <ele>431.60000610352</ele>
        <time>2022-04-12T12:58:34.000Z</time>
      </trkpt>
      <trkpt lat="43.68306" lon="6.9913">
        <ele>431</ele>
        <time>2022-04-12T12:58:35.000Z</time>
      </trkpt>
      <trkpt lat="43.68304" lon="6.99129">
        <ele>430.60000610352</ele>
        <time>2022-04-12T12:58:36.000Z</time>
      </trkpt>
      <trkpt lat="43.683" lon="6.99129">
        <ele>429.79998779297</ele>
        <time>2022-04-12T12:58:37.000Z</time>
      </trkpt>
      <trkpt lat="43.68296" lon="6.9913">
        <ele>429.20001220703</ele>
        <time>2022-04-12T12:58:38.000Z</time>
      </trkpt>
      <trkpt lat="43.68287" lon="6.99128">
        <ele>427.39999389648</ele>
        <time>2022-04-12T12:58:40.000Z</time>
      </trkpt>
      <trkpt lat="43.68282" lon="6.99128">
        <ele>426.79998779297</ele>
        <time>2022-04-12T12:58:41.000Z</time>
      </trkpt>
      <trkpt lat="43.68277" lon="6.99128">
        <ele>425.79998779297</ele>
        <time>2022-04-12T12:58:42.000Z</time>
      </trkpt>
      <trkpt lat="43.68273" lon="6.9913">
        <ele>424.79998779297</ele>
        <time>2022-04-12T12:58:43.000Z</time>
      </trkpt>
      <trkpt lat="43.68266" lon="6.99127">
        <ele>422.39999389648</ele>
        <time>2022-04-12T12:58:45.000Z</time>
      </trkpt>
      <trkpt lat="43.68263" lon="6.99127">
        <ele>421.39999389648</ele>
        <time>2022-04-12T12:58:46.000Z</time>
      </trkpt>
      <trkpt lat="43.68257" lon="6.99128">
        <ele>420</ele>
        <time>2022-04-12T12:58:48.000Z</time>
      </trkpt>
      <trkpt lat="43.68255" lon="6.99131">
        <ele>419.39999389648</ele>
        <time>2022-04-12T12:58:49.000Z</time>
      </trkpt>
      <trkpt lat="43.6825" lon="6.99138">
        <ele>418.39999389648</ele>
        <time>2022-04-12T12:58:51.000Z</time>
      </trkpt>
      <trkpt lat="43.68248" lon="6.99145">
        <ele>417.60000610352</ele>
        <time>2022-04-12T12:58:52.000Z</time>
      </trkpt>
      <trkpt lat="43.68246" lon="6.9915">
        <ele>416.60000610352</ele>
        <time>2022-04-12T12:58:53.000Z</time>
      </trkpt>
      <trkpt lat="43.6824" lon="6.99157">
        <ele>415</ele>
        <time>2022-04-12T12:58:55.000Z</time>
      </trkpt>
      <trkpt lat="43.68235" lon="6.99157">
        <ele>413</ele>
        <time>2022-04-12T12:58:57.000Z</time>
      </trkpt>
      <trkpt lat="43.68233" lon="6.99158">
        <ele>412.39999389648</ele>
        <time>2022-04-12T12:58:58.000Z</time>
      </trkpt>
      <trkpt lat="43.6823" lon="6.9916">
        <ele>411.79998779297</ele>
        <time>2022-04-12T12:58:59.000Z</time>
      </trkpt>
      <trkpt lat="43.68224" lon="6.99161">
        <ele>411</ele>
        <time>2022-04-12T12:59:01.000Z</time>
      </trkpt>
      <trkpt lat="43.68218" lon="6.99162">
        <ele>410.39999389648</ele>
        <time>2022-04-12T12:59:03.000Z</time>
      </trkpt>
      <trkpt lat="43.68214" lon="6.99163">
        <ele>409.20001220703</ele>
        <time>2022-04-12T12:59:05.000Z</time>
      </trkpt>
      <trkpt lat="43.68213" lon="6.99163">
        <ele>408.20001220703</ele>
        <time>2022-04-12T12:59:07.000Z</time>
      </trkpt>
      <trkpt lat="43.68212" lon="6.99163">
        <ele>407.39999389648</ele>
        <time>2022-04-12T12:59:10.000Z</time>
      </trkpt>
      <trkpt lat="43.68212" lon="6.99165">
        <ele>407.39999389648</ele>
        <time>2022-04-12T12:59:12.000Z</time>
      </trkpt>
      <trkpt lat="43.68212" lon="6.99175">
        <ele>407.20001220703</ele>
        <time>2022-04-12T12:59:15.000Z</time>
      </trkpt>
      <trkpt lat="43.6821" lon="6.99193">
        <ele>406.20001220703</ele>
        <time>2022-04-12T12:59:19.000Z</time>
      </trkpt>
      <trkpt lat="43.68208" lon="6.99196">
        <ele>406</ele>
        <time>2022-04-12T12:59:20.000Z</time>
      </trkpt>
      <trkpt lat="43.68201" lon="6.99209">
        <ele>404.79998779297</ele>
        <time>2022-04-12T12:59:24.000Z</time>
      </trkpt>
      <trkpt lat="43.68204" lon="6.99214">
        <ele>403.60000610352</ele>
        <time>2022-04-12T12:59:26.000Z</time>
      </trkpt>
      <trkpt lat="43.6821" lon="6.99219">
        <ele>403.20001220703</ele>
        <time>2022-04-12T12:59:28.000Z</time>
      </trkpt>
      <trkpt lat="43.68212" lon="6.99222">
        <ele>403.20001220703</ele>
        <time>2022-04-12T12:59:29.000Z</time>
      </trkpt>
      <trkpt lat="43.68226" lon="6.99236">
        <ele>403.60000610352</ele>
        <time>2022-04-12T12:59:34.000Z</time>
      </trkpt>
      <trkpt lat="43.68234" lon="6.99246">
        <ele>404.20001220703</ele>
        <time>2022-04-12T12:59:38.000Z</time>
      </trkpt>
      <trkpt lat="43.68243" lon="6.99255">
        <ele>404.20001220703</ele>
        <time>2022-04-12T12:59:42.000Z</time>
      </trkpt>
      <trkpt lat="43.68256" lon="6.99273">
        <ele>403.60000610352</ele>
        <time>2022-04-12T12:59:47.000Z</time>
      </trkpt>
      <trkpt lat="43.68261" lon="6.99282">
        <ele>403.39999389648</ele>
        <time>2022-04-12T12:59:49.000Z</time>
      </trkpt>
      <trkpt lat="43.68266" lon="6.99297">
        <ele>402.60000610352</ele>
        <time>2022-04-12T12:59:52.000Z</time>
      </trkpt>
      <trkpt lat="43.68269" lon="6.99309">
        <ele>402.39999389648</ele>
        <time>2022-04-12T12:59:54.000Z</time>
      </trkpt>
      <trkpt lat="43.68274" lon="6.99324">
        <ele>402.60000610352</ele>
        <time>2022-04-12T12:59:57.000Z</time>
      </trkpt>
      <trkpt lat="43.6828" lon="6.99334">
        <ele>402.39999389648</ele>
        <time>2022-04-12T12:59:59.000Z</time>
      </trkpt>
      <trkpt lat="43.68287" lon="6.99344">
        <ele>401.39999389648</ele>
        <time>2022-04-12T13:00:01.000Z</time>
      </trkpt>
      <trkpt lat="43.68295" lon="6.99354">
        <ele>400.20001220703</ele>
        <time>2022-04-12T13:00:03.000Z</time>
      </trkpt>
      <trkpt lat="43.68307" lon="6.99368">
        <ele>399.60000610352</ele>
        <time>2022-04-12T13:00:06.000Z</time>
      </trkpt>
      <trkpt lat="43.68313" lon="6.99372">
        <ele>399.20001220703</ele>
        <time>2022-04-12T13:00:07.000Z</time>
      </trkpt>
      <trkpt lat="43.68327" lon="6.9938">
        <ele>398</ele>
        <time>2022-04-12T13:00:10.000Z</time>
      </trkpt>
      <trkpt lat="43.68335" lon="6.99385">
        <ele>397.20001220703</ele>
        <time>2022-04-12T13:00:12.000Z</time>
      </trkpt>
      <trkpt lat="43.68339" lon="6.99389">
        <ele>397</ele>
        <time>2022-04-12T13:00:13.000Z</time>
      </trkpt>
      <trkpt lat="43.68346" lon="6.99393">
        <ele>396.79998779297</ele>
        <time>2022-04-12T13:00:15.000Z</time>
      </trkpt>
      <trkpt lat="43.68353" lon="6.9939">
        <ele>396.60000610352</ele>
        <time>2022-04-12T13:00:18.000Z</time>
      </trkpt>
      <trkpt lat="43.68355" lon="6.9939">
        <ele>396.60000610352</ele>
        <time>2022-04-12T13:00:19.000Z</time>
      </trkpt>
      <trkpt lat="43.68359" lon="6.99389">
        <ele>397.20001220703</ele>
        <time>2022-04-12T13:00:21.000Z</time>
      </trkpt>
      <trkpt lat="43.68363" lon="6.99392">
        <ele>398</ele>
        <time>2022-04-12T13:00:23.000Z</time>
      </trkpt>
      <trkpt lat="43.68365" lon="6.99393">
        <ele>398.39999389648</ele>
        <time>2022-04-12T13:00:24.000Z</time>
      </trkpt>
      <trkpt lat="43.68374" lon="6.994">
        <ele>399</ele>
        <time>2022-04-12T13:00:28.000Z</time>
      </trkpt>
      <trkpt lat="43.68376" lon="6.99401">
        <ele>399.20001220703</ele>
        <time>2022-04-12T13:00:29.000Z</time>
      </trkpt>
      <trkpt lat="43.68387" lon="6.994">
        <ele>399.60000610352</ele>
        <time>2022-04-12T13:00:33.000Z</time>
      </trkpt>
      <trkpt lat="43.68394" lon="6.99399">
        <ele>400.20001220703</ele>
        <time>2022-04-12T13:00:36.000Z</time>
      </trkpt>
      <trkpt lat="43.68398" lon="6.99397">
        <ele>400.60000610352</ele>
        <time>2022-04-12T13:00:38.000Z</time>
      </trkpt>
      <trkpt lat="43.68399" lon="6.99395">
        <ele>401.20001220703</ele>
        <time>2022-04-12T13:00:39.000Z</time>
      </trkpt>
      <trkpt lat="43.684" lon="6.99393">
        <ele>401.39999389648</ele>
        <time>2022-04-12T13:00:40.000Z</time>
      </trkpt>
      <trkpt lat="43.68402" lon="6.99389">
        <ele>401.79998779297</ele>
        <time>2022-04-12T13:00:42.000Z</time>
      </trkpt>
      <trkpt lat="43.68406" lon="6.99388">
        <ele>402.60000610352</ele>
        <time>2022-04-12T13:00:44.000Z</time>
      </trkpt>
      <trkpt lat="43.6841" lon="6.99388">
        <ele>403.39999389648</ele>
        <time>2022-04-12T13:00:46.000Z</time>
      </trkpt>
      <trkpt lat="43.68412" lon="6.99389">
        <ele>403.79998779297</ele>
        <time>2022-04-12T13:00:47.000Z</time>
      </trkpt>
      <trkpt lat="43.68419" lon="6.99389">
        <ele>404.39999389648</ele>
        <time>2022-04-12T13:00:51.000Z</time>
      </trkpt>
      <trkpt lat="43.68428" lon="6.99387">
        <ele>405.39999389648</ele>
        <time>2022-04-12T13:00:55.000Z</time>
      </trkpt>
      <trkpt lat="43.68433" lon="6.99387">
        <ele>406.79998779297</ele>
        <time>2022-04-12T13:00:57.000Z</time>
      </trkpt>
      <trkpt lat="43.68441" lon="6.99391">
        <ele>408.79998779297</ele>
        <time>2022-04-12T13:01:02.000Z</time>
      </trkpt>
      <trkpt lat="43.68443" lon="6.99391">
        <ele>409.20001220703</ele>
        <time>2022-04-12T13:01:03.000Z</time>
      </trkpt>
      <trkpt lat="43.68445" lon="6.99391">
        <ele>409.39999389648</ele>
        <time>2022-04-12T13:01:04.000Z</time>
      </trkpt>
      <trkpt lat="43.6845" lon="6.99389">
        <ele>410.39999389648</ele>
        <time>2022-04-12T13:01:07.000Z</time>
      </trkpt>
      <trkpt lat="43.68454" lon="6.99386">
        <ele>411.60000610352</ele>
        <time>2022-04-12T13:01:09.000Z</time>
      </trkpt>
      <trkpt lat="43.68458" lon="6.99384">
        <ele>412.60000610352</ele>
        <time>2022-04-12T13:01:11.000Z</time>
      </trkpt>
      <trkpt lat="43.68464" lon="6.99383">
        <ele>413.79998779297</ele>
        <time>2022-04-12T13:01:14.000Z</time>
      </trkpt>
      <trkpt lat="43.68465" lon="6.99383">
        <ele>414.20001220703</ele>
        <time>2022-04-12T13:01:15.000Z</time>
      </trkpt>
      <trkpt lat="43.68467" lon="6.99383">
        <ele>415</ele>
        <time>2022-04-12T13:01:19.000Z</time>
      </trkpt>
      <trkpt lat="43.68467" lon="6.99384">
        <ele>415</ele>
        <time>2022-04-12T13:01:20.000Z</time>
      </trkpt>
      <trkpt lat="43.68467" lon="6.99383">
        <ele>415</ele>
        <time>2022-04-12T13:01:26.000Z</time>
      </trkpt>
      <trkpt lat="43.68466" lon="6.99382">
        <ele>414.60000610352</ele>
        <time>2022-04-12T13:01:32.000Z</time>
      </trkpt>
      <trkpt lat="43.68466" lon="6.99381">
        <ele>414.20001220703</ele>
        <time>2022-04-12T13:01:37.000Z</time>
      </trkpt>
      <trkpt lat="43.68467" lon="6.99378">
        <ele>414.60000610352</ele>
        <time>2022-04-12T13:01:50.000Z</time>
      </trkpt>
      <trkpt lat="43.68467" lon="6.99372">
        <ele>415</ele>
        <time>2022-04-12T13:02:06.000Z</time>
      </trkpt>
      <trkpt lat="43.68468" lon="6.99369">
        <ele>415</ele>
        <time>2022-04-12T13:02:27.000Z</time>
      </trkpt>
      <trkpt lat="43.6847" lon="6.99367">
        <ele>415.20001220703</ele>
        <time>2022-04-12T13:02:37.000Z</time>
      </trkpt>
      <trkpt lat="43.6847" lon="6.99369">
        <ele>415.60000610352</ele>
        <time>2022-04-12T13:02:45.000Z</time>
      </trkpt>
      <trkpt lat="43.6847" lon="6.99369">
        <ele>415</ele>
        <time>2022-04-12T13:02:56.000Z</time>
      </trkpt>
      <trkpt lat="43.68472" lon="6.99368">
        <ele>414.79998779297</ele>
        <time>2022-04-12T13:03:08.000Z</time>
      </trkpt>
      <trkpt lat="43.68473" lon="6.99368">
        <ele>415</ele>
        <time>2022-04-12T13:03:17.000Z</time>
      </trkpt>
      <trkpt lat="43.68475" lon="6.9937">
        <ele>415</ele>
        <time>2022-04-12T13:03:27.000Z</time>
      </trkpt>
      <trkpt lat="43.68476" lon="6.9937">
        <ele>414.79998779297</ele>
        <time>2022-04-12T13:03:33.000Z</time>
      </trkpt>
      <trkpt lat="43.68476" lon="6.99369">
        <ele>415</ele>
        <time>2022-04-12T13:03:42.000Z</time>
      </trkpt>
      <trkpt lat="43.68475" lon="6.99368">
        <ele>414.79998779297</ele>
        <time>2022-04-12T13:03:53.000Z</time>
      </trkpt>
      <trkpt lat="43.68473" lon="6.99368">
        <ele>414.79998779297</ele>
        <time>2022-04-12T13:04:03.000Z</time>
      </trkpt>
      <trkpt lat="43.68471" lon="6.99369">
        <ele>415</ele>
        <time>2022-04-12T13:04:11.000Z</time>
      </trkpt>
      <trkpt lat="43.68471" lon="6.99369">
        <ele>415.39999389648</ele>
        <time>2022-04-12T13:04:17.000Z</time>
      </trkpt>
      <trkpt lat="43.68471" lon="6.99369">
        <ele>415</ele>
        <time>2022-04-12T13:04:22.000Z</time>
      </trkpt>
      <trkpt lat="43.68474" lon="6.99371">
        <ele>415.39999389648</ele>
        <time>2022-04-12T13:04:25.000Z</time>
      </trkpt>
      <trkpt lat="43.68476" lon="6.99373">
        <ele>415.39999389648</ele>
        <time>2022-04-12T13:04:26.000Z</time>
      </trkpt>
      <trkpt lat="43.68483" lon="6.99381">
        <ele>416.20001220703</ele>
        <time>2022-04-12T13:04:30.000Z</time>
      </trkpt>
      <trkpt lat="43.68485" lon="6.99382">
        <ele>416.39999389648</ele>
        <time>2022-04-12T13:04:31.000Z</time>
      </trkpt>
      <trkpt lat="43.68486" lon="6.99385">
        <ele>416.79998779297</ele>
        <time>2022-04-12T13:04:32.000Z</time>
      </trkpt>
      <trkpt lat="43.68488" lon="6.99388">
        <ele>417.39999389648</ele>
        <time>2022-04-12T13:04:35.000Z</time>
      </trkpt>
      <trkpt lat="43.68489" lon="6.99389">
        <ele>418.39999389648</ele>
        <time>2022-04-12T13:04:39.000Z</time>
      </trkpt>
      <trkpt lat="43.6849" lon="6.99391">
        <ele>418.79998779297</ele>
        <time>2022-04-12T13:04:43.000Z</time>
      </trkpt>
      <trkpt lat="43.68492" lon="6.99393">
        <ele>419.39999389648</ele>
        <time>2022-04-12T13:04:48.000Z</time>
      </trkpt>
      <trkpt lat="43.68492" lon="6.99394">
        <ele>419.60000610352</ele>
        <time>2022-04-12T13:04:49.000Z</time>
      </trkpt>
      <trkpt lat="43.68492" lon="6.99395">
        <ele>419.79998779297</ele>
        <time>2022-04-12T13:04:50.000Z</time>
      </trkpt>
      <trkpt lat="43.68493" lon="6.99397">
        <ele>420.20001220703</ele>
        <time>2022-04-12T13:04:55.000Z</time>
      </trkpt>
      <trkpt lat="43.68494" lon="6.99398">
        <ele>420.60000610352</ele>
        <time>2022-04-12T13:04:57.000Z</time>
      </trkpt>
      <trkpt lat="43.68494" lon="6.99398">
        <ele>420.79998779297</ele>
        <time>2022-04-12T13:05:01.000Z</time>
      </trkpt>
      <trkpt lat="43.685" lon="6.99402">
        <ele>421</ele>
        <time>2022-04-12T13:05:05.000Z</time>
      </trkpt>
      <trkpt lat="43.685" lon="6.99407">
        <ele>422</ele>
        <time>2022-04-12T13:05:08.000Z</time>
      </trkpt>
      <trkpt lat="43.685" lon="6.99409">
        <ele>422.39999389648</ele>
        <time>2022-04-12T13:05:09.000Z</time>
      </trkpt>
      <trkpt lat="43.685" lon="6.9941">
        <ele>423.39999389648</ele>
        <time>2022-04-12T13:05:11.000Z</time>
      </trkpt>
      <trkpt lat="43.685" lon="6.9941">
        <ele>423.60000610352</ele>
        <time>2022-04-12T13:05:13.000Z</time>
      </trkpt>
      <trkpt lat="43.685" lon="6.99411">
        <ele>423.60000610352</ele>
        <time>2022-04-12T13:05:18.000Z</time>
      </trkpt>
      <trkpt lat="43.68502" lon="6.99414">
        <ele>423.79998779297</ele>
        <time>2022-04-12T13:05:24.000Z</time>
      </trkpt>
      <trkpt lat="43.68504" lon="6.99415">
        <ele>424.39999389648</ele>
        <time>2022-04-12T13:05:30.000Z</time>
      </trkpt>
      <trkpt lat="43.68505" lon="6.99416">
        <ele>424.60000610352</ele>
        <time>2022-04-12T13:05:31.000Z</time>
      </trkpt>
      <trkpt lat="43.68506" lon="6.99419">
        <ele>425.60000610352</ele>
        <time>2022-04-12T13:05:37.000Z</time>
      </trkpt>
      <trkpt lat="43.6851" lon="6.99421">
        <ele>426.39999389648</ele>
        <time>2022-04-12T13:05:44.000Z</time>
      </trkpt>
      <trkpt lat="43.6851" lon="6.99421">
        <ele>426.60000610352</ele>
        <time>2022-04-12T13:05:45.000Z</time>
      </trkpt>
      <trkpt lat="43.6851" lon="6.9942">
        <ele>427</ele>
        <time>2022-04-12T13:05:48.000Z</time>
      </trkpt>
      <trkpt lat="43.6851" lon="6.99422">
        <ele>427</ele>
        <time>2022-04-12T13:05:49.000Z</time>
      </trkpt>
      <trkpt lat="43.6851" lon="6.99422">
        <ele>427</ele>
        <time>2022-04-12T13:05:51.000Z</time>
      </trkpt>
      <trkpt lat="43.6851" lon="6.99424">
        <ele>427.79998779297</ele>
        <time>2022-04-12T13:05:55.000Z</time>
      </trkpt>
      <trkpt lat="43.6851" lon="6.99425">
        <ele>428</ele>
        <time>2022-04-12T13:05:57.000Z</time>
      </trkpt>
      <trkpt lat="43.6851" lon="6.99429">
        <ele>428.79998779297</ele>
        <time>2022-04-12T13:06:02.000Z</time>
      </trkpt>
      <trkpt lat="43.6851" lon="6.99431">
        <ele>429.39999389648</ele>
        <time>2022-04-12T13:06:06.000Z</time>
      </trkpt>
      <trkpt lat="43.6851" lon="6.99434">
        <ele>429.79998779297</ele>
        <time>2022-04-12T13:06:09.000Z</time>
      </trkpt>
      <trkpt lat="43.6851" lon="6.99436">
        <ele>430.60000610352</ele>
        <time>2022-04-12T13:06:14.000Z</time>
      </trkpt>
      <trkpt lat="43.68511" lon="6.99436">
        <ele>430.79998779297</ele>
        <time>2022-04-12T13:06:16.000Z</time>
      </trkpt>
      <trkpt lat="43.68512" lon="6.99439">
        <ele>431.39999389648</ele>
        <time>2022-04-12T13:06:21.000Z</time>
      </trkpt>
      <trkpt lat="43.68512" lon="6.9944">
        <ele>431.79998779297</ele>
        <time>2022-04-12T13:06:24.000Z</time>
      </trkpt>
      <trkpt lat="43.68514" lon="6.9944">
        <ele>432.60000610352</ele>
        <time>2022-04-12T13:06:28.000Z</time>
      </trkpt>
      <trkpt lat="43.68515" lon="6.99439">
        <ele>433</ele>
        <time>2022-04-12T13:06:30.000Z</time>
      </trkpt>
      <trkpt lat="43.6852" lon="6.99437">
        <ele>433.79998779297</ele>
        <time>2022-04-12T13:06:37.000Z</time>
      </trkpt>
      <trkpt lat="43.6852" lon="6.99437">
        <ele>434</ele>
        <time>2022-04-12T13:06:42.000Z</time>
      </trkpt>
      <trkpt lat="43.68522" lon="6.99437">
        <ele>434.20001220703</ele>
        <time>2022-04-12T13:06:50.000Z</time>
      </trkpt>
      <trkpt lat="43.68524" lon="6.99441">
        <ele>435</ele>
        <time>2022-04-12T13:06:56.000Z</time>
      </trkpt>
      <trkpt lat="43.68524" lon="6.99442">
        <ele>435.20001220703</ele>
        <time>2022-04-12T13:06:57.000Z</time>
      </trkpt>
      <trkpt lat="43.68524" lon="6.99446">
        <ele>436.39999389648</ele>
        <time>2022-04-12T13:07:03.000Z</time>
      </trkpt>
      <trkpt lat="43.68526" lon="6.99449">
        <ele>437.39999389648</ele>
        <time>2022-04-12T13:07:08.000Z</time>
      </trkpt>
      <trkpt lat="43.68526" lon="6.9945">
        <ele>437.60000610352</ele>
        <time>2022-04-12T13:07:09.000Z</time>
      </trkpt>
      <trkpt lat="43.68527" lon="6.99453">
        <ele>438.39999389648</ele>
        <time>2022-04-12T13:07:14.000Z</time>
      </trkpt>
      <trkpt lat="43.68527" lon="6.99455">
        <ele>438.79998779297</ele>
        <time>2022-04-12T13:07:16.000Z</time>
      </trkpt>
      <trkpt lat="43.68527" lon="6.99456">
        <ele>439.39999389648</ele>
        <time>2022-04-12T13:07:20.000Z</time>
      </trkpt>
      <trkpt lat="43.68528" lon="6.99458">
        <ele>440</ele>
        <time>2022-04-12T13:07:23.000Z</time>
      </trkpt>
      <trkpt lat="43.68528" lon="6.99459">
        <ele>440.60000610352</ele>
        <time>2022-04-12T13:07:28.000Z</time>
      </trkpt>
      <trkpt lat="43.68529" lon="6.9946">
        <ele>440.79998779297</ele>
        <time>2022-04-12T13:07:32.000Z</time>
      </trkpt>
      <trkpt lat="43.68528" lon="6.99465">
        <ele>441.20001220703</ele>
        <time>2022-04-12T13:07:39.000Z</time>
      </trkpt>
      <trkpt lat="43.68528" lon="6.99467">
        <ele>441.60000610352</ele>
        <time>2022-04-12T13:07:42.000Z</time>
      </trkpt>
      <trkpt lat="43.68528" lon="6.99472">
        <ele>442.39999389648</ele>
        <time>2022-04-12T13:07:48.000Z</time>
      </trkpt>
      <trkpt lat="43.68528" lon="6.99473">
        <ele>442.79998779297</ele>
        <time>2022-04-12T13:07:50.000Z</time>
      </trkpt>
      <trkpt lat="43.68528" lon="6.99474">
        <ele>443.20001220703</ele>
        <time>2022-04-12T13:07:55.000Z</time>
      </trkpt>
      <trkpt lat="43.68529" lon="6.99478">
        <ele>443.20001220703</ele>
        <time>2022-04-12T13:08:04.000Z</time>
      </trkpt>
      <trkpt lat="43.68529" lon="6.9948">
        <ele>443.79998779297</ele>
        <time>2022-04-12T13:08:08.000Z</time>
      </trkpt>
      <trkpt lat="43.68529" lon="6.99482">
        <ele>444.20001220703</ele>
        <time>2022-04-12T13:08:11.000Z</time>
      </trkpt>
      <trkpt lat="43.6853" lon="6.99486">
        <ele>444.79998779297</ele>
        <time>2022-04-12T13:08:15.000Z</time>
      </trkpt>
      <trkpt lat="43.68532" lon="6.99488">
        <ele>445.39999389648</ele>
        <time>2022-04-12T13:08:19.000Z</time>
      </trkpt>
      <trkpt lat="43.68534" lon="6.99489">
        <ele>446</ele>
        <time>2022-04-12T13:08:24.000Z</time>
      </trkpt>
      <trkpt lat="43.68536" lon="6.9949">
        <ele>446.20001220703</ele>
        <time>2022-04-12T13:08:27.000Z</time>
      </trkpt>
      <trkpt lat="43.68538" lon="6.9949">
        <ele>447</ele>
        <time>2022-04-12T13:08:33.000Z</time>
      </trkpt>
      <trkpt lat="43.68538" lon="6.9949">
        <ele>447.20001220703</ele>
        <time>2022-04-12T13:08:34.000Z</time>
      </trkpt>
      <trkpt lat="43.68542" lon="6.99489">
        <ele>447.60000610352</ele>
        <time>2022-04-12T13:08:40.000Z</time>
      </trkpt>
      <trkpt lat="43.68542" lon="6.9949">
        <ele>448.20001220703</ele>
        <time>2022-04-12T13:08:44.000Z</time>
      </trkpt>
      <trkpt lat="43.68543" lon="6.99489">
        <ele>448.20001220703</ele>
        <time>2022-04-12T13:08:46.000Z</time>
      </trkpt>
      <trkpt lat="43.68546" lon="6.99489">
        <ele>448.39999389648</ele>
        <time>2022-04-12T13:08:52.000Z</time>
      </trkpt>
      <trkpt lat="43.6855" lon="6.9949">
        <ele>449.20001220703</ele>
        <time>2022-04-12T13:08:58.000Z</time>
      </trkpt>
      <trkpt lat="43.68551" lon="6.9949">
        <ele>449.39999389648</ele>
        <time>2022-04-12T13:09:00.000Z</time>
      </trkpt>
      <trkpt lat="43.68555" lon="6.99494">
        <ele>449.60000610352</ele>
        <time>2022-04-12T13:09:07.000Z</time>
      </trkpt>
      <trkpt lat="43.68556" lon="6.99499">
        <ele>450.39999389648</ele>
        <time>2022-04-12T13:09:13.000Z</time>
      </trkpt>
      <trkpt lat="43.68557" lon="6.995">
        <ele>451</ele>
        <time>2022-04-12T13:09:15.000Z</time>
      </trkpt>
      <trkpt lat="43.68557" lon="6.99501">
        <ele>451.39999389648</ele>
        <time>2022-04-12T13:09:17.000Z</time>
      </trkpt>
      <trkpt lat="43.68557" lon="6.99505">
        <ele>452</ele>
        <time>2022-04-12T13:09:22.000Z</time>
      </trkpt>
      <trkpt lat="43.68557" lon="6.99508">
        <ele>452.39999389648</ele>
        <time>2022-04-12T13:09:29.000Z</time>
      </trkpt>
      <trkpt lat="43.68557" lon="6.99508">
        <ele>452.60000610352</ele>
        <time>2022-04-12T13:09:30.000Z</time>
      </trkpt>
      <trkpt lat="43.68558" lon="6.9951">
        <ele>452.79998779297</ele>
        <time>2022-04-12T13:09:35.000Z</time>
      </trkpt>
      <trkpt lat="43.6856" lon="6.99515">
        <ele>452.60000610352</ele>
        <time>2022-04-12T13:09:41.000Z</time>
      </trkpt>
      <trkpt lat="43.6856" lon="6.99518">
        <ele>452.20001220703</ele>
        <time>2022-04-12T13:09:45.000Z</time>
      </trkpt>
      <trkpt lat="43.68561" lon="6.99519">
        <ele>451.79998779297</ele>
        <time>2022-04-12T13:09:52.000Z</time>
      </trkpt>
      <trkpt lat="43.68561" lon="6.99515">
        <ele>451.79998779297</ele>
        <time>2022-04-12T13:09:57.000Z</time>
      </trkpt>
      <trkpt lat="43.68559" lon="6.9951">
        <ele>452</ele>
        <time>2022-04-12T13:10:04.000Z</time>
      </trkpt>
      <trkpt lat="43.68559" lon="6.99508">
        <ele>452</ele>
        <time>2022-04-12T13:10:10.000Z</time>
      </trkpt>
      <trkpt lat="43.68557" lon="6.99509">
        <ele>451.60000610352</ele>
        <time>2022-04-12T13:10:14.000Z</time>
      </trkpt>
      <trkpt lat="43.68557" lon="6.99509">
        <ele>451.60000610352</ele>
        <time>2022-04-12T13:10:15.000Z</time>
      </trkpt>
      <trkpt lat="43.68557" lon="6.99515">
        <ele>452</ele>
        <time>2022-04-12T13:10:20.000Z</time>
      </trkpt>
      <trkpt lat="43.68557" lon="6.99516">
        <ele>452.20001220703</ele>
        <time>2022-04-12T13:10:21.000Z</time>
      </trkpt>
      <trkpt lat="43.68557" lon="6.99519">
        <ele>453.20001220703</ele>
        <time>2022-04-12T13:10:25.000Z</time>
      </trkpt>
      <trkpt lat="43.68557" lon="6.99521">
        <ele>453.60000610352</ele>
        <time>2022-04-12T13:10:26.000Z</time>
      </trkpt>
      <trkpt lat="43.68556" lon="6.99521">
        <ele>453.79998779297</ele>
        <time>2022-04-12T13:10:29.000Z</time>
      </trkpt>
      <trkpt lat="43.68556" lon="6.99519">
        <ele>453.60000610352</ele>
        <time>2022-04-12T13:10:34.000Z</time>
      </trkpt>
      <trkpt lat="43.68556" lon="6.99512">
        <ele>452.79998779297</ele>
        <time>2022-04-12T13:10:40.000Z</time>
      </trkpt>
      <trkpt lat="43.68556" lon="6.99511">
        <ele>452.60000610352</ele>
        <time>2022-04-12T13:10:41.000Z</time>
      </trkpt>
      <trkpt lat="43.68557" lon="6.9951">
        <ele>452.39999389648</ele>
        <time>2022-04-12T13:10:42.000Z</time>
      </trkpt>
      <trkpt lat="43.68557" lon="6.9951">
        <ele>452.20001220703</ele>
        <time>2022-04-12T13:10:45.000Z</time>
      </trkpt>
      <trkpt lat="43.68559" lon="6.99509">
        <ele>451.79998779297</ele>
        <time>2022-04-12T13:10:51.000Z</time>
      </trkpt>
      <trkpt lat="43.68557" lon="6.9951">
        <ele>452</ele>
        <time>2022-04-12T13:10:57.000Z</time>
      </trkpt>
      <trkpt lat="43.68557" lon="6.99515">
        <ele>452.20001220703</ele>
        <time>2022-04-12T13:11:03.000Z</time>
      </trkpt>
      <trkpt lat="43.68557" lon="6.99519">
        <ele>453</ele>
        <time>2022-04-12T13:11:10.000Z</time>
      </trkpt>
      <trkpt lat="43.68556" lon="6.99523">
        <ele>453.39999389648</ele>
        <time>2022-04-12T13:11:15.000Z</time>
      </trkpt>
      <trkpt lat="43.68555" lon="6.99525">
        <ele>454</ele>
        <time>2022-04-12T13:11:18.000Z</time>
      </trkpt>
      <trkpt lat="43.68553" lon="6.99528">
        <ele>453.20001220703</ele>
        <time>2022-04-12T13:11:24.000Z</time>
      </trkpt>
      <trkpt lat="43.68547" lon="6.99532">
        <ele>452.79998779297</ele>
        <time>2022-04-12T13:11:29.000Z</time>
      </trkpt>
      <trkpt lat="43.68547" lon="6.99532">
        <ele>452.39999389648</ele>
        <time>2022-04-12T13:11:31.000Z</time>
      </trkpt>
      <trkpt lat="43.68548" lon="6.99531">
        <ele>452.20001220703</ele>
        <time>2022-04-12T13:11:40.000Z</time>
      </trkpt>
      <trkpt lat="43.68548" lon="6.99534">
        <ele>451.79998779297</ele>
        <time>2022-04-12T13:11:45.000Z</time>
      </trkpt>
      <trkpt lat="43.68548" lon="6.99535">
        <ele>451.79998779297</ele>
        <time>2022-04-12T13:11:46.000Z</time>
      </trkpt>
      <trkpt lat="43.6855" lon="6.99542">
        <ele>451.79998779297</ele>
        <time>2022-04-12T13:11:52.000Z</time>
      </trkpt>
      <trkpt lat="43.68553" lon="6.99547">
        <ele>452.20001220703</ele>
        <time>2022-04-12T13:11:58.000Z</time>
      </trkpt>
      <trkpt lat="43.68555" lon="6.99549">
        <ele>452.39999389648</ele>
        <time>2022-04-12T13:12:03.000Z</time>
      </trkpt>
      <trkpt lat="43.68556" lon="6.99549">
        <ele>452.39999389648</ele>
        <time>2022-04-12T13:12:04.000Z</time>
      </trkpt>
      <trkpt lat="43.6856" lon="6.9955">
        <ele>452.60000610352</ele>
        <time>2022-04-12T13:12:08.000Z</time>
      </trkpt>
      <trkpt lat="43.68561" lon="6.99552">
        <ele>452.60000610352</ele>
        <time>2022-04-12T13:12:10.000Z</time>
      </trkpt>
      <trkpt lat="43.68562" lon="6.99556">
        <ele>453</ele>
        <time>2022-04-12T13:12:13.000Z</time>
      </trkpt>
      <trkpt lat="43.68563" lon="6.99559">
        <ele>453</ele>
        <time>2022-04-12T13:12:15.000Z</time>
      </trkpt>
      <trkpt lat="43.68566" lon="6.99564">
        <ele>453.20001220703</ele>
        <time>2022-04-12T13:12:19.000Z</time>
      </trkpt>
      <trkpt lat="43.68567" lon="6.99571">
        <ele>453.39999389648</ele>
        <time>2022-04-12T13:12:24.000Z</time>
      </trkpt>
      <trkpt lat="43.68567" lon="6.99573">
        <ele>453.39999389648</ele>
        <time>2022-04-12T13:12:25.000Z</time>
      </trkpt>
      <trkpt lat="43.68567" lon="6.99576">
        <ele>453.60000610352</ele>
        <time>2022-04-12T13:12:27.000Z</time>
      </trkpt>
      <trkpt lat="43.68567" lon="6.99578">
        <ele>453.60000610352</ele>
        <time>2022-04-12T13:12:28.000Z</time>
      </trkpt>
      <trkpt lat="43.68566" lon="6.9958">
        <ele>453.79998779297</ele>
        <time>2022-04-12T13:12:30.000Z</time>
      </trkpt>
      <trkpt lat="43.68564" lon="6.99586">
        <ele>453.79998779297</ele>
        <time>2022-04-12T13:12:36.000Z</time>
      </trkpt>
      <trkpt lat="43.68564" lon="6.99587">
        <ele>453.79998779297</ele>
        <time>2022-04-12T13:12:37.000Z</time>
      </trkpt>
      <trkpt lat="43.68564" lon="6.9959">
        <ele>454</ele>
        <time>2022-04-12T13:12:41.000Z</time>
      </trkpt>
      <trkpt lat="43.68564" lon="6.99591">
        <ele>454.60000610352</ele>
        <time>2022-04-12T13:12:44.000Z</time>
      </trkpt>
      <trkpt lat="43.68565" lon="6.99591">
        <ele>455.39999389648</ele>
        <time>2022-04-12T13:12:49.000Z</time>
      </trkpt>
      <trkpt lat="43.68566" lon="6.99593">
        <ele>454.60000610352</ele>
        <time>2022-04-12T13:12:57.000Z</time>
      </trkpt>
      <trkpt lat="43.68567" lon="6.99597">
        <ele>454.39999389648</ele>
        <time>2022-04-12T13:13:13.000Z</time>
      </trkpt>
      <trkpt lat="43.68568" lon="6.99599">
        <ele>454.60000610352</ele>
        <time>2022-04-12T13:13:33.000Z</time>
      </trkpt>
      <trkpt lat="43.6857" lon="6.99599">
        <ele>454.39999389648</ele>
        <time>2022-04-12T13:13:43.000Z</time>
      </trkpt>
      <trkpt lat="43.6857" lon="6.99593">
        <ele>454.39999389648</ele>
        <time>2022-04-12T13:13:50.000Z</time>
      </trkpt>
      <trkpt lat="43.68571" lon="6.99592">
        <ele>454.20001220703</ele>
        <time>2022-04-12T13:13:51.000Z</time>
      </trkpt>
      <trkpt lat="43.68573" lon="6.99585">
        <ele>453.79998779297</ele>
        <time>2022-04-12T13:13:55.000Z</time>
      </trkpt>
      <trkpt lat="43.68573" lon="6.99579">
        <ele>453.39999389648</ele>
        <time>2022-04-12T13:13:59.000Z</time>
      </trkpt>
      <trkpt lat="43.68572" lon="6.99576">
        <ele>453.39999389648</ele>
        <time>2022-04-12T13:14:01.000Z</time>
      </trkpt>
      <trkpt lat="43.68568" lon="6.99568">
        <ele>453</ele>
        <time>2022-04-12T13:14:07.000Z</time>
      </trkpt>
      <trkpt lat="43.68565" lon="6.99562">
        <ele>453</ele>
        <time>2022-04-12T13:14:11.000Z</time>
      </trkpt>
      <trkpt lat="43.68564" lon="6.9956">
        <ele>453</ele>
        <time>2022-04-12T13:14:12.000Z</time>
      </trkpt>
      <trkpt lat="43.6856" lon="6.99555">
        <ele>452.79998779297</ele>
        <time>2022-04-12T13:14:18.000Z</time>
      </trkpt>
      <trkpt lat="43.68558" lon="6.99554">
        <ele>452.60000610352</ele>
        <time>2022-04-12T13:14:22.000Z</time>
      </trkpt>
      <trkpt lat="43.68556" lon="6.99552">
        <ele>452.60000610352</ele>
        <time>2022-04-12T13:14:25.000Z</time>
      </trkpt>
      <trkpt lat="43.68554" lon="6.99551">
        <ele>452.60000610352</ele>
        <time>2022-04-12T13:14:28.000Z</time>
      </trkpt>
      <trkpt lat="43.68553" lon="6.9955">
        <ele>452.39999389648</ele>
        <time>2022-04-12T13:14:30.000Z</time>
      </trkpt>
      <trkpt lat="43.68553" lon="6.99549">
        <ele>452</ele>
        <time>2022-04-12T13:14:31.000Z</time>
      </trkpt>
      <trkpt lat="43.6855" lon="6.99548">
        <ele>451.79998779297</ele>
        <time>2022-04-12T13:14:33.000Z</time>
      </trkpt>
      <trkpt lat="43.68548" lon="6.99541">
        <ele>451.60000610352</ele>
        <time>2022-04-12T13:14:39.000Z</time>
      </trkpt>
      <trkpt lat="43.68546" lon="6.99537">
        <ele>451.60000610352</ele>
        <time>2022-04-12T13:14:46.000Z</time>
      </trkpt>
      <trkpt lat="43.68546" lon="6.99536">
        <ele>451.20001220703</ele>
        <time>2022-04-12T13:14:49.000Z</time>
      </trkpt>
      <trkpt lat="43.68546" lon="6.99536">
        <ele>451</ele>
        <time>2022-04-12T13:14:55.000Z</time>
      </trkpt>
      <trkpt lat="43.68545" lon="6.99537">
        <ele>451.20001220703</ele>
        <time>2022-04-12T13:15:02.000Z</time>
      </trkpt>
      <trkpt lat="43.68547" lon="6.99535">
        <ele>451</ele>
        <time>2022-04-12T13:15:08.000Z</time>
      </trkpt>
      <trkpt lat="43.68546" lon="6.99537">
        <ele>451.39999389648</ele>
        <time>2022-04-12T13:15:13.000Z</time>
      </trkpt>
      <trkpt lat="43.68546" lon="6.99538">
        <ele>451.60000610352</ele>
        <time>2022-04-12T13:15:17.000Z</time>
      </trkpt>
      <trkpt lat="43.68547" lon="6.9954">
        <ele>452</ele>
        <time>2022-04-12T13:15:19.000Z</time>
      </trkpt>
      <trkpt lat="43.68549" lon="6.99545">
        <ele>452.20001220703</ele>
        <time>2022-04-12T13:15:23.000Z</time>
      </trkpt>
      <trkpt lat="43.68549" lon="6.99546">
        <ele>452.20001220703</ele>
        <time>2022-04-12T13:15:24.000Z</time>
      </trkpt>
      <trkpt lat="43.68552" lon="6.99548">
        <ele>452.39999389648</ele>
        <time>2022-04-12T13:15:31.000Z</time>
      </trkpt>
      <trkpt lat="43.68553" lon="6.9955">
        <ele>452.60000610352</ele>
        <time>2022-04-12T13:15:36.000Z</time>
      </trkpt>
      <trkpt lat="43.68556" lon="6.99552">
        <ele>452.60000610352</ele>
        <time>2022-04-12T13:15:42.000Z</time>
      </trkpt>
      <trkpt lat="43.6856" lon="6.99553">
        <ele>452.79998779297</ele>
        <time>2022-04-12T13:15:46.000Z</time>
      </trkpt>
      <trkpt lat="43.68562" lon="6.99554">
        <ele>452.79998779297</ele>
        <time>2022-04-12T13:15:48.000Z</time>
      </trkpt>
      <trkpt lat="43.68562" lon="6.99557">
        <ele>453</ele>
        <time>2022-04-12T13:15:53.000Z</time>
      </trkpt>
      <trkpt lat="43.68563" lon="6.9956">
        <ele>453</ele>
        <time>2022-04-12T13:16:03.000Z</time>
      </trkpt>
      <trkpt lat="43.68567" lon="6.99568">
        <ele>453.20001220703</ele>
        <time>2022-04-12T13:16:07.000Z</time>
      </trkpt>
      <trkpt lat="43.68567" lon="6.9957">
        <ele>453.39999389648</ele>
        <time>2022-04-12T13:16:08.000Z</time>
      </trkpt>
      <trkpt lat="43.68568" lon="6.99572">
        <ele>453.39999389648</ele>
        <time>2022-04-12T13:16:09.000Z</time>
      </trkpt>
      <trkpt lat="43.68569" lon="6.99578">
        <ele>453.79998779297</ele>
        <time>2022-04-12T13:16:12.000Z</time>
      </trkpt>
      <trkpt lat="43.68565" lon="6.99584">
        <ele>454</ele>
        <time>2022-04-12T13:16:15.000Z</time>
      </trkpt>
      <trkpt lat="43.68564" lon="6.99588">
        <ele>454.20001220703</ele>
        <time>2022-04-12T13:16:17.000Z</time>
      </trkpt>
      <trkpt lat="43.68563" lon="6.99594">
        <ele>454.39999389648</ele>
        <time>2022-04-12T13:16:21.000Z</time>
      </trkpt>
      <trkpt lat="43.68563" lon="6.99595">
        <ele>454.60000610352</ele>
        <time>2022-04-12T13:16:22.000Z</time>
      </trkpt>
      <trkpt lat="43.68569" lon="6.99595">
        <ele>455.20001220703</ele>
        <time>2022-04-12T13:16:26.000Z</time>
      </trkpt>
      <trkpt lat="43.68574" lon="6.99602">
        <ele>454.79998779297</ele>
        <time>2022-04-12T13:16:30.000Z</time>
      </trkpt>
      <trkpt lat="43.68583" lon="6.99612">
        <ele>454.79998779297</ele>
        <time>2022-04-12T13:16:36.000Z</time>
      </trkpt>
      <trkpt lat="43.68589" lon="6.99621">
        <ele>454.79998779297</ele>
        <time>2022-04-12T13:16:40.000Z</time>
      </trkpt>
      <trkpt lat="43.6859" lon="6.99623">
        <ele>454.60000610352</ele>
        <time>2022-04-12T13:16:41.000Z</time>
      </trkpt>
      <trkpt lat="43.68593" lon="6.99638">
        <ele>454.20001220703</ele>
        <time>2022-04-12T13:16:46.000Z</time>
      </trkpt>
      <trkpt lat="43.68594" lon="6.99645">
        <ele>455.60000610352</ele>
        <time>2022-04-12T13:16:49.000Z</time>
      </trkpt>
      <trkpt lat="43.68595" lon="6.99647">
        <ele>456.39999389648</ele>
        <time>2022-04-12T13:16:50.000Z</time>
      </trkpt>
      <trkpt lat="43.68597" lon="6.99649">
        <ele>456.79998779297</ele>
        <time>2022-04-12T13:16:51.000Z</time>
      </trkpt>
      <trkpt lat="43.686" lon="6.99652">
        <ele>458</ele>
        <time>2022-04-12T13:16:53.000Z</time>
      </trkpt>
      <trkpt lat="43.68604" lon="6.99656">
        <ele>458.79998779297</ele>
        <time>2022-04-12T13:16:55.000Z</time>
      </trkpt>
      <trkpt lat="43.68608" lon="6.99661">
        <ele>459</ele>
        <time>2022-04-12T13:16:57.000Z</time>
      </trkpt>
      <trkpt lat="43.68613" lon="6.99667">
        <ele>459.20001220703</ele>
        <time>2022-04-12T13:17:00.000Z</time>
      </trkpt>
      <trkpt lat="43.6862" lon="6.99683">
        <ele>459</ele>
        <time>2022-04-12T13:17:06.000Z</time>
      </trkpt>
      <trkpt lat="43.68624" lon="6.99695">
        <ele>460.60000610352</ele>
        <time>2022-04-12T13:17:11.000Z</time>
      </trkpt>
      <trkpt lat="43.68625" lon="6.99698">
        <ele>461</ele>
        <time>2022-04-12T13:17:12.000Z</time>
      </trkpt>
      <trkpt lat="43.68626" lon="6.997">
        <ele>461.60000610352</ele>
        <time>2022-04-12T13:17:13.000Z</time>
      </trkpt>
      <trkpt lat="43.68632" lon="6.99709">
        <ele>462.60000610352</ele>
        <time>2022-04-12T13:17:17.000Z</time>
      </trkpt>
      <trkpt lat="43.68639" lon="6.99721">
        <ele>463.60000610352</ele>
        <time>2022-04-12T13:17:22.000Z</time>
      </trkpt>
      <trkpt lat="43.6864" lon="6.99723">
        <ele>463.79998779297</ele>
        <time>2022-04-12T13:17:23.000Z</time>
      </trkpt>
      <trkpt lat="43.68648" lon="6.99733">
        <ele>465.20001220703</ele>
        <time>2022-04-12T13:17:27.000Z</time>
      </trkpt>
      <trkpt lat="43.68659" lon="6.99751">
        <ele>466</ele>
        <time>2022-04-12T13:17:34.000Z</time>
      </trkpt>
      <trkpt lat="43.68661" lon="6.99754">
        <ele>466.20001220703</ele>
        <time>2022-04-12T13:17:35.000Z</time>
      </trkpt>
      <trkpt lat="43.68667" lon="6.99762">
        <ele>466.60000610352</ele>
        <time>2022-04-12T13:17:38.000Z</time>
      </trkpt>
      <trkpt lat="43.68671" lon="6.99771">
        <ele>467.60000610352</ele>
        <time>2022-04-12T13:17:41.000Z</time>
      </trkpt>
      <trkpt lat="43.68673" lon="6.99778">
        <ele>468.39999389648</ele>
        <time>2022-04-12T13:17:43.000Z</time>
      </trkpt>
      <trkpt lat="43.68674" lon="6.9978">
        <ele>469.20001220703</ele>
        <time>2022-04-12T13:17:44.000Z</time>
      </trkpt>
      <trkpt lat="43.68677" lon="6.99784">
        <ele>470.60000610352</ele>
        <time>2022-04-12T13:17:46.000Z</time>
      </trkpt>
      <trkpt lat="43.68679" lon="6.99787">
        <ele>471.39999389648</ele>
        <time>2022-04-12T13:17:47.000Z</time>
      </trkpt>
      <trkpt lat="43.6868" lon="6.9979">
        <ele>472.20001220703</ele>
        <time>2022-04-12T13:17:48.000Z</time>
      </trkpt>
      <trkpt lat="43.68682" lon="6.99792">
        <ele>473</ele>
        <time>2022-04-12T13:17:49.000Z</time>
      </trkpt>
      <trkpt lat="43.68683" lon="6.99794">
        <ele>473.60000610352</ele>
        <time>2022-04-12T13:17:50.000Z</time>
      </trkpt>
      <trkpt lat="43.68685" lon="6.99797">
        <ele>474</ele>
        <time>2022-04-12T13:17:51.000Z</time>
      </trkpt>
      <trkpt lat="43.68688" lon="6.99802">
        <ele>474.79998779297</ele>
        <time>2022-04-12T13:17:53.000Z</time>
      </trkpt>
      <trkpt lat="43.68691" lon="6.99812">
        <ele>476</ele>
        <time>2022-04-12T13:17:57.000Z</time>
      </trkpt>
      <trkpt lat="43.68692" lon="6.99818">
        <ele>476.60000610352</ele>
        <time>2022-04-12T13:17:59.000Z</time>
      </trkpt>
      <trkpt lat="43.68692" lon="6.99828">
        <ele>477.20001220703</ele>
        <time>2022-04-12T13:18:02.000Z</time>
      </trkpt>
      <trkpt lat="43.68693" lon="6.9983">
        <ele>477.39999389648</ele>
        <time>2022-04-12T13:18:03.000Z</time>
      </trkpt>
      <trkpt lat="43.68694" lon="6.99836">
        <ele>478.20001220703</ele>
        <time>2022-04-12T13:18:05.000Z</time>
      </trkpt>
      <trkpt lat="43.68694" lon="6.99846">
        <ele>479.60000610352</ele>
        <time>2022-04-12T13:18:08.000Z</time>
      </trkpt>
      <trkpt lat="43.68694" lon="6.99849">
        <ele>479.79998779297</ele>
        <time>2022-04-12T13:18:09.000Z</time>
      </trkpt>
      <trkpt lat="43.68692" lon="6.99855">
        <ele>481</ele>
        <time>2022-04-12T13:18:12.000Z</time>
      </trkpt>
      <trkpt lat="43.68693" lon="6.99854">
        <ele>481.39999389648</ele>
        <time>2022-04-12T13:18:13.000Z</time>
      </trkpt>
      <trkpt lat="43.68693" lon="6.99855">
        <ele>482</ele>
        <time>2022-04-12T13:18:14.000Z</time>
      </trkpt>
      <trkpt lat="43.68693" lon="6.99857">
        <ele>483</ele>
        <time>2022-04-12T13:18:19.000Z</time>
      </trkpt>
      <trkpt lat="43.68695" lon="6.99861">
        <ele>483.20001220703</ele>
        <time>2022-04-12T13:18:25.000Z</time>
      </trkpt>
      <trkpt lat="43.68695" lon="6.99864">
        <ele>483.39999389648</ele>
        <time>2022-04-12T13:18:27.000Z</time>
      </trkpt>
      <trkpt lat="43.68694" lon="6.99867">
        <ele>483.79998779297</ele>
        <time>2022-04-12T13:18:30.000Z</time>
      </trkpt>
      <trkpt lat="43.68694" lon="6.99869">
        <ele>484.20001220703</ele>
        <time>2022-04-12T13:18:33.000Z</time>
      </trkpt>
      <trkpt lat="43.68696" lon="6.99871">
        <ele>484.39999389648</ele>
        <time>2022-04-12T13:18:35.000Z</time>
      </trkpt>
      <trkpt lat="43.68697" lon="6.99874">
        <ele>484.79998779297</ele>
        <time>2022-04-12T13:18:37.000Z</time>
      </trkpt>
      <trkpt lat="43.68697" lon="6.99876">
        <ele>485.39999389648</ele>
        <time>2022-04-12T13:18:40.000Z</time>
      </trkpt>
      <trkpt lat="43.68697" lon="6.9988">
        <ele>485.60000610352</ele>
        <time>2022-04-12T13:18:43.000Z</time>
      </trkpt>
      <trkpt lat="43.687" lon="6.99887">
        <ele>485.60000610352</ele>
        <time>2022-04-12T13:18:51.000Z</time>
      </trkpt>
      <trkpt lat="43.68701" lon="6.9989">
        <ele>485.60000610352</ele>
        <time>2022-04-12T13:18:56.000Z</time>
      </trkpt>
      <trkpt lat="43.68702" lon="6.99894">
        <ele>485.20001220703</ele>
        <time>2022-04-12T13:19:03.000Z</time>
      </trkpt>
      <trkpt lat="43.68705" lon="6.99895">
        <ele>486.20001220703</ele>
        <time>2022-04-12T13:19:10.000Z</time>
      </trkpt>
      <trkpt lat="43.68706" lon="6.99896">
        <ele>486.39999389648</ele>
        <time>2022-04-12T13:19:12.000Z</time>
      </trkpt>
      <trkpt lat="43.68707" lon="6.99897">
        <ele>486.39999389648</ele>
        <time>2022-04-12T13:19:23.000Z</time>
      </trkpt>
      <trkpt lat="43.68706" lon="6.99898">
        <ele>487.20001220703</ele>
        <time>2022-04-12T13:19:33.000Z</time>
      </trkpt>
      <trkpt lat="43.68706" lon="6.99898">
        <ele>487.20001220703</ele>
        <time>2022-04-12T13:19:40.000Z</time>
      </trkpt>
      <trkpt lat="43.68708" lon="6.99899">
        <ele>486.20001220703</ele>
        <time>2022-04-12T13:19:48.000Z</time>
      </trkpt>
      <trkpt lat="43.68709" lon="6.99902">
        <ele>485.39999389648</ele>
        <time>2022-04-12T13:19:53.000Z</time>
      </trkpt>
      <trkpt lat="43.68709" lon="6.99902">
        <ele>485.39999389648</ele>
        <time>2022-04-12T13:19:55.000Z</time>
      </trkpt>
      <trkpt lat="43.6871" lon="6.99904">
        <ele>484.39999389648</ele>
        <time>2022-04-12T13:19:59.000Z</time>
      </trkpt>
      <trkpt lat="43.6871" lon="6.99906">
        <ele>484.39999389648</ele>
        <time>2022-04-12T13:20:02.000Z</time>
      </trkpt>
      <trkpt lat="43.68713" lon="6.99908">
        <ele>484.79998779297</ele>
        <time>2022-04-12T13:20:09.000Z</time>
      </trkpt>
      <trkpt lat="43.68715" lon="6.9991">
        <ele>484.39999389648</ele>
        <time>2022-04-12T13:20:15.000Z</time>
      </trkpt>
      <trkpt lat="43.68715" lon="6.99911">
        <ele>484.39999389648</ele>
        <time>2022-04-12T13:20:19.000Z</time>
      </trkpt>
      <trkpt lat="43.68716" lon="6.99915">
        <ele>484.20001220703</ele>
        <time>2022-04-12T13:20:24.000Z</time>
      </trkpt>
      <trkpt lat="43.68717" lon="6.99915">
        <ele>484.20001220703</ele>
        <time>2022-04-12T13:20:25.000Z</time>
      </trkpt>
      <trkpt lat="43.6872" lon="6.99918">
        <ele>484.60000610352</ele>
        <time>2022-04-12T13:20:27.000Z</time>
      </trkpt>
      <trkpt lat="43.6872" lon="6.99919">
        <ele>484.60000610352</ele>
        <time>2022-04-12T13:20:28.000Z</time>
      </trkpt>
      <trkpt lat="43.68722" lon="6.99922">
        <ele>484</ele>
        <time>2022-04-12T13:20:34.000Z</time>
      </trkpt>
      <trkpt lat="43.68721" lon="6.99922">
        <ele>484.39999389648</ele>
        <time>2022-04-12T13:20:40.000Z</time>
      </trkpt>
      <trkpt lat="43.68718" lon="6.99924">
        <ele>483.79998779297</ele>
        <time>2022-04-12T13:20:46.000Z</time>
      </trkpt>
      <trkpt lat="43.68716" lon="6.99928">
        <ele>483.60000610352</ele>
        <time>2022-04-12T13:20:52.000Z</time>
      </trkpt>
      <trkpt lat="43.68716" lon="6.99929">
        <ele>483.39999389648</ele>
        <time>2022-04-12T13:20:53.000Z</time>
      </trkpt>
      <trkpt lat="43.68715" lon="6.9993">
        <ele>483</ele>
        <time>2022-04-12T13:20:57.000Z</time>
      </trkpt>
      <trkpt lat="43.68714" lon="6.99932">
        <ele>482.60000610352</ele>
        <time>2022-04-12T13:21:03.000Z</time>
      </trkpt>
      <trkpt lat="43.68714" lon="6.99933">
        <ele>482.60000610352</ele>
        <time>2022-04-12T13:21:08.000Z</time>
      </trkpt>
      <trkpt lat="43.68714" lon="6.99933">
        <ele>482.60000610352</ele>
        <time>2022-04-12T13:21:15.000Z</time>
      </trkpt>
      <trkpt lat="43.68715" lon="6.99933">
        <ele>483.20001220703</ele>
        <time>2022-04-12T13:21:21.000Z</time>
      </trkpt>
      <trkpt lat="43.68716" lon="6.99932">
        <ele>483.20001220703</ele>
        <time>2022-04-12T13:21:23.000Z</time>
      </trkpt>
      <trkpt lat="43.68716" lon="6.9993">
        <ele>482.60000610352</ele>
        <time>2022-04-12T13:21:26.000Z</time>
      </trkpt>
      <trkpt lat="43.68717" lon="6.99928">
        <ele>482.60000610352</ele>
        <time>2022-04-12T13:21:28.000Z</time>
      </trkpt>
      <trkpt lat="43.68719" lon="6.99927">
        <ele>483</ele>
        <time>2022-04-12T13:21:31.000Z</time>
      </trkpt>
      <trkpt lat="43.6872" lon="6.99927">
        <ele>483.20001220703</ele>
        <time>2022-04-12T13:21:32.000Z</time>
      </trkpt>
      <trkpt lat="43.68723" lon="6.99928">
        <ele>483.79998779297</ele>
        <time>2022-04-12T13:21:37.000Z</time>
      </trkpt>
      <trkpt lat="43.68722" lon="6.99927">
        <ele>484.39999389648</ele>
        <time>2022-04-12T13:21:43.000Z</time>
      </trkpt>
      <trkpt lat="43.68723" lon="6.99926">
        <ele>483.79998779297</ele>
        <time>2022-04-12T13:21:49.000Z</time>
      </trkpt>
      <trkpt lat="43.68724" lon="6.99926">
        <ele>484</ele>
        <time>2022-04-12T13:21:58.000Z</time>
      </trkpt>
      <trkpt lat="43.68724" lon="6.99926">
        <ele>484.39999389648</ele>
        <time>2022-04-12T13:22:02.000Z</time>
      </trkpt>
      <trkpt lat="43.68724" lon="6.99926">
        <ele>484.20001220703</ele>
        <time>2022-04-12T13:22:10.000Z</time>
      </trkpt>
      <trkpt lat="43.68726" lon="6.99928">
        <ele>484</ele>
        <time>2022-04-12T13:22:17.000Z</time>
      </trkpt>
      <trkpt lat="43.68732" lon="6.99939">
        <ele>483.39999389648</ele>
        <time>2022-04-12T13:22:22.000Z</time>
      </trkpt>
      <trkpt lat="43.68734" lon="6.99942">
        <ele>483.20001220703</ele>
        <time>2022-04-12T13:22:24.000Z</time>
      </trkpt>
      <trkpt lat="43.68738" lon="6.99945">
        <ele>483</ele>
        <time>2022-04-12T13:22:27.000Z</time>
      </trkpt>
      <trkpt lat="43.68741" lon="6.99948">
        <ele>482.20001220703</ele>
        <time>2022-04-12T13:22:31.000Z</time>
      </trkpt>
      <trkpt lat="43.68741" lon="6.99948">
        <ele>481.79998779297</ele>
        <time>2022-04-12T13:22:32.000Z</time>
      </trkpt>
      <trkpt lat="43.68742" lon="6.99947">
        <ele>481.20001220703</ele>
        <time>2022-04-12T13:22:33.000Z</time>
      </trkpt>
      <trkpt lat="43.68744" lon="6.99945">
        <ele>480.60000610352</ele>
        <time>2022-04-12T13:22:34.000Z</time>
      </trkpt>
      <trkpt lat="43.68746" lon="6.99944">
        <ele>479.79998779297</ele>
        <time>2022-04-12T13:22:36.000Z</time>
      </trkpt>
      <trkpt lat="43.68748" lon="6.99943">
        <ele>479.39999389648</ele>
        <time>2022-04-12T13:22:37.000Z</time>
      </trkpt>
      <trkpt lat="43.68749" lon="6.9994">
        <ele>478.20001220703</ele>
        <time>2022-04-12T13:22:39.000Z</time>
      </trkpt>
      <trkpt lat="43.6875" lon="6.99935">
        <ele>477.39999389648</ele>
        <time>2022-04-12T13:22:41.000Z</time>
      </trkpt>
      <trkpt lat="43.6875" lon="6.99933">
        <ele>476.79998779297</ele>
        <time>2022-04-12T13:22:42.000Z</time>
      </trkpt>
      <trkpt lat="43.68751" lon="6.99929">
        <ele>475.60000610352</ele>
        <time>2022-04-12T13:22:44.000Z</time>
      </trkpt>
      <trkpt lat="43.68752" lon="6.99927">
        <ele>474.79998779297</ele>
        <time>2022-04-12T13:22:45.000Z</time>
      </trkpt>
      <trkpt lat="43.68754" lon="6.99926">
        <ele>473.79998779297</ele>
        <time>2022-04-12T13:22:46.000Z</time>
      </trkpt>
      <trkpt lat="43.68755" lon="6.99927">
        <ele>472.79998779297</ele>
        <time>2022-04-12T13:22:47.000Z</time>
      </trkpt>
      <trkpt lat="43.68756" lon="6.99928">
        <ele>470.79998779297</ele>
        <time>2022-04-12T13:22:49.000Z</time>
      </trkpt>
      <trkpt lat="43.68756" lon="6.99928">
        <ele>470.20001220703</ele>
        <time>2022-04-12T13:22:50.000Z</time>
      </trkpt>
      <trkpt lat="43.68756" lon="6.99928">
        <ele>469.60000610352</ele>
        <time>2022-04-12T13:22:51.000Z</time>
      </trkpt>
      <trkpt lat="43.6876" lon="6.99933">
        <ele>469.20001220703</ele>
        <time>2022-04-12T13:23:03.000Z</time>
      </trkpt>
      <trkpt lat="43.68769" lon="6.9995">
        <ele>469.20001220703</ele>
        <time>2022-04-12T13:23:09.000Z</time>
      </trkpt>
      <trkpt lat="43.68781" lon="6.99964">
        <ele>468.79998779297</ele>
        <time>2022-04-12T13:23:13.000Z</time>
      </trkpt>
      <trkpt lat="43.68783" lon="6.99969">
        <ele>468.60000610352</ele>
        <time>2022-04-12T13:23:14.000Z</time>
      </trkpt>
      <trkpt lat="43.68788" lon="6.99982">
        <ele>468.20001220703</ele>
        <time>2022-04-12T13:23:17.000Z</time>
      </trkpt>
      <trkpt lat="43.68791" lon="6.99989">
        <ele>467.79998779297</ele>
        <time>2022-04-12T13:23:18.000Z</time>
      </trkpt>
      <trkpt lat="43.68799" lon="7.00002">
        <ele>467.20001220703</ele>
        <time>2022-04-12T13:23:21.000Z</time>
      </trkpt>
      <trkpt lat="43.68803" lon="7.00012">
        <ele>466</ele>
        <time>2022-04-12T13:23:23.000Z</time>
      </trkpt>
      <trkpt lat="43.68806" lon="7.00016">
        <ele>465.39999389648</ele>
        <time>2022-04-12T13:23:24.000Z</time>
      </trkpt>
      <trkpt lat="43.68809" lon="7.00021">
        <ele>464.39999389648</ele>
        <time>2022-04-12T13:23:25.000Z</time>
      </trkpt>
      <trkpt lat="43.68812" lon="7.00034">
        <ele>462.60000610352</ele>
        <time>2022-04-12T13:23:27.000Z</time>
      </trkpt>
      <trkpt lat="43.68813" lon="7.0004">
        <ele>462.39999389648</ele>
        <time>2022-04-12T13:23:28.000Z</time>
      </trkpt>
      <trkpt lat="43.68816" lon="7.00056">
        <ele>461.60000610352</ele>
        <time>2022-04-12T13:23:30.000Z</time>
      </trkpt>
      <trkpt lat="43.68819" lon="7.00071">
        <ele>460.60000610352</ele>
        <time>2022-04-12T13:23:32.000Z</time>
      </trkpt>
      <trkpt lat="43.68822" lon="7.00079">
        <ele>459.79998779297</ele>
        <time>2022-04-12T13:23:33.000Z</time>
      </trkpt>
      <trkpt lat="43.68827" lon="7.00088">
        <ele>459</ele>
        <time>2022-04-12T13:23:35.000Z</time>
      </trkpt>
      <trkpt lat="43.68828" lon="7.00093">
        <ele>458.60000610352</ele>
        <time>2022-04-12T13:23:36.000Z</time>
      </trkpt>
      <trkpt lat="43.68832" lon="7.00102">
        <ele>458.20001220703</ele>
        <time>2022-04-12T13:23:38.000Z</time>
      </trkpt>
      <trkpt lat="43.6884" lon="7.00119">
        <ele>457.79998779297</ele>
        <time>2022-04-12T13:23:42.000Z</time>
      </trkpt>
      <trkpt lat="43.68842" lon="7.00124">
        <ele>458.20001220703</ele>
        <time>2022-04-12T13:23:43.000Z</time>
      </trkpt>
      <trkpt lat="43.68851" lon="7.0015">
        <ele>459.39999389648</ele>
        <time>2022-04-12T13:23:49.000Z</time>
      </trkpt>
      <trkpt lat="43.68853" lon="7.00154">
        <ele>459.79998779297</ele>
        <time>2022-04-12T13:23:50.000Z</time>
      </trkpt>
      <trkpt lat="43.68858" lon="7.00167">
        <ele>460.60000610352</ele>
        <time>2022-04-12T13:23:54.000Z</time>
      </trkpt>
      <trkpt lat="43.6886" lon="7.00171">
        <ele>460.79998779297</ele>
        <time>2022-04-12T13:23:55.000Z</time>
      </trkpt>
      <trkpt lat="43.68865" lon="7.00181">
        <ele>461.79998779297</ele>
        <time>2022-04-12T13:23:58.000Z</time>
      </trkpt>
      <trkpt lat="43.68866" lon="7.00188">
        <ele>463.60000610352</ele>
        <time>2022-04-12T13:24:01.000Z</time>
      </trkpt>
      <trkpt lat="43.68866" lon="7.00194">
        <ele>464.60000610352</ele>
        <time>2022-04-12T13:24:03.000Z</time>
      </trkpt>
      <trkpt lat="43.68869" lon="7.00203">
        <ele>466</ele>
        <time>2022-04-12T13:24:06.000Z</time>
      </trkpt>
      <trkpt lat="43.68872" lon="7.00209">
        <ele>466.79998779297</ele>
        <time>2022-04-12T13:24:08.000Z</time>
      </trkpt>
      <trkpt lat="43.68873" lon="7.00212">
        <ele>467</ele>
        <time>2022-04-12T13:24:09.000Z</time>
      </trkpt>
      <trkpt lat="43.68877" lon="7.00228">
        <ele>467.60000610352</ele>
        <time>2022-04-12T13:24:14.000Z</time>
      </trkpt>
      <trkpt lat="43.68878" lon="7.00244">
        <ele>467</ele>
        <time>2022-04-12T13:24:20.000Z</time>
      </trkpt>
      <trkpt lat="43.68876" lon="7.0026">
        <ele>466.20001220703</ele>
        <time>2022-04-12T13:24:24.000Z</time>
      </trkpt>
      <trkpt lat="43.68875" lon="7.00263">
        <ele>465.60000610352</ele>
        <time>2022-04-12T13:24:25.000Z</time>
      </trkpt>
      <trkpt lat="43.68874" lon="7.00264">
        <ele>465.20001220703</ele>
        <time>2022-04-12T13:24:26.000Z</time>
      </trkpt>
      <trkpt lat="43.68875" lon="7.00263">
        <ele>464.60000610352</ele>
        <time>2022-04-12T13:24:27.000Z</time>
      </trkpt>
      <trkpt lat="43.68874" lon="7.00264">
        <ele>464.20001220703</ele>
        <time>2022-04-12T13:24:28.000Z</time>
      </trkpt>
      <trkpt lat="43.68872" lon="7.00265">
        <ele>464</ele>
        <time>2022-04-12T13:24:31.000Z</time>
      </trkpt>
      <trkpt lat="43.6887" lon="7.00266">
        <ele>464.20001220703</ele>
        <time>2022-04-12T13:24:33.000Z</time>
      </trkpt>
      <trkpt lat="43.68869" lon="7.00267">
        <ele>464.20001220703</ele>
        <time>2022-04-12T13:24:34.000Z</time>
      </trkpt>
      <trkpt lat="43.68873" lon="7.00276">
        <ele>464</ele>
        <time>2022-04-12T13:24:37.000Z</time>
      </trkpt>
      <trkpt lat="43.68879" lon="7.00283">
        <ele>463.20001220703</ele>
        <time>2022-04-12T13:24:39.000Z</time>
      </trkpt>
      <trkpt lat="43.68885" lon="7.00289">
        <ele>461.60000610352</ele>
        <time>2022-04-12T13:24:41.000Z</time>
      </trkpt>
      <trkpt lat="43.68889" lon="7.00302">
        <ele>459.79998779297</ele>
        <time>2022-04-12T13:24:43.000Z</time>
      </trkpt>
      <trkpt lat="43.68888" lon="7.0031">
        <ele>458.79998779297</ele>
        <time>2022-04-12T13:24:44.000Z</time>
      </trkpt>
      <trkpt lat="43.68888" lon="7.00316">
        <ele>457.60000610352</ele>
        <time>2022-04-12T13:24:45.000Z</time>
      </trkpt>
      <trkpt lat="43.68895" lon="7.00328">
        <ele>456.20001220703</ele>
        <time>2022-04-12T13:24:47.000Z</time>
      </trkpt>
      <trkpt lat="43.68896" lon="7.00335">
        <ele>455.60000610352</ele>
        <time>2022-04-12T13:24:48.000Z</time>
      </trkpt>
      <trkpt lat="43.68898" lon="7.00342">
        <ele>454.79998779297</ele>
        <time>2022-04-12T13:24:49.000Z</time>
      </trkpt>
      <trkpt lat="43.68901" lon="7.00351">
        <ele>453.79998779297</ele>
        <time>2022-04-12T13:24:50.000Z</time>
      </trkpt>
      <trkpt lat="43.68904" lon="7.0036">
        <ele>452.60000610352</ele>
        <time>2022-04-12T13:24:51.000Z</time>
      </trkpt>
      <trkpt lat="43.68907" lon="7.00368">
        <ele>450.79998779297</ele>
        <time>2022-04-12T13:24:52.000Z</time>
      </trkpt>
      <trkpt lat="43.6891" lon="7.00372">
        <ele>448.79998779297</ele>
        <time>2022-04-12T13:24:53.000Z</time>
      </trkpt>
      <trkpt lat="43.68911" lon="7.00377">
        <ele>447.20001220703</ele>
        <time>2022-04-12T13:24:54.000Z</time>
      </trkpt>
      <trkpt lat="43.68909" lon="7.00382">
        <ele>445.39999389648</ele>
        <time>2022-04-12T13:24:55.000Z</time>
      </trkpt>
      <trkpt lat="43.68907" lon="7.00387">
        <ele>444</ele>
        <time>2022-04-12T13:24:56.000Z</time>
      </trkpt>
      <trkpt lat="43.68905" lon="7.00393">
        <ele>442.60000610352</ele>
        <time>2022-04-12T13:24:57.000Z</time>
      </trkpt>
      <trkpt lat="43.68909" lon="7.00404">
        <ele>441.20001220703</ele>
        <time>2022-04-12T13:24:59.000Z</time>
      </trkpt>
      <trkpt lat="43.68912" lon="7.00413">
        <ele>439.60000610352</ele>
        <time>2022-04-12T13:25:01.000Z</time>
      </trkpt>
      <trkpt lat="43.68914" lon="7.00418">
        <ele>439</ele>
        <time>2022-04-12T13:25:02.000Z</time>
      </trkpt>
      <trkpt lat="43.68916" lon="7.00425">
        <ele>438</ele>
        <time>2022-04-12T13:25:03.000Z</time>
      </trkpt>
      <trkpt lat="43.68919" lon="7.00432">
        <ele>437.20001220703</ele>
        <time>2022-04-12T13:25:04.000Z</time>
      </trkpt>
      <trkpt lat="43.68923" lon="7.00437">
        <ele>436.60000610352</ele>
        <time>2022-04-12T13:25:05.000Z</time>
      </trkpt>
      <trkpt lat="43.68933" lon="7.00447">
        <ele>435.39999389648</ele>
        <time>2022-04-12T13:25:07.000Z</time>
      </trkpt>
      <trkpt lat="43.68945" lon="7.00453">
        <ele>434</ele>
        <time>2022-04-12T13:25:09.000Z</time>
      </trkpt>
      <trkpt lat="43.68955" lon="7.00461">
        <ele>432.60000610352</ele>
        <time>2022-04-12T13:25:11.000Z</time>
      </trkpt>
      <trkpt lat="43.68966" lon="7.00473">
        <ele>431.79998779297</ele>
        <time>2022-04-12T13:25:13.000Z</time>
      </trkpt>
      <trkpt lat="43.6897" lon="7.00478">
        <ele>431.39999389648</ele>
        <time>2022-04-12T13:25:14.000Z</time>
      </trkpt>
      <trkpt lat="43.68978" lon="7.00491">
        <ele>430.39999389648</ele>
        <time>2022-04-12T13:25:16.000Z</time>
      </trkpt>
      <trkpt lat="43.6898" lon="7.00498">
        <ele>429.39999389648</ele>
        <time>2022-04-12T13:25:17.000Z</time>
      </trkpt>
      <trkpt lat="43.6898" lon="7.00506">
        <ele>428.20001220703</ele>
        <time>2022-04-12T13:25:18.000Z</time>
      </trkpt>
      <trkpt lat="43.68977" lon="7.00514">
        <ele>427.60000610352</ele>
        <time>2022-04-12T13:25:19.000Z</time>
      </trkpt>
      <trkpt lat="43.68976" lon="7.00521">
        <ele>426.60000610352</ele>
        <time>2022-04-12T13:25:20.000Z</time>
      </trkpt>
      <trkpt lat="43.68979" lon="7.00526">
        <ele>425.60000610352</ele>
        <time>2022-04-12T13:25:21.000Z</time>
      </trkpt>
      <trkpt lat="43.68981" lon="7.00532">
        <ele>425</ele>
        <time>2022-04-12T13:25:22.000Z</time>
      </trkpt>
      <trkpt lat="43.68981" lon="7.00551">
        <ele>424.20001220703</ele>
        <time>2022-04-12T13:25:25.000Z</time>
      </trkpt>
      <trkpt lat="43.68982" lon="7.00566">
        <ele>425</ele>
        <time>2022-04-12T13:25:29.000Z</time>
      </trkpt>
      <trkpt lat="43.68982" lon="7.00576">
        <ele>425.20001220703</ele>
        <time>2022-04-12T13:25:33.000Z</time>
      </trkpt>
      <trkpt lat="43.68982" lon="7.00579">
        <ele>425.39999389648</ele>
        <time>2022-04-12T13:25:34.000Z</time>
      </trkpt>
      <trkpt lat="43.68977" lon="7.00592">
        <ele>426</ele>
        <time>2022-04-12T13:25:39.000Z</time>
      </trkpt>
      <trkpt lat="43.68976" lon="7.00598">
        <ele>425.79998779297</ele>
        <time>2022-04-12T13:25:42.000Z</time>
      </trkpt>
      <trkpt lat="43.68977" lon="7.006">
        <ele>426</ele>
        <time>2022-04-12T13:25:43.000Z</time>
      </trkpt>
      <trkpt lat="43.68978" lon="7.00604">
        <ele>426.39999389648</ele>
        <time>2022-04-12T13:25:45.000Z</time>
      </trkpt>
      <trkpt lat="43.68977" lon="7.00615">
        <ele>426.79998779297</ele>
        <time>2022-04-12T13:25:48.000Z</time>
      </trkpt>
      <trkpt lat="43.68971" lon="7.00615">
        <ele>427</ele>
        <time>2022-04-12T13:25:51.000Z</time>
      </trkpt>
      <trkpt lat="43.68971" lon="7.00615">
        <ele>427.39999389648</ele>
        <time>2022-04-12T13:25:52.000Z</time>
      </trkpt>
      <trkpt lat="43.68968" lon="7.00617">
        <ele>428</ele>
        <time>2022-04-12T13:25:56.000Z</time>
      </trkpt>
      <trkpt lat="43.68967" lon="7.00618">
        <ele>428.20001220703</ele>
        <time>2022-04-12T13:25:57.000Z</time>
      </trkpt>
      <trkpt lat="43.68969" lon="7.00625">
        <ele>428.39999389648</ele>
        <time>2022-04-12T13:26:01.000Z</time>
      </trkpt>
      <trkpt lat="43.68975" lon="7.00632">
        <ele>428.60000610352</ele>
        <time>2022-04-12T13:26:06.000Z</time>
      </trkpt>
      <trkpt lat="43.68975" lon="7.00641">
        <ele>429.60000610352</ele>
        <time>2022-04-12T13:26:10.000Z</time>
      </trkpt>
      <trkpt lat="43.68976" lon="7.00644">
        <ele>429.60000610352</ele>
        <time>2022-04-12T13:26:11.000Z</time>
      </trkpt>
      <trkpt lat="43.68976" lon="7.00648">
        <ele>429.79998779297</ele>
        <time>2022-04-12T13:26:13.000Z</time>
      </trkpt>
      <trkpt lat="43.68976" lon="7.00648">
        <ele>429.79998779297</ele>
        <time>2022-04-12T13:26:16.000Z</time>
      </trkpt>
      <trkpt lat="43.68974" lon="7.00651">
        <ele>430.20001220703</ele>
        <time>2022-04-12T13:26:23.000Z</time>
      </trkpt>
      <trkpt lat="43.68967" lon="7.00664">
        <ele>429.79998779297</ele>
        <time>2022-04-12T13:26:28.000Z</time>
      </trkpt>
      <trkpt lat="43.68954" lon="7.00675">
        <ele>428.79998779297</ele>
        <time>2022-04-12T13:26:33.000Z</time>
      </trkpt>
      <trkpt lat="43.68948" lon="7.00676">
        <ele>428.39999389648</ele>
        <time>2022-04-12T13:26:35.000Z</time>
      </trkpt>
      <trkpt lat="43.68946" lon="7.00678">
        <ele>428.20001220703</ele>
        <time>2022-04-12T13:26:36.000Z</time>
      </trkpt>
      <trkpt lat="43.68945" lon="7.0068">
        <ele>428</ele>
        <time>2022-04-12T13:26:37.000Z</time>
      </trkpt>
      <trkpt lat="43.68944" lon="7.00685">
        <ele>427</ele>
        <time>2022-04-12T13:26:39.000Z</time>
      </trkpt>
      <trkpt lat="43.68943" lon="7.0069">
        <ele>426</ele>
        <time>2022-04-12T13:26:41.000Z</time>
      </trkpt>
      <trkpt lat="43.68947" lon="7.00693">
        <ele>426</ele>
        <time>2022-04-12T13:26:43.000Z</time>
      </trkpt>
      <trkpt lat="43.68952" lon="7.00696">
        <ele>426.20001220703</ele>
        <time>2022-04-12T13:26:45.000Z</time>
      </trkpt>
      <trkpt lat="43.68967" lon="7.0071">
        <ele>426.39999389648</ele>
        <time>2022-04-12T13:26:50.000Z</time>
      </trkpt>
      <trkpt lat="43.68969" lon="7.00709">
        <ele>426.20001220703</ele>
        <time>2022-04-12T13:26:51.000Z</time>
      </trkpt>
      <trkpt lat="43.68974" lon="7.00708">
        <ele>426</ele>
        <time>2022-04-12T13:26:53.000Z</time>
      </trkpt>
      <trkpt lat="43.68977" lon="7.00718">
        <ele>426</ele>
        <time>2022-04-12T13:26:56.000Z</time>
      </trkpt>
      <trkpt lat="43.68973" lon="7.00734">
        <ele>426.20001220703</ele>
        <time>2022-04-12T13:27:00.000Z</time>
      </trkpt>
      <trkpt lat="43.68965" lon="7.00747">
        <ele>425.79998779297</ele>
        <time>2022-04-12T13:27:03.000Z</time>
      </trkpt>
      <trkpt lat="43.68963" lon="7.00752">
        <ele>425.60000610352</ele>
        <time>2022-04-12T13:27:04.000Z</time>
      </trkpt>
      <trkpt lat="43.68962" lon="7.00763">
        <ele>425</ele>
        <time>2022-04-12T13:27:06.000Z</time>
      </trkpt>
      <trkpt lat="43.68959" lon="7.00765">
        <ele>424.60000610352</ele>
        <time>2022-04-12T13:27:07.000Z</time>
      </trkpt>
      <trkpt lat="43.68957" lon="7.00766">
        <ele>424.20001220703</ele>
        <time>2022-04-12T13:27:08.000Z</time>
      </trkpt>
      <trkpt lat="43.68954" lon="7.00766">
        <ele>423.79998779297</ele>
        <time>2022-04-12T13:27:10.000Z</time>
      </trkpt>
      <trkpt lat="43.6895" lon="7.00764">
        <ele>423.79998779297</ele>
        <time>2022-04-12T13:27:12.000Z</time>
      </trkpt>
      <trkpt lat="43.68948" lon="7.00763">
        <ele>423.79998779297</ele>
        <time>2022-04-12T13:27:13.000Z</time>
      </trkpt>
      <trkpt lat="43.6894" lon="7.00758">
        <ele>424</ele>
        <time>2022-04-12T13:27:16.000Z</time>
      </trkpt>
      <trkpt lat="43.68935" lon="7.00752">
        <ele>424.20001220703</ele>
        <time>2022-04-12T13:27:18.000Z</time>
      </trkpt>
      <trkpt lat="43.68929" lon="7.00744">
        <ele>424.60000610352</ele>
        <time>2022-04-12T13:27:21.000Z</time>
      </trkpt>
      <trkpt lat="43.68929" lon="7.00744">
        <ele>424.79998779297</ele>
        <time>2022-04-12T13:27:24.000Z</time>
      </trkpt>
      <trkpt lat="43.68929" lon="7.00745">
        <ele>425</ele>
        <time>2022-04-12T13:27:29.000Z</time>
      </trkpt>
      <trkpt lat="43.68929" lon="7.00745">
        <ele>424.79998779297</ele>
        <time>2022-04-12T13:27:31.000Z</time>
      </trkpt>
      <trkpt lat="43.68929" lon="7.00745">
        <ele>424.20001220703</ele>
        <time>2022-04-12T13:27:39.000Z</time>
      </trkpt>
      <trkpt lat="43.68929" lon="7.00747">
        <ele>424</ele>
        <time>2022-04-12T13:27:40.000Z</time>
      </trkpt>
      <trkpt lat="43.68929" lon="7.00747">
        <ele>424.39999389648</ele>
        <time>2022-04-12T13:27:43.000Z</time>
      </trkpt>
      <trkpt lat="43.68928" lon="7.00749">
        <ele>424.79998779297</ele>
        <time>2022-04-12T13:27:54.000Z</time>
      </trkpt>
      <trkpt lat="43.68925" lon="7.00749">
        <ele>425</ele>
        <time>2022-04-12T13:28:08.000Z</time>
      </trkpt>
      <trkpt lat="43.68923" lon="7.00749">
        <ele>425.39999389648</ele>
        <time>2022-04-12T13:28:25.000Z</time>
      </trkpt>
      <trkpt lat="43.68923" lon="7.00749">
        <ele>425.20001220703</ele>
        <time>2022-04-12T13:28:46.000Z</time>
      </trkpt>
      <trkpt lat="43.68923" lon="7.00748">
        <ele>425.60000610352</ele>
        <time>2022-04-12T13:29:00.000Z</time>
      </trkpt>
      <trkpt lat="43.68922" lon="7.00749">
        <ele>425.60000610352</ele>
        <time>2022-04-12T13:29:16.000Z</time>
      </trkpt>
      <trkpt lat="43.6892" lon="7.00749">
        <ele>425.20001220703</ele>
        <time>2022-04-12T13:29:22.000Z</time>
      </trkpt>
      <trkpt lat="43.68912" lon="7.00738">
        <ele>425.79998779297</ele>
        <time>2022-04-12T13:29:27.000Z</time>
      </trkpt>
      <trkpt lat="43.68911" lon="7.00736">
        <ele>426</ele>
        <time>2022-04-12T13:29:28.000Z</time>
      </trkpt>
      <trkpt lat="43.68906" lon="7.0073">
        <ele>426.60000610352</ele>
        <time>2022-04-12T13:29:31.000Z</time>
      </trkpt>
      <trkpt lat="43.68901" lon="7.00736">
        <ele>427</ele>
        <time>2022-04-12T13:29:35.000Z</time>
      </trkpt>
      <trkpt lat="43.68901" lon="7.00748">
        <ele>426.39999389648</ele>
        <time>2022-04-12T13:29:38.000Z</time>
      </trkpt>
      <trkpt lat="43.68894" lon="7.00761">
        <ele>424.60000610352</ele>
        <time>2022-04-12T13:29:42.000Z</time>
      </trkpt>
      <trkpt lat="43.68884" lon="7.00776">
        <ele>423.79998779297</ele>
        <time>2022-04-12T13:29:46.000Z</time>
      </trkpt>
      <trkpt lat="43.68882" lon="7.00776">
        <ele>423.39999389648</ele>
        <time>2022-04-12T13:29:47.000Z</time>
      </trkpt>
      <trkpt lat="43.68876" lon="7.00773">
        <ele>422.60000610352</ele>
        <time>2022-04-12T13:29:49.000Z</time>
      </trkpt>
      <trkpt lat="43.68872" lon="7.00772">
        <ele>422.20001220703</ele>
        <time>2022-04-12T13:29:50.000Z</time>
      </trkpt>
      <trkpt lat="43.6886" lon="7.0077">
        <ele>421.60000610352</ele>
        <time>2022-04-12T13:29:53.000Z</time>
      </trkpt>
      <trkpt lat="43.68856" lon="7.00761">
        <ele>421</ele>
        <time>2022-04-12T13:29:55.000Z</time>
      </trkpt>
      <trkpt lat="43.68854" lon="7.00757">
        <ele>420.79998779297</ele>
        <time>2022-04-12T13:29:56.000Z</time>
      </trkpt>
      <trkpt lat="43.68843" lon="7.00752">
        <ele>420.79998779297</ele>
        <time>2022-04-12T13:29:59.000Z</time>
      </trkpt>
      <trkpt lat="43.68827" lon="7.00755">
        <ele>420.60000610352</ele>
        <time>2022-04-12T13:30:02.000Z</time>
      </trkpt>
      <trkpt lat="43.68823" lon="7.00755">
        <ele>420.39999389648</ele>
        <time>2022-04-12T13:30:03.000Z</time>
      </trkpt>
      <trkpt lat="43.68819" lon="7.00757">
        <ele>420</ele>
        <time>2022-04-12T13:30:04.000Z</time>
      </trkpt>
      <trkpt lat="43.68812" lon="7.00767">
        <ele>418.79998779297</ele>
        <time>2022-04-12T13:30:06.000Z</time>
      </trkpt>
      <trkpt lat="43.68799" lon="7.00771">
        <ele>417.39999389648</ele>
        <time>2022-04-12T13:30:09.000Z</time>
      </trkpt>
      <trkpt lat="43.68792" lon="7.00761">
        <ele>416.60000610352</ele>
        <time>2022-04-12T13:30:12.000Z</time>
      </trkpt>
      <trkpt lat="43.6879" lon="7.0076">
        <ele>416.39999389648</ele>
        <time>2022-04-12T13:30:13.000Z</time>
      </trkpt>
      <trkpt lat="43.68788" lon="7.00761">
        <ele>416.39999389648</ele>
        <time>2022-04-12T13:30:15.000Z</time>
      </trkpt>
      <trkpt lat="43.68787" lon="7.00762">
        <ele>416.60000610352</ele>
        <time>2022-04-12T13:30:21.000Z</time>
      </trkpt>
      <trkpt lat="43.68786" lon="7.00764">
        <ele>416.39999389648</ele>
        <time>2022-04-12T13:30:26.000Z</time>
      </trkpt>
      <trkpt lat="43.68784" lon="7.00768">
        <ele>416.39999389648</ele>
        <time>2022-04-12T13:30:28.000Z</time>
      </trkpt>
      <trkpt lat="43.6878" lon="7.00786">
        <ele>416.39999389648</ele>
        <time>2022-04-12T13:30:33.000Z</time>
      </trkpt>
      <trkpt lat="43.68779" lon="7.00791">
        <ele>416.20001220703</ele>
        <time>2022-04-12T13:30:34.000Z</time>
      </trkpt>
      <trkpt lat="43.68777" lon="7.00802">
        <ele>415.60000610352</ele>
        <time>2022-04-12T13:30:36.000Z</time>
      </trkpt>
      <trkpt lat="43.68773" lon="7.00813">
        <ele>414.79998779297</ele>
        <time>2022-04-12T13:30:38.000Z</time>
      </trkpt>
      <trkpt lat="43.6877" lon="7.00824">
        <ele>413.60000610352</ele>
        <time>2022-04-12T13:30:40.000Z</time>
      </trkpt>
      <trkpt lat="43.68768" lon="7.0083">
        <ele>413.20001220703</ele>
        <time>2022-04-12T13:30:41.000Z</time>
      </trkpt>
      <trkpt lat="43.68763" lon="7.00835">
        <ele>412.60000610352</ele>
        <time>2022-04-12T13:30:42.000Z</time>
      </trkpt>
      <trkpt lat="43.68755" lon="7.00845">
        <ele>411.39999389648</ele>
        <time>2022-04-12T13:30:44.000Z</time>
      </trkpt>
      <trkpt lat="43.68748" lon="7.0085">
        <ele>410</ele>
        <time>2022-04-12T13:30:46.000Z</time>
      </trkpt>
      <trkpt lat="43.68742" lon="7.00863">
        <ele>408.79998779297</ele>
        <time>2022-04-12T13:30:48.000Z</time>
      </trkpt>
      <trkpt lat="43.68739" lon="7.0087">
        <ele>408.60000610352</ele>
        <time>2022-04-12T13:30:49.000Z</time>
      </trkpt>
      <trkpt lat="43.68732" lon="7.00885">
        <ele>407.79998779297</ele>
        <time>2022-04-12T13:30:51.000Z</time>
      </trkpt>
      <trkpt lat="43.68728" lon="7.00894">
        <ele>407</ele>
        <time>2022-04-12T13:30:52.000Z</time>
      </trkpt>
      <trkpt lat="43.68725" lon="7.00902">
        <ele>406</ele>
        <time>2022-04-12T13:30:53.000Z</time>
      </trkpt>
      <trkpt lat="43.68721" lon="7.00911">
        <ele>404.79998779297</ele>
        <time>2022-04-12T13:30:54.000Z</time>
      </trkpt>
      <trkpt lat="43.68713" lon="7.00928">
        <ele>403.39999389648</ele>
        <time>2022-04-12T13:30:56.000Z</time>
      </trkpt>
      <trkpt lat="43.68705" lon="7.00944">
        <ele>401.60000610352</ele>
        <time>2022-04-12T13:30:58.000Z</time>
      </trkpt>
      <trkpt lat="43.68702" lon="7.00952">
        <ele>400.79998779297</ele>
        <time>2022-04-12T13:30:59.000Z</time>
      </trkpt>
      <trkpt lat="43.68699" lon="7.0096">
        <ele>399.60000610352</ele>
        <time>2022-04-12T13:31:00.000Z</time>
      </trkpt>
      <trkpt lat="43.68691" lon="7.00975">
        <ele>398.39999389648</ele>
        <time>2022-04-12T13:31:02.000Z</time>
      </trkpt>
      <trkpt lat="43.68688" lon="7.00979">
        <ele>398.20001220703</ele>
        <time>2022-04-12T13:31:03.000Z</time>
      </trkpt>
      <trkpt lat="43.68684" lon="7.00983">
        <ele>397.79998779297</ele>
        <time>2022-04-12T13:31:04.000Z</time>
      </trkpt>
      <trkpt lat="43.68681" lon="7.00987">
        <ele>397.39999389648</ele>
        <time>2022-04-12T13:31:05.000Z</time>
      </trkpt>
      <trkpt lat="43.68676" lon="7.00997">
        <ele>396.39999389648</ele>
        <time>2022-04-12T13:31:07.000Z</time>
      </trkpt>
      <trkpt lat="43.68673" lon="7.01004">
        <ele>395.79998779297</ele>
        <time>2022-04-12T13:31:08.000Z</time>
      </trkpt>
      <trkpt lat="43.68672" lon="7.01012">
        <ele>394.79998779297</ele>
        <time>2022-04-12T13:31:09.000Z</time>
      </trkpt>
      <trkpt lat="43.68667" lon="7.01026">
        <ele>393.79998779297</ele>
        <time>2022-04-12T13:31:11.000Z</time>
      </trkpt>
      <trkpt lat="43.68662" lon="7.01043">
        <ele>392.60000610352</ele>
        <time>2022-04-12T13:31:13.000Z</time>
      </trkpt>
      <trkpt lat="43.68656" lon="7.01058">
        <ele>392.39999389648</ele>
        <time>2022-04-12T13:31:15.000Z</time>
      </trkpt>
      <trkpt lat="43.68651" lon="7.01072">
        <ele>392.20001220703</ele>
        <time>2022-04-12T13:31:17.000Z</time>
      </trkpt>
      <trkpt lat="43.68645" lon="7.01087">
        <ele>391.39999389648</ele>
        <time>2022-04-12T13:31:19.000Z</time>
      </trkpt>
      <trkpt lat="43.68642" lon="7.01094">
        <ele>391.20001220703</ele>
        <time>2022-04-12T13:31:20.000Z</time>
      </trkpt>
      <trkpt lat="43.68637" lon="7.01107">
        <ele>390.60000610352</ele>
        <time>2022-04-12T13:31:22.000Z</time>
      </trkpt>
      <trkpt lat="43.68634" lon="7.01115">
        <ele>390.39999389648</ele>
        <time>2022-04-12T13:31:24.000Z</time>
      </trkpt>
      <trkpt lat="43.68633" lon="7.01118">
        <ele>390.20001220703</ele>
        <time>2022-04-12T13:31:25.000Z</time>
      </trkpt>
      <trkpt lat="43.68633" lon="7.01122">
        <ele>389.39999389648</ele>
        <time>2022-04-12T13:31:26.000Z</time>
      </trkpt>
      <trkpt lat="43.68632" lon="7.01127">
        <ele>388.39999389648</ele>
        <time>2022-04-12T13:31:27.000Z</time>
      </trkpt>
      <trkpt lat="43.68629" lon="7.01136">
        <ele>387.79998779297</ele>
        <time>2022-04-12T13:31:29.000Z</time>
      </trkpt>
      <trkpt lat="43.68625" lon="7.01146">
        <ele>387.39999389648</ele>
        <time>2022-04-12T13:31:31.000Z</time>
      </trkpt>
      <trkpt lat="43.68624" lon="7.01146">
        <ele>387.20001220703</ele>
        <time>2022-04-12T13:31:32.000Z</time>
      </trkpt>
      <trkpt lat="43.68615" lon="7.01161">
        <ele>387</ele>
        <time>2022-04-12T13:31:34.000Z</time>
      </trkpt>
      <trkpt lat="43.68607" lon="7.01168">
        <ele>386.39999389648</ele>
        <time>2022-04-12T13:31:36.000Z</time>
      </trkpt>
      <trkpt lat="43.68604" lon="7.0117">
        <ele>386.20001220703</ele>
        <time>2022-04-12T13:31:37.000Z</time>
      </trkpt>
      <trkpt lat="43.68602" lon="7.01171">
        <ele>386</ele>
        <time>2022-04-12T13:31:38.000Z</time>
      </trkpt>
      <trkpt lat="43.686" lon="7.01172">
        <ele>385.39999389648</ele>
        <time>2022-04-12T13:31:41.000Z</time>
      </trkpt>
      <trkpt lat="43.68601" lon="7.01173">
        <ele>385.20001220703</ele>
        <time>2022-04-12T13:31:44.000Z</time>
      </trkpt>
      <trkpt lat="43.68601" lon="7.01176">
        <ele>384.79998779297</ele>
        <time>2022-04-12T13:31:55.000Z</time>
      </trkpt>
      <trkpt lat="43.68601" lon="7.01178">
        <ele>385</ele>
        <time>2022-04-12T13:32:07.000Z</time>
      </trkpt>
      <trkpt lat="43.68601" lon="7.0118">
        <ele>385.20001220703</ele>
        <time>2022-04-12T13:32:23.000Z</time>
      </trkpt>
      <trkpt lat="43.68602" lon="7.01183">
        <ele>385.39999389648</ele>
        <time>2022-04-12T13:32:48.000Z</time>
      </trkpt>
      <trkpt lat="43.68603" lon="7.01184">
        <ele>385.39999389648</ele>
        <time>2022-04-12T13:33:08.000Z</time>
      </trkpt>
      <trkpt lat="43.68603" lon="7.01184">
        <ele>385.20001220703</ele>
        <time>2022-04-12T13:33:32.000Z</time>
      </trkpt>
      <trkpt lat="43.68602" lon="7.01186">
        <ele>385.20001220703</ele>
        <time>2022-04-12T13:33:39.000Z</time>
      </trkpt>
      <trkpt lat="43.68594" lon="7.01193">
        <ele>385.20001220703</ele>
        <time>2022-04-12T13:33:43.000Z</time>
      </trkpt>
      <trkpt lat="43.68583" lon="7.01199">
        <ele>384.60000610352</ele>
        <time>2022-04-12T13:33:46.000Z</time>
      </trkpt>
      <trkpt lat="43.68578" lon="7.01201">
        <ele>384.20001220703</ele>
        <time>2022-04-12T13:33:47.000Z</time>
      </trkpt>
      <trkpt lat="43.68573" lon="7.01203">
        <ele>384</ele>
        <time>2022-04-12T13:33:48.000Z</time>
      </trkpt>
      <trkpt lat="43.68557" lon="7.0121">
        <ele>382.79998779297</ele>
        <time>2022-04-12T13:33:51.000Z</time>
      </trkpt>
      <trkpt lat="43.68545" lon="7.01214">
        <ele>382</ele>
        <time>2022-04-12T13:33:53.000Z</time>
      </trkpt>
      <trkpt lat="43.68538" lon="7.01216">
        <ele>381.60000610352</ele>
        <time>2022-04-12T13:33:54.000Z</time>
      </trkpt>
      <trkpt lat="43.68525" lon="7.01218">
        <ele>380.39999389648</ele>
        <time>2022-04-12T13:33:56.000Z</time>
      </trkpt>
      <trkpt lat="43.68512" lon="7.01216">
        <ele>379</ele>
        <time>2022-04-12T13:33:58.000Z</time>
      </trkpt>
      <trkpt lat="43.68498" lon="7.01209">
        <ele>377.60000610352</ele>
        <time>2022-04-12T13:34:00.000Z</time>
      </trkpt>
      <trkpt lat="43.68486" lon="7.01199">
        <ele>376.39999389648</ele>
        <time>2022-04-12T13:34:02.000Z</time>
      </trkpt>
      <trkpt lat="43.68474" lon="7.01191">
        <ele>374.79998779297</ele>
        <time>2022-04-12T13:34:04.000Z</time>
      </trkpt>
      <trkpt lat="43.68468" lon="7.0119">
        <ele>373.79998779297</ele>
        <time>2022-04-12T13:34:05.000Z</time>
      </trkpt>
      <trkpt lat="43.68461" lon="7.01192">
        <ele>372.60000610352</ele>
        <time>2022-04-12T13:34:06.000Z</time>
      </trkpt>
      <trkpt lat="43.68454" lon="7.01197">
        <ele>371.39999389648</ele>
        <time>2022-04-12T13:34:07.000Z</time>
      </trkpt>
      <trkpt lat="43.68447" lon="7.01204">
        <ele>370.20001220703</ele>
        <time>2022-04-12T13:34:08.000Z</time>
      </trkpt>
      <trkpt lat="43.6844" lon="7.01211">
        <ele>369</ele>
        <time>2022-04-12T13:34:09.000Z</time>
      </trkpt>
      <trkpt lat="43.68432" lon="7.01219">
        <ele>367.60000610352</ele>
        <time>2022-04-12T13:34:10.000Z</time>
      </trkpt>
      <trkpt lat="43.68426" lon="7.01226">
        <ele>366.20001220703</ele>
        <time>2022-04-12T13:34:11.000Z</time>
      </trkpt>
      <trkpt lat="43.68419" lon="7.01235">
        <ele>364.20001220703</ele>
        <time>2022-04-12T13:34:12.000Z</time>
      </trkpt>
      <trkpt lat="43.68412" lon="7.01244">
        <ele>363</ele>
        <time>2022-04-12T13:34:13.000Z</time>
      </trkpt>
      <trkpt lat="43.68405" lon="7.01251">
        <ele>362.20001220703</ele>
        <time>2022-04-12T13:34:14.000Z</time>
      </trkpt>
      <trkpt lat="43.68398" lon="7.01258">
        <ele>361.60000610352</ele>
        <time>2022-04-12T13:34:15.000Z</time>
      </trkpt>
      <trkpt lat="43.68375" lon="7.01275">
        <ele>360.60000610352</ele>
        <time>2022-04-12T13:34:18.000Z</time>
      </trkpt>
      <trkpt lat="43.68368" lon="7.01279">
        <ele>359.60000610352</ele>
        <time>2022-04-12T13:34:19.000Z</time>
      </trkpt>
      <trkpt lat="43.6836" lon="7.01282">
        <ele>358.79998779297</ele>
        <time>2022-04-12T13:34:20.000Z</time>
      </trkpt>
      <trkpt lat="43.68346" lon="7.01282">
        <ele>357</ele>
        <time>2022-04-12T13:34:22.000Z</time>
      </trkpt>
      <trkpt lat="43.68333" lon="7.01279">
        <ele>356</ele>
        <time>2022-04-12T13:34:24.000Z</time>
      </trkpt>
      <trkpt lat="43.68321" lon="7.01274">
        <ele>354.39999389648</ele>
        <time>2022-04-12T13:34:26.000Z</time>
      </trkpt>
      <trkpt lat="43.68315" lon="7.01273">
        <ele>353.39999389648</ele>
        <time>2022-04-12T13:34:27.000Z</time>
      </trkpt>
      <trkpt lat="43.68303" lon="7.01276">
        <ele>351.39999389648</ele>
        <time>2022-04-12T13:34:29.000Z</time>
      </trkpt>
      <trkpt lat="43.68297" lon="7.01278">
        <ele>350.20001220703</ele>
        <time>2022-04-12T13:34:30.000Z</time>
      </trkpt>
      <trkpt lat="43.68286" lon="7.01283">
        <ele>348.60000610352</ele>
        <time>2022-04-12T13:34:32.000Z</time>
      </trkpt>
      <trkpt lat="43.68275" lon="7.01288">
        <ele>347</ele>
        <time>2022-04-12T13:34:34.000Z</time>
      </trkpt>
      <trkpt lat="43.68264" lon="7.01294">
        <ele>345.60000610352</ele>
        <time>2022-04-12T13:34:36.000Z</time>
      </trkpt>
      <trkpt lat="43.68253" lon="7.01301">
        <ele>343.79998779297</ele>
        <time>2022-04-12T13:34:38.000Z</time>
      </trkpt>
      <trkpt lat="43.68242" lon="7.01308">
        <ele>341.79998779297</ele>
        <time>2022-04-12T13:34:40.000Z</time>
      </trkpt>
      <trkpt lat="43.68237" lon="7.01312">
        <ele>340.60000610352</ele>
        <time>2022-04-12T13:34:41.000Z</time>
      </trkpt>
      <trkpt lat="43.68231" lon="7.01317">
        <ele>339.60000610352</ele>
        <time>2022-04-12T13:34:42.000Z</time>
      </trkpt>
      <trkpt lat="43.68227" lon="7.01324">
        <ele>338.79998779297</ele>
        <time>2022-04-12T13:34:43.000Z</time>
      </trkpt>
      <trkpt lat="43.68219" lon="7.01339">
        <ele>337</ele>
        <time>2022-04-12T13:34:45.000Z</time>
      </trkpt>
      <trkpt lat="43.68215" lon="7.01347">
        <ele>336.20001220703</ele>
        <time>2022-04-12T13:34:46.000Z</time>
      </trkpt>
      <trkpt lat="43.68211" lon="7.01357">
        <ele>335.60000610352</ele>
        <time>2022-04-12T13:34:47.000Z</time>
      </trkpt>
      <trkpt lat="43.68206" lon="7.01365">
        <ele>334.39999389648</ele>
        <time>2022-04-12T13:34:48.000Z</time>
      </trkpt>
      <trkpt lat="43.68201" lon="7.01373">
        <ele>333.60000610352</ele>
        <time>2022-04-12T13:34:49.000Z</time>
      </trkpt>
      <trkpt lat="43.68197" lon="7.0138">
        <ele>332.60000610352</ele>
        <time>2022-04-12T13:34:50.000Z</time>
      </trkpt>
      <trkpt lat="43.68193" lon="7.01388">
        <ele>331.39999389648</ele>
        <time>2022-04-12T13:34:52.000Z</time>
      </trkpt>
      <trkpt lat="43.68192" lon="7.01389">
        <ele>330.79998779297</ele>
        <time>2022-04-12T13:34:53.000Z</time>
      </trkpt>
      <trkpt lat="43.68192" lon="7.0139">
        <ele>330.20001220703</ele>
        <time>2022-04-12T13:34:57.000Z</time>
      </trkpt>
      <trkpt lat="43.68193" lon="7.01391">
        <ele>330.20001220703</ele>
        <time>2022-04-12T13:34:58.000Z</time>
      </trkpt>
      <trkpt lat="43.68199" lon="7.01399">
        <ele>330.20001220703</ele>
        <time>2022-04-12T13:35:01.000Z</time>
      </trkpt>
      <trkpt lat="43.68219" lon="7.01418">
        <ele>329.60000610352</ele>
        <time>2022-04-12T13:35:07.000Z</time>
      </trkpt>
      <trkpt lat="43.68235" lon="7.01432">
        <ele>329</ele>
        <time>2022-04-12T13:35:10.000Z</time>
      </trkpt>
      <trkpt lat="43.68241" lon="7.01435">
        <ele>328.20001220703</ele>
        <time>2022-04-12T13:35:11.000Z</time>
      </trkpt>
      <trkpt lat="43.68248" lon="7.01439">
        <ele>327.60000610352</ele>
        <time>2022-04-12T13:35:12.000Z</time>
      </trkpt>
      <trkpt lat="43.68263" lon="7.01445">
        <ele>325.79998779297</ele>
        <time>2022-04-12T13:35:14.000Z</time>
      </trkpt>
      <trkpt lat="43.68278" lon="7.01449">
        <ele>324.20001220703</ele>
        <time>2022-04-12T13:35:16.000Z</time>
      </trkpt>
      <trkpt lat="43.68286" lon="7.01453">
        <ele>323.39999389648</ele>
        <time>2022-04-12T13:35:17.000Z</time>
      </trkpt>
      <trkpt lat="43.68293" lon="7.01457">
        <ele>322.79998779297</ele>
        <time>2022-04-12T13:35:18.000Z</time>
      </trkpt>
      <trkpt lat="43.6831" lon="7.01471">
        <ele>321.79998779297</ele>
        <time>2022-04-12T13:35:21.000Z</time>
      </trkpt>
      <trkpt lat="43.6833" lon="7.01492">
        <ele>322.20001220703</ele>
        <time>2022-04-12T13:35:26.000Z</time>
      </trkpt>
      <trkpt lat="43.6833" lon="7.01496">
        <ele>322.20001220703</ele>
        <time>2022-04-12T13:35:27.000Z</time>
      </trkpt>
      <trkpt lat="43.68328" lon="7.01503">
        <ele>322.20001220703</ele>
        <time>2022-04-12T13:35:29.000Z</time>
      </trkpt>
      <trkpt lat="43.68324" lon="7.01519">
        <ele>321.39999389648</ele>
        <time>2022-04-12T13:35:32.000Z</time>
      </trkpt>
      <trkpt lat="43.68324" lon="7.01525">
        <ele>320.79998779297</ele>
        <time>2022-04-12T13:35:33.000Z</time>
      </trkpt>
      <trkpt lat="43.68322" lon="7.01533">
        <ele>320.20001220703</ele>
        <time>2022-04-12T13:35:34.000Z</time>
      </trkpt>
      <trkpt lat="43.6832" lon="7.0155">
        <ele>318.79998779297</ele>
        <time>2022-04-12T13:35:36.000Z</time>
      </trkpt>
      <trkpt lat="43.68317" lon="7.01573">
        <ele>317.39999389648</ele>
        <time>2022-04-12T13:35:38.000Z</time>
      </trkpt>
      <trkpt lat="43.68314" lon="7.01596">
        <ele>315.60000610352</ele>
        <time>2022-04-12T13:35:40.000Z</time>
      </trkpt>
      <trkpt lat="43.68313" lon="7.01607">
        <ele>314.60000610352</ele>
        <time>2022-04-12T13:35:41.000Z</time>
      </trkpt>
      <trkpt lat="43.68312" lon="7.01622">
        <ele>313.60000610352</ele>
        <time>2022-04-12T13:35:42.000Z</time>
      </trkpt>
      <trkpt lat="43.68312" lon="7.01634">
        <ele>312.39999389648</ele>
        <time>2022-04-12T13:35:43.000Z</time>
      </trkpt>
      <trkpt lat="43.68313" lon="7.01649">
        <ele>310.79998779297</ele>
        <time>2022-04-12T13:35:44.000Z</time>
      </trkpt>
      <trkpt lat="43.68314" lon="7.01663">
        <ele>309.60000610352</ele>
        <time>2022-04-12T13:35:45.000Z</time>
      </trkpt>
      <trkpt lat="43.68314" lon="7.01677">
        <ele>308.20001220703</ele>
        <time>2022-04-12T13:35:46.000Z</time>
      </trkpt>
      <trkpt lat="43.68315" lon="7.01691">
        <ele>309</ele>
        <time>2022-04-12T13:35:47.000Z</time>
      </trkpt>
      <trkpt lat="43.68315" lon="7.01717">
        <ele>306</ele>
        <time>2022-04-12T13:35:49.000Z</time>
      </trkpt>
      <trkpt lat="43.68315" lon="7.01726">
        <ele>304.20001220703</ele>
        <time>2022-04-12T13:35:50.000Z</time>
      </trkpt>
      <trkpt lat="43.68315" lon="7.01735">
        <ele>302.79998779297</ele>
        <time>2022-04-12T13:35:51.000Z</time>
      </trkpt>
      <trkpt lat="43.68315" lon="7.01744">
        <ele>301.60000610352</ele>
        <time>2022-04-12T13:35:52.000Z</time>
      </trkpt>
      <trkpt lat="43.68316" lon="7.01752">
        <ele>300.39999389648</ele>
        <time>2022-04-12T13:35:53.000Z</time>
      </trkpt>
      <trkpt lat="43.68317" lon="7.01759">
        <ele>299.39999389648</ele>
        <time>2022-04-12T13:35:54.000Z</time>
      </trkpt>
      <trkpt lat="43.68317" lon="7.01762">
        <ele>298.39999389648</ele>
        <time>2022-04-12T13:35:55.000Z</time>
      </trkpt>
      <trkpt lat="43.68319" lon="7.01764">
        <ele>296.79998779297</ele>
        <time>2022-04-12T13:35:57.000Z</time>
      </trkpt>
      <trkpt lat="43.68327" lon="7.01762">
        <ele>296.39999389648</ele>
        <time>2022-04-12T13:36:01.000Z</time>
      </trkpt>
      <trkpt lat="43.68327" lon="7.01776">
        <ele>296.39999389648</ele>
        <time>2022-04-12T13:36:04.000Z</time>
      </trkpt>
      <trkpt lat="43.68322" lon="7.01788">
        <ele>295.60000610352</ele>
        <time>2022-04-12T13:36:06.000Z</time>
      </trkpt>
      <trkpt lat="43.68316" lon="7.01804">
        <ele>294.79998779297</ele>
        <time>2022-04-12T13:36:08.000Z</time>
      </trkpt>
      <trkpt lat="43.68313" lon="7.01812">
        <ele>294.20001220703</ele>
        <time>2022-04-12T13:36:09.000Z</time>
      </trkpt>
      <trkpt lat="43.68305" lon="7.01828">
        <ele>293</ele>
        <time>2022-04-12T13:36:11.000Z</time>
      </trkpt>
      <trkpt lat="43.68298" lon="7.01845">
        <ele>291.20001220703</ele>
        <time>2022-04-12T13:36:13.000Z</time>
      </trkpt>
      <trkpt lat="43.68294" lon="7.01861">
        <ele>289.60000610352</ele>
        <time>2022-04-12T13:36:15.000Z</time>
      </trkpt>
      <trkpt lat="43.68295" lon="7.01869">
        <ele>289</ele>
        <time>2022-04-12T13:36:16.000Z</time>
      </trkpt>
      <trkpt lat="43.68297" lon="7.01878">
        <ele>288.20001220703</ele>
        <time>2022-04-12T13:36:17.000Z</time>
      </trkpt>
      <trkpt lat="43.68299" lon="7.01889">
        <ele>287.39999389648</ele>
        <time>2022-04-12T13:36:18.000Z</time>
      </trkpt>
      <trkpt lat="43.68301" lon="7.01898">
        <ele>286.79998779297</ele>
        <time>2022-04-12T13:36:19.000Z</time>
      </trkpt>
      <trkpt lat="43.68303" lon="7.01907">
        <ele>286</ele>
        <time>2022-04-12T13:36:20.000Z</time>
      </trkpt>
      <trkpt lat="43.68303" lon="7.01919">
        <ele>285.39999389648</ele>
        <time>2022-04-12T13:36:22.000Z</time>
      </trkpt>
      <trkpt lat="43.68303" lon="7.01922">
        <ele>285</ele>
        <time>2022-04-12T13:36:23.000Z</time>
      </trkpt>
      <trkpt lat="43.68299" lon="7.01933">
        <ele>284.79998779297</ele>
        <time>2022-04-12T13:36:27.000Z</time>
      </trkpt>
      <trkpt lat="43.68298" lon="7.01941">
        <ele>284.39999389648</ele>
        <time>2022-04-12T13:36:30.000Z</time>
      </trkpt>
      <trkpt lat="43.683" lon="7.01951">
        <ele>283.60000610352</ele>
        <time>2022-04-12T13:36:33.000Z</time>
      </trkpt>
      <trkpt lat="43.68301" lon="7.0196">
        <ele>283.20001220703</ele>
        <time>2022-04-12T13:36:35.000Z</time>
      </trkpt>
      <trkpt lat="43.68303" lon="7.01971">
        <ele>282.79998779297</ele>
        <time>2022-04-12T13:36:37.000Z</time>
      </trkpt>
      <trkpt lat="43.68305" lon="7.01982">
        <ele>282.20001220703</ele>
        <time>2022-04-12T13:36:39.000Z</time>
      </trkpt>
      <trkpt lat="43.68306" lon="7.01987">
        <ele>282</ele>
        <time>2022-04-12T13:36:40.000Z</time>
      </trkpt>
      <trkpt lat="43.68311" lon="7.01996">
        <ele>281.39999389648</ele>
        <time>2022-04-12T13:36:42.000Z</time>
      </trkpt>
      <trkpt lat="43.68319" lon="7.01999">
        <ele>280.79998779297</ele>
        <time>2022-04-12T13:36:44.000Z</time>
      </trkpt>
      <trkpt lat="43.68323" lon="7.02">
        <ele>280.20001220703</ele>
        <time>2022-04-12T13:36:45.000Z</time>
      </trkpt>
      <trkpt lat="43.68329" lon="7.02007">
        <ele>279.60000610352</ele>
        <time>2022-04-12T13:36:47.000Z</time>
      </trkpt>
      <trkpt lat="43.6833" lon="7.02013">
        <ele>279.20001220703</ele>
        <time>2022-04-12T13:36:48.000Z</time>
      </trkpt>
      <trkpt lat="43.6833" lon="7.02017">
        <ele>279</ele>
        <time>2022-04-12T13:36:49.000Z</time>
      </trkpt>
      <trkpt lat="43.68333" lon="7.0203">
        <ele>278.79998779297</ele>
        <time>2022-04-12T13:36:53.000Z</time>
      </trkpt>
      <trkpt lat="43.68332" lon="7.02031">
        <ele>278.39999389648</ele>
        <time>2022-04-12T13:36:56.000Z</time>
      </trkpt>
      <trkpt lat="43.68333" lon="7.02031">
        <ele>277.79998779297</ele>
        <time>2022-04-12T13:37:06.000Z</time>
      </trkpt>
      <trkpt lat="43.68335" lon="7.02031">
        <ele>278</ele>
        <time>2022-04-12T13:37:15.000Z</time>
      </trkpt>
      <trkpt lat="43.68337" lon="7.02031">
        <ele>278.39999389648</ele>
        <time>2022-04-12T13:37:37.000Z</time>
      </trkpt>
      <trkpt lat="43.6834" lon="7.02032">
        <ele>278.60000610352</ele>
        <time>2022-04-12T13:38:01.000Z</time>
      </trkpt>
      <trkpt lat="43.68341" lon="7.02032">
        <ele>278.60000610352</ele>
        <time>2022-04-12T13:38:25.000Z</time>
      </trkpt>
      <trkpt lat="43.6834" lon="7.02032">
        <ele>278.39999389648</ele>
        <time>2022-04-12T13:38:42.000Z</time>
      </trkpt>
      <trkpt lat="43.68339" lon="7.02032">
        <ele>278.79998779297</ele>
        <time>2022-04-12T13:38:49.000Z</time>
      </trkpt>
      <trkpt lat="43.68339" lon="7.02032">
        <ele>278.79998779297</ele>
        <time>2022-04-12T13:38:57.000Z</time>
      </trkpt>
      <trkpt lat="43.68338" lon="7.02032">
        <ele>278.79998779297</ele>
        <time>2022-04-12T13:39:02.000Z</time>
      </trkpt>
      <trkpt lat="43.68337" lon="7.02032">
        <ele>278.79998779297</ele>
        <time>2022-04-12T13:39:09.000Z</time>
      </trkpt>
      <trkpt lat="43.68336" lon="7.02035">
        <ele>278.60000610352</ele>
        <time>2022-04-12T13:39:14.000Z</time>
      </trkpt>
      <trkpt lat="43.68336" lon="7.02036">
        <ele>278.39999389648</ele>
        <time>2022-04-12T13:39:15.000Z</time>
      </trkpt>
      <trkpt lat="43.68337" lon="7.02041">
        <ele>278</ele>
        <time>2022-04-12T13:39:21.000Z</time>
      </trkpt>
      <trkpt lat="43.68338" lon="7.02052">
        <ele>277.60000610352</ele>
        <time>2022-04-12T13:39:26.000Z</time>
      </trkpt>
      <trkpt lat="43.68342" lon="7.02066">
        <ele>277.39999389648</ele>
        <time>2022-04-12T13:39:33.000Z</time>
      </trkpt>
      <trkpt lat="43.68342" lon="7.02068">
        <ele>277.20001220703</ele>
        <time>2022-04-12T13:39:34.000Z</time>
      </trkpt>
      <trkpt lat="43.68344" lon="7.02077">
        <ele>276.60000610352</ele>
        <time>2022-04-12T13:39:39.000Z</time>
      </trkpt>
      <trkpt lat="43.68344" lon="7.0208">
        <ele>276.60000610352</ele>
        <time>2022-04-12T13:39:44.000Z</time>
      </trkpt>
      <trkpt lat="43.68344" lon="7.02083">
        <ele>276.39999389648</ele>
        <time>2022-04-12T13:39:49.000Z</time>
      </trkpt>
      <trkpt lat="43.68343" lon="7.02083">
        <ele>276.20001220703</ele>
        <time>2022-04-12T13:39:51.000Z</time>
      </trkpt>
      <trkpt lat="43.68343" lon="7.02084">
        <ele>276.39999389648</ele>
        <time>2022-04-12T13:39:53.000Z</time>
      </trkpt>
      <trkpt lat="43.68345" lon="7.02089">
        <ele>276.39999389648</ele>
        <time>2022-04-12T13:40:00.000Z</time>
      </trkpt>
      <trkpt lat="43.68345" lon="7.02093">
        <ele>276.20001220703</ele>
        <time>2022-04-12T13:40:05.000Z</time>
      </trkpt>
      <trkpt lat="43.68344" lon="7.02096">
        <ele>276.20001220703</ele>
        <time>2022-04-12T13:40:12.000Z</time>
      </trkpt>
      <trkpt lat="43.68342" lon="7.021">
        <ele>276.20001220703</ele>
        <time>2022-04-12T13:40:20.000Z</time>
      </trkpt>
      <trkpt lat="43.68342" lon="7.02103">
        <ele>276.39999389648</ele>
        <time>2022-04-12T13:40:22.000Z</time>
      </trkpt>
      <trkpt lat="43.68343" lon="7.02108">
        <ele>276.39999389648</ele>
        <time>2022-04-12T13:40:26.000Z</time>
      </trkpt>
      <trkpt lat="43.68344" lon="7.02112">
        <ele>276.20001220703</ele>
        <time>2022-04-12T13:40:31.000Z</time>
      </trkpt>
      <trkpt lat="43.68344" lon="7.02115">
        <ele>275.79998779297</ele>
        <time>2022-04-12T13:40:38.000Z</time>
      </trkpt>
      <trkpt lat="43.68344" lon="7.02119">
        <ele>275.39999389648</ele>
        <time>2022-04-12T13:40:42.000Z</time>
      </trkpt>
      <trkpt lat="43.68344" lon="7.0212">
        <ele>275.20001220703</ele>
        <time>2022-04-12T13:40:43.000Z</time>
      </trkpt>
      <trkpt lat="43.68344" lon="7.02121">
        <ele>274.79998779297</ele>
        <time>2022-04-12T13:40:44.000Z</time>
      </trkpt>
      <trkpt lat="43.68346" lon="7.02125">
        <ele>274.20001220703</ele>
        <time>2022-04-12T13:40:50.000Z</time>
      </trkpt>
      <trkpt lat="43.68345" lon="7.02134">
        <ele>274</ele>
        <time>2022-04-12T13:40:53.000Z</time>
      </trkpt>
      <trkpt lat="43.68344" lon="7.02143">
        <ele>273.79998779297</ele>
        <time>2022-04-12T13:40:55.000Z</time>
      </trkpt>
      <trkpt lat="43.68344" lon="7.02155">
        <ele>273</ele>
        <time>2022-04-12T13:40:59.000Z</time>
      </trkpt>
      <trkpt lat="43.68344" lon="7.02158">
        <ele>272.79998779297</ele>
        <time>2022-04-12T13:41:00.000Z</time>
      </trkpt>
      <trkpt lat="43.68343" lon="7.02175">
        <ele>272.39999389648</ele>
        <time>2022-04-12T13:41:05.000Z</time>
      </trkpt>
      <trkpt lat="43.68343" lon="7.02181">
        <ele>272</ele>
        <time>2022-04-12T13:41:06.000Z</time>
      </trkpt>
      <trkpt lat="43.68343" lon="7.02187">
        <ele>271.79998779297</ele>
        <time>2022-04-12T13:41:07.000Z</time>
      </trkpt>
      <trkpt lat="43.68341" lon="7.02199">
        <ele>271.20001220703</ele>
        <time>2022-04-12T13:41:09.000Z</time>
      </trkpt>
      <trkpt lat="43.6834" lon="7.02205">
        <ele>270.79998779297</ele>
        <time>2022-04-12T13:41:10.000Z</time>
      </trkpt>
      <trkpt lat="43.68337" lon="7.02224">
        <ele>269.79998779297</ele>
        <time>2022-04-12T13:41:13.000Z</time>
      </trkpt>
      <trkpt lat="43.68332" lon="7.02252">
        <ele>269</ele>
        <time>2022-04-12T13:41:17.000Z</time>
      </trkpt>
      <trkpt lat="43.68331" lon="7.0226">
        <ele>268.60000610352</ele>
        <time>2022-04-12T13:41:18.000Z</time>
      </trkpt>
      <trkpt lat="43.6833" lon="7.02267">
        <ele>268</ele>
        <time>2022-04-12T13:41:19.000Z</time>
      </trkpt>
      <trkpt lat="43.68329" lon="7.02272">
        <ele>267.20001220703</ele>
        <time>2022-04-12T13:41:20.000Z</time>
      </trkpt>
      <trkpt lat="43.68327" lon="7.02277">
        <ele>266.79998779297</ele>
        <time>2022-04-12T13:41:21.000Z</time>
      </trkpt>
      <trkpt lat="43.68324" lon="7.02283">
        <ele>266.20001220703</ele>
        <time>2022-04-12T13:41:23.000Z</time>
      </trkpt>
      <trkpt lat="43.68322" lon="7.02288">
        <ele>266.20001220703</ele>
        <time>2022-04-12T13:41:25.000Z</time>
      </trkpt>
      <trkpt lat="43.68317" lon="7.023">
        <ele>266.39999389648</ele>
        <time>2022-04-12T13:41:30.000Z</time>
      </trkpt>
      <trkpt lat="43.68313" lon="7.02312">
        <ele>265.20001220703</ele>
        <time>2022-04-12T13:41:36.000Z</time>
      </trkpt>
      <trkpt lat="43.68313" lon="7.02313">
        <ele>264.39999389648</ele>
        <time>2022-04-12T13:41:44.000Z</time>
      </trkpt>
      <trkpt lat="43.68313" lon="7.02314">
        <ele>264.60000610352</ele>
        <time>2022-04-12T13:41:50.000Z</time>
      </trkpt>
      <trkpt lat="43.68313" lon="7.02314">
        <ele>264.20001220703</ele>
        <time>2022-04-12T13:41:53.000Z</time>
      </trkpt>
      <trkpt lat="43.68313" lon="7.02314">
        <ele>264.60000610352</ele>
        <time>2022-04-12T13:42:05.000Z</time>
      </trkpt>
      <trkpt lat="43.68312" lon="7.02315">
        <ele>264.39999389648</ele>
        <time>2022-04-12T13:42:11.000Z</time>
      </trkpt>
      <trkpt lat="43.68313" lon="7.02313">
        <ele>265</ele>
        <time>2022-04-12T13:42:20.000Z</time>
      </trkpt>
      <trkpt lat="43.68313" lon="7.02313">
        <ele>265.20001220703</ele>
        <time>2022-04-12T13:42:21.000Z</time>
      </trkpt>
      <trkpt lat="43.68313" lon="7.02311">
        <ele>265.39999389648</ele>
        <time>2022-04-12T13:42:28.000Z</time>
      </trkpt>
      <trkpt lat="43.68315" lon="7.02309">
        <ele>265.39999389648</ele>
        <time>2022-04-12T13:42:35.000Z</time>
      </trkpt>
      <trkpt lat="43.68316" lon="7.02308">
        <ele>265.20001220703</ele>
        <time>2022-04-12T13:42:42.000Z</time>
      </trkpt>
      <trkpt lat="43.68317" lon="7.02308">
        <ele>265.60000610352</ele>
        <time>2022-04-12T13:42:47.000Z</time>
      </trkpt>
      <trkpt lat="43.68319" lon="7.02308">
        <ele>266.39999389648</ele>
        <time>2022-04-12T13:42:50.000Z</time>
      </trkpt>
      <trkpt lat="43.68319" lon="7.02308">
        <ele>267</ele>
        <time>2022-04-12T13:42:53.000Z</time>
      </trkpt>
      <trkpt lat="43.68319" lon="7.02313">
        <ele>267.79998779297</ele>
        <time>2022-04-12T13:42:59.000Z</time>
      </trkpt>
      <trkpt lat="43.68319" lon="7.02323">
        <ele>267.79998779297</ele>
        <time>2022-04-12T13:43:03.000Z</time>
      </trkpt>
      <trkpt lat="43.68316" lon="7.02344">
        <ele>266.60000610352</ele>
        <time>2022-04-12T13:43:09.000Z</time>
      </trkpt>
      <trkpt lat="43.68312" lon="7.02361">
        <ele>266.20001220703</ele>
        <time>2022-04-12T13:43:14.000Z</time>
      </trkpt>
      <trkpt lat="43.68299" lon="7.02365">
        <ele>265.39999389648</ele>
        <time>2022-04-12T13:43:18.000Z</time>
      </trkpt>
      <trkpt lat="43.68295" lon="7.02368">
        <ele>264.20001220703</ele>
        <time>2022-04-12T13:43:20.000Z</time>
      </trkpt>
      <trkpt lat="43.68295" lon="7.02368">
        <ele>263.39999389648</ele>
        <time>2022-04-12T13:43:22.000Z</time>
      </trkpt>
      <trkpt lat="43.68296" lon="7.02368">
        <ele>263.60000610352</ele>
        <time>2022-04-12T13:43:31.000Z</time>
      </trkpt>
      <trkpt lat="43.68296" lon="7.02368">
        <ele>264.39999389648</ele>
        <time>2022-04-12T13:43:37.000Z</time>
      </trkpt>
      <trkpt lat="43.68297" lon="7.02368">
        <ele>264</ele>
        <time>2022-04-12T13:43:47.000Z</time>
      </trkpt>
      <trkpt lat="43.68298" lon="7.02368">
        <ele>263.60000610352</ele>
        <time>2022-04-12T13:44:13.000Z</time>
      </trkpt>
      <trkpt lat="43.68299" lon="7.02368">
        <ele>263.20001220703</ele>
        <time>2022-04-12T13:44:24.000Z</time>
      </trkpt>
      <trkpt lat="43.68299" lon="7.02368">
        <ele>263.20001220703</ele>
        <time>2022-04-12T13:44:29.000Z</time>
      </trkpt>
      <trkpt lat="43.68299" lon="7.02369">
        <ele>263.79998779297</ele>
        <time>2022-04-12T13:44:38.000Z</time>
      </trkpt>
      <trkpt lat="43.68299" lon="7.0237">
        <ele>264.20001220703</ele>
        <time>2022-04-12T13:44:51.000Z</time>
      </trkpt>
      <trkpt lat="43.68297" lon="7.02371">
        <ele>263.60000610352</ele>
        <time>2022-04-12T13:44:58.000Z</time>
      </trkpt>
      <trkpt lat="43.68299" lon="7.02371">
        <ele>263.60000610352</ele>
        <time>2022-04-12T13:44:59.000Z</time>
      </trkpt>
      <trkpt lat="43.68296" lon="7.02372">
        <ele>263.79998779297</ele>
        <time>2022-04-12T13:45:01.000Z</time>
      </trkpt>
      <trkpt lat="43.68292" lon="7.02379">
        <ele>264</ele>
        <time>2022-04-12T13:45:04.000Z</time>
      </trkpt>
      <trkpt lat="43.68288" lon="7.02385">
        <ele>264</ele>
        <time>2022-04-12T13:45:06.000Z</time>
      </trkpt>
      <trkpt lat="43.68282" lon="7.02393">
        <ele>263.39999389648</ele>
        <time>2022-04-12T13:45:10.000Z</time>
      </trkpt>
      <trkpt lat="43.68282" lon="7.02393">
        <ele>263</ele>
        <time>2022-04-12T13:45:14.000Z</time>
      </trkpt>
      <trkpt lat="43.68279" lon="7.02404">
        <ele>262.79998779297</ele>
        <time>2022-04-12T13:45:18.000Z</time>
      </trkpt>
      <trkpt lat="43.68275" lon="7.02418">
        <ele>262.39999389648</ele>
        <time>2022-04-12T13:45:21.000Z</time>
      </trkpt>
      <trkpt lat="43.68276" lon="7.02424">
        <ele>262.39999389648</ele>
        <time>2022-04-12T13:45:22.000Z</time>
      </trkpt>
      <trkpt lat="43.68277" lon="7.02428">
        <ele>262.20001220703</ele>
        <time>2022-04-12T13:45:23.000Z</time>
      </trkpt>
      <trkpt lat="43.68281" lon="7.02437">
        <ele>262.20001220703</ele>
        <time>2022-04-12T13:45:25.000Z</time>
      </trkpt>
      <trkpt lat="43.68292" lon="7.02454">
        <ele>262</ele>
        <time>2022-04-12T13:45:29.000Z</time>
      </trkpt>
      <trkpt lat="43.68295" lon="7.02458">
        <ele>261.79998779297</ele>
        <time>2022-04-12T13:45:30.000Z</time>
      </trkpt>
      <trkpt lat="43.68302" lon="7.02471">
        <ele>261.20001220703</ele>
        <time>2022-04-12T13:45:33.000Z</time>
      </trkpt>
      <trkpt lat="43.68302" lon="7.02478">
        <ele>261</ele>
        <time>2022-04-12T13:45:34.000Z</time>
      </trkpt>
      <trkpt lat="43.68295" lon="7.02496">
        <ele>260.60000610352</ele>
        <time>2022-04-12T13:45:37.000Z</time>
      </trkpt>
      <trkpt lat="43.68293" lon="7.02504">
        <ele>260.60000610352</ele>
        <time>2022-04-12T13:45:38.000Z</time>
      </trkpt>
      <trkpt lat="43.68288" lon="7.0252">
        <ele>260</ele>
        <time>2022-04-12T13:45:40.000Z</time>
      </trkpt>
      <trkpt lat="43.68285" lon="7.02528">
        <ele>259.39999389648</ele>
        <time>2022-04-12T13:45:41.000Z</time>
      </trkpt>
      <trkpt lat="43.68281" lon="7.02536">
        <ele>258.79998779297</ele>
        <time>2022-04-12T13:45:42.000Z</time>
      </trkpt>
      <trkpt lat="43.68271" lon="7.0255">
        <ele>257.79998779297</ele>
        <time>2022-04-12T13:45:44.000Z</time>
      </trkpt>
      <trkpt lat="43.68261" lon="7.02558">
        <ele>256.79998779297</ele>
        <time>2022-04-12T13:45:46.000Z</time>
      </trkpt>
      <trkpt lat="43.68256" lon="7.02562">
        <ele>256.60000610352</ele>
        <time>2022-04-12T13:45:47.000Z</time>
      </trkpt>
      <trkpt lat="43.6823" lon="7.02586">
        <ele>255.80000305176</ele>
        <time>2022-04-12T13:45:52.000Z</time>
      </trkpt>
      <trkpt lat="43.68228" lon="7.02592">
        <ele>255.80000305176</ele>
        <time>2022-04-12T13:45:53.000Z</time>
      </trkpt>
      <trkpt lat="43.68223" lon="7.02605">
        <ele>255.39999389648</ele>
        <time>2022-04-12T13:45:55.000Z</time>
      </trkpt>
      <trkpt lat="43.68203" lon="7.02661">
        <ele>254.80000305176</ele>
        <time>2022-04-12T13:46:03.000Z</time>
      </trkpt>
      <trkpt lat="43.68198" lon="7.02673">
        <ele>254.39999389648</ele>
        <time>2022-04-12T13:46:05.000Z</time>
      </trkpt>
      <trkpt lat="43.68195" lon="7.02679">
        <ele>254.19999694824</ele>
        <time>2022-04-12T13:46:06.000Z</time>
      </trkpt>
      <trkpt lat="43.68189" lon="7.02698">
        <ele>253.80000305176</ele>
        <time>2022-04-12T13:46:09.000Z</time>
      </trkpt>
      <trkpt lat="43.68182" lon="7.02716">
        <ele>253.39999389648</ele>
        <time>2022-04-12T13:46:12.000Z</time>
      </trkpt>
      <trkpt lat="43.6818" lon="7.02723">
        <ele>253.19999694824</ele>
        <time>2022-04-12T13:46:13.000Z</time>
      </trkpt>
      <trkpt lat="43.68178" lon="7.02729">
        <ele>253</ele>
        <time>2022-04-12T13:46:14.000Z</time>
      </trkpt>
      <trkpt lat="43.68172" lon="7.02743">
        <ele>252.60000610352</ele>
        <time>2022-04-12T13:46:16.000Z</time>
      </trkpt>
      <trkpt lat="43.68167" lon="7.02757">
        <ele>252.19999694824</ele>
        <time>2022-04-12T13:46:18.000Z</time>
      </trkpt>
      <trkpt lat="43.68157" lon="7.02777">
        <ele>251.39999389648</ele>
        <time>2022-04-12T13:46:21.000Z</time>
      </trkpt>
      <trkpt lat="43.6815" lon="7.02791">
        <ele>251.19999694824</ele>
        <time>2022-04-12T13:46:23.000Z</time>
      </trkpt>
      <trkpt lat="43.68135" lon="7.02828">
        <ele>250</ele>
        <time>2022-04-12T13:46:28.000Z</time>
      </trkpt>
      <trkpt lat="43.68133" lon="7.02835">
        <ele>249.60000610352</ele>
        <time>2022-04-12T13:46:29.000Z</time>
      </trkpt>
      <trkpt lat="43.68124" lon="7.02857">
        <ele>248.80000305176</ele>
        <time>2022-04-12T13:46:32.000Z</time>
      </trkpt>
      <trkpt lat="43.68119" lon="7.02872">
        <ele>248.60000610352</ele>
        <time>2022-04-12T13:46:34.000Z</time>
      </trkpt>
      <trkpt lat="43.68113" lon="7.02892">
        <ele>247.80000305176</ele>
        <time>2022-04-12T13:46:37.000Z</time>
      </trkpt>
      <trkpt lat="43.68094" lon="7.0294">
        <ele>247</ele>
        <time>2022-04-12T13:46:44.000Z</time>
      </trkpt>
      <trkpt lat="43.68081" lon="7.02964">
        <ele>246.80000305176</ele>
        <time>2022-04-12T13:46:48.000Z</time>
      </trkpt>
      <trkpt lat="43.68062" lon="7.02993">
        <ele>246</ele>
        <time>2022-04-12T13:46:53.000Z</time>
      </trkpt>
      <trkpt lat="43.68058" lon="7.02999">
        <ele>245.60000610352</ele>
        <time>2022-04-12T13:46:54.000Z</time>
      </trkpt>
      <trkpt lat="43.68038" lon="7.03035">
        <ele>245.39999389648</ele>
        <time>2022-04-12T13:47:00.000Z</time>
      </trkpt>
      <trkpt lat="43.68037" lon="7.03042">
        <ele>245.39999389648</ele>
        <time>2022-04-12T13:47:01.000Z</time>
      </trkpt>
      <trkpt lat="43.68041" lon="7.03066">
        <ele>245</ele>
        <time>2022-04-12T13:47:04.000Z</time>
      </trkpt>
      <trkpt lat="43.68045" lon="7.03089">
        <ele>244.39999389648</ele>
        <time>2022-04-12T13:47:07.000Z</time>
      </trkpt>
      <trkpt lat="43.68054" lon="7.03114">
        <ele>243.39999389648</ele>
        <time>2022-04-12T13:47:11.000Z</time>
      </trkpt>
      <trkpt lat="43.68067" lon="7.03157">
        <ele>243</ele>
        <time>2022-04-12T13:47:18.000Z</time>
      </trkpt>
      <trkpt lat="43.68071" lon="7.03177">
        <ele>242.80000305176</ele>
        <time>2022-04-12T13:47:23.000Z</time>
      </trkpt>
      <trkpt lat="43.68071" lon="7.03177">
        <ele>243.19999694824</ele>
        <time>2022-04-12T13:47:27.000Z</time>
      </trkpt>
      <trkpt lat="43.68071" lon="7.03176">
        <ele>243.60000610352</ele>
        <time>2022-04-12T13:47:34.000Z</time>
      </trkpt>
      <trkpt lat="43.68072" lon="7.03177">
        <ele>243.19999694824</ele>
        <time>2022-04-12T13:47:43.000Z</time>
      </trkpt>
      <trkpt lat="43.68072" lon="7.03178">
        <ele>243.19999694824</ele>
        <time>2022-04-12T13:47:53.000Z</time>
      </trkpt>
      <trkpt lat="43.68073" lon="7.03177">
        <ele>243.39999389648</ele>
        <time>2022-04-12T13:48:10.000Z</time>
      </trkpt>
      <trkpt lat="43.68074" lon="7.03176">
        <ele>242.80000305176</ele>
        <time>2022-04-12T13:48:30.000Z</time>
      </trkpt>
      <trkpt lat="43.68074" lon="7.03175">
        <ele>244.19999694824</ele>
        <time>2022-04-12T13:48:46.000Z</time>
      </trkpt>
      <trkpt lat="43.68075" lon="7.03175">
        <ele>243.80000305176</ele>
        <time>2022-04-12T13:49:01.000Z</time>
      </trkpt>
      <trkpt lat="43.68076" lon="7.03175">
        <ele>243.39999389648</ele>
        <time>2022-04-12T13:49:11.000Z</time>
      </trkpt>
      <trkpt lat="43.68079" lon="7.03174">
        <ele>243.80000305176</ele>
        <time>2022-04-12T13:49:23.000Z</time>
      </trkpt>
      <trkpt lat="43.68083" lon="7.03174">
        <ele>243.39999389648</ele>
        <time>2022-04-12T13:49:36.000Z</time>
      </trkpt>
      <trkpt lat="43.68083" lon="7.03174">
        <ele>243.39999389648</ele>
        <time>2022-04-12T13:49:51.000Z</time>
      </trkpt>
      <trkpt lat="43.68079" lon="7.03173">
        <ele>243.60000610352</ele>
        <time>2022-04-12T13:50:09.000Z</time>
      </trkpt>
      <trkpt lat="43.68077" lon="7.03173">
        <ele>243.39999389648</ele>
        <time>2022-04-12T13:50:31.000Z</time>
      </trkpt>
      <trkpt lat="43.68076" lon="7.03175">
        <ele>243.60000610352</ele>
        <time>2022-04-12T13:50:55.000Z</time>
      </trkpt>
      <trkpt lat="43.68076" lon="7.03175">
        <ele>243.60000610352</ele>
        <time>2022-04-12T13:51:08.000Z</time>
      </trkpt>
      <trkpt lat="43.68075" lon="7.03175">
        <ele>243.39999389648</ele>
        <time>2022-04-12T13:51:14.000Z</time>
      </trkpt>
      <trkpt lat="43.68075" lon="7.03174">
        <ele>243.19999694824</ele>
        <time>2022-04-12T13:51:23.000Z</time>
      </trkpt>
      <trkpt lat="43.68075" lon="7.03175">
        <ele>243</ele>
        <time>2022-04-12T13:51:26.000Z</time>
      </trkpt>
      <trkpt lat="43.68075" lon="7.03175">
        <ele>243.19999694824</ele>
        <time>2022-04-12T13:51:27.000Z</time>
      </trkpt>
      <trkpt lat="43.68075" lon="7.03179">
        <ele>243.80000305176</ele>
        <time>2022-04-12T13:51:35.000Z</time>
      </trkpt>
      <trkpt lat="43.68068" lon="7.0318">
        <ele>243.80000305176</ele>
        <time>2022-04-12T13:51:39.000Z</time>
      </trkpt>
      <trkpt lat="43.68061" lon="7.03182">
        <ele>244.39999389648</ele>
        <time>2022-04-12T13:51:43.000Z</time>
      </trkpt>
      <trkpt lat="43.68064" lon="7.03195">
        <ele>244.39999389648</ele>
        <time>2022-04-12T13:51:46.000Z</time>
      </trkpt>
      <trkpt lat="43.68069" lon="7.03218">
        <ele>243</ele>
        <time>2022-04-12T13:51:49.000Z</time>
      </trkpt>
      <trkpt lat="43.68071" lon="7.03225">
        <ele>242.39999389648</ele>
        <time>2022-04-12T13:51:50.000Z</time>
      </trkpt>
      <trkpt lat="43.68072" lon="7.03231">
        <ele>241.80000305176</ele>
        <time>2022-04-12T13:51:51.000Z</time>
      </trkpt>
      <trkpt lat="43.68075" lon="7.03243">
        <ele>240.80000305176</ele>
        <time>2022-04-12T13:51:53.000Z</time>
      </trkpt>
      <trkpt lat="43.68075" lon="7.0325">
        <ele>240.60000610352</ele>
        <time>2022-04-12T13:51:54.000Z</time>
      </trkpt>
      <trkpt lat="43.68076" lon="7.03256">
        <ele>240.39999389648</ele>
        <time>2022-04-12T13:51:55.000Z</time>
      </trkpt>
      <trkpt lat="43.68075" lon="7.03288">
        <ele>240.39999389648</ele>
        <time>2022-04-12T13:52:00.000Z</time>
      </trkpt>
      <trkpt lat="43.68076" lon="7.03335">
        <ele>240.19999694824</ele>
        <time>2022-04-12T13:52:06.000Z</time>
      </trkpt>
      <trkpt lat="43.68074" lon="7.03358">
        <ele>239.60000610352</ele>
        <time>2022-04-12T13:52:09.000Z</time>
      </trkpt>
      <trkpt lat="43.68072" lon="7.03388">
        <ele>239.19999694824</ele>
        <time>2022-04-12T13:52:13.000Z</time>
      </trkpt>
      <trkpt lat="43.6807" lon="7.03396">
        <ele>239.19999694824</ele>
        <time>2022-04-12T13:52:14.000Z</time>
      </trkpt>
      <trkpt lat="43.68065" lon="7.03416">
        <ele>238.39999389648</ele>
        <time>2022-04-12T13:52:17.000Z</time>
      </trkpt>
      <trkpt lat="43.68063" lon="7.03422">
        <ele>238.19999694824</ele>
        <time>2022-04-12T13:52:18.000Z</time>
      </trkpt>
      <trkpt lat="43.68048" lon="7.03448">
        <ele>238.19999694824</ele>
        <time>2022-04-12T13:52:24.000Z</time>
      </trkpt>
      <trkpt lat="43.68044" lon="7.03452">
        <ele>238.39999389648</ele>
        <time>2022-04-12T13:52:25.000Z</time>
      </trkpt>
      <trkpt lat="43.68035" lon="7.03459">
        <ele>238.19999694824</ele>
        <time>2022-04-12T13:52:27.000Z</time>
      </trkpt>
      <trkpt lat="43.6803" lon="7.03461">
        <ele>237.80000305176</ele>
        <time>2022-04-12T13:52:28.000Z</time>
      </trkpt>
      <trkpt lat="43.68026" lon="7.03461">
        <ele>237.19999694824</ele>
        <time>2022-04-12T13:52:29.000Z</time>
      </trkpt>
      <trkpt lat="43.68021" lon="7.03459">
        <ele>236.80000305176</ele>
        <time>2022-04-12T13:52:31.000Z</time>
      </trkpt>
      <trkpt lat="43.68014" lon="7.03462">
        <ele>237.19999694824</ele>
        <time>2022-04-12T13:52:36.000Z</time>
      </trkpt>
      <trkpt lat="43.68003" lon="7.03483">
        <ele>237.19999694824</ele>
        <time>2022-04-12T13:52:40.000Z</time>
      </trkpt>
      <trkpt lat="43.67991" lon="7.03518">
        <ele>236.19999694824</ele>
        <time>2022-04-12T13:52:45.000Z</time>
      </trkpt>
      <trkpt lat="43.67989" lon="7.03526">
        <ele>236</ele>
        <time>2022-04-12T13:52:46.000Z</time>
      </trkpt>
      <trkpt lat="43.67973" lon="7.03574">
        <ele>235</ele>
        <time>2022-04-12T13:52:52.000Z</time>
      </trkpt>
      <trkpt lat="43.67968" lon="7.03591">
        <ele>234</ele>
        <time>2022-04-12T13:52:54.000Z</time>
      </trkpt>
      <trkpt lat="43.6796" lon="7.03618">
        <ele>233</ele>
        <time>2022-04-12T13:52:57.000Z</time>
      </trkpt>
      <trkpt lat="43.67948" lon="7.03654">
        <ele>232.60000610352</ele>
        <time>2022-04-12T13:53:01.000Z</time>
      </trkpt>
      <trkpt lat="43.67937" lon="7.0369">
        <ele>231.80000305176</ele>
        <time>2022-04-12T13:53:05.000Z</time>
      </trkpt>
      <trkpt lat="43.67928" lon="7.03716">
        <ele>230.60000610352</ele>
        <time>2022-04-12T13:53:08.000Z</time>
      </trkpt>
      <trkpt lat="43.67914" lon="7.03758">
        <ele>229.60000610352</ele>
        <time>2022-04-12T13:53:13.000Z</time>
      </trkpt>
      <trkpt lat="43.67906" lon="7.03784">
        <ele>229</ele>
        <time>2022-04-12T13:53:16.000Z</time>
      </trkpt>
      <trkpt lat="43.67901" lon="7.03802">
        <ele>228.60000610352</ele>
        <time>2022-04-12T13:53:18.000Z</time>
      </trkpt>
      <trkpt lat="43.67889" lon="7.03837">
        <ele>227.19999694824</ele>
        <time>2022-04-12T13:53:22.000Z</time>
      </trkpt>
      <trkpt lat="43.67887" lon="7.03845">
        <ele>227.19999694824</ele>
        <time>2022-04-12T13:53:23.000Z</time>
      </trkpt>
      <trkpt lat="43.67867" lon="7.03905">
        <ele>226.39999389648</ele>
        <time>2022-04-12T13:53:30.000Z</time>
      </trkpt>
      <trkpt lat="43.67858" lon="7.03935">
        <ele>226</ele>
        <time>2022-04-12T13:53:34.000Z</time>
      </trkpt>
      <trkpt lat="43.67849" lon="7.03965">
        <ele>225.80000305176</ele>
        <time>2022-04-12T13:53:38.000Z</time>
      </trkpt>
      <trkpt lat="43.67841" lon="7.03986">
        <ele>225.80000305176</ele>
        <time>2022-04-12T13:53:41.000Z</time>
      </trkpt>
      <trkpt lat="43.67834" lon="7.04008">
        <ele>225.60000610352</ele>
        <time>2022-04-12T13:53:44.000Z</time>
      </trkpt>
      <trkpt lat="43.67824" lon="7.04033">
        <ele>225</ele>
        <time>2022-04-12T13:53:48.000Z</time>
      </trkpt>
      <trkpt lat="43.67815" lon="7.04063">
        <ele>224.80000305176</ele>
        <time>2022-04-12T13:53:54.000Z</time>
      </trkpt>
      <trkpt lat="43.67817" lon="7.04077">
        <ele>224.19999694824</ele>
        <time>2022-04-12T13:53:58.000Z</time>
      </trkpt>
      <trkpt lat="43.67817" lon="7.04093">
        <ele>224</ele>
        <time>2022-04-12T13:54:02.000Z</time>
      </trkpt>
      <trkpt lat="43.67815" lon="7.04108">
        <ele>223.60000610352</ele>
        <time>2022-04-12T13:54:07.000Z</time>
      </trkpt>
      <trkpt lat="43.67808" lon="7.0413">
        <ele>223.60000610352</ele>
        <time>2022-04-12T13:54:13.000Z</time>
      </trkpt>
      <trkpt lat="43.67804" lon="7.04152">
        <ele>223.39999389648</ele>
        <time>2022-04-12T13:54:17.000Z</time>
      </trkpt>
      <trkpt lat="43.67803" lon="7.04158">
        <ele>223.39999389648</ele>
        <time>2022-04-12T13:54:18.000Z</time>
      </trkpt>
      <trkpt lat="43.67807" lon="7.04189">
        <ele>223.39999389648</ele>
        <time>2022-04-12T13:54:23.000Z</time>
      </trkpt>
      <trkpt lat="43.67809" lon="7.04195">
        <ele>223.19999694824</ele>
        <time>2022-04-12T13:54:24.000Z</time>
      </trkpt>
      <trkpt lat="43.67817" lon="7.04213">
        <ele>222.80000305176</ele>
        <time>2022-04-12T13:54:27.000Z</time>
      </trkpt>
      <trkpt lat="43.6782" lon="7.04218">
        <ele>222.80000305176</ele>
        <time>2022-04-12T13:54:28.000Z</time>
      </trkpt>
      <trkpt lat="43.67824" lon="7.04222">
        <ele>222.60000610352</ele>
        <time>2022-04-12T13:54:29.000Z</time>
      </trkpt>
      <trkpt lat="43.67849" lon="7.04241">
        <ele>221.60000610352</ele>
        <time>2022-04-12T13:54:34.000Z</time>
      </trkpt>
      <trkpt lat="43.67883" lon="7.04269">
        <ele>220.80000305176</ele>
        <time>2022-04-12T13:54:40.000Z</time>
      </trkpt>
      <trkpt lat="43.67887" lon="7.04275">
        <ele>220.60000610352</ele>
        <time>2022-04-12T13:54:41.000Z</time>
      </trkpt>
      <trkpt lat="43.67897" lon="7.04301">
        <ele>219.39999389648</ele>
        <time>2022-04-12T13:54:44.000Z</time>
      </trkpt>
      <trkpt lat="43.67895" lon="7.0434">
        <ele>218.60000610352</ele>
        <time>2022-04-12T13:54:48.000Z</time>
      </trkpt>
      <trkpt lat="43.67893" lon="7.04349">
        <ele>218.39999389648</ele>
        <time>2022-04-12T13:54:49.000Z</time>
      </trkpt>
      <trkpt lat="43.67881" lon="7.04372">
        <ele>217.19999694824</ele>
        <time>2022-04-12T13:54:52.000Z</time>
      </trkpt>
      <trkpt lat="43.67876" lon="7.04379">
        <ele>217</ele>
        <time>2022-04-12T13:54:53.000Z</time>
      </trkpt>
      <trkpt lat="43.67864" lon="7.044">
        <ele>216.19999694824</ele>
        <time>2022-04-12T13:54:56.000Z</time>
      </trkpt>
      <trkpt lat="43.67853" lon="7.0442">
        <ele>215.80000305176</ele>
        <time>2022-04-12T13:54:59.000Z</time>
      </trkpt>
      <trkpt lat="43.6785" lon="7.04426">
        <ele>215.60000610352</ele>
        <time>2022-04-12T13:55:00.000Z</time>
      </trkpt>
      <trkpt lat="43.67832" lon="7.04472">
        <ele>215</ele>
        <time>2022-04-12T13:55:06.000Z</time>
      </trkpt>
      <trkpt lat="43.6783" lon="7.0448">
        <ele>214.80000305176</ele>
        <time>2022-04-12T13:55:07.000Z</time>
      </trkpt>
      <trkpt lat="43.67827" lon="7.04495">
        <ele>214.60000610352</ele>
        <time>2022-04-12T13:55:09.000Z</time>
      </trkpt>
      <trkpt lat="43.67823" lon="7.04527">
        <ele>214.19999694824</ele>
        <time>2022-04-12T13:55:13.000Z</time>
      </trkpt>
      <trkpt lat="43.67823" lon="7.04542">
        <ele>214.19999694824</ele>
        <time>2022-04-12T13:55:15.000Z</time>
      </trkpt>
      <trkpt lat="43.67824" lon="7.04558">
        <ele>214.39999389648</ele>
        <time>2022-04-12T13:55:18.000Z</time>
      </trkpt>
      <trkpt lat="43.67821" lon="7.0457">
        <ele>214.39999389648</ele>
        <time>2022-04-12T13:55:21.000Z</time>
      </trkpt>
      <trkpt lat="43.67822" lon="7.04569">
        <ele>214.19999694824</ele>
        <time>2022-04-12T13:55:27.000Z</time>
      </trkpt>
      <trkpt lat="43.67822" lon="7.04569">
        <ele>214</ele>
        <time>2022-04-12T13:55:31.000Z</time>
      </trkpt>
      <trkpt lat="43.67823" lon="7.04568">
        <ele>213.80000305176</ele>
        <time>2022-04-12T13:55:37.000Z</time>
      </trkpt>
      <trkpt lat="43.67823" lon="7.04568">
        <ele>214.80000305176</ele>
        <time>2022-04-12T13:55:43.000Z</time>
      </trkpt>
      <trkpt lat="43.67822" lon="7.04567">
        <ele>214</ele>
        <time>2022-04-12T13:55:55.000Z</time>
      </trkpt>
      <trkpt lat="43.67821" lon="7.04568">
        <ele>214</ele>
        <time>2022-04-12T13:56:16.000Z</time>
      </trkpt>
      <trkpt lat="43.67821" lon="7.04563">
        <ele>214.19999694824</ele>
        <time>2022-04-12T13:56:31.000Z</time>
      </trkpt>
      <trkpt lat="43.67824" lon="7.04562">
        <ele>214.19999694824</ele>
        <time>2022-04-12T13:56:46.000Z</time>
      </trkpt>
      <trkpt lat="43.67824" lon="7.04562">
        <ele>214.19999694824</ele>
        <time>2022-04-12T13:56:57.000Z</time>
      </trkpt>
      <trkpt lat="43.67823" lon="7.04562">
        <ele>214.19999694824</ele>
        <time>2022-04-12T13:57:14.000Z</time>
      </trkpt>
      <trkpt lat="43.67823" lon="7.04558">
        <ele>214</ele>
        <time>2022-04-12T13:57:34.000Z</time>
      </trkpt>
      <trkpt lat="43.67822" lon="7.04559">
        <ele>214</ele>
        <time>2022-04-12T13:57:38.000Z</time>
      </trkpt>
      <trkpt lat="43.67818" lon="7.04559">
        <ele>214.19999694824</ele>
        <time>2022-04-12T13:57:40.000Z</time>
      </trkpt>
      <trkpt lat="43.67806" lon="7.04554">
        <ele>214.60000610352</ele>
        <time>2022-04-12T13:57:45.000Z</time>
      </trkpt>
      <trkpt lat="43.67793" lon="7.04554">
        <ele>214.80000305176</ele>
        <time>2022-04-12T13:57:48.000Z</time>
      </trkpt>
      <trkpt lat="43.67784" lon="7.04553">
        <ele>214.80000305176</ele>
        <time>2022-04-12T13:57:50.000Z</time>
      </trkpt>
      <trkpt lat="43.67769" lon="7.04549">
        <ele>215.19999694824</ele>
        <time>2022-04-12T13:57:53.000Z</time>
      </trkpt>
      <trkpt lat="43.67753" lon="7.04546">
        <ele>215.60000610352</ele>
        <time>2022-04-12T13:57:56.000Z</time>
      </trkpt>
      <trkpt lat="43.67733" lon="7.04544">
        <ele>216.39999389648</ele>
        <time>2022-04-12T13:58:00.000Z</time>
      </trkpt>
      <trkpt lat="43.6773" lon="7.04544">
        <ele>216.60000610352</ele>
        <time>2022-04-12T13:58:01.000Z</time>
      </trkpt>
      <trkpt lat="43.67718" lon="7.04547">
        <ele>217.39999389648</ele>
        <time>2022-04-12T13:58:04.000Z</time>
      </trkpt>
      <trkpt lat="43.67707" lon="7.04551">
        <ele>218.80000305176</ele>
        <time>2022-04-12T13:58:07.000Z</time>
      </trkpt>
      <trkpt lat="43.67703" lon="7.04552">
        <ele>219.19999694824</ele>
        <time>2022-04-12T13:58:08.000Z</time>
      </trkpt>
      <trkpt lat="43.67695" lon="7.04554">
        <ele>220.19999694824</ele>
        <time>2022-04-12T13:58:10.000Z</time>
      </trkpt>
      <trkpt lat="43.67679" lon="7.04558">
        <ele>221.19999694824</ele>
        <time>2022-04-12T13:58:14.000Z</time>
      </trkpt>
      <trkpt lat="43.67662" lon="7.04563">
        <ele>222.19999694824</ele>
        <time>2022-04-12T13:58:18.000Z</time>
      </trkpt>
      <trkpt lat="43.67658" lon="7.04565">
        <ele>222.39999389648</ele>
        <time>2022-04-12T13:58:19.000Z</time>
      </trkpt>
      <trkpt lat="43.67646" lon="7.04567">
        <ele>223.80000305176</ele>
        <time>2022-04-12T13:58:22.000Z</time>
      </trkpt>
      <trkpt lat="43.67639" lon="7.04569">
        <ele>224.60000610352</ele>
        <time>2022-04-12T13:58:24.000Z</time>
      </trkpt>
      <trkpt lat="43.67635" lon="7.0457">
        <ele>224.80000305176</ele>
        <time>2022-04-12T13:58:25.000Z</time>
      </trkpt>
      <trkpt lat="43.67621" lon="7.04572">
        <ele>225.80000305176</ele>
        <time>2022-04-12T13:58:28.000Z</time>
      </trkpt>
      <trkpt lat="43.67606" lon="7.04574">
        <ele>226.19999694824</ele>
        <time>2022-04-12T13:58:31.000Z</time>
      </trkpt>
      <trkpt lat="43.67572" lon="7.04579">
        <ele>224.80000305176</ele>
        <time>2022-04-12T13:58:37.000Z</time>
      </trkpt>
      <trkpt lat="43.67567" lon="7.04578">
        <ele>224.39999389648</ele>
        <time>2022-04-12T13:58:38.000Z</time>
      </trkpt>
      <trkpt lat="43.67545" lon="7.04582">
        <ele>224.19999694824</ele>
        <time>2022-04-12T13:58:42.000Z</time>
      </trkpt>
      <trkpt lat="43.67539" lon="7.04583">
        <ele>224</ele>
        <time>2022-04-12T13:58:43.000Z</time>
      </trkpt>
      <trkpt lat="43.67527" lon="7.04583">
        <ele>223.60000610352</ele>
        <time>2022-04-12T13:58:45.000Z</time>
      </trkpt>
      <trkpt lat="43.67503" lon="7.04585">
        <ele>222.39999389648</ele>
        <time>2022-04-12T13:58:49.000Z</time>
      </trkpt>
      <trkpt lat="43.67496" lon="7.04586">
        <ele>222.39999389648</ele>
        <time>2022-04-12T13:58:50.000Z</time>
      </trkpt>
      <trkpt lat="43.67466" lon="7.04591">
        <ele>221.19999694824</ele>
        <time>2022-04-12T13:58:55.000Z</time>
      </trkpt>
      <trkpt lat="43.67441" lon="7.04597">
        <ele>220.60000610352</ele>
        <time>2022-04-12T13:58:59.000Z</time>
      </trkpt>
      <trkpt lat="43.67421" lon="7.04601">
        <ele>220</ele>
        <time>2022-04-12T13:59:02.000Z</time>
      </trkpt>
      <trkpt lat="43.67409" lon="7.04602">
        <ele>219.60000610352</ele>
        <time>2022-04-12T13:59:04.000Z</time>
      </trkpt>
      <trkpt lat="43.67391" lon="7.04604">
        <ele>219</ele>
        <time>2022-04-12T13:59:07.000Z</time>
      </trkpt>
      <trkpt lat="43.67368" lon="7.0461">
        <ele>219.80000305176</ele>
        <time>2022-04-12T13:59:11.000Z</time>
      </trkpt>
      <trkpt lat="43.67336" lon="7.0462">
        <ele>220.19999694824</ele>
        <time>2022-04-12T13:59:17.000Z</time>
      </trkpt>
      <trkpt lat="43.6733" lon="7.04622">
        <ele>220.39999389648</ele>
        <time>2022-04-12T13:59:18.000Z</time>
      </trkpt>
      <trkpt lat="43.67299" lon="7.04627">
        <ele>220.80000305176</ele>
        <time>2022-04-12T13:59:23.000Z</time>
      </trkpt>
      <trkpt lat="43.67264" lon="7.04642">
        <ele>218.39999389648</ele>
        <time>2022-04-12T13:59:27.000Z</time>
      </trkpt>
      <trkpt lat="43.67245" lon="7.04645">
        <ele>216.19999694824</ele>
        <time>2022-04-12T13:59:29.000Z</time>
      </trkpt>
      <trkpt lat="43.67235" lon="7.04648">
        <ele>215</ele>
        <time>2022-04-12T13:59:30.000Z</time>
      </trkpt>
      <trkpt lat="43.67226" lon="7.0465">
        <ele>213.80000305176</ele>
        <time>2022-04-12T13:59:31.000Z</time>
      </trkpt>
      <trkpt lat="43.67217" lon="7.04652">
        <ele>212.80000305176</ele>
        <time>2022-04-12T13:59:32.000Z</time>
      </trkpt>
      <trkpt lat="43.67208" lon="7.04655">
        <ele>211.60000610352</ele>
        <time>2022-04-12T13:59:33.000Z</time>
      </trkpt>
      <trkpt lat="43.67191" lon="7.0466">
        <ele>210.19999694824</ele>
        <time>2022-04-12T13:59:35.000Z</time>
      </trkpt>
      <trkpt lat="43.67175" lon="7.04664">
        <ele>209.39999389648</ele>
        <time>2022-04-12T13:59:37.000Z</time>
      </trkpt>
      <trkpt lat="43.67168" lon="7.04664">
        <ele>209.19999694824</ele>
        <time>2022-04-12T13:59:38.000Z</time>
      </trkpt>
      <trkpt lat="43.6716" lon="7.04665">
        <ele>209</ele>
        <time>2022-04-12T13:59:39.000Z</time>
      </trkpt>
      <trkpt lat="43.67124" lon="7.04674">
        <ele>208.39999389648</ele>
        <time>2022-04-12T13:59:44.000Z</time>
      </trkpt>
      <trkpt lat="43.67113" lon="7.04678">
        <ele>208</ele>
        <time>2022-04-12T13:59:46.000Z</time>
      </trkpt>
      <trkpt lat="43.67102" lon="7.04681">
        <ele>207.60000610352</ele>
        <time>2022-04-12T13:59:48.000Z</time>
      </trkpt>
      <trkpt lat="43.67089" lon="7.0468">
        <ele>207</ele>
        <time>2022-04-12T13:59:52.000Z</time>
      </trkpt>
      <trkpt lat="43.67087" lon="7.0468">
        <ele>207</ele>
        <time>2022-04-12T13:59:53.000Z</time>
      </trkpt>
      <trkpt lat="43.67084" lon="7.04681">
        <ele>206.80000305176</ele>
        <time>2022-04-12T13:59:55.000Z</time>
      </trkpt>
      <trkpt lat="43.67083" lon="7.04684">
        <ele>206.80000305176</ele>
        <time>2022-04-12T13:59:56.000Z</time>
      </trkpt>
      <trkpt lat="43.67081" lon="7.04694">
        <ele>206.80000305176</ele>
        <time>2022-04-12T13:59:59.000Z</time>
      </trkpt>
      <trkpt lat="43.67079" lon="7.04703">
        <ele>206.80000305176</ele>
        <time>2022-04-12T14:00:01.000Z</time>
      </trkpt>
      <trkpt lat="43.67071" lon="7.04732">
        <ele>207</ele>
        <time>2022-04-12T14:00:06.000Z</time>
      </trkpt>
      <trkpt lat="43.67058" lon="7.04774">
        <ele>207.80000305176</ele>
        <time>2022-04-12T14:00:13.000Z</time>
      </trkpt>
      <trkpt lat="43.67049" lon="7.04807">
        <ele>207.80000305176</ele>
        <time>2022-04-12T14:00:19.000Z</time>
      </trkpt>
      <trkpt lat="43.67047" lon="7.04813">
        <ele>208</ele>
        <time>2022-04-12T14:00:21.000Z</time>
      </trkpt>
      <trkpt lat="43.67046" lon="7.04813">
        <ele>208.39999389648</ele>
        <time>2022-04-12T14:00:23.000Z</time>
      </trkpt>
      <trkpt lat="43.67046" lon="7.04814">
        <ele>209.19999694824</ele>
        <time>2022-04-12T14:00:26.000Z</time>
      </trkpt>
      <trkpt lat="43.67043" lon="7.04818">
        <ele>209.80000305176</ele>
        <time>2022-04-12T14:00:29.000Z</time>
      </trkpt>
      <trkpt lat="43.67041" lon="7.0482">
        <ele>209.60000610352</ele>
        <time>2022-04-12T14:00:30.000Z</time>
      </trkpt>
      <trkpt lat="43.67031" lon="7.04834">
        <ele>209.19999694824</ele>
        <time>2022-04-12T14:00:34.000Z</time>
      </trkpt>
      <trkpt lat="43.6703" lon="7.04837">
        <ele>209.19999694824</ele>
        <time>2022-04-12T14:00:35.000Z</time>
      </trkpt>
      <trkpt lat="43.67021" lon="7.04865">
        <ele>209</ele>
        <time>2022-04-12T14:00:39.000Z</time>
      </trkpt>
      <trkpt lat="43.6702" lon="7.04872">
        <ele>208.80000305176</ele>
        <time>2022-04-12T14:00:40.000Z</time>
      </trkpt>
      <trkpt lat="43.67014" lon="7.04894">
        <ele>209</ele>
        <time>2022-04-12T14:00:44.000Z</time>
      </trkpt>
      <trkpt lat="43.67011" lon="7.04911">
        <ele>210.80000305176</ele>
        <time>2022-04-12T14:00:47.000Z</time>
      </trkpt>
      <trkpt lat="43.6701" lon="7.04918">
        <ele>211.19999694824</ele>
        <time>2022-04-12T14:00:48.000Z</time>
      </trkpt>
      <trkpt lat="43.67008" lon="7.04927">
        <ele>211.60000610352</ele>
        <time>2022-04-12T14:00:50.000Z</time>
      </trkpt>
      <trkpt lat="43.67004" lon="7.04947">
        <ele>211.39999389648</ele>
        <time>2022-04-12T14:00:54.000Z</time>
      </trkpt>
      <trkpt lat="43.67004" lon="7.04953">
        <ele>211.19999694824</ele>
        <time>2022-04-12T14:00:55.000Z</time>
      </trkpt>
      <trkpt lat="43.67004" lon="7.0497">
        <ele>211.19999694824</ele>
        <time>2022-04-12T14:00:58.000Z</time>
      </trkpt>
      <trkpt lat="43.67006" lon="7.04988">
        <ele>211.80000305176</ele>
        <time>2022-04-12T14:01:01.000Z</time>
      </trkpt>
      <trkpt lat="43.67006" lon="7.04995">
        <ele>211.80000305176</ele>
        <time>2022-04-12T14:01:02.000Z</time>
      </trkpt>
      <trkpt lat="43.67007" lon="7.05033">
        <ele>211.80000305176</ele>
        <time>2022-04-12T14:01:08.000Z</time>
      </trkpt>
      <trkpt lat="43.67007" lon="7.05062">
        <ele>213.19999694824</ele>
        <time>2022-04-12T14:01:13.000Z</time>
      </trkpt>
      <trkpt lat="43.67007" lon="7.05068">
        <ele>213.60000610352</ele>
        <time>2022-04-12T14:01:14.000Z</time>
      </trkpt>
      <trkpt lat="43.67008" lon="7.05078">
        <ele>214.19999694824</ele>
        <time>2022-04-12T14:01:16.000Z</time>
      </trkpt>
      <trkpt lat="43.6701" lon="7.05091">
        <ele>215.39999389648</ele>
        <time>2022-04-12T14:01:19.000Z</time>
      </trkpt>
      <trkpt lat="43.67012" lon="7.05092">
        <ele>215.60000610352</ele>
        <time>2022-04-12T14:01:20.000Z</time>
      </trkpt>
      <trkpt lat="43.67016" lon="7.05102">
        <ele>216.60000610352</ele>
        <time>2022-04-12T14:01:23.000Z</time>
      </trkpt>
      <trkpt lat="43.67018" lon="7.05108">
        <ele>217</ele>
        <time>2022-04-12T14:01:25.000Z</time>
      </trkpt>
      <trkpt lat="43.67021" lon="7.05119">
        <ele>217.60000610352</ele>
        <time>2022-04-12T14:01:28.000Z</time>
      </trkpt>
      <trkpt lat="43.67025" lon="7.05126">
        <ele>217.80000305176</ele>
        <time>2022-04-12T14:01:30.000Z</time>
      </trkpt>
      <trkpt lat="43.67038" lon="7.05155">
        <ele>218.60000610352</ele>
        <time>2022-04-12T14:01:37.000Z</time>
      </trkpt>
      <trkpt lat="43.67048" lon="7.05189">
        <ele>219.80000305176</ele>
        <time>2022-04-12T14:01:44.000Z</time>
      </trkpt>
      <trkpt lat="43.67053" lon="7.05213">
        <ele>221.19999694824</ele>
        <time>2022-04-12T14:01:49.000Z</time>
      </trkpt>
      <trkpt lat="43.67054" lon="7.05218">
        <ele>221.39999389648</ele>
        <time>2022-04-12T14:01:50.000Z</time>
      </trkpt>
      <trkpt lat="43.6706" lon="7.05229">
        <ele>222.39999389648</ele>
        <time>2022-04-12T14:01:53.000Z</time>
      </trkpt>
      <trkpt lat="43.67066" lon="7.05235">
        <ele>222.80000305176</ele>
        <time>2022-04-12T14:01:55.000Z</time>
      </trkpt>
      <trkpt lat="43.67079" lon="7.05247">
        <ele>223.60000610352</ele>
        <time>2022-04-12T14:01:59.000Z</time>
      </trkpt>
      <trkpt lat="43.67083" lon="7.05254">
        <ele>224</ele>
        <time>2022-04-12T14:02:01.000Z</time>
      </trkpt>
      <trkpt lat="43.67089" lon="7.05266">
        <ele>224.80000305176</ele>
        <time>2022-04-12T14:02:04.000Z</time>
      </trkpt>
      <trkpt lat="43.67094" lon="7.05277">
        <ele>226</ele>
        <time>2022-04-12T14:02:07.000Z</time>
      </trkpt>
      <trkpt lat="43.67098" lon="7.05289">
        <ele>227</ele>
        <time>2022-04-12T14:02:10.000Z</time>
      </trkpt>
      <trkpt lat="43.671" lon="7.05293">
        <ele>227.39999389648</ele>
        <time>2022-04-12T14:02:11.000Z</time>
      </trkpt>
      <trkpt lat="43.67113" lon="7.0533">
        <ele>228.19999694824</ele>
        <time>2022-04-12T14:02:19.000Z</time>
      </trkpt>
      <trkpt lat="43.67115" lon="7.05333">
        <ele>228.60000610352</ele>
        <time>2022-04-12T14:02:20.000Z</time>
      </trkpt>
      <trkpt lat="43.67119" lon="7.05347">
        <ele>229.60000610352</ele>
        <time>2022-04-12T14:02:23.000Z</time>
      </trkpt>
      <trkpt lat="43.67123" lon="7.05356">
        <ele>230.60000610352</ele>
        <time>2022-04-12T14:02:25.000Z</time>
      </trkpt>
      <trkpt lat="43.67124" lon="7.05361">
        <ele>231</ele>
        <time>2022-04-12T14:02:26.000Z</time>
      </trkpt>
      <trkpt lat="43.67126" lon="7.0537">
        <ele>232</ele>
        <time>2022-04-12T14:02:28.000Z</time>
      </trkpt>
      <trkpt lat="43.67128" lon="7.05377">
        <ele>233.60000610352</ele>
        <time>2022-04-12T14:02:30.000Z</time>
      </trkpt>
      <trkpt lat="43.6713" lon="7.05383">
        <ele>235</ele>
        <time>2022-04-12T14:02:32.000Z</time>
      </trkpt>
      <trkpt lat="43.67132" lon="7.05389">
        <ele>236.60000610352</ele>
        <time>2022-04-12T14:02:34.000Z</time>
      </trkpt>
      <trkpt lat="43.67137" lon="7.05393">
        <ele>237.39999389648</ele>
        <time>2022-04-12T14:02:36.000Z</time>
      </trkpt>
      <trkpt lat="43.67138" lon="7.05394">
        <ele>237.80000305176</ele>
        <time>2022-04-12T14:02:37.000Z</time>
      </trkpt>
      <trkpt lat="43.67144" lon="7.05393">
        <ele>239.19999694824</ele>
        <time>2022-04-12T14:02:40.000Z</time>
      </trkpt>
      <trkpt lat="43.67146" lon="7.05392">
        <ele>239.60000610352</ele>
        <time>2022-04-12T14:02:41.000Z</time>
      </trkpt>
      <trkpt lat="43.67148" lon="7.05393">
        <ele>240.60000610352</ele>
        <time>2022-04-12T14:02:43.000Z</time>
      </trkpt>
      <trkpt lat="43.67151" lon="7.05396">
        <ele>241</ele>
        <time>2022-04-12T14:02:45.000Z</time>
      </trkpt>
      <trkpt lat="43.67152" lon="7.05398">
        <ele>241.19999694824</ele>
        <time>2022-04-12T14:02:46.000Z</time>
      </trkpt>
      <trkpt lat="43.67152" lon="7.05398">
        <ele>241.80000305176</ele>
        <time>2022-04-12T14:02:48.000Z</time>
      </trkpt>
      <trkpt lat="43.67153" lon="7.05398">
        <ele>242.60000610352</ele>
        <time>2022-04-12T14:02:51.000Z</time>
      </trkpt>
      <trkpt lat="43.67153" lon="7.05398">
        <ele>243</ele>
        <time>2022-04-12T14:02:52.000Z</time>
      </trkpt>
      <trkpt lat="43.67152" lon="7.05397">
        <ele>243.19999694824</ele>
        <time>2022-04-12T14:02:59.000Z</time>
      </trkpt>
      <trkpt lat="43.67151" lon="7.05396">
        <ele>242</ele>
        <time>2022-04-12T14:03:06.000Z</time>
      </trkpt>
      <trkpt lat="43.67151" lon="7.05397">
        <ele>242.80000305176</ele>
        <time>2022-04-12T14:03:14.000Z</time>
      </trkpt>
      <trkpt lat="43.67152" lon="7.05396">
        <ele>242.60000610352</ele>
        <time>2022-04-12T14:03:16.000Z</time>
      </trkpt>
      <trkpt lat="43.67155" lon="7.05392">
        <ele>242</ele>
        <time>2022-04-12T14:03:19.000Z</time>
      </trkpt>
      <trkpt lat="43.67156" lon="7.0539">
        <ele>241.80000305176</ele>
        <time>2022-04-12T14:03:20.000Z</time>
      </trkpt>
      <trkpt lat="43.6716" lon="7.05386">
        <ele>241.60000610352</ele>
        <time>2022-04-12T14:03:23.000Z</time>
      </trkpt>
      <trkpt lat="43.67162" lon="7.05384">
        <ele>241.60000610352</ele>
        <time>2022-04-12T14:03:27.000Z</time>
      </trkpt>
      <trkpt lat="43.67156" lon="7.0539">
        <ele>241.39999389648</ele>
        <time>2022-04-12T14:03:31.000Z</time>
      </trkpt>
      <trkpt lat="43.67155" lon="7.05399">
        <ele>241.80000305176</ele>
        <time>2022-04-12T14:03:34.000Z</time>
      </trkpt>
      <trkpt lat="43.67156" lon="7.05402">
        <ele>241.60000610352</ele>
        <time>2022-04-12T14:03:35.000Z</time>
      </trkpt>
      <trkpt lat="43.67156" lon="7.05403">
        <ele>242.80000305176</ele>
        <time>2022-04-12T14:03:38.000Z</time>
      </trkpt>
      <trkpt lat="43.67156" lon="7.05403">
        <ele>243</ele>
        <time>2022-04-12T14:03:39.000Z</time>
      </trkpt>
      <trkpt lat="43.67157" lon="7.05404">
        <ele>243.19999694824</ele>
        <time>2022-04-12T14:03:42.000Z</time>
      </trkpt>
      <trkpt lat="43.67158" lon="7.05404">
        <ele>242.80000305176</ele>
        <time>2022-04-12T14:03:44.000Z</time>
      </trkpt>
      <trkpt lat="43.67159" lon="7.05405">
        <ele>244.19999694824</ele>
        <time>2022-04-12T14:03:49.000Z</time>
      </trkpt>
      <trkpt lat="43.67159" lon="7.05406">
        <ele>244.39999389648</ele>
        <time>2022-04-12T14:03:50.000Z</time>
      </trkpt>
      <trkpt lat="43.6716" lon="7.05408">
        <ele>244.39999389648</ele>
        <time>2022-04-12T14:03:51.000Z</time>
      </trkpt>
      <trkpt lat="43.67166" lon="7.0542">
        <ele>245.39999389648</ele>
        <time>2022-04-12T14:03:56.000Z</time>
      </trkpt>
      <trkpt lat="43.67167" lon="7.05422">
        <ele>246</ele>
        <time>2022-04-12T14:03:57.000Z</time>
      </trkpt>
      <trkpt lat="43.6717" lon="7.05425">
        <ele>246.80000305176</ele>
        <time>2022-04-12T14:03:59.000Z</time>
      </trkpt>
      <trkpt lat="43.67172" lon="7.0543">
        <ele>248</ele>
        <time>2022-04-12T14:04:01.000Z</time>
      </trkpt>
      <trkpt lat="43.67174" lon="7.05434">
        <ele>249.60000610352</ele>
        <time>2022-04-12T14:04:03.000Z</time>
      </trkpt>
      <trkpt lat="43.67176" lon="7.05439">
        <ele>251.19999694824</ele>
        <time>2022-04-12T14:04:05.000Z</time>
      </trkpt>
      <trkpt lat="43.67179" lon="7.05444">
        <ele>252.60000610352</ele>
        <time>2022-04-12T14:04:07.000Z</time>
      </trkpt>
      <trkpt lat="43.67181" lon="7.05447">
        <ele>253.19999694824</ele>
        <time>2022-04-12T14:04:09.000Z</time>
      </trkpt>
      <trkpt lat="43.67183" lon="7.05449">
        <ele>253.60000610352</ele>
        <time>2022-04-12T14:04:10.000Z</time>
      </trkpt>
      <trkpt lat="43.67188" lon="7.05455">
        <ele>254.60000610352</ele>
        <time>2022-04-12T14:04:13.000Z</time>
      </trkpt>
      <trkpt lat="43.6719" lon="7.05458">
        <ele>255.80000305176</ele>
        <time>2022-04-12T14:04:15.000Z</time>
      </trkpt>
      <trkpt lat="43.6719" lon="7.05461">
        <ele>257</ele>
        <time>2022-04-12T14:04:17.000Z</time>
      </trkpt>
      <trkpt lat="43.67193" lon="7.05465">
        <ele>258.20001220703</ele>
        <time>2022-04-12T14:04:19.000Z</time>
      </trkpt>
      <trkpt lat="43.67194" lon="7.05467">
        <ele>258.39999389648</ele>
        <time>2022-04-12T14:04:20.000Z</time>
      </trkpt>
      <trkpt lat="43.67198" lon="7.05471">
        <ele>259.39999389648</ele>
        <time>2022-04-12T14:04:23.000Z</time>
      </trkpt>
      <trkpt lat="43.67203" lon="7.05476">
        <ele>260.60000610352</ele>
        <time>2022-04-12T14:04:26.000Z</time>
      </trkpt>
      <trkpt lat="43.67205" lon="7.05478">
        <ele>261</ele>
        <time>2022-04-12T14:04:27.000Z</time>
      </trkpt>
      <trkpt lat="43.67207" lon="7.05482">
        <ele>261.79998779297</ele>
        <time>2022-04-12T14:04:29.000Z</time>
      </trkpt>
      <trkpt lat="43.67212" lon="7.05494">
        <ele>263</ele>
        <time>2022-04-12T14:04:34.000Z</time>
      </trkpt>
      <trkpt lat="43.67215" lon="7.05502">
        <ele>264.39999389648</ele>
        <time>2022-04-12T14:04:37.000Z</time>
      </trkpt>
      <trkpt lat="43.67216" lon="7.05506">
        <ele>265.60000610352</ele>
        <time>2022-04-12T14:04:39.000Z</time>
      </trkpt>
      <trkpt lat="43.67217" lon="7.0551">
        <ele>266.79998779297</ele>
        <time>2022-04-12T14:04:41.000Z</time>
      </trkpt>
      <trkpt lat="43.67218" lon="7.05512">
        <ele>267.20001220703</ele>
        <time>2022-04-12T14:04:42.000Z</time>
      </trkpt>
      <trkpt lat="43.6722" lon="7.05516">
        <ele>267.79998779297</ele>
        <time>2022-04-12T14:04:44.000Z</time>
      </trkpt>
      <trkpt lat="43.6722" lon="7.05519">
        <ele>268.39999389648</ele>
        <time>2022-04-12T14:04:46.000Z</time>
      </trkpt>
      <trkpt lat="43.6722" lon="7.05521">
        <ele>268.79998779297</ele>
        <time>2022-04-12T14:04:47.000Z</time>
      </trkpt>
      <trkpt lat="43.6722" lon="7.0552">
        <ele>269</ele>
        <time>2022-04-12T14:04:48.000Z</time>
      </trkpt>
      <trkpt lat="43.6722" lon="7.05521">
        <ele>269.39999389648</ele>
        <time>2022-04-12T14:04:53.000Z</time>
      </trkpt>
      <trkpt lat="43.6722" lon="7.05527">
        <ele>269.39999389648</ele>
        <time>2022-04-12T14:04:55.000Z</time>
      </trkpt>
      <trkpt lat="43.67219" lon="7.05529">
        <ele>269.39999389648</ele>
        <time>2022-04-12T14:04:56.000Z</time>
      </trkpt>
      <trkpt lat="43.67219" lon="7.05534">
        <ele>269.20001220703</ele>
        <time>2022-04-12T14:05:01.000Z</time>
      </trkpt>
      <trkpt lat="43.67218" lon="7.05533">
        <ele>269.39999389648</ele>
        <time>2022-04-12T14:05:07.000Z</time>
      </trkpt>
      <trkpt lat="43.67217" lon="7.05529">
        <ele>268.79998779297</ele>
        <time>2022-04-12T14:05:17.000Z</time>
      </trkpt>
      <trkpt lat="43.67217" lon="7.05525">
        <ele>269.39999389648</ele>
        <time>2022-04-12T14:05:22.000Z</time>
      </trkpt>
      <trkpt lat="43.67217" lon="7.05522">
        <ele>268.79998779297</ele>
        <time>2022-04-12T14:05:28.000Z</time>
      </trkpt>
      <trkpt lat="43.67218" lon="7.05523">
        <ele>269</ele>
        <time>2022-04-12T14:05:40.000Z</time>
      </trkpt>
      <trkpt lat="43.67219" lon="7.05525">
        <ele>269.20001220703</ele>
        <time>2022-04-12T14:05:50.000Z</time>
      </trkpt>
      <trkpt lat="43.67221" lon="7.05527">
        <ele>268.60000610352</ele>
        <time>2022-04-12T14:05:59.000Z</time>
      </trkpt>
      <trkpt lat="43.67221" lon="7.05527">
        <ele>268.79998779297</ele>
        <time>2022-04-12T14:06:11.000Z</time>
      </trkpt>
      <trkpt lat="43.67222" lon="7.05527">
        <ele>269.20001220703</ele>
        <time>2022-04-12T14:06:24.000Z</time>
      </trkpt>
      <trkpt lat="43.67223" lon="7.05529">
        <ele>269.20001220703</ele>
        <time>2022-04-12T14:06:37.000Z</time>
      </trkpt>
      <trkpt lat="43.67224" lon="7.0553">
        <ele>268.79998779297</ele>
        <time>2022-04-12T14:06:51.000Z</time>
      </trkpt>
      <trkpt lat="43.67223" lon="7.05529">
        <ele>269</ele>
        <time>2022-04-12T14:07:06.000Z</time>
      </trkpt>
      <trkpt lat="43.67223" lon="7.05528">
        <ele>268.79998779297</ele>
        <time>2022-04-12T14:07:18.000Z</time>
      </trkpt>
      <trkpt lat="43.67221" lon="7.05526">
        <ele>269</ele>
        <time>2022-04-12T14:07:33.000Z</time>
      </trkpt>
      <trkpt lat="43.67222" lon="7.05527">
        <ele>269</ele>
        <time>2022-04-12T14:07:40.000Z</time>
      </trkpt>
      <trkpt lat="43.67223" lon="7.05533">
        <ele>269.39999389648</ele>
        <time>2022-04-12T14:07:45.000Z</time>
      </trkpt>
      <trkpt lat="43.67223" lon="7.05535">
        <ele>269.60000610352</ele>
        <time>2022-04-12T14:07:48.000Z</time>
      </trkpt>
      <trkpt lat="43.67221" lon="7.05535">
        <ele>269.39999389648</ele>
        <time>2022-04-12T14:07:53.000Z</time>
      </trkpt>
      <trkpt lat="43.67219" lon="7.05534">
        <ele>269.20001220703</ele>
        <time>2022-04-12T14:07:56.000Z</time>
      </trkpt>
      <trkpt lat="43.67217" lon="7.05534">
        <ele>269.20001220703</ele>
        <time>2022-04-12T14:07:57.000Z</time>
      </trkpt>
      <trkpt lat="43.67205" lon="7.05541">
        <ele>268.79998779297</ele>
        <time>2022-04-12T14:08:01.000Z</time>
      </trkpt>
      <trkpt lat="43.67203" lon="7.05544">
        <ele>268.79998779297</ele>
        <time>2022-04-12T14:08:02.000Z</time>
      </trkpt>
      <trkpt lat="43.67189" lon="7.05561">
        <ele>268.20001220703</ele>
        <time>2022-04-12T14:08:07.000Z</time>
      </trkpt>
      <trkpt lat="43.67183" lon="7.05569">
        <ele>268</ele>
        <time>2022-04-12T14:08:09.000Z</time>
      </trkpt>
      <trkpt lat="43.6718" lon="7.05572">
        <ele>267.79998779297</ele>
        <time>2022-04-12T14:08:10.000Z</time>
      </trkpt>
      <trkpt lat="43.67171" lon="7.05585">
        <ele>267.79998779297</ele>
        <time>2022-04-12T14:08:13.000Z</time>
      </trkpt>
      <trkpt lat="43.67164" lon="7.05594">
        <ele>267.79998779297</ele>
        <time>2022-04-12T14:08:15.000Z</time>
      </trkpt>
      <trkpt lat="43.67145" lon="7.05615">
        <ele>267.20001220703</ele>
        <time>2022-04-12T14:08:20.000Z</time>
      </trkpt>
      <trkpt lat="43.67138" lon="7.05625">
        <ele>266.79998779297</ele>
        <time>2022-04-12T14:08:22.000Z</time>
      </trkpt>
      <trkpt lat="43.67121" lon="7.05645">
        <ele>266.20001220703</ele>
        <time>2022-04-12T14:08:26.000Z</time>
      </trkpt>
      <trkpt lat="43.67112" lon="7.05655">
        <ele>265.79998779297</ele>
        <time>2022-04-12T14:08:28.000Z</time>
      </trkpt>
      <trkpt lat="43.67087" lon="7.05686">
        <ele>264.79998779297</ele>
        <time>2022-04-12T14:08:34.000Z</time>
      </trkpt>
      <trkpt lat="43.67082" lon="7.05691">
        <ele>264.60000610352</ele>
        <time>2022-04-12T14:08:35.000Z</time>
      </trkpt>
      <trkpt lat="43.67064" lon="7.05712">
        <ele>263.60000610352</ele>
        <time>2022-04-12T14:08:39.000Z</time>
      </trkpt>
      <trkpt lat="43.67056" lon="7.05722">
        <ele>262.79998779297</ele>
        <time>2022-04-12T14:08:41.000Z</time>
      </trkpt>
      <trkpt lat="43.67046" lon="7.05734">
        <ele>262.39999389648</ele>
        <time>2022-04-12T14:08:43.000Z</time>
      </trkpt>
      <trkpt lat="43.67027" lon="7.05754">
        <ele>261</ele>
        <time>2022-04-12T14:08:47.000Z</time>
      </trkpt>
      <trkpt lat="43.67017" lon="7.05762">
        <ele>260.79998779297</ele>
        <time>2022-04-12T14:08:49.000Z</time>
      </trkpt>
      <trkpt lat="43.66984" lon="7.05785">
        <ele>260.60000610352</ele>
        <time>2022-04-12T14:08:56.000Z</time>
      </trkpt>
      <trkpt lat="43.66976" lon="7.05792">
        <ele>260.39999389648</ele>
        <time>2022-04-12T14:08:58.000Z</time>
      </trkpt>
      <trkpt lat="43.66971" lon="7.05801">
        <ele>260.39999389648</ele>
        <time>2022-04-12T14:09:00.000Z</time>
      </trkpt>
      <trkpt lat="43.66976" lon="7.0581">
        <ele>260.20001220703</ele>
        <time>2022-04-12T14:09:03.000Z</time>
      </trkpt>
      <trkpt lat="43.66978" lon="7.05811">
        <ele>260.20001220703</ele>
        <time>2022-04-12T14:09:04.000Z</time>
      </trkpt>
      <trkpt lat="43.66978" lon="7.05811">
        <ele>260.60000610352</ele>
        <time>2022-04-12T14:09:07.000Z</time>
      </trkpt>
      <trkpt lat="43.66981" lon="7.05811">
        <ele>261.20001220703</ele>
        <time>2022-04-12T14:09:13.000Z</time>
      </trkpt>
      <trkpt lat="43.66984" lon="7.05812">
        <ele>261.20001220703</ele>
        <time>2022-04-12T14:09:15.000Z</time>
      </trkpt>
      <trkpt lat="43.66987" lon="7.05812">
        <ele>261.20001220703</ele>
        <time>2022-04-12T14:09:16.000Z</time>
      </trkpt>
      <trkpt lat="43.67008" lon="7.0581">
        <ele>260.79998779297</ele>
        <time>2022-04-12T14:09:21.000Z</time>
      </trkpt>
      <trkpt lat="43.67017" lon="7.05807">
        <ele>260.79998779297</ele>
        <time>2022-04-12T14:09:23.000Z</time>
      </trkpt>
      <trkpt lat="43.67032" lon="7.05808">
        <ele>260.79998779297</ele>
        <time>2022-04-12T14:09:26.000Z</time>
      </trkpt>
      <trkpt lat="43.67041" lon="7.05818">
        <ele>260.79998779297</ele>
        <time>2022-04-12T14:09:29.000Z</time>
      </trkpt>
      <trkpt lat="43.67051" lon="7.05817">
        <ele>261.60000610352</ele>
        <time>2022-04-12T14:09:32.000Z</time>
      </trkpt>
      <trkpt lat="43.67056" lon="7.05818">
        <ele>261.79998779297</ele>
        <time>2022-04-12T14:09:33.000Z</time>
      </trkpt>
      <trkpt lat="43.6706" lon="7.05821">
        <ele>262</ele>
        <time>2022-04-12T14:09:34.000Z</time>
      </trkpt>
      <trkpt lat="43.67063" lon="7.05824">
        <ele>262.20001220703</ele>
        <time>2022-04-12T14:09:35.000Z</time>
      </trkpt>
      <trkpt lat="43.67073" lon="7.05836">
        <ele>262.79998779297</ele>
        <time>2022-04-12T14:09:38.000Z</time>
      </trkpt>
      <trkpt lat="43.67081" lon="7.05842">
        <ele>263.39999389648</ele>
        <time>2022-04-12T14:09:40.000Z</time>
      </trkpt>
      <trkpt lat="43.67089" lon="7.05855">
        <ele>263.79998779297</ele>
        <time>2022-04-12T14:09:43.000Z</time>
      </trkpt>
      <trkpt lat="43.67093" lon="7.05875">
        <ele>263.20001220703</ele>
        <time>2022-04-12T14:09:46.000Z</time>
      </trkpt>
      <trkpt lat="43.67095" lon="7.05883">
        <ele>262.39999389648</ele>
        <time>2022-04-12T14:09:47.000Z</time>
      </trkpt>
      <trkpt lat="43.67097" lon="7.05891">
        <ele>261.60000610352</ele>
        <time>2022-04-12T14:09:48.000Z</time>
      </trkpt>
      <trkpt lat="43.67099" lon="7.05898">
        <ele>260.79998779297</ele>
        <time>2022-04-12T14:09:49.000Z</time>
      </trkpt>
      <trkpt lat="43.67105" lon="7.05904">
        <ele>259.79998779297</ele>
        <time>2022-04-12T14:09:51.000Z</time>
      </trkpt>
      <trkpt lat="43.67116" lon="7.05903">
        <ele>259.60000610352</ele>
        <time>2022-04-12T14:09:54.000Z</time>
      </trkpt>
      <trkpt lat="43.6713" lon="7.05902">
        <ele>259.79998779297</ele>
        <time>2022-04-12T14:09:57.000Z</time>
      </trkpt>
      <trkpt lat="43.67136" lon="7.05902">
        <ele>260</ele>
        <time>2022-04-12T14:09:58.000Z</time>
      </trkpt>
      <trkpt lat="43.67147" lon="7.059">
        <ele>260.20001220703</ele>
        <time>2022-04-12T14:10:00.000Z</time>
      </trkpt>
      <trkpt lat="43.67157" lon="7.05902">
        <ele>260.39999389648</ele>
        <time>2022-04-12T14:10:02.000Z</time>
      </trkpt>
      <trkpt lat="43.67176" lon="7.0591">
        <ele>260.79998779297</ele>
        <time>2022-04-12T14:10:06.000Z</time>
      </trkpt>
      <trkpt lat="43.67182" lon="7.0591">
        <ele>260.79998779297</ele>
        <time>2022-04-12T14:10:07.000Z</time>
      </trkpt>
      <trkpt lat="43.67188" lon="7.05908">
        <ele>260.79998779297</ele>
        <time>2022-04-12T14:10:08.000Z</time>
      </trkpt>
      <trkpt lat="43.67193" lon="7.05906">
        <ele>260.79998779297</ele>
        <time>2022-04-12T14:10:09.000Z</time>
      </trkpt>
      <trkpt lat="43.67198" lon="7.05905">
        <ele>260.79998779297</ele>
        <time>2022-04-12T14:10:10.000Z</time>
      </trkpt>
      <trkpt lat="43.67212" lon="7.05906">
        <ele>260</ele>
        <time>2022-04-12T14:10:13.000Z</time>
      </trkpt>
      <trkpt lat="43.67217" lon="7.05907">
        <ele>259.60000610352</ele>
        <time>2022-04-12T14:10:14.000Z</time>
      </trkpt>
      <trkpt lat="43.67226" lon="7.0591">
        <ele>258.60000610352</ele>
        <time>2022-04-12T14:10:16.000Z</time>
      </trkpt>
      <trkpt lat="43.67232" lon="7.05911">
        <ele>258.39999389648</ele>
        <time>2022-04-12T14:10:17.000Z</time>
      </trkpt>
      <trkpt lat="43.67253" lon="7.05917">
        <ele>257.79998779297</ele>
        <time>2022-04-12T14:10:21.000Z</time>
      </trkpt>
      <trkpt lat="43.67265" lon="7.05917">
        <ele>257.39999389648</ele>
        <time>2022-04-12T14:10:23.000Z</time>
      </trkpt>
      <trkpt lat="43.6727" lon="7.05916">
        <ele>257.39999389648</ele>
        <time>2022-04-12T14:10:24.000Z</time>
      </trkpt>
      <trkpt lat="43.67275" lon="7.05916">
        <ele>257</ele>
        <time>2022-04-12T14:10:25.000Z</time>
      </trkpt>
      <trkpt lat="43.67303" lon="7.0591">
        <ele>257.20001220703</ele>
        <time>2022-04-12T14:10:31.000Z</time>
      </trkpt>
      <trkpt lat="43.67332" lon="7.05909">
        <ele>257.60000610352</ele>
        <time>2022-04-12T14:10:37.000Z</time>
      </trkpt>
      <trkpt lat="43.67336" lon="7.0591">
        <ele>257.79998779297</ele>
        <time>2022-04-12T14:10:38.000Z</time>
      </trkpt>
      <trkpt lat="43.67352" lon="7.05911">
        <ele>258.20001220703</ele>
        <time>2022-04-12T14:10:43.000Z</time>
      </trkpt>
      <trkpt lat="43.67358" lon="7.05911">
        <ele>258.20001220703</ele>
        <time>2022-04-12T14:10:46.000Z</time>
      </trkpt>
      <trkpt lat="43.67361" lon="7.05909">
        <ele>258.20001220703</ele>
        <time>2022-04-12T14:10:47.000Z</time>
      </trkpt>
      <trkpt lat="43.67365" lon="7.05906">
        <ele>258.79998779297</ele>
        <time>2022-04-12T14:10:49.000Z</time>
      </trkpt>
      <trkpt lat="43.67371" lon="7.05901">
        <ele>260</ele>
        <time>2022-04-12T14:10:52.000Z</time>
      </trkpt>
      <trkpt lat="43.67372" lon="7.059">
        <ele>260.20001220703</ele>
        <time>2022-04-12T14:10:53.000Z</time>
      </trkpt>
      <trkpt lat="43.67382" lon="7.059">
        <ele>261.20001220703</ele>
        <time>2022-04-12T14:10:56.000Z</time>
      </trkpt>
      <trkpt lat="43.67385" lon="7.059">
        <ele>261.39999389648</ele>
        <time>2022-04-12T14:10:57.000Z</time>
      </trkpt>
      <trkpt lat="43.67398" lon="7.05899">
        <ele>261.60000610352</ele>
        <time>2022-04-12T14:11:01.000Z</time>
      </trkpt>
      <trkpt lat="43.67401" lon="7.05901">
        <ele>261.60000610352</ele>
        <time>2022-04-12T14:11:03.000Z</time>
      </trkpt>
      <trkpt lat="43.67404" lon="7.05903">
        <ele>261.60000610352</ele>
        <time>2022-04-12T14:11:04.000Z</time>
      </trkpt>
      <trkpt lat="43.67412" lon="7.05919">
        <ele>261.79998779297</ele>
        <time>2022-04-12T14:11:08.000Z</time>
      </trkpt>
      <trkpt lat="43.67425" lon="7.05933">
        <ele>261.39999389648</ele>
        <time>2022-04-12T14:11:12.000Z</time>
      </trkpt>
      <trkpt lat="43.67432" lon="7.05936">
        <ele>261.39999389648</ele>
        <time>2022-04-12T14:11:14.000Z</time>
      </trkpt>
      <trkpt lat="43.67437" lon="7.05938">
        <ele>261.60000610352</ele>
        <time>2022-04-12T14:11:15.000Z</time>
      </trkpt>
      <trkpt lat="43.67442" lon="7.05939">
        <ele>261.39999389648</ele>
        <time>2022-04-12T14:11:16.000Z</time>
      </trkpt>
      <trkpt lat="43.67461" lon="7.05949">
        <ele>261.39999389648</ele>
        <time>2022-04-12T14:11:20.000Z</time>
      </trkpt>
      <trkpt lat="43.67473" lon="7.05954">
        <ele>261</ele>
        <time>2022-04-12T14:11:23.000Z</time>
      </trkpt>
      <trkpt lat="43.6748" lon="7.05961">
        <ele>259.79998779297</ele>
        <time>2022-04-12T14:11:25.000Z</time>
      </trkpt>
      <trkpt lat="43.67484" lon="7.05962">
        <ele>259.79998779297</ele>
        <time>2022-04-12T14:11:26.000Z</time>
      </trkpt>
      <trkpt lat="43.67495" lon="7.0597">
        <ele>260</ele>
        <time>2022-04-12T14:11:29.000Z</time>
      </trkpt>
      <trkpt lat="43.675" lon="7.05973">
        <ele>260</ele>
        <time>2022-04-12T14:11:30.000Z</time>
      </trkpt>
      <trkpt lat="43.67511" lon="7.05979">
        <ele>258.79998779297</ele>
        <time>2022-04-12T14:11:32.000Z</time>
      </trkpt>
      <trkpt lat="43.67516" lon="7.05978">
        <ele>258.39999389648</ele>
        <time>2022-04-12T14:11:33.000Z</time>
      </trkpt>
      <trkpt lat="43.6752" lon="7.0597">
        <ele>257.20001220703</ele>
        <time>2022-04-12T14:11:35.000Z</time>
      </trkpt>
      <trkpt lat="43.67519" lon="7.05964">
        <ele>257.20001220703</ele>
        <time>2022-04-12T14:11:36.000Z</time>
      </trkpt>
      <trkpt lat="43.67527" lon="7.05946">
        <ele>257.39999389648</ele>
        <time>2022-04-12T14:11:40.000Z</time>
      </trkpt>
      <trkpt lat="43.67541" lon="7.05949">
        <ele>258</ele>
        <time>2022-04-12T14:11:44.000Z</time>
      </trkpt>
      <trkpt lat="43.67549" lon="7.05948">
        <ele>258.20001220703</ele>
        <time>2022-04-12T14:11:46.000Z</time>
      </trkpt>
      <trkpt lat="43.67553" lon="7.05946">
        <ele>258.20001220703</ele>
        <time>2022-04-12T14:11:47.000Z</time>
      </trkpt>
      <trkpt lat="43.67556" lon="7.05943">
        <ele>258.20001220703</ele>
        <time>2022-04-12T14:11:48.000Z</time>
      </trkpt>
      <trkpt lat="43.6757" lon="7.05937">
        <ele>258</ele>
        <time>2022-04-12T14:11:52.000Z</time>
      </trkpt>
      <trkpt lat="43.67583" lon="7.0594">
        <ele>257.60000610352</ele>
        <time>2022-04-12T14:11:55.000Z</time>
      </trkpt>
      <trkpt lat="43.67586" lon="7.05943">
        <ele>257.60000610352</ele>
        <time>2022-04-12T14:11:56.000Z</time>
      </trkpt>
      <trkpt lat="43.67591" lon="7.05951">
        <ele>257.60000610352</ele>
        <time>2022-04-12T14:11:58.000Z</time>
      </trkpt>
      <trkpt lat="43.67593" lon="7.05962">
        <ele>257.20001220703</ele>
        <time>2022-04-12T14:12:00.000Z</time>
      </trkpt>
      <trkpt lat="43.67597" lon="7.05971">
        <ele>257.20001220703</ele>
        <time>2022-04-12T14:12:02.000Z</time>
      </trkpt>
      <trkpt lat="43.67601" lon="7.05973">
        <ele>256.39999389648</ele>
        <time>2022-04-12T14:12:03.000Z</time>
      </trkpt>
      <trkpt lat="43.67606" lon="7.05975">
        <ele>255.60000610352</ele>
        <time>2022-04-12T14:12:04.000Z</time>
      </trkpt>
      <trkpt lat="43.67615" lon="7.05979">
        <ele>254.39999389648</ele>
        <time>2022-04-12T14:12:06.000Z</time>
      </trkpt>
      <trkpt lat="43.67621" lon="7.05982">
        <ele>253.80000305176</ele>
        <time>2022-04-12T14:12:07.000Z</time>
      </trkpt>
      <trkpt lat="43.67626" lon="7.05983">
        <ele>253.60000610352</ele>
        <time>2022-04-12T14:12:08.000Z</time>
      </trkpt>
      <trkpt lat="43.67632" lon="7.05986">
        <ele>253.39999389648</ele>
        <time>2022-04-12T14:12:09.000Z</time>
      </trkpt>
      <trkpt lat="43.67643" lon="7.05989">
        <ele>252.19999694824</ele>
        <time>2022-04-12T14:12:11.000Z</time>
      </trkpt>
      <trkpt lat="43.67655" lon="7.05993">
        <ele>251.19999694824</ele>
        <time>2022-04-12T14:12:13.000Z</time>
      </trkpt>
      <trkpt lat="43.67672" lon="7.05999">
        <ele>250.39999389648</ele>
        <time>2022-04-12T14:12:16.000Z</time>
      </trkpt>
      <trkpt lat="43.67678" lon="7.05999">
        <ele>250.19999694824</ele>
        <time>2022-04-12T14:12:17.000Z</time>
      </trkpt>
      <trkpt lat="43.6769" lon="7.05998">
        <ele>249</ele>
        <time>2022-04-12T14:12:19.000Z</time>
      </trkpt>
      <trkpt lat="43.67695" lon="7.05998">
        <ele>248.39999389648</ele>
        <time>2022-04-12T14:12:20.000Z</time>
      </trkpt>
      <trkpt lat="43.67699" lon="7.06">
        <ele>248.19999694824</ele>
        <time>2022-04-12T14:12:22.000Z</time>
      </trkpt>
      <trkpt lat="43.677" lon="7.06001">
        <ele>248.39999389648</ele>
        <time>2022-04-12T14:12:23.000Z</time>
      </trkpt>
      <trkpt lat="43.67703" lon="7.06002">
        <ele>248.39999389648</ele>
        <time>2022-04-12T14:12:28.000Z</time>
      </trkpt>
      <trkpt lat="43.67705" lon="7.06004">
        <ele>248.39999389648</ele>
        <time>2022-04-12T14:12:37.000Z</time>
      </trkpt>
      <trkpt lat="43.67704" lon="7.06017">
        <ele>248</ele>
        <time>2022-04-12T14:12:41.000Z</time>
      </trkpt>
      <trkpt lat="43.67703" lon="7.06021">
        <ele>248</ele>
        <time>2022-04-12T14:12:42.000Z</time>
      </trkpt>
      <trkpt lat="43.67698" lon="7.06042">
        <ele>247</ele>
        <time>2022-04-12T14:12:46.000Z</time>
      </trkpt>
      <trkpt lat="43.67691" lon="7.06065">
        <ele>246.19999694824</ele>
        <time>2022-04-12T14:12:50.000Z</time>
      </trkpt>
      <trkpt lat="43.67688" lon="7.06078">
        <ele>246</ele>
        <time>2022-04-12T14:12:52.000Z</time>
      </trkpt>
      <trkpt lat="43.6768" lon="7.06119">
        <ele>246.39999389648</ele>
        <time>2022-04-12T14:12:59.000Z</time>
      </trkpt>
      <trkpt lat="43.67667" lon="7.06156">
        <ele>247</ele>
        <time>2022-04-12T14:13:06.000Z</time>
      </trkpt>
      <trkpt lat="43.67662" lon="7.06172">
        <ele>247</ele>
        <time>2022-04-12T14:13:09.000Z</time>
      </trkpt>
      <trkpt lat="43.67658" lon="7.0619">
        <ele>246.60000610352</ele>
        <time>2022-04-12T14:13:12.000Z</time>
      </trkpt>
      <trkpt lat="43.67656" lon="7.06196">
        <ele>246.60000610352</ele>
        <time>2022-04-12T14:13:13.000Z</time>
      </trkpt>
      <trkpt lat="43.67652" lon="7.06207">
        <ele>247.19999694824</ele>
        <time>2022-04-12T14:13:15.000Z</time>
      </trkpt>
      <trkpt lat="43.67648" lon="7.06216">
        <ele>247.60000610352</ele>
        <time>2022-04-12T14:13:17.000Z</time>
      </trkpt>
      <trkpt lat="43.67639" lon="7.0624">
        <ele>248.19999694824</ele>
        <time>2022-04-12T14:13:22.000Z</time>
      </trkpt>
      <trkpt lat="43.67636" lon="7.06243">
        <ele>248.60000610352</ele>
        <time>2022-04-12T14:13:23.000Z</time>
      </trkpt>
      <trkpt lat="43.67629" lon="7.06253">
        <ele>249.19999694824</ele>
        <time>2022-04-12T14:13:28.000Z</time>
      </trkpt>
      <trkpt lat="43.67628" lon="7.06254">
        <ele>249.39999389648</ele>
        <time>2022-04-12T14:13:29.000Z</time>
      </trkpt>
      <trkpt lat="43.67629" lon="7.06256">
        <ele>249.19999694824</ele>
        <time>2022-04-12T14:13:32.000Z</time>
      </trkpt>
      <trkpt lat="43.67634" lon="7.06249">
        <ele>249</ele>
        <time>2022-04-12T14:13:37.000Z</time>
      </trkpt>
      <trkpt lat="43.67642" lon="7.06235">
        <ele>249</ele>
        <time>2022-04-12T14:13:44.000Z</time>
      </trkpt>
      <trkpt lat="43.67647" lon="7.06222">
        <ele>248.80000305176</ele>
        <time>2022-04-12T14:13:49.000Z</time>
      </trkpt>
      <trkpt lat="43.67649" lon="7.06219">
        <ele>248.60000610352</ele>
        <time>2022-04-12T14:13:51.000Z</time>
      </trkpt>
      <trkpt lat="43.67651" lon="7.06219">
        <ele>248.19999694824</ele>
        <time>2022-04-12T14:13:52.000Z</time>
      </trkpt>
      <trkpt lat="43.67655" lon="7.06221">
        <ele>248.39999389648</ele>
        <time>2022-04-12T14:13:55.000Z</time>
      </trkpt>
      <trkpt lat="43.67661" lon="7.06223">
        <ele>248.80000305176</ele>
        <time>2022-04-12T14:13:57.000Z</time>
      </trkpt>
      <trkpt lat="43.67665" lon="7.06222">
        <ele>249.39999389648</ele>
        <time>2022-04-12T14:13:59.000Z</time>
      </trkpt>
      <trkpt lat="43.67669" lon="7.06219">
        <ele>249.39999389648</ele>
        <time>2022-04-12T14:14:01.000Z</time>
      </trkpt>
      <trkpt lat="43.67676" lon="7.06223">
        <ele>249.80000305176</ele>
        <time>2022-04-12T14:14:04.000Z</time>
      </trkpt>
      <trkpt lat="43.67679" lon="7.06225">
        <ele>249.80000305176</ele>
        <time>2022-04-12T14:14:05.000Z</time>
      </trkpt>
      <trkpt lat="43.67686" lon="7.06231">
        <ele>250.60000610352</ele>
        <time>2022-04-12T14:14:08.000Z</time>
      </trkpt>
      <trkpt lat="43.67689" lon="7.06233">
        <ele>251</ele>
        <time>2022-04-12T14:14:09.000Z</time>
      </trkpt>
      <trkpt lat="43.67695" lon="7.0624">
        <ele>252</ele>
        <time>2022-04-12T14:14:12.000Z</time>
      </trkpt>
      <trkpt lat="43.67704" lon="7.06242">
        <ele>252.60000610352</ele>
        <time>2022-04-12T14:14:15.000Z</time>
      </trkpt>
      <trkpt lat="43.67709" lon="7.06245">
        <ele>253.19999694824</ele>
        <time>2022-04-12T14:14:17.000Z</time>
      </trkpt>
      <trkpt lat="43.67712" lon="7.06247">
        <ele>253.60000610352</ele>
        <time>2022-04-12T14:14:19.000Z</time>
      </trkpt>
      <trkpt lat="43.67712" lon="7.06247">
        <ele>254.39999389648</ele>
        <time>2022-04-12T14:14:21.000Z</time>
      </trkpt>
      <trkpt lat="43.67712" lon="7.06247">
        <ele>255.39999389648</ele>
        <time>2022-04-12T14:14:23.000Z</time>
      </trkpt>
      <trkpt lat="43.67711" lon="7.06247">
        <ele>255.60000610352</ele>
        <time>2022-04-12T14:14:24.000Z</time>
      </trkpt>
      <trkpt lat="43.6771" lon="7.06249">
        <ele>255.39999389648</ele>
        <time>2022-04-12T14:14:29.000Z</time>
      </trkpt>
      <trkpt lat="43.6771" lon="7.0625">
        <ele>255.19999694824</ele>
        <time>2022-04-12T14:14:30.000Z</time>
      </trkpt>
      <trkpt lat="43.67714" lon="7.06259">
        <ele>255</ele>
        <time>2022-04-12T14:14:33.000Z</time>
      </trkpt>
      <trkpt lat="43.67723" lon="7.06284">
        <ele>254.80000305176</ele>
        <time>2022-04-12T14:14:38.000Z</time>
      </trkpt>
      <trkpt lat="43.67727" lon="7.06292">
        <ele>254.60000610352</ele>
        <time>2022-04-12T14:14:40.000Z</time>
      </trkpt>
      <trkpt lat="43.67729" lon="7.06301">
        <ele>254.19999694824</ele>
        <time>2022-04-12T14:14:42.000Z</time>
      </trkpt>
      <trkpt lat="43.67727" lon="7.06321">
        <ele>253.60000610352</ele>
        <time>2022-04-12T14:14:46.000Z</time>
      </trkpt>
      <trkpt lat="43.67725" lon="7.06326">
        <ele>253.39999389648</ele>
        <time>2022-04-12T14:14:47.000Z</time>
      </trkpt>
      <trkpt lat="43.67727" lon="7.06337">
        <ele>253</ele>
        <time>2022-04-12T14:14:50.000Z</time>
      </trkpt>
      <trkpt lat="43.67731" lon="7.06345">
        <ele>252.60000610352</ele>
        <time>2022-04-12T14:14:52.000Z</time>
      </trkpt>
      <trkpt lat="43.67732" lon="7.06354">
        <ele>252.19999694824</ele>
        <time>2022-04-12T14:14:54.000Z</time>
      </trkpt>
      <trkpt lat="43.6773" lon="7.06364">
        <ele>252</ele>
        <time>2022-04-12T14:14:56.000Z</time>
      </trkpt>
      <trkpt lat="43.67731" lon="7.06373">
        <ele>251.60000610352</ele>
        <time>2022-04-12T14:14:58.000Z</time>
      </trkpt>
      <trkpt lat="43.67732" lon="7.06377">
        <ele>251.60000610352</ele>
        <time>2022-04-12T14:14:59.000Z</time>
      </trkpt>
      <trkpt lat="43.67734" lon="7.06394">
        <ele>250.60000610352</ele>
        <time>2022-04-12T14:15:02.000Z</time>
      </trkpt>
      <trkpt lat="43.6774" lon="7.06409">
        <ele>251</ele>
        <time>2022-04-12T14:15:06.000Z</time>
      </trkpt>
      <trkpt lat="43.67742" lon="7.06425">
        <ele>252.39999389648</ele>
        <time>2022-04-12T14:15:10.000Z</time>
      </trkpt>
      <trkpt lat="43.67741" lon="7.06428">
        <ele>252.39999389648</ele>
        <time>2022-04-12T14:15:11.000Z</time>
      </trkpt>
      <trkpt lat="43.6774" lon="7.06432">
        <ele>252.60000610352</ele>
        <time>2022-04-12T14:15:12.000Z</time>
      </trkpt>
      <trkpt lat="43.67738" lon="7.0644">
        <ele>252.80000305176</ele>
        <time>2022-04-12T14:15:14.000Z</time>
      </trkpt>
      <trkpt lat="43.67738" lon="7.06453">
        <ele>252.39999389648</ele>
        <time>2022-04-12T14:15:17.000Z</time>
      </trkpt>
      <trkpt lat="43.67738" lon="7.06458">
        <ele>252.19999694824</ele>
        <time>2022-04-12T14:15:18.000Z</time>
      </trkpt>
      <trkpt lat="43.67737" lon="7.06468">
        <ele>251.60000610352</ele>
        <time>2022-04-12T14:15:20.000Z</time>
      </trkpt>
      <trkpt lat="43.67736" lon="7.06473">
        <ele>251.39999389648</ele>
        <time>2022-04-12T14:15:21.000Z</time>
      </trkpt>
      <trkpt lat="43.67736" lon="7.06477">
        <ele>251.19999694824</ele>
        <time>2022-04-12T14:15:22.000Z</time>
      </trkpt>
      <trkpt lat="43.67735" lon="7.06489">
        <ele>250.80000305176</ele>
        <time>2022-04-12T14:15:25.000Z</time>
      </trkpt>
      <trkpt lat="43.67737" lon="7.06502">
        <ele>250.80000305176</ele>
        <time>2022-04-12T14:15:28.000Z</time>
      </trkpt>
      <trkpt lat="43.67737" lon="7.06504">
        <ele>250.80000305176</ele>
        <time>2022-04-12T14:15:29.000Z</time>
      </trkpt>
      <trkpt lat="43.67736" lon="7.06507">
        <ele>250.80000305176</ele>
        <time>2022-04-12T14:15:30.000Z</time>
      </trkpt>
      <trkpt lat="43.67734" lon="7.06514">
        <ele>251</ele>
        <time>2022-04-12T14:15:32.000Z</time>
      </trkpt>
      <trkpt lat="43.67733" lon="7.06519">
        <ele>251</ele>
        <time>2022-04-12T14:15:33.000Z</time>
      </trkpt>
      <trkpt lat="43.67731" lon="7.06528">
        <ele>250.80000305176</ele>
        <time>2022-04-12T14:15:35.000Z</time>
      </trkpt>
      <trkpt lat="43.67731" lon="7.06532">
        <ele>250.39999389648</ele>
        <time>2022-04-12T14:15:36.000Z</time>
      </trkpt>
      <trkpt lat="43.6773" lon="7.06538">
        <ele>249.39999389648</ele>
        <time>2022-04-12T14:15:38.000Z</time>
      </trkpt>
      <trkpt lat="43.67733" lon="7.0655">
        <ele>248.60000610352</ele>
        <time>2022-04-12T14:15:41.000Z</time>
      </trkpt>
      <trkpt lat="43.67737" lon="7.06557">
        <ele>248.60000610352</ele>
        <time>2022-04-12T14:15:43.000Z</time>
      </trkpt>
      <trkpt lat="43.67738" lon="7.0656">
        <ele>248.39999389648</ele>
        <time>2022-04-12T14:15:44.000Z</time>
      </trkpt>
      <trkpt lat="43.67738" lon="7.06565">
        <ele>248.39999389648</ele>
        <time>2022-04-12T14:15:45.000Z</time>
      </trkpt>
      <trkpt lat="43.67743" lon="7.0658">
        <ele>248.60000610352</ele>
        <time>2022-04-12T14:15:48.000Z</time>
      </trkpt>
      <trkpt lat="43.67746" lon="7.06585">
        <ele>248.60000610352</ele>
        <time>2022-04-12T14:15:49.000Z</time>
      </trkpt>
      <trkpt lat="43.67747" lon="7.0659">
        <ele>248.60000610352</ele>
        <time>2022-04-12T14:15:50.000Z</time>
      </trkpt>
      <trkpt lat="43.67752" lon="7.06602">
        <ele>248.80000305176</ele>
        <time>2022-04-12T14:15:53.000Z</time>
      </trkpt>
      <trkpt lat="43.67758" lon="7.06608">
        <ele>249.39999389648</ele>
        <time>2022-04-12T14:15:58.000Z</time>
      </trkpt>
      <trkpt lat="43.6776" lon="7.06612">
        <ele>249.19999694824</ele>
        <time>2022-04-12T14:16:01.000Z</time>
      </trkpt>
      <trkpt lat="43.67763" lon="7.06617">
        <ele>249.19999694824</ele>
        <time>2022-04-12T14:16:03.000Z</time>
      </trkpt>
      <trkpt lat="43.67775" lon="7.06627">
        <ele>249.60000610352</ele>
        <time>2022-04-12T14:16:07.000Z</time>
      </trkpt>
      <trkpt lat="43.67783" lon="7.06631">
        <ele>249.60000610352</ele>
        <time>2022-04-12T14:16:11.000Z</time>
      </trkpt>
      <trkpt lat="43.67801" lon="7.06628">
        <ele>249.80000305176</ele>
        <time>2022-04-12T14:16:16.000Z</time>
      </trkpt>
      <trkpt lat="43.67815" lon="7.06632">
        <ele>250</ele>
        <time>2022-04-12T14:16:20.000Z</time>
      </trkpt>
      <trkpt lat="43.67831" lon="7.0663">
        <ele>249.60000610352</ele>
        <time>2022-04-12T14:16:24.000Z</time>
      </trkpt>
      <trkpt lat="43.67845" lon="7.06627">
        <ele>250.19999694824</ele>
        <time>2022-04-12T14:16:28.000Z</time>
      </trkpt>
      <trkpt lat="43.67849" lon="7.06627">
        <ele>250.39999389648</ele>
        <time>2022-04-12T14:16:29.000Z</time>
      </trkpt>
      <trkpt lat="43.67863" lon="7.06625">
        <ele>251.60000610352</ele>
        <time>2022-04-12T14:16:33.000Z</time>
      </trkpt>
      <trkpt lat="43.6788" lon="7.06618">
        <ele>252.60000610352</ele>
        <time>2022-04-12T14:16:38.000Z</time>
      </trkpt>
      <trkpt lat="43.67883" lon="7.06618">
        <ele>252.80000305176</ele>
        <time>2022-04-12T14:16:39.000Z</time>
      </trkpt>
      <trkpt lat="43.67893" lon="7.06616">
        <ele>253.19999694824</ele>
        <time>2022-04-12T14:16:42.000Z</time>
      </trkpt>
      <trkpt lat="43.67902" lon="7.06612">
        <ele>254</ele>
        <time>2022-04-12T14:16:45.000Z</time>
      </trkpt>
      <trkpt lat="43.67905" lon="7.06613">
        <ele>254.19999694824</ele>
        <time>2022-04-12T14:16:46.000Z</time>
      </trkpt>
      <trkpt lat="43.67916" lon="7.06617">
        <ele>255</ele>
        <time>2022-04-12T14:16:49.000Z</time>
      </trkpt>
      <trkpt lat="43.67919" lon="7.06616">
        <ele>255.19999694824</ele>
        <time>2022-04-12T14:16:50.000Z</time>
      </trkpt>
      <trkpt lat="43.67928" lon="7.06617">
        <ele>255.19999694824</ele>
        <time>2022-04-12T14:16:53.000Z</time>
      </trkpt>
      <trkpt lat="43.67936" lon="7.06623">
        <ele>255.80000305176</ele>
        <time>2022-04-12T14:16:56.000Z</time>
      </trkpt>
      <trkpt lat="43.67939" lon="7.06624">
        <ele>256</ele>
        <time>2022-04-12T14:16:57.000Z</time>
      </trkpt>
      <trkpt lat="43.67951" lon="7.06625">
        <ele>255.80000305176</ele>
        <time>2022-04-12T14:17:00.000Z</time>
      </trkpt>
      <trkpt lat="43.67963" lon="7.0663">
        <ele>255.80000305176</ele>
        <time>2022-04-12T14:17:04.000Z</time>
      </trkpt>
      <trkpt lat="43.67979" lon="7.06633">
        <ele>256.20001220703</ele>
        <time>2022-04-12T14:17:08.000Z</time>
      </trkpt>
      <trkpt lat="43.67983" lon="7.06635">
        <ele>256.39999389648</ele>
        <time>2022-04-12T14:17:09.000Z</time>
      </trkpt>
      <trkpt lat="43.67994" lon="7.06635">
        <ele>257</ele>
        <time>2022-04-12T14:17:12.000Z</time>
      </trkpt>
      <trkpt lat="43.67998" lon="7.06634">
        <ele>257.20001220703</ele>
        <time>2022-04-12T14:17:13.000Z</time>
      </trkpt>
      <trkpt lat="43.68006" lon="7.0663">
        <ele>257.60000610352</ele>
        <time>2022-04-12T14:17:16.000Z</time>
      </trkpt>
      <trkpt lat="43.68009" lon="7.06628">
        <ele>257.60000610352</ele>
        <time>2022-04-12T14:17:17.000Z</time>
      </trkpt>
      <trkpt lat="43.68017" lon="7.0662">
        <ele>258.20001220703</ele>
        <time>2022-04-12T14:17:20.000Z</time>
      </trkpt>
      <trkpt lat="43.68021" lon="7.06615">
        <ele>258.39999389648</ele>
        <time>2022-04-12T14:17:22.000Z</time>
      </trkpt>
      <trkpt lat="43.68031" lon="7.06601">
        <ele>259.20001220703</ele>
        <time>2022-04-12T14:17:26.000Z</time>
      </trkpt>
      <trkpt lat="43.68039" lon="7.06584">
        <ele>260.39999389648</ele>
        <time>2022-04-12T14:17:30.000Z</time>
      </trkpt>
      <trkpt lat="43.68041" lon="7.06581">
        <ele>260.79998779297</ele>
        <time>2022-04-12T14:17:31.000Z</time>
      </trkpt>
      <trkpt lat="43.68044" lon="7.06575">
        <ele>261.60000610352</ele>
        <time>2022-04-12T14:17:33.000Z</time>
      </trkpt>
      <trkpt lat="43.68052" lon="7.0656">
        <ele>262.79998779297</ele>
        <time>2022-04-12T14:17:37.000Z</time>
      </trkpt>
      <trkpt lat="43.6806" lon="7.06537">
        <ele>263.20001220703</ele>
        <time>2022-04-12T14:17:42.000Z</time>
      </trkpt>
      <trkpt lat="43.68069" lon="7.06525">
        <ele>263.39999389648</ele>
        <time>2022-04-12T14:17:46.000Z</time>
      </trkpt>
      <trkpt lat="43.68083" lon="7.06503">
        <ele>263.39999389648</ele>
        <time>2022-04-12T14:17:52.000Z</time>
      </trkpt>
      <trkpt lat="43.68088" lon="7.0648">
        <ele>262.79998779297</ele>
        <time>2022-04-12T14:17:57.000Z</time>
      </trkpt>
      <trkpt lat="43.6809" lon="7.06459">
        <ele>263.60000610352</ele>
        <time>2022-04-12T14:18:02.000Z</time>
      </trkpt>
      <trkpt lat="43.68091" lon="7.06457">
        <ele>263.79998779297</ele>
        <time>2022-04-12T14:18:03.000Z</time>
      </trkpt>
      <trkpt lat="43.68092" lon="7.06456">
        <ele>263.79998779297</ele>
        <time>2022-04-12T14:18:04.000Z</time>
      </trkpt>
      <trkpt lat="43.68093" lon="7.06456">
        <ele>264</ele>
        <time>2022-04-12T14:18:06.000Z</time>
      </trkpt>
      <trkpt lat="43.68094" lon="7.06455">
        <ele>263.60000610352</ele>
        <time>2022-04-12T14:18:13.000Z</time>
      </trkpt>
      <trkpt lat="43.68097" lon="7.06454">
        <ele>263.79998779297</ele>
        <time>2022-04-12T14:18:21.000Z</time>
      </trkpt>
      <trkpt lat="43.681" lon="7.06453">
        <ele>264</ele>
        <time>2022-04-12T14:18:22.000Z</time>
      </trkpt>
      <trkpt lat="43.68109" lon="7.06451">
        <ele>263.79998779297</ele>
        <time>2022-04-12T14:18:25.000Z</time>
      </trkpt>
      <trkpt lat="43.68113" lon="7.0645">
        <ele>263.39999389648</ele>
        <time>2022-04-12T14:18:26.000Z</time>
      </trkpt>
      <trkpt lat="43.68122" lon="7.06444">
        <ele>262.20001220703</ele>
        <time>2022-04-12T14:18:28.000Z</time>
      </trkpt>
      <trkpt lat="43.68126" lon="7.06439">
        <ele>261.39999389648</ele>
        <time>2022-04-12T14:18:29.000Z</time>
      </trkpt>
      <trkpt lat="43.68129" lon="7.06433">
        <ele>260.79998779297</ele>
        <time>2022-04-12T14:18:30.000Z</time>
      </trkpt>
      <trkpt lat="43.68136" lon="7.06416">
        <ele>259.60000610352</ele>
        <time>2022-04-12T14:18:33.000Z</time>
      </trkpt>
      <trkpt lat="43.68141" lon="7.06405">
        <ele>259.39999389648</ele>
        <time>2022-04-12T14:18:35.000Z</time>
      </trkpt>
      <trkpt lat="43.68147" lon="7.06394">
        <ele>259.20001220703</ele>
        <time>2022-04-12T14:18:37.000Z</time>
      </trkpt>
      <trkpt lat="43.6815" lon="7.0639">
        <ele>258.79998779297</ele>
        <time>2022-04-12T14:18:38.000Z</time>
      </trkpt>
      <trkpt lat="43.68154" lon="7.06385">
        <ele>258.20001220703</ele>
        <time>2022-04-12T14:18:39.000Z</time>
      </trkpt>
      <trkpt lat="43.68161" lon="7.0638">
        <ele>257.79998779297</ele>
        <time>2022-04-12T14:18:41.000Z</time>
      </trkpt>
      <trkpt lat="43.68163" lon="7.0638">
        <ele>257.60000610352</ele>
        <time>2022-04-12T14:18:43.000Z</time>
      </trkpt>
      <trkpt lat="43.68167" lon="7.06385">
        <ele>259</ele>
        <time>2022-04-12T14:18:49.000Z</time>
      </trkpt>
      <trkpt lat="43.68164" lon="7.06399">
        <ele>259.20001220703</ele>
        <time>2022-04-12T14:18:53.000Z</time>
      </trkpt>
      <trkpt lat="43.68162" lon="7.06405">
        <ele>259.20001220703</ele>
        <time>2022-04-12T14:18:54.000Z</time>
      </trkpt>
      <trkpt lat="43.68162" lon="7.06413">
        <ele>259</ele>
        <time>2022-04-12T14:18:55.000Z</time>
      </trkpt>
      <trkpt lat="43.68164" lon="7.06419">
        <ele>258.79998779297</ele>
        <time>2022-04-12T14:18:56.000Z</time>
      </trkpt>
      <trkpt lat="43.68162" lon="7.06448">
        <ele>257.79998779297</ele>
        <time>2022-04-12T14:19:00.000Z</time>
      </trkpt>
      <trkpt lat="43.68162" lon="7.06455">
        <ele>257.20001220703</ele>
        <time>2022-04-12T14:19:01.000Z</time>
      </trkpt>
      <trkpt lat="43.68164" lon="7.06462">
        <ele>256</ele>
        <time>2022-04-12T14:19:02.000Z</time>
      </trkpt>
      <trkpt lat="43.68165" lon="7.0647">
        <ele>256.79998779297</ele>
        <time>2022-04-12T14:19:03.000Z</time>
      </trkpt>
      <trkpt lat="43.68168" lon="7.06477">
        <ele>256.60000610352</ele>
        <time>2022-04-12T14:19:04.000Z</time>
      </trkpt>
      <trkpt lat="43.68176" lon="7.06489">
        <ele>256.20001220703</ele>
        <time>2022-04-12T14:19:06.000Z</time>
      </trkpt>
      <trkpt lat="43.68178" lon="7.06504">
        <ele>255.19999694824</ele>
        <time>2022-04-12T14:19:08.000Z</time>
      </trkpt>
      <trkpt lat="43.6818" lon="7.06509">
        <ele>255</ele>
        <time>2022-04-12T14:19:09.000Z</time>
      </trkpt>
      <trkpt lat="43.68182" lon="7.06521">
        <ele>254.19999694824</ele>
        <time>2022-04-12T14:19:11.000Z</time>
      </trkpt>
      <trkpt lat="43.68183" lon="7.06529">
        <ele>254</ele>
        <time>2022-04-12T14:19:12.000Z</time>
      </trkpt>
      <trkpt lat="43.68185" lon="7.06537">
        <ele>253.80000305176</ele>
        <time>2022-04-12T14:19:13.000Z</time>
      </trkpt>
      <trkpt lat="43.68191" lon="7.06549">
        <ele>253.39999389648</ele>
        <time>2022-04-12T14:19:15.000Z</time>
      </trkpt>
      <trkpt lat="43.68198" lon="7.06557">
        <ele>252.80000305176</ele>
        <time>2022-04-12T14:19:17.000Z</time>
      </trkpt>
      <trkpt lat="43.68201" lon="7.06562">
        <ele>252</ele>
        <time>2022-04-12T14:19:18.000Z</time>
      </trkpt>
      <trkpt lat="43.68204" lon="7.06568">
        <ele>251.39999389648</ele>
        <time>2022-04-12T14:19:19.000Z</time>
      </trkpt>
      <trkpt lat="43.68207" lon="7.06573">
        <ele>250</ele>
        <time>2022-04-12T14:19:20.000Z</time>
      </trkpt>
      <trkpt lat="43.68214" lon="7.06581">
        <ele>249</ele>
        <time>2022-04-12T14:19:23.000Z</time>
      </trkpt>
      <trkpt lat="43.68216" lon="7.06585">
        <ele>248</ele>
        <time>2022-04-12T14:19:24.000Z</time>
      </trkpt>
      <trkpt lat="43.68217" lon="7.06587">
        <ele>247</ele>
        <time>2022-04-12T14:19:25.000Z</time>
      </trkpt>
      <trkpt lat="43.68219" lon="7.06593">
        <ele>246</ele>
        <time>2022-04-12T14:19:27.000Z</time>
      </trkpt>
      <trkpt lat="43.68221" lon="7.06595">
        <ele>245.80000305176</ele>
        <time>2022-04-12T14:19:28.000Z</time>
      </trkpt>
      <trkpt lat="43.68226" lon="7.06599">
        <ele>245</ele>
        <time>2022-04-12T14:19:30.000Z</time>
      </trkpt>
      <trkpt lat="43.6823" lon="7.06609">
        <ele>244</ele>
        <time>2022-04-12T14:19:32.000Z</time>
      </trkpt>
      <trkpt lat="43.68234" lon="7.06616">
        <ele>243</ele>
        <time>2022-04-12T14:19:34.000Z</time>
      </trkpt>
      <trkpt lat="43.68237" lon="7.06625">
        <ele>241.60000610352</ele>
        <time>2022-04-12T14:19:36.000Z</time>
      </trkpt>
      <trkpt lat="43.68238" lon="7.06627">
        <ele>240.60000610352</ele>
        <time>2022-04-12T14:19:37.000Z</time>
      </trkpt>
      <trkpt lat="43.68244" lon="7.06629">
        <ele>239.19999694824</ele>
        <time>2022-04-12T14:19:39.000Z</time>
      </trkpt>
      <trkpt lat="43.68247" lon="7.06631">
        <ele>239</ele>
        <time>2022-04-12T14:19:40.000Z</time>
      </trkpt>
      <trkpt lat="43.68247" lon="7.0664">
        <ele>238.19999694824</ele>
        <time>2022-04-12T14:19:42.000Z</time>
      </trkpt>
      <trkpt lat="43.68248" lon="7.06643">
        <ele>237.60000610352</ele>
        <time>2022-04-12T14:19:43.000Z</time>
      </trkpt>
      <trkpt lat="43.6825" lon="7.06647">
        <ele>237</ele>
        <time>2022-04-12T14:19:44.000Z</time>
      </trkpt>
      <trkpt lat="43.68256" lon="7.06652">
        <ele>236</ele>
        <time>2022-04-12T14:19:46.000Z</time>
      </trkpt>
      <trkpt lat="43.68258" lon="7.06656">
        <ele>235.19999694824</ele>
        <time>2022-04-12T14:19:47.000Z</time>
      </trkpt>
      <trkpt lat="43.68258" lon="7.06668">
        <ele>234.39999389648</ele>
        <time>2022-04-12T14:19:49.000Z</time>
      </trkpt>
      <trkpt lat="43.68259" lon="7.06674">
        <ele>233.60000610352</ele>
        <time>2022-04-12T14:19:50.000Z</time>
      </trkpt>
      <trkpt lat="43.6826" lon="7.06687">
        <ele>231.80000305176</ele>
        <time>2022-04-12T14:19:52.000Z</time>
      </trkpt>
      <trkpt lat="43.68261" lon="7.06692">
        <ele>231</ele>
        <time>2022-04-12T14:19:53.000Z</time>
      </trkpt>
      <trkpt lat="43.68263" lon="7.06697">
        <ele>230.19999694824</ele>
        <time>2022-04-12T14:19:54.000Z</time>
      </trkpt>
      <trkpt lat="43.68264" lon="7.06703">
        <ele>228.80000305176</ele>
        <time>2022-04-12T14:19:55.000Z</time>
      </trkpt>
      <trkpt lat="43.68263" lon="7.06711">
        <ele>228.39999389648</ele>
        <time>2022-04-12T14:19:57.000Z</time>
      </trkpt>
      <trkpt lat="43.68266" lon="7.0672">
        <ele>227.39999389648</ele>
        <time>2022-04-12T14:19:59.000Z</time>
      </trkpt>
      <trkpt lat="43.6827" lon="7.06729">
        <ele>226.60000610352</ele>
        <time>2022-04-12T14:20:01.000Z</time>
      </trkpt>
      <trkpt lat="43.68271" lon="7.06735">
        <ele>225.60000610352</ele>
        <time>2022-04-12T14:20:02.000Z</time>
      </trkpt>
      <trkpt lat="43.68271" lon="7.06742">
        <ele>224</ele>
        <time>2022-04-12T14:20:04.000Z</time>
      </trkpt>
      <trkpt lat="43.68271" lon="7.06746">
        <ele>223.19999694824</ele>
        <time>2022-04-12T14:20:05.000Z</time>
      </trkpt>
      <trkpt lat="43.68273" lon="7.0675">
        <ele>223</ele>
        <time>2022-04-12T14:20:06.000Z</time>
      </trkpt>
      <trkpt lat="43.68276" lon="7.06757">
        <ele>221.39999389648</ele>
        <time>2022-04-12T14:20:08.000Z</time>
      </trkpt>
      <trkpt lat="43.68276" lon="7.06756">
        <ele>220.80000305176</ele>
        <time>2022-04-12T14:20:09.000Z</time>
      </trkpt>
      <trkpt lat="43.68276" lon="7.06759">
        <ele>220.19999694824</ele>
        <time>2022-04-12T14:20:11.000Z</time>
      </trkpt>
      <trkpt lat="43.68276" lon="7.06761">
        <ele>219</ele>
        <time>2022-04-12T14:20:13.000Z</time>
      </trkpt>
      <trkpt lat="43.68275" lon="7.06767">
        <ele>218.39999389648</ele>
        <time>2022-04-12T14:20:15.000Z</time>
      </trkpt>
      <trkpt lat="43.68274" lon="7.06779">
        <ele>217.80000305176</ele>
        <time>2022-04-12T14:20:18.000Z</time>
      </trkpt>
      <trkpt lat="43.68275" lon="7.06782">
        <ele>217.60000610352</ele>
        <time>2022-04-12T14:20:19.000Z</time>
      </trkpt>
      <trkpt lat="43.68278" lon="7.06786">
        <ele>216.60000610352</ele>
        <time>2022-04-12T14:20:21.000Z</time>
      </trkpt>
      <trkpt lat="43.68279" lon="7.06789">
        <ele>216.39999389648</ele>
        <time>2022-04-12T14:20:22.000Z</time>
      </trkpt>
      <trkpt lat="43.68279" lon="7.06791">
        <ele>216</ele>
        <time>2022-04-12T14:20:23.000Z</time>
      </trkpt>
      <trkpt lat="43.68281" lon="7.06792">
        <ele>215.39999389648</ele>
        <time>2022-04-12T14:20:24.000Z</time>
      </trkpt>
      <trkpt lat="43.68286" lon="7.06797">
        <ele>214</ele>
        <time>2022-04-12T14:20:27.000Z</time>
      </trkpt>
      <trkpt lat="43.68288" lon="7.06802">
        <ele>213.39999389648</ele>
        <time>2022-04-12T14:20:29.000Z</time>
      </trkpt>
      <trkpt lat="43.68287" lon="7.06806">
        <ele>213</ele>
        <time>2022-04-12T14:20:30.000Z</time>
      </trkpt>
      <trkpt lat="43.68286" lon="7.06809">
        <ele>212.80000305176</ele>
        <time>2022-04-12T14:20:31.000Z</time>
      </trkpt>
      <trkpt lat="43.68289" lon="7.06815">
        <ele>212</ele>
        <time>2022-04-12T14:20:33.000Z</time>
      </trkpt>
      <trkpt lat="43.68291" lon="7.06817">
        <ele>211.80000305176</ele>
        <time>2022-04-12T14:20:34.000Z</time>
      </trkpt>
      <trkpt lat="43.68291" lon="7.06828">
        <ele>210.80000305176</ele>
        <time>2022-04-12T14:20:37.000Z</time>
      </trkpt>
      <trkpt lat="43.68283" lon="7.06842">
        <ele>210.19999694824</ele>
        <time>2022-04-12T14:20:41.000Z</time>
      </trkpt>
      <trkpt lat="43.68283" lon="7.06854">
        <ele>209.80000305176</ele>
        <time>2022-04-12T14:20:44.000Z</time>
      </trkpt>
      <trkpt lat="43.68289" lon="7.06863">
        <ele>209</ele>
        <time>2022-04-12T14:20:48.000Z</time>
      </trkpt>
      <trkpt lat="43.68294" lon="7.06866">
        <ele>208.60000610352</ele>
        <time>2022-04-12T14:20:50.000Z</time>
      </trkpt>
      <trkpt lat="43.68295" lon="7.06869">
        <ele>208.19999694824</ele>
        <time>2022-04-12T14:20:51.000Z</time>
      </trkpt>
      <trkpt lat="43.68297" lon="7.06872">
        <ele>207.80000305176</ele>
        <time>2022-04-12T14:20:52.000Z</time>
      </trkpt>
      <trkpt lat="43.683" lon="7.06874">
        <ele>207.19999694824</ele>
        <time>2022-04-12T14:20:53.000Z</time>
      </trkpt>
      <trkpt lat="43.68302" lon="7.06878">
        <ele>206</ele>
        <time>2022-04-12T14:20:54.000Z</time>
      </trkpt>
      <trkpt lat="43.68303" lon="7.06882">
        <ele>205.39999389648</ele>
        <time>2022-04-12T14:20:55.000Z</time>
      </trkpt>
      <trkpt lat="43.68303" lon="7.06888">
        <ele>204.60000610352</ele>
        <time>2022-04-12T14:20:56.000Z</time>
      </trkpt>
      <trkpt lat="43.68309" lon="7.06893">
        <ele>203.19999694824</ele>
        <time>2022-04-12T14:20:58.000Z</time>
      </trkpt>
      <trkpt lat="43.68313" lon="7.06904">
        <ele>202.19999694824</ele>
        <time>2022-04-12T14:21:00.000Z</time>
      </trkpt>
      <trkpt lat="43.68314" lon="7.0691">
        <ele>201.39999389648</ele>
        <time>2022-04-12T14:21:01.000Z</time>
      </trkpt>
      <trkpt lat="43.68314" lon="7.06916">
        <ele>201</ele>
        <time>2022-04-12T14:21:02.000Z</time>
      </trkpt>
      <trkpt lat="43.68316" lon="7.06923">
        <ele>199.60000610352</ele>
        <time>2022-04-12T14:21:04.000Z</time>
      </trkpt>
      <trkpt lat="43.68315" lon="7.06924">
        <ele>199.19999694824</ele>
        <time>2022-04-12T14:21:05.000Z</time>
      </trkpt>
      <trkpt lat="43.68315" lon="7.06925">
        <ele>198.39999389648</ele>
        <time>2022-04-12T14:21:08.000Z</time>
      </trkpt>
      <trkpt lat="43.68315" lon="7.06925">
        <ele>198</ele>
        <time>2022-04-12T14:21:09.000Z</time>
      </trkpt>
      <trkpt lat="43.68314" lon="7.06926">
        <ele>198.19999694824</ele>
        <time>2022-04-12T14:21:24.000Z</time>
      </trkpt>
      <trkpt lat="43.68315" lon="7.06927">
        <ele>198.19999694824</ele>
        <time>2022-04-12T14:21:30.000Z</time>
      </trkpt>
      <trkpt lat="43.68315" lon="7.06927">
        <ele>197.60000610352</ele>
        <time>2022-04-12T14:21:42.000Z</time>
      </trkpt>
      <trkpt lat="43.68314" lon="7.06927">
        <ele>197.60000610352</ele>
        <time>2022-04-12T14:21:44.000Z</time>
      </trkpt>
      <trkpt lat="43.68314" lon="7.06928">
        <ele>197.60000610352</ele>
        <time>2022-04-12T14:21:53.000Z</time>
      </trkpt>
      <trkpt lat="43.68316" lon="7.06928">
        <ele>197.60000610352</ele>
        <time>2022-04-12T14:21:55.000Z</time>
      </trkpt>
      <trkpt lat="43.68319" lon="7.06926">
        <ele>197.60000610352</ele>
        <time>2022-04-12T14:21:58.000Z</time>
      </trkpt>
      <trkpt lat="43.68322" lon="7.06923">
        <ele>197.39999389648</ele>
        <time>2022-04-12T14:22:00.000Z</time>
      </trkpt>
      <trkpt lat="43.68324" lon="7.06921">
        <ele>197.39999389648</ele>
        <time>2022-04-12T14:22:01.000Z</time>
      </trkpt>
      <trkpt lat="43.68329" lon="7.06916">
        <ele>197.39999389648</ele>
        <time>2022-04-12T14:22:03.000Z</time>
      </trkpt>
      <trkpt lat="43.6835" lon="7.06899">
        <ele>196.19999694824</ele>
        <time>2022-04-12T14:22:09.000Z</time>
      </trkpt>
      <trkpt lat="43.68358" lon="7.06892">
        <ele>195.19999694824</ele>
        <time>2022-04-12T14:22:11.000Z</time>
      </trkpt>
      <trkpt lat="43.68363" lon="7.06888">
        <ele>194.60000610352</ele>
        <time>2022-04-12T14:22:12.000Z</time>
      </trkpt>
      <trkpt lat="43.68371" lon="7.06882">
        <ele>193.19999694824</ele>
        <time>2022-04-12T14:22:14.000Z</time>
      </trkpt>
      <trkpt lat="43.68376" lon="7.0688">
        <ele>192.80000305176</ele>
        <time>2022-04-12T14:22:15.000Z</time>
      </trkpt>
      <trkpt lat="43.6838" lon="7.06878">
        <ele>192</ele>
        <time>2022-04-12T14:22:16.000Z</time>
      </trkpt>
      <trkpt lat="43.68389" lon="7.06877">
        <ele>190.60000610352</ele>
        <time>2022-04-12T14:22:18.000Z</time>
      </trkpt>
      <trkpt lat="43.68394" lon="7.06878">
        <ele>189.80000305176</ele>
        <time>2022-04-12T14:22:19.000Z</time>
      </trkpt>
      <trkpt lat="43.68398" lon="7.0688">
        <ele>189.19999694824</ele>
        <time>2022-04-12T14:22:20.000Z</time>
      </trkpt>
      <trkpt lat="43.68403" lon="7.06883">
        <ele>188.80000305176</ele>
        <time>2022-04-12T14:22:21.000Z</time>
      </trkpt>
      <trkpt lat="43.68412" lon="7.06887">
        <ele>188.19999694824</ele>
        <time>2022-04-12T14:22:23.000Z</time>
      </trkpt>
      <trkpt lat="43.68417" lon="7.06889">
        <ele>187.60000610352</ele>
        <time>2022-04-12T14:22:24.000Z</time>
      </trkpt>
      <trkpt lat="43.68421" lon="7.0689">
        <ele>187.19999694824</ele>
        <time>2022-04-12T14:22:25.000Z</time>
      </trkpt>
      <trkpt lat="43.68425" lon="7.06892">
        <ele>187</ele>
        <time>2022-04-12T14:22:26.000Z</time>
      </trkpt>
      <trkpt lat="43.68435" lon="7.06897">
        <ele>186.19999694824</ele>
        <time>2022-04-12T14:22:29.000Z</time>
      </trkpt>
      <trkpt lat="43.68436" lon="7.06898">
        <ele>186</ele>
        <time>2022-04-12T14:22:30.000Z</time>
      </trkpt>
      <trkpt lat="43.68436" lon="7.069">
        <ele>186</ele>
        <time>2022-04-12T14:22:31.000Z</time>
      </trkpt>
      <trkpt lat="43.68438" lon="7.06904">
        <ele>185.80000305176</ele>
        <time>2022-04-12T14:22:33.000Z</time>
      </trkpt>
      <trkpt lat="43.68448" lon="7.06908">
        <ele>185.39999389648</ele>
        <time>2022-04-12T14:22:36.000Z</time>
      </trkpt>
      <trkpt lat="43.68451" lon="7.0691">
        <ele>184.80000305176</ele>
        <time>2022-04-12T14:22:37.000Z</time>
      </trkpt>
      <trkpt lat="43.68457" lon="7.06914">
        <ele>182.80000305176</ele>
        <time>2022-04-12T14:22:39.000Z</time>
      </trkpt>
      <trkpt lat="43.68463" lon="7.06918">
        <ele>180.80000305176</ele>
        <time>2022-04-12T14:22:41.000Z</time>
      </trkpt>
      <trkpt lat="43.68465" lon="7.06921">
        <ele>179.80000305176</ele>
        <time>2022-04-12T14:22:42.000Z</time>
      </trkpt>
      <trkpt lat="43.68468" lon="7.06923">
        <ele>178.80000305176</ele>
        <time>2022-04-12T14:22:43.000Z</time>
      </trkpt>
      <trkpt lat="43.68474" lon="7.06926">
        <ele>177</ele>
        <time>2022-04-12T14:22:45.000Z</time>
      </trkpt>
      <trkpt lat="43.68476" lon="7.06928">
        <ele>176</ele>
        <time>2022-04-12T14:22:46.000Z</time>
      </trkpt>
      <trkpt lat="43.6848" lon="7.06931">
        <ele>175.60000610352</ele>
        <time>2022-04-12T14:22:47.000Z</time>
      </trkpt>
      <trkpt lat="43.68482" lon="7.06933">
        <ele>174.39999389648</ele>
        <time>2022-04-12T14:22:48.000Z</time>
      </trkpt>
      <trkpt lat="43.68486" lon="7.06935">
        <ele>172.80000305176</ele>
        <time>2022-04-12T14:22:49.000Z</time>
      </trkpt>
      <trkpt lat="43.68489" lon="7.06937">
        <ele>171.60000610352</ele>
        <time>2022-04-12T14:22:50.000Z</time>
      </trkpt>
      <trkpt lat="43.68492" lon="7.06939">
        <ele>169.80000305176</ele>
        <time>2022-04-12T14:22:51.000Z</time>
      </trkpt>
      <trkpt lat="43.68495" lon="7.06941">
        <ele>168.39999389648</ele>
        <time>2022-04-12T14:22:52.000Z</time>
      </trkpt>
      <trkpt lat="43.68498" lon="7.06943">
        <ele>166.80000305176</ele>
        <time>2022-04-12T14:22:53.000Z</time>
      </trkpt>
      <trkpt lat="43.68503" lon="7.06946">
        <ele>165</ele>
        <time>2022-04-12T14:22:54.000Z</time>
      </trkpt>
      <trkpt lat="43.68507" lon="7.06949">
        <ele>162.60000610352</ele>
        <time>2022-04-12T14:22:55.000Z</time>
      </trkpt>
      <trkpt lat="43.6851" lon="7.06952">
        <ele>160.39999389648</ele>
        <time>2022-04-12T14:22:56.000Z</time>
      </trkpt>
      <trkpt lat="43.68515" lon="7.06953">
        <ele>159.19999694824</ele>
        <time>2022-04-12T14:22:57.000Z</time>
      </trkpt>
      <trkpt lat="43.68518" lon="7.06956">
        <ele>157.39999389648</ele>
        <time>2022-04-12T14:22:58.000Z</time>
      </trkpt>
      <trkpt lat="43.68525" lon="7.0696">
        <ele>155.19999694824</ele>
        <time>2022-04-12T14:23:00.000Z</time>
      </trkpt>
      <trkpt lat="43.68526" lon="7.06963">
        <ele>153.80000305176</ele>
        <time>2022-04-12T14:23:01.000Z</time>
      </trkpt>
      <trkpt lat="43.68526" lon="7.06967">
        <ele>151.80000305176</ele>
        <time>2022-04-12T14:23:02.000Z</time>
      </trkpt>
      <trkpt lat="43.68526" lon="7.06972">
        <ele>150.60000610352</ele>
        <time>2022-04-12T14:23:03.000Z</time>
      </trkpt>
      <trkpt lat="43.68526" lon="7.06977">
        <ele>149.39999389648</ele>
        <time>2022-04-12T14:23:04.000Z</time>
      </trkpt>
      <trkpt lat="43.68525" lon="7.06983">
        <ele>148.60000610352</ele>
        <time>2022-04-12T14:23:05.000Z</time>
      </trkpt>
      <trkpt lat="43.68525" lon="7.06991">
        <ele>148.19999694824</ele>
        <time>2022-04-12T14:23:06.000Z</time>
      </trkpt>
      <trkpt lat="43.68525" lon="7.07">
        <ele>147.80000305176</ele>
        <time>2022-04-12T14:23:07.000Z</time>
      </trkpt>
      <trkpt lat="43.68523" lon="7.07016">
        <ele>146.80000305176</ele>
        <time>2022-04-12T14:23:09.000Z</time>
      </trkpt>
      <trkpt lat="43.68521" lon="7.07028">
        <ele>145.19999694824</ele>
        <time>2022-04-12T14:23:11.000Z</time>
      </trkpt>
      <trkpt lat="43.68519" lon="7.07031">
        <ele>144</ele>
        <time>2022-04-12T14:23:12.000Z</time>
      </trkpt>
      <trkpt lat="43.68519" lon="7.07031">
        <ele>141.80000305176</ele>
        <time>2022-04-12T14:23:14.000Z</time>
      </trkpt>
      <trkpt lat="43.68519" lon="7.07031">
        <ele>140.39999389648</ele>
        <time>2022-04-12T14:23:16.000Z</time>
      </trkpt>
      <trkpt lat="43.68515" lon="7.0704">
        <ele>140</ele>
        <time>2022-04-12T14:23:20.000Z</time>
      </trkpt>
      <trkpt lat="43.68511" lon="7.07044">
        <ele>140</ele>
        <time>2022-04-12T14:23:21.000Z</time>
      </trkpt>
      <trkpt lat="43.68498" lon="7.07057">
        <ele>139</ele>
        <time>2022-04-12T14:23:24.000Z</time>
      </trkpt>
      <trkpt lat="43.68481" lon="7.07066">
        <ele>137.19999694824</ele>
        <time>2022-04-12T14:23:27.000Z</time>
      </trkpt>
      <trkpt lat="43.68475" lon="7.07068">
        <ele>136.80000305176</ele>
        <time>2022-04-12T14:23:28.000Z</time>
      </trkpt>
      <trkpt lat="43.68468" lon="7.0707">
        <ele>135.60000610352</ele>
        <time>2022-04-12T14:23:29.000Z</time>
      </trkpt>
      <trkpt lat="43.68454" lon="7.07074">
        <ele>134</ele>
        <time>2022-04-12T14:23:31.000Z</time>
      </trkpt>
      <trkpt lat="43.68447" lon="7.07076">
        <ele>132.39999389648</ele>
        <time>2022-04-12T14:23:32.000Z</time>
      </trkpt>
      <trkpt lat="43.68441" lon="7.07075">
        <ele>130.39999389648</ele>
        <time>2022-04-12T14:23:33.000Z</time>
      </trkpt>
      <trkpt lat="43.68434" lon="7.07073">
        <ele>129.39999389648</ele>
        <time>2022-04-12T14:23:34.000Z</time>
      </trkpt>
      <trkpt lat="43.68427" lon="7.07072">
        <ele>127.59999847412</ele>
        <time>2022-04-12T14:23:35.000Z</time>
      </trkpt>
      <trkpt lat="43.68421" lon="7.0707">
        <ele>126.19999694824</ele>
        <time>2022-04-12T14:23:36.000Z</time>
      </trkpt>
      <trkpt lat="43.68415" lon="7.07065">
        <ele>125.40000152588</ele>
        <time>2022-04-12T14:23:37.000Z</time>
      </trkpt>
      <trkpt lat="43.68411" lon="7.0706">
        <ele>124.80000305176</ele>
        <time>2022-04-12T14:23:38.000Z</time>
      </trkpt>
      <trkpt lat="43.68403" lon="7.07059">
        <ele>123.19999694824</ele>
        <time>2022-04-12T14:23:40.000Z</time>
      </trkpt>
      <trkpt lat="43.68398" lon="7.07074">
        <ele>122</ele>
        <time>2022-04-12T14:23:43.000Z</time>
      </trkpt>
      <trkpt lat="43.68389" lon="7.07084">
        <ele>120.80000305176</ele>
        <time>2022-04-12T14:23:46.000Z</time>
      </trkpt>
      <trkpt lat="43.68386" lon="7.07087">
        <ele>120.59999847412</ele>
        <time>2022-04-12T14:23:47.000Z</time>
      </trkpt>
      <trkpt lat="43.68381" lon="7.07094">
        <ele>119.40000152588</ele>
        <time>2022-04-12T14:23:49.000Z</time>
      </trkpt>
      <trkpt lat="43.68376" lon="7.071">
        <ele>117.80000305176</ele>
        <time>2022-04-12T14:23:51.000Z</time>
      </trkpt>
      <trkpt lat="43.68374" lon="7.07103">
        <ele>117.19999694824</ele>
        <time>2022-04-12T14:23:52.000Z</time>
      </trkpt>
      <trkpt lat="43.68372" lon="7.07109">
        <ele>116.19999694824</ele>
        <time>2022-04-12T14:23:53.000Z</time>
      </trkpt>
      <trkpt lat="43.68373" lon="7.07118">
        <ele>114.59999847412</ele>
        <time>2022-04-12T14:23:55.000Z</time>
      </trkpt>
      <trkpt lat="43.68375" lon="7.07123">
        <ele>113.40000152588</ele>
        <time>2022-04-12T14:23:56.000Z</time>
      </trkpt>
      <trkpt lat="43.68376" lon="7.07129">
        <ele>112</ele>
        <time>2022-04-12T14:23:57.000Z</time>
      </trkpt>
      <trkpt lat="43.6838" lon="7.07138">
        <ele>110.19999694824</ele>
        <time>2022-04-12T14:23:59.000Z</time>
      </trkpt>
      <trkpt lat="43.68383" lon="7.07145">
        <ele>109.40000152588</ele>
        <time>2022-04-12T14:24:00.000Z</time>
      </trkpt>
      <trkpt lat="43.68383" lon="7.07151">
        <ele>108.59999847412</ele>
        <time>2022-04-12T14:24:01.000Z</time>
      </trkpt>
      <trkpt lat="43.68385" lon="7.07166">
        <ele>106.59999847412</ele>
        <time>2022-04-12T14:24:03.000Z</time>
      </trkpt>
      <trkpt lat="43.68385" lon="7.0717">
        <ele>105.40000152588</ele>
        <time>2022-04-12T14:24:04.000Z</time>
      </trkpt>
      <trkpt lat="43.68384" lon="7.07178">
        <ele>104</ele>
        <time>2022-04-12T14:24:06.000Z</time>
      </trkpt>
      <trkpt lat="43.68382" lon="7.07182">
        <ele>103.19999694824</ele>
        <time>2022-04-12T14:24:07.000Z</time>
      </trkpt>
      <trkpt lat="43.68381" lon="7.07186">
        <ele>102.40000152588</ele>
        <time>2022-04-12T14:24:08.000Z</time>
      </trkpt>
      <trkpt lat="43.68381" lon="7.07192">
        <ele>101</ele>
        <time>2022-04-12T14:24:10.000Z</time>
      </trkpt>
      <trkpt lat="43.68383" lon="7.07192">
        <ele>100</ele>
        <time>2022-04-12T14:24:11.000Z</time>
      </trkpt>
      <trkpt lat="43.68389" lon="7.07186">
        <ele>98.800003051758</ele>
        <time>2022-04-12T14:24:13.000Z</time>
      </trkpt>
      <trkpt lat="43.68394" lon="7.07187">
        <ele>97.800003051758</ele>
        <time>2022-04-12T14:24:15.000Z</time>
      </trkpt>
      <trkpt lat="43.68393" lon="7.07191">
        <ele>97.400001525879</ele>
        <time>2022-04-12T14:24:16.000Z</time>
      </trkpt>
      <trkpt lat="43.68391" lon="7.07195">
        <ele>96.599998474121</ele>
        <time>2022-04-12T14:24:17.000Z</time>
      </trkpt>
      <trkpt lat="43.68385" lon="7.07203">
        <ele>95</ele>
        <time>2022-04-12T14:24:19.000Z</time>
      </trkpt>
      <trkpt lat="43.68379" lon="7.07214">
        <ele>93.199996948242</ele>
        <time>2022-04-12T14:24:21.000Z</time>
      </trkpt>
      <trkpt lat="43.68375" lon="7.07224">
        <ele>91.400001525879</ele>
        <time>2022-04-12T14:24:23.000Z</time>
      </trkpt>
      <trkpt lat="43.68372" lon="7.07228">
        <ele>90.400001525879</ele>
        <time>2022-04-12T14:24:24.000Z</time>
      </trkpt>
      <trkpt lat="43.68373" lon="7.07236">
        <ele>89</ele>
        <time>2022-04-12T14:24:26.000Z</time>
      </trkpt>
      <trkpt lat="43.6838" lon="7.07235">
        <ele>87.199996948242</ele>
        <time>2022-04-12T14:24:28.000Z</time>
      </trkpt>
      <trkpt lat="43.68385" lon="7.07235">
        <ele>86.400001525879</ele>
        <time>2022-04-12T14:24:29.000Z</time>
      </trkpt>
      <trkpt lat="43.6839" lon="7.07235">
        <ele>86</ele>
        <time>2022-04-12T14:24:30.000Z</time>
      </trkpt>
      <trkpt lat="43.68397" lon="7.07229">
        <ele>84.599998474121</ele>
        <time>2022-04-12T14:24:32.000Z</time>
      </trkpt>
      <trkpt lat="43.68401" lon="7.07227">
        <ele>83.400001525879</ele>
        <time>2022-04-12T14:24:33.000Z</time>
      </trkpt>
      <trkpt lat="43.68402" lon="7.07234">
        <ele>81.199996948242</ele>
        <time>2022-04-12T14:24:35.000Z</time>
      </trkpt>
      <trkpt lat="43.68402" lon="7.0724">
        <ele>80.400001525879</ele>
        <time>2022-04-12T14:24:36.000Z</time>
      </trkpt>
      <trkpt lat="43.68401" lon="7.07246">
        <ele>79.800003051758</ele>
        <time>2022-04-12T14:24:37.000Z</time>
      </trkpt>
      <trkpt lat="43.68398" lon="7.07258">
        <ele>78.400001525879</ele>
        <time>2022-04-12T14:24:39.000Z</time>
      </trkpt>
      <trkpt lat="43.68396" lon="7.07264">
        <ele>78</ele>
        <time>2022-04-12T14:24:40.000Z</time>
      </trkpt>
      <trkpt lat="43.68395" lon="7.07269">
        <ele>77.199996948242</ele>
        <time>2022-04-12T14:24:41.000Z</time>
      </trkpt>
      <trkpt lat="43.68393" lon="7.07274">
        <ele>76.199996948242</ele>
        <time>2022-04-12T14:24:42.000Z</time>
      </trkpt>
      <trkpt lat="43.68391" lon="7.0728">
        <ele>75</ele>
        <time>2022-04-12T14:24:43.000Z</time>
      </trkpt>
      <trkpt lat="43.68387" lon="7.07286">
        <ele>74</ele>
        <time>2022-04-12T14:24:44.000Z</time>
      </trkpt>
      <trkpt lat="43.68384" lon="7.0729">
        <ele>72.599998474121</ele>
        <time>2022-04-12T14:24:45.000Z</time>
      </trkpt>
      <trkpt lat="43.68382" lon="7.07293">
        <ele>71.599998474121</ele>
        <time>2022-04-12T14:24:46.000Z</time>
      </trkpt>
      <trkpt lat="43.68382" lon="7.07297">
        <ele>70.400001525879</ele>
        <time>2022-04-12T14:24:47.000Z</time>
      </trkpt>
      <trkpt lat="43.68386" lon="7.07296">
        <ele>69.400001525879</ele>
        <time>2022-04-12T14:24:49.000Z</time>
      </trkpt>
      <trkpt lat="43.68388" lon="7.07295">
        <ele>69.199996948242</ele>
        <time>2022-04-12T14:24:50.000Z</time>
      </trkpt>
      <trkpt lat="43.68393" lon="7.07296">
        <ele>68.599998474121</ele>
        <time>2022-04-12T14:24:52.000Z</time>
      </trkpt>
      <trkpt lat="43.68395" lon="7.07296">
        <ele>68.199996948242</ele>
        <time>2022-04-12T14:24:53.000Z</time>
      </trkpt>
      <trkpt lat="43.68396" lon="7.07296">
        <ele>67</ele>
        <time>2022-04-12T14:24:55.000Z</time>
      </trkpt>
      <trkpt lat="43.68397" lon="7.07298">
        <ele>66</ele>
        <time>2022-04-12T14:24:59.000Z</time>
      </trkpt>
      <trkpt lat="43.68397" lon="7.073">
        <ele>66.199996948242</ele>
        <time>2022-04-12T14:25:00.000Z</time>
      </trkpt>
      <trkpt lat="43.68395" lon="7.0731">
        <ele>66</ele>
        <time>2022-04-12T14:25:04.000Z</time>
      </trkpt>
      <trkpt lat="43.68395" lon="7.07311">
        <ele>65.800003051758</ele>
        <time>2022-04-12T14:25:05.000Z</time>
      </trkpt>
      <trkpt lat="43.68395" lon="7.0731">
        <ele>65.400001525879</ele>
        <time>2022-04-12T14:25:08.000Z</time>
      </trkpt>
      <trkpt lat="43.68395" lon="7.0731">
        <ele>65.800003051758</ele>
        <time>2022-04-12T14:25:17.000Z</time>
      </trkpt>
      <trkpt lat="43.68394" lon="7.07309">
        <ele>65.400001525879</ele>
        <time>2022-04-12T14:25:31.000Z</time>
      </trkpt>
      <trkpt lat="43.68392" lon="7.0731">
        <ele>65.599998474121</ele>
        <time>2022-04-12T14:25:36.000Z</time>
      </trkpt>
      <trkpt lat="43.68389" lon="7.07314">
        <ele>65.400001525879</ele>
        <time>2022-04-12T14:25:38.000Z</time>
      </trkpt>
      <trkpt lat="43.68379" lon="7.0732">
        <ele>65.199996948242</ele>
        <time>2022-04-12T14:25:41.000Z</time>
      </trkpt>
      <trkpt lat="43.68374" lon="7.07322">
        <ele>65.199996948242</ele>
        <time>2022-04-12T14:25:42.000Z</time>
      </trkpt>
      <trkpt lat="43.68369" lon="7.07325">
        <ele>64.800003051758</ele>
        <time>2022-04-12T14:25:43.000Z</time>
      </trkpt>
      <trkpt lat="43.6836" lon="7.07331">
        <ele>63.599998474121</ele>
        <time>2022-04-12T14:25:45.000Z</time>
      </trkpt>
      <trkpt lat="43.68351" lon="7.07339">
        <ele>62.200000762939</ele>
        <time>2022-04-12T14:25:47.000Z</time>
      </trkpt>
      <trkpt lat="43.68346" lon="7.07344">
        <ele>62.200000762939</ele>
        <time>2022-04-12T14:25:48.000Z</time>
      </trkpt>
      <trkpt lat="43.68333" lon="7.07374">
        <ele>61.799999237061</ele>
        <time>2022-04-12T14:25:52.000Z</time>
      </trkpt>
      <trkpt lat="43.68326" lon="7.07389">
        <ele>61.200000762939</ele>
        <time>2022-04-12T14:25:54.000Z</time>
      </trkpt>
      <trkpt lat="43.6832" lon="7.07405">
        <ele>61</ele>
        <time>2022-04-12T14:25:56.000Z</time>
      </trkpt>
      <trkpt lat="43.68296" lon="7.07459">
        <ele>60</ele>
        <time>2022-04-12T14:26:03.000Z</time>
      </trkpt>
      <trkpt lat="43.68291" lon="7.07465">
        <ele>60</ele>
        <time>2022-04-12T14:26:04.000Z</time>
      </trkpt>
      <trkpt lat="43.68274" lon="7.07489">
        <ele>59.799999237061</ele>
        <time>2022-04-12T14:26:08.000Z</time>
      </trkpt>
      <trkpt lat="43.68257" lon="7.07521">
        <ele>59.400001525879</ele>
        <time>2022-04-12T14:26:13.000Z</time>
      </trkpt>
      <trkpt lat="43.68244" lon="7.07548">
        <ele>59</ele>
        <time>2022-04-12T14:26:17.000Z</time>
      </trkpt>
      <trkpt lat="43.68228" lon="7.07582">
        <ele>58</ele>
        <time>2022-04-12T14:26:22.000Z</time>
      </trkpt>
      <trkpt lat="43.68214" lon="7.0761">
        <ele>57.799999237061</ele>
        <time>2022-04-12T14:26:26.000Z</time>
      </trkpt>
      <trkpt lat="43.68203" lon="7.07628">
        <ele>57.400001525879</ele>
        <time>2022-04-12T14:26:29.000Z</time>
      </trkpt>
      <trkpt lat="43.68199" lon="7.07634">
        <ele>57.400001525879</ele>
        <time>2022-04-12T14:26:30.000Z</time>
      </trkpt>
      <trkpt lat="43.68191" lon="7.07645">
        <ele>56.400001525879</ele>
        <time>2022-04-12T14:26:32.000Z</time>
      </trkpt>
      <trkpt lat="43.68164" lon="7.07675">
        <ele>56.599998474121</ele>
        <time>2022-04-12T14:26:38.000Z</time>
      </trkpt>
      <trkpt lat="43.68119" lon="7.07716">
        <ele>55.799999237061</ele>
        <time>2022-04-12T14:26:47.000Z</time>
      </trkpt>
      <trkpt lat="43.68104" lon="7.0773">
        <ele>55.400001525879</ele>
        <time>2022-04-12T14:26:50.000Z</time>
      </trkpt>
      <trkpt lat="43.68096" lon="7.07741">
        <ele>55</ele>
        <time>2022-04-12T14:26:52.000Z</time>
      </trkpt>
      <trkpt lat="43.68088" lon="7.07754">
        <ele>55</ele>
        <time>2022-04-12T14:26:54.000Z</time>
      </trkpt>
      <trkpt lat="43.68081" lon="7.07767">
        <ele>55</ele>
        <time>2022-04-12T14:26:56.000Z</time>
      </trkpt>
      <trkpt lat="43.68072" lon="7.07788">
        <ele>54.599998474121</ele>
        <time>2022-04-12T14:26:59.000Z</time>
      </trkpt>
      <trkpt lat="43.68067" lon="7.07802">
        <ele>54.400001525879</ele>
        <time>2022-04-12T14:27:01.000Z</time>
      </trkpt>
      <trkpt lat="43.68061" lon="7.07816">
        <ele>54</ele>
        <time>2022-04-12T14:27:03.000Z</time>
      </trkpt>
      <trkpt lat="43.68055" lon="7.07831">
        <ele>54</ele>
        <time>2022-04-12T14:27:05.000Z</time>
      </trkpt>
      <trkpt lat="43.68039" lon="7.07873">
        <ele>53.200000762939</ele>
        <time>2022-04-12T14:27:11.000Z</time>
      </trkpt>
      <trkpt lat="43.68035" lon="7.07881">
        <ele>53.200000762939</ele>
        <time>2022-04-12T14:27:12.000Z</time>
      </trkpt>
      <trkpt lat="43.68012" lon="7.07934">
        <ele>52.599998474121</ele>
        <time>2022-04-12T14:27:20.000Z</time>
      </trkpt>
      <trkpt lat="43.68008" lon="7.07947">
        <ele>52.200000762939</ele>
        <time>2022-04-12T14:27:22.000Z</time>
      </trkpt>
      <trkpt lat="43.68007" lon="7.0797">
        <ele>52.400001525879</ele>
        <time>2022-04-12T14:27:25.000Z</time>
      </trkpt>
      <trkpt lat="43.68008" lon="7.07985">
        <ele>52.599998474121</ele>
        <time>2022-04-12T14:27:27.000Z</time>
      </trkpt>
      <trkpt lat="43.68007" lon="7.07993">
        <ele>52.400001525879</ele>
        <time>2022-04-12T14:27:28.000Z</time>
      </trkpt>
      <trkpt lat="43.6801" lon="7.08008">
        <ele>52.400001525879</ele>
        <time>2022-04-12T14:27:30.000Z</time>
      </trkpt>
      <trkpt lat="43.68013" lon="7.08021">
        <ele>52</ele>
        <time>2022-04-12T14:27:32.000Z</time>
      </trkpt>
      <trkpt lat="43.68012" lon="7.08032">
        <ele>51.799999237061</ele>
        <time>2022-04-12T14:27:35.000Z</time>
      </trkpt>
      <trkpt lat="43.68007" lon="7.08027">
        <ele>52</ele>
        <time>2022-04-12T14:27:38.000Z</time>
      </trkpt>
      <trkpt lat="43.68006" lon="7.08017">
        <ele>53.400001525879</ele>
        <time>2022-04-12T14:27:42.000Z</time>
      </trkpt>
      <trkpt lat="43.68005" lon="7.08016">
        <ele>53.799999237061</ele>
        <time>2022-04-12T14:27:43.000Z</time>
      </trkpt>
      <trkpt lat="43.68" lon="7.08018">
        <ele>54.599998474121</ele>
        <time>2022-04-12T14:27:45.000Z</time>
      </trkpt>
      <trkpt lat="43.67999" lon="7.0802">
        <ele>54.799999237061</ele>
        <time>2022-04-12T14:27:46.000Z</time>
      </trkpt>
      <trkpt lat="43.67995" lon="7.08027">
        <ele>55.400001525879</ele>
        <time>2022-04-12T14:27:48.000Z</time>
      </trkpt>
      <trkpt lat="43.67993" lon="7.08031">
        <ele>55.599998474121</ele>
        <time>2022-04-12T14:27:49.000Z</time>
      </trkpt>
      <trkpt lat="43.6799" lon="7.08038">
        <ele>56.799999237061</ele>
        <time>2022-04-12T14:27:51.000Z</time>
      </trkpt>
      <trkpt lat="43.67987" lon="7.08039">
        <ele>57.400001525879</ele>
        <time>2022-04-12T14:27:52.000Z</time>
      </trkpt>
      <trkpt lat="43.67985" lon="7.08039">
        <ele>58</ele>
        <time>2022-04-12T14:27:53.000Z</time>
      </trkpt>
      <trkpt lat="43.67982" lon="7.08039">
        <ele>58.799999237061</ele>
        <time>2022-04-12T14:27:54.000Z</time>
      </trkpt>
      <trkpt lat="43.67979" lon="7.08039">
        <ele>59.400001525879</ele>
        <time>2022-04-12T14:27:55.000Z</time>
      </trkpt>
      <trkpt lat="43.67974" lon="7.08039">
        <ele>60.599998474121</ele>
        <time>2022-04-12T14:27:57.000Z</time>
      </trkpt>
      <trkpt lat="43.67972" lon="7.08041">
        <ele>61.200000762939</ele>
        <time>2022-04-12T14:27:58.000Z</time>
      </trkpt>
      <trkpt lat="43.67972" lon="7.0804">
        <ele>61.599998474121</ele>
        <time>2022-04-12T14:27:59.000Z</time>
      </trkpt>
      <trkpt lat="43.67971" lon="7.08041">
        <ele>62.200000762939</ele>
        <time>2022-04-12T14:28:00.000Z</time>
      </trkpt>
      <trkpt lat="43.67965" lon="7.08043">
        <ele>63</ele>
        <time>2022-04-12T14:28:02.000Z</time>
      </trkpt>
      <trkpt lat="43.67963" lon="7.08043">
        <ele>63.799999237061</ele>
        <time>2022-04-12T14:28:03.000Z</time>
      </trkpt>
      <trkpt lat="43.6796" lon="7.08044">
        <ele>64.800003051758</ele>
        <time>2022-04-12T14:28:05.000Z</time>
      </trkpt>
      <trkpt lat="43.67955" lon="7.08043">
        <ele>66.199996948242</ele>
        <time>2022-04-12T14:28:07.000Z</time>
      </trkpt>
      <trkpt lat="43.67953" lon="7.08041">
        <ele>66.800003051758</ele>
        <time>2022-04-12T14:28:08.000Z</time>
      </trkpt>
      <trkpt lat="43.67951" lon="7.08038">
        <ele>67.599998474121</ele>
        <time>2022-04-12T14:28:09.000Z</time>
      </trkpt>
      <trkpt lat="43.6795" lon="7.08032">
        <ele>68.800003051758</ele>
        <time>2022-04-12T14:28:11.000Z</time>
      </trkpt>
      <trkpt lat="43.67948" lon="7.08029">
        <ele>69.400001525879</ele>
        <time>2022-04-12T14:28:12.000Z</time>
      </trkpt>
      <trkpt lat="43.67947" lon="7.08028">
        <ele>70</ele>
        <time>2022-04-12T14:28:13.000Z</time>
      </trkpt>
      <trkpt lat="43.67941" lon="7.08032">
        <ele>71.199996948242</ele>
        <time>2022-04-12T14:28:16.000Z</time>
      </trkpt>
      <trkpt lat="43.67937" lon="7.08037">
        <ele>71.800003051758</ele>
        <time>2022-04-12T14:28:18.000Z</time>
      </trkpt>
      <trkpt lat="43.67933" lon="7.08042">
        <ele>72.599998474121</ele>
        <time>2022-04-12T14:28:20.000Z</time>
      </trkpt>
      <trkpt lat="43.67928" lon="7.08049">
        <ele>73.599998474121</ele>
        <time>2022-04-12T14:28:23.000Z</time>
      </trkpt>
      <trkpt lat="43.67923" lon="7.08057">
        <ele>74.800003051758</ele>
        <time>2022-04-12T14:28:26.000Z</time>
      </trkpt>
      <trkpt lat="43.67917" lon="7.08064">
        <ele>76</ele>
        <time>2022-04-12T14:28:29.000Z</time>
      </trkpt>
      <trkpt lat="43.67912" lon="7.08068">
        <ele>76.199996948242</ele>
        <time>2022-04-12T14:28:31.000Z</time>
      </trkpt>
      <trkpt lat="43.67903" lon="7.08075">
        <ele>77.199996948242</ele>
        <time>2022-04-12T14:28:35.000Z</time>
      </trkpt>
      <trkpt lat="43.67898" lon="7.08079">
        <ele>77.599998474121</ele>
        <time>2022-04-12T14:28:37.000Z</time>
      </trkpt>
      <trkpt lat="43.67886" lon="7.0809">
        <ele>78</ele>
        <time>2022-04-12T14:28:42.000Z</time>
      </trkpt>
      <trkpt lat="43.67884" lon="7.08096">
        <ele>78.400001525879</ele>
        <time>2022-04-12T14:28:44.000Z</time>
      </trkpt>
      <trkpt lat="43.67882" lon="7.08106">
        <ele>79</ele>
        <time>2022-04-12T14:28:47.000Z</time>
      </trkpt>
      <trkpt lat="43.67882" lon="7.0811">
        <ele>79.400001525879</ele>
        <time>2022-04-12T14:28:48.000Z</time>
      </trkpt>
      <trkpt lat="43.67882" lon="7.08121">
        <ele>80.599998474121</ele>
        <time>2022-04-12T14:28:51.000Z</time>
      </trkpt>
      <trkpt lat="43.67882" lon="7.0813">
        <ele>81.800003051758</ele>
        <time>2022-04-12T14:28:54.000Z</time>
      </trkpt>
      <trkpt lat="43.67883" lon="7.08139">
        <ele>83.199996948242</ele>
        <time>2022-04-12T14:28:57.000Z</time>
      </trkpt>
      <trkpt lat="43.67884" lon="7.08149">
        <ele>84.599998474121</ele>
        <time>2022-04-12T14:29:00.000Z</time>
      </trkpt>
      <trkpt lat="43.67884" lon="7.08152">
        <ele>85</ele>
        <time>2022-04-12T14:29:01.000Z</time>
      </trkpt>
      <trkpt lat="43.67884" lon="7.08158">
        <ele>85.800003051758</ele>
        <time>2022-04-12T14:29:03.000Z</time>
      </trkpt>
      <trkpt lat="43.67884" lon="7.08169">
        <ele>87.199996948242</ele>
        <time>2022-04-12T14:29:06.000Z</time>
      </trkpt>
      <trkpt lat="43.67884" lon="7.08176">
        <ele>88</ele>
        <time>2022-04-12T14:29:08.000Z</time>
      </trkpt>
      <trkpt lat="43.67884" lon="7.08179">
        <ele>88.199996948242</ele>
        <time>2022-04-12T14:29:09.000Z</time>
      </trkpt>
      <trkpt lat="43.67886" lon="7.08194">
        <ele>89.599998474121</ele>
        <time>2022-04-12T14:29:13.000Z</time>
      </trkpt>
      <trkpt lat="43.67886" lon="7.082">
        <ele>90.400001525879</ele>
        <time>2022-04-12T14:29:15.000Z</time>
      </trkpt>
      <trkpt lat="43.67886" lon="7.08203">
        <ele>90.800003051758</ele>
        <time>2022-04-12T14:29:16.000Z</time>
      </trkpt>
      <trkpt lat="43.67887" lon="7.08214">
        <ele>92.199996948242</ele>
        <time>2022-04-12T14:29:19.000Z</time>
      </trkpt>
      <trkpt lat="43.67888" lon="7.08221">
        <ele>92.800003051758</ele>
        <time>2022-04-12T14:29:21.000Z</time>
      </trkpt>
      <trkpt lat="43.67888" lon="7.08228">
        <ele>93.400001525879</ele>
        <time>2022-04-12T14:29:23.000Z</time>
      </trkpt>
      <trkpt lat="43.6789" lon="7.08242">
        <ele>94.199996948242</ele>
        <time>2022-04-12T14:29:27.000Z</time>
      </trkpt>
      <trkpt lat="43.6789" lon="7.08245">
        <ele>94.400001525879</ele>
        <time>2022-04-12T14:29:28.000Z</time>
      </trkpt>
      <trkpt lat="43.67891" lon="7.08262">
        <ele>95.800003051758</ele>
        <time>2022-04-12T14:29:33.000Z</time>
      </trkpt>
      <trkpt lat="43.67892" lon="7.08268">
        <ele>96.400001525879</ele>
        <time>2022-04-12T14:29:35.000Z</time>
      </trkpt>
      <trkpt lat="43.67892" lon="7.08275">
        <ele>97</ele>
        <time>2022-04-12T14:29:37.000Z</time>
      </trkpt>
      <trkpt lat="43.67892" lon="7.08285">
        <ele>98</ele>
        <time>2022-04-12T14:29:40.000Z</time>
      </trkpt>
      <trkpt lat="43.67891" lon="7.08291">
        <ele>98.800003051758</ele>
        <time>2022-04-12T14:29:42.000Z</time>
      </trkpt>
      <trkpt lat="43.67891" lon="7.08295">
        <ele>99.199996948242</ele>
        <time>2022-04-12T14:29:43.000Z</time>
      </trkpt>
      <trkpt lat="43.67888" lon="7.08304">
        <ele>100.40000152588</ele>
        <time>2022-04-12T14:29:46.000Z</time>
      </trkpt>
      <trkpt lat="43.67884" lon="7.08312">
        <ele>101.40000152588</ele>
        <time>2022-04-12T14:29:49.000Z</time>
      </trkpt>
      <trkpt lat="43.67882" lon="7.08314">
        <ele>101.80000305176</ele>
        <time>2022-04-12T14:29:50.000Z</time>
      </trkpt>
      <trkpt lat="43.6788" lon="7.08318">
        <ele>103.19999694824</ele>
        <time>2022-04-12T14:29:53.000Z</time>
      </trkpt>
      <trkpt lat="43.6788" lon="7.08322">
        <ele>104</ele>
        <time>2022-04-12T14:29:55.000Z</time>
      </trkpt>
      <trkpt lat="43.6788" lon="7.08324">
        <ele>104.40000152588</ele>
        <time>2022-04-12T14:29:56.000Z</time>
      </trkpt>
      <trkpt lat="43.67884" lon="7.08337">
        <ele>104.80000305176</ele>
        <time>2022-04-12T14:29:59.000Z</time>
      </trkpt>
      <trkpt lat="43.67888" lon="7.08357">
        <ele>103.59999847412</ele>
        <time>2022-04-12T14:30:02.000Z</time>
      </trkpt>
      <trkpt lat="43.67887" lon="7.08362">
        <ele>103</ele>
        <time>2022-04-12T14:30:03.000Z</time>
      </trkpt>
      <trkpt lat="43.67888" lon="7.08369">
        <ele>102</ele>
        <time>2022-04-12T14:30:05.000Z</time>
      </trkpt>
      <trkpt lat="43.6789" lon="7.08369">
        <ele>101.80000305176</ele>
        <time>2022-04-12T14:30:06.000Z</time>
      </trkpt>
      <trkpt lat="43.67893" lon="7.0838">
        <ele>101.19999694824</ele>
        <time>2022-04-12T14:30:09.000Z</time>
      </trkpt>
      <trkpt lat="43.67898" lon="7.08397">
        <ele>100.40000152588</ele>
        <time>2022-04-12T14:30:12.000Z</time>
      </trkpt>
      <trkpt lat="43.67898" lon="7.08403">
        <ele>100</ele>
        <time>2022-04-12T14:30:13.000Z</time>
      </trkpt>
      <trkpt lat="43.67897" lon="7.08412">
        <ele>99.199996948242</ele>
        <time>2022-04-12T14:30:15.000Z</time>
      </trkpt>
      <trkpt lat="43.67898" lon="7.08421">
        <ele>99</ele>
        <time>2022-04-12T14:30:17.000Z</time>
      </trkpt>
      <trkpt lat="43.67901" lon="7.08431">
        <ele>99</ele>
        <time>2022-04-12T14:30:20.000Z</time>
      </trkpt>
      <trkpt lat="43.67904" lon="7.08434">
        <ele>99.199996948242</ele>
        <time>2022-04-12T14:30:21.000Z</time>
      </trkpt>
      <trkpt lat="43.67905" lon="7.08447">
        <ele>99</ele>
        <time>2022-04-12T14:30:24.000Z</time>
      </trkpt>
      <trkpt lat="43.6791" lon="7.08453">
        <ele>98.800003051758</ele>
        <time>2022-04-12T14:30:27.000Z</time>
      </trkpt>
      <trkpt lat="43.6792" lon="7.08453">
        <ele>99.599998474121</ele>
        <time>2022-04-12T14:30:31.000Z</time>
      </trkpt>
      <trkpt lat="43.67927" lon="7.08453">
        <ele>100.40000152588</ele>
        <time>2022-04-12T14:30:34.000Z</time>
      </trkpt>
      <trkpt lat="43.67929" lon="7.08453">
        <ele>100.59999847412</ele>
        <time>2022-04-12T14:30:35.000Z</time>
      </trkpt>
      <trkpt lat="43.67935" lon="7.08454">
        <ele>101</ele>
        <time>2022-04-12T14:30:38.000Z</time>
      </trkpt>
      <trkpt lat="43.67938" lon="7.08455">
        <ele>101</ele>
        <time>2022-04-12T14:30:39.000Z</time>
      </trkpt>
      <trkpt lat="43.67948" lon="7.08456">
        <ele>101.59999847412</ele>
        <time>2022-04-12T14:30:43.000Z</time>
      </trkpt>
      <trkpt lat="43.67953" lon="7.08459">
        <ele>102.19999694824</ele>
        <time>2022-04-12T14:30:45.000Z</time>
      </trkpt>
      <trkpt lat="43.67958" lon="7.0846">
        <ele>102.59999847412</ele>
        <time>2022-04-12T14:30:47.000Z</time>
      </trkpt>
      <trkpt lat="43.67959" lon="7.08463">
        <ele>102.59999847412</ele>
        <time>2022-04-12T14:30:48.000Z</time>
      </trkpt>
      <trkpt lat="43.6796" lon="7.08466">
        <ele>102.59999847412</ele>
        <time>2022-04-12T14:30:49.000Z</time>
      </trkpt>
      <trkpt lat="43.67958" lon="7.08472">
        <ele>102.59999847412</ele>
        <time>2022-04-12T14:30:52.000Z</time>
      </trkpt>
      <trkpt lat="43.67965" lon="7.08478">
        <ele>102.19999694824</ele>
        <time>2022-04-12T14:30:56.000Z</time>
      </trkpt>
      <trkpt lat="43.67968" lon="7.08486">
        <ele>102.19999694824</ele>
        <time>2022-04-12T14:30:59.000Z</time>
      </trkpt>
      <trkpt lat="43.6797" lon="7.08488">
        <ele>102.19999694824</ele>
        <time>2022-04-12T14:31:00.000Z</time>
      </trkpt>
      <trkpt lat="43.67975" lon="7.08488">
        <ele>101.59999847412</ele>
        <time>2022-04-12T14:31:02.000Z</time>
      </trkpt>
      <trkpt lat="43.67979" lon="7.08492">
        <ele>101.19999694824</ele>
        <time>2022-04-12T14:31:04.000Z</time>
      </trkpt>
      <trkpt lat="43.67977" lon="7.08498">
        <ele>100.59999847412</ele>
        <time>2022-04-12T14:31:07.000Z</time>
      </trkpt>
      <trkpt lat="43.67977" lon="7.08501">
        <ele>100.19999694824</ele>
        <time>2022-04-12T14:31:09.000Z</time>
      </trkpt>
      <trkpt lat="43.67972" lon="7.08503">
        <ele>99.800003051758</ele>
        <time>2022-04-12T14:31:12.000Z</time>
      </trkpt>
      <trkpt lat="43.6797" lon="7.08504">
        <ele>99.800003051758</ele>
        <time>2022-04-12T14:31:13.000Z</time>
      </trkpt>
      <trkpt lat="43.67962" lon="7.0851">
        <ele>100</ele>
        <time>2022-04-12T14:31:17.000Z</time>
      </trkpt>
      <trkpt lat="43.67956" lon="7.08521">
        <ele>99.400001525879</ele>
        <time>2022-04-12T14:31:21.000Z</time>
      </trkpt>
      <trkpt lat="43.67953" lon="7.08524">
        <ele>99.199996948242</ele>
        <time>2022-04-12T14:31:22.000Z</time>
      </trkpt>
      <trkpt lat="43.6795" lon="7.08528">
        <ele>98.599998474121</ele>
        <time>2022-04-12T14:31:24.000Z</time>
      </trkpt>
      <trkpt lat="43.6795" lon="7.08532">
        <ele>98.400001525879</ele>
        <time>2022-04-12T14:31:25.000Z</time>
      </trkpt>
      <trkpt lat="43.67948" lon="7.08534">
        <ele>98.400001525879</ele>
        <time>2022-04-12T14:31:26.000Z</time>
      </trkpt>
      <trkpt lat="43.67945" lon="7.08535">
        <ele>97.800003051758</ele>
        <time>2022-04-12T14:31:28.000Z</time>
      </trkpt>
      <trkpt lat="43.67943" lon="7.08537">
        <ele>97</ele>
        <time>2022-04-12T14:31:30.000Z</time>
      </trkpt>
      <trkpt lat="43.67941" lon="7.0854">
        <ele>96.400001525879</ele>
        <time>2022-04-12T14:31:34.000Z</time>
      </trkpt>
      <trkpt lat="43.6794" lon="7.0854">
        <ele>96.199996948242</ele>
        <time>2022-04-12T14:31:39.000Z</time>
      </trkpt>
      <trkpt lat="43.67935" lon="7.08538">
        <ele>96.199996948242</ele>
        <time>2022-04-12T14:31:41.000Z</time>
      </trkpt>
      <trkpt lat="43.6793" lon="7.08534">
        <ele>96.199996948242</ele>
        <time>2022-04-12T14:31:43.000Z</time>
      </trkpt>
      <trkpt lat="43.67923" lon="7.08532">
        <ele>96.400001525879</ele>
        <time>2022-04-12T14:31:46.000Z</time>
      </trkpt>
      <trkpt lat="43.67916" lon="7.08527">
        <ele>96.800003051758</ele>
        <time>2022-04-12T14:31:50.000Z</time>
      </trkpt>
      <trkpt lat="43.67906" lon="7.08524">
        <ele>97.199996948242</ele>
        <time>2022-04-12T14:31:54.000Z</time>
      </trkpt>
      <trkpt lat="43.67904" lon="7.08523">
        <ele>97.199996948242</ele>
        <time>2022-04-12T14:31:55.000Z</time>
      </trkpt>
      <trkpt lat="43.67894" lon="7.08521">
        <ele>97.400001525879</ele>
        <time>2022-04-12T14:31:59.000Z</time>
      </trkpt>
      <trkpt lat="43.67883" lon="7.08523">
        <ele>97.800003051758</ele>
        <time>2022-04-12T14:32:03.000Z</time>
      </trkpt>
      <trkpt lat="43.6788" lon="7.08524">
        <ele>98</ele>
        <time>2022-04-12T14:32:04.000Z</time>
      </trkpt>
      <trkpt lat="43.67879" lon="7.08526">
        <ele>97.800003051758</ele>
        <time>2022-04-12T14:32:06.000Z</time>
      </trkpt>
      <trkpt lat="43.67876" lon="7.08528">
        <ele>97.599998474121</ele>
        <time>2022-04-12T14:32:07.000Z</time>
      </trkpt>
      <trkpt lat="43.67867" lon="7.08529">
        <ele>96.599998474121</ele>
        <time>2022-04-12T14:32:10.000Z</time>
      </trkpt>
      <trkpt lat="43.67859" lon="7.08526">
        <ele>95.599998474121</ele>
        <time>2022-04-12T14:32:12.000Z</time>
      </trkpt>
      <trkpt lat="43.67847" lon="7.08525">
        <ele>94.599998474121</ele>
        <time>2022-04-12T14:32:15.000Z</time>
      </trkpt>
      <trkpt lat="43.67843" lon="7.08523">
        <ele>94.599998474121</ele>
        <time>2022-04-12T14:32:16.000Z</time>
      </trkpt>
      <trkpt lat="43.67828" lon="7.0852">
        <ele>94.199996948242</ele>
        <time>2022-04-12T14:32:20.000Z</time>
      </trkpt>
      <trkpt lat="43.67817" lon="7.08523">
        <ele>94.400001525879</ele>
        <time>2022-04-12T14:32:24.000Z</time>
      </trkpt>
      <trkpt lat="43.67804" lon="7.08524">
        <ele>95.400001525879</ele>
        <time>2022-04-12T14:32:29.000Z</time>
      </trkpt>
      <trkpt lat="43.67801" lon="7.08525">
        <ele>95.599998474121</ele>
        <time>2022-04-12T14:32:31.000Z</time>
      </trkpt>
      <trkpt lat="43.67791" lon="7.08525">
        <ele>96.400001525879</ele>
        <time>2022-04-12T14:32:34.000Z</time>
      </trkpt>
      <trkpt lat="43.67789" lon="7.08527">
        <ele>96.599998474121</ele>
        <time>2022-04-12T14:32:35.000Z</time>
      </trkpt>
      <trkpt lat="43.67786" lon="7.08528">
        <ele>96.599998474121</ele>
        <time>2022-04-12T14:32:36.000Z</time>
      </trkpt>
      <trkpt lat="43.67779" lon="7.08531">
        <ele>96.599998474121</ele>
        <time>2022-04-12T14:32:38.000Z</time>
      </trkpt>
      <trkpt lat="43.67759" lon="7.08547">
        <ele>97</ele>
        <time>2022-04-12T14:32:44.000Z</time>
      </trkpt>
      <trkpt lat="43.67756" lon="7.08551">
        <ele>97.199996948242</ele>
        <time>2022-04-12T14:32:45.000Z</time>
      </trkpt>
      <trkpt lat="43.67747" lon="7.08558">
        <ele>97.599998474121</ele>
        <time>2022-04-12T14:32:48.000Z</time>
      </trkpt>
      <trkpt lat="43.67745" lon="7.08559">
        <ele>97.800003051758</ele>
        <time>2022-04-12T14:32:49.000Z</time>
      </trkpt>
      <trkpt lat="43.6774" lon="7.08564">
        <ele>98.599998474121</ele>
        <time>2022-04-12T14:32:52.000Z</time>
      </trkpt>
      <trkpt lat="43.67737" lon="7.08565">
        <ele>99</ele>
        <time>2022-04-12T14:32:53.000Z</time>
      </trkpt>
      <trkpt lat="43.67726" lon="7.08574">
        <ele>99.800003051758</ele>
        <time>2022-04-12T14:32:57.000Z</time>
      </trkpt>
      <trkpt lat="43.67716" lon="7.08582">
        <ele>99.800003051758</ele>
        <time>2022-04-12T14:33:02.000Z</time>
      </trkpt>
      <trkpt lat="43.67713" lon="7.08583">
        <ele>100</ele>
        <time>2022-04-12T14:33:03.000Z</time>
      </trkpt>
      <trkpt lat="43.67707" lon="7.08586">
        <ele>100.40000152588</ele>
        <time>2022-04-12T14:33:05.000Z</time>
      </trkpt>
      <trkpt lat="43.67704" lon="7.08586">
        <ele>100.19999694824</ele>
        <time>2022-04-12T14:33:06.000Z</time>
      </trkpt>
      <trkpt lat="43.6769" lon="7.08585">
        <ele>100.80000305176</ele>
        <time>2022-04-12T14:33:11.000Z</time>
      </trkpt>
      <trkpt lat="43.67687" lon="7.08588">
        <ele>101.19999694824</ele>
        <time>2022-04-12T14:33:12.000Z</time>
      </trkpt>
      <trkpt lat="43.67677" lon="7.08592">
        <ele>102.19999694824</ele>
        <time>2022-04-12T14:33:15.000Z</time>
      </trkpt>
      <trkpt lat="43.67664" lon="7.08592">
        <ele>102.80000305176</ele>
        <time>2022-04-12T14:33:19.000Z</time>
      </trkpt>
      <trkpt lat="43.67661" lon="7.08593">
        <ele>103.19999694824</ele>
        <time>2022-04-12T14:33:20.000Z</time>
      </trkpt>
      <trkpt lat="43.67658" lon="7.08596">
        <ele>103.59999847412</ele>
        <time>2022-04-12T14:33:22.000Z</time>
      </trkpt>
      <trkpt lat="43.67658" lon="7.08597">
        <ele>103.59999847412</ele>
        <time>2022-04-12T14:33:23.000Z</time>
      </trkpt>
      <trkpt lat="43.67658" lon="7.08596">
        <ele>104</ele>
        <time>2022-04-12T14:33:24.000Z</time>
      </trkpt>
      <trkpt lat="43.67658" lon="7.08598">
        <ele>103.59999847412</ele>
        <time>2022-04-12T14:33:30.000Z</time>
      </trkpt>
      <trkpt lat="43.67657" lon="7.086">
        <ele>104.19999694824</ele>
        <time>2022-04-12T14:33:35.000Z</time>
      </trkpt>
      <trkpt lat="43.67655" lon="7.0861">
        <ele>104.19999694824</ele>
        <time>2022-04-12T14:33:39.000Z</time>
      </trkpt>
      <trkpt lat="43.67655" lon="7.08616">
        <ele>103</ele>
        <time>2022-04-12T14:33:42.000Z</time>
      </trkpt>
      <trkpt lat="43.67654" lon="7.08618">
        <ele>102.80000305176</ele>
        <time>2022-04-12T14:33:43.000Z</time>
      </trkpt>
      <trkpt lat="43.67647" lon="7.08624">
        <ele>103.59999847412</ele>
        <time>2022-04-12T14:33:47.000Z</time>
      </trkpt>
      <trkpt lat="43.67641" lon="7.08625">
        <ele>104</ele>
        <time>2022-04-12T14:33:50.000Z</time>
      </trkpt>
      <trkpt lat="43.67638" lon="7.08626">
        <ele>104</ele>
        <time>2022-04-12T14:33:51.000Z</time>
      </trkpt>
      <trkpt lat="43.67636" lon="7.08626">
        <ele>104</ele>
        <time>2022-04-12T14:33:52.000Z</time>
      </trkpt>
      <trkpt lat="43.67629" lon="7.08627">
        <ele>104.19999694824</ele>
        <time>2022-04-12T14:33:55.000Z</time>
      </trkpt>
      <trkpt lat="43.67626" lon="7.08623">
        <ele>104.59999847412</ele>
        <time>2022-04-12T14:33:57.000Z</time>
      </trkpt>
      <trkpt lat="43.67622" lon="7.08621">
        <ele>104.80000305176</ele>
        <time>2022-04-12T14:33:59.000Z</time>
      </trkpt>
      <trkpt lat="43.67611" lon="7.08614">
        <ele>105.19999694824</ele>
        <time>2022-04-12T14:34:04.000Z</time>
      </trkpt>
      <trkpt lat="43.67609" lon="7.08613">
        <ele>105.19999694824</ele>
        <time>2022-04-12T14:34:05.000Z</time>
      </trkpt>
      <trkpt lat="43.67602" lon="7.0861">
        <ele>105.59999847412</ele>
        <time>2022-04-12T14:34:08.000Z</time>
      </trkpt>
      <trkpt lat="43.676" lon="7.0861">
        <ele>105.80000305176</ele>
        <time>2022-04-12T14:34:09.000Z</time>
      </trkpt>
      <trkpt lat="43.67589" lon="7.08608">
        <ele>106.80000305176</ele>
        <time>2022-04-12T14:34:13.000Z</time>
      </trkpt>
      <trkpt lat="43.67586" lon="7.08608">
        <ele>107</ele>
        <time>2022-04-12T14:34:14.000Z</time>
      </trkpt>
      <trkpt lat="43.67583" lon="7.08609">
        <ele>107.40000152588</ele>
        <time>2022-04-12T14:34:16.000Z</time>
      </trkpt>
      <trkpt lat="43.67579" lon="7.08613">
        <ele>107.59999847412</ele>
        <time>2022-04-12T14:34:18.000Z</time>
      </trkpt>
      <trkpt lat="43.67574" lon="7.08612">
        <ele>108</ele>
        <time>2022-04-12T14:34:20.000Z</time>
      </trkpt>
      <trkpt lat="43.67571" lon="7.08612">
        <ele>108.59999847412</ele>
        <time>2022-04-12T14:34:21.000Z</time>
      </trkpt>
      <trkpt lat="43.67568" lon="7.08613">
        <ele>109</ele>
        <time>2022-04-12T14:34:22.000Z</time>
      </trkpt>
      <trkpt lat="43.67565" lon="7.08613">
        <ele>109.19999694824</ele>
        <time>2022-04-12T14:34:23.000Z</time>
      </trkpt>
      <trkpt lat="43.67555" lon="7.08615">
        <ele>110</ele>
        <time>2022-04-12T14:34:27.000Z</time>
      </trkpt>
      <trkpt lat="43.67553" lon="7.08617">
        <ele>110.59999847412</ele>
        <time>2022-04-12T14:34:28.000Z</time>
      </trkpt>
      <trkpt lat="43.67547" lon="7.08618">
        <ele>111.59999847412</ele>
        <time>2022-04-12T14:34:31.000Z</time>
      </trkpt>
      <trkpt lat="43.67546" lon="7.08621">
        <ele>111.80000305176</ele>
        <time>2022-04-12T14:34:32.000Z</time>
      </trkpt>
      <trkpt lat="43.67543" lon="7.08625">
        <ele>111.59999847412</ele>
        <time>2022-04-12T14:34:35.000Z</time>
      </trkpt>
      <trkpt lat="43.67542" lon="7.08628">
        <ele>111.59999847412</ele>
        <time>2022-04-12T14:34:36.000Z</time>
      </trkpt>
      <trkpt lat="43.67542" lon="7.08629">
        <ele>111.80000305176</ele>
        <time>2022-04-12T14:34:37.000Z</time>
      </trkpt>
      <trkpt lat="43.67539" lon="7.08638">
        <ele>112.80000305176</ele>
        <time>2022-04-12T14:34:40.000Z</time>
      </trkpt>
      <trkpt lat="43.67539" lon="7.08643">
        <ele>113.80000305176</ele>
        <time>2022-04-12T14:34:42.000Z</time>
      </trkpt>
      <trkpt lat="43.67541" lon="7.08645">
        <ele>114.19999694824</ele>
        <time>2022-04-12T14:34:43.000Z</time>
      </trkpt>
      <trkpt lat="43.67544" lon="7.08651">
        <ele>115.80000305176</ele>
        <time>2022-04-12T14:34:46.000Z</time>
      </trkpt>
      <trkpt lat="43.67547" lon="7.08652">
        <ele>116.80000305176</ele>
        <time>2022-04-12T14:34:48.000Z</time>
      </trkpt>
      <trkpt lat="43.67551" lon="7.08654">
        <ele>117.59999847412</ele>
        <time>2022-04-12T14:34:51.000Z</time>
      </trkpt>
      <trkpt lat="43.67552" lon="7.08657">
        <ele>118.19999694824</ele>
        <time>2022-04-12T14:34:52.000Z</time>
      </trkpt>
      <trkpt lat="43.67556" lon="7.08662">
        <ele>119</ele>
        <time>2022-04-12T14:34:55.000Z</time>
      </trkpt>
      <trkpt lat="43.67557" lon="7.08663">
        <ele>119.19999694824</ele>
        <time>2022-04-12T14:34:56.000Z</time>
      </trkpt>
      <trkpt lat="43.67561" lon="7.08669">
        <ele>119.40000152588</ele>
        <time>2022-04-12T14:34:59.000Z</time>
      </trkpt>
      <trkpt lat="43.67563" lon="7.08674">
        <ele>119.80000305176</ele>
        <time>2022-04-12T14:35:01.000Z</time>
      </trkpt>
      <trkpt lat="43.67563" lon="7.08678">
        <ele>119.19999694824</ele>
        <time>2022-04-12T14:35:05.000Z</time>
      </trkpt>
      <trkpt lat="43.67563" lon="7.08682">
        <ele>118.59999847412</ele>
        <time>2022-04-12T14:35:10.000Z</time>
      </trkpt>
      <trkpt lat="43.67562" lon="7.08689">
        <ele>118.40000152588</ele>
        <time>2022-04-12T14:35:12.000Z</time>
      </trkpt>
      <trkpt lat="43.67563" lon="7.08697">
        <ele>118</ele>
        <time>2022-04-12T14:35:14.000Z</time>
      </trkpt>
      <trkpt lat="43.67563" lon="7.08713">
        <ele>117.59999847412</ele>
        <time>2022-04-12T14:35:18.000Z</time>
      </trkpt>
      <trkpt lat="43.67559" lon="7.08726">
        <ele>117.80000305176</ele>
        <time>2022-04-12T14:35:22.000Z</time>
      </trkpt>
      <trkpt lat="43.67552" lon="7.08728">
        <ele>118.19999694824</ele>
        <time>2022-04-12T14:35:25.000Z</time>
      </trkpt>
      <trkpt lat="43.6755" lon="7.08727">
        <ele>118.19999694824</ele>
        <time>2022-04-12T14:35:26.000Z</time>
      </trkpt>
      <trkpt lat="43.67541" lon="7.08732">
        <ele>119</ele>
        <time>2022-04-12T14:35:30.000Z</time>
      </trkpt>
      <trkpt lat="43.67539" lon="7.08737">
        <ele>119</ele>
        <time>2022-04-12T14:35:32.000Z</time>
      </trkpt>
      <trkpt lat="43.67538" lon="7.08744">
        <ele>119.40000152588</ele>
        <time>2022-04-12T14:35:34.000Z</time>
      </trkpt>
      <trkpt lat="43.67539" lon="7.08756">
        <ele>119.80000305176</ele>
        <time>2022-04-12T14:35:38.000Z</time>
      </trkpt>
      <trkpt lat="43.67538" lon="7.08759">
        <ele>120.19999694824</ele>
        <time>2022-04-12T14:35:39.000Z</time>
      </trkpt>
      <trkpt lat="43.67539" lon="7.08768">
        <ele>120.59999847412</ele>
        <time>2022-04-12T14:35:42.000Z</time>
      </trkpt>
      <trkpt lat="43.67537" lon="7.08777">
        <ele>121.19999694824</ele>
        <time>2022-04-12T14:35:45.000Z</time>
      </trkpt>
      <trkpt lat="43.67535" lon="7.08778">
        <ele>121.40000152588</ele>
        <time>2022-04-12T14:35:46.000Z</time>
      </trkpt>
      <trkpt lat="43.67524" lon="7.08779">
        <ele>122</ele>
        <time>2022-04-12T14:35:50.000Z</time>
      </trkpt>
      <trkpt lat="43.67522" lon="7.08779">
        <ele>122.19999694824</ele>
        <time>2022-04-12T14:35:51.000Z</time>
      </trkpt>
      <trkpt lat="43.67511" lon="7.08779">
        <ele>122.40000152588</ele>
        <time>2022-04-12T14:35:55.000Z</time>
      </trkpt>
      <trkpt lat="43.67504" lon="7.0878">
        <ele>122.40000152588</ele>
        <time>2022-04-12T14:35:59.000Z</time>
      </trkpt>
      <trkpt lat="43.67501" lon="7.08784">
        <ele>122.59999847412</ele>
        <time>2022-04-12T14:36:00.000Z</time>
      </trkpt>
      <trkpt lat="43.67493" lon="7.08789">
        <ele>122.59999847412</ele>
        <time>2022-04-12T14:36:04.000Z</time>
      </trkpt>
      <trkpt lat="43.67496" lon="7.08794">
        <ele>122.80000305176</ele>
        <time>2022-04-12T14:36:07.000Z</time>
      </trkpt>
      <trkpt lat="43.67496" lon="7.08802">
        <ele>123.19999694824</ele>
        <time>2022-04-12T14:36:10.000Z</time>
      </trkpt>
      <trkpt lat="43.67488" lon="7.08804">
        <ele>123.80000305176</ele>
        <time>2022-04-12T14:36:13.000Z</time>
      </trkpt>
      <trkpt lat="43.67483" lon="7.08807">
        <ele>123.80000305176</ele>
        <time>2022-04-12T14:36:17.000Z</time>
      </trkpt>
      <trkpt lat="43.6748" lon="7.08813">
        <ele>123.80000305176</ele>
        <time>2022-04-12T14:36:19.000Z</time>
      </trkpt>
      <trkpt lat="43.67475" lon="7.08822">
        <ele>124.19999694824</ele>
        <time>2022-04-12T14:36:22.000Z</time>
      </trkpt>
      <trkpt lat="43.67474" lon="7.08825">
        <ele>124.59999847412</ele>
        <time>2022-04-12T14:36:23.000Z</time>
      </trkpt>
      <trkpt lat="43.6747" lon="7.08833">
        <ele>125.59999847412</ele>
        <time>2022-04-12T14:36:26.000Z</time>
      </trkpt>
      <trkpt lat="43.67469" lon="7.08842">
        <ele>126.19999694824</ele>
        <time>2022-04-12T14:36:29.000Z</time>
      </trkpt>
      <trkpt lat="43.67466" lon="7.08851">
        <ele>126.59999847412</ele>
        <time>2022-04-12T14:36:32.000Z</time>
      </trkpt>
      <trkpt lat="43.67465" lon="7.08855">
        <ele>127</ele>
        <time>2022-04-12T14:36:34.000Z</time>
      </trkpt>
      <trkpt lat="43.67462" lon="7.08867">
        <ele>127.80000305176</ele>
        <time>2022-04-12T14:36:38.000Z</time>
      </trkpt>
      <trkpt lat="43.67462" lon="7.08871">
        <ele>128</ele>
        <time>2022-04-12T14:36:39.000Z</time>
      </trkpt>
      <trkpt lat="43.6746" lon="7.08885">
        <ele>128.39999389648</ele>
        <time>2022-04-12T14:36:44.000Z</time>
      </trkpt>
      <trkpt lat="43.67459" lon="7.0889">
        <ele>128.39999389648</ele>
        <time>2022-04-12T14:36:45.000Z</time>
      </trkpt>
      <trkpt lat="43.67456" lon="7.08897">
        <ele>128.80000305176</ele>
        <time>2022-04-12T14:36:48.000Z</time>
      </trkpt>
      <trkpt lat="43.67455" lon="7.08901">
        <ele>128.80000305176</ele>
        <time>2022-04-12T14:36:49.000Z</time>
      </trkpt>
      <trkpt lat="43.67455" lon="7.08919">
        <ele>129.19999694824</ele>
        <time>2022-04-12T14:36:54.000Z</time>
      </trkpt>
      <trkpt lat="43.67455" lon="7.08936">
        <ele>129.60000610352</ele>
        <time>2022-04-12T14:36:59.000Z</time>
      </trkpt>
      <trkpt lat="43.67451" lon="7.08958">
        <ele>129.80000305176</ele>
        <time>2022-04-12T14:37:04.000Z</time>
      </trkpt>
      <trkpt lat="43.67444" lon="7.08985">
        <ele>129.60000610352</ele>
        <time>2022-04-12T14:37:10.000Z</time>
      </trkpt>
      <trkpt lat="43.67438" lon="7.0899">
        <ele>129.80000305176</ele>
        <time>2022-04-12T14:37:12.000Z</time>
      </trkpt>
      <trkpt lat="43.67435" lon="7.08989">
        <ele>129.80000305176</ele>
        <time>2022-04-12T14:37:13.000Z</time>
      </trkpt>
      <trkpt lat="43.67427" lon="7.08985">
        <ele>129.80000305176</ele>
        <time>2022-04-12T14:37:16.000Z</time>
      </trkpt>
      <trkpt lat="43.67424" lon="7.08985">
        <ele>129.80000305176</ele>
        <time>2022-04-12T14:37:17.000Z</time>
      </trkpt>
      <trkpt lat="43.67408" lon="7.08977">
        <ele>129.60000610352</ele>
        <time>2022-04-12T14:37:23.000Z</time>
      </trkpt>
      <trkpt lat="43.67394" lon="7.08969">
        <ele>130.19999694824</ele>
        <time>2022-04-12T14:37:29.000Z</time>
      </trkpt>
      <trkpt lat="43.67381" lon="7.08961">
        <ele>130.80000305176</ele>
        <time>2022-04-12T14:37:34.000Z</time>
      </trkpt>
      <trkpt lat="43.67379" lon="7.08959">
        <ele>131</ele>
        <time>2022-04-12T14:37:35.000Z</time>
      </trkpt>
      <trkpt lat="43.67369" lon="7.08954">
        <ele>132</ele>
        <time>2022-04-12T14:37:39.000Z</time>
      </trkpt>
      <trkpt lat="43.67364" lon="7.0895">
        <ele>132.60000610352</ele>
        <time>2022-04-12T14:37:41.000Z</time>
      </trkpt>
      <trkpt lat="43.67356" lon="7.08941">
        <ele>133.39999389648</ele>
        <time>2022-04-12T14:37:44.000Z</time>
      </trkpt>
      <trkpt lat="43.67352" lon="7.08934">
        <ele>134.39999389648</ele>
        <time>2022-04-12T14:37:46.000Z</time>
      </trkpt>
      <trkpt lat="43.6735" lon="7.08931">
        <ele>135.80000305176</ele>
        <time>2022-04-12T14:37:48.000Z</time>
      </trkpt>
      <trkpt lat="43.67348" lon="7.08928">
        <ele>136.60000610352</ele>
        <time>2022-04-12T14:37:49.000Z</time>
      </trkpt>
      <trkpt lat="43.67345" lon="7.08926">
        <ele>137.60000610352</ele>
        <time>2022-04-12T14:37:50.000Z</time>
      </trkpt>
      <trkpt lat="43.67339" lon="7.08923">
        <ele>138.80000305176</ele>
        <time>2022-04-12T14:37:52.000Z</time>
      </trkpt>
      <trkpt lat="43.67337" lon="7.08922">
        <ele>139.19999694824</ele>
        <time>2022-04-12T14:37:53.000Z</time>
      </trkpt>
      <trkpt lat="43.67334" lon="7.08922">
        <ele>139.80000305176</ele>
        <time>2022-04-12T14:37:54.000Z</time>
      </trkpt>
      <trkpt lat="43.67332" lon="7.08921">
        <ele>141</ele>
        <time>2022-04-12T14:37:56.000Z</time>
      </trkpt>
      <trkpt lat="43.6733" lon="7.08923">
        <ele>141.60000610352</ele>
        <time>2022-04-12T14:37:57.000Z</time>
      </trkpt>
      <trkpt lat="43.67329" lon="7.08924">
        <ele>142.39999389648</ele>
        <time>2022-04-12T14:37:58.000Z</time>
      </trkpt>
      <trkpt lat="43.67325" lon="7.08924">
        <ele>143.60000610352</ele>
        <time>2022-04-12T14:38:00.000Z</time>
      </trkpt>
      <trkpt lat="43.67322" lon="7.08923">
        <ele>144.60000610352</ele>
        <time>2022-04-12T14:38:02.000Z</time>
      </trkpt>
      <trkpt lat="43.6732" lon="7.08923">
        <ele>145.19999694824</ele>
        <time>2022-04-12T14:38:03.000Z</time>
      </trkpt>
      <trkpt lat="43.67317" lon="7.08921">
        <ele>145.80000305176</ele>
        <time>2022-04-12T14:38:04.000Z</time>
      </trkpt>
      <trkpt lat="43.67316" lon="7.0892">
        <ele>146.19999694824</ele>
        <time>2022-04-12T14:38:05.000Z</time>
      </trkpt>
      <trkpt lat="43.67312" lon="7.08916">
        <ele>147.19999694824</ele>
        <time>2022-04-12T14:38:07.000Z</time>
      </trkpt>
      <trkpt lat="43.67311" lon="7.08914">
        <ele>147.80000305176</ele>
        <time>2022-04-12T14:38:08.000Z</time>
      </trkpt>
      <trkpt lat="43.6731" lon="7.08914">
        <ele>148.39999389648</ele>
        <time>2022-04-12T14:38:09.000Z</time>
      </trkpt>
      <trkpt lat="43.67307" lon="7.08912">
        <ele>149.60000610352</ele>
        <time>2022-04-12T14:38:11.000Z</time>
      </trkpt>
      <trkpt lat="43.67304" lon="7.08909">
        <ele>151</ele>
        <time>2022-04-12T14:38:13.000Z</time>
      </trkpt>
      <trkpt lat="43.67303" lon="7.08907">
        <ele>152.19999694824</ele>
        <time>2022-04-12T14:38:16.000Z</time>
      </trkpt>
      <trkpt lat="43.67302" lon="7.08906">
        <ele>152.60000610352</ele>
        <time>2022-04-12T14:38:18.000Z</time>
      </trkpt>
      <trkpt lat="43.67302" lon="7.08906">
        <ele>153.19999694824</ele>
        <time>2022-04-12T14:38:21.000Z</time>
      </trkpt>
      <trkpt lat="43.673" lon="7.08905">
        <ele>153.39999389648</ele>
        <time>2022-04-12T14:38:27.000Z</time>
      </trkpt>
      <trkpt lat="43.67299" lon="7.08904">
        <ele>154.19999694824</ele>
        <time>2022-04-12T14:38:32.000Z</time>
      </trkpt>
      <trkpt lat="43.67299" lon="7.08904">
        <ele>154.19999694824</ele>
        <time>2022-04-12T14:38:34.000Z</time>
      </trkpt>
      <trkpt lat="43.67299" lon="7.08902">
        <ele>154</ele>
        <time>2022-04-12T14:38:47.000Z</time>
      </trkpt>
      <trkpt lat="43.67292" lon="7.08897">
        <ele>154.19999694824</ele>
        <time>2022-04-12T14:38:52.000Z</time>
      </trkpt>
      <trkpt lat="43.67291" lon="7.08898">
        <ele>154.39999389648</ele>
        <time>2022-04-12T14:38:53.000Z</time>
      </trkpt>
      <trkpt lat="43.67289" lon="7.08905">
        <ele>155.60000610352</ele>
        <time>2022-04-12T14:38:56.000Z</time>
      </trkpt>
      <trkpt lat="43.67285" lon="7.08925">
        <ele>156.19999694824</ele>
        <time>2022-04-12T14:39:03.000Z</time>
      </trkpt>
      <trkpt lat="43.67278" lon="7.08939">
        <ele>156</ele>
        <time>2022-04-12T14:39:07.000Z</time>
      </trkpt>
      <trkpt lat="43.67269" lon="7.08949">
        <ele>154.80000305176</ele>
        <time>2022-04-12T14:39:11.000Z</time>
      </trkpt>
      <trkpt lat="43.67266" lon="7.08952">
        <ele>154.39999389648</ele>
        <time>2022-04-12T14:39:12.000Z</time>
      </trkpt>
      <trkpt lat="43.67264" lon="7.08954">
        <ele>154.39999389648</ele>
        <time>2022-04-12T14:39:14.000Z</time>
      </trkpt>
      <trkpt lat="43.67262" lon="7.08957">
        <ele>154.39999389648</ele>
        <time>2022-04-12T14:39:15.000Z</time>
      </trkpt>
      <trkpt lat="43.67252" lon="7.0897">
        <ele>154</ele>
        <time>2022-04-12T14:39:20.000Z</time>
      </trkpt>
      <trkpt lat="43.67245" lon="7.08974">
        <ele>153.39999389648</ele>
        <time>2022-04-12T14:39:23.000Z</time>
      </trkpt>
      <trkpt lat="43.67238" lon="7.08978">
        <ele>153.60000610352</ele>
        <time>2022-04-12T14:39:26.000Z</time>
      </trkpt>
      <trkpt lat="43.67228" lon="7.0898">
        <ele>154.60000610352</ele>
        <time>2022-04-12T14:39:30.000Z</time>
      </trkpt>
      <trkpt lat="43.67226" lon="7.0898">
        <ele>155.60000610352</ele>
        <time>2022-04-12T14:39:33.000Z</time>
      </trkpt>
      <trkpt lat="43.67225" lon="7.0898">
        <ele>156.19999694824</ele>
        <time>2022-04-12T14:39:35.000Z</time>
      </trkpt>
      <trkpt lat="43.67219" lon="7.08976">
        <ele>156.60000610352</ele>
        <time>2022-04-12T14:39:45.000Z</time>
      </trkpt>
      <trkpt lat="43.67219" lon="7.08973">
        <ele>156.60000610352</ele>
        <time>2022-04-12T14:39:46.000Z</time>
      </trkpt>
      <trkpt lat="43.67218" lon="7.08968">
        <ele>157.80000305176</ele>
        <time>2022-04-12T14:39:49.000Z</time>
      </trkpt>
      <trkpt lat="43.67214" lon="7.08965">
        <ele>159.39999389648</ele>
        <time>2022-04-12T14:39:51.000Z</time>
      </trkpt>
      <trkpt lat="43.67211" lon="7.0896">
        <ele>160.39999389648</ele>
        <time>2022-04-12T14:39:53.000Z</time>
      </trkpt>
      <trkpt lat="43.67209" lon="7.08955">
        <ele>161.60000610352</ele>
        <time>2022-04-12T14:39:56.000Z</time>
      </trkpt>
      <trkpt lat="43.67209" lon="7.08957">
        <ele>161.80000305176</ele>
        <time>2022-04-12T14:39:57.000Z</time>
      </trkpt>
      <trkpt lat="43.67208" lon="7.08956">
        <ele>162.60000610352</ele>
        <time>2022-04-12T14:40:01.000Z</time>
      </trkpt>
      <trkpt lat="43.67208" lon="7.08955">
        <ele>162.80000305176</ele>
        <time>2022-04-12T14:40:02.000Z</time>
      </trkpt>
      <trkpt lat="43.67204" lon="7.08953">
        <ele>162.19999694824</ele>
        <time>2022-04-12T14:40:07.000Z</time>
      </trkpt>
      <trkpt lat="43.67204" lon="7.08951">
        <ele>162.39999389648</ele>
        <time>2022-04-12T14:40:08.000Z</time>
      </trkpt>
      <trkpt lat="43.67202" lon="7.08949">
        <ele>162.80000305176</ele>
        <time>2022-04-12T14:40:14.000Z</time>
      </trkpt>
      <trkpt lat="43.672" lon="7.08947">
        <ele>163.19999694824</ele>
        <time>2022-04-12T14:40:27.000Z</time>
      </trkpt>
      <trkpt lat="43.67196" lon="7.08945">
        <ele>163.39999389648</ele>
        <time>2022-04-12T14:40:39.000Z</time>
      </trkpt>
      <trkpt lat="43.67195" lon="7.08946">
        <ele>163.39999389648</ele>
        <time>2022-04-12T14:40:48.000Z</time>
      </trkpt>
      <trkpt lat="43.67195" lon="7.08947">
        <ele>163.60000610352</ele>
        <time>2022-04-12T14:40:54.000Z</time>
      </trkpt>
      <trkpt lat="43.67196" lon="7.08949">
        <ele>163.60000610352</ele>
        <time>2022-04-12T14:40:58.000Z</time>
      </trkpt>
      <trkpt lat="43.67194" lon="7.08949">
        <ele>163.19999694824</ele>
        <time>2022-04-12T14:41:02.000Z</time>
      </trkpt>
      <trkpt lat="43.67191" lon="7.08949">
        <ele>163.19999694824</ele>
        <time>2022-04-12T14:41:06.000Z</time>
      </trkpt>
      <trkpt lat="43.67189" lon="7.08947">
        <ele>163.39999389648</ele>
        <time>2022-04-12T14:41:07.000Z</time>
      </trkpt>
      <trkpt lat="43.67181" lon="7.08935">
        <ele>163.39999389648</ele>
        <time>2022-04-12T14:41:12.000Z</time>
      </trkpt>
      <trkpt lat="43.67177" lon="7.08915">
        <ele>163.39999389648</ele>
        <time>2022-04-12T14:41:18.000Z</time>
      </trkpt>
      <trkpt lat="43.67174" lon="7.08895">
        <ele>163.80000305176</ele>
        <time>2022-04-12T14:41:24.000Z</time>
      </trkpt>
      <trkpt lat="43.67172" lon="7.0889">
        <ele>164.19999694824</ele>
        <time>2022-04-12T14:41:26.000Z</time>
      </trkpt>
      <trkpt lat="43.67168" lon="7.08884">
        <ele>164.60000610352</ele>
        <time>2022-04-12T14:41:28.000Z</time>
      </trkpt>
      <trkpt lat="43.67157" lon="7.08863">
        <ele>163.80000305176</ele>
        <time>2022-04-12T14:41:33.000Z</time>
      </trkpt>
      <trkpt lat="43.67148" lon="7.08846">
        <ele>162.39999389648</ele>
        <time>2022-04-12T14:41:37.000Z</time>
      </trkpt>
      <trkpt lat="43.67146" lon="7.08842">
        <ele>162</ele>
        <time>2022-04-12T14:41:38.000Z</time>
      </trkpt>
      <trkpt lat="43.67142" lon="7.08833">
        <ele>161.19999694824</ele>
        <time>2022-04-12T14:41:40.000Z</time>
      </trkpt>
      <trkpt lat="43.6714" lon="7.08828">
        <ele>161</ele>
        <time>2022-04-12T14:41:41.000Z</time>
      </trkpt>
      <trkpt lat="43.67134" lon="7.0882">
        <ele>160.39999389648</ele>
        <time>2022-04-12T14:41:43.000Z</time>
      </trkpt>
      <trkpt lat="43.67131" lon="7.08816">
        <ele>160</ele>
        <time>2022-04-12T14:41:44.000Z</time>
      </trkpt>
      <trkpt lat="43.67123" lon="7.08807">
        <ele>159.60000610352</ele>
        <time>2022-04-12T14:41:47.000Z</time>
      </trkpt>
      <trkpt lat="43.67113" lon="7.08794">
        <ele>159.19999694824</ele>
        <time>2022-04-12T14:41:51.000Z</time>
      </trkpt>
      <trkpt lat="43.67105" lon="7.08788">
        <ele>159.19999694824</ele>
        <time>2022-04-12T14:41:54.000Z</time>
      </trkpt>
      <trkpt lat="43.67099" lon="7.08782">
        <ele>158.80000305176</ele>
        <time>2022-04-12T14:41:56.000Z</time>
      </trkpt>
      <trkpt lat="43.67082" lon="7.0877">
        <ele>158.39999389648</ele>
        <time>2022-04-12T14:42:01.000Z</time>
      </trkpt>
      <trkpt lat="43.67067" lon="7.08761">
        <ele>158.19999694824</ele>
        <time>2022-04-12T14:42:06.000Z</time>
      </trkpt>
      <trkpt lat="43.67056" lon="7.08753">
        <ele>157.80000305176</ele>
        <time>2022-04-12T14:42:09.000Z</time>
      </trkpt>
      <trkpt lat="43.67051" lon="7.0875">
        <ele>157.19999694824</ele>
        <time>2022-04-12T14:42:10.000Z</time>
      </trkpt>
      <trkpt lat="43.67042" lon="7.08746">
        <ele>156.60000610352</ele>
        <time>2022-04-12T14:42:12.000Z</time>
      </trkpt>
      <trkpt lat="43.6703" lon="7.0874">
        <ele>155.60000610352</ele>
        <time>2022-04-12T14:42:15.000Z</time>
      </trkpt>
      <trkpt lat="43.67023" lon="7.08736">
        <ele>155.19999694824</ele>
        <time>2022-04-12T14:42:17.000Z</time>
      </trkpt>
      <trkpt lat="43.67002" lon="7.08725">
        <ele>155.19999694824</ele>
        <time>2022-04-12T14:42:22.000Z</time>
      </trkpt>
      <trkpt lat="43.66979" lon="7.0871">
        <ele>155.80000305176</ele>
        <time>2022-04-12T14:42:28.000Z</time>
      </trkpt>
      <trkpt lat="43.66964" lon="7.08706">
        <ele>156.80000305176</ele>
        <time>2022-04-12T14:42:32.000Z</time>
      </trkpt>
      <trkpt lat="43.66961" lon="7.08707">
        <ele>157.19999694824</ele>
        <time>2022-04-12T14:42:33.000Z</time>
      </trkpt>
      <trkpt lat="43.66955" lon="7.08714">
        <ele>158.19999694824</ele>
        <time>2022-04-12T14:42:35.000Z</time>
      </trkpt>
      <trkpt lat="43.66949" lon="7.08723">
        <ele>158.80000305176</ele>
        <time>2022-04-12T14:42:37.000Z</time>
      </trkpt>
      <trkpt lat="43.66947" lon="7.08727">
        <ele>159.19999694824</ele>
        <time>2022-04-12T14:42:38.000Z</time>
      </trkpt>
      <trkpt lat="43.66942" lon="7.08739">
        <ele>160.39999389648</ele>
        <time>2022-04-12T14:42:41.000Z</time>
      </trkpt>
      <trkpt lat="43.6694" lon="7.08748">
        <ele>161.39999389648</ele>
        <time>2022-04-12T14:42:43.000Z</time>
      </trkpt>
      <trkpt lat="43.66939" lon="7.08752">
        <ele>161.60000610352</ele>
        <time>2022-04-12T14:42:44.000Z</time>
      </trkpt>
      <trkpt lat="43.66931" lon="7.08775">
        <ele>161.80000305176</ele>
        <time>2022-04-12T14:42:49.000Z</time>
      </trkpt>
      <trkpt lat="43.66925" lon="7.08801">
        <ele>161.60000610352</ele>
        <time>2022-04-12T14:42:54.000Z</time>
      </trkpt>
      <trkpt lat="43.66923" lon="7.08815">
        <ele>161.19999694824</ele>
        <time>2022-04-12T14:42:56.000Z</time>
      </trkpt>
      <trkpt lat="43.66922" lon="7.08829">
        <ele>160.60000610352</ele>
        <time>2022-04-12T14:42:58.000Z</time>
      </trkpt>
      <trkpt lat="43.6692" lon="7.08835">
        <ele>160.60000610352</ele>
        <time>2022-04-12T14:42:59.000Z</time>
      </trkpt>
      <trkpt lat="43.66916" lon="7.08854">
        <ele>159.60000610352</ele>
        <time>2022-04-12T14:43:02.000Z</time>
      </trkpt>
      <trkpt lat="43.66912" lon="7.08861">
        <ele>159.19999694824</ele>
        <time>2022-04-12T14:43:03.000Z</time>
      </trkpt>
      <trkpt lat="43.66909" lon="7.08866">
        <ele>158.60000610352</ele>
        <time>2022-04-12T14:43:04.000Z</time>
      </trkpt>
      <trkpt lat="43.66903" lon="7.08877">
        <ele>158.19999694824</ele>
        <time>2022-04-12T14:43:06.000Z</time>
      </trkpt>
      <trkpt lat="43.66891" lon="7.08904">
        <ele>157</ele>
        <time>2022-04-12T14:43:11.000Z</time>
      </trkpt>
      <trkpt lat="43.66879" lon="7.08936">
        <ele>156.60000610352</ele>
        <time>2022-04-12T14:43:17.000Z</time>
      </trkpt>
      <trkpt lat="43.66876" lon="7.08942">
        <ele>156.60000610352</ele>
        <time>2022-04-12T14:43:18.000Z</time>
      </trkpt>
      <trkpt lat="43.66867" lon="7.0895">
        <ele>156.60000610352</ele>
        <time>2022-04-12T14:43:21.000Z</time>
      </trkpt>
      <trkpt lat="43.66861" lon="7.08954">
        <ele>156.19999694824</ele>
        <time>2022-04-12T14:43:23.000Z</time>
      </trkpt>
      <trkpt lat="43.66851" lon="7.08969">
        <ele>155.19999694824</ele>
        <time>2022-04-12T14:43:28.000Z</time>
      </trkpt>
      <trkpt lat="43.66849" lon="7.08973">
        <ele>155</ele>
        <time>2022-04-12T14:43:29.000Z</time>
      </trkpt>
      <trkpt lat="43.6685" lon="7.08989">
        <ele>153.80000305176</ele>
        <time>2022-04-12T14:43:33.000Z</time>
      </trkpt>
      <trkpt lat="43.66858" lon="7.08994">
        <ele>153.19999694824</ele>
        <time>2022-04-12T14:43:36.000Z</time>
      </trkpt>
      <trkpt lat="43.66859" lon="7.09001">
        <ele>152.80000305176</ele>
        <time>2022-04-12T14:43:38.000Z</time>
      </trkpt>
      <trkpt lat="43.66859" lon="7.09007">
        <ele>152.80000305176</ele>
        <time>2022-04-12T14:43:39.000Z</time>
      </trkpt>
      <trkpt lat="43.66854" lon="7.09015">
        <ele>151.60000610352</ele>
        <time>2022-04-12T14:43:42.000Z</time>
      </trkpt>
      <trkpt lat="43.66852" lon="7.09015">
        <ele>151.19999694824</ele>
        <time>2022-04-12T14:43:43.000Z</time>
      </trkpt>
      <trkpt lat="43.66849" lon="7.09015">
        <ele>151</ele>
        <time>2022-04-12T14:43:44.000Z</time>
      </trkpt>
      <trkpt lat="43.66841" lon="7.09025">
        <ele>152.60000610352</ele>
        <time>2022-04-12T14:43:49.000Z</time>
      </trkpt>
      <trkpt lat="43.66837" lon="7.0903">
        <ele>152.80000305176</ele>
        <time>2022-04-12T14:43:50.000Z</time>
      </trkpt>
      <trkpt lat="43.66832" lon="7.09037">
        <ele>152.80000305176</ele>
        <time>2022-04-12T14:43:52.000Z</time>
      </trkpt>
      <trkpt lat="43.66821" lon="7.0905">
        <ele>153.19999694824</ele>
        <time>2022-04-12T14:43:57.000Z</time>
      </trkpt>
      <trkpt lat="43.66821" lon="7.0905">
        <ele>153.80000305176</ele>
        <time>2022-04-12T14:43:59.000Z</time>
      </trkpt>
      <trkpt lat="43.6682" lon="7.09051">
        <ele>154.60000610352</ele>
        <time>2022-04-12T14:44:01.000Z</time>
      </trkpt>
      <trkpt lat="43.66819" lon="7.09052">
        <ele>154.80000305176</ele>
        <time>2022-04-12T14:44:06.000Z</time>
      </trkpt>
      <trkpt lat="43.66818" lon="7.09053">
        <ele>154.60000610352</ele>
        <time>2022-04-12T14:44:13.000Z</time>
      </trkpt>
      <trkpt lat="43.66817" lon="7.09054">
        <ele>154.80000305176</ele>
        <time>2022-04-12T14:44:17.000Z</time>
      </trkpt>
      <trkpt lat="43.66817" lon="7.09054">
        <ele>155</ele>
        <time>2022-04-12T14:44:19.000Z</time>
      </trkpt>
      <trkpt lat="43.66817" lon="7.09055">
        <ele>155.39999389648</ele>
        <time>2022-04-12T14:44:26.000Z</time>
      </trkpt>
      <trkpt lat="43.66817" lon="7.09055">
        <ele>155</ele>
        <time>2022-04-12T14:44:33.000Z</time>
      </trkpt>
      <trkpt lat="43.66818" lon="7.09054">
        <ele>155</ele>
        <time>2022-04-12T14:44:39.000Z</time>
      </trkpt>
      <trkpt lat="43.66821" lon="7.09051">
        <ele>154.39999389648</ele>
        <time>2022-04-12T14:44:44.000Z</time>
      </trkpt>
      <trkpt lat="43.66823" lon="7.09053">
        <ele>154.39999389648</ele>
        <time>2022-04-12T14:44:46.000Z</time>
      </trkpt>
      <trkpt lat="43.66826" lon="7.09055">
        <ele>154.19999694824</ele>
        <time>2022-04-12T14:44:48.000Z</time>
      </trkpt>
      <trkpt lat="43.66825" lon="7.0906">
        <ele>153.60000610352</ele>
        <time>2022-04-12T14:44:50.000Z</time>
      </trkpt>
      <trkpt lat="43.66824" lon="7.09063">
        <ele>153.60000610352</ele>
        <time>2022-04-12T14:44:51.000Z</time>
      </trkpt>
      <trkpt lat="43.66825" lon="7.0907">
        <ele>153</ele>
        <time>2022-04-12T14:44:54.000Z</time>
      </trkpt>
      <trkpt lat="43.66823" lon="7.09083">
        <ele>152.80000305176</ele>
        <time>2022-04-12T14:44:57.000Z</time>
      </trkpt>
      <trkpt lat="43.6682" lon="7.09086">
        <ele>152.60000610352</ele>
        <time>2022-04-12T14:44:59.000Z</time>
      </trkpt>
      <trkpt lat="43.66819" lon="7.09089">
        <ele>152.60000610352</ele>
        <time>2022-04-12T14:45:00.000Z</time>
      </trkpt>
      <trkpt lat="43.66818" lon="7.09091">
        <ele>152.39999389648</ele>
        <time>2022-04-12T14:45:01.000Z</time>
      </trkpt>
      <trkpt lat="43.66814" lon="7.09113">
        <ele>152.60000610352</ele>
        <time>2022-04-12T14:45:06.000Z</time>
      </trkpt>
      <trkpt lat="43.66811" lon="7.09128">
        <ele>152.80000305176</ele>
        <time>2022-04-12T14:45:10.000Z</time>
      </trkpt>
      <trkpt lat="43.66809" lon="7.09137">
        <ele>152.80000305176</ele>
        <time>2022-04-12T14:45:13.000Z</time>
      </trkpt>
      <trkpt lat="43.66811" lon="7.09148">
        <ele>153.19999694824</ele>
        <time>2022-04-12T14:45:17.000Z</time>
      </trkpt>
      <trkpt lat="43.6681" lon="7.09154">
        <ele>153.19999694824</ele>
        <time>2022-04-12T14:45:19.000Z</time>
      </trkpt>
      <trkpt lat="43.66805" lon="7.09161">
        <ele>153</ele>
        <time>2022-04-12T14:45:22.000Z</time>
      </trkpt>
      <trkpt lat="43.66799" lon="7.09165">
        <ele>153.19999694824</ele>
        <time>2022-04-12T14:45:26.000Z</time>
      </trkpt>
      <trkpt lat="43.66787" lon="7.09169">
        <ele>153.39999389648</ele>
        <time>2022-04-12T14:45:31.000Z</time>
      </trkpt>
      <trkpt lat="43.66781" lon="7.09173">
        <ele>153.39999389648</ele>
        <time>2022-04-12T14:45:33.000Z</time>
      </trkpt>
      <trkpt lat="43.66775" lon="7.09177">
        <ele>152.80000305176</ele>
        <time>2022-04-12T14:45:35.000Z</time>
      </trkpt>
      <trkpt lat="43.6677" lon="7.09172">
        <ele>151.60000610352</ele>
        <time>2022-04-12T14:45:38.000Z</time>
      </trkpt>
      <trkpt lat="43.66767" lon="7.0917">
        <ele>151.39999389648</ele>
        <time>2022-04-12T14:45:39.000Z</time>
      </trkpt>
      <trkpt lat="43.66761" lon="7.09169">
        <ele>150.39999389648</ele>
        <time>2022-04-12T14:45:42.000Z</time>
      </trkpt>
      <trkpt lat="43.66756" lon="7.09167">
        <ele>149.19999694824</ele>
        <time>2022-04-12T14:45:44.000Z</time>
      </trkpt>
      <trkpt lat="43.66751" lon="7.09174">
        <ele>147.60000610352</ele>
        <time>2022-04-12T14:45:46.000Z</time>
      </trkpt>
      <trkpt lat="43.66748" lon="7.09178">
        <ele>147</ele>
        <time>2022-04-12T14:45:47.000Z</time>
      </trkpt>
      <trkpt lat="43.66743" lon="7.0918">
        <ele>146.60000610352</ele>
        <time>2022-04-12T14:45:48.000Z</time>
      </trkpt>
      <trkpt lat="43.66738" lon="7.09183">
        <ele>145.60000610352</ele>
        <time>2022-04-12T14:45:50.000Z</time>
      </trkpt>
      <trkpt lat="43.66736" lon="7.09187">
        <ele>145.60000610352</ele>
        <time>2022-04-12T14:45:51.000Z</time>
      </trkpt>
      <trkpt lat="43.66734" lon="7.09193">
        <ele>144.80000305176</ele>
        <time>2022-04-12T14:45:52.000Z</time>
      </trkpt>
      <trkpt lat="43.66731" lon="7.09198">
        <ele>144</ele>
        <time>2022-04-12T14:45:53.000Z</time>
      </trkpt>
      <trkpt lat="43.66727" lon="7.09199">
        <ele>142.80000305176</ele>
        <time>2022-04-12T14:45:54.000Z</time>
      </trkpt>
      <trkpt lat="43.6672" lon="7.09196">
        <ele>141</ele>
        <time>2022-04-12T14:45:56.000Z</time>
      </trkpt>
      <trkpt lat="43.66713" lon="7.09199">
        <ele>140</ele>
        <time>2022-04-12T14:45:58.000Z</time>
      </trkpt>
      <trkpt lat="43.6671" lon="7.09203">
        <ele>139.60000610352</ele>
        <time>2022-04-12T14:45:59.000Z</time>
      </trkpt>
      <trkpt lat="43.66704" lon="7.09213">
        <ele>138.60000610352</ele>
        <time>2022-04-12T14:46:01.000Z</time>
      </trkpt>
      <trkpt lat="43.667" lon="7.09219">
        <ele>137.80000305176</ele>
        <time>2022-04-12T14:46:02.000Z</time>
      </trkpt>
      <trkpt lat="43.66696" lon="7.09224">
        <ele>136.80000305176</ele>
        <time>2022-04-12T14:46:03.000Z</time>
      </trkpt>
      <trkpt lat="43.66692" lon="7.09236">
        <ele>135.19999694824</ele>
        <time>2022-04-12T14:46:05.000Z</time>
      </trkpt>
      <trkpt lat="43.66689" lon="7.09248">
        <ele>133.80000305176</ele>
        <time>2022-04-12T14:46:07.000Z</time>
      </trkpt>
      <trkpt lat="43.66689" lon="7.09254">
        <ele>132.80000305176</ele>
        <time>2022-04-12T14:46:08.000Z</time>
      </trkpt>
      <trkpt lat="43.66689" lon="7.09259">
        <ele>131.39999389648</ele>
        <time>2022-04-12T14:46:10.000Z</time>
      </trkpt>
      <trkpt lat="43.66689" lon="7.09262">
        <ele>131</ele>
        <time>2022-04-12T14:46:11.000Z</time>
      </trkpt>
      <trkpt lat="43.66689" lon="7.09266">
        <ele>130.19999694824</ele>
        <time>2022-04-12T14:46:12.000Z</time>
      </trkpt>
      <trkpt lat="43.66689" lon="7.09279">
        <ele>129.19999694824</ele>
        <time>2022-04-12T14:46:14.000Z</time>
      </trkpt>
      <trkpt lat="43.6669" lon="7.09286">
        <ele>128.19999694824</ele>
        <time>2022-04-12T14:46:15.000Z</time>
      </trkpt>
      <trkpt lat="43.66693" lon="7.09289">
        <ele>126.80000305176</ele>
        <time>2022-04-12T14:46:16.000Z</time>
      </trkpt>
      <trkpt lat="43.66696" lon="7.09289">
        <ele>125.59999847412</ele>
        <time>2022-04-12T14:46:17.000Z</time>
      </trkpt>
      <trkpt lat="43.66698" lon="7.09288">
        <ele>124.59999847412</ele>
        <time>2022-04-12T14:46:18.000Z</time>
      </trkpt>
      <trkpt lat="43.667" lon="7.09288">
        <ele>123.80000305176</ele>
        <time>2022-04-12T14:46:19.000Z</time>
      </trkpt>
      <trkpt lat="43.66706" lon="7.09289">
        <ele>123.59999847412</ele>
        <time>2022-04-12T14:46:21.000Z</time>
      </trkpt>
      <trkpt lat="43.66713" lon="7.0929">
        <ele>123.80000305176</ele>
        <time>2022-04-12T14:46:23.000Z</time>
      </trkpt>
      <trkpt lat="43.6674" lon="7.093">
        <ele>124.59999847412</ele>
        <time>2022-04-12T14:46:31.000Z</time>
      </trkpt>
      <trkpt lat="43.66772" lon="7.09313">
        <ele>124.59999847412</ele>
        <time>2022-04-12T14:46:39.000Z</time>
      </trkpt>
      <trkpt lat="43.66797" lon="7.09325">
        <ele>124.59999847412</ele>
        <time>2022-04-12T14:46:46.000Z</time>
      </trkpt>
      <trkpt lat="43.66824" lon="7.09341">
        <ele>123.80000305176</ele>
        <time>2022-04-12T14:46:53.000Z</time>
      </trkpt>
      <trkpt lat="43.66828" lon="7.09344">
        <ele>123.80000305176</ele>
        <time>2022-04-12T14:46:54.000Z</time>
      </trkpt>
      <trkpt lat="43.66836" lon="7.09348">
        <ele>124</ele>
        <time>2022-04-12T14:46:58.000Z</time>
      </trkpt>
      <trkpt lat="43.66834" lon="7.09349">
        <ele>124.19999694824</ele>
        <time>2022-04-12T14:47:00.000Z</time>
      </trkpt>
      <trkpt lat="43.66834" lon="7.09348">
        <ele>124.59999847412</ele>
        <time>2022-04-12T14:47:02.000Z</time>
      </trkpt>
      <trkpt lat="43.66834" lon="7.09348">
        <ele>124.80000305176</ele>
        <time>2022-04-12T14:47:03.000Z</time>
      </trkpt>
      <trkpt lat="43.66834" lon="7.0935">
        <ele>125.19999694824</ele>
        <time>2022-04-12T14:47:05.000Z</time>
      </trkpt>
      <trkpt lat="43.66832" lon="7.09358">
        <ele>125</ele>
        <time>2022-04-12T14:47:08.000Z</time>
      </trkpt>
      <trkpt lat="43.66825" lon="7.09375">
        <ele>124</ele>
        <time>2022-04-12T14:47:12.000Z</time>
      </trkpt>
      <trkpt lat="43.66823" lon="7.09382">
        <ele>123.40000152588</ele>
        <time>2022-04-12T14:47:13.000Z</time>
      </trkpt>
      <trkpt lat="43.6682" lon="7.09396">
        <ele>122.19999694824</ele>
        <time>2022-04-12T14:47:15.000Z</time>
      </trkpt>
      <trkpt lat="43.66817" lon="7.09411">
        <ele>120.80000305176</ele>
        <time>2022-04-12T14:47:17.000Z</time>
      </trkpt>
      <trkpt lat="43.66812" lon="7.09427">
        <ele>119.59999847412</ele>
        <time>2022-04-12T14:47:19.000Z</time>
      </trkpt>
      <trkpt lat="43.66808" lon="7.09442">
        <ele>118.19999694824</ele>
        <time>2022-04-12T14:47:21.000Z</time>
      </trkpt>
      <trkpt lat="43.66804" lon="7.09455">
        <ele>116.59999847412</ele>
        <time>2022-04-12T14:47:23.000Z</time>
      </trkpt>
      <trkpt lat="43.66801" lon="7.09461">
        <ele>115.59999847412</ele>
        <time>2022-04-12T14:47:24.000Z</time>
      </trkpt>
      <trkpt lat="43.66797" lon="7.09465">
        <ele>115</ele>
        <time>2022-04-12T14:47:25.000Z</time>
      </trkpt>
      <trkpt lat="43.66789" lon="7.09472">
        <ele>114.40000152588</ele>
        <time>2022-04-12T14:47:27.000Z</time>
      </trkpt>
      <trkpt lat="43.66778" lon="7.09471">
        <ele>115.19999694824</ele>
        <time>2022-04-12T14:47:31.000Z</time>
      </trkpt>
      <trkpt lat="43.66782" lon="7.09468">
        <ele>115.59999847412</ele>
        <time>2022-04-12T14:47:33.000Z</time>
      </trkpt>
      <trkpt lat="43.66788" lon="7.09469">
        <ele>115.59999847412</ele>
        <time>2022-04-12T14:47:36.000Z</time>
      </trkpt>
      <trkpt lat="43.66791" lon="7.09472">
        <ele>115.80000305176</ele>
        <time>2022-04-12T14:47:38.000Z</time>
      </trkpt>
      <trkpt lat="43.66796" lon="7.09479">
        <ele>116</ele>
        <time>2022-04-12T14:47:41.000Z</time>
      </trkpt>
      <trkpt lat="43.66799" lon="7.09485">
        <ele>116.19999694824</ele>
        <time>2022-04-12T14:47:43.000Z</time>
      </trkpt>
      <trkpt lat="43.66803" lon="7.09489">
        <ele>117.19999694824</ele>
        <time>2022-04-12T14:47:46.000Z</time>
      </trkpt>
      <trkpt lat="43.66806" lon="7.09491">
        <ele>118</ele>
        <time>2022-04-12T14:47:48.000Z</time>
      </trkpt>
      <trkpt lat="43.66808" lon="7.0949">
        <ele>118.40000152588</ele>
        <time>2022-04-12T14:47:49.000Z</time>
      </trkpt>
      <trkpt lat="43.66814" lon="7.09486">
        <ele>118</ele>
        <time>2022-04-12T14:47:53.000Z</time>
      </trkpt>
      <trkpt lat="43.66825" lon="7.09473">
        <ele>118</ele>
        <time>2022-04-12T14:47:59.000Z</time>
      </trkpt>
      <trkpt lat="43.6683" lon="7.09452">
        <ele>118.19999694824</ele>
        <time>2022-04-12T14:48:04.000Z</time>
      </trkpt>
      <trkpt lat="43.66836" lon="7.0943">
        <ele>119.19999694824</ele>
        <time>2022-04-12T14:48:10.000Z</time>
      </trkpt>
      <trkpt lat="43.66837" lon="7.09426">
        <ele>119.59999847412</ele>
        <time>2022-04-12T14:48:11.000Z</time>
      </trkpt>
      <trkpt lat="43.66837" lon="7.09416">
        <ele>120.59999847412</ele>
        <time>2022-04-12T14:48:14.000Z</time>
      </trkpt>
      <trkpt lat="43.66835" lon="7.09413">
        <ele>121</ele>
        <time>2022-04-12T14:48:15.000Z</time>
      </trkpt>
      <trkpt lat="43.66834" lon="7.0941">
        <ele>121.19999694824</ele>
        <time>2022-04-12T14:48:16.000Z</time>
      </trkpt>
      <trkpt lat="43.66833" lon="7.09402">
        <ele>121.80000305176</ele>
        <time>2022-04-12T14:48:18.000Z</time>
      </trkpt>
      <trkpt lat="43.66834" lon="7.09394">
        <ele>122.19999694824</ele>
        <time>2022-04-12T14:48:20.000Z</time>
      </trkpt>
      <trkpt lat="43.66837" lon="7.09385">
        <ele>122.80000305176</ele>
        <time>2022-04-12T14:48:23.000Z</time>
      </trkpt>
      <trkpt lat="43.66838" lon="7.09379">
        <ele>123.19999694824</ele>
        <time>2022-04-12T14:48:25.000Z</time>
      </trkpt>
      <trkpt lat="43.66842" lon="7.09362">
        <ele>124</ele>
        <time>2022-04-12T14:48:30.000Z</time>
      </trkpt>
      <trkpt lat="43.66843" lon="7.09359">
        <ele>124</ele>
        <time>2022-04-12T14:48:31.000Z</time>
      </trkpt>
      <trkpt lat="43.66848" lon="7.09345">
        <ele>124.80000305176</ele>
        <time>2022-04-12T14:48:37.000Z</time>
      </trkpt>
      <trkpt lat="43.66849" lon="7.09344">
        <ele>125</ele>
        <time>2022-04-12T14:48:38.000Z</time>
      </trkpt>
      <trkpt lat="43.66849" lon="7.09344">
        <ele>125</ele>
        <time>2022-04-12T14:48:41.000Z</time>
      </trkpt>
      <trkpt lat="43.66848" lon="7.09345">
        <ele>125.59999847412</ele>
        <time>2022-04-12T14:48:48.000Z</time>
      </trkpt>
      <trkpt lat="43.66845" lon="7.09351">
        <ele>124.80000305176</ele>
        <time>2022-04-12T14:48:54.000Z</time>
      </trkpt>
      <trkpt lat="43.66841" lon="7.0937">
        <ele>124</ele>
        <time>2022-04-12T14:48:59.000Z</time>
      </trkpt>
      <trkpt lat="43.66837" lon="7.09387">
        <ele>123.80000305176</ele>
        <time>2022-04-12T14:49:03.000Z</time>
      </trkpt>
      <trkpt lat="43.66834" lon="7.09401">
        <ele>123.80000305176</ele>
        <time>2022-04-12T14:49:06.000Z</time>
      </trkpt>
      <trkpt lat="43.66838" lon="7.09421">
        <ele>122.80000305176</ele>
        <time>2022-04-12T14:49:10.000Z</time>
      </trkpt>
      <trkpt lat="43.66837" lon="7.09432">
        <ele>122.19999694824</ele>
        <time>2022-04-12T14:49:12.000Z</time>
      </trkpt>
      <trkpt lat="43.66836" lon="7.09439">
        <ele>121.80000305176</ele>
        <time>2022-04-12T14:49:13.000Z</time>
      </trkpt>
      <trkpt lat="43.66834" lon="7.09445">
        <ele>121.40000152588</ele>
        <time>2022-04-12T14:49:14.000Z</time>
      </trkpt>
      <trkpt lat="43.66828" lon="7.09465">
        <ele>120.40000152588</ele>
        <time>2022-04-12T14:49:17.000Z</time>
      </trkpt>
      <trkpt lat="43.66823" lon="7.09478">
        <ele>119.19999694824</ele>
        <time>2022-04-12T14:49:19.000Z</time>
      </trkpt>
      <trkpt lat="43.66816" lon="7.09486">
        <ele>117.59999847412</ele>
        <time>2022-04-12T14:49:21.000Z</time>
      </trkpt>
      <trkpt lat="43.66809" lon="7.09491">
        <ele>117</ele>
        <time>2022-04-12T14:49:23.000Z</time>
      </trkpt>
      <trkpt lat="43.66795" lon="7.09505">
        <ele>118.40000152588</ele>
        <time>2022-04-12T14:49:28.000Z</time>
      </trkpt>
      <trkpt lat="43.66779" lon="7.09509">
        <ele>118.19999694824</ele>
        <time>2022-04-12T14:49:33.000Z</time>
      </trkpt>
      <trkpt lat="43.66776" lon="7.09515">
        <ele>118.40000152588</ele>
        <time>2022-04-12T14:49:35.000Z</time>
      </trkpt>
      <trkpt lat="43.66775" lon="7.09526">
        <ele>118</ele>
        <time>2022-04-12T14:49:37.000Z</time>
      </trkpt>
      <trkpt lat="43.66774" lon="7.09537">
        <ele>117.19999694824</ele>
        <time>2022-04-12T14:49:39.000Z</time>
      </trkpt>
      <trkpt lat="43.66773" lon="7.09544">
        <ele>116.59999847412</ele>
        <time>2022-04-12T14:49:40.000Z</time>
      </trkpt>
      <trkpt lat="43.6677" lon="7.09551">
        <ele>116.19999694824</ele>
        <time>2022-04-12T14:49:41.000Z</time>
      </trkpt>
      <trkpt lat="43.66768" lon="7.09559">
        <ele>115.80000305176</ele>
        <time>2022-04-12T14:49:42.000Z</time>
      </trkpt>
      <trkpt lat="43.66766" lon="7.09566">
        <ele>114.80000305176</ele>
        <time>2022-04-12T14:49:43.000Z</time>
      </trkpt>
      <trkpt lat="43.66759" lon="7.09588">
        <ele>112.80000305176</ele>
        <time>2022-04-12T14:49:46.000Z</time>
      </trkpt>
      <trkpt lat="43.66756" lon="7.09599">
        <ele>111.80000305176</ele>
        <time>2022-04-12T14:49:48.000Z</time>
      </trkpt>
      <trkpt lat="43.66753" lon="7.09609">
        <ele>110.19999694824</ele>
        <time>2022-04-12T14:49:50.000Z</time>
      </trkpt>
      <trkpt lat="43.66751" lon="7.09614">
        <ele>109.80000305176</ele>
        <time>2022-04-12T14:49:51.000Z</time>
      </trkpt>
      <trkpt lat="43.6675" lon="7.09621">
        <ele>109</ele>
        <time>2022-04-12T14:49:52.000Z</time>
      </trkpt>
      <trkpt lat="43.66746" lon="7.09635">
        <ele>108.19999694824</ele>
        <time>2022-04-12T14:49:54.000Z</time>
      </trkpt>
      <trkpt lat="43.66744" lon="7.09643">
        <ele>107.80000305176</ele>
        <time>2022-04-12T14:49:55.000Z</time>
      </trkpt>
      <trkpt lat="43.66737" lon="7.09667">
        <ele>106.59999847412</ele>
        <time>2022-04-12T14:49:58.000Z</time>
      </trkpt>
      <trkpt lat="43.66731" lon="7.0969">
        <ele>105.19999694824</ele>
        <time>2022-04-12T14:50:01.000Z</time>
      </trkpt>
      <trkpt lat="43.66727" lon="7.09695">
        <ele>104.59999847412</ele>
        <time>2022-04-12T14:50:02.000Z</time>
      </trkpt>
      <trkpt lat="43.66718" lon="7.09704">
        <ele>104.19999694824</ele>
        <time>2022-04-12T14:50:04.000Z</time>
      </trkpt>
      <trkpt lat="43.66716" lon="7.0971">
        <ele>103.80000305176</ele>
        <time>2022-04-12T14:50:05.000Z</time>
      </trkpt>
      <trkpt lat="43.66712" lon="7.09723">
        <ele>103</ele>
        <time>2022-04-12T14:50:07.000Z</time>
      </trkpt>
      <trkpt lat="43.6671" lon="7.09728">
        <ele>102.59999847412</ele>
        <time>2022-04-12T14:50:08.000Z</time>
      </trkpt>
      <trkpt lat="43.66699" lon="7.09751">
        <ele>101.59999847412</ele>
        <time>2022-04-12T14:50:12.000Z</time>
      </trkpt>
      <trkpt lat="43.66696" lon="7.09763">
        <ele>101.40000152588</ele>
        <time>2022-04-12T14:50:14.000Z</time>
      </trkpt>
      <trkpt lat="43.66693" lon="7.09783">
        <ele>100.80000305176</ele>
        <time>2022-04-12T14:50:17.000Z</time>
      </trkpt>
      <trkpt lat="43.66693" lon="7.09797">
        <ele>100.59999847412</ele>
        <time>2022-04-12T14:50:19.000Z</time>
      </trkpt>
      <trkpt lat="43.66693" lon="7.0981">
        <ele>100.59999847412</ele>
        <time>2022-04-12T14:50:21.000Z</time>
      </trkpt>
      <trkpt lat="43.66684" lon="7.0983">
        <ele>100.19999694824</ele>
        <time>2022-04-12T14:50:24.000Z</time>
      </trkpt>
      <trkpt lat="43.6668" lon="7.09842">
        <ele>99.199996948242</ele>
        <time>2022-04-12T14:50:26.000Z</time>
      </trkpt>
      <trkpt lat="43.66673" lon="7.09852">
        <ele>98</ele>
        <time>2022-04-12T14:50:28.000Z</time>
      </trkpt>
      <trkpt lat="43.66672" lon="7.09855">
        <ele>98</ele>
        <time>2022-04-12T14:50:29.000Z</time>
      </trkpt>
      <trkpt lat="43.66671" lon="7.09857">
        <ele>98</ele>
        <time>2022-04-12T14:50:30.000Z</time>
      </trkpt>
      <trkpt lat="43.66666" lon="7.09866">
        <ele>98.199996948242</ele>
        <time>2022-04-12T14:50:33.000Z</time>
      </trkpt>
      <trkpt lat="43.66666" lon="7.09886">
        <ele>98</ele>
        <time>2022-04-12T14:50:38.000Z</time>
      </trkpt>
      <trkpt lat="43.66662" lon="7.09905">
        <ele>97</ele>
        <time>2022-04-12T14:50:42.000Z</time>
      </trkpt>
      <trkpt lat="43.66661" lon="7.09908">
        <ele>96.800003051758</ele>
        <time>2022-04-12T14:50:43.000Z</time>
      </trkpt>
      <trkpt lat="43.6666" lon="7.0991">
        <ele>96.400001525879</ele>
        <time>2022-04-12T14:50:46.000Z</time>
      </trkpt>
      <trkpt lat="43.6666" lon="7.09911">
        <ele>95.800003051758</ele>
        <time>2022-04-12T14:50:49.000Z</time>
      </trkpt>
      <trkpt lat="43.66661" lon="7.09911">
        <ele>95.800003051758</ele>
        <time>2022-04-12T14:50:58.000Z</time>
      </trkpt>
      <trkpt lat="43.66659" lon="7.09914">
        <ele>96.199996948242</ele>
        <time>2022-04-12T14:51:12.000Z</time>
      </trkpt>
      <trkpt lat="43.66658" lon="7.09916">
        <ele>96</ele>
        <time>2022-04-12T14:51:13.000Z</time>
      </trkpt>
      <trkpt lat="43.6665" lon="7.0992">
        <ele>95.599998474121</ele>
        <time>2022-04-12T14:51:17.000Z</time>
      </trkpt>
      <trkpt lat="43.66649" lon="7.09922">
        <ele>95.599998474121</ele>
        <time>2022-04-12T14:51:18.000Z</time>
      </trkpt>
      <trkpt lat="43.66647" lon="7.09931">
        <ele>95.800003051758</ele>
        <time>2022-04-12T14:51:21.000Z</time>
      </trkpt>
      <trkpt lat="43.66646" lon="7.09935">
        <ele>95.800003051758</ele>
        <time>2022-04-12T14:51:22.000Z</time>
      </trkpt>
      <trkpt lat="43.66644" lon="7.09939">
        <ele>95.199996948242</ele>
        <time>2022-04-12T14:51:25.000Z</time>
      </trkpt>
      <trkpt lat="43.66643" lon="7.09939">
        <ele>95</ele>
        <time>2022-04-12T14:51:26.000Z</time>
      </trkpt>
      <trkpt lat="43.66644" lon="7.09939">
        <ele>94.800003051758</ele>
        <time>2022-04-12T14:51:32.000Z</time>
      </trkpt>
      <trkpt lat="43.66641" lon="7.09941">
        <ele>94.599998474121</ele>
        <time>2022-04-12T14:51:34.000Z</time>
      </trkpt>
      <trkpt lat="43.66637" lon="7.09943">
        <ele>94.599998474121</ele>
        <time>2022-04-12T14:51:36.000Z</time>
      </trkpt>
      <trkpt lat="43.66627" lon="7.09935">
        <ele>95</ele>
        <time>2022-04-12T14:51:40.000Z</time>
      </trkpt>
      <trkpt lat="43.66612" lon="7.09931">
        <ele>95</ele>
        <time>2022-04-12T14:51:45.000Z</time>
      </trkpt>
      <trkpt lat="43.66599" lon="7.09926">
        <ele>94.400001525879</ele>
        <time>2022-04-12T14:51:49.000Z</time>
      </trkpt>
      <trkpt lat="43.66591" lon="7.09929">
        <ele>94</ele>
        <time>2022-04-12T14:51:51.000Z</time>
      </trkpt>
      <trkpt lat="43.66585" lon="7.09935">
        <ele>93.400001525879</ele>
        <time>2022-04-12T14:51:53.000Z</time>
      </trkpt>
      <trkpt lat="43.66576" lon="7.09947">
        <ele>92.199996948242</ele>
        <time>2022-04-12T14:51:57.000Z</time>
      </trkpt>
      <trkpt lat="43.66574" lon="7.0996">
        <ele>91</ele>
        <time>2022-04-12T14:52:00.000Z</time>
      </trkpt>
      <trkpt lat="43.66571" lon="7.09962">
        <ele>90.800003051758</ele>
        <time>2022-04-12T14:52:01.000Z</time>
      </trkpt>
      <trkpt lat="43.66563" lon="7.09966">
        <ele>90.199996948242</ele>
        <time>2022-04-12T14:52:03.000Z</time>
      </trkpt>
      <trkpt lat="43.66559" lon="7.09968">
        <ele>89.800003051758</ele>
        <time>2022-04-12T14:52:04.000Z</time>
      </trkpt>
      <trkpt lat="43.66556" lon="7.09973">
        <ele>89.400001525879</ele>
        <time>2022-04-12T14:52:05.000Z</time>
      </trkpt>
      <trkpt lat="43.66554" lon="7.09977">
        <ele>88.800003051758</ele>
        <time>2022-04-12T14:52:06.000Z</time>
      </trkpt>
      <trkpt lat="43.66551" lon="7.0999">
        <ele>87.199996948242</ele>
        <time>2022-04-12T14:52:08.000Z</time>
      </trkpt>
      <trkpt lat="43.66548" lon="7.09997">
        <ele>86.800003051758</ele>
        <time>2022-04-12T14:52:09.000Z</time>
      </trkpt>
      <trkpt lat="43.66545" lon="7.10002">
        <ele>86.199996948242</ele>
        <time>2022-04-12T14:52:10.000Z</time>
      </trkpt>
      <trkpt lat="43.66542" lon="7.10006">
        <ele>85.400001525879</ele>
        <time>2022-04-12T14:52:11.000Z</time>
      </trkpt>
      <trkpt lat="43.6654" lon="7.10012">
        <ele>84.800003051758</ele>
        <time>2022-04-12T14:52:12.000Z</time>
      </trkpt>
      <trkpt lat="43.66537" lon="7.10016">
        <ele>84.400001525879</ele>
        <time>2022-04-12T14:52:13.000Z</time>
      </trkpt>
      <trkpt lat="43.66536" lon="7.10021">
        <ele>83.599998474121</ele>
        <time>2022-04-12T14:52:14.000Z</time>
      </trkpt>
      <trkpt lat="43.66536" lon="7.10027">
        <ele>83</ele>
        <time>2022-04-12T14:52:15.000Z</time>
      </trkpt>
      <trkpt lat="43.66537" lon="7.10032">
        <ele>82.800003051758</ele>
        <time>2022-04-12T14:52:16.000Z</time>
      </trkpt>
      <trkpt lat="43.66538" lon="7.10037">
        <ele>82.599998474121</ele>
        <time>2022-04-12T14:52:17.000Z</time>
      </trkpt>
      <trkpt lat="43.66545" lon="7.10054">
        <ele>81.199996948242</ele>
        <time>2022-04-12T14:52:21.000Z</time>
      </trkpt>
      <trkpt lat="43.66548" lon="7.10075">
        <ele>81.199996948242</ele>
        <time>2022-04-12T14:52:25.000Z</time>
      </trkpt>
      <trkpt lat="43.66545" lon="7.10098">
        <ele>81.599998474121</ele>
        <time>2022-04-12T14:52:30.000Z</time>
      </trkpt>
      <trkpt lat="43.66543" lon="7.10113">
        <ele>82.199996948242</ele>
        <time>2022-04-12T14:52:34.000Z</time>
      </trkpt>
      <trkpt lat="43.66542" lon="7.10115">
        <ele>82.599998474121</ele>
        <time>2022-04-12T14:52:35.000Z</time>
      </trkpt>
      <trkpt lat="43.6654" lon="7.10122">
        <ele>83.800003051758</ele>
        <time>2022-04-12T14:52:38.000Z</time>
      </trkpt>
      <trkpt lat="43.66541" lon="7.10125">
        <ele>84.400001525879</ele>
        <time>2022-04-12T14:52:39.000Z</time>
      </trkpt>
      <trkpt lat="43.66543" lon="7.10131">
        <ele>84.800003051758</ele>
        <time>2022-04-12T14:52:41.000Z</time>
      </trkpt>
      <trkpt lat="43.66545" lon="7.10139">
        <ele>85.599998474121</ele>
        <time>2022-04-12T14:52:44.000Z</time>
      </trkpt>
      <trkpt lat="43.66544" lon="7.10144">
        <ele>86.199996948242</ele>
        <time>2022-04-12T14:52:46.000Z</time>
      </trkpt>
      <trkpt lat="43.66541" lon="7.1015">
        <ele>87.400001525879</ele>
        <time>2022-04-12T14:52:49.000Z</time>
      </trkpt>
      <trkpt lat="43.66534" lon="7.10154">
        <ele>88.400001525879</ele>
        <time>2022-04-12T14:52:52.000Z</time>
      </trkpt>
      <trkpt lat="43.66531" lon="7.10159">
        <ele>88.800003051758</ele>
        <time>2022-04-12T14:52:54.000Z</time>
      </trkpt>
      <trkpt lat="43.66529" lon="7.10164">
        <ele>89.599998474121</ele>
        <time>2022-04-12T14:52:56.000Z</time>
      </trkpt>
      <trkpt lat="43.66527" lon="7.10165">
        <ele>90</ele>
        <time>2022-04-12T14:52:57.000Z</time>
      </trkpt>
      <trkpt lat="43.66526" lon="7.10168">
        <ele>90.599998474121</ele>
        <time>2022-04-12T14:52:58.000Z</time>
      </trkpt>
      <trkpt lat="43.6652" lon="7.10172">
        <ele>92</ele>
        <time>2022-04-12T14:53:01.000Z</time>
      </trkpt>
      <trkpt lat="43.66516" lon="7.10179">
        <ele>93.199996948242</ele>
        <time>2022-04-12T14:53:04.000Z</time>
      </trkpt>
      <trkpt lat="43.66511" lon="7.10184">
        <ele>94.199996948242</ele>
        <time>2022-04-12T14:53:07.000Z</time>
      </trkpt>
      <trkpt lat="43.66511" lon="7.10185">
        <ele>94.599998474121</ele>
        <time>2022-04-12T14:53:08.000Z</time>
      </trkpt>
      <trkpt lat="43.66512" lon="7.10188">
        <ele>95</ele>
        <time>2022-04-12T14:53:09.000Z</time>
      </trkpt>
      <trkpt lat="43.66512" lon="7.10191">
        <ele>95.400001525879</ele>
        <time>2022-04-12T14:53:10.000Z</time>
      </trkpt>
      <trkpt lat="43.6651" lon="7.10197">
        <ele>96</ele>
        <time>2022-04-12T14:53:12.000Z</time>
      </trkpt>
      <trkpt lat="43.66507" lon="7.10201">
        <ele>96.599998474121</ele>
        <time>2022-04-12T14:53:14.000Z</time>
      </trkpt>
      <trkpt lat="43.66505" lon="7.10202">
        <ele>97.400001525879</ele>
        <time>2022-04-12T14:53:16.000Z</time>
      </trkpt>
      <trkpt lat="43.66504" lon="7.10204">
        <ele>97.800003051758</ele>
        <time>2022-04-12T14:53:17.000Z</time>
      </trkpt>
      <trkpt lat="43.66501" lon="7.10209">
        <ele>98.599998474121</ele>
        <time>2022-04-12T14:53:19.000Z</time>
      </trkpt>
      <trkpt lat="43.665" lon="7.10211">
        <ele>99.199996948242</ele>
        <time>2022-04-12T14:53:20.000Z</time>
      </trkpt>
      <trkpt lat="43.66498" lon="7.10214">
        <ele>100</ele>
        <time>2022-04-12T14:53:22.000Z</time>
      </trkpt>
      <trkpt lat="43.66496" lon="7.10215">
        <ele>100.59999847412</ele>
        <time>2022-04-12T14:53:23.000Z</time>
      </trkpt>
      <trkpt lat="43.66488" lon="7.10219">
        <ele>101.80000305176</ele>
        <time>2022-04-12T14:53:27.000Z</time>
      </trkpt>
      <trkpt lat="43.66487" lon="7.1022">
        <ele>102</ele>
        <time>2022-04-12T14:53:28.000Z</time>
      </trkpt>
      <trkpt lat="43.6648" lon="7.10227">
        <ele>102.59999847412</ele>
        <time>2022-04-12T14:53:32.000Z</time>
      </trkpt>
      <trkpt lat="43.66476" lon="7.10231">
        <ele>103</ele>
        <time>2022-04-12T14:53:34.000Z</time>
      </trkpt>
      <trkpt lat="43.66472" lon="7.10234">
        <ele>103.59999847412</ele>
        <time>2022-04-12T14:53:37.000Z</time>
      </trkpt>
      <trkpt lat="43.6647" lon="7.10237">
        <ele>104</ele>
        <time>2022-04-12T14:53:38.000Z</time>
      </trkpt>
      <trkpt lat="43.66464" lon="7.10244">
        <ele>105.19999694824</ele>
        <time>2022-04-12T14:53:42.000Z</time>
      </trkpt>
      <trkpt lat="43.66462" lon="7.10246">
        <ele>105.59999847412</ele>
        <time>2022-04-12T14:53:43.000Z</time>
      </trkpt>
      <trkpt lat="43.66458" lon="7.1025">
        <ele>106.40000152588</ele>
        <time>2022-04-12T14:53:45.000Z</time>
      </trkpt>
      <trkpt lat="43.66453" lon="7.10255">
        <ele>106.80000305176</ele>
        <time>2022-04-12T14:53:48.000Z</time>
      </trkpt>
      <trkpt lat="43.66452" lon="7.10265">
        <ele>107.40000152588</ele>
        <time>2022-04-12T14:53:52.000Z</time>
      </trkpt>
      <trkpt lat="43.66453" lon="7.10267">
        <ele>107.59999847412</ele>
        <time>2022-04-12T14:53:53.000Z</time>
      </trkpt>
      <trkpt lat="43.66457" lon="7.10269">
        <ele>108.59999847412</ele>
        <time>2022-04-12T14:53:57.000Z</time>
      </trkpt>
      <trkpt lat="43.66465" lon="7.10274">
        <ele>109.19999694824</ele>
        <time>2022-04-12T14:54:01.000Z</time>
      </trkpt>
      <trkpt lat="43.66467" lon="7.10275">
        <ele>109.59999847412</ele>
        <time>2022-04-12T14:54:02.000Z</time>
      </trkpt>
      <trkpt lat="43.6647" lon="7.1028">
        <ele>111</ele>
        <time>2022-04-12T14:54:04.000Z</time>
      </trkpt>
      <trkpt lat="43.66473" lon="7.10285">
        <ele>112.40000152588</ele>
        <time>2022-04-12T14:54:06.000Z</time>
      </trkpt>
      <trkpt lat="43.66474" lon="7.10288">
        <ele>113.59999847412</ele>
        <time>2022-04-12T14:54:08.000Z</time>
      </trkpt>
      <trkpt lat="43.66475" lon="7.10292">
        <ele>114.40000152588</ele>
        <time>2022-04-12T14:54:10.000Z</time>
      </trkpt>
      <trkpt lat="43.66474" lon="7.10293">
        <ele>114.80000305176</ele>
        <time>2022-04-12T14:54:11.000Z</time>
      </trkpt>
      <trkpt lat="43.66474" lon="7.10294">
        <ele>115.59999847412</ele>
        <time>2022-04-12T14:54:14.000Z</time>
      </trkpt>
      <trkpt lat="43.66474" lon="7.10294">
        <ele>115.80000305176</ele>
        <time>2022-04-12T14:54:16.000Z</time>
      </trkpt>
      <trkpt lat="43.66473" lon="7.10295">
        <ele>115.80000305176</ele>
        <time>2022-04-12T14:54:30.000Z</time>
      </trkpt>
      <trkpt lat="43.66471" lon="7.10297">
        <ele>116</ele>
        <time>2022-04-12T14:54:48.000Z</time>
      </trkpt>
      <trkpt lat="43.6647" lon="7.10298">
        <ele>116.19999694824</ele>
        <time>2022-04-12T14:55:20.000Z</time>
      </trkpt>
      <trkpt lat="43.6647" lon="7.10298">
        <ele>116.19999694824</ele>
        <time>2022-04-12T14:55:49.000Z</time>
      </trkpt>
      <trkpt lat="43.66466" lon="7.10303">
        <ele>116.19999694824</ele>
        <time>2022-04-12T14:56:10.000Z</time>
      </trkpt>
      <trkpt lat="43.66458" lon="7.1031">
        <ele>116.40000152588</ele>
        <time>2022-04-12T14:56:14.000Z</time>
      </trkpt>
      <trkpt lat="43.66446" lon="7.10314">
        <ele>116.80000305176</ele>
        <time>2022-04-12T14:56:20.000Z</time>
      </trkpt>
      <trkpt lat="43.66434" lon="7.10319">
        <ele>117.59999847412</ele>
        <time>2022-04-12T14:56:25.000Z</time>
      </trkpt>
      <trkpt lat="43.66429" lon="7.1032">
        <ele>118</ele>
        <time>2022-04-12T14:56:27.000Z</time>
      </trkpt>
      <trkpt lat="43.66424" lon="7.10326">
        <ele>119</ele>
        <time>2022-04-12T14:56:30.000Z</time>
      </trkpt>
      <trkpt lat="43.66422" lon="7.10327">
        <ele>119.19999694824</ele>
        <time>2022-04-12T14:56:31.000Z</time>
      </trkpt>
      <trkpt lat="43.66412" lon="7.10334">
        <ele>120.59999847412</ele>
        <time>2022-04-12T14:56:35.000Z</time>
      </trkpt>
      <trkpt lat="43.66409" lon="7.10335">
        <ele>121.19999694824</ele>
        <time>2022-04-12T14:56:36.000Z</time>
      </trkpt>
      <trkpt lat="43.66407" lon="7.10336">
        <ele>121.59999847412</ele>
        <time>2022-04-12T14:56:37.000Z</time>
      </trkpt>
      <trkpt lat="43.66403" lon="7.10335">
        <ele>123</ele>
        <time>2022-04-12T14:56:39.000Z</time>
      </trkpt>
      <trkpt lat="43.66401" lon="7.10335">
        <ele>123.80000305176</ele>
        <time>2022-04-12T14:56:40.000Z</time>
      </trkpt>
      <trkpt lat="43.66398" lon="7.10335">
        <ele>124.19999694824</ele>
        <time>2022-04-12T14:56:41.000Z</time>
      </trkpt>
      <trkpt lat="43.66391" lon="7.10335">
        <ele>125</ele>
        <time>2022-04-12T14:56:44.000Z</time>
      </trkpt>
      <trkpt lat="43.66389" lon="7.10335">
        <ele>125.19999694824</ele>
        <time>2022-04-12T14:56:45.000Z</time>
      </trkpt>
      <trkpt lat="43.66387" lon="7.10336">
        <ele>125.40000152588</ele>
        <time>2022-04-12T14:56:46.000Z</time>
      </trkpt>
      <trkpt lat="43.66384" lon="7.10336">
        <ele>125.80000305176</ele>
        <time>2022-04-12T14:56:48.000Z</time>
      </trkpt>
      <trkpt lat="43.6638" lon="7.10334">
        <ele>126.19999694824</ele>
        <time>2022-04-12T14:56:50.000Z</time>
      </trkpt>
      <trkpt lat="43.66376" lon="7.10334">
        <ele>126.80000305176</ele>
        <time>2022-04-12T14:56:52.000Z</time>
      </trkpt>
      <trkpt lat="43.66369" lon="7.10333">
        <ele>127.40000152588</ele>
        <time>2022-04-12T14:56:55.000Z</time>
      </trkpt>
      <trkpt lat="43.66364" lon="7.10331">
        <ele>128.39999389648</ele>
        <time>2022-04-12T14:56:58.000Z</time>
      </trkpt>
      <trkpt lat="43.66362" lon="7.10331">
        <ele>128.39999389648</ele>
        <time>2022-04-12T14:56:59.000Z</time>
      </trkpt>
      <trkpt lat="43.66354" lon="7.1033">
        <ele>129.19999694824</ele>
        <time>2022-04-12T14:57:02.000Z</time>
      </trkpt>
      <trkpt lat="43.66352" lon="7.10331">
        <ele>129.39999389648</ele>
        <time>2022-04-12T14:57:03.000Z</time>
      </trkpt>
      <trkpt lat="43.6635" lon="7.10331">
        <ele>129.60000610352</ele>
        <time>2022-04-12T14:57:04.000Z</time>
      </trkpt>
      <trkpt lat="43.66336" lon="7.10337">
        <ele>130.80000305176</ele>
        <time>2022-04-12T14:57:10.000Z</time>
      </trkpt>
      <trkpt lat="43.66325" lon="7.1034">
        <ele>132</ele>
        <time>2022-04-12T14:57:15.000Z</time>
      </trkpt>
      <trkpt lat="43.66316" lon="7.10343">
        <ele>132.80000305176</ele>
        <time>2022-04-12T14:57:20.000Z</time>
      </trkpt>
      <trkpt lat="43.66315" lon="7.10345">
        <ele>133</ele>
        <time>2022-04-12T14:57:21.000Z</time>
      </trkpt>
      <trkpt lat="43.66311" lon="7.10347">
        <ele>133</ele>
        <time>2022-04-12T14:57:23.000Z</time>
      </trkpt>
      <trkpt lat="43.66309" lon="7.10349">
        <ele>133</ele>
        <time>2022-04-12T14:57:24.000Z</time>
      </trkpt>
      <trkpt lat="43.66298" lon="7.10358">
        <ele>133.39999389648</ele>
        <time>2022-04-12T14:57:30.000Z</time>
      </trkpt>
      <trkpt lat="43.66289" lon="7.10364">
        <ele>133.60000610352</ele>
        <time>2022-04-12T14:57:35.000Z</time>
      </trkpt>
      <trkpt lat="43.66285" lon="7.10369">
        <ele>134</ele>
        <time>2022-04-12T14:57:38.000Z</time>
      </trkpt>
      <trkpt lat="43.66282" lon="7.10372">
        <ele>134.19999694824</ele>
        <time>2022-04-12T14:57:40.000Z</time>
      </trkpt>
      <trkpt lat="43.66273" lon="7.10379">
        <ele>135.19999694824</ele>
        <time>2022-04-12T14:57:45.000Z</time>
      </trkpt>
      <trkpt lat="43.66271" lon="7.10381">
        <ele>135.39999389648</ele>
        <time>2022-04-12T14:57:46.000Z</time>
      </trkpt>
      <trkpt lat="43.66265" lon="7.10385">
        <ele>136.60000610352</ele>
        <time>2022-04-12T14:57:49.000Z</time>
      </trkpt>
      <trkpt lat="43.66263" lon="7.10387">
        <ele>137.19999694824</ele>
        <time>2022-04-12T14:57:50.000Z</time>
      </trkpt>
      <trkpt lat="43.66261" lon="7.10387">
        <ele>137.60000610352</ele>
        <time>2022-04-12T14:57:51.000Z</time>
      </trkpt>
      <trkpt lat="43.66259" lon="7.10388">
        <ele>137.60000610352</ele>
        <time>2022-04-12T14:57:52.000Z</time>
      </trkpt>
      <trkpt lat="43.66252" lon="7.10393">
        <ele>138.80000305176</ele>
        <time>2022-04-12T14:57:56.000Z</time>
      </trkpt>
      <trkpt lat="43.66246" lon="7.10401">
        <ele>140.19999694824</ele>
        <time>2022-04-12T14:58:00.000Z</time>
      </trkpt>
      <trkpt lat="43.66241" lon="7.10413">
        <ele>141.60000610352</ele>
        <time>2022-04-12T14:58:05.000Z</time>
      </trkpt>
      <trkpt lat="43.66238" lon="7.10421">
        <ele>142.60000610352</ele>
        <time>2022-04-12T14:58:08.000Z</time>
      </trkpt>
      <trkpt lat="43.66234" lon="7.1043">
        <ele>143.80000305176</ele>
        <time>2022-04-12T14:58:12.000Z</time>
      </trkpt>
      <trkpt lat="43.66233" lon="7.10435">
        <ele>144.19999694824</ele>
        <time>2022-04-12T14:58:14.000Z</time>
      </trkpt>
      <trkpt lat="43.66231" lon="7.10442">
        <ele>144.80000305176</ele>
        <time>2022-04-12T14:58:17.000Z</time>
      </trkpt>
      <trkpt lat="43.6623" lon="7.10447">
        <ele>145.19999694824</ele>
        <time>2022-04-12T14:58:19.000Z</time>
      </trkpt>
      <trkpt lat="43.66226" lon="7.10461">
        <ele>145.80000305176</ele>
        <time>2022-04-12T14:58:25.000Z</time>
      </trkpt>
      <trkpt lat="43.66223" lon="7.10474">
        <ele>146.60000610352</ele>
        <time>2022-04-12T14:58:30.000Z</time>
      </trkpt>
      <trkpt lat="43.66222" lon="7.1048">
        <ele>146.80000305176</ele>
        <time>2022-04-12T14:58:32.000Z</time>
      </trkpt>
      <trkpt lat="43.66222" lon="7.10491">
        <ele>147.39999389648</ele>
        <time>2022-04-12T14:58:36.000Z</time>
      </trkpt>
      <trkpt lat="43.66221" lon="7.10506">
        <ele>148</ele>
        <time>2022-04-12T14:58:41.000Z</time>
      </trkpt>
      <trkpt lat="43.66218" lon="7.10518">
        <ele>149</ele>
        <time>2022-04-12T14:58:45.000Z</time>
      </trkpt>
      <trkpt lat="43.66218" lon="7.10521">
        <ele>149.19999694824</ele>
        <time>2022-04-12T14:58:46.000Z</time>
      </trkpt>
      <trkpt lat="43.66213" lon="7.10536">
        <ele>149.19999694824</ele>
        <time>2022-04-12T14:58:51.000Z</time>
      </trkpt>
      <trkpt lat="43.66205" lon="7.10557">
        <ele>149.19999694824</ele>
        <time>2022-04-12T14:58:58.000Z</time>
      </trkpt>
      <trkpt lat="43.66192" lon="7.10577">
        <ele>149.60000610352</ele>
        <time>2022-04-12T14:59:06.000Z</time>
      </trkpt>
      <trkpt lat="43.6619" lon="7.1058">
        <ele>150</ele>
        <time>2022-04-12T14:59:07.000Z</time>
      </trkpt>
      <trkpt lat="43.6618" lon="7.10598">
        <ele>149.80000305176</ele>
        <time>2022-04-12T14:59:14.000Z</time>
      </trkpt>
      <trkpt lat="43.66176" lon="7.10604">
        <ele>150</ele>
        <time>2022-04-12T14:59:19.000Z</time>
      </trkpt>
      <trkpt lat="43.66176" lon="7.10604">
        <ele>150</ele>
        <time>2022-04-12T14:59:27.000Z</time>
      </trkpt>
      <trkpt lat="43.66176" lon="7.10604">
        <ele>151.19999694824</ele>
        <time>2022-04-12T14:59:43.000Z</time>
      </trkpt>
      <trkpt lat="43.66176" lon="7.10605">
        <ele>151.19999694824</ele>
        <time>2022-04-12T14:59:47.000Z</time>
      </trkpt>
      <trkpt lat="43.66176" lon="7.10604">
        <ele>150.60000610352</ele>
        <time>2022-04-12T15:00:05.000Z</time>
      </trkpt>
      <trkpt lat="43.66176" lon="7.10604">
        <ele>150.60000610352</ele>
        <time>2022-04-12T15:00:28.000Z</time>
      </trkpt>
      <trkpt lat="43.66176" lon="7.10604">
        <ele>150.39999389648</ele>
        <time>2022-04-12T15:00:50.000Z</time>
      </trkpt>
      <trkpt lat="43.66176" lon="7.10604">
        <ele>150.39999389648</ele>
        <time>2022-04-12T15:00:59.000Z</time>
      </trkpt>
      <trkpt lat="43.66176" lon="7.10604">
        <ele>151</ele>
        <time>2022-04-12T15:01:10.000Z</time>
      </trkpt>
      <trkpt lat="43.66176" lon="7.10605">
        <ele>150.60000610352</ele>
        <time>2022-04-12T15:01:16.000Z</time>
      </trkpt>
      <trkpt lat="43.66173" lon="7.10611">
        <ele>150.39999389648</ele>
        <time>2022-04-12T15:01:20.000Z</time>
      </trkpt>
      <trkpt lat="43.66163" lon="7.10623">
        <ele>150.19999694824</ele>
        <time>2022-04-12T15:01:24.000Z</time>
      </trkpt>
      <trkpt lat="43.66161" lon="7.10627">
        <ele>150</ele>
        <time>2022-04-12T15:01:25.000Z</time>
      </trkpt>
      <trkpt lat="43.6615" lon="7.10646">
        <ele>149</ele>
        <time>2022-04-12T15:01:30.000Z</time>
      </trkpt>
      <trkpt lat="43.66146" lon="7.10653">
        <ele>149</ele>
        <time>2022-04-12T15:01:32.000Z</time>
      </trkpt>
      <trkpt lat="43.66137" lon="7.10672">
        <ele>149</ele>
        <time>2022-04-12T15:01:37.000Z</time>
      </trkpt>
      <trkpt lat="43.66132" lon="7.10693">
        <ele>148.60000610352</ele>
        <time>2022-04-12T15:01:42.000Z</time>
      </trkpt>
      <trkpt lat="43.66134" lon="7.10712">
        <ele>148.39999389648</ele>
        <time>2022-04-12T15:01:46.000Z</time>
      </trkpt>
      <trkpt lat="43.66136" lon="7.10718">
        <ele>148.19999694824</ele>
        <time>2022-04-12T15:01:47.000Z</time>
      </trkpt>
      <trkpt lat="43.66137" lon="7.10725">
        <ele>147.80000305176</ele>
        <time>2022-04-12T15:01:48.000Z</time>
      </trkpt>
      <trkpt lat="43.66142" lon="7.10738">
        <ele>146.39999389648</ele>
        <time>2022-04-12T15:01:51.000Z</time>
      </trkpt>
      <trkpt lat="43.66144" lon="7.10743">
        <ele>145.80000305176</ele>
        <time>2022-04-12T15:01:52.000Z</time>
      </trkpt>
      <trkpt lat="43.66145" lon="7.10747">
        <ele>145.19999694824</ele>
        <time>2022-04-12T15:01:53.000Z</time>
      </trkpt>
      <trkpt lat="43.66148" lon="7.10756">
        <ele>143.80000305176</ele>
        <time>2022-04-12T15:01:55.000Z</time>
      </trkpt>
      <trkpt lat="43.66151" lon="7.10766">
        <ele>142.80000305176</ele>
        <time>2022-04-12T15:01:57.000Z</time>
      </trkpt>
      <trkpt lat="43.66152" lon="7.10772">
        <ele>142</ele>
        <time>2022-04-12T15:01:58.000Z</time>
      </trkpt>
      <trkpt lat="43.66152" lon="7.10777">
        <ele>141.39999389648</ele>
        <time>2022-04-12T15:01:59.000Z</time>
      </trkpt>
      <trkpt lat="43.6615" lon="7.10787">
        <ele>140.39999389648</ele>
        <time>2022-04-12T15:02:01.000Z</time>
      </trkpt>
      <trkpt lat="43.66148" lon="7.10791">
        <ele>139.80000305176</ele>
        <time>2022-04-12T15:02:02.000Z</time>
      </trkpt>
      <trkpt lat="43.66144" lon="7.10799">
        <ele>138.80000305176</ele>
        <time>2022-04-12T15:02:04.000Z</time>
      </trkpt>
      <trkpt lat="43.66143" lon="7.10808">
        <ele>138.80000305176</ele>
        <time>2022-04-12T15:02:06.000Z</time>
      </trkpt>
      <trkpt lat="43.66143" lon="7.10826">
        <ele>137</ele>
        <time>2022-04-12T15:02:10.000Z</time>
      </trkpt>
      <trkpt lat="43.66144" lon="7.10828">
        <ele>136.19999694824</ele>
        <time>2022-04-12T15:02:11.000Z</time>
      </trkpt>
      <trkpt lat="43.66146" lon="7.10831">
        <ele>135.80000305176</ele>
        <time>2022-04-12T15:02:12.000Z</time>
      </trkpt>
      <trkpt lat="43.66149" lon="7.10833">
        <ele>135.19999694824</ele>
        <time>2022-04-12T15:02:13.000Z</time>
      </trkpt>
      <trkpt lat="43.66153" lon="7.10844">
        <ele>134.60000610352</ele>
        <time>2022-04-12T15:02:16.000Z</time>
      </trkpt>
      <trkpt lat="43.66153" lon="7.10847">
        <ele>134.39999389648</ele>
        <time>2022-04-12T15:02:17.000Z</time>
      </trkpt>
      <trkpt lat="43.66154" lon="7.10852">
        <ele>134.19999694824</ele>
        <time>2022-04-12T15:02:18.000Z</time>
      </trkpt>
      <trkpt lat="43.66153" lon="7.10857">
        <ele>133.39999389648</ele>
        <time>2022-04-12T15:02:19.000Z</time>
      </trkpt>
      <trkpt lat="43.66152" lon="7.10861">
        <ele>133</ele>
        <time>2022-04-12T15:02:20.000Z</time>
      </trkpt>
      <trkpt lat="43.66152" lon="7.10866">
        <ele>132.39999389648</ele>
        <time>2022-04-12T15:02:21.000Z</time>
      </trkpt>
      <trkpt lat="43.66151" lon="7.10876">
        <ele>130.80000305176</ele>
        <time>2022-04-12T15:02:23.000Z</time>
      </trkpt>
      <trkpt lat="43.6615" lon="7.10881">
        <ele>130.39999389648</ele>
        <time>2022-04-12T15:02:24.000Z</time>
      </trkpt>
      <trkpt lat="43.66147" lon="7.10886">
        <ele>129.19999694824</ele>
        <time>2022-04-12T15:02:26.000Z</time>
      </trkpt>
      <trkpt lat="43.66146" lon="7.1089">
        <ele>128.39999389648</ele>
        <time>2022-04-12T15:02:27.000Z</time>
      </trkpt>
      <trkpt lat="43.66144" lon="7.10895">
        <ele>128</ele>
        <time>2022-04-12T15:02:28.000Z</time>
      </trkpt>
      <trkpt lat="43.6614" lon="7.10905">
        <ele>127</ele>
        <time>2022-04-12T15:02:30.000Z</time>
      </trkpt>
      <trkpt lat="43.66138" lon="7.10909">
        <ele>126.59999847412</ele>
        <time>2022-04-12T15:02:31.000Z</time>
      </trkpt>
      <trkpt lat="43.66132" lon="7.10919">
        <ele>125.59999847412</ele>
        <time>2022-04-12T15:02:33.000Z</time>
      </trkpt>
      <trkpt lat="43.66129" lon="7.10925">
        <ele>125.19999694824</ele>
        <time>2022-04-12T15:02:34.000Z</time>
      </trkpt>
      <trkpt lat="43.66125" lon="7.10928">
        <ele>125</ele>
        <time>2022-04-12T15:02:35.000Z</time>
      </trkpt>
      <trkpt lat="43.66121" lon="7.10932">
        <ele>124.59999847412</ele>
        <time>2022-04-12T15:02:36.000Z</time>
      </trkpt>
      <trkpt lat="43.66114" lon="7.10949">
        <ele>122.80000305176</ele>
        <time>2022-04-12T15:02:39.000Z</time>
      </trkpt>
      <trkpt lat="43.66107" lon="7.10969">
        <ele>121.59999847412</ele>
        <time>2022-04-12T15:02:42.000Z</time>
      </trkpt>
      <trkpt lat="43.66104" lon="7.10976">
        <ele>120.80000305176</ele>
        <time>2022-04-12T15:02:43.000Z</time>
      </trkpt>
      <trkpt lat="43.66097" lon="7.10988">
        <ele>119.80000305176</ele>
        <time>2022-04-12T15:02:45.000Z</time>
      </trkpt>
      <trkpt lat="43.66091" lon="7.10998">
        <ele>118.59999847412</ele>
        <time>2022-04-12T15:02:47.000Z</time>
      </trkpt>
      <trkpt lat="43.66086" lon="7.11011">
        <ele>117.40000152588</ele>
        <time>2022-04-12T15:02:49.000Z</time>
      </trkpt>
      <trkpt lat="43.66081" lon="7.11023">
        <ele>116</ele>
        <time>2022-04-12T15:02:51.000Z</time>
      </trkpt>
      <trkpt lat="43.66078" lon="7.11031">
        <ele>115.40000152588</ele>
        <time>2022-04-12T15:02:52.000Z</time>
      </trkpt>
      <trkpt lat="43.66072" lon="7.11039">
        <ele>114.40000152588</ele>
        <time>2022-04-12T15:02:54.000Z</time>
      </trkpt>
      <trkpt lat="43.66071" lon="7.11043">
        <ele>114</ele>
        <time>2022-04-12T15:02:55.000Z</time>
      </trkpt>
      <trkpt lat="43.66067" lon="7.11054">
        <ele>113.19999694824</ele>
        <time>2022-04-12T15:02:57.000Z</time>
      </trkpt>
      <trkpt lat="43.66065" lon="7.11059">
        <ele>112.59999847412</ele>
        <time>2022-04-12T15:02:58.000Z</time>
      </trkpt>
      <trkpt lat="43.66058" lon="7.11065">
        <ele>112.59999847412</ele>
        <time>2022-04-12T15:03:00.000Z</time>
      </trkpt>
      <trkpt lat="43.66046" lon="7.11077">
        <ele>111.80000305176</ele>
        <time>2022-04-12T15:03:03.000Z</time>
      </trkpt>
      <trkpt lat="43.66044" lon="7.11088">
        <ele>109.80000305176</ele>
        <time>2022-04-12T15:03:05.000Z</time>
      </trkpt>
      <trkpt lat="43.66041" lon="7.11092">
        <ele>108.80000305176</ele>
        <time>2022-04-12T15:03:06.000Z</time>
      </trkpt>
      <trkpt lat="43.66039" lon="7.11095">
        <ele>108.19999694824</ele>
        <time>2022-04-12T15:03:07.000Z</time>
      </trkpt>
      <trkpt lat="43.66028" lon="7.11096">
        <ele>108.19999694824</ele>
        <time>2022-04-12T15:03:10.000Z</time>
      </trkpt>
      <trkpt lat="43.66021" lon="7.11103">
        <ele>107.59999847412</ele>
        <time>2022-04-12T15:03:13.000Z</time>
      </trkpt>
      <trkpt lat="43.6602" lon="7.11106">
        <ele>107</ele>
        <time>2022-04-12T15:03:14.000Z</time>
      </trkpt>
      <trkpt lat="43.66018" lon="7.1111">
        <ele>106.19999694824</ele>
        <time>2022-04-12T15:03:15.000Z</time>
      </trkpt>
      <trkpt lat="43.66016" lon="7.11114">
        <ele>105.40000152588</ele>
        <time>2022-04-12T15:03:16.000Z</time>
      </trkpt>
      <trkpt lat="43.66009" lon="7.11125">
        <ele>104.59999847412</ele>
        <time>2022-04-12T15:03:18.000Z</time>
      </trkpt>
      <trkpt lat="43.66007" lon="7.11131">
        <ele>104.19999694824</ele>
        <time>2022-04-12T15:03:19.000Z</time>
      </trkpt>
      <trkpt lat="43.66001" lon="7.1114">
        <ele>104.19999694824</ele>
        <time>2022-04-12T15:03:21.000Z</time>
      </trkpt>
      <trkpt lat="43.65997" lon="7.11152">
        <ele>103.40000152588</ele>
        <time>2022-04-12T15:03:24.000Z</time>
      </trkpt>
      <trkpt lat="43.65997" lon="7.11158">
        <ele>103</ele>
        <time>2022-04-12T15:03:25.000Z</time>
      </trkpt>
      <trkpt lat="43.65995" lon="7.11175">
        <ele>101.59999847412</ele>
        <time>2022-04-12T15:03:28.000Z</time>
      </trkpt>
      <trkpt lat="43.65992" lon="7.11186">
        <ele>99.800003051758</ele>
        <time>2022-04-12T15:03:30.000Z</time>
      </trkpt>
      <trkpt lat="43.6599" lon="7.11196">
        <ele>98.199996948242</ele>
        <time>2022-04-12T15:03:32.000Z</time>
      </trkpt>
      <trkpt lat="43.65989" lon="7.11209">
        <ele>97.199996948242</ele>
        <time>2022-04-12T15:03:35.000Z</time>
      </trkpt>
      <trkpt lat="43.65985" lon="7.1121">
        <ele>96.800003051758</ele>
        <time>2022-04-12T15:03:36.000Z</time>
      </trkpt>
      <trkpt lat="43.65981" lon="7.11211">
        <ele>96.599998474121</ele>
        <time>2022-04-12T15:03:37.000Z</time>
      </trkpt>
      <trkpt lat="43.65978" lon="7.11211">
        <ele>96.199996948242</ele>
        <time>2022-04-12T15:03:38.000Z</time>
      </trkpt>
      <trkpt lat="43.65976" lon="7.11212">
        <ele>96</ele>
        <time>2022-04-12T15:03:39.000Z</time>
      </trkpt>
      <trkpt lat="43.65975" lon="7.11215">
        <ele>95.800003051758</ele>
        <time>2022-04-12T15:03:40.000Z</time>
      </trkpt>
      <trkpt lat="43.65974" lon="7.11218">
        <ele>95.800003051758</ele>
        <time>2022-04-12T15:03:41.000Z</time>
      </trkpt>
      <trkpt lat="43.65978" lon="7.11228">
        <ele>94.800003051758</ele>
        <time>2022-04-12T15:03:44.000Z</time>
      </trkpt>
      <trkpt lat="43.6598" lon="7.11236">
        <ele>94.199996948242</ele>
        <time>2022-04-12T15:03:48.000Z</time>
      </trkpt>
      <trkpt lat="43.65978" lon="7.11245">
        <ele>93.599998474121</ele>
        <time>2022-04-12T15:03:50.000Z</time>
      </trkpt>
      <trkpt lat="43.65974" lon="7.11251">
        <ele>93</ele>
        <time>2022-04-12T15:03:52.000Z</time>
      </trkpt>
      <trkpt lat="43.6597" lon="7.11256">
        <ele>92.400001525879</ele>
        <time>2022-04-12T15:03:54.000Z</time>
      </trkpt>
      <trkpt lat="43.65965" lon="7.11261">
        <ele>91.199996948242</ele>
        <time>2022-04-12T15:03:56.000Z</time>
      </trkpt>
      <trkpt lat="43.65959" lon="7.11267">
        <ele>90.199996948242</ele>
        <time>2022-04-12T15:03:58.000Z</time>
      </trkpt>
      <trkpt lat="43.65959" lon="7.1127">
        <ele>89.599998474121</ele>
        <time>2022-04-12T15:03:59.000Z</time>
      </trkpt>
      <trkpt lat="43.6596" lon="7.11273">
        <ele>89</ele>
        <time>2022-04-12T15:04:00.000Z</time>
      </trkpt>
      <trkpt lat="43.65961" lon="7.11276">
        <ele>88.199996948242</ele>
        <time>2022-04-12T15:04:01.000Z</time>
      </trkpt>
      <trkpt lat="43.65962" lon="7.1128">
        <ele>87.599998474121</ele>
        <time>2022-04-12T15:04:02.000Z</time>
      </trkpt>
      <trkpt lat="43.65962" lon="7.11284">
        <ele>87</ele>
        <time>2022-04-12T15:04:03.000Z</time>
      </trkpt>
      <trkpt lat="43.65964" lon="7.11293">
        <ele>86.599998474121</ele>
        <time>2022-04-12T15:04:05.000Z</time>
      </trkpt>
      <trkpt lat="43.65964" lon="7.11297">
        <ele>86.400001525879</ele>
        <time>2022-04-12T15:04:06.000Z</time>
      </trkpt>
      <trkpt lat="43.65959" lon="7.11316">
        <ele>85.800003051758</ele>
        <time>2022-04-12T15:04:10.000Z</time>
      </trkpt>
      <trkpt lat="43.65959" lon="7.11319">
        <ele>85.199996948242</ele>
        <time>2022-04-12T15:04:11.000Z</time>
      </trkpt>
      <trkpt lat="43.65957" lon="7.11332">
        <ele>84.599998474121</ele>
        <time>2022-04-12T15:04:14.000Z</time>
      </trkpt>
      <trkpt lat="43.65954" lon="7.11341">
        <ele>84.199996948242</ele>
        <time>2022-04-12T15:04:17.000Z</time>
      </trkpt>
      <trkpt lat="43.6595" lon="7.11348">
        <ele>83.400001525879</ele>
        <time>2022-04-12T15:04:19.000Z</time>
      </trkpt>
      <trkpt lat="43.65945" lon="7.11355">
        <ele>82.800003051758</ele>
        <time>2022-04-12T15:04:21.000Z</time>
      </trkpt>
      <trkpt lat="43.65942" lon="7.11363">
        <ele>82.199996948242</ele>
        <time>2022-04-12T15:04:23.000Z</time>
      </trkpt>
      <trkpt lat="43.65939" lon="7.11371">
        <ele>81.800003051758</ele>
        <time>2022-04-12T15:04:25.000Z</time>
      </trkpt>
      <trkpt lat="43.65938" lon="7.11375">
        <ele>81.599998474121</ele>
        <time>2022-04-12T15:04:26.000Z</time>
      </trkpt>
      <trkpt lat="43.65937" lon="7.11381">
        <ele>81.199996948242</ele>
        <time>2022-04-12T15:04:27.000Z</time>
      </trkpt>
      <trkpt lat="43.65934" lon="7.11398">
        <ele>80.400001525879</ele>
        <time>2022-04-12T15:04:30.000Z</time>
      </trkpt>
      <trkpt lat="43.65932" lon="7.11408">
        <ele>80</ele>
        <time>2022-04-12T15:04:32.000Z</time>
      </trkpt>
      <trkpt lat="43.65931" lon="7.11413">
        <ele>79.199996948242</ele>
        <time>2022-04-12T15:04:33.000Z</time>
      </trkpt>
      <trkpt lat="43.65928" lon="7.11429">
        <ele>78.199996948242</ele>
        <time>2022-04-12T15:04:37.000Z</time>
      </trkpt>
      <trkpt lat="43.65927" lon="7.11434">
        <ele>78.199996948242</ele>
        <time>2022-04-12T15:04:38.000Z</time>
      </trkpt>
      <trkpt lat="43.65926" lon="7.1144">
        <ele>77.599998474121</ele>
        <time>2022-04-12T15:04:40.000Z</time>
      </trkpt>
      <trkpt lat="43.65924" lon="7.11442">
        <ele>77.599998474121</ele>
        <time>2022-04-12T15:04:41.000Z</time>
      </trkpt>
      <trkpt lat="43.6592" lon="7.1145">
        <ele>77.199996948242</ele>
        <time>2022-04-12T15:04:44.000Z</time>
      </trkpt>
      <trkpt lat="43.6592" lon="7.11454">
        <ele>77</ele>
        <time>2022-04-12T15:04:45.000Z</time>
      </trkpt>
      <trkpt lat="43.6592" lon="7.11464">
        <ele>76.400001525879</ele>
        <time>2022-04-12T15:04:48.000Z</time>
      </trkpt>
      <trkpt lat="43.6592" lon="7.11468">
        <ele>76.400001525879</ele>
        <time>2022-04-12T15:04:49.000Z</time>
      </trkpt>
      <trkpt lat="43.65917" lon="7.11491">
        <ele>77.199996948242</ele>
        <time>2022-04-12T15:04:54.000Z</time>
      </trkpt>
      <trkpt lat="43.65914" lon="7.1151">
        <ele>77.199996948242</ele>
        <time>2022-04-12T15:04:58.000Z</time>
      </trkpt>
      <trkpt lat="43.65913" lon="7.11523">
        <ele>77.199996948242</ele>
        <time>2022-04-12T15:05:01.000Z</time>
      </trkpt>
      <trkpt lat="43.6591" lon="7.11526">
        <ele>77.400001525879</ele>
        <time>2022-04-12T15:05:02.000Z</time>
      </trkpt>
      <trkpt lat="43.65903" lon="7.11543">
        <ele>77.199996948242</ele>
        <time>2022-04-12T15:05:06.000Z</time>
      </trkpt>
      <trkpt lat="43.65903" lon="7.11547">
        <ele>76.800003051758</ele>
        <time>2022-04-12T15:05:07.000Z</time>
      </trkpt>
      <trkpt lat="43.65899" lon="7.1156">
        <ele>76</ele>
        <time>2022-04-12T15:05:10.000Z</time>
      </trkpt>
      <trkpt lat="43.65898" lon="7.11564">
        <ele>76</ele>
        <time>2022-04-12T15:05:11.000Z</time>
      </trkpt>
      <trkpt lat="43.65894" lon="7.11584">
        <ele>75.800003051758</ele>
        <time>2022-04-12T15:05:15.000Z</time>
      </trkpt>
      <trkpt lat="43.65893" lon="7.11589">
        <ele>75.599998474121</ele>
        <time>2022-04-12T15:05:16.000Z</time>
      </trkpt>
      <trkpt lat="43.65891" lon="7.11602">
        <ele>74.800003051758</ele>
        <time>2022-04-12T15:05:19.000Z</time>
      </trkpt>
      <trkpt lat="43.65891" lon="7.11605">
        <ele>74.599998474121</ele>
        <time>2022-04-12T15:05:20.000Z</time>
      </trkpt>
      <trkpt lat="43.65888" lon="7.11628">
        <ele>73.599998474121</ele>
        <time>2022-04-12T15:05:25.000Z</time>
      </trkpt>
      <trkpt lat="43.65882" lon="7.11643">
        <ele>72.400001525879</ele>
        <time>2022-04-12T15:05:28.000Z</time>
      </trkpt>
      <trkpt lat="43.65877" lon="7.11652">
        <ele>71.400001525879</ele>
        <time>2022-04-12T15:05:30.000Z</time>
      </trkpt>
      <trkpt lat="43.65875" lon="7.11658">
        <ele>70</ele>
        <time>2022-04-12T15:05:32.000Z</time>
      </trkpt>
      <trkpt lat="43.65864" lon="7.11673">
        <ele>69.599998474121</ele>
        <time>2022-04-12T15:05:37.000Z</time>
      </trkpt>
      <trkpt lat="43.65859" lon="7.1168">
        <ele>68.800003051758</ele>
        <time>2022-04-12T15:05:39.000Z</time>
      </trkpt>
      <trkpt lat="43.65858" lon="7.11685">
        <ele>68.400001525879</ele>
        <time>2022-04-12T15:05:40.000Z</time>
      </trkpt>
      <trkpt lat="43.65856" lon="7.1169">
        <ele>67.800003051758</ele>
        <time>2022-04-12T15:05:41.000Z</time>
      </trkpt>
      <trkpt lat="43.65853" lon="7.11694">
        <ele>67.400001525879</ele>
        <time>2022-04-12T15:05:42.000Z</time>
      </trkpt>
      <trkpt lat="43.65851" lon="7.11699">
        <ele>67</ele>
        <time>2022-04-12T15:05:44.000Z</time>
      </trkpt>
      <trkpt lat="43.65847" lon="7.11703">
        <ele>67.599998474121</ele>
        <time>2022-04-12T15:05:47.000Z</time>
      </trkpt>
      <trkpt lat="43.65842" lon="7.1171">
        <ele>67.800003051758</ele>
        <time>2022-04-12T15:05:50.000Z</time>
      </trkpt>
      <trkpt lat="43.65839" lon="7.11713">
        <ele>68</ele>
        <time>2022-04-12T15:05:51.000Z</time>
      </trkpt>
      <trkpt lat="43.65828" lon="7.11721">
        <ele>67.400001525879</ele>
        <time>2022-04-12T15:05:56.000Z</time>
      </trkpt>
      <trkpt lat="43.65826" lon="7.1172">
        <ele>68</ele>
        <time>2022-04-12T15:06:00.000Z</time>
      </trkpt>
      <trkpt lat="43.65826" lon="7.11719">
        <ele>67.800003051758</ele>
        <time>2022-04-12T15:06:24.000Z</time>
      </trkpt>
      <trkpt lat="43.65822" lon="7.11718">
        <ele>68</ele>
        <time>2022-04-12T15:06:58.000Z</time>
      </trkpt>
      <trkpt lat="43.65809" lon="7.11719">
        <ele>67.599998474121</ele>
        <time>2022-04-12T15:07:03.000Z</time>
      </trkpt>
      <trkpt lat="43.65807" lon="7.11721">
        <ele>67</ele>
        <time>2022-04-12T15:07:04.000Z</time>
      </trkpt>
      <trkpt lat="43.65805" lon="7.11724">
        <ele>66.199996948242</ele>
        <time>2022-04-12T15:07:05.000Z</time>
      </trkpt>
      <trkpt lat="43.65802" lon="7.11727">
        <ele>66</ele>
        <time>2022-04-12T15:07:06.000Z</time>
      </trkpt>
      <trkpt lat="43.65792" lon="7.1173">
        <ele>65</ele>
        <time>2022-04-12T15:07:09.000Z</time>
      </trkpt>
      <trkpt lat="43.6579" lon="7.11732">
        <ele>64.599998474121</ele>
        <time>2022-04-12T15:07:10.000Z</time>
      </trkpt>
      <trkpt lat="43.65788" lon="7.11735">
        <ele>63.799999237061</ele>
        <time>2022-04-12T15:07:11.000Z</time>
      </trkpt>
      <trkpt lat="43.65783" lon="7.11744">
        <ele>62.200000762939</ele>
        <time>2022-04-12T15:07:13.000Z</time>
      </trkpt>
      <trkpt lat="43.65782" lon="7.11749">
        <ele>61.400001525879</ele>
        <time>2022-04-12T15:07:14.000Z</time>
      </trkpt>
      <trkpt lat="43.65779" lon="7.11752">
        <ele>60.599998474121</ele>
        <time>2022-04-12T15:07:15.000Z</time>
      </trkpt>
      <trkpt lat="43.65774" lon="7.11756">
        <ele>60</ele>
        <time>2022-04-12T15:07:17.000Z</time>
      </trkpt>
      <trkpt lat="43.65771" lon="7.11765">
        <ele>59.599998474121</ele>
        <time>2022-04-12T15:07:19.000Z</time>
      </trkpt>
      <trkpt lat="43.65772" lon="7.11769">
        <ele>59.200000762939</ele>
        <time>2022-04-12T15:07:20.000Z</time>
      </trkpt>
      <trkpt lat="43.6577" lon="7.11776">
        <ele>57.799999237061</ele>
        <time>2022-04-12T15:07:22.000Z</time>
      </trkpt>
      <trkpt lat="43.65766" lon="7.11784">
        <ele>56.400001525879</ele>
        <time>2022-04-12T15:07:24.000Z</time>
      </trkpt>
      <trkpt lat="43.65763" lon="7.11793">
        <ele>55.599998474121</ele>
        <time>2022-04-12T15:07:26.000Z</time>
      </trkpt>
      <trkpt lat="43.65762" lon="7.11796">
        <ele>54.799999237061</ele>
        <time>2022-04-12T15:07:27.000Z</time>
      </trkpt>
      <trkpt lat="43.65761" lon="7.11799">
        <ele>54</ele>
        <time>2022-04-12T15:07:28.000Z</time>
      </trkpt>
      <trkpt lat="43.6576" lon="7.11802">
        <ele>53.400001525879</ele>
        <time>2022-04-12T15:07:29.000Z</time>
      </trkpt>
      <trkpt lat="43.65758" lon="7.11808">
        <ele>52.200000762939</ele>
        <time>2022-04-12T15:07:31.000Z</time>
      </trkpt>
      <trkpt lat="43.65755" lon="7.1181">
        <ele>51</ele>
        <time>2022-04-12T15:07:33.000Z</time>
      </trkpt>
      <trkpt lat="43.65752" lon="7.11813">
        <ele>49.400001525879</ele>
        <time>2022-04-12T15:07:35.000Z</time>
      </trkpt>
      <trkpt lat="43.65751" lon="7.1182">
        <ele>48</ele>
        <time>2022-04-12T15:07:37.000Z</time>
      </trkpt>
      <trkpt lat="43.6575" lon="7.11823">
        <ele>47</ele>
        <time>2022-04-12T15:07:38.000Z</time>
      </trkpt>
      <trkpt lat="43.6575" lon="7.11827">
        <ele>45.799999237061</ele>
        <time>2022-04-12T15:07:39.000Z</time>
      </trkpt>
      <trkpt lat="43.65749" lon="7.11835">
        <ele>44</ele>
        <time>2022-04-12T15:07:41.000Z</time>
      </trkpt>
      <trkpt lat="43.65748" lon="7.11841">
        <ele>43</ele>
        <time>2022-04-12T15:07:43.000Z</time>
      </trkpt>
      <trkpt lat="43.65748" lon="7.11844">
        <ele>42.599998474121</ele>
        <time>2022-04-12T15:07:44.000Z</time>
      </trkpt>
      <trkpt lat="43.65748" lon="7.11847">
        <ele>41.599998474121</ele>
        <time>2022-04-12T15:07:46.000Z</time>
      </trkpt>
      <trkpt lat="43.65748" lon="7.11847">
        <ele>41</ele>
        <time>2022-04-12T15:07:47.000Z</time>
      </trkpt>
      <trkpt lat="43.65749" lon="7.11847">
        <ele>40.599998474121</ele>
        <time>2022-04-12T15:07:48.000Z</time>
      </trkpt>
      <trkpt lat="43.65749" lon="7.11847">
        <ele>39.400001525879</ele>
        <time>2022-04-12T15:07:51.000Z</time>
      </trkpt>
      <trkpt lat="43.6575" lon="7.11849">
        <ele>39.599998474121</ele>
        <time>2022-04-12T15:07:58.000Z</time>
      </trkpt>
      <trkpt lat="43.65749" lon="7.11851">
        <ele>39.200000762939</ele>
        <time>2022-04-12T15:08:04.000Z</time>
      </trkpt>
      <trkpt lat="43.65748" lon="7.11852">
        <ele>39.200000762939</ele>
        <time>2022-04-12T15:08:06.000Z</time>
      </trkpt>
      <trkpt lat="43.65746" lon="7.11851">
        <ele>38.400001525879</ele>
        <time>2022-04-12T15:08:10.000Z</time>
      </trkpt>
      <trkpt lat="43.65745" lon="7.11852">
        <ele>37.200000762939</ele>
        <time>2022-04-12T15:08:16.000Z</time>
      </trkpt>
      <trkpt lat="43.65744" lon="7.11852">
        <ele>36.400001525879</ele>
        <time>2022-04-12T15:08:18.000Z</time>
      </trkpt>
      <trkpt lat="43.65744" lon="7.11852">
        <ele>36</ele>
        <time>2022-04-12T15:08:19.000Z</time>
      </trkpt>
      <trkpt lat="43.65742" lon="7.11855">
        <ele>34.799999237061</ele>
        <time>2022-04-12T15:08:25.000Z</time>
      </trkpt>
      <trkpt lat="43.6574" lon="7.11856">
        <ele>33.599998474121</ele>
        <time>2022-04-12T15:08:29.000Z</time>
      </trkpt>
      <trkpt lat="43.65738" lon="7.11857">
        <ele>32.799999237061</ele>
        <time>2022-04-12T15:08:32.000Z</time>
      </trkpt>
      <trkpt lat="43.65737" lon="7.11858">
        <ele>32.400001525879</ele>
        <time>2022-04-12T15:08:35.000Z</time>
      </trkpt>
      <trkpt lat="43.65737" lon="7.11858">
        <ele>31.799999237061</ele>
        <time>2022-04-12T15:08:37.000Z</time>
      </trkpt>
      <trkpt lat="43.65736" lon="7.11858">
        <ele>31.200000762939</ele>
        <time>2022-04-12T15:08:38.000Z</time>
      </trkpt>
      <trkpt lat="43.65736" lon="7.11859">
        <ele>30</ele>
        <time>2022-04-12T15:08:41.000Z</time>
      </trkpt>
      <trkpt lat="43.65736" lon="7.1186">
        <ele>29.39999961853</ele>
        <time>2022-04-12T15:08:44.000Z</time>
      </trkpt>
      <trkpt lat="43.65733" lon="7.11863">
        <ele>29.200000762939</ele>
        <time>2022-04-12T15:08:47.000Z</time>
      </trkpt>
      <trkpt lat="43.65733" lon="7.11862">
        <ele>29.200000762939</ele>
        <time>2022-04-12T15:08:48.000Z</time>
      </trkpt>
      <trkpt lat="43.65732" lon="7.11861">
        <ele>28.799999237061</ele>
        <time>2022-04-12T15:08:50.000Z</time>
      </trkpt>
      <trkpt lat="43.65731" lon="7.11861">
        <ele>28.39999961853</ele>
        <time>2022-04-12T15:08:54.000Z</time>
      </trkpt>
      <trkpt lat="43.65732" lon="7.11858">
        <ele>28</ele>
        <time>2022-04-12T15:09:04.000Z</time>
      </trkpt>
      <trkpt lat="43.65731" lon="7.11858">
        <ele>28</ele>
        <time>2022-04-12T15:09:05.000Z</time>
      </trkpt>
      <trkpt lat="43.65732" lon="7.11856">
        <ele>27.799999237061</ele>
        <time>2022-04-12T15:09:09.000Z</time>
      </trkpt>
      <trkpt lat="43.65731" lon="7.11856">
        <ele>27.799999237061</ele>
        <time>2022-04-12T15:09:10.000Z</time>
      </trkpt>
      <trkpt lat="43.6573" lon="7.11855">
        <ele>27.799999237061</ele>
        <time>2022-04-12T15:09:20.000Z</time>
      </trkpt>
      <trkpt lat="43.65726" lon="7.11849">
        <ele>27.799999237061</ele>
        <time>2022-04-12T15:09:30.000Z</time>
      </trkpt>
      <trkpt lat="43.65725" lon="7.1185">
        <ele>28</ele>
        <time>2022-04-12T15:09:39.000Z</time>
      </trkpt>
      <trkpt lat="43.65726" lon="7.11852">
        <ele>28</ele>
        <time>2022-04-12T15:09:45.000Z</time>
      </trkpt>
      <trkpt lat="43.65725" lon="7.1185">
        <ele>28</ele>
        <time>2022-04-12T15:09:51.000Z</time>
      </trkpt>
      <trkpt lat="43.65725" lon="7.11851">
        <ele>27.799999237061</ele>
        <time>2022-04-12T15:10:02.000Z</time>
      </trkpt>
      <trkpt lat="43.65725" lon="7.11853">
        <ele>27.799999237061</ele>
        <time>2022-04-12T15:10:10.000Z</time>
      </trkpt>
      <trkpt lat="43.65726" lon="7.11853">
        <ele>28</ele>
        <time>2022-04-12T15:10:18.000Z</time>
      </trkpt>
      <trkpt lat="43.65725" lon="7.11854">
        <ele>28.39999961853</ele>
        <time>2022-04-12T15:10:27.000Z</time>
      </trkpt>
      <trkpt lat="43.65724" lon="7.11854">
        <ele>28.39999961853</ele>
        <time>2022-04-12T15:10:30.000Z</time>
      </trkpt>
      <trkpt lat="43.65721" lon="7.11859">
        <ele>28.200000762939</ele>
        <time>2022-04-12T15:10:32.000Z</time>
      </trkpt>
      <trkpt lat="43.65713" lon="7.11867">
        <ele>27.799999237061</ele>
        <time>2022-04-12T15:10:36.000Z</time>
      </trkpt>
      <trkpt lat="43.65709" lon="7.11881">
        <ele>27.60000038147</ele>
        <time>2022-04-12T15:10:40.000Z</time>
      </trkpt>
      <trkpt lat="43.65705" lon="7.11891">
        <ele>27.799999237061</ele>
        <time>2022-04-12T15:10:44.000Z</time>
      </trkpt>
      <trkpt lat="43.65704" lon="7.11896">
        <ele>27.799999237061</ele>
        <time>2022-04-12T15:10:46.000Z</time>
      </trkpt>
      <trkpt lat="43.65699" lon="7.11908">
        <ele>28.200000762939</ele>
        <time>2022-04-12T15:10:50.000Z</time>
      </trkpt>
      <trkpt lat="43.65686" lon="7.11926">
        <ele>27.60000038147</ele>
        <time>2022-04-12T15:10:55.000Z</time>
      </trkpt>
      <trkpt lat="43.65676" lon="7.11962">
        <ele>27.799999237061</ele>
        <time>2022-04-12T15:11:02.000Z</time>
      </trkpt>
      <trkpt lat="43.65673" lon="7.11974">
        <ele>27</ele>
        <time>2022-04-12T15:11:04.000Z</time>
      </trkpt>
      <trkpt lat="43.65667" lon="7.11983">
        <ele>26.799999237061</ele>
        <time>2022-04-12T15:11:06.000Z</time>
      </trkpt>
      <trkpt lat="43.65664" lon="7.11988">
        <ele>26.799999237061</ele>
        <time>2022-04-12T15:11:07.000Z</time>
      </trkpt>
      <trkpt lat="43.65661" lon="7.11993">
        <ele>27</ele>
        <time>2022-04-12T15:11:08.000Z</time>
      </trkpt>
      <trkpt lat="43.65657" lon="7.12011">
        <ele>27.200000762939</ele>
        <time>2022-04-12T15:11:11.000Z</time>
      </trkpt>
      <trkpt lat="43.65657" lon="7.12018">
        <ele>27.39999961853</ele>
        <time>2022-04-12T15:11:12.000Z</time>
      </trkpt>
      <trkpt lat="43.65656" lon="7.12032">
        <ele>27.799999237061</ele>
        <time>2022-04-12T15:11:14.000Z</time>
      </trkpt>
      <trkpt lat="43.65655" lon="7.12039">
        <ele>28</ele>
        <time>2022-04-12T15:11:15.000Z</time>
      </trkpt>
      <trkpt lat="43.65652" lon="7.12052">
        <ele>27.60000038147</ele>
        <time>2022-04-12T15:11:17.000Z</time>
      </trkpt>
      <trkpt lat="43.65647" lon="7.12067">
        <ele>26.60000038147</ele>
        <time>2022-04-12T15:11:19.000Z</time>
      </trkpt>
      <trkpt lat="43.65638" lon="7.12104">
        <ele>26.39999961853</ele>
        <time>2022-04-12T15:11:24.000Z</time>
      </trkpt>
      <trkpt lat="43.65626" lon="7.12153">
        <ele>27.200000762939</ele>
        <time>2022-04-12T15:11:32.000Z</time>
      </trkpt>
      <trkpt lat="43.65621" lon="7.12172">
        <ele>27.799999237061</ele>
        <time>2022-04-12T15:11:35.000Z</time>
      </trkpt>
      <trkpt lat="43.65613" lon="7.12208">
        <ele>26.60000038147</ele>
        <time>2022-04-12T15:11:40.000Z</time>
      </trkpt>
      <trkpt lat="43.65601" lon="7.12275">
        <ele>25.60000038147</ele>
        <time>2022-04-12T15:11:49.000Z</time>
      </trkpt>
      <trkpt lat="43.65596" lon="7.12296">
        <ele>25.60000038147</ele>
        <time>2022-04-12T15:11:52.000Z</time>
      </trkpt>
      <trkpt lat="43.65586" lon="7.12329">
        <ele>25.799999237061</ele>
        <time>2022-04-12T15:11:57.000Z</time>
      </trkpt>
      <trkpt lat="43.65574" lon="7.12369">
        <ele>24.60000038147</ele>
        <time>2022-04-12T15:12:03.000Z</time>
      </trkpt>
      <trkpt lat="43.65568" lon="7.12381">
        <ele>24.39999961853</ele>
        <time>2022-04-12T15:12:05.000Z</time>
      </trkpt>
      <trkpt lat="43.65545" lon="7.12423">
        <ele>24.799999237061</ele>
        <time>2022-04-12T15:12:12.000Z</time>
      </trkpt>
      <trkpt lat="43.65514" lon="7.12462">
        <ele>24.200000762939</ele>
        <time>2022-04-12T15:12:20.000Z</time>
      </trkpt>
      <trkpt lat="43.65503" lon="7.12475">
        <ele>23.39999961853</ele>
        <time>2022-04-12T15:12:23.000Z</time>
      </trkpt>
      <trkpt lat="43.65492" lon="7.12491">
        <ele>22</ele>
        <time>2022-04-12T15:12:26.000Z</time>
      </trkpt>
      <trkpt lat="43.65488" lon="7.12497">
        <ele>21.799999237061</ele>
        <time>2022-04-12T15:12:27.000Z</time>
      </trkpt>
      <trkpt lat="43.65482" lon="7.12508">
        <ele>22.39999961853</ele>
        <time>2022-04-12T15:12:29.000Z</time>
      </trkpt>
      <trkpt lat="43.65479" lon="7.12516">
        <ele>23</ele>
        <time>2022-04-12T15:12:30.000Z</time>
      </trkpt>
      <trkpt lat="43.65473" lon="7.12527">
        <ele>24.60000038147</ele>
        <time>2022-04-12T15:12:32.000Z</time>
      </trkpt>
      <trkpt lat="43.65464" lon="7.12531">
        <ele>24.799999237061</ele>
        <time>2022-04-12T15:12:34.000Z</time>
      </trkpt>
      <trkpt lat="43.65456" lon="7.12536">
        <ele>24.799999237061</ele>
        <time>2022-04-12T15:12:35.000Z</time>
      </trkpt>
      <trkpt lat="43.65436" lon="7.12557">
        <ele>24.39999961853</ele>
        <time>2022-04-12T15:12:40.000Z</time>
      </trkpt>
      <trkpt lat="43.65424" lon="7.12569">
        <ele>23.39999961853</ele>
        <time>2022-04-12T15:12:43.000Z</time>
      </trkpt>
      <trkpt lat="43.654" lon="7.12592">
        <ele>24</ele>
        <time>2022-04-12T15:12:49.000Z</time>
      </trkpt>
      <trkpt lat="43.65353" lon="7.12631">
        <ele>23.60000038147</ele>
        <time>2022-04-12T15:13:00.000Z</time>
      </trkpt>
      <trkpt lat="43.65344" lon="7.12643">
        <ele>24</ele>
        <time>2022-04-12T15:13:03.000Z</time>
      </trkpt>
      <trkpt lat="43.65346" lon="7.12648">
        <ele>24.200000762939</ele>
        <time>2022-04-12T15:13:04.000Z</time>
      </trkpt>
      <trkpt lat="43.65349" lon="7.12659">
        <ele>24.60000038147</ele>
        <time>2022-04-12T15:13:06.000Z</time>
      </trkpt>
      <trkpt lat="43.65345" lon="7.12664">
        <ele>24.60000038147</ele>
        <time>2022-04-12T15:13:07.000Z</time>
      </trkpt>
      <trkpt lat="43.65335" lon="7.12669">
        <ele>24.39999961853</ele>
        <time>2022-04-12T15:13:09.000Z</time>
      </trkpt>
      <trkpt lat="43.65331" lon="7.12673">
        <ele>24.200000762939</ele>
        <time>2022-04-12T15:13:10.000Z</time>
      </trkpt>
      <trkpt lat="43.65308" lon="7.12698">
        <ele>23.60000038147</ele>
        <time>2022-04-12T15:13:16.000Z</time>
      </trkpt>
      <trkpt lat="43.65304" lon="7.12703">
        <ele>23.39999961853</ele>
        <time>2022-04-12T15:13:17.000Z</time>
      </trkpt>
      <trkpt lat="43.65274" lon="7.12746">
        <ele>22.799999237061</ele>
        <time>2022-04-12T15:13:26.000Z</time>
      </trkpt>
      <trkpt lat="43.65272" lon="7.12752">
        <ele>22.799999237061</ele>
        <time>2022-04-12T15:13:27.000Z</time>
      </trkpt>
      <trkpt lat="43.65267" lon="7.12777">
        <ele>22.60000038147</ele>
        <time>2022-04-12T15:13:31.000Z</time>
      </trkpt>
      <trkpt lat="43.65266" lon="7.12784">
        <ele>22.60000038147</ele>
        <time>2022-04-12T15:13:32.000Z</time>
      </trkpt>
      <trkpt lat="43.65265" lon="7.12791">
        <ele>22.60000038147</ele>
        <time>2022-04-12T15:13:33.000Z</time>
      </trkpt>
      <trkpt lat="43.65262" lon="7.12798">
        <ele>22.799999237061</ele>
        <time>2022-04-12T15:13:34.000Z</time>
      </trkpt>
      <trkpt lat="43.65257" lon="7.12809">
        <ele>23.200000762939</ele>
        <time>2022-04-12T15:13:36.000Z</time>
      </trkpt>
      <trkpt lat="43.6525" lon="7.12821">
        <ele>23.60000038147</ele>
        <time>2022-04-12T15:13:38.000Z</time>
      </trkpt>
      <trkpt lat="43.65243" lon="7.12831">
        <ele>23.60000038147</ele>
        <time>2022-04-12T15:13:40.000Z</time>
      </trkpt>
      <trkpt lat="43.65232" lon="7.12835">
        <ele>24</ele>
        <time>2022-04-12T15:13:42.000Z</time>
      </trkpt>
      <trkpt lat="43.65221" lon="7.12836">
        <ele>24.39999961853</ele>
        <time>2022-04-12T15:13:44.000Z</time>
      </trkpt>
      <trkpt lat="43.65212" lon="7.12839">
        <ele>24.200000762939</ele>
        <time>2022-04-12T15:13:46.000Z</time>
      </trkpt>
      <trkpt lat="43.65207" lon="7.12843">
        <ele>24</ele>
        <time>2022-04-12T15:13:47.000Z</time>
      </trkpt>
      <trkpt lat="43.65199" lon="7.12859">
        <ele>23.60000038147</ele>
        <time>2022-04-12T15:13:50.000Z</time>
      </trkpt>
      <trkpt lat="43.652" lon="7.12877">
        <ele>23.60000038147</ele>
        <time>2022-04-12T15:13:53.000Z</time>
      </trkpt>
      <trkpt lat="43.65202" lon="7.12902">
        <ele>23.200000762939</ele>
        <time>2022-04-12T15:13:58.000Z</time>
      </trkpt>
      <trkpt lat="43.65196" lon="7.12908">
        <ele>22.60000038147</ele>
        <time>2022-04-12T15:14:00.000Z</time>
      </trkpt>
      <trkpt lat="43.65193" lon="7.12909">
        <ele>22.200000762939</ele>
        <time>2022-04-12T15:14:01.000Z</time>
      </trkpt>
      <trkpt lat="43.65189" lon="7.12899">
        <ele>21.799999237061</ele>
        <time>2022-04-12T15:14:04.000Z</time>
      </trkpt>
      <trkpt lat="43.65187" lon="7.12891">
        <ele>23.39999961853</ele>
        <time>2022-04-12T15:14:09.000Z</time>
      </trkpt>
      <trkpt lat="43.65187" lon="7.12891">
        <ele>23.60000038147</ele>
        <time>2022-04-12T15:14:11.000Z</time>
      </trkpt>
      <trkpt lat="43.65187" lon="7.12891">
        <ele>24.39999961853</ele>
        <time>2022-04-12T15:14:14.000Z</time>
      </trkpt>
      <trkpt lat="43.65188" lon="7.12891">
        <ele>23.60000038147</ele>
        <time>2022-04-12T15:14:20.000Z</time>
      </trkpt>
    </trkseg>
  </trk>
</gpx>